<?xml version='1.0' encoding='UTF-8'?><gpx version="1.1" creator="JPX - https://github.com/jenetics/jpx" xmlns="http://www.topografix.com/GPX/1/1"><trk><trkseg><trkpt lat="45.501455" lon="7.9707321"><ele>558.0</ele><time>2026-04-20T07:18:26.335Z</time></trkpt><trkpt lat="45.5013557" lon="7.9708352"><ele>558.0</ele><time>2026-04-20T07:18:27.335Z</time></trkpt><trkpt lat="45.5012618" lon="7.9709361"><ele>558.0</ele><time>2026-04-20T07:18:28.339Z</time></trkpt><trkpt lat="45.5011706" lon="7.9710692"><ele>558.0</ele><time>2026-04-20T07:18:29.339Z</time></trkpt><trkpt lat="45.5010809" lon="7.9711883"><ele>557.75</ele><time>2026-04-20T07:18:30.342Z</time></trkpt><trkpt lat="45.5009687" lon="7.9713103"><ele>557.5</ele><time>2026-04-20T07:18:31.343Z</time></trkpt><trkpt lat="45.5008737" lon="7.9714307"><ele>557.25</ele><time>2026-04-20T07:18:32.341Z</time></trkpt><trkpt lat="45.5007813" lon="7.9715295"><ele>557.0</ele><time>2026-04-20T07:18:33.343Z</time></trkpt><trkpt lat="45.5007018" lon="7.9716243"><ele>556.8333333333333</ele><time>2026-04-20T07:18:34.353Z</time></trkpt><trkpt lat="45.5006216" lon="7.9717058"><ele>556.6666666666666</ele><time>2026-04-20T07:18:35.345Z</time></trkpt><trkpt lat="45.500545" lon="7.9717664"><ele>556.5</ele><time>2026-04-20T07:18:36.347Z</time></trkpt><trkpt lat="45.500472" lon="7.9718166"><ele>556.3333333333334</ele><time>2026-04-20T07:18:37.344Z</time></trkpt><trkpt lat="45.5004018" lon="7.9718646"><ele>556.1666666666667</ele><time>2026-04-20T07:18:38.348Z</time></trkpt><trkpt lat="45.5003295" lon="7.9719038"><ele>556.0</ele><time>2026-04-20T07:18:39.349Z</time></trkpt><trkpt lat="45.500249" lon="7.9719481"><ele>556.0</ele><time>2026-04-20T07:18:40.346Z</time></trkpt><trkpt lat="45.5001568" lon="7.9719824"><ele>556.0</ele><time>2026-04-20T07:18:41.347Z</time></trkpt><trkpt lat="45.5000458" lon="7.9720186"><ele>556.0</ele><time>2026-04-20T07:18:42.346Z</time></trkpt><trkpt lat="45.4999287" lon="7.9720524"><ele>556.0</ele><time>2026-04-20T07:18:43.343Z</time></trkpt><trkpt lat="45.4997974" lon="7.9720765"><ele>556.0</ele><time>2026-04-20T07:18:44.349Z</time></trkpt><trkpt lat="45.4996769" lon="7.972099"><ele>556.0</ele><time>2026-04-20T07:18:45.351Z</time></trkpt><trkpt lat="45.4995708" lon="7.9721213"><ele>556.0</ele><time>2026-04-20T07:18:46.345Z</time></trkpt><trkpt lat="45.4993474" lon="7.9721638"><ele>556.3333333333334</ele><time>2026-04-20T07:18:48.35Z</time></trkpt><trkpt lat="45.4990984" lon="7.9722354"><ele>556.6666666666666</ele><time>2026-04-20T07:18:50.351Z</time></trkpt><trkpt lat="45.498974" lon="7.9722684"><ele>557.0</ele><time>2026-04-20T07:18:51.37Z</time></trkpt><trkpt lat="45.4988458" lon="7.9723089"><ele>557.0</ele><time>2026-04-20T07:18:52.364Z</time></trkpt><trkpt lat="45.4987213" lon="7.9723593"><ele>557.0</ele><time>2026-04-20T07:18:53.363Z</time></trkpt><trkpt lat="45.498617" lon="7.9724318"><ele>557.0</ele><time>2026-04-20T07:18:54.364Z</time></trkpt><trkpt lat="45.4985195" lon="7.9725135"><ele>557.0</ele><time>2026-04-20T07:18:55.359Z</time></trkpt><trkpt lat="45.4984251" lon="7.9726198"><ele>557.0</ele><time>2026-04-20T07:18:56.358Z</time></trkpt><trkpt lat="45.4983471" lon="7.9727379"><ele>557.0</ele><time>2026-04-20T07:18:57.362Z</time></trkpt><trkpt lat="45.4982873" lon="7.9728518"><ele>557.0</ele><time>2026-04-20T07:18:58.36Z</time></trkpt><trkpt lat="45.498238" lon="7.9729519"><ele>557.0</ele><time>2026-04-20T07:18:59.356Z</time></trkpt><trkpt lat="45.4981878" lon="7.9730445"><ele>557.0</ele><time>2026-04-20T07:19:00.368Z</time></trkpt><trkpt lat="45.4981285" lon="7.9731295"><ele>557.0</ele><time>2026-04-20T07:19:01.361Z</time></trkpt><trkpt lat="45.4980717" lon="7.973232"><ele>557.0</ele><time>2026-04-20T07:19:02.362Z</time></trkpt><trkpt lat="45.4980115" lon="7.9733514"><ele>557.0</ele><time>2026-04-20T07:19:03.358Z</time></trkpt><trkpt lat="45.4979467" lon="7.9734768"><ele>557.0</ele><time>2026-04-20T07:19:04.364Z</time></trkpt><trkpt lat="45.497882" lon="7.9735949"><ele>557.0</ele><time>2026-04-20T07:19:05.365Z</time></trkpt><trkpt lat="45.4978148" lon="7.9737158"><ele>558.25</ele><time>2026-04-20T07:19:06.363Z</time></trkpt><trkpt lat="45.4977439" lon="7.9738435"><ele>559.5</ele><time>2026-04-20T07:19:07.363Z</time></trkpt><trkpt lat="45.4976745" lon="7.9739844"><ele>560.75</ele><time>2026-04-20T07:19:08.359Z</time></trkpt><trkpt lat="45.497606" lon="7.9741394"><ele>562.0</ele><time>2026-04-20T07:19:09.366Z</time></trkpt><trkpt lat="45.4975483" lon="7.9743036"><ele>562.0</ele><time>2026-04-20T07:19:10.374Z</time></trkpt><trkpt lat="45.4974943" lon="7.9744696"><ele>562.0</ele><time>2026-04-20T07:19:11.366Z</time></trkpt><trkpt lat="45.4974401" lon="7.9746351"><ele>562.0</ele><time>2026-04-20T07:19:12.362Z</time></trkpt><trkpt lat="45.4973955" lon="7.9747857"><ele>562.0</ele><time>2026-04-20T07:19:13.367Z</time></trkpt><trkpt lat="45.4973536" lon="7.9749235"><ele>560.5</ele><time>2026-04-20T07:19:14.361Z</time></trkpt><trkpt lat="45.4972889" lon="7.9751576"><ele>559.0</ele><time>2026-04-20T07:19:16.364Z</time></trkpt><trkpt lat="45.4972624" lon="7.9752565"><ele>557.5</ele><time>2026-04-20T07:19:17.375Z</time></trkpt><trkpt lat="45.4972288" lon="7.9753737"><ele>556.0</ele><time>2026-04-20T07:19:18.376Z</time></trkpt><trkpt lat="45.4971807" lon="7.9755253"><ele>556.0</ele><time>2026-04-20T07:19:19.374Z</time></trkpt><trkpt lat="45.4971382" lon="7.9757013"><ele>556.0</ele><time>2026-04-20T07:19:20.368Z</time></trkpt><trkpt lat="45.4970854" lon="7.9758829"><ele>556.0</ele><time>2026-04-20T07:19:21.376Z</time></trkpt><trkpt lat="45.4970249" lon="7.9760581"><ele>556.0</ele><time>2026-04-20T07:19:22.379Z</time></trkpt><trkpt lat="45.4969479" lon="7.9762398"><ele>555.6666666666667</ele><time>2026-04-20T07:19:23.373Z</time></trkpt><trkpt lat="45.4968504" lon="7.9764239"><ele>555.3333333333334</ele><time>2026-04-20T07:19:24.374Z</time></trkpt><trkpt lat="45.4967455" lon="7.9765862"><ele>555.0</ele><time>2026-04-20T07:19:25.375Z</time></trkpt><trkpt lat="45.4966455" lon="7.9767552"><ele>555.0</ele><time>2026-04-20T07:19:26.376Z</time></trkpt><trkpt lat="45.4965369" lon="7.9769258"><ele>555.0</ele><time>2026-04-20T07:19:27.374Z</time></trkpt><trkpt lat="45.4964388" lon="7.9771006"><ele>555.0</ele><time>2026-04-20T07:19:28.382Z</time></trkpt><trkpt lat="45.4963699" lon="7.9772988"><ele>554.6666666666666</ele><time>2026-04-20T07:19:29.373Z</time></trkpt><trkpt lat="45.4963337" lon="7.9775221"><ele>554.3333333333333</ele><time>2026-04-20T07:19:30.37Z</time></trkpt><trkpt lat="45.4963072" lon="7.97776"><ele>554.0</ele><time>2026-04-20T07:19:31.371Z</time></trkpt><trkpt lat="45.4962628" lon="7.9779959"><ele>557.0</ele><time>2026-04-20T07:19:32.372Z</time></trkpt><trkpt lat="45.4962239" lon="7.978244"><ele>560.0</ele><time>2026-04-20T07:19:33.37Z</time></trkpt><trkpt lat="45.4961433" lon="7.9784784"><ele>563.0</ele><time>2026-04-20T07:19:34.372Z</time></trkpt><trkpt lat="45.4960745" lon="7.978724"><ele>563.0</ele><time>2026-04-20T07:19:35.371Z</time></trkpt><trkpt lat="45.4960646" lon="7.9789985"><ele>563.0</ele><time>2026-04-20T07:19:36.373Z</time></trkpt><trkpt lat="45.4960069" lon="7.9792366"><ele>563.0</ele><time>2026-04-20T07:19:37.382Z</time></trkpt><trkpt lat="45.4959492" lon="7.9794857"><ele>562.3333333333333</ele><time>2026-04-20T07:19:38.376Z</time></trkpt><trkpt lat="45.4958512" lon="7.9797079"><ele>561.6666666666666</ele><time>2026-04-20T07:19:39.375Z</time></trkpt><trkpt lat="45.4957599" lon="7.9799277"><ele>561.0</ele><time>2026-04-20T07:19:40.38Z</time></trkpt><trkpt lat="45.4957147" lon="7.9801703"><ele>560.6666666666666</ele><time>2026-04-20T07:19:41.38Z</time></trkpt><trkpt lat="45.4956609" lon="7.9804074"><ele>560.3333333333333</ele><time>2026-04-20T07:19:42.378Z</time></trkpt><trkpt lat="45.4956257" lon="7.9806571"><ele>560.0</ele><time>2026-04-20T07:19:43.377Z</time></trkpt><trkpt lat="45.4955924" lon="7.9808931"><ele>558.3333333333333</ele><time>2026-04-20T07:19:44.38Z</time></trkpt><trkpt lat="45.4955745" lon="7.981145"><ele>556.6666666666666</ele><time>2026-04-20T07:19:45.371Z</time></trkpt><trkpt lat="45.4955341" lon="7.981384"><ele>555.0</ele><time>2026-04-20T07:19:46.372Z</time></trkpt><trkpt lat="45.4954984" lon="7.9815961"><ele>556.0</ele><time>2026-04-20T07:19:47.372Z</time></trkpt><trkpt lat="45.495426" lon="7.9818042"><ele>557.0</ele><time>2026-04-20T07:19:48.374Z</time></trkpt><trkpt lat="45.4953646" lon="7.9820422"><ele>558.0</ele><time>2026-04-20T07:19:49.374Z</time></trkpt><trkpt lat="45.4953056" lon="7.9822813"><ele>558.0</ele><time>2026-04-20T07:19:50.374Z</time></trkpt><trkpt lat="45.4952221" lon="7.9825141"><ele>558.0</ele><time>2026-04-20T07:19:51.376Z</time></trkpt><trkpt lat="45.4951319" lon="7.982726"><ele>558.0</ele><time>2026-04-20T07:19:52.378Z</time></trkpt><trkpt lat="45.4950033" lon="7.9829578"><ele>554.3333333333334</ele><time>2026-04-20T07:19:53.384Z</time></trkpt><trkpt lat="45.494899" lon="7.9831669"><ele>550.6666666666667</ele><time>2026-04-20T07:19:54.468Z</time></trkpt><trkpt lat="45.4947955" lon="7.983375"><ele>547.0</ele><time>2026-04-20T07:19:55.462Z</time></trkpt><trkpt lat="45.4947045" lon="7.983587"><ele>547.0</ele><time>2026-04-20T07:19:56.473Z</time></trkpt><trkpt lat="45.4946265" lon="7.9838145"><ele>547.0</ele><time>2026-04-20T07:19:57.471Z</time></trkpt><trkpt lat="45.4945625" lon="7.9840563"><ele>547.0</ele><time>2026-04-20T07:19:58.465Z</time></trkpt><trkpt lat="45.4945161" lon="7.9843176"><ele>542.0</ele><time>2026-04-20T07:19:59.455Z</time></trkpt><trkpt lat="45.4943794" lon="7.9848268"><ele>537.0</ele><time>2026-04-20T07:20:01.354Z</time></trkpt><trkpt lat="45.4942681" lon="7.985066"><ele>534.0</ele><time>2026-04-20T07:20:02.349Z</time></trkpt><trkpt lat="45.494146" lon="7.9852882"><ele>531.0</ele><time>2026-04-20T07:20:03.363Z</time></trkpt><trkpt lat="45.4940306" lon="7.9855141"><ele>528.0</ele><time>2026-04-20T07:20:04.363Z</time></trkpt><trkpt lat="45.493902" lon="7.9857168"><ele>527.3333333333334</ele><time>2026-04-20T07:20:05.37Z</time></trkpt><trkpt lat="45.4937865" lon="7.9859212"><ele>526.6666666666667</ele><time>2026-04-20T07:20:06.367Z</time></trkpt><trkpt lat="45.4936705" lon="7.9861301"><ele>526.0</ele><time>2026-04-20T07:20:07.367Z</time></trkpt><trkpt lat="45.4935672" lon="7.9863465"><ele>525.3333333333334</ele><time>2026-04-20T07:20:08.376Z</time></trkpt><trkpt lat="45.4934794" lon="7.98658"><ele>524.6666666666666</ele><time>2026-04-20T07:20:09.369Z</time></trkpt><trkpt lat="45.4933922" lon="7.9868087"><ele>524.0</ele><time>2026-04-20T07:20:10.374Z</time></trkpt><trkpt lat="45.4933186" lon="7.9870444"><ele>524.0</ele><time>2026-04-20T07:20:11.369Z</time></trkpt><trkpt lat="45.4932518" lon="7.9872759"><ele>524.0</ele><time>2026-04-20T07:20:12.368Z</time></trkpt><trkpt lat="45.4931498" lon="7.9875106"><ele>524.0</ele><time>2026-04-20T07:20:13.367Z</time></trkpt><trkpt lat="45.4930525" lon="7.9877385"><ele>524.0</ele><time>2026-04-20T07:20:14.37Z</time></trkpt><trkpt lat="45.4929668" lon="7.98798"><ele>524.0</ele><time>2026-04-20T07:20:15.369Z</time></trkpt><trkpt lat="45.4928809" lon="7.9882126"><ele>524.0</ele><time>2026-04-20T07:20:16.369Z</time></trkpt><trkpt lat="45.4927961" lon="7.9884442"><ele>522.0</ele><time>2026-04-20T07:20:17.374Z</time></trkpt><trkpt lat="45.4927244" lon="7.9886725"><ele>520.0</ele><time>2026-04-20T07:20:18.373Z</time></trkpt><trkpt lat="45.4926395" lon="7.9889103"><ele>518.0</ele><time>2026-04-20T07:20:19.374Z</time></trkpt><trkpt lat="45.4925383" lon="7.9891334"><ele>517.0</ele><time>2026-04-20T07:20:20.372Z</time></trkpt><trkpt lat="45.4924502" lon="7.9893643"><ele>516.0</ele><time>2026-04-20T07:20:21.369Z</time></trkpt><trkpt lat="45.4923798" lon="7.989593"><ele>515.0</ele><time>2026-04-20T07:20:22.372Z</time></trkpt><trkpt lat="45.4923078" lon="7.9898074"><ele>513.6666666666666</ele><time>2026-04-20T07:20:23.37Z</time></trkpt><trkpt lat="45.4922177" lon="7.990029"><ele>512.3333333333334</ele><time>2026-04-20T07:20:24.37Z</time></trkpt><trkpt lat="45.4921344" lon="7.9902482"><ele>511.0</ele><time>2026-04-20T07:20:25.372Z</time></trkpt><trkpt lat="45.4920803" lon="7.990476"><ele>511.0</ele><time>2026-04-20T07:20:26.363Z</time></trkpt><trkpt lat="45.4920205" lon="7.9906966"><ele>511.0</ele><time>2026-04-20T07:20:27.393Z</time></trkpt><trkpt lat="45.4919905" lon="7.9909401"><ele>511.0</ele><time>2026-04-20T07:20:28.391Z</time></trkpt><trkpt lat="45.491948" lon="7.9911792"><ele>509.33333333333337</ele><time>2026-04-20T07:20:29.366Z</time></trkpt><trkpt lat="45.4919468" lon="7.9914022"><ele>507.66666666666663</ele><time>2026-04-20T07:20:30.364Z</time></trkpt><trkpt lat="45.4919309" lon="7.9916329"><ele>506.0</ele><time>2026-04-20T07:20:31.367Z</time></trkpt><trkpt lat="45.4919512" lon="7.9918598"><ele>504.66666666666663</ele><time>2026-04-20T07:20:32.39Z</time></trkpt><trkpt lat="45.4919969" lon="7.9920931"><ele>503.33333333333337</ele><time>2026-04-20T07:20:33.359Z</time></trkpt><trkpt lat="45.4920396" lon="7.9923006"><ele>502.0</ele><time>2026-04-20T07:20:34.361Z</time></trkpt><trkpt lat="45.4920854" lon="7.9924834"><ele>502.0</ele><time>2026-04-20T07:20:35.362Z</time></trkpt><trkpt lat="45.4921549" lon="7.9926488"><ele>502.0</ele><time>2026-04-20T07:20:36.364Z</time></trkpt><trkpt lat="45.4922329" lon="7.9928183"><ele>502.0</ele><time>2026-04-20T07:20:37.37Z</time></trkpt><trkpt lat="45.4922619" lon="7.9929918"><ele>502.0</ele><time>2026-04-20T07:20:38.365Z</time></trkpt><trkpt lat="45.4923032" lon="7.9931141"><ele>502.00000000000006</ele><time>2026-04-20T07:20:39.363Z</time></trkpt><trkpt lat="45.4923302" lon="7.9932195"><ele>502.0</ele><time>2026-04-20T07:20:40.352Z</time></trkpt><trkpt lat="45.492351" lon="7.9933313"><ele>502.0</ele><time>2026-04-20T07:20:41.354Z</time></trkpt><trkpt lat="45.4923371" lon="7.9934637"><ele>502.0</ele><time>2026-04-20T07:20:45.358Z</time></trkpt><trkpt lat="45.4923431" lon="7.9935537"><ele>502.00000000000006</ele><time>2026-04-20T07:20:46.383Z</time></trkpt><trkpt lat="45.4923852" lon="7.9936677"><ele>502.0</ele><time>2026-04-20T07:20:47.361Z</time></trkpt><trkpt lat="45.4924388" lon="7.9938028"><ele>502.0</ele><time>2026-04-20T07:20:48.352Z</time></trkpt><trkpt lat="45.4924996" lon="7.9939258"><ele>502.0</ele><time>2026-04-20T07:20:49.354Z</time></trkpt><trkpt lat="45.492545" lon="7.9940709"><ele>502.0</ele><time>2026-04-20T07:20:50.354Z</time></trkpt><trkpt lat="45.4926127" lon="7.9942274"><ele>502.0</ele><time>2026-04-20T07:20:51.347Z</time></trkpt><trkpt lat="45.492668" lon="7.9943827"><ele>501.5</ele><time>2026-04-20T07:20:52.353Z</time></trkpt><trkpt lat="45.4927206" lon="7.9945485"><ele>501.0</ele><time>2026-04-20T07:20:53.355Z</time></trkpt><trkpt lat="45.4927643" lon="7.9947184"><ele>500.5</ele><time>2026-04-20T07:20:54.352Z</time></trkpt><trkpt lat="45.4927916" lon="7.9948926"><ele>500.0</ele><time>2026-04-20T07:20:55.353Z</time></trkpt><trkpt lat="45.4928143" lon="7.9950676"><ele>499.25</ele><time>2026-04-20T07:20:56.352Z</time></trkpt><trkpt lat="45.492837" lon="7.995242"><ele>498.5</ele><time>2026-04-20T07:20:57.36Z</time></trkpt><trkpt lat="45.4928495" lon="7.9954113"><ele>497.75</ele><time>2026-04-20T07:20:58.364Z</time></trkpt><trkpt lat="45.4928625" lon="7.9955731"><ele>497.0</ele><time>2026-04-20T07:20:59.36Z</time></trkpt><trkpt lat="45.4928881" lon="7.9957343"><ele>496.40000000000003</ele><time>2026-04-20T07:21:00.357Z</time></trkpt><trkpt lat="45.4929131" lon="7.9958675"><ele>495.80000000000007</ele><time>2026-04-20T07:21:01.355Z</time></trkpt><trkpt lat="45.4929358" lon="7.9960006"><ele>495.2</ele><time>2026-04-20T07:21:02.356Z</time></trkpt><trkpt lat="45.4929616" lon="7.9961462"><ele>494.6</ele><time>2026-04-20T07:21:03.355Z</time></trkpt><trkpt lat="45.4929798" lon="7.9963094"><ele>494.0</ele><time>2026-04-20T07:21:04.35Z</time></trkpt><trkpt lat="45.4929961" lon="7.9964736"><ele>493.75</ele><time>2026-04-20T07:21:05.352Z</time></trkpt><trkpt lat="45.4930161" lon="7.996628"><ele>493.5</ele><time>2026-04-20T07:21:06.35Z</time></trkpt><trkpt lat="45.4930211" lon="7.9967999"><ele>493.25</ele><time>2026-04-20T07:21:07.352Z</time></trkpt><trkpt lat="45.4930229" lon="7.9969729"><ele>493.0</ele><time>2026-04-20T07:21:08.346Z</time></trkpt><trkpt lat="45.4930201" lon="7.9971191"><ele>492.59999999999997</ele><time>2026-04-20T07:21:09.351Z</time></trkpt><trkpt lat="45.4930114" lon="7.9972595"><ele>492.19999999999993</ele><time>2026-04-20T07:21:10.351Z</time></trkpt><trkpt lat="45.4930026" lon="7.9973919"><ele>491.8</ele><time>2026-04-20T07:21:11.353Z</time></trkpt><trkpt lat="45.492991" lon="7.9975046"><ele>491.4</ele><time>2026-04-20T07:21:12.357Z</time></trkpt><trkpt lat="45.4929681" lon="7.9975987"><ele>491.0</ele><time>2026-04-20T07:21:13.362Z</time></trkpt><trkpt lat="45.4929293" lon="7.9977513"><ele>491.66666666666663</ele><time>2026-04-20T07:21:15.36Z</time></trkpt><trkpt lat="45.492832" lon="7.9978569"><ele>492.3333333333333</ele><time>2026-04-20T07:21:17.354Z</time></trkpt><trkpt lat="45.4927708" lon="7.997886"><ele>493.0</ele><time>2026-04-20T07:21:18.353Z</time></trkpt><trkpt lat="45.4927008" lon="7.9978867"><ele>493.66666666666663</ele><time>2026-04-20T07:21:19.36Z</time></trkpt><trkpt lat="45.492636" lon="7.9978849"><ele>494.3333333333333</ele><time>2026-04-20T07:21:20.363Z</time></trkpt><trkpt lat="45.4925512" lon="7.9979364"><ele>495.0</ele><time>2026-04-20T07:21:22.347Z</time></trkpt><trkpt lat="45.4925196" lon="7.9980171"><ele>495.0</ele><time>2026-04-20T07:21:23.351Z</time></trkpt><trkpt lat="45.4924928" lon="7.99812"><ele>495.0</ele><time>2026-04-20T07:21:24.351Z</time></trkpt><trkpt lat="45.4924596" lon="7.9982342"><ele>495.0</ele><time>2026-04-20T07:21:25.351Z</time></trkpt><trkpt lat="45.4924157" lon="7.9983516"><ele>495.0</ele><time>2026-04-20T07:21:26.352Z</time></trkpt><trkpt lat="45.4923792" lon="7.9984699"><ele>495.0</ele><time>2026-04-20T07:21:27.359Z</time></trkpt><trkpt lat="45.4923311" lon="7.9985796"><ele>495.0</ele><time>2026-04-20T07:21:28.36Z</time></trkpt><trkpt lat="45.4922906" lon="7.9986998"><ele>493.0</ele><time>2026-04-20T07:21:29.357Z</time></trkpt><trkpt lat="45.4922473" lon="7.9988288"><ele>491.0</ele><time>2026-04-20T07:21:30.36Z</time></trkpt><trkpt lat="45.4922023" lon="7.9989772"><ele>489.0</ele><time>2026-04-20T07:21:31.356Z</time></trkpt><trkpt lat="45.4921644" lon="7.999142"><ele>487.0</ele><time>2026-04-20T07:21:32.37Z</time></trkpt><trkpt lat="45.4921179" lon="7.9993092"><ele>485.75</ele><time>2026-04-20T07:21:33.367Z</time></trkpt><trkpt lat="45.4920719" lon="7.9994673"><ele>484.5</ele><time>2026-04-20T07:21:34.367Z</time></trkpt><trkpt lat="45.4920103" lon="7.9996349"><ele>483.25</ele><time>2026-04-20T07:21:35.368Z</time></trkpt><trkpt lat="45.4919496" lon="7.9998132"><ele>482.0</ele><time>2026-04-20T07:21:36.363Z</time></trkpt><trkpt lat="45.4918642" lon="7.9999877"><ele>482.0</ele><time>2026-04-20T07:21:37.362Z</time></trkpt><trkpt lat="45.4918029" lon="8.0001816"><ele>482.0</ele><time>2026-04-20T07:21:38.371Z</time></trkpt><trkpt lat="45.4917262" lon="8.0003735"><ele>482.0</ele><time>2026-04-20T07:21:39.372Z</time></trkpt><trkpt lat="45.4916409" lon="8.0005457"><ele>482.0</ele><time>2026-04-20T07:21:40.394Z</time></trkpt><trkpt lat="45.4915531" lon="8.0007022"><ele>482.0</ele><time>2026-04-20T07:21:41.369Z</time></trkpt><trkpt lat="45.49148" lon="8.0008639"><ele>482.0</ele><time>2026-04-20T07:21:42.365Z</time></trkpt><trkpt lat="45.4914145" lon="8.0010126"><ele>482.0</ele><time>2026-04-20T07:21:43.361Z</time></trkpt><trkpt lat="45.4913499" lon="8.001175"><ele>480.66666666666663</ele><time>2026-04-20T07:21:44.367Z</time></trkpt><trkpt lat="45.4912916" lon="8.0013815"><ele>479.33333333333337</ele><time>2026-04-20T07:21:45.364Z</time></trkpt><trkpt lat="45.49124" lon="8.0015917"><ele>478.0</ele><time>2026-04-20T07:21:46.369Z</time></trkpt><trkpt lat="45.4911827" lon="8.0017945"><ele>477.0</ele><time>2026-04-20T07:21:47.37Z</time></trkpt><trkpt lat="45.491153" lon="8.0020051"><ele>476.0</ele><time>2026-04-20T07:21:48.37Z</time></trkpt><trkpt lat="45.4911069" lon="8.0021973"><ele>475.0</ele><time>2026-04-20T07:21:49.37Z</time></trkpt><trkpt lat="45.4910338" lon="8.0023951"><ele>476.0</ele><time>2026-04-20T07:21:50.382Z</time></trkpt><trkpt lat="45.4909716" lon="8.0025704"><ele>477.0</ele><time>2026-04-20T07:21:51.369Z</time></trkpt><trkpt lat="45.4909218" lon="8.0027213"><ele>478.0</ele><time>2026-04-20T07:21:52.385Z</time></trkpt><trkpt lat="45.4908704" lon="8.0028623"><ele>479.0</ele><time>2026-04-20T07:21:53.377Z</time></trkpt><trkpt lat="45.4908159" lon="8.002996"><ele>479.0</ele><time>2026-04-20T07:21:54.374Z</time></trkpt><trkpt lat="45.490732" lon="8.0031376"><ele>479.0</ele><time>2026-04-20T07:21:55.369Z</time></trkpt><trkpt lat="45.4906528" lon="8.0032781"><ele>479.0</ele><time>2026-04-20T07:21:56.368Z</time></trkpt><trkpt lat="45.490589" lon="8.0034532"><ele>479.0</ele><time>2026-04-20T07:21:57.371Z</time></trkpt><trkpt lat="45.4905165" lon="8.0036342"><ele>479.0</ele><time>2026-04-20T07:21:58.389Z</time></trkpt><trkpt lat="45.4904345" lon="8.0038134"><ele>479.0</ele><time>2026-04-20T07:21:59.384Z</time></trkpt><trkpt lat="45.4903409" lon="8.00399"><ele>479.0</ele><time>2026-04-20T07:22:00.387Z</time></trkpt><trkpt lat="45.4902621" lon="8.0041482"><ele>479.0</ele><time>2026-04-20T07:22:01.384Z</time></trkpt><trkpt lat="45.4901781" lon="8.00431"><ele>478.25</ele><time>2026-04-20T07:22:02.388Z</time></trkpt><trkpt lat="45.4900814" lon="8.0044566"><ele>477.5</ele><time>2026-04-20T07:22:03.383Z</time></trkpt><trkpt lat="45.4899841" lon="8.0046203"><ele>476.75</ele><time>2026-04-20T07:22:04.377Z</time></trkpt><trkpt lat="45.4899005" lon="8.0047566"><ele>476.0</ele><time>2026-04-20T07:22:05.386Z</time></trkpt><trkpt lat="45.4898449" lon="8.0048983"><ele>474.4</ele><time>2026-04-20T07:22:06.469Z</time></trkpt><trkpt lat="45.4897954" lon="8.0050133"><ele>472.8</ele><time>2026-04-20T07:22:07.469Z</time></trkpt><trkpt lat="45.4897481" lon="8.0051014"><ele>471.19999999999993</ele><time>2026-04-20T07:22:08.464Z</time></trkpt><trkpt lat="45.4897255" lon="8.0052397"><ele>469.59999999999997</ele><time>2026-04-20T07:22:10.455Z</time></trkpt><trkpt lat="45.4897481" lon="8.0054115"><ele>468.0</ele><time>2026-04-20T07:22:12.356Z</time></trkpt><trkpt lat="45.4898045" lon="8.0055153"><ele>468.0</ele><time>2026-04-20T07:22:13.355Z</time></trkpt><trkpt lat="45.4898907" lon="8.0055859"><ele>467.99999999999994</ele><time>2026-04-20T07:22:14.355Z</time></trkpt><trkpt lat="45.4899893" lon="8.0056642"><ele>467.99999999999994</ele><time>2026-04-20T07:22:15.351Z</time></trkpt><trkpt lat="45.4900814" lon="8.0057506"><ele>468.0</ele><time>2026-04-20T07:22:16.356Z</time></trkpt><trkpt lat="45.4901682" lon="8.0058345"><ele>468.0</ele><time>2026-04-20T07:22:17.352Z</time></trkpt><trkpt lat="45.4902464" lon="8.0059294"><ele>467.4</ele><time>2026-04-20T07:22:18.351Z</time></trkpt><trkpt lat="45.4903083" lon="8.0060546"><ele>466.79999999999995</ele><time>2026-04-20T07:22:19.36Z</time></trkpt><trkpt lat="45.4903514" lon="8.0061764"><ele>466.2</ele><time>2026-04-20T07:22:20.358Z</time></trkpt><trkpt lat="45.490392" lon="8.0063084"><ele>465.6</ele><time>2026-04-20T07:22:21.354Z</time></trkpt><trkpt lat="45.4904212" lon="8.0064468"><ele>465.0</ele><time>2026-04-20T07:22:22.356Z</time></trkpt><trkpt lat="45.4904426" lon="8.0065896"><ele>462.0</ele><time>2026-04-20T07:22:23.356Z</time></trkpt><trkpt lat="45.4904502" lon="8.0067401"><ele>459.0</ele><time>2026-04-20T07:22:24.357Z</time></trkpt><trkpt lat="45.4904511" lon="8.0068842"><ele>456.0</ele><time>2026-04-20T07:22:25.346Z</time></trkpt><trkpt lat="45.4904448" lon="8.0070247"><ele>453.0</ele><time>2026-04-20T07:22:26.344Z</time></trkpt><trkpt lat="45.4904694" lon="8.0071358"><ele>450.0</ele><time>2026-04-20T07:22:27.343Z</time></trkpt><trkpt lat="45.4905207" lon="8.0072308"><ele>450.0</ele><time>2026-04-20T07:22:28.342Z</time></trkpt><trkpt lat="45.4905834" lon="8.0073275"><ele>450.0</ele><time>2026-04-20T07:22:29.342Z</time></trkpt><trkpt lat="45.4906538" lon="8.0074387"><ele>450.0</ele><time>2026-04-20T07:22:30.35Z</time></trkpt><trkpt lat="45.4907103" lon="8.0075572"><ele>450.0</ele><time>2026-04-20T07:22:31.355Z</time></trkpt><trkpt lat="45.4907262" lon="8.0076946"><ele>450.0</ele><time>2026-04-20T07:22:32.367Z</time></trkpt><trkpt lat="45.4907104" lon="8.0078226"><ele>448.8</ele><time>2026-04-20T07:22:33.358Z</time></trkpt><trkpt lat="45.4906675" lon="8.007938"><ele>447.6</ele><time>2026-04-20T07:22:34.358Z</time></trkpt><trkpt lat="45.490597" lon="8.0080628"><ele>446.4</ele><time>2026-04-20T07:22:35.356Z</time></trkpt><trkpt lat="45.490529" lon="8.0082082"><ele>445.2</ele><time>2026-04-20T07:22:36.352Z</time></trkpt><trkpt lat="45.4904712" lon="8.0083537"><ele>444.0</ele><time>2026-04-20T07:22:37.354Z</time></trkpt><trkpt lat="45.4904344" lon="8.0084969"><ele>442.4</ele><time>2026-04-20T07:22:38.351Z</time></trkpt><trkpt lat="45.4904249" lon="8.0086339"><ele>440.79999999999995</ele><time>2026-04-20T07:22:39.344Z</time></trkpt><trkpt lat="45.4904581" lon="8.0087662"><ele>439.20000000000005</ele><time>2026-04-20T07:22:40.348Z</time></trkpt><trkpt lat="45.4905098" lon="8.0088735"><ele>437.6</ele><time>2026-04-20T07:22:41.353Z</time></trkpt><trkpt lat="45.4905779" lon="8.008963"><ele>436.0</ele><time>2026-04-20T07:22:42.354Z</time></trkpt><trkpt lat="45.4906563" lon="8.0090632"><ele>434.0</ele><time>2026-04-20T07:22:43.35Z</time></trkpt><trkpt lat="45.4907331" lon="8.0091824"><ele>432.0</ele><time>2026-04-20T07:22:44.358Z</time></trkpt><trkpt lat="45.4907939" lon="8.0093222"><ele>430.0</ele><time>2026-04-20T07:22:45.359Z</time></trkpt><trkpt lat="45.4908441" lon="8.0094604"><ele>428.0</ele><time>2026-04-20T07:22:46.358Z</time></trkpt><trkpt lat="45.4908809" lon="8.0095746"><ele>426.0</ele><time>2026-04-20T07:22:47.359Z</time></trkpt><trkpt lat="45.4909177" lon="8.0096644"><ele>426.0</ele><time>2026-04-20T07:22:48.351Z</time></trkpt><trkpt lat="45.4910177" lon="8.0097587"><ele>426.0</ele><time>2026-04-20T07:22:50.369Z</time></trkpt><trkpt lat="45.491139" lon="8.0096623"><ele>426.0</ele><time>2026-04-20T07:22:52.358Z</time></trkpt><trkpt lat="45.4911984" lon="8.0095641"><ele>426.0</ele><time>2026-04-20T07:22:53.361Z</time></trkpt><trkpt lat="45.4912626" lon="8.0094752"><ele>426.0</ele><time>2026-04-20T07:22:54.364Z</time></trkpt><trkpt lat="45.4913362" lon="8.0094047"><ele>423.6</ele><time>2026-04-20T07:22:55.346Z</time></trkpt><trkpt lat="45.4914102" lon="8.00937"><ele>421.20000000000005</ele><time>2026-04-20T07:22:56.366Z</time></trkpt><trkpt lat="45.4914765" lon="8.0093925"><ele>418.79999999999995</ele><time>2026-04-20T07:22:57.349Z</time></trkpt><trkpt lat="45.4915513" lon="8.0094608"><ele>416.4</ele><time>2026-04-20T07:22:58.361Z</time></trkpt><trkpt lat="45.4916275" lon="8.0095946"><ele>414.0</ele><time>2026-04-20T07:22:59.354Z</time></trkpt><trkpt lat="45.4916949" lon="8.0097223"><ele>414.0</ele><time>2026-04-20T07:23:00.356Z</time></trkpt><trkpt lat="45.4917289" lon="8.0098436"><ele>414.0</ele><time>2026-04-20T07:23:01.357Z</time></trkpt><trkpt lat="45.4917186" lon="8.0099658"><ele>414.0</ele><time>2026-04-20T07:23:02.357Z</time></trkpt><trkpt lat="45.4916976" lon="8.0100858"><ele>414.0</ele><time>2026-04-20T07:23:03.353Z</time></trkpt><trkpt lat="45.4916501" lon="8.0102068"><ele>414.0</ele><time>2026-04-20T07:23:04.362Z</time></trkpt><trkpt lat="45.4915871" lon="8.0103106"><ele>412.79999999999995</ele><time>2026-04-20T07:23:05.365Z</time></trkpt><trkpt lat="45.4915391" lon="8.0104017"><ele>411.59999999999997</ele><time>2026-04-20T07:23:06.36Z</time></trkpt><trkpt lat="45.4915061" lon="8.0105172"><ele>410.4</ele><time>2026-04-20T07:23:07.352Z</time></trkpt><trkpt lat="45.4914844" lon="8.0106429"><ele>409.2</ele><time>2026-04-20T07:23:08.359Z</time></trkpt><trkpt lat="45.4914895" lon="8.0108082"><ele>408.0</ele><time>2026-04-20T07:23:09.353Z</time></trkpt><trkpt lat="45.4915068" lon="8.0109844"><ele>406.75</ele><time>2026-04-20T07:23:10.352Z</time></trkpt><trkpt lat="45.4915143" lon="8.0111519"><ele>405.5</ele><time>2026-04-20T07:23:11.362Z</time></trkpt><trkpt lat="45.4915284" lon="8.0113149"><ele>404.25</ele><time>2026-04-20T07:23:12.371Z</time></trkpt><trkpt lat="45.4915515" lon="8.011485"><ele>403.0</ele><time>2026-04-20T07:23:13.364Z</time></trkpt><trkpt lat="45.491575" lon="8.0116432"><ele>402.0</ele><time>2026-04-20T07:23:14.359Z</time></trkpt><trkpt lat="45.4915848" lon="8.0117834"><ele>401.0</ele><time>2026-04-20T07:23:15.365Z</time></trkpt><trkpt lat="45.4915692" lon="8.0119249"><ele>400.0</ele><time>2026-04-20T07:23:16.361Z</time></trkpt><trkpt lat="45.4915393" lon="8.012066"><ele>399.0</ele><time>2026-04-20T07:23:17.368Z</time></trkpt><trkpt lat="45.491504" lon="8.0121971"><ele>398.0</ele><time>2026-04-20T07:23:18.36Z</time></trkpt><trkpt lat="45.491453" lon="8.0123261"><ele>398.0</ele><time>2026-04-20T07:23:19.361Z</time></trkpt><trkpt lat="45.4914041" lon="8.0124596"><ele>398.0</ele><time>2026-04-20T07:23:20.361Z</time></trkpt><trkpt lat="45.491357" lon="8.0125856"><ele>398.0</ele><time>2026-04-20T07:23:21.361Z</time></trkpt><trkpt lat="45.491303" lon="8.012708"><ele>398.0</ele><time>2026-04-20T07:23:22.372Z</time></trkpt><trkpt lat="45.491266" lon="8.0128421"><ele>398.0</ele><time>2026-04-20T07:23:23.363Z</time></trkpt><trkpt lat="45.4912494" lon="8.0129888"><ele>395.75</ele><time>2026-04-20T07:23:24.364Z</time></trkpt><trkpt lat="45.4912453" lon="8.0131507"><ele>393.5</ele><time>2026-04-20T07:23:25.376Z</time></trkpt><trkpt lat="45.49124" lon="8.0133191"><ele>391.25</ele><time>2026-04-20T07:23:26.365Z</time></trkpt><trkpt lat="45.4912234" lon="8.0134758"><ele>389.0</ele><time>2026-04-20T07:23:27.361Z</time></trkpt><trkpt lat="45.4911958" lon="8.013625"><ele>386.75</ele><time>2026-04-20T07:23:28.357Z</time></trkpt><trkpt lat="45.491163" lon="8.0137786"><ele>384.5</ele><time>2026-04-20T07:23:29.359Z</time></trkpt><trkpt lat="45.4911418" lon="8.0139319"><ele>382.25</ele><time>2026-04-20T07:23:30.355Z</time></trkpt><trkpt lat="45.4911452" lon="8.0140894"><ele>380.0</ele><time>2026-04-20T07:23:31.355Z</time></trkpt><trkpt lat="45.4911632" lon="8.0142615"><ele>378.4</ele><time>2026-04-20T07:23:32.352Z</time></trkpt><trkpt lat="45.4911928" lon="8.0144285"><ele>376.8</ele><time>2026-04-20T07:23:33.355Z</time></trkpt><trkpt lat="45.49122" lon="8.0145807"><ele>375.20000000000005</ele><time>2026-04-20T07:23:34.349Z</time></trkpt><trkpt lat="45.4912343" lon="8.0147151"><ele>373.6</ele><time>2026-04-20T07:23:35.353Z</time></trkpt><trkpt lat="45.4912357" lon="8.0148374"><ele>372.0</ele><time>2026-04-20T07:23:36.341Z</time></trkpt><trkpt lat="45.4912415" lon="8.0149589"><ele>369.6</ele><time>2026-04-20T07:23:37.351Z</time></trkpt><trkpt lat="45.4912369" lon="8.0150753"><ele>367.20000000000005</ele><time>2026-04-20T07:23:38.35Z</time></trkpt><trkpt lat="45.4912153" lon="8.0151959"><ele>364.8</ele><time>2026-04-20T07:23:39.358Z</time></trkpt><trkpt lat="45.4911801" lon="8.0153451"><ele>362.4</ele><time>2026-04-20T07:23:40.364Z</time></trkpt><trkpt lat="45.4911479" lon="8.0155134"><ele>360.0</ele><time>2026-04-20T07:23:41.359Z</time></trkpt><trkpt lat="45.4911304" lon="8.0156823"><ele>356.5</ele><time>2026-04-20T07:23:42.356Z</time></trkpt><trkpt lat="45.4910933" lon="8.0158278"><ele>353.0</ele><time>2026-04-20T07:23:43.367Z</time></trkpt><trkpt lat="45.4910544" lon="8.0159787"><ele>349.5</ele><time>2026-04-20T07:23:44.358Z</time></trkpt><trkpt lat="45.4910157" lon="8.0161308"><ele>346.0</ele><time>2026-04-20T07:23:45.362Z</time></trkpt><trkpt lat="45.4909852" lon="8.0162897"><ele>346.0</ele><time>2026-04-20T07:23:46.37Z</time></trkpt><trkpt lat="45.4909554" lon="8.0164509"><ele>346.0</ele><time>2026-04-20T07:23:47.361Z</time></trkpt><trkpt lat="45.4909087" lon="8.0166041"><ele>346.0</ele><time>2026-04-20T07:23:48.361Z</time></trkpt><trkpt lat="45.4908549" lon="8.016734"><ele>346.0</ele><time>2026-04-20T07:23:49.367Z</time></trkpt><trkpt lat="45.4907817" lon="8.01687"><ele>344.6</ele><time>2026-04-20T07:23:50.372Z</time></trkpt><trkpt lat="45.4907075" lon="8.0170108"><ele>343.20000000000005</ele><time>2026-04-20T07:23:51.369Z</time></trkpt><trkpt lat="45.4906308" lon="8.0171262"><ele>341.79999999999995</ele><time>2026-04-20T07:23:52.365Z</time></trkpt><trkpt lat="45.4905622" lon="8.0172205"><ele>340.4</ele><time>2026-04-20T07:23:53.373Z</time></trkpt><trkpt lat="45.4904949" lon="8.017311"><ele>339.0</ele><time>2026-04-20T07:23:54.366Z</time></trkpt><trkpt lat="45.4904442" lon="8.017401"><ele>338.6</ele><time>2026-04-20T07:23:55.363Z</time></trkpt><trkpt lat="45.4904089" lon="8.0174963"><ele>338.2</ele><time>2026-04-20T07:23:56.354Z</time></trkpt><trkpt lat="45.4903978" lon="8.0175913"><ele>337.8</ele><time>2026-04-20T07:23:57.356Z</time></trkpt><trkpt lat="45.4904039" lon="8.0176857"><ele>337.40000000000003</ele><time>2026-04-20T07:23:58.359Z</time></trkpt><trkpt lat="45.4903832" lon="8.017848"><ele>337.0</ele><time>2026-04-20T07:24:00.359Z</time></trkpt><trkpt lat="45.4902801" lon="8.017977"><ele>337.0</ele><time>2026-04-20T07:24:02.345Z</time></trkpt><trkpt lat="45.4902074" lon="8.0180274"><ele>337.0</ele><time>2026-04-20T07:24:03.346Z</time></trkpt><trkpt lat="45.4901046" lon="8.0180492"><ele>337.0</ele><time>2026-04-20T07:24:04.349Z</time></trkpt><trkpt lat="45.4899758" lon="8.0180598"><ele>337.0</ele><time>2026-04-20T07:24:05.347Z</time></trkpt><trkpt lat="45.4898525" lon="8.0180632"><ele>337.0</ele><time>2026-04-20T07:24:06.355Z</time></trkpt><trkpt lat="45.4897308" lon="8.018068"><ele>337.0</ele><time>2026-04-20T07:24:07.349Z</time></trkpt><trkpt lat="45.4896035" lon="8.0180614"><ele>337.0</ele><time>2026-04-20T07:24:08.341Z</time></trkpt><trkpt lat="45.4894871" lon="8.0180629"><ele>337.0</ele><time>2026-04-20T07:24:09.352Z</time></trkpt><trkpt lat="45.4893753" lon="8.0180555"><ele>337.0</ele><time>2026-04-20T07:24:10.343Z</time></trkpt><trkpt lat="45.4892713" lon="8.018076"><ele>337.0</ele><time>2026-04-20T07:24:11.344Z</time></trkpt><trkpt lat="45.4891502" lon="8.0181402"><ele>337.0</ele><time>2026-04-20T07:24:12.339Z</time></trkpt><trkpt lat="45.4890312" lon="8.0182243"><ele>337.0</ele><time>2026-04-20T07:24:13.355Z</time></trkpt><trkpt lat="45.4888971" lon="8.0183123"><ele>337.0</ele><time>2026-04-20T07:24:14.356Z</time></trkpt><trkpt lat="45.488763" lon="8.0183849"><ele>338.20000000000005</ele><time>2026-04-20T07:24:15.348Z</time></trkpt><trkpt lat="45.4886385" lon="8.0184511"><ele>339.4</ele><time>2026-04-20T07:24:16.384Z</time></trkpt><trkpt lat="45.4885277" lon="8.0185095"><ele>340.6</ele><time>2026-04-20T07:24:17.36Z</time></trkpt><trkpt lat="45.4884358" lon="8.0185501"><ele>341.79999999999995</ele><time>2026-04-20T07:24:18.357Z</time></trkpt><trkpt lat="45.4883591" lon="8.0185809"><ele>343.0</ele><time>2026-04-20T07:24:19.37Z</time></trkpt><trkpt lat="45.4882836" lon="8.0185873"><ele>343.0</ele><time>2026-04-20T07:24:20.365Z</time></trkpt><trkpt lat="45.488174" lon="8.0186226"><ele>343.0</ele><time>2026-04-20T07:24:22.37Z</time></trkpt><trkpt lat="45.4880376" lon="8.018654"><ele>343.0</ele><time>2026-04-20T07:24:24.365Z</time></trkpt><trkpt lat="45.487945" lon="8.0186481"><ele>343.0</ele><time>2026-04-20T07:24:25.367Z</time></trkpt><trkpt lat="45.4878415" lon="8.0186477"><ele>343.0</ele><time>2026-04-20T07:24:26.372Z</time></trkpt><trkpt lat="45.4877172" lon="8.0186517"><ele>341.5</ele><time>2026-04-20T07:24:27.371Z</time></trkpt><trkpt lat="45.4875911" lon="8.0186672"><ele>340.0</ele><time>2026-04-20T07:24:28.36Z</time></trkpt><trkpt lat="45.4874693" lon="8.0186934"><ele>338.5</ele><time>2026-04-20T07:24:29.373Z</time></trkpt><trkpt lat="45.4873508" lon="8.0187877"><ele>337.0</ele><time>2026-04-20T07:24:30.363Z</time></trkpt><trkpt lat="45.4872444" lon="8.0189138"><ele>337.0</ele><time>2026-04-20T07:24:31.371Z</time></trkpt><trkpt lat="45.4871399" lon="8.019071"><ele>337.0</ele><time>2026-04-20T07:24:32.362Z</time></trkpt><trkpt lat="45.48706" lon="8.0192562"><ele>337.0</ele><time>2026-04-20T07:24:33.363Z</time></trkpt><trkpt lat="45.486978" lon="8.0194287"><ele>336.25</ele><time>2026-04-20T07:24:34.362Z</time></trkpt><trkpt lat="45.4868915" lon="8.0195747"><ele>335.5</ele><time>2026-04-20T07:24:35.365Z</time></trkpt><trkpt lat="45.4868113" lon="8.0197327"><ele>334.75</ele><time>2026-04-20T07:24:36.358Z</time></trkpt><trkpt lat="45.4867396" lon="8.0198642"><ele>334.0</ele><time>2026-04-20T07:24:37.363Z</time></trkpt><trkpt lat="45.4866584" lon="8.0199633"><ele>333.5</ele><time>2026-04-20T07:24:38.362Z</time></trkpt><trkpt lat="45.4865588" lon="8.0200614"><ele>333.0</ele><time>2026-04-20T07:24:39.358Z</time></trkpt><trkpt lat="45.4864545" lon="8.0201669"><ele>332.5</ele><time>2026-04-20T07:24:40.36Z</time></trkpt><trkpt lat="45.4863376" lon="8.0202858"><ele>332.0</ele><time>2026-04-20T07:24:41.369Z</time></trkpt><trkpt lat="45.4862061" lon="8.0203936"><ele>332.0</ele><time>2026-04-20T07:24:42.362Z</time></trkpt><trkpt lat="45.4860871" lon="8.0205227"><ele>332.0</ele><time>2026-04-20T07:24:43.364Z</time></trkpt><trkpt lat="45.4859593" lon="8.02064"><ele>332.0</ele><time>2026-04-20T07:24:44.368Z</time></trkpt><trkpt lat="45.4858319" lon="8.0207243"><ele>332.0</ele><time>2026-04-20T07:24:45.362Z</time></trkpt><trkpt lat="45.4856878" lon="8.0207722"><ele>332.0</ele><time>2026-04-20T07:24:46.36Z</time></trkpt><trkpt lat="45.4855156" lon="8.0208053"><ele>332.0</ele><time>2026-04-20T07:24:47.359Z</time></trkpt><trkpt lat="45.485293" lon="8.020807"><ele>332.0</ele><time>2026-04-20T07:24:48.371Z</time></trkpt><trkpt lat="45.485107" lon="8.0208449"><ele>333.33333333333337</ele><time>2026-04-20T07:24:49.368Z</time></trkpt><trkpt lat="45.484957" lon="8.0208853"><ele>334.6666666666667</ele><time>2026-04-20T07:24:50.367Z</time></trkpt><trkpt lat="45.4848014" lon="8.0209201"><ele>336.0</ele><time>2026-04-20T07:24:51.364Z</time></trkpt><trkpt lat="45.4846499" lon="8.0209589"><ele>334.3333333333333</ele><time>2026-04-20T07:24:52.37Z</time></trkpt><trkpt lat="45.4844869" lon="8.0209954"><ele>332.66666666666663</ele><time>2026-04-20T07:24:53.366Z</time></trkpt><trkpt lat="45.4843734" lon="8.0210924"><ele>331.0</ele><time>2026-04-20T07:24:54.365Z</time></trkpt><trkpt lat="45.4842505" lon="8.0212507"><ele>331.0</ele><time>2026-04-20T07:24:55.366Z</time></trkpt><trkpt lat="45.4841193" lon="8.0213869"><ele>331.0</ele><time>2026-04-20T07:24:56.374Z</time></trkpt><trkpt lat="45.4839965" lon="8.0215235"><ele>331.0</ele><time>2026-04-20T07:24:57.376Z</time></trkpt><trkpt lat="45.4838549" lon="8.0216829"><ele>331.3333333333333</ele><time>2026-04-20T07:24:58.374Z</time></trkpt><trkpt lat="45.4837186" lon="8.0218062"><ele>331.6666666666667</ele><time>2026-04-20T07:24:59.367Z</time></trkpt><trkpt lat="45.483568" lon="8.0219354"><ele>332.0</ele><time>2026-04-20T07:25:00.363Z</time></trkpt><trkpt lat="45.4834281" lon="8.022046"><ele>332.0</ele><time>2026-04-20T07:25:01.369Z</time></trkpt><trkpt lat="45.4833103" lon="8.0221748"><ele>332.0</ele><time>2026-04-20T07:25:02.37Z</time></trkpt><trkpt lat="45.4831934" lon="8.0222997"><ele>332.0</ele><time>2026-04-20T07:25:03.375Z</time></trkpt><trkpt lat="45.4830832" lon="8.0224032"><ele>332.0</ele><time>2026-04-20T07:25:04.457Z</time></trkpt><trkpt lat="45.4829788" lon="8.0225015"><ele>331.5</ele><time>2026-04-20T07:25:05.463Z</time></trkpt><trkpt lat="45.4828749" lon="8.0226007"><ele>331.0</ele><time>2026-04-20T07:25:06.467Z</time></trkpt><trkpt lat="45.4827676" lon="8.0227023"><ele>330.5</ele><time>2026-04-20T07:25:07.46Z</time></trkpt><trkpt lat="45.4826569" lon="8.0228038"><ele>330.0</ele><time>2026-04-20T07:25:08.468Z</time></trkpt><trkpt lat="45.4825464" lon="8.0229038"><ele>330.0</ele><time>2026-04-20T07:25:09.458Z</time></trkpt><trkpt lat="45.4824438" lon="8.0230024"><ele>330.0</ele><time>2026-04-20T07:25:10.466Z</time></trkpt><trkpt lat="45.4823453" lon="8.0231017"><ele>330.0</ele><time>2026-04-20T07:25:11.461Z</time></trkpt><trkpt lat="45.4822474" lon="8.0231989"><ele>330.0</ele><time>2026-04-20T07:25:12.459Z</time></trkpt><trkpt lat="45.4821513" lon="8.0232955"><ele>329.8</ele><time>2026-04-20T07:25:13.466Z</time></trkpt><trkpt lat="45.4820591" lon="8.0233883"><ele>329.6</ele><time>2026-04-20T07:25:14.456Z</time></trkpt><trkpt lat="45.4819806" lon="8.0234604"><ele>329.4</ele><time>2026-04-20T07:25:15.472Z</time></trkpt><trkpt lat="45.4818906" lon="8.0235443"><ele>329.2</ele><time>2026-04-20T07:25:16.461Z</time></trkpt><trkpt lat="45.4817981" lon="8.0236247"><ele>329.0</ele><time>2026-04-20T07:25:17.468Z</time></trkpt><trkpt lat="45.4817136" lon="8.0237081"><ele>329.0</ele><time>2026-04-20T07:25:18.461Z</time></trkpt><trkpt lat="45.4816349" lon="8.0237922"><ele>329.0</ele><time>2026-04-20T07:25:19.462Z</time></trkpt><trkpt lat="45.481567" lon="8.0238909"><ele>329.0</ele><time>2026-04-20T07:25:20.471Z</time></trkpt><trkpt lat="45.4815018" lon="8.0239973"><ele>329.0</ele><time>2026-04-20T07:25:21.461Z</time></trkpt><trkpt lat="45.4814429" lon="8.024113"><ele>329.0</ele><time>2026-04-20T07:25:22.453Z</time></trkpt><trkpt lat="45.4813611" lon="8.0243287"><ele>329.2</ele><time>2026-04-20T07:25:24.343Z</time></trkpt><trkpt lat="45.4812958" lon="8.0244221"><ele>329.4</ele><time>2026-04-20T07:25:25.345Z</time></trkpt><trkpt lat="45.4812503" lon="8.0245592"><ele>329.6</ele><time>2026-04-20T07:25:26.357Z</time></trkpt><trkpt lat="45.4811854" lon="8.0246879"><ele>329.8</ele><time>2026-04-20T07:25:27.351Z</time></trkpt><trkpt lat="45.4811233" lon="8.0248137"><ele>330.0</ele><time>2026-04-20T07:25:28.363Z</time></trkpt><trkpt lat="45.4810432" lon="8.024927"><ele>330.6</ele><time>2026-04-20T07:25:29.356Z</time></trkpt><trkpt lat="45.4809835" lon="8.0250523"><ele>331.2</ele><time>2026-04-20T07:25:30.367Z</time></trkpt><trkpt lat="45.4809298" lon="8.0251723"><ele>331.79999999999995</ele><time>2026-04-20T07:25:31.362Z</time></trkpt><trkpt lat="45.4809013" lon="8.0253317"><ele>332.4</ele><time>2026-04-20T07:25:32.364Z</time></trkpt><trkpt lat="45.4808796" lon="8.0254802"><ele>333.0</ele><time>2026-04-20T07:25:33.365Z</time></trkpt><trkpt lat="45.480867" lon="8.0256409"><ele>334.5</ele><time>2026-04-20T07:25:34.37Z</time></trkpt><trkpt lat="45.4808524" lon="8.0258171"><ele>336.0</ele><time>2026-04-20T07:25:35.365Z</time></trkpt><trkpt lat="45.4808435" lon="8.0260028"><ele>337.5</ele><time>2026-04-20T07:25:36.364Z</time></trkpt><trkpt lat="45.4808412" lon="8.026197"><ele>339.0</ele><time>2026-04-20T07:25:37.366Z</time></trkpt><trkpt lat="45.4808377" lon="8.0263919"><ele>339.0</ele><time>2026-04-20T07:25:38.363Z</time></trkpt><trkpt lat="45.4808351" lon="8.0265953"><ele>339.0</ele><time>2026-04-20T07:25:39.367Z</time></trkpt><trkpt lat="45.48082" lon="8.0267879"><ele>339.0</ele><time>2026-04-20T07:25:40.357Z</time></trkpt><trkpt lat="45.4808134" lon="8.0269797"><ele>339.0</ele><time>2026-04-20T07:25:41.357Z</time></trkpt><trkpt lat="45.4808014" lon="8.0271751"><ele>339.0</ele><time>2026-04-20T07:25:42.363Z</time></trkpt><trkpt lat="45.4807861" lon="8.0273788"><ele>339.0</ele><time>2026-04-20T07:25:43.367Z</time></trkpt><trkpt lat="45.480769" lon="8.0275832"><ele>339.0</ele><time>2026-04-20T07:25:44.365Z</time></trkpt><trkpt lat="45.4807107" lon="8.027776"><ele>339.0</ele><time>2026-04-20T07:25:45.365Z</time></trkpt><trkpt lat="45.4806386" lon="8.0279553"><ele>339.0</ele><time>2026-04-20T07:25:46.363Z</time></trkpt><trkpt lat="45.4805182" lon="8.0280719"><ele>339.0</ele><time>2026-04-20T07:25:47.359Z</time></trkpt><trkpt lat="45.4804025" lon="8.0281828"><ele>339.0</ele><time>2026-04-20T07:25:48.361Z</time></trkpt><trkpt lat="45.4802732" lon="8.028287"><ele>339.0</ele><time>2026-04-20T07:25:49.356Z</time></trkpt><trkpt lat="45.4801425" lon="8.0283823"><ele>338.3333333333333</ele><time>2026-04-20T07:25:50.352Z</time></trkpt><trkpt lat="45.4800234" lon="8.0284937"><ele>337.66666666666663</ele><time>2026-04-20T07:25:51.348Z</time></trkpt><trkpt lat="45.4798972" lon="8.0286164"><ele>337.0</ele><time>2026-04-20T07:25:52.35Z</time></trkpt><trkpt lat="45.4797529" lon="8.0287116"><ele>337.0</ele><time>2026-04-20T07:25:53.361Z</time></trkpt><trkpt lat="45.4796256" lon="8.0288567"><ele>337.0</ele><time>2026-04-20T07:25:54.35Z</time></trkpt><trkpt lat="45.4795004" lon="8.0290161"><ele>337.0</ele><time>2026-04-20T07:25:55.353Z</time></trkpt><trkpt lat="45.4794044" lon="8.0292016"><ele>334.66666666666663</ele><time>2026-04-20T07:25:56.355Z</time></trkpt><trkpt lat="45.4793296" lon="8.0294082"><ele>332.3333333333333</ele><time>2026-04-20T07:25:57.348Z</time></trkpt><trkpt lat="45.4792359" lon="8.0296043"><ele>330.0</ele><time>2026-04-20T07:25:58.36Z</time></trkpt><trkpt lat="45.4791331" lon="8.0298177"><ele>331.3333333333333</ele><time>2026-04-20T07:25:59.366Z</time></trkpt><trkpt lat="45.4790388" lon="8.0300109"><ele>332.66666666666663</ele><time>2026-04-20T07:26:00.359Z</time></trkpt><trkpt lat="45.4789367" lon="8.0301972"><ele>334.0</ele><time>2026-04-20T07:26:01.36Z</time></trkpt><trkpt lat="45.4788355" lon="8.0303936"><ele>331.66666666666663</ele><time>2026-04-20T07:26:02.358Z</time></trkpt><trkpt lat="45.4787074" lon="8.0305603"><ele>329.3333333333333</ele><time>2026-04-20T07:26:03.355Z</time></trkpt><trkpt lat="45.4785557" lon="8.0307046"><ele>327.0</ele><time>2026-04-20T07:26:04.358Z</time></trkpt><trkpt lat="45.4784" lon="8.0308168"><ele>327.0</ele><time>2026-04-20T07:26:05.36Z</time></trkpt><trkpt lat="45.4782477" lon="8.0309134"><ele>327.0</ele><time>2026-04-20T07:26:06.354Z</time></trkpt><trkpt lat="45.4781026" lon="8.0309904"><ele>327.0</ele><time>2026-04-20T07:26:07.355Z</time></trkpt><trkpt lat="45.4779429" lon="8.0310753"><ele>325.6666666666667</ele><time>2026-04-20T07:26:08.365Z</time></trkpt><trkpt lat="45.4777725" lon="8.0311713"><ele>324.33333333333337</ele><time>2026-04-20T07:26:09.365Z</time></trkpt><trkpt lat="45.4776276" lon="8.0312855"><ele>323.0</ele><time>2026-04-20T07:26:10.358Z</time></trkpt><trkpt lat="45.4775125" lon="8.0314548"><ele>323.0</ele><time>2026-04-20T07:26:11.35Z</time></trkpt><trkpt lat="45.4773934" lon="8.0316291"><ele>323.0</ele><time>2026-04-20T07:26:12.362Z</time></trkpt><trkpt lat="45.4773168" lon="8.031825"><ele>323.0</ele><time>2026-04-20T07:26:13.362Z</time></trkpt><trkpt lat="45.4772451" lon="8.0320232"><ele>323.0</ele><time>2026-04-20T07:26:14.362Z</time></trkpt><trkpt lat="45.4771395" lon="8.0322033"><ele>323.0</ele><time>2026-04-20T07:26:15.363Z</time></trkpt><trkpt lat="45.4770316" lon="8.0323795"><ele>323.0</ele><time>2026-04-20T07:26:16.357Z</time></trkpt><trkpt lat="45.4769037" lon="8.0325371"><ele>323.0</ele><time>2026-04-20T07:26:17.355Z</time></trkpt><trkpt lat="45.4767611" lon="8.0326873"><ele>323.0</ele><time>2026-04-20T07:26:18.358Z</time></trkpt><trkpt lat="45.4766077" lon="8.0328349"><ele>323.0</ele><time>2026-04-20T07:26:19.358Z</time></trkpt><trkpt lat="45.4764593" lon="8.0329891"><ele>323.0</ele><time>2026-04-20T07:26:20.363Z</time></trkpt><trkpt lat="45.4763438" lon="8.0331845"><ele>323.0</ele><time>2026-04-20T07:26:21.36Z</time></trkpt><trkpt lat="45.4762328" lon="8.0333791"><ele>323.0</ele><time>2026-04-20T07:26:22.371Z</time></trkpt><trkpt lat="45.4761137" lon="8.0335333"><ele>320.6666666666667</ele><time>2026-04-20T07:26:23.361Z</time></trkpt><trkpt lat="45.4759967" lon="8.0336939"><ele>318.3333333333333</ele><time>2026-04-20T07:26:24.361Z</time></trkpt><trkpt lat="45.4758635" lon="8.033844"><ele>316.0</ele><time>2026-04-20T07:26:25.362Z</time></trkpt><trkpt lat="45.4757144" lon="8.0339598"><ele>316.0</ele><time>2026-04-20T07:26:26.364Z</time></trkpt><trkpt lat="45.4755697" lon="8.0340655"><ele>316.0</ele><time>2026-04-20T07:26:27.367Z</time></trkpt><trkpt lat="45.4754407" lon="8.0341896"><ele>316.0</ele><time>2026-04-20T07:26:28.367Z</time></trkpt><trkpt lat="45.4753215" lon="8.0343372"><ele>315.66666666666663</ele><time>2026-04-20T07:26:29.368Z</time></trkpt><trkpt lat="45.4751973" lon="8.0345101"><ele>315.3333333333333</ele><time>2026-04-20T07:26:30.368Z</time></trkpt><trkpt lat="45.4750774" lon="8.0346853"><ele>315.0</ele><time>2026-04-20T07:26:31.368Z</time></trkpt><trkpt lat="45.4749587" lon="8.0348389"><ele>316.75</ele><time>2026-04-20T07:26:32.361Z</time></trkpt><trkpt lat="45.4748612" lon="8.0349897"><ele>318.5</ele><time>2026-04-20T07:26:33.362Z</time></trkpt><trkpt lat="45.4748032" lon="8.0351817"><ele>320.25</ele><time>2026-04-20T07:26:34.362Z</time></trkpt><trkpt lat="45.4747405" lon="8.0353871"><ele>322.0</ele><time>2026-04-20T07:26:35.362Z</time></trkpt><trkpt lat="45.4746483" lon="8.0355735"><ele>322.0</ele><time>2026-04-20T07:26:36.366Z</time></trkpt><trkpt lat="45.4746134" lon="8.0357758"><ele>322.0</ele><time>2026-04-20T07:26:37.362Z</time></trkpt><trkpt lat="45.4745655" lon="8.0359857"><ele>322.0</ele><time>2026-04-20T07:26:38.366Z</time></trkpt><trkpt lat="45.474559" lon="8.0361914"><ele>322.0</ele><time>2026-04-20T07:26:39.362Z</time></trkpt><trkpt lat="45.4745897" lon="8.0364078"><ele>320.0</ele><time>2026-04-20T07:26:40.363Z</time></trkpt><trkpt lat="45.4745652" lon="8.0365997"><ele>318.0</ele><time>2026-04-20T07:26:41.364Z</time></trkpt><trkpt lat="45.4745845" lon="8.036789"><ele>316.0</ele><time>2026-04-20T07:26:42.358Z</time></trkpt><trkpt lat="45.4745933" lon="8.0369869"><ele>314.0</ele><time>2026-04-20T07:26:43.356Z</time></trkpt><trkpt lat="45.4745426" lon="8.0371763"><ele>314.0</ele><time>2026-04-20T07:26:44.362Z</time></trkpt><trkpt lat="45.4744767" lon="8.0373808"><ele>314.0</ele><time>2026-04-20T07:26:45.36Z</time></trkpt><trkpt lat="45.4743774" lon="8.0375463"><ele>314.0</ele><time>2026-04-20T07:26:46.361Z</time></trkpt><trkpt lat="45.4742636" lon="8.0376862"><ele>314.33333333333337</ele><time>2026-04-20T07:26:47.363Z</time></trkpt><trkpt lat="45.4741687" lon="8.0378385"><ele>314.6666666666667</ele><time>2026-04-20T07:26:48.365Z</time></trkpt><trkpt lat="45.4740582" lon="8.0379914"><ele>315.0</ele><time>2026-04-20T07:26:49.357Z</time></trkpt><trkpt lat="45.4739584" lon="8.0381616"><ele>314.6666666666667</ele><time>2026-04-20T07:26:50.365Z</time></trkpt><trkpt lat="45.4738329" lon="8.0383176"><ele>314.33333333333337</ele><time>2026-04-20T07:26:51.357Z</time></trkpt><trkpt lat="45.4737065" lon="8.0384795"><ele>314.0</ele><time>2026-04-20T07:26:52.363Z</time></trkpt><trkpt lat="45.4735956" lon="8.0386281"><ele>312.6666666666667</ele><time>2026-04-20T07:26:53.366Z</time></trkpt><trkpt lat="45.473475" lon="8.0387866"><ele>311.3333333333333</ele><time>2026-04-20T07:26:54.369Z</time></trkpt><trkpt lat="45.4733739" lon="8.0389724"><ele>310.0</ele><time>2026-04-20T07:26:55.363Z</time></trkpt><trkpt lat="45.4732768" lon="8.0391659"><ele>309.66666666666663</ele><time>2026-04-20T07:26:56.361Z</time></trkpt><trkpt lat="45.4731951" lon="8.0393636"><ele>309.3333333333333</ele><time>2026-04-20T07:26:57.36Z</time></trkpt><trkpt lat="45.4731232" lon="8.0395731"><ele>309.0</ele><time>2026-04-20T07:26:58.357Z</time></trkpt><trkpt lat="45.4730159" lon="8.0397757"><ele>308.0</ele><time>2026-04-20T07:26:59.358Z</time></trkpt><trkpt lat="45.472928" lon="8.0399857"><ele>307.0</ele><time>2026-04-20T07:27:00.356Z</time></trkpt><trkpt lat="45.472858" lon="8.0402018"><ele>306.0</ele><time>2026-04-20T07:27:01.359Z</time></trkpt><trkpt lat="45.4727734" lon="8.0404113"><ele>306.0</ele><time>2026-04-20T07:27:02.359Z</time></trkpt><trkpt lat="45.4726946" lon="8.0406126"><ele>306.0</ele><time>2026-04-20T07:27:03.361Z</time></trkpt><trkpt lat="45.4726123" lon="8.0408019"><ele>306.0</ele><time>2026-04-20T07:27:04.361Z</time></trkpt><trkpt lat="45.4725217" lon="8.0409857"><ele>307.0</ele><time>2026-04-20T07:27:05.358Z</time></trkpt><trkpt lat="45.472428" lon="8.0411691"><ele>308.0</ele><time>2026-04-20T07:27:06.359Z</time></trkpt><trkpt lat="45.4723233" lon="8.0413195"><ele>309.0</ele><time>2026-04-20T07:27:07.364Z</time></trkpt><trkpt lat="45.4722158" lon="8.0414893"><ele>308.6666666666667</ele><time>2026-04-20T07:27:08.357Z</time></trkpt><trkpt lat="45.472142" lon="8.0416534"><ele>308.33333333333337</ele><time>2026-04-20T07:27:09.369Z</time></trkpt><trkpt lat="45.4720573" lon="8.0418511"><ele>308.0</ele><time>2026-04-20T07:27:10.372Z</time></trkpt><trkpt lat="45.4719876" lon="8.0420447"><ele>305.6666666666667</ele><time>2026-04-20T07:27:11.37Z</time></trkpt><trkpt lat="45.4719171" lon="8.0422427"><ele>303.3333333333333</ele><time>2026-04-20T07:27:12.373Z</time></trkpt><trkpt lat="45.4718741" lon="8.0424478"><ele>301.0</ele><time>2026-04-20T07:27:13.368Z</time></trkpt><trkpt lat="45.471833" lon="8.0426629"><ele>300.3333333333333</ele><time>2026-04-20T07:27:14.372Z</time></trkpt><trkpt lat="45.4717944" lon="8.0428971"><ele>299.6666666666667</ele><time>2026-04-20T07:27:15.372Z</time></trkpt><trkpt lat="45.4717627" lon="8.0431303"><ele>299.0</ele><time>2026-04-20T07:27:16.379Z</time></trkpt><trkpt lat="45.4717029" lon="8.0433535"><ele>298.6666666666667</ele><time>2026-04-20T07:27:17.38Z</time></trkpt><trkpt lat="45.4716477" lon="8.0435739"><ele>298.3333333333333</ele><time>2026-04-20T07:27:18.383Z</time></trkpt><trkpt lat="45.4716365" lon="8.0438093"><ele>298.0</ele><time>2026-04-20T07:27:19.383Z</time></trkpt><trkpt lat="45.4716143" lon="8.0440431"><ele>299.0</ele><time>2026-04-20T07:27:20.377Z</time></trkpt><trkpt lat="45.4715992" lon="8.0442863"><ele>300.0</ele><time>2026-04-20T07:27:21.378Z</time></trkpt><trkpt lat="45.4715846" lon="8.04453"><ele>301.0</ele><time>2026-04-20T07:27:22.378Z</time></trkpt><trkpt lat="45.4715679" lon="8.0447722"><ele>300.66666666666663</ele><time>2026-04-20T07:27:23.373Z</time></trkpt><trkpt lat="45.4715693" lon="8.0450072"><ele>300.3333333333333</ele><time>2026-04-20T07:27:24.37Z</time></trkpt><trkpt lat="45.4715812" lon="8.0452562"><ele>300.0</ele><time>2026-04-20T07:27:25.373Z</time></trkpt><trkpt lat="45.4715812" lon="8.0455059"><ele>300.0</ele><time>2026-04-20T07:27:26.375Z</time></trkpt><trkpt lat="45.4715671" lon="8.0457446"><ele>300.0</ele><time>2026-04-20T07:27:27.375Z</time></trkpt><trkpt lat="45.4715504" lon="8.0459744"><ele>300.0</ele><time>2026-04-20T07:27:28.38Z</time></trkpt><trkpt lat="45.471552" lon="8.0462234"><ele>299.0</ele><time>2026-04-20T07:27:29.375Z</time></trkpt><trkpt lat="45.4715424" lon="8.0464494"><ele>298.0</ele><time>2026-04-20T07:27:30.376Z</time></trkpt><trkpt lat="45.4715055" lon="8.0466928"><ele>297.0</ele><time>2026-04-20T07:27:31.376Z</time></trkpt><trkpt lat="45.47145" lon="8.0469176"><ele>297.0</ele><time>2026-04-20T07:27:32.38Z</time></trkpt><trkpt lat="45.4713982" lon="8.0471394"><ele>297.0</ele><time>2026-04-20T07:27:33.373Z</time></trkpt><trkpt lat="45.4713268" lon="8.0473565"><ele>297.0</ele><time>2026-04-20T07:27:34.374Z</time></trkpt><trkpt lat="45.4712584" lon="8.0475807"><ele>294.6666666666667</ele><time>2026-04-20T07:27:35.373Z</time></trkpt><trkpt lat="45.4711786" lon="8.0477899"><ele>292.33333333333337</ele><time>2026-04-20T07:27:36.381Z</time></trkpt><trkpt lat="45.471092" lon="8.048011"><ele>290.0</ele><time>2026-04-20T07:27:37.379Z</time></trkpt><trkpt lat="45.4710052" lon="8.0482129"><ele>291.0</ele><time>2026-04-20T07:27:38.378Z</time></trkpt><trkpt lat="45.4708959" lon="8.0483935"><ele>292.0</ele><time>2026-04-20T07:27:39.373Z</time></trkpt><trkpt lat="45.470769" lon="8.0485647"><ele>293.0</ele><time>2026-04-20T07:27:40.373Z</time></trkpt><trkpt lat="45.4706954" lon="8.0487846"><ele>293.0</ele><time>2026-04-20T07:27:41.369Z</time></trkpt><trkpt lat="45.4706269" lon="8.0490148"><ele>293.0</ele><time>2026-04-20T07:27:42.367Z</time></trkpt><trkpt lat="45.4705584" lon="8.0492279"><ele>293.0</ele><time>2026-04-20T07:27:43.377Z</time></trkpt><trkpt lat="45.4704781" lon="8.0494308"><ele>291.6666666666667</ele><time>2026-04-20T07:27:44.378Z</time></trkpt><trkpt lat="45.4703683" lon="8.0496163"><ele>290.3333333333333</ele><time>2026-04-20T07:27:45.373Z</time></trkpt><trkpt lat="45.4702905" lon="8.0498045"><ele>289.0</ele><time>2026-04-20T07:27:46.373Z</time></trkpt><trkpt lat="45.4702703" lon="8.0500484"><ele>289.0</ele><time>2026-04-20T07:27:47.376Z</time></trkpt><trkpt lat="45.4702334" lon="8.0502874"><ele>289.0</ele><time>2026-04-20T07:27:48.371Z</time></trkpt><trkpt lat="45.4701954" lon="8.0505331"><ele>289.0</ele><time>2026-04-20T07:27:49.371Z</time></trkpt><trkpt lat="45.4701723" lon="8.0507867"><ele>290.0</ele><time>2026-04-20T07:27:50.376Z</time></trkpt><trkpt lat="45.4701365" lon="8.0510352"><ele>291.0</ele><time>2026-04-20T07:27:51.368Z</time></trkpt><trkpt lat="45.4701096" lon="8.0512943"><ele>292.0</ele><time>2026-04-20T07:27:52.374Z</time></trkpt><trkpt lat="45.4700721" lon="8.0515158"><ele>291.66666666666663</ele><time>2026-04-20T07:27:53.374Z</time></trkpt><trkpt lat="45.4700617" lon="8.0517311"><ele>291.3333333333333</ele><time>2026-04-20T07:27:54.371Z</time></trkpt><trkpt lat="45.470073" lon="8.0519515"><ele>291.0</ele><time>2026-04-20T07:27:55.367Z</time></trkpt><trkpt lat="45.4701097" lon="8.0521958"><ele>291.0</ele><time>2026-04-20T07:27:56.368Z</time></trkpt><trkpt lat="45.4701378" lon="8.0524035"><ele>291.0</ele><time>2026-04-20T07:27:57.365Z</time></trkpt><trkpt lat="45.4701844" lon="8.0526343"><ele>291.0</ele><time>2026-04-20T07:27:58.374Z</time></trkpt><trkpt lat="45.4702186" lon="8.052861"><ele>290.6666666666667</ele><time>2026-04-20T07:27:59.377Z</time></trkpt><trkpt lat="45.4702904" lon="8.0530845"><ele>290.33333333333337</ele><time>2026-04-20T07:28:00.373Z</time></trkpt><trkpt lat="45.4703435" lon="8.0533108"><ele>290.0</ele><time>2026-04-20T07:28:01.375Z</time></trkpt><trkpt lat="45.470396" lon="8.0535546"><ele>292.6666666666667</ele><time>2026-04-20T07:28:02.368Z</time></trkpt><trkpt lat="45.4704498" lon="8.0537989"><ele>295.3333333333333</ele><time>2026-04-20T07:28:03.369Z</time></trkpt><trkpt lat="45.4705017" lon="8.0540202"><ele>298.0</ele><time>2026-04-20T07:28:04.371Z</time></trkpt><trkpt lat="45.4705583" lon="8.0542394"><ele>299.3333333333333</ele><time>2026-04-20T07:28:05.371Z</time></trkpt><trkpt lat="45.4706202" lon="8.0544721"><ele>300.6666666666667</ele><time>2026-04-20T07:28:06.372Z</time></trkpt><trkpt lat="45.4706692" lon="8.0547058"><ele>302.0</ele><time>2026-04-20T07:28:07.373Z</time></trkpt><trkpt lat="45.4707149" lon="8.0549412"><ele>303.33333333333337</ele><time>2026-04-20T07:28:08.367Z</time></trkpt><trkpt lat="45.4707639" lon="8.0551853"><ele>304.6666666666667</ele><time>2026-04-20T07:28:09.372Z</time></trkpt><trkpt lat="45.4708204" lon="8.0554043"><ele>306.0</ele><time>2026-04-20T07:28:10.368Z</time></trkpt><trkpt lat="45.4708727" lon="8.0556015"><ele>306.0</ele><time>2026-04-20T07:28:11.367Z</time></trkpt><trkpt lat="45.4709116" lon="8.0558114"><ele>306.0</ele><time>2026-04-20T07:28:12.357Z</time></trkpt><trkpt lat="45.4709308" lon="8.0560287"><ele>306.0</ele><time>2026-04-20T07:28:13.358Z</time></trkpt><trkpt lat="45.4709262" lon="8.0562587"><ele>306.0</ele><time>2026-04-20T07:28:14.364Z</time></trkpt><trkpt lat="45.4709159" lon="8.0564739"><ele>306.0</ele><time>2026-04-20T07:28:15.359Z</time></trkpt><trkpt lat="45.4709294" lon="8.0567172"><ele>306.0</ele><time>2026-04-20T07:28:16.362Z</time></trkpt><trkpt lat="45.4709183" lon="8.0569457"><ele>306.3333333333333</ele><time>2026-04-20T07:28:17.36Z</time></trkpt><trkpt lat="45.4709144" lon="8.0571913"><ele>306.66666666666663</ele><time>2026-04-20T07:28:18.362Z</time></trkpt><trkpt lat="45.470899" lon="8.0574277"><ele>307.0</ele><time>2026-04-20T07:28:19.364Z</time></trkpt><trkpt lat="45.4708935" lon="8.0576769"><ele>307.0</ele><time>2026-04-20T07:28:20.389Z</time></trkpt><trkpt lat="45.47087" lon="8.0579128"><ele>307.0</ele><time>2026-04-20T07:28:21.379Z</time></trkpt><trkpt lat="45.4708407" lon="8.0581457"><ele>307.0</ele><time>2026-04-20T07:28:22.385Z</time></trkpt><trkpt lat="45.4708283" lon="8.0583731"><ele>308.0</ele><time>2026-04-20T07:28:23.381Z</time></trkpt><trkpt lat="45.4708297" lon="8.0585902"><ele>309.0</ele><time>2026-04-20T07:28:24.375Z</time></trkpt><trkpt lat="45.4708489" lon="8.0587956"><ele>310.0</ele><time>2026-04-20T07:28:25.378Z</time></trkpt><trkpt lat="45.4708312" lon="8.0589865"><ele>311.0</ele><time>2026-04-20T07:28:26.374Z</time></trkpt><trkpt lat="45.4707542" lon="8.0591436"><ele>311.25</ele><time>2026-04-20T07:28:27.378Z</time></trkpt><trkpt lat="45.4706505" lon="8.0592777"><ele>311.5</ele><time>2026-04-20T07:28:28.379Z</time></trkpt><trkpt lat="45.4705246" lon="8.0593687"><ele>311.75</ele><time>2026-04-20T07:28:29.37Z</time></trkpt><trkpt lat="45.4704287" lon="8.0593992"><ele>312.0</ele><time>2026-04-20T07:28:30.373Z</time></trkpt><trkpt lat="45.4703044" lon="8.0594106"><ele>312.0</ele><time>2026-04-20T07:28:31.384Z</time></trkpt><trkpt lat="45.4701902" lon="8.0594488"><ele>312.0</ele><time>2026-04-20T07:28:32.386Z</time></trkpt><trkpt lat="45.4700854" lon="8.0594743"><ele>312.0</ele><time>2026-04-20T07:28:33.394Z</time></trkpt><trkpt lat="45.4699857" lon="8.0595444"><ele>312.0</ele><time>2026-04-20T07:28:34.395Z</time></trkpt><trkpt lat="45.4698886" lon="8.0596727"><ele>312.0</ele><time>2026-04-20T07:28:35.383Z</time></trkpt><trkpt lat="45.46981" lon="8.0598413"><ele>312.0</ele><time>2026-04-20T07:28:36.371Z</time></trkpt><trkpt lat="45.4697443" lon="8.060039"><ele>312.0</ele><time>2026-04-20T07:28:37.388Z</time></trkpt><trkpt lat="45.4696788" lon="8.0602739"><ele>311.0</ele><time>2026-04-20T07:28:38.379Z</time></trkpt><trkpt lat="45.4695973" lon="8.0604692"><ele>310.0</ele><time>2026-04-20T07:28:39.371Z</time></trkpt><trkpt lat="45.4696002" lon="8.0606499"><ele>309.0</ele><time>2026-04-20T07:28:40.377Z</time></trkpt><trkpt lat="45.4696" lon="8.0608321"><ele>308.0</ele><time>2026-04-20T07:28:41.376Z</time></trkpt><trkpt lat="45.4695968" lon="8.0610366"><ele>308.0</ele><time>2026-04-20T07:28:42.389Z</time></trkpt><trkpt lat="45.4695724" lon="8.0612297"><ele>308.0</ele><time>2026-04-20T07:28:43.386Z</time></trkpt><trkpt lat="45.4695099" lon="8.0614097"><ele>308.0</ele><time>2026-04-20T07:28:44.385Z</time></trkpt><trkpt lat="45.4694382" lon="8.0616139"><ele>308.0</ele><time>2026-04-20T07:28:45.39Z</time></trkpt><trkpt lat="45.4693596" lon="8.0617995"><ele>307.75</ele><time>2026-04-20T07:28:46.48Z</time></trkpt><trkpt lat="45.4692856" lon="8.0619717"><ele>307.5</ele><time>2026-04-20T07:28:47.48Z</time></trkpt><trkpt lat="45.4692127" lon="8.0621381"><ele>307.25</ele><time>2026-04-20T07:28:48.484Z</time></trkpt><trkpt lat="45.4691457" lon="8.0623035"><ele>307.0</ele><time>2026-04-20T07:28:49.488Z</time></trkpt><trkpt lat="45.4690785" lon="8.0624707"><ele>304.5</ele><time>2026-04-20T07:28:50.484Z</time></trkpt><trkpt lat="45.469001" lon="8.0626156"><ele>302.0</ele><time>2026-04-20T07:28:51.484Z</time></trkpt><trkpt lat="45.4689061" lon="8.0627623"><ele>299.5</ele><time>2026-04-20T07:28:52.484Z</time></trkpt><trkpt lat="45.4688018" lon="8.0629059"><ele>297.0</ele><time>2026-04-20T07:28:53.46Z</time></trkpt><trkpt lat="45.4686967" lon="8.0630502"><ele>293.5</ele><time>2026-04-20T07:28:54.455Z</time></trkpt><trkpt lat="45.4686016" lon="8.0631906"><ele>290.0</ele><time>2026-04-20T07:28:55.45Z</time></trkpt><trkpt lat="45.4685192" lon="8.0633251"><ele>286.5</ele><time>2026-04-20T07:28:56.449Z</time></trkpt><trkpt lat="45.468447" lon="8.0634635"><ele>283.0</ele><time>2026-04-20T07:28:57.464Z</time></trkpt><trkpt lat="45.4684112" lon="8.063616"><ele>282.75</ele><time>2026-04-20T07:28:58.467Z</time></trkpt><trkpt lat="45.4683897" lon="8.0637839"><ele>282.5</ele><time>2026-04-20T07:28:59.453Z</time></trkpt><trkpt lat="45.4683736" lon="8.0639616"><ele>282.25</ele><time>2026-04-20T07:29:00.458Z</time></trkpt><trkpt lat="45.4683595" lon="8.0641537"><ele>282.0</ele><time>2026-04-20T07:29:01.456Z</time></trkpt><trkpt lat="45.4683375" lon="8.0643348"><ele>282.0</ele><time>2026-04-20T07:29:02.454Z</time></trkpt><trkpt lat="45.4683086" lon="8.064504"><ele>282.0</ele><time>2026-04-20T07:29:03.467Z</time></trkpt><trkpt lat="45.4682787" lon="8.064665"><ele>282.0</ele><time>2026-04-20T07:29:04.469Z</time></trkpt><trkpt lat="45.46825" lon="8.06482"><ele>282.0</ele><time>2026-04-20T07:29:05.476Z</time></trkpt><trkpt lat="45.4682215" lon="8.0649691"><ele>282.0</ele><time>2026-04-20T07:29:06.463Z</time></trkpt><trkpt lat="45.4681971" lon="8.065116"><ele>282.0</ele><time>2026-04-20T07:29:07.463Z</time></trkpt><trkpt lat="45.4681808" lon="8.0652598"><ele>282.0</ele><time>2026-04-20T07:29:08.468Z</time></trkpt><trkpt lat="45.4681721" lon="8.0654108"><ele>282.0</ele><time>2026-04-20T07:29:09.466Z</time></trkpt><trkpt lat="45.4681685" lon="8.0655648"><ele>282.0</ele><time>2026-04-20T07:29:10.473Z</time></trkpt><trkpt lat="45.4681618" lon="8.065711"><ele>281.2</ele><time>2026-04-20T07:29:11.465Z</time></trkpt><trkpt lat="45.4681552" lon="8.0658542"><ele>280.4</ele><time>2026-04-20T07:29:12.468Z</time></trkpt><trkpt lat="45.4681467" lon="8.0659868"><ele>279.6</ele><time>2026-04-20T07:29:13.466Z</time></trkpt><trkpt lat="45.4681318" lon="8.0661415"><ele>278.8</ele><time>2026-04-20T07:29:14.467Z</time></trkpt><trkpt lat="45.4681163" lon="8.0662929"><ele>278.0</ele><time>2026-04-20T07:29:15.466Z</time></trkpt><trkpt lat="45.4680974" lon="8.0664375"><ele>278.0</ele><time>2026-04-20T07:29:16.466Z</time></trkpt><trkpt lat="45.4680764" lon="8.0665784"><ele>278.0</ele><time>2026-04-20T07:29:17.46Z</time></trkpt><trkpt lat="45.4680578" lon="8.0667182"><ele>278.0</ele><time>2026-04-20T07:29:18.467Z</time></trkpt><trkpt lat="45.4680418" lon="8.066865"><ele>278.0</ele><time>2026-04-20T07:29:19.455Z</time></trkpt><trkpt lat="45.4680391" lon="8.0670098"><ele>278.0</ele><time>2026-04-20T07:29:20.455Z</time></trkpt><trkpt lat="45.4680111" lon="8.0671711"><ele>278.0</ele><time>2026-04-20T07:29:21.36Z</time></trkpt><trkpt lat="45.4680182" lon="8.0673308"><ele>278.0</ele><time>2026-04-20T07:29:22.365Z</time></trkpt><trkpt lat="45.4680245" lon="8.0674711"><ele>278.0</ele><time>2026-04-20T07:29:23.359Z</time></trkpt><trkpt lat="45.4680231" lon="8.0675992"><ele>278.0</ele><time>2026-04-20T07:29:24.361Z</time></trkpt><trkpt lat="45.4680203" lon="8.067721"><ele>278.0</ele><time>2026-04-20T07:29:25.35Z</time></trkpt><trkpt lat="45.4680086" lon="8.0678391"><ele>277.6</ele><time>2026-04-20T07:29:26.351Z</time></trkpt><trkpt lat="45.4679971" lon="8.0679586"><ele>277.20000000000005</ele><time>2026-04-20T07:29:27.352Z</time></trkpt><trkpt lat="45.467977" lon="8.0680955"><ele>276.8</ele><time>2026-04-20T07:29:28.352Z</time></trkpt><trkpt lat="45.4679543" lon="8.0682314"><ele>276.40000000000003</ele><time>2026-04-20T07:29:29.34Z</time></trkpt><trkpt lat="45.4679533" lon="8.068371"><ele>276.0</ele><time>2026-04-20T07:29:30.351Z</time></trkpt><trkpt lat="45.4679692" lon="8.0685029"><ele>274.40000000000003</ele><time>2026-04-20T07:29:31.351Z</time></trkpt><trkpt lat="45.4679998" lon="8.0686244"><ele>272.8</ele><time>2026-04-20T07:29:32.358Z</time></trkpt><trkpt lat="45.4680371" lon="8.0687439"><ele>271.20000000000005</ele><time>2026-04-20T07:29:33.356Z</time></trkpt><trkpt lat="45.4680716" lon="8.0688684"><ele>269.6</ele><time>2026-04-20T07:29:34.358Z</time></trkpt><trkpt lat="45.4681011" lon="8.0689681"><ele>268.0</ele><time>2026-04-20T07:29:35.355Z</time></trkpt><trkpt lat="45.4681348" lon="8.069106"><ele>267.0</ele><time>2026-04-20T07:29:37.351Z</time></trkpt><trkpt lat="45.4681266" lon="8.069227"><ele>266.0</ele><time>2026-04-20T07:29:40.375Z</time></trkpt><trkpt lat="45.468057" lon="8.0693092"><ele>265.0</ele><time>2026-04-20T07:29:42.369Z</time></trkpt><trkpt lat="45.467976" lon="8.0693383"><ele>264.0</ele><time>2026-04-20T07:29:43.357Z</time></trkpt><trkpt lat="45.46789" lon="8.0693866"><ele>263.0</ele><time>2026-04-20T07:29:44.362Z</time></trkpt><trkpt lat="45.4677809" lon="8.0694236"><ele>262.6</ele><time>2026-04-20T07:29:45.364Z</time></trkpt><trkpt lat="45.4676701" lon="8.0694721"><ele>262.20000000000005</ele><time>2026-04-20T07:29:46.359Z</time></trkpt><trkpt lat="45.4675764" lon="8.0695079"><ele>261.8</ele><time>2026-04-20T07:29:47.363Z</time></trkpt><trkpt lat="45.4674819" lon="8.0695449"><ele>261.40000000000003</ele><time>2026-04-20T07:29:48.358Z</time></trkpt><trkpt lat="45.4673563" lon="8.0695673"><ele>261.0</ele><time>2026-04-20T07:29:49.357Z</time></trkpt><trkpt lat="45.4672463" lon="8.0695981"><ele>261.0</ele><time>2026-04-20T07:29:50.363Z</time></trkpt><trkpt lat="45.467142" lon="8.0696057"><ele>261.0</ele><time>2026-04-20T07:29:51.368Z</time></trkpt><trkpt lat="45.4670593" lon="8.0696155"><ele>261.0</ele><time>2026-04-20T07:29:52.365Z</time></trkpt><trkpt lat="45.4669794" lon="8.0696147"><ele>261.0</ele><time>2026-04-20T07:29:53.365Z</time></trkpt><trkpt lat="45.4668849" lon="8.069606"><ele>261.0</ele><time>2026-04-20T07:29:54.365Z</time></trkpt><trkpt lat="45.4667833" lon="8.0695946"><ele>260.5</ele><time>2026-04-20T07:29:55.365Z</time></trkpt><trkpt lat="45.4666932" lon="8.0696014"><ele>260.0</ele><time>2026-04-20T07:29:56.363Z</time></trkpt><trkpt lat="45.466608" lon="8.0695967"><ele>259.5</ele><time>2026-04-20T07:29:57.365Z</time></trkpt><trkpt lat="45.4665374" lon="8.0695991"><ele>259.0</ele><time>2026-04-20T07:29:58.368Z</time></trkpt><trkpt lat="45.4664687" lon="8.0696035"><ele>258.5</ele><time>2026-04-20T07:29:59.374Z</time></trkpt><trkpt lat="45.466399" lon="8.0696132"><ele>258.0</ele><time>2026-04-20T07:30:00.371Z</time></trkpt><trkpt lat="45.4663283" lon="8.0696116"><ele>258.0</ele><time>2026-04-20T07:30:01.374Z</time></trkpt><trkpt lat="45.4662532" lon="8.0696081"><ele>258.0</ele><time>2026-04-20T07:30:02.372Z</time></trkpt><trkpt lat="45.466168" lon="8.069604"><ele>258.0</ele><time>2026-04-20T07:30:03.369Z</time></trkpt><trkpt lat="45.4660629" lon="8.0695964"><ele>258.0</ele><time>2026-04-20T07:30:04.367Z</time></trkpt><trkpt lat="45.4659545" lon="8.0695962"><ele>258.0</ele><time>2026-04-20T07:30:05.37Z</time></trkpt><trkpt lat="45.4658439" lon="8.069593"><ele>258.0</ele><time>2026-04-20T07:30:06.372Z</time></trkpt><trkpt lat="45.4657292" lon="8.0695948"><ele>258.0</ele><time>2026-04-20T07:30:07.381Z</time></trkpt><trkpt lat="45.4656148" lon="8.069598"><ele>258.0</ele><time>2026-04-20T07:30:08.378Z</time></trkpt><trkpt lat="45.4655041" lon="8.0695981"><ele>258.0</ele><time>2026-04-20T07:30:09.394Z</time></trkpt><trkpt lat="45.4653891" lon="8.0696077"><ele>257.8</ele><time>2026-04-20T07:30:10.372Z</time></trkpt><trkpt lat="45.465274" lon="8.0696049"><ele>257.6</ele><time>2026-04-20T07:30:11.376Z</time></trkpt><trkpt lat="45.4651672" lon="8.0696077"><ele>257.4</ele><time>2026-04-20T07:30:12.374Z</time></trkpt><trkpt lat="45.4650751" lon="8.0695956"><ele>257.2</ele><time>2026-04-20T07:30:13.375Z</time></trkpt><trkpt lat="45.4649877" lon="8.0695802"><ele>257.0</ele><time>2026-04-20T07:30:14.376Z</time></trkpt><trkpt lat="45.4648948" lon="8.0695462"><ele>257.0</ele><time>2026-04-20T07:30:15.369Z</time></trkpt><trkpt lat="45.464822" lon="8.0694947"><ele>257.0</ele><time>2026-04-20T07:30:16.375Z</time></trkpt><trkpt lat="45.4647524" lon="8.0694368"><ele>257.0</ele><time>2026-04-20T07:30:17.377Z</time></trkpt><trkpt lat="45.4646951" lon="8.0693943"><ele>257.0</ele><time>2026-04-20T07:30:18.376Z</time></trkpt><trkpt lat="45.4645994" lon="8.0694001"><ele>257.0</ele><time>2026-04-20T07:30:20.368Z</time></trkpt><trkpt lat="45.4645138" lon="8.0695596"><ele>257.5</ele><time>2026-04-20T07:30:22.367Z</time></trkpt><trkpt lat="45.4644861" lon="8.069689"><ele>258.0</ele><time>2026-04-20T07:30:23.368Z</time></trkpt><trkpt lat="45.4644552" lon="8.069854"><ele>258.5</ele><time>2026-04-20T07:30:24.375Z</time></trkpt><trkpt lat="45.464426" lon="8.0700358"><ele>259.0</ele><time>2026-04-20T07:30:25.374Z</time></trkpt><trkpt lat="45.4643861" lon="8.0701979"><ele>259.0</ele><time>2026-04-20T07:30:26.371Z</time></trkpt><trkpt lat="45.4643471" lon="8.0703814"><ele>259.0</ele><time>2026-04-20T07:30:27.371Z</time></trkpt><trkpt lat="45.4642923" lon="8.0705722"><ele>259.0</ele><time>2026-04-20T07:30:28.38Z</time></trkpt><trkpt lat="45.4642513" lon="8.070777"><ele>259.0</ele><time>2026-04-20T07:30:29.378Z</time></trkpt><trkpt lat="45.4641988" lon="8.0709747"><ele>258.66666666666663</ele><time>2026-04-20T07:30:30.375Z</time></trkpt><trkpt lat="45.4641523" lon="8.0711749"><ele>258.3333333333333</ele><time>2026-04-20T07:30:31.379Z</time></trkpt><trkpt lat="45.4640961" lon="8.0713814"><ele>258.0</ele><time>2026-04-20T07:30:32.377Z</time></trkpt><trkpt lat="45.4640487" lon="8.0715897"><ele>257.6666666666667</ele><time>2026-04-20T07:30:33.378Z</time></trkpt><trkpt lat="45.4639983" lon="8.0718027"><ele>257.33333333333337</ele><time>2026-04-20T07:30:34.376Z</time></trkpt><trkpt lat="45.4639365" lon="8.0720031"><ele>257.0</ele><time>2026-04-20T07:30:35.375Z</time></trkpt><trkpt lat="45.4638846" lon="8.0722116"><ele>257.0</ele><time>2026-04-20T07:30:36.373Z</time></trkpt><trkpt lat="45.4638315" lon="8.0724162"><ele>257.0</ele><time>2026-04-20T07:30:37.368Z</time></trkpt><trkpt lat="45.4637941" lon="8.0726389"><ele>257.0</ele><time>2026-04-20T07:30:38.382Z</time></trkpt><trkpt lat="45.4637781" lon="8.0728702"><ele>256.6666666666667</ele><time>2026-04-20T07:30:39.37Z</time></trkpt><trkpt lat="45.4637531" lon="8.0730851"><ele>256.3333333333333</ele><time>2026-04-20T07:30:40.372Z</time></trkpt><trkpt lat="45.4637345" lon="8.0733058"><ele>256.0</ele><time>2026-04-20T07:30:41.379Z</time></trkpt><trkpt lat="45.4637496" lon="8.0735361"><ele>256.0</ele><time>2026-04-20T07:30:42.373Z</time></trkpt><trkpt lat="45.4637686" lon="8.0737686"><ele>256.0</ele><time>2026-04-20T07:30:43.367Z</time></trkpt><trkpt lat="45.4637865" lon="8.0739735"><ele>256.0</ele><time>2026-04-20T07:30:44.377Z</time></trkpt><trkpt lat="45.4638028" lon="8.0741734"><ele>255.75</ele><time>2026-04-20T07:30:45.368Z</time></trkpt><trkpt lat="45.4638208" lon="8.0743645"><ele>255.5</ele><time>2026-04-20T07:30:46.375Z</time></trkpt><trkpt lat="45.4638133" lon="8.0745523"><ele>255.25</ele><time>2026-04-20T07:30:47.374Z</time></trkpt><trkpt lat="45.4637874" lon="8.0747333"><ele>255.0</ele><time>2026-04-20T07:30:48.365Z</time></trkpt><trkpt lat="45.4637307" lon="8.0748952"><ele>254.5</ele><time>2026-04-20T07:30:49.358Z</time></trkpt><trkpt lat="45.4636481" lon="8.0750443"><ele>254.0</ele><time>2026-04-20T07:30:50.366Z</time></trkpt><trkpt lat="45.4635573" lon="8.0752199"><ele>253.5</ele><time>2026-04-20T07:30:51.358Z</time></trkpt><trkpt lat="45.4634554" lon="8.0753942"><ele>253.0</ele><time>2026-04-20T07:30:52.356Z</time></trkpt><trkpt lat="45.4633275" lon="8.0755768"><ele>252.0</ele><time>2026-04-20T07:30:53.362Z</time></trkpt><trkpt lat="45.4632066" lon="8.0757805"><ele>251.0</ele><time>2026-04-20T07:30:54.372Z</time></trkpt><trkpt lat="45.463085" lon="8.0759942"><ele>250.0</ele><time>2026-04-20T07:30:55.362Z</time></trkpt><trkpt lat="45.462976" lon="8.0762161"><ele>250.0</ele><time>2026-04-20T07:30:56.369Z</time></trkpt><trkpt lat="45.4628513" lon="8.0764206"><ele>250.0</ele><time>2026-04-20T07:30:57.365Z</time></trkpt><trkpt lat="45.4627231" lon="8.0766417"><ele>250.0</ele><time>2026-04-20T07:30:58.368Z</time></trkpt><trkpt lat="45.4625838" lon="8.0768481"><ele>248.66666666666666</ele><time>2026-04-20T07:30:59.368Z</time></trkpt><trkpt lat="45.4624569" lon="8.0770465"><ele>247.33333333333331</ele><time>2026-04-20T07:31:00.37Z</time></trkpt><trkpt lat="45.4623385" lon="8.0772601"><ele>246.0</ele><time>2026-04-20T07:31:01.37Z</time></trkpt><trkpt lat="45.4622151" lon="8.0774782"><ele>246.0</ele><time>2026-04-20T07:31:02.368Z</time></trkpt><trkpt lat="45.4621008" lon="8.077704"><ele>246.0</ele><time>2026-04-20T07:31:03.369Z</time></trkpt><trkpt lat="45.4619762" lon="8.0779148"><ele>246.0</ele><time>2026-04-20T07:31:04.366Z</time></trkpt><trkpt lat="45.4618513" lon="8.0781325"><ele>246.0</ele><time>2026-04-20T07:31:05.368Z</time></trkpt><trkpt lat="45.4617254" lon="8.0783598"><ele>246.0</ele><time>2026-04-20T07:31:06.373Z</time></trkpt><trkpt lat="45.4615981" lon="8.0785828"><ele>246.0</ele><time>2026-04-20T07:31:07.368Z</time></trkpt><trkpt lat="45.4614656" lon="8.0787923"><ele>246.0</ele><time>2026-04-20T07:31:08.367Z</time></trkpt><trkpt lat="45.4613312" lon="8.0790028"><ele>246.0</ele><time>2026-04-20T07:31:09.39Z</time></trkpt><trkpt lat="45.4612158" lon="8.0792221"><ele>246.0</ele><time>2026-04-20T07:31:10.364Z</time></trkpt><trkpt lat="45.4610997" lon="8.0794382"><ele>245.33333333333331</ele><time>2026-04-20T07:31:11.369Z</time></trkpt><trkpt lat="45.4609733" lon="8.0796564"><ele>244.66666666666666</ele><time>2026-04-20T07:31:12.376Z</time></trkpt><trkpt lat="45.4608506" lon="8.0798687"><ele>244.0</ele><time>2026-04-20T07:31:13.376Z</time></trkpt><trkpt lat="45.4607286" lon="8.0800822"><ele>243.66666666666666</ele><time>2026-04-20T07:31:14.377Z</time></trkpt><trkpt lat="45.4605979" lon="8.0802951"><ele>243.33333333333331</ele><time>2026-04-20T07:31:15.373Z</time></trkpt><trkpt lat="45.4604782" lon="8.0805061"><ele>243.0</ele><time>2026-04-20T07:31:16.372Z</time></trkpt><trkpt lat="45.4603507" lon="8.0807116"><ele>242.66666666666669</ele><time>2026-04-20T07:31:17.383Z</time></trkpt><trkpt lat="45.4602284" lon="8.0809046"><ele>242.33333333333334</ele><time>2026-04-20T07:31:18.365Z</time></trkpt><trkpt lat="45.4601059" lon="8.0811164"><ele>242.0</ele><time>2026-04-20T07:31:19.378Z</time></trkpt><trkpt lat="45.4599808" lon="8.0813225"><ele>242.0</ele><time>2026-04-20T07:31:20.373Z</time></trkpt><trkpt lat="45.4598631" lon="8.0815186"><ele>242.0</ele><time>2026-04-20T07:31:21.373Z</time></trkpt><trkpt lat="45.4597434" lon="8.0817263"><ele>242.0</ele><time>2026-04-20T07:31:22.379Z</time></trkpt><trkpt lat="45.4596201" lon="8.0819417"><ele>242.0</ele><time>2026-04-20T07:31:23.377Z</time></trkpt><trkpt lat="45.459494" lon="8.0821646"><ele>242.0</ele><time>2026-04-20T07:31:24.381Z</time></trkpt><trkpt lat="45.4593714" lon="8.0823895"><ele>242.0</ele><time>2026-04-20T07:31:25.375Z</time></trkpt><trkpt lat="45.4592463" lon="8.0826057"><ele>242.0</ele><time>2026-04-20T07:31:26.374Z</time></trkpt><trkpt lat="45.4591201" lon="8.0828224"><ele>242.0</ele><time>2026-04-20T07:31:27.376Z</time></trkpt><trkpt lat="45.4590023" lon="8.0830347"><ele>242.0</ele><time>2026-04-20T07:31:28.376Z</time></trkpt><trkpt lat="45.4588781" lon="8.0832556"><ele>242.0</ele><time>2026-04-20T07:31:29.379Z</time></trkpt><trkpt lat="45.4587506" lon="8.0834631"><ele>242.0</ele><time>2026-04-20T07:31:30.371Z</time></trkpt><trkpt lat="45.4586215" lon="8.0836704"><ele>242.0</ele><time>2026-04-20T07:31:31.375Z</time></trkpt><trkpt lat="45.4584958" lon="8.0838768"><ele>242.0</ele><time>2026-04-20T07:31:32.374Z</time></trkpt><trkpt lat="45.4583744" lon="8.0840846"><ele>242.0</ele><time>2026-04-20T07:31:33.369Z</time></trkpt><trkpt lat="45.4582659" lon="8.0842896"><ele>242.0</ele><time>2026-04-20T07:31:34.374Z</time></trkpt><trkpt lat="45.4581441" lon="8.08449"><ele>242.0</ele><time>2026-04-20T07:31:35.371Z</time></trkpt><trkpt lat="45.4580121" lon="8.0846894"><ele>242.0</ele><time>2026-04-20T07:31:36.376Z</time></trkpt><trkpt lat="45.4578827" lon="8.0848995"><ele>242.0</ele><time>2026-04-20T07:31:37.375Z</time></trkpt><trkpt lat="45.4577534" lon="8.0851068"><ele>240.66666666666669</ele><time>2026-04-20T07:31:38.375Z</time></trkpt><trkpt lat="45.4576288" lon="8.0853197"><ele>239.33333333333331</ele><time>2026-04-20T07:31:39.376Z</time></trkpt><trkpt lat="45.4574988" lon="8.0855277"><ele>238.0</ele><time>2026-04-20T07:31:40.383Z</time></trkpt><trkpt lat="45.4573723" lon="8.085749"><ele>238.0</ele><time>2026-04-20T07:31:41.379Z</time></trkpt><trkpt lat="45.4572428" lon="8.0859607"><ele>238.0</ele><time>2026-04-20T07:31:42.379Z</time></trkpt><trkpt lat="45.4571298" lon="8.0861693"><ele>238.0</ele><time>2026-04-20T07:31:43.382Z</time></trkpt><trkpt lat="45.4570032" lon="8.0863747"><ele>238.0</ele><time>2026-04-20T07:31:44.376Z</time></trkpt><trkpt lat="45.4568761" lon="8.0865808"><ele>238.0</ele><time>2026-04-20T07:31:45.376Z</time></trkpt><trkpt lat="45.4567464" lon="8.0867827"><ele>238.0</ele><time>2026-04-20T07:31:46.376Z</time></trkpt><trkpt lat="45.4566249" lon="8.0869938"><ele>238.0</ele><time>2026-04-20T07:31:47.377Z</time></trkpt><trkpt lat="45.4565064" lon="8.0872028"><ele>238.0</ele><time>2026-04-20T07:31:48.376Z</time></trkpt><trkpt lat="45.4563782" lon="8.0874272"><ele>238.0</ele><time>2026-04-20T07:31:49.379Z</time></trkpt><trkpt lat="45.4562712" lon="8.0876493"><ele>239.0</ele><time>2026-04-20T07:31:50.376Z</time></trkpt><trkpt lat="45.456171" lon="8.0878704"><ele>240.0</ele><time>2026-04-20T07:31:51.38Z</time></trkpt><trkpt lat="45.4560677" lon="8.0880971"><ele>241.0</ele><time>2026-04-20T07:31:52.379Z</time></trkpt><trkpt lat="45.4559706" lon="8.0883354"><ele>241.0</ele><time>2026-04-20T07:31:53.369Z</time></trkpt><trkpt lat="45.4558654" lon="8.088569"><ele>241.0</ele><time>2026-04-20T07:31:54.373Z</time></trkpt><trkpt lat="45.4557685" lon="8.0888009"><ele>241.0</ele><time>2026-04-20T07:31:55.374Z</time></trkpt><trkpt lat="45.45567" lon="8.0890297"><ele>240.0</ele><time>2026-04-20T07:31:56.373Z</time></trkpt><trkpt lat="45.4555692" lon="8.0892588"><ele>239.0</ele><time>2026-04-20T07:31:57.369Z</time></trkpt><trkpt lat="45.4554728" lon="8.0894836"><ele>238.0</ele><time>2026-04-20T07:31:58.368Z</time></trkpt><trkpt lat="45.4553749" lon="8.0897188"><ele>239.66666666666666</ele><time>2026-04-20T07:31:59.37Z</time></trkpt><trkpt lat="45.4552707" lon="8.0899472"><ele>241.33333333333331</ele><time>2026-04-20T07:32:00.362Z</time></trkpt><trkpt lat="45.4551708" lon="8.0901741"><ele>243.0</ele><time>2026-04-20T07:32:01.371Z</time></trkpt><trkpt lat="45.4550727" lon="8.0904028"><ele>243.0</ele><time>2026-04-20T07:32:02.371Z</time></trkpt><trkpt lat="45.4549718" lon="8.0906336"><ele>243.0</ele><time>2026-04-20T07:32:03.372Z</time></trkpt><trkpt lat="45.4548681" lon="8.0908577"><ele>243.0</ele><time>2026-04-20T07:32:04.367Z</time></trkpt><trkpt lat="45.4547865" lon="8.0910972"><ele>243.0</ele><time>2026-04-20T07:32:05.372Z</time></trkpt><trkpt lat="45.4546858" lon="8.0913319"><ele>243.0</ele><time>2026-04-20T07:32:06.372Z</time></trkpt><trkpt lat="45.4545859" lon="8.0915643"><ele>243.0</ele><time>2026-04-20T07:32:07.372Z</time></trkpt><trkpt lat="45.4544967" lon="8.0918003"><ele>243.0</ele><time>2026-04-20T07:32:08.375Z</time></trkpt><trkpt lat="45.4543999" lon="8.0920281"><ele>243.0</ele><time>2026-04-20T07:32:09.374Z</time></trkpt><trkpt lat="45.4543111" lon="8.0922571"><ele>243.0</ele><time>2026-04-20T07:32:10.379Z</time></trkpt><trkpt lat="45.4542189" lon="8.0924874"><ele>242.66666666666669</ele><time>2026-04-20T07:32:11.382Z</time></trkpt><trkpt lat="45.4541173" lon="8.0927169"><ele>242.33333333333334</ele><time>2026-04-20T07:32:12.379Z</time></trkpt><trkpt lat="45.4540192" lon="8.0929363"><ele>242.0</ele><time>2026-04-20T07:32:13.375Z</time></trkpt><trkpt lat="45.453948" lon="8.0931642"><ele>241.33333333333334</ele><time>2026-04-20T07:32:14.37Z</time></trkpt><trkpt lat="45.4539012" lon="8.09341"><ele>240.66666666666669</ele><time>2026-04-20T07:32:15.363Z</time></trkpt><trkpt lat="45.453877" lon="8.0936663"><ele>240.0</ele><time>2026-04-20T07:32:16.372Z</time></trkpt><trkpt lat="45.4538612" lon="8.0939196"><ele>238.66666666666669</ele><time>2026-04-20T07:32:17.374Z</time></trkpt><trkpt lat="45.4538532" lon="8.0941737"><ele>237.33333333333334</ele><time>2026-04-20T07:32:18.37Z</time></trkpt><trkpt lat="45.4538642" lon="8.0944186"><ele>236.0</ele><time>2026-04-20T07:32:19.37Z</time></trkpt><trkpt lat="45.4538689" lon="8.0946344"><ele>236.0</ele><time>2026-04-20T07:32:20.368Z</time></trkpt><trkpt lat="45.4538671" lon="8.0948107"><ele>236.00000000000003</ele><time>2026-04-20T07:32:21.369Z</time></trkpt><trkpt lat="45.4538466" lon="8.0949465"><ele>236.00000000000003</ele><time>2026-04-20T07:32:22.37Z</time></trkpt><trkpt lat="45.453845" lon="8.0950829"><ele>236.0</ele><time>2026-04-20T07:32:23.368Z</time></trkpt><trkpt lat="45.4538469" lon="8.0952132"><ele>236.0</ele><time>2026-04-20T07:32:24.366Z</time></trkpt><trkpt lat="45.4538232" lon="8.0953302"><ele>240.75</ele><time>2026-04-20T07:32:25.367Z</time></trkpt><trkpt lat="45.4537848" lon="8.0954511"><ele>245.5</ele><time>2026-04-20T07:32:26.362Z</time></trkpt><trkpt lat="45.4537182" lon="8.0955939"><ele>250.25</ele><time>2026-04-20T07:32:27.356Z</time></trkpt><trkpt lat="45.4536289" lon="8.0957506"><ele>255.0</ele><time>2026-04-20T07:32:28.366Z</time></trkpt><trkpt lat="45.453508" lon="8.0958906"><ele>255.0</ele><time>2026-04-20T07:32:29.367Z</time></trkpt><trkpt lat="45.4533868" lon="8.0960574"><ele>255.0</ele><time>2026-04-20T07:32:30.359Z</time></trkpt><trkpt lat="45.4532756" lon="8.0962544"><ele>255.0</ele><time>2026-04-20T07:32:31.36Z</time></trkpt><trkpt lat="45.4531582" lon="8.0964441"><ele>250.0</ele><time>2026-04-20T07:32:32.354Z</time></trkpt><trkpt lat="45.4530778" lon="8.096635"><ele>245.0</ele><time>2026-04-20T07:32:33.36Z</time></trkpt><trkpt lat="45.4529881" lon="8.0968266"><ele>240.0</ele><time>2026-04-20T07:32:34.381Z</time></trkpt><trkpt lat="45.4528509" lon="8.0970045"><ele>247.33333333333331</ele><time>2026-04-20T07:32:35.372Z</time></trkpt><trkpt lat="45.4527164" lon="8.0971824"><ele>254.66666666666666</ele><time>2026-04-20T07:32:36.453Z</time></trkpt><trkpt lat="45.4525836" lon="8.0973713"><ele>262.0</ele><time>2026-04-20T07:32:37.455Z</time></trkpt><trkpt lat="45.4524593" lon="8.0975796"><ele>262.0</ele><time>2026-04-20T07:32:38.454Z</time></trkpt><trkpt lat="45.4523412" lon="8.0977931"><ele>262.0</ele><time>2026-04-20T07:32:39.459Z</time></trkpt><trkpt lat="45.4520787" lon="8.0982042"><ele>268.66666666666663</ele><time>2026-04-20T07:32:41.348Z</time></trkpt><trkpt lat="45.4519475" lon="8.0983963"><ele>275.3333333333333</ele><time>2026-04-20T07:32:42.344Z</time></trkpt><trkpt lat="45.4518147" lon="8.0985982"><ele>282.0</ele><time>2026-04-20T07:32:43.343Z</time></trkpt><trkpt lat="45.451723" lon="8.0988379"><ele>276.6666666666667</ele><time>2026-04-20T07:32:44.354Z</time></trkpt><trkpt lat="45.4516526" lon="8.0990914"><ele>271.33333333333337</ele><time>2026-04-20T07:32:45.357Z</time></trkpt><trkpt lat="45.4515485" lon="8.0993246"><ele>266.0</ele><time>2026-04-20T07:32:46.368Z</time></trkpt><trkpt lat="45.4514596" lon="8.0995665"><ele>266.0</ele><time>2026-04-20T07:32:47.367Z</time></trkpt><trkpt lat="45.4513665" lon="8.0998378"><ele>266.0</ele><time>2026-04-20T07:32:48.354Z</time></trkpt><trkpt lat="45.4512804" lon="8.1001293"><ele>266.0</ele><time>2026-04-20T07:32:49.368Z</time></trkpt><trkpt lat="45.4512062" lon="8.1004011"><ele>276.6666666666667</ele><time>2026-04-20T07:32:50.359Z</time></trkpt><trkpt lat="45.45118" lon="8.1007092"><ele>287.3333333333333</ele><time>2026-04-20T07:32:51.366Z</time></trkpt><trkpt lat="45.451121" lon="8.1009899"><ele>298.0</ele><time>2026-04-20T07:32:52.359Z</time></trkpt><trkpt lat="45.4510584" lon="8.1012664"><ele>298.0</ele><time>2026-04-20T07:32:53.367Z</time></trkpt><trkpt lat="45.4510056" lon="8.1015353"><ele>298.0</ele><time>2026-04-20T07:32:54.36Z</time></trkpt><trkpt lat="45.4509678" lon="8.1017984"><ele>298.0</ele><time>2026-04-20T07:32:55.356Z</time></trkpt><trkpt lat="45.4509347" lon="8.1020684"><ele>295.3333333333333</ele><time>2026-04-20T07:32:56.363Z</time></trkpt><trkpt lat="45.4509168" lon="8.1023426"><ele>292.6666666666667</ele><time>2026-04-20T07:32:57.361Z</time></trkpt><trkpt lat="45.4508935" lon="8.1026173"><ele>290.0</ele><time>2026-04-20T07:32:58.363Z</time></trkpt><trkpt lat="45.4508883" lon="8.1028931"><ele>289.0</ele><time>2026-04-20T07:32:59.364Z</time></trkpt><trkpt lat="45.4508655" lon="8.103163"><ele>288.0</ele><time>2026-04-20T07:33:00.364Z</time></trkpt><trkpt lat="45.4508251" lon="8.1034097"><ele>287.0</ele><time>2026-04-20T07:33:01.357Z</time></trkpt><trkpt lat="45.4507768" lon="8.1036202"><ele>286.4</ele><time>2026-04-20T07:33:02.363Z</time></trkpt><trkpt lat="45.4507459" lon="8.103812"><ele>285.79999999999995</ele><time>2026-04-20T07:33:03.357Z</time></trkpt><trkpt lat="45.4507139" lon="8.103983"><ele>285.2</ele><time>2026-04-20T07:33:04.361Z</time></trkpt><trkpt lat="45.4506428" lon="8.104091"><ele>284.59999999999997</ele><time>2026-04-20T07:33:05.361Z</time></trkpt><trkpt lat="45.4505749" lon="8.1041539"><ele>284.0</ele><time>2026-04-20T07:33:06.363Z</time></trkpt><trkpt lat="45.4504544" lon="8.104193"><ele>285.75</ele><time>2026-04-20T07:33:07.354Z</time></trkpt><trkpt lat="45.4503308" lon="8.1042077"><ele>287.5</ele><time>2026-04-20T07:33:08.365Z</time></trkpt><trkpt lat="45.4502013" lon="8.1042564"><ele>289.25</ele><time>2026-04-20T07:33:09.354Z</time></trkpt><trkpt lat="45.4501204" lon="8.1043491"><ele>291.0</ele><time>2026-04-20T07:33:10.355Z</time></trkpt><trkpt lat="45.4500524" lon="8.104478"><ele>291.0</ele><time>2026-04-20T07:33:11.344Z</time></trkpt><trkpt lat="45.4499726" lon="8.1046366"><ele>291.0</ele><time>2026-04-20T07:33:12.352Z</time></trkpt><trkpt lat="45.4498822" lon="8.1047772"><ele>291.0</ele><time>2026-04-20T07:33:13.354Z</time></trkpt><trkpt lat="45.4498016" lon="8.1049165"><ele>291.0</ele><time>2026-04-20T07:33:14.349Z</time></trkpt><trkpt lat="45.4497322" lon="8.1050559"><ele>292.40000000000003</ele><time>2026-04-20T07:33:15.351Z</time></trkpt><trkpt lat="45.4496708" lon="8.105168"><ele>293.8</ele><time>2026-04-20T07:33:16.35Z</time></trkpt><trkpt lat="45.449628" lon="8.105261"><ele>295.20000000000005</ele><time>2026-04-20T07:33:17.346Z</time></trkpt><trkpt lat="45.4495541" lon="8.1053488"><ele>296.6</ele><time>2026-04-20T07:33:19.35Z</time></trkpt><trkpt lat="45.4494938" lon="8.1052242"><ele>298.0</ele><time>2026-04-20T07:33:21.347Z</time></trkpt><trkpt lat="45.4494631" lon="8.1050869"><ele>292.75</ele><time>2026-04-20T07:33:22.34Z</time></trkpt><trkpt lat="45.4494056" lon="8.1049675"><ele>287.5</ele><time>2026-04-20T07:33:23.339Z</time></trkpt><trkpt lat="45.4493239" lon="8.1048651"><ele>282.25</ele><time>2026-04-20T07:33:24.338Z</time></trkpt><trkpt lat="45.4492085" lon="8.1047866"><ele>277.0</ele><time>2026-04-20T07:33:25.35Z</time></trkpt><trkpt lat="45.4490792" lon="8.1047443"><ele>275.3333333333333</ele><time>2026-04-20T07:33:26.354Z</time></trkpt><trkpt lat="45.4489364" lon="8.1047026"><ele>273.6666666666667</ele><time>2026-04-20T07:33:27.35Z</time></trkpt><trkpt lat="45.4487894" lon="8.1046521"><ele>272.0</ele><time>2026-04-20T07:33:28.348Z</time></trkpt><trkpt lat="45.4486344" lon="8.104616"><ele>270.6666666666667</ele><time>2026-04-20T07:33:29.359Z</time></trkpt><trkpt lat="45.4484782" lon="8.1045856"><ele>269.3333333333333</ele><time>2026-04-20T07:33:30.366Z</time></trkpt><trkpt lat="45.4483185" lon="8.1045464"><ele>268.0</ele><time>2026-04-20T07:33:31.37Z</time></trkpt><trkpt lat="45.4481731" lon="8.104516"><ele>268.0</ele><time>2026-04-20T07:33:32.367Z</time></trkpt><trkpt lat="45.4480274" lon="8.1044686"><ele>268.0</ele><time>2026-04-20T07:33:33.37Z</time></trkpt><trkpt lat="45.4478864" lon="8.1044275"><ele>268.0</ele><time>2026-04-20T07:33:34.373Z</time></trkpt><trkpt lat="45.4477556" lon="8.1044008"><ele>268.0</ele><time>2026-04-20T07:33:35.378Z</time></trkpt><trkpt lat="45.4476264" lon="8.1043595"><ele>267.75</ele><time>2026-04-20T07:33:36.372Z</time></trkpt><trkpt lat="45.4475082" lon="8.1043106"><ele>267.5</ele><time>2026-04-20T07:33:37.365Z</time></trkpt><trkpt lat="45.4473856" lon="8.104278"><ele>267.25</ele><time>2026-04-20T07:33:38.368Z</time></trkpt><trkpt lat="45.4472742" lon="8.1042501"><ele>267.0</ele><time>2026-04-20T07:33:39.364Z</time></trkpt><trkpt lat="45.4471822" lon="8.1042187"><ele>266.0</ele><time>2026-04-20T07:33:40.356Z</time></trkpt><trkpt lat="45.4471001" lon="8.1042164"><ele>265.0</ele><time>2026-04-20T07:33:41.358Z</time></trkpt><trkpt lat="45.4470276" lon="8.1042607"><ele>264.0</ele><time>2026-04-20T07:33:42.356Z</time></trkpt><trkpt lat="45.4469646" lon="8.1043683"><ele>263.0</ele><time>2026-04-20T07:33:43.363Z</time></trkpt><trkpt lat="45.4469137" lon="8.1045266"><ele>262.0</ele><time>2026-04-20T07:33:44.362Z</time></trkpt><trkpt lat="45.4468649" lon="8.1047051"><ele>262.0</ele><time>2026-04-20T07:33:45.363Z</time></trkpt><trkpt lat="45.4468209" lon="8.1048872"><ele>262.0</ele><time>2026-04-20T07:33:46.372Z</time></trkpt><trkpt lat="45.4467634" lon="8.1050717"><ele>262.0</ele><time>2026-04-20T07:33:47.371Z</time></trkpt><trkpt lat="45.446694" lon="8.1052595"><ele>262.0</ele><time>2026-04-20T07:33:48.367Z</time></trkpt><trkpt lat="45.4466199" lon="8.1054487"><ele>263.66666666666663</ele><time>2026-04-20T07:33:49.372Z</time></trkpt><trkpt lat="45.4465545" lon="8.1056456"><ele>265.3333333333333</ele><time>2026-04-20T07:33:50.37Z</time></trkpt><trkpt lat="45.4464703" lon="8.1058388"><ele>267.0</ele><time>2026-04-20T07:33:51.37Z</time></trkpt><trkpt lat="45.4464083" lon="8.1060297"><ele>267.0</ele><time>2026-04-20T07:33:52.368Z</time></trkpt><trkpt lat="45.4463409" lon="8.1062043"><ele>267.0</ele><time>2026-04-20T07:33:53.361Z</time></trkpt><trkpt lat="45.4462716" lon="8.1063819"><ele>267.0</ele><time>2026-04-20T07:33:54.361Z</time></trkpt><trkpt lat="45.4462095" lon="8.1065582"><ele>267.0</ele><time>2026-04-20T07:33:55.37Z</time></trkpt><trkpt lat="45.4461466" lon="8.1067236"><ele>267.0</ele><time>2026-04-20T07:33:56.354Z</time></trkpt><trkpt lat="45.4460883" lon="8.1068912"><ele>267.0</ele><time>2026-04-20T07:33:57.351Z</time></trkpt><trkpt lat="45.4460386" lon="8.1070679"><ele>267.0</ele><time>2026-04-20T07:33:58.352Z</time></trkpt><trkpt lat="45.4460133" lon="8.1072809"><ele>267.0</ele><time>2026-04-20T07:33:59.354Z</time></trkpt><trkpt lat="45.4459964" lon="8.1074965"><ele>265.25</ele><time>2026-04-20T07:34:00.368Z</time></trkpt><trkpt lat="45.445981" lon="8.1076986"><ele>263.5</ele><time>2026-04-20T07:34:01.367Z</time></trkpt><trkpt lat="45.4459735" lon="8.1078822"><ele>261.75</ele><time>2026-04-20T07:34:02.355Z</time></trkpt><trkpt lat="45.4459979" lon="8.1080846"><ele>260.0</ele><time>2026-04-20T07:34:03.36Z</time></trkpt><trkpt lat="45.4460385" lon="8.108285"><ele>259.0</ele><time>2026-04-20T07:34:04.356Z</time></trkpt><trkpt lat="45.4460912" lon="8.1084712"><ele>258.0</ele><time>2026-04-20T07:34:05.36Z</time></trkpt><trkpt lat="45.4461546" lon="8.1086797"><ele>257.0</ele><time>2026-04-20T07:34:06.39Z</time></trkpt><trkpt lat="45.4462219" lon="8.1088994"><ele>257.25</ele><time>2026-04-20T07:34:07.377Z</time></trkpt><trkpt lat="45.4462748" lon="8.1091075"><ele>257.5</ele><time>2026-04-20T07:34:08.378Z</time></trkpt><trkpt lat="45.4463309" lon="8.1093062"><ele>257.75</ele><time>2026-04-20T07:34:09.37Z</time></trkpt><trkpt lat="45.4463544" lon="8.1095002"><ele>258.0</ele><time>2026-04-20T07:34:10.37Z</time></trkpt><trkpt lat="45.4463658" lon="8.1097086"><ele>259.3333333333333</ele><time>2026-04-20T07:34:11.37Z</time></trkpt><trkpt lat="45.4463552" lon="8.1099108"><ele>260.66666666666663</ele><time>2026-04-20T07:34:12.364Z</time></trkpt><trkpt lat="45.446333" lon="8.1101701"><ele>262.0</ele><time>2026-04-20T07:34:13.357Z</time></trkpt><trkpt lat="45.4462899" lon="8.1103875"><ele>261.5</ele><time>2026-04-20T07:34:14.358Z</time></trkpt><trkpt lat="45.4462561" lon="8.1106023"><ele>261.0</ele><time>2026-04-20T07:34:15.344Z</time></trkpt><trkpt lat="45.4462786" lon="8.1108185"><ele>260.5</ele><time>2026-04-20T07:34:16.359Z</time></trkpt><trkpt lat="45.4462815" lon="8.1110138"><ele>260.0</ele><time>2026-04-20T07:34:17.356Z</time></trkpt><trkpt lat="45.4463179" lon="8.11123"><ele>260.0</ele><time>2026-04-20T07:34:18.361Z</time></trkpt><trkpt lat="45.4463456" lon="8.1114142"><ele>260.0</ele><time>2026-04-20T07:34:19.357Z</time></trkpt><trkpt lat="45.4463806" lon="8.111582"><ele>260.0</ele><time>2026-04-20T07:34:20.356Z</time></trkpt><trkpt lat="45.4464354" lon="8.1117419"><ele>260.0</ele><time>2026-04-20T07:34:21.365Z</time></trkpt><trkpt lat="45.4464874" lon="8.1118891"><ele>258.6</ele><time>2026-04-20T07:34:22.365Z</time></trkpt><trkpt lat="45.4465573" lon="8.1120166"><ele>257.2</ele><time>2026-04-20T07:34:23.365Z</time></trkpt><trkpt lat="45.4466167" lon="8.112133"><ele>255.8</ele><time>2026-04-20T07:34:24.371Z</time></trkpt><trkpt lat="45.4466694" lon="8.1122128"><ele>254.4</ele><time>2026-04-20T07:34:25.368Z</time></trkpt><trkpt lat="45.4467005" lon="8.1123154"><ele>253.0</ele><time>2026-04-20T07:34:27.361Z</time></trkpt><trkpt lat="45.4466081" lon="8.1124097"><ele>253.0</ele><time>2026-04-20T07:34:30.358Z</time></trkpt><trkpt lat="45.446519" lon="8.1124078"><ele>253.0</ele><time>2026-04-20T07:34:31.355Z</time></trkpt><trkpt lat="45.4464008" lon="8.1123959"><ele>253.0</ele><time>2026-04-20T07:34:32.37Z</time></trkpt><trkpt lat="45.4462746" lon="8.1123825"><ele>253.0</ele><time>2026-04-20T07:34:33.366Z</time></trkpt><trkpt lat="45.446137" lon="8.1123845"><ele>249.0</ele><time>2026-04-20T07:34:34.363Z</time></trkpt><trkpt lat="45.4459595" lon="8.1123808"><ele>245.0</ele><time>2026-04-20T07:34:35.363Z</time></trkpt><trkpt lat="45.4457494" lon="8.1123715"><ele>241.0</ele><time>2026-04-20T07:34:36.377Z</time></trkpt><trkpt lat="45.4455364" lon="8.1123737"><ele>243.66666666666666</ele><time>2026-04-20T07:34:37.364Z</time></trkpt><trkpt lat="45.4453321" lon="8.112376"><ele>246.33333333333331</ele><time>2026-04-20T07:34:38.366Z</time></trkpt><trkpt lat="45.4451225" lon="8.1123708"><ele>249.0</ele><time>2026-04-20T07:34:39.372Z</time></trkpt><trkpt lat="45.4449192" lon="8.1123616"><ele>249.0</ele><time>2026-04-20T07:34:40.36Z</time></trkpt><trkpt lat="45.4447389" lon="8.1123378"><ele>249.0</ele><time>2026-04-20T07:34:41.363Z</time></trkpt><trkpt lat="45.4445527" lon="8.1123429"><ele>249.0</ele><time>2026-04-20T07:34:42.36Z</time></trkpt><trkpt lat="45.4443913" lon="8.1123366"><ele>250.5</ele><time>2026-04-20T07:34:43.356Z</time></trkpt><trkpt lat="45.4442549" lon="8.1123461"><ele>252.0</ele><time>2026-04-20T07:34:44.361Z</time></trkpt><trkpt lat="45.4441163" lon="8.1123397"><ele>253.5</ele><time>2026-04-20T07:34:45.367Z</time></trkpt><trkpt lat="45.4439703" lon="8.1123416"><ele>255.0</ele><time>2026-04-20T07:34:46.365Z</time></trkpt><trkpt lat="45.4438232" lon="8.1123301"><ele>253.33333333333331</ele><time>2026-04-20T07:34:47.366Z</time></trkpt><trkpt lat="45.4436681" lon="8.1123322"><ele>251.66666666666666</ele><time>2026-04-20T07:34:48.365Z</time></trkpt><trkpt lat="45.443506" lon="8.1123509"><ele>250.0</ele><time>2026-04-20T07:34:49.367Z</time></trkpt><trkpt lat="45.4433538" lon="8.1123422"><ele>250.0</ele><time>2026-04-20T07:34:50.368Z</time></trkpt><trkpt lat="45.4431873" lon="8.1123217"><ele>250.0</ele><time>2026-04-20T07:34:51.365Z</time></trkpt><trkpt lat="45.4430197" lon="8.1123123"><ele>250.0</ele><time>2026-04-20T07:34:52.37Z</time></trkpt><trkpt lat="45.442848" lon="8.1123219"><ele>252.0</ele><time>2026-04-20T07:34:53.367Z</time></trkpt><trkpt lat="45.4426856" lon="8.1123447"><ele>254.0</ele><time>2026-04-20T07:34:54.377Z</time></trkpt><trkpt lat="45.442519" lon="8.1123438"><ele>256.0</ele><time>2026-04-20T07:34:55.368Z</time></trkpt><trkpt lat="45.4423539" lon="8.1123351"><ele>256.0</ele><time>2026-04-20T07:34:56.367Z</time></trkpt><trkpt lat="45.4421723" lon="8.1123304"><ele>256.0</ele><time>2026-04-20T07:34:57.365Z</time></trkpt><trkpt lat="45.441995" lon="8.1123216"><ele>256.0</ele><time>2026-04-20T07:34:58.36Z</time></trkpt><trkpt lat="45.4418149" lon="8.1122897"><ele>256.66666666666663</ele><time>2026-04-20T07:34:59.367Z</time></trkpt><trkpt lat="45.4416653" lon="8.1122832"><ele>257.3333333333333</ele><time>2026-04-20T07:35:00.364Z</time></trkpt><trkpt lat="45.4414887" lon="8.112276"><ele>258.0</ele><time>2026-04-20T07:35:01.364Z</time></trkpt><trkpt lat="45.4413189" lon="8.1122693"><ele>259.0</ele><time>2026-04-20T07:35:02.368Z</time></trkpt><trkpt lat="45.4411612" lon="8.1122762"><ele>260.0</ele><time>2026-04-20T07:35:03.366Z</time></trkpt><trkpt lat="45.4410111" lon="8.1122753"><ele>261.0</ele><time>2026-04-20T07:35:04.363Z</time></trkpt><trkpt lat="45.4408535" lon="8.1122744"><ele>261.0</ele><time>2026-04-20T07:35:05.359Z</time></trkpt><trkpt lat="45.44069" lon="8.1122696"><ele>261.0</ele><time>2026-04-20T07:35:06.362Z</time></trkpt><trkpt lat="45.4405189" lon="8.1122676"><ele>261.0</ele><time>2026-04-20T07:35:07.366Z</time></trkpt><trkpt lat="45.4403493" lon="8.1122686"><ele>260.6666666666667</ele><time>2026-04-20T07:35:08.367Z</time></trkpt><trkpt lat="45.4401648" lon="8.1122534"><ele>260.33333333333337</ele><time>2026-04-20T07:35:09.365Z</time></trkpt><trkpt lat="45.4399968" lon="8.1122526"><ele>260.0</ele><time>2026-04-20T07:35:10.367Z</time></trkpt><trkpt lat="45.4398128" lon="8.112239"><ele>260.0</ele><time>2026-04-20T07:35:11.363Z</time></trkpt><trkpt lat="45.4396461" lon="8.1122329"><ele>260.0</ele><time>2026-04-20T07:35:12.364Z</time></trkpt><trkpt lat="45.4394812" lon="8.1122131"><ele>260.0</ele><time>2026-04-20T07:35:13.364Z</time></trkpt><trkpt lat="45.4393128" lon="8.1121958"><ele>260.6666666666667</ele><time>2026-04-20T07:35:14.362Z</time></trkpt><trkpt lat="45.4391525" lon="8.1121894"><ele>261.3333333333333</ele><time>2026-04-20T07:35:15.365Z</time></trkpt><trkpt lat="45.4389854" lon="8.112187"><ele>262.0</ele><time>2026-04-20T07:35:16.372Z</time></trkpt><trkpt lat="45.4388162" lon="8.1121794"><ele>262.0</ele><time>2026-04-20T07:35:17.369Z</time></trkpt><trkpt lat="45.4386629" lon="8.1122016"><ele>262.0</ele><time>2026-04-20T07:35:18.365Z</time></trkpt><trkpt lat="45.4385407" lon="8.1121887"><ele>262.0</ele><time>2026-04-20T07:35:19.376Z</time></trkpt><trkpt lat="45.4383961" lon="8.1121956"><ele>262.0</ele><time>2026-04-20T07:35:20.373Z</time></trkpt><trkpt lat="45.4382445" lon="8.1121844"><ele>262.0</ele><time>2026-04-20T07:35:21.372Z</time></trkpt><trkpt lat="45.4380984" lon="8.1121806"><ele>262.0</ele><time>2026-04-20T07:35:22.368Z</time></trkpt><trkpt lat="45.4379297" lon="8.1121668"><ele>262.0</ele><time>2026-04-20T07:35:23.366Z</time></trkpt><trkpt lat="45.4377611" lon="8.1121739"><ele>261.3333333333333</ele><time>2026-04-20T07:35:24.366Z</time></trkpt><trkpt lat="45.4376053" lon="8.1121554"><ele>260.6666666666667</ele><time>2026-04-20T07:35:25.37Z</time></trkpt><trkpt lat="45.4374454" lon="8.1121473"><ele>260.0</ele><time>2026-04-20T07:35:26.368Z</time></trkpt><trkpt lat="45.4372885" lon="8.1121432"><ele>258.6666666666667</ele><time>2026-04-20T07:35:27.368Z</time></trkpt><trkpt lat="45.4371353" lon="8.1121428"><ele>257.3333333333333</ele><time>2026-04-20T07:35:28.374Z</time></trkpt><trkpt lat="45.4369686" lon="8.11214"><ele>256.0</ele><time>2026-04-20T07:35:29.373Z</time></trkpt><trkpt lat="45.4368212" lon="8.1121356"><ele>256.0</ele><time>2026-04-20T07:35:30.373Z</time></trkpt><trkpt lat="45.436673" lon="8.1121291"><ele>256.0</ele><time>2026-04-20T07:35:31.374Z</time></trkpt><trkpt lat="45.4365207" lon="8.1121347"><ele>256.0</ele><time>2026-04-20T07:35:32.369Z</time></trkpt><trkpt lat="45.4363678" lon="8.1121334"><ele>255.33333333333331</ele><time>2026-04-20T07:35:33.365Z</time></trkpt><trkpt lat="45.4362118" lon="8.1121351"><ele>254.66666666666669</ele><time>2026-04-20T07:35:34.369Z</time></trkpt><trkpt lat="45.4360576" lon="8.1121318"><ele>254.0</ele><time>2026-04-20T07:35:35.365Z</time></trkpt><trkpt lat="45.4359006" lon="8.112127"><ele>254.0</ele><time>2026-04-20T07:35:36.371Z</time></trkpt><trkpt lat="45.4357481" lon="8.1121241"><ele>254.0</ele><time>2026-04-20T07:35:37.372Z</time></trkpt><trkpt lat="45.4355977" lon="8.112122"><ele>254.0</ele><time>2026-04-20T07:35:38.378Z</time></trkpt><trkpt lat="45.4354365" lon="8.1121221"><ele>254.0</ele><time>2026-04-20T07:35:39.377Z</time></trkpt><trkpt lat="45.4352905" lon="8.1121298"><ele>254.0</ele><time>2026-04-20T07:35:40.375Z</time></trkpt><trkpt lat="45.4351574" lon="8.1121354"><ele>254.0</ele><time>2026-04-20T07:35:41.375Z</time></trkpt><trkpt lat="45.4350187" lon="8.1121357"><ele>254.0</ele><time>2026-04-20T07:35:42.368Z</time></trkpt><trkpt lat="45.4348777" lon="8.1121347"><ele>254.0</ele><time>2026-04-20T07:35:43.376Z</time></trkpt><trkpt lat="45.4347335" lon="8.1121216"><ele>254.0</ele><time>2026-04-20T07:35:44.379Z</time></trkpt><trkpt lat="45.4346066" lon="8.1121145"><ele>254.0</ele><time>2026-04-20T07:35:45.376Z</time></trkpt><trkpt lat="45.4344808" lon="8.1121017"><ele>254.0</ele><time>2026-04-20T07:35:46.376Z</time></trkpt><trkpt lat="45.4343804" lon="8.1120992"><ele>254.2</ele><time>2026-04-20T07:35:47.374Z</time></trkpt><trkpt lat="45.4342993" lon="8.1120944"><ele>254.39999999999998</ele><time>2026-04-20T07:35:48.363Z</time></trkpt><trkpt lat="45.4341944" lon="8.1121399"><ele>254.6</ele><time>2026-04-20T07:35:50.376Z</time></trkpt><trkpt lat="45.434167" lon="8.1122324"><ele>254.8</ele><time>2026-04-20T07:35:51.366Z</time></trkpt><trkpt lat="45.4341538" lon="8.1123569"><ele>255.0</ele><time>2026-04-20T07:35:52.368Z</time></trkpt><trkpt lat="45.4341507" lon="8.1125113"><ele>255.0</ele><time>2026-04-20T07:35:53.363Z</time></trkpt><trkpt lat="45.4341363" lon="8.1126836"><ele>255.0</ele><time>2026-04-20T07:35:54.365Z</time></trkpt><trkpt lat="45.4341126" lon="8.1128714"><ele>255.0</ele><time>2026-04-20T07:35:55.371Z</time></trkpt><trkpt lat="45.4340798" lon="8.1130623"><ele>255.0</ele><time>2026-04-20T07:35:56.378Z</time></trkpt><trkpt lat="45.4340582" lon="8.11326"><ele>254.0</ele><time>2026-04-20T07:35:57.374Z</time></trkpt><trkpt lat="45.4340375" lon="8.1134704"><ele>253.0</ele><time>2026-04-20T07:35:58.388Z</time></trkpt><trkpt lat="45.4340084" lon="8.1137006"><ele>252.0</ele><time>2026-04-20T07:35:59.38Z</time></trkpt><trkpt lat="45.4339748" lon="8.1139552"><ele>251.0</ele><time>2026-04-20T07:36:00.405Z</time></trkpt><trkpt lat="45.4339374" lon="8.1141872"><ele>250.0</ele><time>2026-04-20T07:36:01.483Z</time></trkpt><trkpt lat="45.4339033" lon="8.114418"><ele>249.0</ele><time>2026-04-20T07:36:02.485Z</time></trkpt><trkpt lat="45.433868" lon="8.1146537"><ele>249.0</ele><time>2026-04-20T07:36:03.486Z</time></trkpt><trkpt lat="45.4338284" lon="8.1148972"><ele>249.0</ele><time>2026-04-20T07:36:04.487Z</time></trkpt><trkpt lat="45.4337872" lon="8.1151479"><ele>249.0</ele><time>2026-04-20T07:36:05.483Z</time></trkpt><trkpt lat="45.4337438" lon="8.1154073"><ele>249.33333333333331</ele><time>2026-04-20T07:36:06.48Z</time></trkpt><trkpt lat="45.4337007" lon="8.1156736"><ele>249.66666666666666</ele><time>2026-04-20T07:36:07.488Z</time></trkpt><trkpt lat="45.4336563" lon="8.115945"><ele>250.0</ele><time>2026-04-20T07:36:08.488Z</time></trkpt><trkpt lat="45.433612" lon="8.1162087"><ele>251.33333333333331</ele><time>2026-04-20T07:36:09.49Z</time></trkpt><trkpt lat="45.4335689" lon="8.1164666"><ele>252.66666666666669</ele><time>2026-04-20T07:36:10.485Z</time></trkpt><trkpt lat="45.4335224" lon="8.1167271"><ele>254.0</ele><time>2026-04-20T07:36:11.483Z</time></trkpt><trkpt lat="45.4334794" lon="8.1169892"><ele>254.0</ele><time>2026-04-20T07:36:12.487Z</time></trkpt><trkpt lat="45.433438" lon="8.1172608"><ele>254.0</ele><time>2026-04-20T07:36:13.487Z</time></trkpt><trkpt lat="45.4333967" lon="8.1175342"><ele>254.0</ele><time>2026-04-20T07:36:14.492Z</time></trkpt><trkpt lat="45.4333514" lon="8.1178087"><ele>252.66666666666669</ele><time>2026-04-20T07:36:15.481Z</time></trkpt><trkpt lat="45.433307" lon="8.118082"><ele>251.33333333333331</ele><time>2026-04-20T07:36:16.487Z</time></trkpt><trkpt lat="45.4332628" lon="8.1183515"><ele>250.0</ele><time>2026-04-20T07:36:17.48Z</time></trkpt><trkpt lat="45.4332213" lon="8.1186154"><ele>250.0</ele><time>2026-04-20T07:36:18.493Z</time></trkpt><trkpt lat="45.4331792" lon="8.118872"><ele>250.0</ele><time>2026-04-20T07:36:19.492Z</time></trkpt><trkpt lat="45.433138" lon="8.1191286"><ele>250.0</ele><time>2026-04-20T07:36:20.489Z</time></trkpt><trkpt lat="45.4330962" lon="8.1193841"><ele>250.33333333333331</ele><time>2026-04-20T07:36:21.491Z</time></trkpt><trkpt lat="45.4330548" lon="8.1196377"><ele>250.66666666666669</ele><time>2026-04-20T07:36:22.493Z</time></trkpt><trkpt lat="45.4330148" lon="8.1198929"><ele>251.0</ele><time>2026-04-20T07:36:23.489Z</time></trkpt><trkpt lat="45.4329761" lon="8.1201511"><ele>251.33333333333334</ele><time>2026-04-20T07:36:24.489Z</time></trkpt><trkpt lat="45.4329376" lon="8.1204122"><ele>251.66666666666669</ele><time>2026-04-20T07:36:25.489Z</time></trkpt><trkpt lat="45.4328951" lon="8.1206818"><ele>252.0</ele><time>2026-04-20T07:36:26.486Z</time></trkpt><trkpt lat="45.4328527" lon="8.1209531"><ele>252.0</ele><time>2026-04-20T07:36:27.489Z</time></trkpt><trkpt lat="45.4328087" lon="8.1212283"><ele>252.0</ele><time>2026-04-20T07:36:28.49Z</time></trkpt><trkpt lat="45.4327641" lon="8.1215036"><ele>252.0</ele><time>2026-04-20T07:36:29.485Z</time></trkpt><trkpt lat="45.43272" lon="8.1217816"><ele>251.33333333333331</ele><time>2026-04-20T07:36:30.49Z</time></trkpt><trkpt lat="45.4326746" lon="8.1220578"><ele>250.66666666666666</ele><time>2026-04-20T07:36:31.484Z</time></trkpt><trkpt lat="45.4326262" lon="8.1223351"><ele>250.0</ele><time>2026-04-20T07:36:32.484Z</time></trkpt><trkpt lat="45.4325786" lon="8.1226015"><ele>248.33333333333331</ele><time>2026-04-20T07:36:33.477Z</time></trkpt><trkpt lat="45.4325378" lon="8.1228504"><ele>246.66666666666669</ele><time>2026-04-20T07:36:34.48Z</time></trkpt><trkpt lat="45.4325003" lon="8.1231013"><ele>245.0</ele><time>2026-04-20T07:36:35.481Z</time></trkpt><trkpt lat="45.4324631" lon="8.1233509"><ele>244.33333333333334</ele><time>2026-04-20T07:36:36.486Z</time></trkpt><trkpt lat="45.4324231" lon="8.1236125"><ele>243.66666666666669</ele><time>2026-04-20T07:36:37.479Z</time></trkpt><trkpt lat="45.4323781" lon="8.1238797"><ele>243.0</ele><time>2026-04-20T07:36:38.485Z</time></trkpt><trkpt lat="45.4323333" lon="8.1241509"><ele>243.0</ele><time>2026-04-20T07:36:39.481Z</time></trkpt><trkpt lat="45.4322919" lon="8.1244237"><ele>243.0</ele><time>2026-04-20T07:36:40.482Z</time></trkpt><trkpt lat="45.4322461" lon="8.1246899"><ele>243.0</ele><time>2026-04-20T07:36:41.483Z</time></trkpt><trkpt lat="45.432199" lon="8.1249648"><ele>243.0</ele><time>2026-04-20T07:36:42.478Z</time></trkpt><trkpt lat="45.4321521" lon="8.1252398"><ele>243.0</ele><time>2026-04-20T07:36:43.48Z</time></trkpt><trkpt lat="45.432106" lon="8.125511"><ele>243.0</ele><time>2026-04-20T07:36:44.485Z</time></trkpt><trkpt lat="45.4320575" lon="8.1257765"><ele>242.66666666666669</ele><time>2026-04-20T07:36:45.485Z</time></trkpt><trkpt lat="45.4320126" lon="8.12603"><ele>242.33333333333334</ele><time>2026-04-20T07:36:46.481Z</time></trkpt><trkpt lat="45.4319714" lon="8.1262726"><ele>242.0</ele><time>2026-04-20T07:36:47.486Z</time></trkpt><trkpt lat="45.4319317" lon="8.126506"><ele>241.66666666666669</ele><time>2026-04-20T07:36:48.483Z</time></trkpt><trkpt lat="45.4318937" lon="8.1267366"><ele>241.33333333333331</ele><time>2026-04-20T07:36:49.493Z</time></trkpt><trkpt lat="45.4318406" lon="8.1269664"><ele>241.0</ele><time>2026-04-20T07:36:50.48Z</time></trkpt><trkpt lat="45.4317727" lon="8.1271873"><ele>240.33333333333331</ele><time>2026-04-20T07:36:51.476Z</time></trkpt><trkpt lat="45.431695" lon="8.127407"><ele>239.66666666666669</ele><time>2026-04-20T07:36:52.483Z</time></trkpt><trkpt lat="45.4316039" lon="8.1276461"><ele>239.0</ele><time>2026-04-20T07:36:53.455Z</time></trkpt><trkpt lat="45.4314881" lon="8.1279006"><ele>239.0</ele><time>2026-04-20T07:36:54.459Z</time></trkpt><trkpt lat="45.4313452" lon="8.1281721"><ele>239.0</ele><time>2026-04-20T07:36:55.455Z</time></trkpt><trkpt lat="45.4311967" lon="8.1284506"><ele>238.0</ele><time>2026-04-20T07:36:56.459Z</time></trkpt><trkpt lat="45.4310433" lon="8.1287329"><ele>237.0</ele><time>2026-04-20T07:36:57.478Z</time></trkpt><trkpt lat="45.430884" lon="8.1290243"><ele>237.0</ele><time>2026-04-20T07:36:58.48Z</time></trkpt><trkpt lat="45.4307259" lon="8.1293138"><ele>237.0</ele><time>2026-04-20T07:36:59.489Z</time></trkpt><trkpt lat="45.4305658" lon="8.1295896"><ele>237.0</ele><time>2026-04-20T07:37:00.488Z</time></trkpt><trkpt lat="45.4304068" lon="8.1298563"><ele>237.0</ele><time>2026-04-20T07:37:01.484Z</time></trkpt><trkpt lat="45.4302533" lon="8.1301219"><ele>236.5</ele><time>2026-04-20T07:37:02.491Z</time></trkpt><trkpt lat="45.4301053" lon="8.1303822"><ele>236.0</ele><time>2026-04-20T07:37:03.485Z</time></trkpt><trkpt lat="45.4299617" lon="8.1306343"><ele>235.66666666666669</ele><time>2026-04-20T07:37:04.486Z</time></trkpt><trkpt lat="45.4298233" lon="8.1308807"><ele>235.33333333333331</ele><time>2026-04-20T07:37:05.475Z</time></trkpt><trkpt lat="45.4296874" lon="8.1311221"><ele>235.0</ele><time>2026-04-20T07:37:06.482Z</time></trkpt><trkpt lat="45.4295547" lon="8.1313601"><ele>235.0</ele><time>2026-04-20T07:37:07.479Z</time></trkpt><trkpt lat="45.4294234" lon="8.1315917"><ele>235.0</ele><time>2026-04-20T07:37:08.486Z</time></trkpt><trkpt lat="45.4292962" lon="8.1318178"><ele>235.0</ele><time>2026-04-20T07:37:09.484Z</time></trkpt><trkpt lat="45.4291715" lon="8.1320442"><ele>235.0</ele><time>2026-04-20T07:37:10.49Z</time></trkpt><trkpt lat="45.4290474" lon="8.1322694"><ele>235.0</ele><time>2026-04-20T07:37:11.49Z</time></trkpt><trkpt lat="45.4289209" lon="8.1324907"><ele>235.0</ele><time>2026-04-20T07:37:12.493Z</time></trkpt><trkpt lat="45.4287906" lon="8.1327001"><ele>234.66666666666666</ele><time>2026-04-20T07:37:13.478Z</time></trkpt><trkpt lat="45.428642" lon="8.1328844"><ele>234.33333333333331</ele><time>2026-04-20T07:37:14.475Z</time></trkpt><trkpt lat="45.4284789" lon="8.1330466"><ele>234.0</ele><time>2026-04-20T07:37:15.472Z</time></trkpt><trkpt lat="45.4283008" lon="8.1332005"><ele>233.66666666666669</ele><time>2026-04-20T07:37:16.457Z</time></trkpt><trkpt lat="45.4281224" lon="8.1333545"><ele>233.33333333333334</ele><time>2026-04-20T07:37:17.47Z</time></trkpt><trkpt lat="45.4279378" lon="8.1335164"><ele>233.0</ele><time>2026-04-20T07:37:18.471Z</time></trkpt><trkpt lat="45.4277519" lon="8.1336806"><ele>233.0</ele><time>2026-04-20T07:37:19.463Z</time></trkpt><trkpt lat="45.4275694" lon="8.1338387"><ele>233.0</ele><time>2026-04-20T07:37:20.498Z</time></trkpt><trkpt lat="45.4273875" lon="8.133998"><ele>233.0</ele><time>2026-04-20T07:37:21.492Z</time></trkpt><trkpt lat="45.4272052" lon="8.1341563"><ele>232.66666666666669</ele><time>2026-04-20T07:37:22.495Z</time></trkpt><trkpt lat="45.4270242" lon="8.1343124"><ele>232.33333333333331</ele><time>2026-04-20T07:37:23.485Z</time></trkpt><trkpt lat="45.4268448" lon="8.1344676"><ele>232.0</ele><time>2026-04-20T07:37:24.484Z</time></trkpt><trkpt lat="45.4266676" lon="8.1346208"><ele>232.0</ele><time>2026-04-20T07:37:25.478Z</time></trkpt><trkpt lat="45.4264934" lon="8.1347766"><ele>232.0</ele><time>2026-04-20T07:37:26.49Z</time></trkpt><trkpt lat="45.4263223" lon="8.1349312"><ele>232.0</ele><time>2026-04-20T07:37:27.479Z</time></trkpt><trkpt lat="45.4261481" lon="8.1350824"><ele>231.33333333333331</ele><time>2026-04-20T07:37:28.486Z</time></trkpt><trkpt lat="45.4259706" lon="8.1352303"><ele>230.66666666666669</ele><time>2026-04-20T07:37:29.49Z</time></trkpt><trkpt lat="45.4257905" lon="8.13538"><ele>230.0</ele><time>2026-04-20T07:37:30.481Z</time></trkpt><trkpt lat="45.4256094" lon="8.1355307"><ele>230.33333333333334</ele><time>2026-04-20T07:37:31.482Z</time></trkpt><trkpt lat="45.4254304" lon="8.1356848"><ele>230.66666666666669</ele><time>2026-04-20T07:37:32.471Z</time></trkpt><trkpt lat="45.4252543" lon="8.1358378"><ele>231.0</ele><time>2026-04-20T07:37:33.483Z</time></trkpt><trkpt lat="45.4250787" lon="8.1359905"><ele>230.33333333333331</ele><time>2026-04-20T07:37:34.486Z</time></trkpt><trkpt lat="45.4249058" lon="8.1361447"><ele>229.66666666666666</ele><time>2026-04-20T07:37:35.477Z</time></trkpt><trkpt lat="45.424732" lon="8.1362935"><ele>229.0</ele><time>2026-04-20T07:37:36.481Z</time></trkpt><trkpt lat="45.4245576" lon="8.1364429"><ele>228.66666666666666</ele><time>2026-04-20T07:37:37.482Z</time></trkpt><trkpt lat="45.4243829" lon="8.1365902"><ele>228.33333333333331</ele><time>2026-04-20T07:37:38.487Z</time></trkpt><trkpt lat="45.424213" lon="8.1367363"><ele>228.0</ele><time>2026-04-20T07:37:39.479Z</time></trkpt><trkpt lat="45.424042" lon="8.1368831"><ele>228.0</ele><time>2026-04-20T07:37:40.485Z</time></trkpt><trkpt lat="45.4238694" lon="8.1370315"><ele>228.0</ele><time>2026-04-20T07:37:41.491Z</time></trkpt><trkpt lat="45.4236969" lon="8.1371818"><ele>228.0</ele><time>2026-04-20T07:37:42.485Z</time></trkpt><trkpt lat="45.4235267" lon="8.1373367"><ele>228.33333333333331</ele><time>2026-04-20T07:37:43.484Z</time></trkpt><trkpt lat="45.4233507" lon="8.1374902"><ele>228.66666666666666</ele><time>2026-04-20T07:37:44.489Z</time></trkpt><trkpt lat="45.4231733" lon="8.1376383"><ele>229.0</ele><time>2026-04-20T07:37:45.484Z</time></trkpt><trkpt lat="45.4229953" lon="8.1377865"><ele>229.0</ele><time>2026-04-20T07:37:46.489Z</time></trkpt><trkpt lat="45.4228163" lon="8.1379375"><ele>229.0</ele><time>2026-04-20T07:37:47.48Z</time></trkpt><trkpt lat="45.4226414" lon="8.1380926"><ele>229.0</ele><time>2026-04-20T07:37:48.48Z</time></trkpt><trkpt lat="45.4224657" lon="8.1382453"><ele>228.66666666666666</ele><time>2026-04-20T07:37:49.492Z</time></trkpt><trkpt lat="45.4222948" lon="8.1383958"><ele>228.33333333333331</ele><time>2026-04-20T07:37:50.488Z</time></trkpt><trkpt lat="45.422121" lon="8.1385504"><ele>228.0</ele><time>2026-04-20T07:37:51.491Z</time></trkpt><trkpt lat="45.4219482" lon="8.1387045"><ele>228.0</ele><time>2026-04-20T07:37:52.495Z</time></trkpt><trkpt lat="45.4217706" lon="8.1388585"><ele>228.0</ele><time>2026-04-20T07:37:53.482Z</time></trkpt><trkpt lat="45.4215938" lon="8.1390137"><ele>228.0</ele><time>2026-04-20T07:37:54.493Z</time></trkpt><trkpt lat="45.4214168" lon="8.1391682"><ele>227.0</ele><time>2026-04-20T07:37:55.487Z</time></trkpt><trkpt lat="45.4212413" lon="8.1393188"><ele>226.0</ele><time>2026-04-20T07:37:56.495Z</time></trkpt><trkpt lat="45.4210648" lon="8.139471"><ele>225.0</ele><time>2026-04-20T07:37:57.48Z</time></trkpt><trkpt lat="45.4208881" lon="8.1396289"><ele>225.0</ele><time>2026-04-20T07:37:58.495Z</time></trkpt><trkpt lat="45.4207092" lon="8.1397882"><ele>225.0</ele><time>2026-04-20T07:37:59.485Z</time></trkpt><trkpt lat="45.4205307" lon="8.1399461"><ele>225.0</ele><time>2026-04-20T07:38:00.49Z</time></trkpt><trkpt lat="45.4203507" lon="8.1401046"><ele>224.0</ele><time>2026-04-20T07:38:01.485Z</time></trkpt><trkpt lat="45.4201712" lon="8.1402597"><ele>223.0</ele><time>2026-04-20T07:38:02.486Z</time></trkpt><trkpt lat="45.4199957" lon="8.1404144"><ele>222.0</ele><time>2026-04-20T07:38:03.485Z</time></trkpt><trkpt lat="45.4198222" lon="8.1405669"><ele>222.33333333333331</ele><time>2026-04-20T07:38:04.481Z</time></trkpt><trkpt lat="45.4196505" lon="8.1407203"><ele>222.66666666666666</ele><time>2026-04-20T07:38:05.489Z</time></trkpt><trkpt lat="45.4194775" lon="8.1408709"><ele>223.0</ele><time>2026-04-20T07:38:06.479Z</time></trkpt><trkpt lat="45.4193029" lon="8.1410202"><ele>223.0</ele><time>2026-04-20T07:38:07.481Z</time></trkpt><trkpt lat="45.4191295" lon="8.1411687"><ele>223.0</ele><time>2026-04-20T07:38:08.492Z</time></trkpt><trkpt lat="45.418958" lon="8.1413181"><ele>223.0</ele><time>2026-04-20T07:38:09.483Z</time></trkpt><trkpt lat="45.4187856" lon="8.1414664"><ele>222.66666666666666</ele><time>2026-04-20T07:38:10.488Z</time></trkpt><trkpt lat="45.4186122" lon="8.1416136"><ele>222.33333333333331</ele><time>2026-04-20T07:38:11.483Z</time></trkpt><trkpt lat="45.4184361" lon="8.1417586"><ele>222.0</ele><time>2026-04-20T07:38:12.484Z</time></trkpt><trkpt lat="45.418262" lon="8.1419039"><ele>222.0</ele><time>2026-04-20T07:38:13.492Z</time></trkpt><trkpt lat="45.4180884" lon="8.14205"><ele>222.0</ele><time>2026-04-20T07:38:14.483Z</time></trkpt><trkpt lat="45.417916" lon="8.1421998"><ele>222.0</ele><time>2026-04-20T07:38:15.486Z</time></trkpt><trkpt lat="45.4177389" lon="8.1423519"><ele>221.66666666666669</ele><time>2026-04-20T07:38:16.475Z</time></trkpt><trkpt lat="45.4175615" lon="8.1425061"><ele>221.33333333333334</ele><time>2026-04-20T07:38:17.485Z</time></trkpt><trkpt lat="45.4173851" lon="8.1426581"><ele>221.0</ele><time>2026-04-20T07:38:18.486Z</time></trkpt><trkpt lat="45.4172096" lon="8.1428124"><ele>221.0</ele><time>2026-04-20T07:38:19.489Z</time></trkpt><trkpt lat="45.4170326" lon="8.1429688"><ele>221.0</ele><time>2026-04-20T07:38:20.488Z</time></trkpt><trkpt lat="45.416861" lon="8.1431183"><ele>221.0</ele><time>2026-04-20T07:38:21.484Z</time></trkpt><trkpt lat="45.4166915" lon="8.14327"><ele>221.0</ele><time>2026-04-20T07:38:22.493Z</time></trkpt><trkpt lat="45.4165167" lon="8.1434231"><ele>221.0</ele><time>2026-04-20T07:38:23.481Z</time></trkpt><trkpt lat="45.41634" lon="8.1435783"><ele>221.0</ele><time>2026-04-20T07:38:24.486Z</time></trkpt><trkpt lat="45.4161584" lon="8.1437317"><ele>220.66666666666669</ele><time>2026-04-20T07:38:25.486Z</time></trkpt><trkpt lat="45.4159791" lon="8.1438842"><ele>220.33333333333331</ele><time>2026-04-20T07:38:26.488Z</time></trkpt><trkpt lat="45.4158007" lon="8.1440408"><ele>220.0</ele><time>2026-04-20T07:38:27.484Z</time></trkpt><trkpt lat="45.4156196" lon="8.1441979"><ele>220.33333333333331</ele><time>2026-04-20T07:38:28.492Z</time></trkpt><trkpt lat="45.4154405" lon="8.1443533"><ele>220.66666666666669</ele><time>2026-04-20T07:38:29.491Z</time></trkpt><trkpt lat="45.4152599" lon="8.1445039"><ele>221.0</ele><time>2026-04-20T07:38:30.487Z</time></trkpt><trkpt lat="45.4150749" lon="8.1446481"><ele>221.0</ele><time>2026-04-20T07:38:31.489Z</time></trkpt><trkpt lat="45.4148867" lon="8.1447858"><ele>221.0</ele><time>2026-04-20T07:38:32.483Z</time></trkpt><trkpt lat="45.4146974" lon="8.1449142"><ele>221.0</ele><time>2026-04-20T07:38:33.49Z</time></trkpt><trkpt lat="45.4145031" lon="8.1450364"><ele>220.66666666666669</ele><time>2026-04-20T07:38:34.485Z</time></trkpt><trkpt lat="45.4143061" lon="8.1451551"><ele>220.33333333333331</ele><time>2026-04-20T07:38:35.491Z</time></trkpt><trkpt lat="45.414106" lon="8.1452721"><ele>220.0</ele><time>2026-04-20T07:38:36.483Z</time></trkpt><trkpt lat="45.4139056" lon="8.1453931"><ele>219.66666666666666</ele><time>2026-04-20T07:38:37.487Z</time></trkpt><trkpt lat="45.4137061" lon="8.1455147"><ele>219.33333333333331</ele><time>2026-04-20T07:38:38.487Z</time></trkpt><trkpt lat="45.4135102" lon="8.1456315"><ele>219.0</ele><time>2026-04-20T07:38:39.478Z</time></trkpt><trkpt lat="45.4133137" lon="8.1457479"><ele>218.66666666666669</ele><time>2026-04-20T07:38:40.483Z</time></trkpt><trkpt lat="45.4131199" lon="8.1458628"><ele>218.33333333333334</ele><time>2026-04-20T07:38:41.481Z</time></trkpt><trkpt lat="45.4129283" lon="8.1459768"><ele>218.0</ele><time>2026-04-20T07:38:42.489Z</time></trkpt><trkpt lat="45.4127381" lon="8.1460919"><ele>218.0</ele><time>2026-04-20T07:38:43.485Z</time></trkpt><trkpt lat="45.4125496" lon="8.1462078"><ele>218.0</ele><time>2026-04-20T07:38:44.487Z</time></trkpt><trkpt lat="45.4123635" lon="8.1463206"><ele>218.0</ele><time>2026-04-20T07:38:45.483Z</time></trkpt><trkpt lat="45.4121805" lon="8.1464315"><ele>218.0</ele><time>2026-04-20T07:38:46.486Z</time></trkpt><trkpt lat="45.4120031" lon="8.1465384"><ele>218.0</ele><time>2026-04-20T07:38:47.489Z</time></trkpt><trkpt lat="45.4118262" lon="8.1466422"><ele>218.0</ele><time>2026-04-20T07:38:48.484Z</time></trkpt><trkpt lat="45.4116516" lon="8.1467474"><ele>218.0</ele><time>2026-04-20T07:38:49.491Z</time></trkpt><trkpt lat="45.4114806" lon="8.1468722"><ele>218.0</ele><time>2026-04-20T07:38:50.484Z</time></trkpt><trkpt lat="45.4113224" lon="8.1470218"><ele>218.0</ele><time>2026-04-20T07:38:51.461Z</time></trkpt><trkpt lat="45.411167" lon="8.147194"><ele>218.0</ele><time>2026-04-20T07:38:52.483Z</time></trkpt><trkpt lat="45.41101" lon="8.1473809"><ele>218.0</ele><time>2026-04-20T07:38:53.463Z</time></trkpt><trkpt lat="45.410849" lon="8.1475781"><ele>218.0</ele><time>2026-04-20T07:38:54.466Z</time></trkpt><trkpt lat="45.4106875" lon="8.1477774"><ele>218.0</ele><time>2026-04-20T07:38:55.461Z</time></trkpt><trkpt lat="45.4105272" lon="8.1479754"><ele>218.0</ele><time>2026-04-20T07:38:56.459Z</time></trkpt><trkpt lat="45.4103672" lon="8.14818"><ele>218.0</ele><time>2026-04-20T07:38:57.484Z</time></trkpt><trkpt lat="45.4102086" lon="8.1483819"><ele>217.0</ele><time>2026-04-20T07:38:58.486Z</time></trkpt><trkpt lat="45.4100468" lon="8.1485844"><ele>216.0</ele><time>2026-04-20T07:38:59.487Z</time></trkpt><trkpt lat="45.4098892" lon="8.148783"><ele>215.0</ele><time>2026-04-20T07:39:00.487Z</time></trkpt><trkpt lat="45.4097292" lon="8.1489846"><ele>215.33333333333334</ele><time>2026-04-20T07:39:01.491Z</time></trkpt><trkpt lat="45.4095683" lon="8.149181"><ele>215.66666666666669</ele><time>2026-04-20T07:39:02.493Z</time></trkpt><trkpt lat="45.4094094" lon="8.1493759"><ele>216.0</ele><time>2026-04-20T07:39:03.488Z</time></trkpt><trkpt lat="45.4092511" lon="8.1495752"><ele>216.0</ele><time>2026-04-20T07:39:04.487Z</time></trkpt><trkpt lat="45.4090956" lon="8.1497712"><ele>216.0</ele><time>2026-04-20T07:39:05.481Z</time></trkpt><trkpt lat="45.4089423" lon="8.1499645"><ele>216.0</ele><time>2026-04-20T07:39:06.484Z</time></trkpt><trkpt lat="45.4087888" lon="8.1501546"><ele>216.33333333333331</ele><time>2026-04-20T07:39:07.484Z</time></trkpt><trkpt lat="45.4086406" lon="8.1503407"><ele>216.66666666666666</ele><time>2026-04-20T07:39:08.481Z</time></trkpt><trkpt lat="45.4084989" lon="8.15052"><ele>217.0</ele><time>2026-04-20T07:39:09.481Z</time></trkpt><trkpt lat="45.4083627" lon="8.1506952"><ele>216.33333333333331</ele><time>2026-04-20T07:39:10.487Z</time></trkpt><trkpt lat="45.4082304" lon="8.1508724"><ele>215.66666666666669</ele><time>2026-04-20T07:39:11.482Z</time></trkpt><trkpt lat="45.4080957" lon="8.1510444"><ele>215.0</ele><time>2026-04-20T07:39:12.48Z</time></trkpt><trkpt lat="45.4079557" lon="8.1512063"><ele>214.33333333333334</ele><time>2026-04-20T07:39:13.48Z</time></trkpt><trkpt lat="45.407805" lon="8.1513399"><ele>213.66666666666669</ele><time>2026-04-20T07:39:14.47Z</time></trkpt><trkpt lat="45.4076427" lon="8.1514414"><ele>213.0</ele><time>2026-04-20T07:39:15.477Z</time></trkpt><trkpt lat="45.4074658" lon="8.1515199"><ele>213.0</ele><time>2026-04-20T07:39:16.448Z</time></trkpt><trkpt lat="45.407285" lon="8.1515844"><ele>213.0</ele><time>2026-04-20T07:39:17.456Z</time></trkpt><trkpt lat="45.4071113" lon="8.1516467"><ele>213.0</ele><time>2026-04-20T07:39:18.455Z</time></trkpt><trkpt lat="45.4069376" lon="8.1517037"><ele>212.66666666666669</ele><time>2026-04-20T07:39:19.464Z</time></trkpt><trkpt lat="45.4067764" lon="8.1517577"><ele>212.33333333333334</ele><time>2026-04-20T07:39:20.48Z</time></trkpt><trkpt lat="45.4066315" lon="8.1518113"><ele>212.0</ele><time>2026-04-20T07:39:21.477Z</time></trkpt><trkpt lat="45.4064999" lon="8.1518569"><ele>212.0</ele><time>2026-04-20T07:39:22.481Z</time></trkpt><trkpt lat="45.406379" lon="8.1518937"><ele>212.0</ele><time>2026-04-20T07:39:23.479Z</time></trkpt><trkpt lat="45.4061731" lon="8.151882"><ele>212.0</ele><time>2026-04-20T07:39:25.391Z</time></trkpt><trkpt lat="45.4060778" lon="8.1518369"><ele>212.0</ele><time>2026-04-20T07:39:26.381Z</time></trkpt><trkpt lat="45.4059907" lon="8.1518346"><ele>212.0</ele><time>2026-04-20T07:39:27.379Z</time></trkpt><trkpt lat="45.4059252" lon="8.1519271"><ele>212.0</ele><time>2026-04-20T07:39:28.376Z</time></trkpt><trkpt lat="45.4058377" lon="8.1520283"><ele>212.0</ele><time>2026-04-20T07:39:29.369Z</time></trkpt><trkpt lat="45.4057459" lon="8.1521217"><ele>212.0</ele><time>2026-04-20T07:39:30.368Z</time></trkpt><trkpt lat="45.4056265" lon="8.1521809"><ele>212.0</ele><time>2026-04-20T07:39:31.376Z</time></trkpt><trkpt lat="45.405489" lon="8.1522138"><ele>212.0</ele><time>2026-04-20T07:39:32.373Z</time></trkpt><trkpt lat="45.4053284" lon="8.1522469"><ele>212.0</ele><time>2026-04-20T07:39:33.367Z</time></trkpt><trkpt lat="45.4051475" lon="8.1522979"><ele>212.0</ele><time>2026-04-20T07:39:34.382Z</time></trkpt><trkpt lat="45.4049825" lon="8.1523485"><ele>212.0</ele><time>2026-04-20T07:39:35.382Z</time></trkpt><trkpt lat="45.4048142" lon="8.1524148"><ele>212.0</ele><time>2026-04-20T07:39:36.382Z</time></trkpt><trkpt lat="45.4046401" lon="8.1524731"><ele>212.0</ele><time>2026-04-20T07:39:37.392Z</time></trkpt><trkpt lat="45.4044553" lon="8.1525419"><ele>211.66666666666669</ele><time>2026-04-20T07:39:38.379Z</time></trkpt><trkpt lat="45.4042471" lon="8.1526242"><ele>211.33333333333331</ele><time>2026-04-20T07:39:39.379Z</time></trkpt><trkpt lat="45.4040563" lon="8.1526989"><ele>211.0</ele><time>2026-04-20T07:39:40.381Z</time></trkpt><trkpt lat="45.4038608" lon="8.1527614"><ele>211.0</ele><time>2026-04-20T07:39:41.377Z</time></trkpt><trkpt lat="45.4036664" lon="8.1528305"><ele>211.0</ele><time>2026-04-20T07:39:42.391Z</time></trkpt><trkpt lat="45.4034574" lon="8.1528924"><ele>211.0</ele><time>2026-04-20T07:39:43.382Z</time></trkpt><trkpt lat="45.4032514" lon="8.1529703"><ele>211.0</ele><time>2026-04-20T07:39:44.384Z</time></trkpt><trkpt lat="45.4030408" lon="8.1530348"><ele>211.0</ele><time>2026-04-20T07:39:45.381Z</time></trkpt><trkpt lat="45.4028356" lon="8.1531053"><ele>211.0</ele><time>2026-04-20T07:39:46.386Z</time></trkpt><trkpt lat="45.4026346" lon="8.1531657"><ele>210.33333333333331</ele><time>2026-04-20T07:39:47.384Z</time></trkpt><trkpt lat="45.4024376" lon="8.1532363"><ele>209.66666666666669</ele><time>2026-04-20T07:39:48.379Z</time></trkpt><trkpt lat="45.402236" lon="8.1533085"><ele>209.0</ele><time>2026-04-20T07:39:49.378Z</time></trkpt><trkpt lat="45.40205" lon="8.1533736"><ele>208.0</ele><time>2026-04-20T07:39:50.379Z</time></trkpt><trkpt lat="45.40185" lon="8.153439"><ele>207.0</ele><time>2026-04-20T07:39:51.38Z</time></trkpt><trkpt lat="45.4016494" lon="8.1535164"><ele>206.0</ele><time>2026-04-20T07:39:52.382Z</time></trkpt><trkpt lat="45.4014612" lon="8.1535739"><ele>205.0</ele><time>2026-04-20T07:39:53.38Z</time></trkpt><trkpt lat="45.4012744" lon="8.153643"><ele>204.0</ele><time>2026-04-20T07:39:54.381Z</time></trkpt><trkpt lat="45.4010945" lon="8.1537169"><ele>203.0</ele><time>2026-04-20T07:39:55.384Z</time></trkpt><trkpt lat="45.400891" lon="8.1537901"><ele>203.0</ele><time>2026-04-20T07:39:56.382Z</time></trkpt><trkpt lat="45.4007076" lon="8.1538384"><ele>203.0</ele><time>2026-04-20T07:39:57.373Z</time></trkpt><trkpt lat="45.4005204" lon="8.1538978"><ele>203.0</ele><time>2026-04-20T07:39:58.377Z</time></trkpt><trkpt lat="45.4003242" lon="8.1539675"><ele>202.66666666666669</ele><time>2026-04-20T07:39:59.383Z</time></trkpt><trkpt lat="45.400146" lon="8.1540144"><ele>202.33333333333331</ele><time>2026-04-20T07:40:00.375Z</time></trkpt><trkpt lat="45.3999748" lon="8.154082"><ele>202.0</ele><time>2026-04-20T07:40:01.375Z</time></trkpt><trkpt lat="45.3998056" lon="8.1541324"><ele>201.66666666666666</ele><time>2026-04-20T07:40:02.377Z</time></trkpt><trkpt lat="45.3996316" lon="8.1541932"><ele>201.33333333333331</ele><time>2026-04-20T07:40:03.378Z</time></trkpt><trkpt lat="45.3994495" lon="8.1542695"><ele>201.0</ele><time>2026-04-20T07:40:04.381Z</time></trkpt><trkpt lat="45.3992901" lon="8.1543418"><ele>201.0</ele><time>2026-04-20T07:40:05.381Z</time></trkpt><trkpt lat="45.399124" lon="8.1544259"><ele>201.0</ele><time>2026-04-20T07:40:06.37Z</time></trkpt><trkpt lat="45.3989576" lon="8.1545674"><ele>201.0</ele><time>2026-04-20T07:40:07.385Z</time></trkpt><trkpt lat="45.3988019" lon="8.1547187"><ele>200.33333333333331</ele><time>2026-04-20T07:40:08.372Z</time></trkpt><trkpt lat="45.3986609" lon="8.1549154"><ele>199.66666666666666</ele><time>2026-04-20T07:40:09.357Z</time></trkpt><trkpt lat="45.3985358" lon="8.1551032"><ele>199.0</ele><time>2026-04-20T07:40:10.37Z</time></trkpt><trkpt lat="45.398402" lon="8.1553281"><ele>199.0</ele><time>2026-04-20T07:40:11.381Z</time></trkpt><trkpt lat="45.3982897" lon="8.1555466"><ele>199.0</ele><time>2026-04-20T07:40:12.372Z</time></trkpt><trkpt lat="45.3981853" lon="8.155769"><ele>199.0</ele><time>2026-04-20T07:40:13.378Z</time></trkpt><trkpt lat="45.39804" lon="8.1559539"><ele>199.0</ele><time>2026-04-20T07:40:14.377Z</time></trkpt><trkpt lat="45.3978969" lon="8.1561643"><ele>199.0</ele><time>2026-04-20T07:40:15.353Z</time></trkpt><trkpt lat="45.3977946" lon="8.1563805"><ele>199.0</ele><time>2026-04-20T07:40:16.362Z</time></trkpt><trkpt lat="45.3976946" lon="8.1565677"><ele>199.0</ele><time>2026-04-20T07:40:17.364Z</time></trkpt><trkpt lat="45.3975826" lon="8.1567481"><ele>199.0</ele><time>2026-04-20T07:40:18.357Z</time></trkpt><trkpt lat="45.3974455" lon="8.1569246"><ele>199.0</ele><time>2026-04-20T07:40:19.357Z</time></trkpt><trkpt lat="45.3972715" lon="8.1571126"><ele>199.33333333333331</ele><time>2026-04-20T07:40:20.358Z</time></trkpt><trkpt lat="45.397098" lon="8.1573045"><ele>199.66666666666669</ele><time>2026-04-20T07:40:21.367Z</time></trkpt><trkpt lat="45.3969274" lon="8.1574874"><ele>200.0</ele><time>2026-04-20T07:40:22.357Z</time></trkpt><trkpt lat="45.3967717" lon="8.1576665"><ele>200.0</ele><time>2026-04-20T07:40:23.368Z</time></trkpt><trkpt lat="45.3966123" lon="8.1578327"><ele>200.0</ele><time>2026-04-20T07:40:24.358Z</time></trkpt><trkpt lat="45.3964642" lon="8.1580015"><ele>200.0</ele><time>2026-04-20T07:40:25.361Z</time></trkpt><trkpt lat="45.3962992" lon="8.1581793"><ele>199.33333333333334</ele><time>2026-04-20T07:40:26.36Z</time></trkpt><trkpt lat="45.3961358" lon="8.1583409"><ele>198.66666666666669</ele><time>2026-04-20T07:40:27.355Z</time></trkpt><trkpt lat="45.3959741" lon="8.1584962"><ele>198.0</ele><time>2026-04-20T07:40:28.353Z</time></trkpt><trkpt lat="45.3958347" lon="8.1586662"><ele>198.0</ele><time>2026-04-20T07:40:29.356Z</time></trkpt><trkpt lat="45.3957091" lon="8.1588605"><ele>198.0</ele><time>2026-04-20T07:40:30.356Z</time></trkpt><trkpt lat="45.3955842" lon="8.1590374"><ele>198.0</ele><time>2026-04-20T07:40:31.364Z</time></trkpt><trkpt lat="45.395472" lon="8.1592367"><ele>196.66666666666669</ele><time>2026-04-20T07:40:32.359Z</time></trkpt><trkpt lat="45.3953836" lon="8.1594238"><ele>195.33333333333334</ele><time>2026-04-20T07:40:33.361Z</time></trkpt><trkpt lat="45.3952747" lon="8.1596133"><ele>194.0</ele><time>2026-04-20T07:40:34.369Z</time></trkpt><trkpt lat="45.395167" lon="8.1598104"><ele>194.66666666666669</ele><time>2026-04-20T07:40:35.363Z</time></trkpt><trkpt lat="45.3950736" lon="8.1600227"><ele>195.33333333333331</ele><time>2026-04-20T07:40:36.367Z</time></trkpt><trkpt lat="45.3949706" lon="8.1602394"><ele>196.0</ele><time>2026-04-20T07:40:37.365Z</time></trkpt><trkpt lat="45.3948875" lon="8.1604499"><ele>196.0</ele><time>2026-04-20T07:40:38.372Z</time></trkpt><trkpt lat="45.3947844" lon="8.1606568"><ele>196.0</ele><time>2026-04-20T07:40:39.372Z</time></trkpt><trkpt lat="45.3946958" lon="8.1608658"><ele>196.0</ele><time>2026-04-20T07:40:40.384Z</time></trkpt><trkpt lat="45.3945898" lon="8.1610722"><ele>195.33333333333331</ele><time>2026-04-20T07:40:41.381Z</time></trkpt><trkpt lat="45.3944817" lon="8.1612853"><ele>194.66666666666669</ele><time>2026-04-20T07:40:42.388Z</time></trkpt><trkpt lat="45.3943838" lon="8.1614819"><ele>194.0</ele><time>2026-04-20T07:40:43.381Z</time></trkpt><trkpt lat="45.3942893" lon="8.1616457"><ele>194.0</ele><time>2026-04-20T07:40:44.38Z</time></trkpt><trkpt lat="45.3941733" lon="8.1617773"><ele>194.0</ele><time>2026-04-20T07:40:45.376Z</time></trkpt><trkpt lat="45.3940913" lon="8.1618753"><ele>194.0</ele><time>2026-04-20T07:40:46.369Z</time></trkpt><trkpt lat="45.3940201" lon="8.1619387"><ele>194.0</ele><time>2026-04-20T07:40:47.371Z</time></trkpt><trkpt lat="45.393892" lon="8.1620176"><ele>193.75</ele><time>2026-04-20T07:40:49.376Z</time></trkpt><trkpt lat="45.3937918" lon="8.1620807"><ele>193.5</ele><time>2026-04-20T07:40:50.379Z</time></trkpt><trkpt lat="45.393653" lon="8.1621017"><ele>193.25</ele><time>2026-04-20T07:40:51.37Z</time></trkpt><trkpt lat="45.3934715" lon="8.1621185"><ele>193.0</ele><time>2026-04-20T07:40:52.375Z</time></trkpt><trkpt lat="45.393264" lon="8.1621626"><ele>193.0</ele><time>2026-04-20T07:40:53.372Z</time></trkpt><trkpt lat="45.3930545" lon="8.1621875"><ele>193.0</ele><time>2026-04-20T07:40:54.372Z</time></trkpt><trkpt lat="45.3928257" lon="8.1622148"><ele>193.0</ele><time>2026-04-20T07:40:55.369Z</time></trkpt><trkpt lat="45.3926145" lon="8.1622517"><ele>192.33333333333331</ele><time>2026-04-20T07:40:56.364Z</time></trkpt><trkpt lat="45.3924108" lon="8.1622921"><ele>191.66666666666666</ele><time>2026-04-20T07:40:57.373Z</time></trkpt><trkpt lat="45.3921994" lon="8.1623222"><ele>191.0</ele><time>2026-04-20T07:40:58.375Z</time></trkpt><trkpt lat="45.3919935" lon="8.162346"><ele>190.66666666666666</ele><time>2026-04-20T07:40:59.373Z</time></trkpt><trkpt lat="45.3917777" lon="8.1623754"><ele>190.33333333333334</ele><time>2026-04-20T07:41:00.379Z</time></trkpt><trkpt lat="45.3915715" lon="8.1624152"><ele>190.0</ele><time>2026-04-20T07:41:01.388Z</time></trkpt><trkpt lat="45.3913696" lon="8.16246"><ele>189.66666666666669</ele><time>2026-04-20T07:41:02.38Z</time></trkpt><trkpt lat="45.3911618" lon="8.1624995"><ele>189.33333333333334</ele><time>2026-04-20T07:41:03.376Z</time></trkpt><trkpt lat="45.390955" lon="8.1625354"><ele>189.0</ele><time>2026-04-20T07:41:04.386Z</time></trkpt><trkpt lat="45.3907579" lon="8.162563"><ele>189.0</ele><time>2026-04-20T07:41:05.383Z</time></trkpt><trkpt lat="45.390564" lon="8.1625908"><ele>189.0</ele><time>2026-04-20T07:41:06.379Z</time></trkpt><trkpt lat="45.3903753" lon="8.1626137"><ele>189.0</ele><time>2026-04-20T07:41:07.376Z</time></trkpt><trkpt lat="45.3901918" lon="8.1626458"><ele>188.66666666666666</ele><time>2026-04-20T07:41:08.377Z</time></trkpt><trkpt lat="45.3899999" lon="8.1626646"><ele>188.33333333333331</ele><time>2026-04-20T07:41:09.384Z</time></trkpt><trkpt lat="45.3898058" lon="8.1626983"><ele>188.0</ele><time>2026-04-20T07:41:10.384Z</time></trkpt><trkpt lat="45.389617" lon="8.1627441"><ele>188.0</ele><time>2026-04-20T07:41:11.388Z</time></trkpt><trkpt lat="45.3894306" lon="8.1627909"><ele>188.0</ele><time>2026-04-20T07:41:12.379Z</time></trkpt><trkpt lat="45.3892443" lon="8.1628363"><ele>188.0</ele><time>2026-04-20T07:41:13.386Z</time></trkpt><trkpt lat="45.389055" lon="8.162873"><ele>188.0</ele><time>2026-04-20T07:41:14.383Z</time></trkpt><trkpt lat="45.388873" lon="8.1629029"><ele>188.0</ele><time>2026-04-20T07:41:15.388Z</time></trkpt><trkpt lat="45.3886908" lon="8.1629286"><ele>188.0</ele><time>2026-04-20T07:41:16.391Z</time></trkpt><trkpt lat="45.3885053" lon="8.1629565"><ele>188.0</ele><time>2026-04-20T07:41:17.381Z</time></trkpt><trkpt lat="45.3883259" lon="8.1629807"><ele>188.0</ele><time>2026-04-20T07:41:18.379Z</time></trkpt><trkpt lat="45.3881392" lon="8.1630166"><ele>188.0</ele><time>2026-04-20T07:41:19.39Z</time></trkpt><trkpt lat="45.3879662" lon="8.1630821"><ele>188.0</ele><time>2026-04-20T07:41:20.376Z</time></trkpt><trkpt lat="45.3877848" lon="8.1631622"><ele>188.0</ele><time>2026-04-20T07:41:21.369Z</time></trkpt><trkpt lat="45.3876004" lon="8.163267"><ele>188.0</ele><time>2026-04-20T07:41:22.373Z</time></trkpt><trkpt lat="45.387415" lon="8.163387"><ele>188.0</ele><time>2026-04-20T07:41:23.378Z</time></trkpt><trkpt lat="45.3872529" lon="8.1635445"><ele>188.0</ele><time>2026-04-20T07:41:24.376Z</time></trkpt><trkpt lat="45.3870717" lon="8.1637027"><ele>188.0</ele><time>2026-04-20T07:41:25.384Z</time></trkpt><trkpt lat="45.3868892" lon="8.1638466"><ele>188.0</ele><time>2026-04-20T07:41:26.379Z</time></trkpt><trkpt lat="45.3867138" lon="8.163986"><ele>188.0</ele><time>2026-04-20T07:41:27.381Z</time></trkpt><trkpt lat="45.3865426" lon="8.1641445"><ele>188.0</ele><time>2026-04-20T07:41:28.38Z</time></trkpt><trkpt lat="45.3863669" lon="8.1642854"><ele>188.66666666666666</ele><time>2026-04-20T07:41:29.383Z</time></trkpt><trkpt lat="45.3861963" lon="8.1644338"><ele>189.33333333333334</ele><time>2026-04-20T07:41:30.377Z</time></trkpt><trkpt lat="45.3860122" lon="8.164584"><ele>190.0</ele><time>2026-04-20T07:41:31.379Z</time></trkpt><trkpt lat="45.3858387" lon="8.1647469"><ele>189.66666666666669</ele><time>2026-04-20T07:41:32.381Z</time></trkpt><trkpt lat="45.3856611" lon="8.1648982"><ele>189.33333333333334</ele><time>2026-04-20T07:41:33.381Z</time></trkpt><trkpt lat="45.3854803" lon="8.1650675"><ele>189.0</ele><time>2026-04-20T07:41:34.378Z</time></trkpt><trkpt lat="45.3853007" lon="8.1652092"><ele>188.66666666666666</ele><time>2026-04-20T07:41:35.389Z</time></trkpt><trkpt lat="45.3851234" lon="8.16536"><ele>188.33333333333331</ele><time>2026-04-20T07:41:36.38Z</time></trkpt><trkpt lat="45.3849419" lon="8.1655129"><ele>188.0</ele><time>2026-04-20T07:41:37.386Z</time></trkpt><trkpt lat="45.3847622" lon="8.1656525"><ele>188.0</ele><time>2026-04-20T07:41:38.38Z</time></trkpt><trkpt lat="45.3845855" lon="8.1657958"><ele>188.0</ele><time>2026-04-20T07:41:39.382Z</time></trkpt><trkpt lat="45.3844164" lon="8.1659458"><ele>188.0</ele><time>2026-04-20T07:41:40.382Z</time></trkpt><trkpt lat="45.3842294" lon="8.1660722"><ele>188.0</ele><time>2026-04-20T07:41:41.38Z</time></trkpt><trkpt lat="45.3840513" lon="8.1661971"><ele>188.0</ele><time>2026-04-20T07:41:42.386Z</time></trkpt><trkpt lat="45.3838711" lon="8.1663193"><ele>188.0</ele><time>2026-04-20T07:41:43.381Z</time></trkpt><trkpt lat="45.3836876" lon="8.1664503"><ele>187.33333333333331</ele><time>2026-04-20T07:41:44.38Z</time></trkpt><trkpt lat="45.3835085" lon="8.1665841"><ele>186.66666666666666</ele><time>2026-04-20T07:41:45.38Z</time></trkpt><trkpt lat="45.3833267" lon="8.166716"><ele>186.0</ele><time>2026-04-20T07:41:46.384Z</time></trkpt><trkpt lat="45.3831496" lon="8.1668724"><ele>186.33333333333334</ele><time>2026-04-20T07:41:47.385Z</time></trkpt><trkpt lat="45.3829711" lon="8.1670182"><ele>186.66666666666669</ele><time>2026-04-20T07:41:48.383Z</time></trkpt><trkpt lat="45.3827939" lon="8.1671377"><ele>187.0</ele><time>2026-04-20T07:41:49.388Z</time></trkpt><trkpt lat="45.3826241" lon="8.1672794"><ele>186.66666666666669</ele><time>2026-04-20T07:41:50.382Z</time></trkpt><trkpt lat="45.3824519" lon="8.1674191"><ele>186.33333333333334</ele><time>2026-04-20T07:41:51.378Z</time></trkpt><trkpt lat="45.3822672" lon="8.1675622"><ele>186.0</ele><time>2026-04-20T07:41:52.387Z</time></trkpt><trkpt lat="45.3820981" lon="8.1677011"><ele>185.66666666666666</ele><time>2026-04-20T07:41:53.377Z</time></trkpt><trkpt lat="45.381924" lon="8.1678504"><ele>185.33333333333331</ele><time>2026-04-20T07:41:54.385Z</time></trkpt><trkpt lat="45.381754" lon="8.168012"><ele>185.0</ele><time>2026-04-20T07:41:55.381Z</time></trkpt><trkpt lat="45.3815876" lon="8.1681771"><ele>185.33333333333331</ele><time>2026-04-20T07:41:56.379Z</time></trkpt><trkpt lat="45.3814183" lon="8.1683429"><ele>185.66666666666666</ele><time>2026-04-20T07:41:57.382Z</time></trkpt><trkpt lat="45.3812386" lon="8.1684981"><ele>186.0</ele><time>2026-04-20T07:41:58.384Z</time></trkpt><trkpt lat="45.3810623" lon="8.1686554"><ele>185.33333333333334</ele><time>2026-04-20T07:41:59.381Z</time></trkpt><trkpt lat="45.3808969" lon="8.1688157"><ele>184.66666666666669</ele><time>2026-04-20T07:42:00.385Z</time></trkpt><trkpt lat="45.3807292" lon="8.1689817"><ele>184.0</ele><time>2026-04-20T07:42:01.384Z</time></trkpt><trkpt lat="45.3805479" lon="8.1691478"><ele>185.0</ele><time>2026-04-20T07:42:02.381Z</time></trkpt><trkpt lat="45.3803812" lon="8.1692903"><ele>186.0</ele><time>2026-04-20T07:42:03.386Z</time></trkpt><trkpt lat="45.3802321" lon="8.1694625"><ele>187.0</ele><time>2026-04-20T07:42:04.384Z</time></trkpt><trkpt lat="45.3800553" lon="8.1696295"><ele>187.0</ele><time>2026-04-20T07:42:05.386Z</time></trkpt><trkpt lat="45.3798963" lon="8.169794"><ele>187.0</ele><time>2026-04-20T07:42:06.39Z</time></trkpt><trkpt lat="45.3797351" lon="8.1699415"><ele>187.0</ele><time>2026-04-20T07:42:07.383Z</time></trkpt><trkpt lat="45.3795527" lon="8.1700924"><ele>186.33333333333334</ele><time>2026-04-20T07:42:08.386Z</time></trkpt><trkpt lat="45.3793641" lon="8.1702304"><ele>185.66666666666666</ele><time>2026-04-20T07:42:09.383Z</time></trkpt><trkpt lat="45.379181" lon="8.1703698"><ele>185.0</ele><time>2026-04-20T07:42:10.383Z</time></trkpt><trkpt lat="45.3789999" lon="8.1704797"><ele>185.0</ele><time>2026-04-20T07:42:11.389Z</time></trkpt><trkpt lat="45.3788045" lon="8.170583"><ele>185.0</ele><time>2026-04-20T07:42:12.385Z</time></trkpt><trkpt lat="45.3786103" lon="8.1706804"><ele>185.0</ele><time>2026-04-20T07:42:13.386Z</time></trkpt><trkpt lat="45.3784118" lon="8.170768"><ele>185.0</ele><time>2026-04-20T07:42:14.397Z</time></trkpt><trkpt lat="45.3782088" lon="8.1708397"><ele>185.0</ele><time>2026-04-20T07:42:15.392Z</time></trkpt><trkpt lat="45.3780209" lon="8.1709093"><ele>185.0</ele><time>2026-04-20T07:42:16.394Z</time></trkpt><trkpt lat="45.3778236" lon="8.1709773"><ele>184.33333333333331</ele><time>2026-04-20T07:42:17.391Z</time></trkpt><trkpt lat="45.3776374" lon="8.1710242"><ele>183.66666666666666</ele><time>2026-04-20T07:42:18.391Z</time></trkpt><trkpt lat="45.3774394" lon="8.1710585"><ele>183.0</ele><time>2026-04-20T07:42:19.399Z</time></trkpt><trkpt lat="45.3772381" lon="8.1711155"><ele>183.0</ele><time>2026-04-20T07:42:20.385Z</time></trkpt><trkpt lat="45.3770308" lon="8.1711511"><ele>183.0</ele><time>2026-04-20T07:42:21.383Z</time></trkpt><trkpt lat="45.3768379" lon="8.1711841"><ele>183.0</ele><time>2026-04-20T07:42:22.379Z</time></trkpt><trkpt lat="45.3766377" lon="8.1712116"><ele>183.0</ele><time>2026-04-20T07:42:23.396Z</time></trkpt><trkpt lat="45.3764354" lon="8.1712628"><ele>183.0</ele><time>2026-04-20T07:42:24.384Z</time></trkpt><trkpt lat="45.3762494" lon="8.1713001"><ele>183.0</ele><time>2026-04-20T07:42:25.39Z</time></trkpt><trkpt lat="45.3760712" lon="8.1713351"><ele>182.66666666666666</ele><time>2026-04-20T07:42:26.387Z</time></trkpt><trkpt lat="45.3759101" lon="8.1713599"><ele>182.33333333333331</ele><time>2026-04-20T07:42:27.389Z</time></trkpt><trkpt lat="45.3757495" lon="8.1713808"><ele>182.0</ele><time>2026-04-20T07:42:28.384Z</time></trkpt><trkpt lat="45.3755999" lon="8.1714052"><ele>182.25</ele><time>2026-04-20T07:42:29.389Z</time></trkpt><trkpt lat="45.3754546" lon="8.1714279"><ele>182.5</ele><time>2026-04-20T07:42:30.385Z</time></trkpt><trkpt lat="45.3753213" lon="8.1714494"><ele>182.75</ele><time>2026-04-20T07:42:31.388Z</time></trkpt><trkpt lat="45.3751863" lon="8.1714818"><ele>183.0</ele><time>2026-04-20T07:42:32.382Z</time></trkpt><trkpt lat="45.3750476" lon="8.1715027"><ele>183.25</ele><time>2026-04-20T07:42:33.384Z</time></trkpt><trkpt lat="45.3749154" lon="8.1715368"><ele>183.5</ele><time>2026-04-20T07:42:34.378Z</time></trkpt><trkpt lat="45.3747737" lon="8.1715999"><ele>183.75</ele><time>2026-04-20T07:42:35.379Z</time></trkpt><trkpt lat="45.3746293" lon="8.1716441"><ele>184.0</ele><time>2026-04-20T07:42:36.387Z</time></trkpt><trkpt lat="45.3744921" lon="8.1716902"><ele>184.0</ele><time>2026-04-20T07:42:37.384Z</time></trkpt><trkpt lat="45.3743368" lon="8.1717444"><ele>184.0</ele><time>2026-04-20T07:42:38.385Z</time></trkpt><trkpt lat="45.3742061" lon="8.1717825"><ele>184.0</ele><time>2026-04-20T07:42:39.384Z</time></trkpt><trkpt lat="45.3740706" lon="8.171842"><ele>184.0</ele><time>2026-04-20T07:42:40.385Z</time></trkpt><trkpt lat="45.3739215" lon="8.1718941"><ele>184.5</ele><time>2026-04-20T07:42:41.385Z</time></trkpt><trkpt lat="45.3737872" lon="8.1719278"><ele>185.0</ele><time>2026-04-20T07:42:42.388Z</time></trkpt><trkpt lat="45.3736495" lon="8.1719958"><ele>185.5</ele><time>2026-04-20T07:42:43.379Z</time></trkpt><trkpt lat="45.3735067" lon="8.1720591"><ele>186.0</ele><time>2026-04-20T07:42:44.38Z</time></trkpt><trkpt lat="45.3733779" lon="8.1721057"><ele>186.0</ele><time>2026-04-20T07:42:45.382Z</time></trkpt><trkpt lat="45.3732442" lon="8.1721669"><ele>186.0</ele><time>2026-04-20T07:42:46.383Z</time></trkpt><trkpt lat="45.3731169" lon="8.1722204"><ele>186.0</ele><time>2026-04-20T07:42:47.381Z</time></trkpt><trkpt lat="45.3729726" lon="8.1722632"><ele>186.0</ele><time>2026-04-20T07:42:48.391Z</time></trkpt><trkpt lat="45.3728333" lon="8.1723142"><ele>186.20000000000002</ele><time>2026-04-20T07:42:49.38Z</time></trkpt><trkpt lat="45.3726997" lon="8.172325"><ele>186.4</ele><time>2026-04-20T07:42:50.401Z</time></trkpt><trkpt lat="45.3725809" lon="8.1723636"><ele>186.6</ele><time>2026-04-20T07:42:51.391Z</time></trkpt><trkpt lat="45.3724908" lon="8.1723954"><ele>186.8</ele><time>2026-04-20T07:42:52.397Z</time></trkpt><trkpt lat="45.3723945" lon="8.1724219"><ele>187.0</ele><time>2026-04-20T07:42:53.397Z</time></trkpt><trkpt lat="45.3723059" lon="8.1724353"><ele>187.0</ele><time>2026-04-20T07:42:54.468Z</time></trkpt><trkpt lat="45.3722343" lon="8.1724284"><ele>187.0</ele><time>2026-04-20T07:42:55.47Z</time></trkpt><trkpt lat="45.372141" lon="8.1723628"><ele>187.0</ele><time>2026-04-20T07:42:57.441Z</time></trkpt><trkpt lat="45.3720136" lon="8.1723332"><ele>187.0</ele><time>2026-04-20T07:42:59.444Z</time></trkpt><trkpt lat="45.3719378" lon="8.1723821"><ele>187.0</ele><time>2026-04-20T07:43:00.444Z</time></trkpt><trkpt lat="45.371881" lon="8.172483"><ele>186.8</ele><time>2026-04-20T07:43:01.472Z</time></trkpt><trkpt lat="45.3717565" lon="8.1725732"><ele>186.6</ele><time>2026-04-20T07:43:03.364Z</time></trkpt><trkpt lat="45.3716685" lon="8.1726141"><ele>186.4</ele><time>2026-04-20T07:43:04.356Z</time></trkpt><trkpt lat="45.371568" lon="8.1726292"><ele>186.20000000000002</ele><time>2026-04-20T07:43:05.367Z</time></trkpt><trkpt lat="45.3714542" lon="8.172637"><ele>186.0</ele><time>2026-04-20T07:43:06.365Z</time></trkpt><trkpt lat="45.3713327" lon="8.1726422"><ele>186.0</ele><time>2026-04-20T07:43:07.36Z</time></trkpt><trkpt lat="45.3712169" lon="8.1726455"><ele>186.0</ele><time>2026-04-20T07:43:08.357Z</time></trkpt><trkpt lat="45.3710991" lon="8.1726549"><ele>186.0</ele><time>2026-04-20T07:43:09.361Z</time></trkpt><trkpt lat="45.37098" lon="8.1726741"><ele>186.0</ele><time>2026-04-20T07:43:10.364Z</time></trkpt><trkpt lat="45.3708601" lon="8.1726968"><ele>186.0</ele><time>2026-04-20T07:43:11.365Z</time></trkpt><trkpt lat="45.3707426" lon="8.1727158"><ele>186.0</ele><time>2026-04-20T07:43:12.366Z</time></trkpt><trkpt lat="45.3706378" lon="8.1727405"><ele>186.0</ele><time>2026-04-20T07:43:13.377Z</time></trkpt><trkpt lat="45.3705292" lon="8.1727682"><ele>186.0</ele><time>2026-04-20T07:43:14.378Z</time></trkpt><trkpt lat="45.3704109" lon="8.1727933"><ele>186.25</ele><time>2026-04-20T07:43:15.376Z</time></trkpt><trkpt lat="45.3702948" lon="8.1728113"><ele>186.5</ele><time>2026-04-20T07:43:16.376Z</time></trkpt><trkpt lat="45.3701761" lon="8.1728366"><ele>186.75</ele><time>2026-04-20T07:43:17.358Z</time></trkpt><trkpt lat="45.3700537" lon="8.1728627"><ele>187.0</ele><time>2026-04-20T07:43:18.363Z</time></trkpt><trkpt lat="45.3699303" lon="8.1728909"><ele>187.0</ele><time>2026-04-20T07:43:19.356Z</time></trkpt><trkpt lat="45.3698137" lon="8.1729267"><ele>187.0</ele><time>2026-04-20T07:43:20.357Z</time></trkpt><trkpt lat="45.3697051" lon="8.1729662"><ele>187.0</ele><time>2026-04-20T07:43:21.356Z</time></trkpt><trkpt lat="45.3695951" lon="8.1729992"><ele>187.0</ele><time>2026-04-20T07:43:22.357Z</time></trkpt><trkpt lat="45.3694877" lon="8.1730341"><ele>187.0</ele><time>2026-04-20T07:43:23.353Z</time></trkpt><trkpt lat="45.3693729" lon="8.1730839"><ele>187.0</ele><time>2026-04-20T07:43:24.364Z</time></trkpt><trkpt lat="45.3692631" lon="8.1731301"><ele>187.0</ele><time>2026-04-20T07:43:25.368Z</time></trkpt><trkpt lat="45.3691578" lon="8.1731701"><ele>187.0</ele><time>2026-04-20T07:43:26.375Z</time></trkpt><trkpt lat="45.3690485" lon="8.1732046"><ele>186.8</ele><time>2026-04-20T07:43:27.372Z</time></trkpt><trkpt lat="45.3689431" lon="8.1732387"><ele>186.6</ele><time>2026-04-20T07:43:28.379Z</time></trkpt><trkpt lat="45.3688346" lon="8.1732662"><ele>186.4</ele><time>2026-04-20T07:43:29.38Z</time></trkpt><trkpt lat="45.3687445" lon="8.1732947"><ele>186.20000000000002</ele><time>2026-04-20T07:43:30.368Z</time></trkpt><trkpt lat="45.3686594" lon="8.1733085"><ele>186.0</ele><time>2026-04-20T07:43:31.371Z</time></trkpt><trkpt lat="45.3685729" lon="8.173345"><ele>186.0</ele><time>2026-04-20T07:43:32.351Z</time></trkpt><trkpt lat="45.3685007" lon="8.1733777"><ele>186.0</ele><time>2026-04-20T07:43:33.374Z</time></trkpt><trkpt lat="45.3683856" lon="8.1734085"><ele>186.0</ele><time>2026-04-20T07:43:35.365Z</time></trkpt><trkpt lat="45.3683111" lon="8.1734393"><ele>186.0</ele><time>2026-04-20T07:43:40.36Z</time></trkpt><trkpt lat="45.3682387" lon="8.1734443"><ele>186.0</ele><time>2026-04-20T07:44:04.362Z</time></trkpt><trkpt lat="45.3681632" lon="8.1734733"><ele>186.0</ele><time>2026-04-20T07:44:05.366Z</time></trkpt><trkpt lat="45.3680417" lon="8.1734528"><ele>186.20000000000002</ele><time>2026-04-20T07:44:07.355Z</time></trkpt><trkpt lat="45.367991" lon="8.1733305"><ele>186.4</ele><time>2026-04-20T07:44:09.357Z</time></trkpt><trkpt lat="45.3680134" lon="8.1732141"><ele>186.6</ele><time>2026-04-20T07:44:10.359Z</time></trkpt><trkpt lat="45.3680582" lon="8.1730574"><ele>186.8</ele><time>2026-04-20T07:44:11.364Z</time></trkpt><trkpt lat="45.368098" lon="8.172904"><ele>187.0</ele><time>2026-04-20T07:44:12.356Z</time></trkpt><trkpt lat="45.3681438" lon="8.1727449"><ele>187.0</ele><time>2026-04-20T07:44:13.357Z</time></trkpt><trkpt lat="45.3681772" lon="8.1725979"><ele>187.0</ele><time>2026-04-20T07:44:14.358Z</time></trkpt><trkpt lat="45.3682211" lon="8.1724666"><ele>187.0</ele><time>2026-04-20T07:44:15.349Z</time></trkpt><trkpt lat="45.3682465" lon="8.1723458"><ele>187.0</ele><time>2026-04-20T07:44:16.357Z</time></trkpt><trkpt lat="45.3682635" lon="8.1722373"><ele>187.0</ele><time>2026-04-20T07:44:17.358Z</time></trkpt><trkpt lat="45.3682735" lon="8.1721421"><ele>187.0</ele><time>2026-04-20T07:44:18.348Z</time></trkpt><trkpt lat="45.3682525" lon="8.1719793"><ele>187.0</ele><time>2026-04-20T07:44:20.347Z</time></trkpt><trkpt lat="45.368193" lon="8.1719065"><ele>187.0</ele><time>2026-04-20T07:44:21.35Z</time></trkpt><trkpt lat="45.3682387" lon="8.1734443"><ele>187.0</ele><time>2026-04-20T07:44:04.362Z</time></trkpt><trkpt lat="45.3681632" lon="8.1734733"><ele>187.0</ele><time>2026-04-20T07:44:05.366Z</time></trkpt><trkpt lat="45.3680417" lon="8.1734528"><ele>187.0</ele><time>2026-04-20T07:44:07.355Z</time></trkpt><trkpt lat="45.367991" lon="8.1733305"><ele>187.0</ele><time>2026-04-20T07:44:09.357Z</time></trkpt><trkpt lat="45.3680134" lon="8.1732141"><ele>187.0</ele><time>2026-04-20T07:44:10.359Z</time></trkpt><trkpt lat="45.3680582" lon="8.1730574"><ele>187.0</ele><time>2026-04-20T07:44:11.364Z</time></trkpt><trkpt lat="45.368098" lon="8.172904"><ele>187.0</ele><time>2026-04-20T07:44:12.356Z</time></trkpt><trkpt lat="45.3681438" lon="8.1727449"><ele>187.0</ele><time>2026-04-20T07:44:13.357Z</time></trkpt><trkpt lat="45.3681772" lon="8.1725979"><ele>187.0</ele><time>2026-04-20T07:44:14.358Z</time></trkpt><trkpt lat="45.3682211" lon="8.1724666"><ele>187.0</ele><time>2026-04-20T07:44:15.349Z</time></trkpt><trkpt lat="45.3682465" lon="8.1723458"><ele>187.0</ele><time>2026-04-20T07:44:16.357Z</time></trkpt><trkpt lat="45.3682635" lon="8.1722373"><ele>187.0</ele><time>2026-04-20T07:44:17.358Z</time></trkpt><trkpt lat="45.3682735" lon="8.1721421"><ele>187.0</ele><time>2026-04-20T07:44:18.348Z</time></trkpt><trkpt lat="45.3682525" lon="8.1719793"><ele>187.0</ele><time>2026-04-20T07:44:20.347Z</time></trkpt><trkpt lat="45.368193" lon="8.1719065"><ele>187.0</ele><time>2026-04-20T07:44:21.35Z</time></trkpt><trkpt lat="45.3680999" lon="8.171844"><ele>187.0</ele><time>2026-04-20T07:44:22.35Z</time></trkpt><trkpt lat="45.3680057" lon="8.1718003"><ele>187.16666666666669</ele><time>2026-04-20T07:44:23.345Z</time></trkpt><trkpt lat="45.3679161" lon="8.1717719"><ele>187.33333333333334</ele><time>2026-04-20T07:44:24.352Z</time></trkpt><trkpt lat="45.3678468" lon="8.1717612"><ele>187.5</ele><time>2026-04-20T07:44:25.362Z</time></trkpt><trkpt lat="45.3677349" lon="8.1717429"><ele>187.66666666666666</ele><time>2026-04-20T07:44:27.366Z</time></trkpt><trkpt lat="45.3676497" lon="8.1717013"><ele>187.83333333333331</ele><time>2026-04-20T07:44:29.368Z</time></trkpt><trkpt lat="45.3675738" lon="8.1716888"><ele>188.0</ele><time>2026-04-20T07:44:31.372Z</time></trkpt><trkpt lat="45.3674789" lon="8.1716633"><ele>188.0</ele><time>2026-04-20T07:44:33.377Z</time></trkpt><trkpt lat="45.3674178" lon="8.1716314"><ele>188.0</ele><time>2026-04-20T07:44:35.365Z</time></trkpt><trkpt lat="45.3673314" lon="8.1716182"><ele>188.0</ele><time>2026-04-20T07:44:39.372Z</time></trkpt><trkpt lat="45.3672121" lon="8.171585"><ele>188.0</ele><time>2026-04-20T07:44:41.371Z</time></trkpt><trkpt lat="45.3671004" lon="8.1715431"><ele>188.0</ele><time>2026-04-20T07:44:43.363Z</time></trkpt><trkpt lat="45.3670362" lon="8.1715076"><ele>188.0</ele><time>2026-04-20T07:44:45.374Z</time></trkpt><trkpt lat="45.3669699" lon="8.1714813"><ele>188.0</ele><time>2026-04-20T07:44:47.377Z</time></trkpt><trkpt lat="45.3669063" lon="8.1713753"><ele>188.0</ele><time>2026-04-20T07:44:49.38Z</time></trkpt><trkpt lat="45.3668526" lon="8.1712697"><ele>188.0</ele><time>2026-04-20T07:44:52.372Z</time></trkpt><trkpt lat="45.3667688" lon="8.1712225"><ele>188.0</ele><time>2026-04-20T07:44:54.367Z</time></trkpt><trkpt lat="45.366653" lon="8.1711957"><ele>188.0</ele><time>2026-04-20T07:44:56.357Z</time></trkpt><trkpt lat="45.3665887" lon="8.1711668"><ele>188.0</ele><time>2026-04-20T07:44:57.366Z</time></trkpt><trkpt lat="45.3665283" lon="8.1711288"><ele>188.0</ele><time>2026-04-20T07:44:58.361Z</time></trkpt><trkpt lat="45.3664774" lon="8.1710658"><ele>188.0</ele><time>2026-04-20T07:44:59.386Z</time></trkpt><trkpt lat="45.3664179" lon="8.1710031"><ele>188.0</ele><time>2026-04-20T07:45:00.372Z</time></trkpt><trkpt lat="45.3663554" lon="8.1709375"><ele>188.0</ele><time>2026-04-20T07:45:01.374Z</time></trkpt><trkpt lat="45.3662796" lon="8.1708742"><ele>188.0</ele><time>2026-04-20T07:45:02.377Z</time></trkpt><trkpt lat="45.3662126" lon="8.1708033"><ele>188.0</ele><time>2026-04-20T07:45:03.375Z</time></trkpt><trkpt lat="45.3661466" lon="8.1707454"><ele>188.0</ele><time>2026-04-20T07:45:04.381Z</time></trkpt><trkpt lat="45.3660823" lon="8.1706919"><ele>188.0</ele><time>2026-04-20T07:45:05.38Z</time></trkpt><trkpt lat="45.366022" lon="8.1706421"><ele>188.0</ele><time>2026-04-20T07:45:06.374Z</time></trkpt><trkpt lat="45.3659579" lon="8.1705866"><ele>188.0</ele><time>2026-04-20T07:45:07.376Z</time></trkpt><trkpt lat="45.3659015" lon="8.1705354"><ele>188.0</ele><time>2026-04-20T07:45:08.368Z</time></trkpt><trkpt lat="45.3658407" lon="8.1704856"><ele>188.0</ele><time>2026-04-20T07:45:09.368Z</time></trkpt><trkpt lat="45.3657821" lon="8.1704339"><ele>188.0</ele><time>2026-04-20T07:45:10.368Z</time></trkpt><trkpt lat="45.3657217" lon="8.1703776"><ele>188.0</ele><time>2026-04-20T07:45:11.375Z</time></trkpt><trkpt lat="45.3656532" lon="8.1703179"><ele>188.0</ele><time>2026-04-20T07:45:12.373Z</time></trkpt><trkpt lat="45.3655896" lon="8.1702583"><ele>188.0</ele><time>2026-04-20T07:45:13.375Z</time></trkpt><trkpt lat="45.3655345" lon="8.170199"><ele>188.0</ele><time>2026-04-20T07:45:14.378Z</time></trkpt><trkpt lat="45.3654749" lon="8.1701434"><ele>188.0</ele><time>2026-04-20T07:45:15.378Z</time></trkpt><trkpt lat="45.3653923" lon="8.1700725"><ele>188.0</ele><time>2026-04-20T07:45:17.376Z</time></trkpt><trkpt lat="45.3653256" lon="8.1700255"><ele>188.0</ele><time>2026-04-20T07:45:19.398Z</time></trkpt><trkpt lat="45.3652661" lon="8.1699827"><ele>188.0</ele><time>2026-04-20T07:45:21.379Z</time></trkpt><trkpt lat="45.3652172" lon="8.169926"><ele>188.0</ele><time>2026-04-20T07:45:22.389Z</time></trkpt><trkpt lat="45.3651301" lon="8.1698866"><ele>188.0</ele><time>2026-04-20T07:45:24.374Z</time></trkpt><trkpt lat="45.3650734" lon="8.1700073"><ele>188.0</ele><time>2026-04-20T07:45:26.378Z</time></trkpt><trkpt lat="45.3650718" lon="8.1701815"><ele>188.0</ele><time>2026-04-20T07:45:28.372Z</time></trkpt><trkpt lat="45.365075" lon="8.1702828"><ele>188.0</ele><time>2026-04-20T07:45:29.366Z</time></trkpt><trkpt lat="45.3650698" lon="8.1703826"><ele>188.0</ele><time>2026-04-20T07:45:30.371Z</time></trkpt><trkpt lat="45.3650553" lon="8.1704809"><ele>188.0</ele><time>2026-04-20T07:45:31.374Z</time></trkpt><trkpt lat="45.3650277" lon="8.1705915"><ele>188.0</ele><time>2026-04-20T07:45:32.376Z</time></trkpt><trkpt lat="45.3650085" lon="8.1706913"><ele>188.0</ele><time>2026-04-20T07:45:33.369Z</time></trkpt><trkpt lat="45.3649875" lon="8.1707956"><ele>188.0</ele><time>2026-04-20T07:45:34.371Z</time></trkpt><trkpt lat="45.364979" lon="8.1709589"><ele>187.8</ele><time>2026-04-20T07:45:36.368Z</time></trkpt><trkpt lat="45.3649545" lon="8.1710944"><ele>187.60000000000002</ele><time>2026-04-20T07:45:38.36Z</time></trkpt><trkpt lat="45.3648958" lon="8.1711326"><ele>187.39999999999998</ele><time>2026-04-20T07:45:40.383Z</time></trkpt><trkpt lat="45.3648007" lon="8.1712355"><ele>187.2</ele><time>2026-04-20T07:45:43.375Z</time></trkpt><trkpt lat="45.3647194" lon="8.1713452"><ele>187.0</ele><time>2026-04-20T07:45:45.366Z</time></trkpt><trkpt lat="45.3645861" lon="8.1713913"><ele>186.6</ele><time>2026-04-20T07:45:47.365Z</time></trkpt><trkpt lat="45.3644853" lon="8.1713853"><ele>186.2</ele><time>2026-04-20T07:45:48.353Z</time></trkpt><trkpt lat="45.3643789" lon="8.1713819"><ele>185.8</ele><time>2026-04-20T07:45:49.358Z</time></trkpt><trkpt lat="45.3642685" lon="8.1713959"><ele>185.4</ele><time>2026-04-20T07:45:50.356Z</time></trkpt><trkpt lat="45.3641506" lon="8.1714023"><ele>185.0</ele><time>2026-04-20T07:45:51.368Z</time></trkpt><trkpt lat="45.3640229" lon="8.1714184"><ele>185.0</ele><time>2026-04-20T07:45:52.362Z</time></trkpt><trkpt lat="45.3638945" lon="8.1714313"><ele>185.0</ele><time>2026-04-20T07:45:53.369Z</time></trkpt><trkpt lat="45.3637739" lon="8.1714325"><ele>185.0</ele><time>2026-04-20T07:45:54.372Z</time></trkpt><trkpt lat="45.3636635" lon="8.1714408"><ele>185.0</ele><time>2026-04-20T07:45:55.38Z</time></trkpt><trkpt lat="45.3635601" lon="8.1714466"><ele>184.75</ele><time>2026-04-20T07:45:56.377Z</time></trkpt><trkpt lat="45.3634484" lon="8.171462"><ele>184.5</ele><time>2026-04-20T07:45:57.381Z</time></trkpt><trkpt lat="45.3633299" lon="8.1714824"><ele>184.25</ele><time>2026-04-20T07:45:58.374Z</time></trkpt><trkpt lat="45.3632054" lon="8.1715004"><ele>184.0</ele><time>2026-04-20T07:45:59.38Z</time></trkpt><trkpt lat="45.3630892" lon="8.1715252"><ele>183.75</ele><time>2026-04-20T07:46:00.383Z</time></trkpt><trkpt lat="45.3629553" lon="8.1715471"><ele>183.5</ele><time>2026-04-20T07:46:01.471Z</time></trkpt><trkpt lat="45.3628128" lon="8.1715652"><ele>183.25</ele><time>2026-04-20T07:46:02.48Z</time></trkpt><trkpt lat="45.3626596" lon="8.171584"><ele>183.0</ele><time>2026-04-20T07:46:03.475Z</time></trkpt><trkpt lat="45.3624913" lon="8.1716076"><ele>183.0</ele><time>2026-04-20T07:46:04.487Z</time></trkpt><trkpt lat="45.3623284" lon="8.1716316"><ele>183.0</ele><time>2026-04-20T07:46:05.477Z</time></trkpt><trkpt lat="45.3621544" lon="8.1716554"><ele>183.0</ele><time>2026-04-20T07:46:06.482Z</time></trkpt><trkpt lat="45.3619785" lon="8.1716835"><ele>184.0</ele><time>2026-04-20T07:46:07.477Z</time></trkpt><trkpt lat="45.3617955" lon="8.1717142"><ele>185.0</ele><time>2026-04-20T07:46:08.472Z</time></trkpt><trkpt lat="45.3616087" lon="8.1717437"><ele>186.0</ele><time>2026-04-20T07:46:09.478Z</time></trkpt><trkpt lat="45.3614146" lon="8.1717733"><ele>185.33333333333334</ele><time>2026-04-20T07:46:10.475Z</time></trkpt><trkpt lat="45.361221" lon="8.1718066"><ele>184.66666666666669</ele><time>2026-04-20T07:46:11.478Z</time></trkpt><trkpt lat="45.3610308" lon="8.1718479"><ele>184.0</ele><time>2026-04-20T07:46:12.471Z</time></trkpt><trkpt lat="45.3608477" lon="8.1718759"><ele>184.0</ele><time>2026-04-20T07:46:13.471Z</time></trkpt><trkpt lat="45.3606676" lon="8.1719005"><ele>184.0</ele><time>2026-04-20T07:46:14.48Z</time></trkpt><trkpt lat="45.3604874" lon="8.1719252"><ele>184.0</ele><time>2026-04-20T07:46:15.473Z</time></trkpt><trkpt lat="45.3603069" lon="8.1719489"><ele>183.66666666666669</ele><time>2026-04-20T07:46:16.476Z</time></trkpt><trkpt lat="45.3601289" lon="8.1719763"><ele>183.33333333333334</ele><time>2026-04-20T07:46:17.483Z</time></trkpt><trkpt lat="45.3599502" lon="8.1720036"><ele>183.0</ele><time>2026-04-20T07:46:18.48Z</time></trkpt><trkpt lat="45.3597638" lon="8.1720304"><ele>183.0</ele><time>2026-04-20T07:46:19.481Z</time></trkpt><trkpt lat="45.3595613" lon="8.172062"><ele>183.0</ele><time>2026-04-20T07:46:20.478Z</time></trkpt><trkpt lat="45.3593542" lon="8.1721015"><ele>183.0</ele><time>2026-04-20T07:46:21.481Z</time></trkpt><trkpt lat="45.359138" lon="8.1721385"><ele>183.0</ele><time>2026-04-20T07:46:22.48Z</time></trkpt><trkpt lat="45.358923" lon="8.1721748"><ele>183.0</ele><time>2026-04-20T07:46:23.48Z</time></trkpt><trkpt lat="45.3587049" lon="8.1722045"><ele>183.0</ele><time>2026-04-20T07:46:24.479Z</time></trkpt><trkpt lat="45.3584974" lon="8.1722251"><ele>182.66666666666666</ele><time>2026-04-20T07:46:25.471Z</time></trkpt><trkpt lat="45.3583011" lon="8.1722474"><ele>182.33333333333331</ele><time>2026-04-20T07:46:26.476Z</time></trkpt><trkpt lat="45.3581138" lon="8.1722685"><ele>182.0</ele><time>2026-04-20T07:46:27.478Z</time></trkpt><trkpt lat="45.3579247" lon="8.1722924"><ele>181.33333333333331</ele><time>2026-04-20T07:46:28.485Z</time></trkpt><trkpt lat="45.3577357" lon="8.172312"><ele>180.66666666666666</ele><time>2026-04-20T07:46:29.473Z</time></trkpt><trkpt lat="45.3575467" lon="8.1723143"><ele>180.0</ele><time>2026-04-20T07:46:30.482Z</time></trkpt><trkpt lat="45.3573612" lon="8.1722884"><ele>180.33333333333334</ele><time>2026-04-20T07:46:31.469Z</time></trkpt><trkpt lat="45.3571665" lon="8.1722331"><ele>180.66666666666669</ele><time>2026-04-20T07:46:32.458Z</time></trkpt><trkpt lat="45.356977" lon="8.1721558"><ele>181.0</ele><time>2026-04-20T07:46:33.46Z</time></trkpt><trkpt lat="45.3567902" lon="8.1720542"><ele>181.0</ele><time>2026-04-20T07:46:34.453Z</time></trkpt><trkpt lat="45.3566039" lon="8.1719513"><ele>181.0</ele><time>2026-04-20T07:46:35.451Z</time></trkpt><trkpt lat="45.3564155" lon="8.1718501"><ele>181.0</ele><time>2026-04-20T07:46:36.454Z</time></trkpt><trkpt lat="45.3562278" lon="8.1717449"><ele>181.66666666666669</ele><time>2026-04-20T07:46:37.464Z</time></trkpt><trkpt lat="45.3560367" lon="8.1716373"><ele>182.33333333333334</ele><time>2026-04-20T07:46:38.467Z</time></trkpt><trkpt lat="45.3558444" lon="8.1715352"><ele>183.0</ele><time>2026-04-20T07:46:39.469Z</time></trkpt><trkpt lat="45.3556519" lon="8.1714367"><ele>183.0</ele><time>2026-04-20T07:46:40.472Z</time></trkpt><trkpt lat="45.3554586" lon="8.1713371"><ele>183.0</ele><time>2026-04-20T07:46:41.487Z</time></trkpt><trkpt lat="45.3552635" lon="8.1712355"><ele>183.0</ele><time>2026-04-20T07:46:42.484Z</time></trkpt><trkpt lat="45.3550661" lon="8.1711314"><ele>183.0</ele><time>2026-04-20T07:46:43.484Z</time></trkpt><trkpt lat="45.3548773" lon="8.1710368"><ele>183.0</ele><time>2026-04-20T07:46:44.483Z</time></trkpt><trkpt lat="45.3546848" lon="8.1709372"><ele>183.0</ele><time>2026-04-20T07:46:45.472Z</time></trkpt><trkpt lat="45.3544863" lon="8.1708261"><ele>183.0</ele><time>2026-04-20T07:46:46.467Z</time></trkpt><trkpt lat="45.3542882" lon="8.1707123"><ele>183.0</ele><time>2026-04-20T07:46:47.464Z</time></trkpt><trkpt lat="45.3540914" lon="8.1705981"><ele>183.0</ele><time>2026-04-20T07:46:48.465Z</time></trkpt><trkpt lat="45.3538912" lon="8.1704864"><ele>182.33333333333334</ele><time>2026-04-20T07:46:49.473Z</time></trkpt><trkpt lat="45.3536901" lon="8.1703797"><ele>181.66666666666669</ele><time>2026-04-20T07:46:50.479Z</time></trkpt><trkpt lat="45.3534882" lon="8.1702724"><ele>181.0</ele><time>2026-04-20T07:46:51.48Z</time></trkpt><trkpt lat="45.3532913" lon="8.170173"><ele>181.0</ele><time>2026-04-20T07:46:52.479Z</time></trkpt><trkpt lat="45.3530873" lon="8.170069"><ele>181.0</ele><time>2026-04-20T07:46:53.48Z</time></trkpt><trkpt lat="45.3528863" lon="8.1699601"><ele>181.0</ele><time>2026-04-20T07:46:54.48Z</time></trkpt><trkpt lat="45.3526868" lon="8.1698513"><ele>181.0</ele><time>2026-04-20T07:46:55.475Z</time></trkpt><trkpt lat="45.3524914" lon="8.169745"><ele>181.0</ele><time>2026-04-20T07:46:56.477Z</time></trkpt><trkpt lat="45.3522915" lon="8.1696381"><ele>181.0</ele><time>2026-04-20T07:46:57.476Z</time></trkpt><trkpt lat="45.3520867" lon="8.1695292"><ele>181.0</ele><time>2026-04-20T07:46:58.48Z</time></trkpt><trkpt lat="45.3518771" lon="8.1694177"><ele>181.0</ele><time>2026-04-20T07:46:59.485Z</time></trkpt><trkpt lat="45.3516641" lon="8.169309"><ele>181.0</ele><time>2026-04-20T07:47:00.481Z</time></trkpt><trkpt lat="45.351449" lon="8.1691982"><ele>181.0</ele><time>2026-04-20T07:47:01.483Z</time></trkpt><trkpt lat="45.3512349" lon="8.1690897"><ele>180.0</ele><time>2026-04-20T07:47:02.481Z</time></trkpt><trkpt lat="45.3510234" lon="8.1689746"><ele>179.0</ele><time>2026-04-20T07:47:03.48Z</time></trkpt><trkpt lat="45.3508107" lon="8.16886"><ele>179.0</ele><time>2026-04-20T07:47:04.486Z</time></trkpt><trkpt lat="45.3505934" lon="8.1687496"><ele>179.0</ele><time>2026-04-20T07:47:05.48Z</time></trkpt><trkpt lat="45.3503809" lon="8.1686376"><ele>179.66666666666666</ele><time>2026-04-20T07:47:06.477Z</time></trkpt><trkpt lat="45.3501722" lon="8.1685242"><ele>180.33333333333334</ele><time>2026-04-20T07:47:07.481Z</time></trkpt><trkpt lat="45.349977" lon="8.1684145"><ele>181.0</ele><time>2026-04-20T07:47:08.482Z</time></trkpt><trkpt lat="45.349784" lon="8.1683071"><ele>181.0</ele><time>2026-04-20T07:47:09.478Z</time></trkpt><trkpt lat="45.3495907" lon="8.1682007"><ele>181.0</ele><time>2026-04-20T07:47:10.48Z</time></trkpt><trkpt lat="45.3494" lon="8.168097"><ele>181.0</ele><time>2026-04-20T07:47:11.485Z</time></trkpt><trkpt lat="45.3492206" lon="8.1679999"><ele>181.33333333333334</ele><time>2026-04-20T07:47:12.48Z</time></trkpt><trkpt lat="45.3490465" lon="8.1679077"><ele>181.66666666666666</ele><time>2026-04-20T07:47:13.483Z</time></trkpt><trkpt lat="45.3488847" lon="8.1678174"><ele>182.0</ele><time>2026-04-20T07:47:14.487Z</time></trkpt><trkpt lat="45.3487326" lon="8.1677334"><ele>181.33333333333331</ele><time>2026-04-20T07:47:15.485Z</time></trkpt><trkpt lat="45.3485865" lon="8.1676535"><ele>180.66666666666666</ele><time>2026-04-20T07:47:16.49Z</time></trkpt><trkpt lat="45.3484432" lon="8.1675777"><ele>180.0</ele><time>2026-04-20T07:47:17.489Z</time></trkpt><trkpt lat="45.3483065" lon="8.1675073"><ele>180.0</ele><time>2026-04-20T07:47:18.486Z</time></trkpt><trkpt lat="45.3481796" lon="8.1674425"><ele>180.0</ele><time>2026-04-20T07:47:19.487Z</time></trkpt><trkpt lat="45.3480668" lon="8.1673882"><ele>180.0</ele><time>2026-04-20T07:47:20.484Z</time></trkpt><trkpt lat="45.3479772" lon="8.1673472"><ele>180.0</ele><time>2026-04-20T07:47:21.48Z</time></trkpt><trkpt lat="45.347913" lon="8.1673162"><ele>180.0</ele><time>2026-04-20T07:47:22.476Z</time></trkpt><trkpt lat="45.3478258" lon="8.1672208"><ele>180.0</ele><time>2026-04-20T07:47:24.491Z</time></trkpt><trkpt lat="45.3477216" lon="8.1671058"><ele>180.0</ele><time>2026-04-20T07:47:26.47Z</time></trkpt><trkpt lat="45.3476324" lon="8.1670786"><ele>180.0</ele><time>2026-04-20T07:47:27.458Z</time></trkpt><trkpt lat="45.3475255" lon="8.1670723"><ele>180.0</ele><time>2026-04-20T07:47:28.457Z</time></trkpt><trkpt lat="45.3473103" lon="8.1670381"><ele>180.5</ele><time>2026-04-20T07:47:30.366Z</time></trkpt><trkpt lat="45.3471914" lon="8.166976"><ele>181.0</ele><time>2026-04-20T07:47:31.381Z</time></trkpt><trkpt lat="45.3470669" lon="8.1668998"><ele>181.5</ele><time>2026-04-20T07:47:32.378Z</time></trkpt><trkpt lat="45.3469253" lon="8.1668153"><ele>182.0</ele><time>2026-04-20T07:47:33.371Z</time></trkpt><trkpt lat="45.3467376" lon="8.1667335"><ele>182.0</ele><time>2026-04-20T07:47:34.37Z</time></trkpt><trkpt lat="45.3465419" lon="8.1666364"><ele>182.0</ele><time>2026-04-20T07:47:35.378Z</time></trkpt><trkpt lat="45.3463411" lon="8.1665355"><ele>182.0</ele><time>2026-04-20T07:47:36.372Z</time></trkpt><trkpt lat="45.3461345" lon="8.1664294"><ele>182.33333333333331</ele><time>2026-04-20T07:47:37.373Z</time></trkpt><trkpt lat="45.3459436" lon="8.1663134"><ele>182.66666666666666</ele><time>2026-04-20T07:47:38.38Z</time></trkpt><trkpt lat="45.3457534" lon="8.1661883"><ele>183.0</ele><time>2026-04-20T07:47:39.379Z</time></trkpt><trkpt lat="45.3455755" lon="8.1660702"><ele>183.0</ele><time>2026-04-20T07:47:40.373Z</time></trkpt><trkpt lat="45.3453959" lon="8.1659308"><ele>183.0</ele><time>2026-04-20T07:47:41.375Z</time></trkpt><trkpt lat="45.345235" lon="8.1658036"><ele>183.0</ele><time>2026-04-20T07:47:42.372Z</time></trkpt><trkpt lat="45.3450702" lon="8.165669"><ele>183.0</ele><time>2026-04-20T07:47:43.377Z</time></trkpt><trkpt lat="45.3449095" lon="8.165542"><ele>183.0</ele><time>2026-04-20T07:47:44.379Z</time></trkpt><trkpt lat="45.3447433" lon="8.1654076"><ele>183.0</ele><time>2026-04-20T07:47:45.373Z</time></trkpt><trkpt lat="45.3445843" lon="8.1652684"><ele>182.66666666666666</ele><time>2026-04-20T07:47:46.375Z</time></trkpt><trkpt lat="45.3444162" lon="8.1651324"><ele>182.33333333333331</ele><time>2026-04-20T07:47:47.386Z</time></trkpt><trkpt lat="45.3442679" lon="8.1649872"><ele>182.0</ele><time>2026-04-20T07:47:48.385Z</time></trkpt><trkpt lat="45.3441087" lon="8.1648381"><ele>182.0</ele><time>2026-04-20T07:47:49.385Z</time></trkpt><trkpt lat="45.3439562" lon="8.1646877"><ele>182.0</ele><time>2026-04-20T07:47:50.379Z</time></trkpt><trkpt lat="45.3438152" lon="8.1645568"><ele>182.0</ele><time>2026-04-20T07:47:51.38Z</time></trkpt><trkpt lat="45.3436802" lon="8.1644203"><ele>181.5</ele><time>2026-04-20T07:47:52.377Z</time></trkpt><trkpt lat="45.3435543" lon="8.1643013"><ele>181.0</ele><time>2026-04-20T07:47:53.379Z</time></trkpt><trkpt lat="45.3434317" lon="8.1641803"><ele>180.5</ele><time>2026-04-20T07:47:54.378Z</time></trkpt><trkpt lat="45.3433326" lon="8.1640818"><ele>180.0</ele><time>2026-04-20T07:47:55.374Z</time></trkpt><trkpt lat="45.34323" lon="8.1639861"><ele>180.0</ele><time>2026-04-20T07:47:56.375Z</time></trkpt><trkpt lat="45.343151" lon="8.1639024"><ele>180.0</ele><time>2026-04-20T07:47:57.373Z</time></trkpt><trkpt lat="45.3431034" lon="8.1638296"><ele>180.0</ele><time>2026-04-20T07:47:58.367Z</time></trkpt><trkpt lat="45.3430637" lon="8.1637156"><ele>180.0</ele><time>2026-04-20T07:47:59.378Z</time></trkpt><trkpt lat="45.343025" lon="8.1636214"><ele>180.0</ele><time>2026-04-20T07:48:00.378Z</time></trkpt><trkpt lat="45.342965" lon="8.1635544"><ele>180.0</ele><time>2026-04-20T07:48:01.371Z</time></trkpt><trkpt lat="45.3428998" lon="8.1635127"><ele>180.33333333333334</ele><time>2026-04-20T07:48:02.379Z</time></trkpt><trkpt lat="45.3428271" lon="8.163524"><ele>180.66666666666666</ele><time>2026-04-20T07:48:03.377Z</time></trkpt><trkpt lat="45.3427543" lon="8.1635235"><ele>181.0</ele><time>2026-04-20T07:48:04.381Z</time></trkpt><trkpt lat="45.3426776" lon="8.163475"><ele>181.33333333333331</ele><time>2026-04-20T07:48:05.382Z</time></trkpt><trkpt lat="45.3426017" lon="8.1634003"><ele>181.66666666666666</ele><time>2026-04-20T07:48:06.391Z</time></trkpt><trkpt lat="45.342521" lon="8.1633051"><ele>182.0</ele><time>2026-04-20T07:48:07.384Z</time></trkpt><trkpt lat="45.3424263" lon="8.1632038"><ele>182.0</ele><time>2026-04-20T07:48:08.381Z</time></trkpt><trkpt lat="45.342329" lon="8.1630988"><ele>182.0</ele><time>2026-04-20T07:48:09.376Z</time></trkpt><trkpt lat="45.3422286" lon="8.1629918"><ele>182.0</ele><time>2026-04-20T07:48:10.377Z</time></trkpt><trkpt lat="45.3421201" lon="8.1628851"><ele>182.0</ele><time>2026-04-20T07:48:11.38Z</time></trkpt><trkpt lat="45.3420089" lon="8.1627634"><ele>182.0</ele><time>2026-04-20T07:48:12.38Z</time></trkpt><trkpt lat="45.341903" lon="8.1626337"><ele>182.0</ele><time>2026-04-20T07:48:13.376Z</time></trkpt><trkpt lat="45.3418164" lon="8.1625055"><ele>182.0</ele><time>2026-04-20T07:48:14.387Z</time></trkpt><trkpt lat="45.3417354" lon="8.1623864"><ele>182.0</ele><time>2026-04-20T07:48:15.379Z</time></trkpt><trkpt lat="45.3416565" lon="8.1622651"><ele>181.8</ele><time>2026-04-20T07:48:16.379Z</time></trkpt><trkpt lat="45.3415796" lon="8.1621549"><ele>181.6</ele><time>2026-04-20T07:48:17.376Z</time></trkpt><trkpt lat="45.3415174" lon="8.1620608"><ele>181.4</ele><time>2026-04-20T07:48:18.37Z</time></trkpt><trkpt lat="45.3414461" lon="8.1619857"><ele>181.20000000000002</ele><time>2026-04-20T07:48:19.383Z</time></trkpt><trkpt lat="45.3413857" lon="8.1619198"><ele>181.0</ele><time>2026-04-20T07:48:20.383Z</time></trkpt><trkpt lat="45.3413205" lon="8.1618379"><ele>181.0</ele><time>2026-04-20T07:48:21.366Z</time></trkpt><trkpt lat="45.3412646" lon="8.1617479"><ele>181.0</ele><time>2026-04-20T07:48:22.377Z</time></trkpt><trkpt lat="45.3412106" lon="8.1616576"><ele>181.0</ele><time>2026-04-20T07:48:23.368Z</time></trkpt><trkpt lat="45.3411564" lon="8.1615873"><ele>181.0</ele><time>2026-04-20T07:48:24.379Z</time></trkpt><trkpt lat="45.3410852" lon="8.1615922"><ele>181.0</ele><time>2026-04-20T07:48:25.38Z</time></trkpt><trkpt lat="45.3410151" lon="8.1616538"><ele>181.0</ele><time>2026-04-20T07:48:26.381Z</time></trkpt><trkpt lat="45.3409761" lon="8.1617489"><ele>181.0</ele><time>2026-04-20T07:48:27.375Z</time></trkpt><trkpt lat="45.3409658" lon="8.1618501"><ele>181.0</ele><time>2026-04-20T07:48:28.38Z</time></trkpt><trkpt lat="45.3409891" lon="8.1619614"><ele>181.0</ele><time>2026-04-20T07:48:29.382Z</time></trkpt><trkpt lat="45.3410386" lon="8.1620905"><ele>181.0</ele><time>2026-04-20T07:48:30.368Z</time></trkpt><trkpt lat="45.3410923" lon="8.1622249"><ele>181.0</ele><time>2026-04-20T07:48:31.369Z</time></trkpt><trkpt lat="45.341139" lon="8.1623751"><ele>181.25</ele><time>2026-04-20T07:48:32.376Z</time></trkpt><trkpt lat="45.3411814" lon="8.1625476"><ele>181.5</ele><time>2026-04-20T07:48:33.372Z</time></trkpt><trkpt lat="45.3412239" lon="8.1627411"><ele>181.75</ele><time>2026-04-20T07:48:34.363Z</time></trkpt><trkpt lat="45.3412626" lon="8.1629502"><ele>182.0</ele><time>2026-04-20T07:48:35.368Z</time></trkpt><trkpt lat="45.3412914" lon="8.1631833"><ele>181.66666666666666</ele><time>2026-04-20T07:48:36.371Z</time></trkpt><trkpt lat="45.3413089" lon="8.1634309"><ele>181.33333333333334</ele><time>2026-04-20T07:48:37.373Z</time></trkpt><trkpt lat="45.341307" lon="8.163651"><ele>181.0</ele><time>2026-04-20T07:48:38.373Z</time></trkpt><trkpt lat="45.3412998" lon="8.1638979"><ele>181.0</ele><time>2026-04-20T07:48:39.377Z</time></trkpt><trkpt lat="45.3412882" lon="8.1641538"><ele>181.0</ele><time>2026-04-20T07:48:40.382Z</time></trkpt><trkpt lat="45.3412494" lon="8.1644095"><ele>181.0</ele><time>2026-04-20T07:48:41.377Z</time></trkpt><trkpt lat="45.3411965" lon="8.1646747"><ele>181.33333333333334</ele><time>2026-04-20T07:48:42.38Z</time></trkpt><trkpt lat="45.3411385" lon="8.1649395"><ele>181.66666666666666</ele><time>2026-04-20T07:48:43.386Z</time></trkpt><trkpt lat="45.3410558" lon="8.1651853"><ele>182.0</ele><time>2026-04-20T07:48:44.387Z</time></trkpt><trkpt lat="45.3409697" lon="8.1654277"><ele>182.0</ele><time>2026-04-20T07:48:45.382Z</time></trkpt><trkpt lat="45.3408703" lon="8.1656708"><ele>182.0</ele><time>2026-04-20T07:48:46.388Z</time></trkpt><trkpt lat="45.3407631" lon="8.165914"><ele>182.0</ele><time>2026-04-20T07:48:47.39Z</time></trkpt><trkpt lat="45.3406629" lon="8.1661607"><ele>181.66666666666666</ele><time>2026-04-20T07:48:48.39Z</time></trkpt><trkpt lat="45.3405521" lon="8.1664086"><ele>181.33333333333334</ele><time>2026-04-20T07:48:49.385Z</time></trkpt><trkpt lat="45.3404426" lon="8.1666476"><ele>181.0</ele><time>2026-04-20T07:48:50.377Z</time></trkpt><trkpt lat="45.3403346" lon="8.1669169"><ele>181.0</ele><time>2026-04-20T07:48:51.383Z</time></trkpt><trkpt lat="45.3402233" lon="8.1671735"><ele>181.0</ele><time>2026-04-20T07:48:52.384Z</time></trkpt><trkpt lat="45.3401156" lon="8.1674384"><ele>181.0</ele><time>2026-04-20T07:48:53.379Z</time></trkpt><trkpt lat="45.3400019" lon="8.1676931"><ele>181.33333333333334</ele><time>2026-04-20T07:48:54.384Z</time></trkpt><trkpt lat="45.3398844" lon="8.1679602"><ele>181.66666666666666</ele><time>2026-04-20T07:48:55.385Z</time></trkpt><trkpt lat="45.3397789" lon="8.168227"><ele>182.0</ele><time>2026-04-20T07:48:56.383Z</time></trkpt><trkpt lat="45.3396682" lon="8.1684839"><ele>180.66666666666666</ele><time>2026-04-20T07:48:57.379Z</time></trkpt><trkpt lat="45.3395497" lon="8.1687498"><ele>179.33333333333334</ele><time>2026-04-20T07:48:58.386Z</time></trkpt><trkpt lat="45.3394329" lon="8.1690187"><ele>178.0</ele><time>2026-04-20T07:48:59.384Z</time></trkpt><trkpt lat="45.3393319" lon="8.1692901"><ele>178.0</ele><time>2026-04-20T07:49:00.376Z</time></trkpt><trkpt lat="45.33922" lon="8.1695464"><ele>178.0</ele><time>2026-04-20T07:49:01.382Z</time></trkpt><trkpt lat="45.3391214" lon="8.1697675"><ele>178.0</ele><time>2026-04-20T07:49:02.367Z</time></trkpt><trkpt lat="45.3390403" lon="8.1699756"><ele>177.75</ele><time>2026-04-20T07:49:03.379Z</time></trkpt><trkpt lat="45.3389687" lon="8.1701728"><ele>177.5</ele><time>2026-04-20T07:49:04.375Z</time></trkpt><trkpt lat="45.3388989" lon="8.1703466"><ele>177.25</ele><time>2026-04-20T07:49:05.384Z</time></trkpt><trkpt lat="45.3388289" lon="8.1705175"><ele>177.0</ele><time>2026-04-20T07:49:06.379Z</time></trkpt><trkpt lat="45.3387544" lon="8.1706977"><ele>177.0</ele><time>2026-04-20T07:49:07.388Z</time></trkpt><trkpt lat="45.3386688" lon="8.1708779"><ele>177.0</ele><time>2026-04-20T07:49:08.381Z</time></trkpt><trkpt lat="45.338596" lon="8.1710624"><ele>177.0</ele><time>2026-04-20T07:49:09.381Z</time></trkpt><trkpt lat="45.3385111" lon="8.1712685"><ele>177.0</ele><time>2026-04-20T07:49:10.382Z</time></trkpt><trkpt lat="45.3384201" lon="8.1714779"><ele>177.0</ele><time>2026-04-20T07:49:11.382Z</time></trkpt><trkpt lat="45.338338" lon="8.1717032"><ele>177.0</ele><time>2026-04-20T07:49:12.384Z</time></trkpt><trkpt lat="45.3382511" lon="8.1719294"><ele>176.66666666666666</ele><time>2026-04-20T07:49:13.384Z</time></trkpt><trkpt lat="45.338157" lon="8.172155"><ele>176.33333333333331</ele><time>2026-04-20T07:49:14.385Z</time></trkpt><trkpt lat="45.3380662" lon="8.1723937"><ele>176.0</ele><time>2026-04-20T07:49:15.38Z</time></trkpt><trkpt lat="45.3379805" lon="8.1726335"><ele>176.0</ele><time>2026-04-20T07:49:16.377Z</time></trkpt><trkpt lat="45.3379011" lon="8.1728967"><ele>176.0</ele><time>2026-04-20T07:49:17.373Z</time></trkpt><trkpt lat="45.3378354" lon="8.1731644"><ele>176.0</ele><time>2026-04-20T07:49:18.38Z</time></trkpt><trkpt lat="45.3377794" lon="8.1734337"><ele>176.0</ele><time>2026-04-20T07:49:19.378Z</time></trkpt><trkpt lat="45.3377306" lon="8.1736914"><ele>176.0</ele><time>2026-04-20T07:49:20.37Z</time></trkpt><trkpt lat="45.3376925" lon="8.1739454"><ele>176.0</ele><time>2026-04-20T07:49:21.383Z</time></trkpt><trkpt lat="45.3376648" lon="8.1742114"><ele>176.0</ele><time>2026-04-20T07:49:22.378Z</time></trkpt><trkpt lat="45.3376468" lon="8.1744732"><ele>176.0</ele><time>2026-04-20T07:49:23.403Z</time></trkpt><trkpt lat="45.3376324" lon="8.1747489"><ele>176.0</ele><time>2026-04-20T07:49:24.468Z</time></trkpt><trkpt lat="45.3376222" lon="8.1750237"><ele>176.0</ele><time>2026-04-20T07:49:25.482Z</time></trkpt><trkpt lat="45.3376209" lon="8.1753006"><ele>176.0</ele><time>2026-04-20T07:49:26.478Z</time></trkpt><trkpt lat="45.3376304" lon="8.1755791"><ele>176.0</ele><time>2026-04-20T07:49:27.471Z</time></trkpt><trkpt lat="45.3376479" lon="8.1758578"><ele>176.0</ele><time>2026-04-20T07:49:28.483Z</time></trkpt><trkpt lat="45.3376734" lon="8.1761283"><ele>176.0</ele><time>2026-04-20T07:49:29.49Z</time></trkpt><trkpt lat="45.3377102" lon="8.176394"><ele>176.0</ele><time>2026-04-20T07:49:30.476Z</time></trkpt><trkpt lat="45.3377497" lon="8.1766513"><ele>176.33333333333331</ele><time>2026-04-20T07:49:31.485Z</time></trkpt><trkpt lat="45.3377981" lon="8.1768914"><ele>176.66666666666666</ele><time>2026-04-20T07:49:32.48Z</time></trkpt><trkpt lat="45.3378559" lon="8.1771266"><ele>177.0</ele><time>2026-04-20T07:49:33.47Z</time></trkpt><trkpt lat="45.3379123" lon="8.1773615"><ele>177.33333333333334</ele><time>2026-04-20T07:49:34.476Z</time></trkpt><trkpt lat="45.337963" lon="8.1775854"><ele>177.66666666666669</ele><time>2026-04-20T07:49:35.481Z</time></trkpt><trkpt lat="45.3380342" lon="8.1778046"><ele>178.0</ele><time>2026-04-20T07:49:36.479Z</time></trkpt><trkpt lat="45.3381058" lon="8.1780095"><ele>177.66666666666669</ele><time>2026-04-20T07:49:37.484Z</time></trkpt><trkpt lat="45.3381753" lon="8.1781995"><ele>177.33333333333334</ele><time>2026-04-20T07:49:38.491Z</time></trkpt><trkpt lat="45.3382501" lon="8.178389"><ele>177.0</ele><time>2026-04-20T07:49:39.486Z</time></trkpt><trkpt lat="45.3383275" lon="8.1785693"><ele>177.0</ele><time>2026-04-20T07:49:40.485Z</time></trkpt><trkpt lat="45.3384061" lon="8.1787324"><ele>177.0</ele><time>2026-04-20T07:49:41.486Z</time></trkpt><trkpt lat="45.3384836" lon="8.1788805"><ele>177.0</ele><time>2026-04-20T07:49:42.485Z</time></trkpt><trkpt lat="45.3385611" lon="8.1790194"><ele>177.0</ele><time>2026-04-20T07:49:43.486Z</time></trkpt><trkpt lat="45.3386202" lon="8.1791362"><ele>177.0</ele><time>2026-04-20T07:49:44.484Z</time></trkpt><trkpt lat="45.3386688" lon="8.1792475"><ele>177.0</ele><time>2026-04-20T07:49:45.484Z</time></trkpt><trkpt lat="45.3386976" lon="8.1793488"><ele>177.0</ele><time>2026-04-20T07:49:46.479Z</time></trkpt><trkpt lat="45.3387032" lon="8.1794419"><ele>177.0</ele><time>2026-04-20T07:49:47.475Z</time></trkpt><trkpt lat="45.3386823" lon="8.1795362"><ele>177.0</ele><time>2026-04-20T07:49:48.455Z</time></trkpt><trkpt lat="45.3386361" lon="8.1796279"><ele>177.0</ele><time>2026-04-20T07:49:49.452Z</time></trkpt><trkpt lat="45.3385681" lon="8.1797054"><ele>177.0</ele><time>2026-04-20T07:49:50.457Z</time></trkpt><trkpt lat="45.3384684" lon="8.179801"><ele>177.0</ele><time>2026-04-20T07:49:51.457Z</time></trkpt><trkpt lat="45.3383599" lon="8.1799007"><ele>177.0</ele><time>2026-04-20T07:49:52.486Z</time></trkpt><trkpt lat="45.3382429" lon="8.1800081"><ele>177.0</ele><time>2026-04-20T07:49:53.479Z</time></trkpt><trkpt lat="45.3381072" lon="8.1801328"><ele>176.66666666666666</ele><time>2026-04-20T07:49:54.481Z</time></trkpt><trkpt lat="45.337959" lon="8.1802638"><ele>176.33333333333331</ele><time>2026-04-20T07:49:55.488Z</time></trkpt><trkpt lat="45.3378143" lon="8.1803957"><ele>176.0</ele><time>2026-04-20T07:49:56.482Z</time></trkpt><trkpt lat="45.3376778" lon="8.1805308"><ele>176.0</ele><time>2026-04-20T07:49:57.479Z</time></trkpt><trkpt lat="45.3375458" lon="8.1806626"><ele>176.0</ele><time>2026-04-20T07:49:58.492Z</time></trkpt><trkpt lat="45.33742" lon="8.1807892"><ele>176.0</ele><time>2026-04-20T07:49:59.486Z</time></trkpt><trkpt lat="45.3372972" lon="8.18091"><ele>175.5</ele><time>2026-04-20T07:50:00.489Z</time></trkpt><trkpt lat="45.3371754" lon="8.1810254"><ele>175.0</ele><time>2026-04-20T07:50:01.488Z</time></trkpt><trkpt lat="45.3370488" lon="8.1811441"><ele>174.5</ele><time>2026-04-20T07:50:02.489Z</time></trkpt><trkpt lat="45.3369236" lon="8.1812618"><ele>174.0</ele><time>2026-04-20T07:50:03.485Z</time></trkpt><trkpt lat="45.3367969" lon="8.1813818"><ele>174.0</ele><time>2026-04-20T07:50:04.484Z</time></trkpt><trkpt lat="45.3366696" lon="8.1815024"><ele>174.0</ele><time>2026-04-20T07:50:05.486Z</time></trkpt><trkpt lat="45.3365392" lon="8.1816247"><ele>174.0</ele><time>2026-04-20T07:50:06.488Z</time></trkpt><trkpt lat="45.3364056" lon="8.1817444"><ele>174.33333333333334</ele><time>2026-04-20T07:50:07.482Z</time></trkpt><trkpt lat="45.3362686" lon="8.1818662"><ele>174.66666666666669</ele><time>2026-04-20T07:50:08.49Z</time></trkpt><trkpt lat="45.3361274" lon="8.1819921"><ele>175.0</ele><time>2026-04-20T07:50:09.491Z</time></trkpt><trkpt lat="45.3359824" lon="8.1821245"><ele>175.0</ele><time>2026-04-20T07:50:10.488Z</time></trkpt><trkpt lat="45.3358298" lon="8.1822629"><ele>175.0</ele><time>2026-04-20T07:50:11.485Z</time></trkpt><trkpt lat="45.335669" lon="8.1824108"><ele>175.0</ele><time>2026-04-20T07:50:12.489Z</time></trkpt><trkpt lat="45.3354995" lon="8.1825645"><ele>175.33333333333334</ele><time>2026-04-20T07:50:13.485Z</time></trkpt><trkpt lat="45.3353235" lon="8.1827233"><ele>175.66666666666666</ele><time>2026-04-20T07:50:14.489Z</time></trkpt><trkpt lat="45.3351525" lon="8.1828782"><ele>176.0</ele><time>2026-04-20T07:50:15.487Z</time></trkpt><trkpt lat="45.3349824" lon="8.183032"><ele>175.33333333333331</ele><time>2026-04-20T07:50:16.493Z</time></trkpt><trkpt lat="45.3348129" lon="8.1831828"><ele>174.66666666666666</ele><time>2026-04-20T07:50:17.488Z</time></trkpt><trkpt lat="45.3346423" lon="8.183333"><ele>174.0</ele><time>2026-04-20T07:50:18.485Z</time></trkpt><trkpt lat="45.3344727" lon="8.1834881"><ele>174.0</ele><time>2026-04-20T07:50:19.492Z</time></trkpt><trkpt lat="45.3343037" lon="8.1836446"><ele>174.0</ele><time>2026-04-20T07:50:20.484Z</time></trkpt><trkpt lat="45.334135" lon="8.1838011"><ele>174.0</ele><time>2026-04-20T07:50:21.494Z</time></trkpt><trkpt lat="45.333964" lon="8.1839566"><ele>173.66666666666666</ele><time>2026-04-20T07:50:22.485Z</time></trkpt><trkpt lat="45.3337902" lon="8.1841145"><ele>173.33333333333331</ele><time>2026-04-20T07:50:23.487Z</time></trkpt><trkpt lat="45.3336141" lon="8.1842716"><ele>173.0</ele><time>2026-04-20T07:50:24.488Z</time></trkpt><trkpt lat="45.3334385" lon="8.1844323"><ele>173.0</ele><time>2026-04-20T07:50:25.484Z</time></trkpt><trkpt lat="45.3332632" lon="8.1845945"><ele>173.0</ele><time>2026-04-20T07:50:26.49Z</time></trkpt><trkpt lat="45.3330898" lon="8.1847553"><ele>173.0</ele><time>2026-04-20T07:50:27.472Z</time></trkpt><trkpt lat="45.3329161" lon="8.184913"><ele>172.66666666666666</ele><time>2026-04-20T07:50:28.484Z</time></trkpt><trkpt lat="45.3327411" lon="8.1850706"><ele>172.33333333333334</ele><time>2026-04-20T07:50:29.487Z</time></trkpt><trkpt lat="45.3325685" lon="8.1852286"><ele>172.0</ele><time>2026-04-20T07:50:30.487Z</time></trkpt><trkpt lat="45.3323974" lon="8.1853861"><ele>172.0</ele><time>2026-04-20T07:50:31.486Z</time></trkpt><trkpt lat="45.3322269" lon="8.1855459"><ele>172.0</ele><time>2026-04-20T07:50:32.487Z</time></trkpt><trkpt lat="45.3320579" lon="8.1857035"><ele>172.0</ele><time>2026-04-20T07:50:33.479Z</time></trkpt><trkpt lat="45.3318878" lon="8.18586"><ele>172.0</ele><time>2026-04-20T07:50:34.486Z</time></trkpt><trkpt lat="45.3317212" lon="8.1860133"><ele>172.0</ele><time>2026-04-20T07:50:35.483Z</time></trkpt><trkpt lat="45.3315539" lon="8.1861704"><ele>172.0</ele><time>2026-04-20T07:50:36.487Z</time></trkpt><trkpt lat="45.3313897" lon="8.1863287"><ele>172.0</ele><time>2026-04-20T07:50:37.487Z</time></trkpt><trkpt lat="45.3312216" lon="8.1864877"><ele>172.0</ele><time>2026-04-20T07:50:38.488Z</time></trkpt><trkpt lat="45.3310508" lon="8.1866457"><ele>172.0</ele><time>2026-04-20T07:50:39.488Z</time></trkpt><trkpt lat="45.3308804" lon="8.1868027"><ele>171.66666666666669</ele><time>2026-04-20T07:50:40.493Z</time></trkpt><trkpt lat="45.3307074" lon="8.186958"><ele>171.33333333333334</ele><time>2026-04-20T07:50:41.484Z</time></trkpt><trkpt lat="45.3305364" lon="8.1871127"><ele>171.0</ele><time>2026-04-20T07:50:42.484Z</time></trkpt><trkpt lat="45.3303648" lon="8.1872681"><ele>171.0</ele><time>2026-04-20T07:50:43.487Z</time></trkpt><trkpt lat="45.3301868" lon="8.1874272"><ele>171.0</ele><time>2026-04-20T07:50:44.485Z</time></trkpt><trkpt lat="45.330012" lon="8.1875823"><ele>171.0</ele><time>2026-04-20T07:50:45.489Z</time></trkpt><trkpt lat="45.3298388" lon="8.1877373"><ele>171.0</ele><time>2026-04-20T07:50:46.489Z</time></trkpt><trkpt lat="45.329665" lon="8.1878923"><ele>171.0</ele><time>2026-04-20T07:50:47.492Z</time></trkpt><trkpt lat="45.3294909" lon="8.1880473"><ele>171.0</ele><time>2026-04-20T07:50:48.491Z</time></trkpt><trkpt lat="45.3293157" lon="8.1882026"><ele>171.0</ele><time>2026-04-20T07:50:49.491Z</time></trkpt><trkpt lat="45.3291402" lon="8.18836"><ele>171.0</ele><time>2026-04-20T07:50:50.482Z</time></trkpt><trkpt lat="45.3289635" lon="8.1885178"><ele>171.0</ele><time>2026-04-20T07:50:51.484Z</time></trkpt><trkpt lat="45.3287804" lon="8.1886764"><ele>171.0</ele><time>2026-04-20T07:50:52.484Z</time></trkpt><trkpt lat="45.3285939" lon="8.1888355"><ele>171.0</ele><time>2026-04-20T07:50:53.495Z</time></trkpt><trkpt lat="45.3284115" lon="8.1889955"><ele>171.0</ele><time>2026-04-20T07:50:54.494Z</time></trkpt><trkpt lat="45.3282315" lon="8.1891581"><ele>170.66666666666666</ele><time>2026-04-20T07:50:55.49Z</time></trkpt><trkpt lat="45.3280553" lon="8.1893233"><ele>170.33333333333331</ele><time>2026-04-20T07:50:56.491Z</time></trkpt><trkpt lat="45.3278814" lon="8.1894906"><ele>170.0</ele><time>2026-04-20T07:50:57.495Z</time></trkpt><trkpt lat="45.3277067" lon="8.189656"><ele>170.0</ele><time>2026-04-20T07:50:58.491Z</time></trkpt><trkpt lat="45.3275319" lon="8.189819"><ele>170.0</ele><time>2026-04-20T07:50:59.492Z</time></trkpt><trkpt lat="45.3273565" lon="8.1899817"><ele>170.0</ele><time>2026-04-20T07:51:00.49Z</time></trkpt><trkpt lat="45.3271814" lon="8.1901446"><ele>170.0</ele><time>2026-04-20T07:51:01.495Z</time></trkpt><trkpt lat="45.3270057" lon="8.1903062"><ele>170.0</ele><time>2026-04-20T07:51:02.493Z</time></trkpt><trkpt lat="45.3268288" lon="8.190464"><ele>170.0</ele><time>2026-04-20T07:51:03.493Z</time></trkpt><trkpt lat="45.3266509" lon="8.1906204"><ele>170.66666666666666</ele><time>2026-04-20T07:51:04.486Z</time></trkpt><trkpt lat="45.3264733" lon="8.1907745"><ele>171.33333333333334</ele><time>2026-04-20T07:51:05.489Z</time></trkpt><trkpt lat="45.3262976" lon="8.1909306"><ele>172.0</ele><time>2026-04-20T07:51:06.49Z</time></trkpt><trkpt lat="45.3261253" lon="8.191092"><ele>172.0</ele><time>2026-04-20T07:51:07.489Z</time></trkpt><trkpt lat="45.3259566" lon="8.1912601"><ele>172.0</ele><time>2026-04-20T07:51:08.485Z</time></trkpt><trkpt lat="45.3257962" lon="8.1914403"><ele>172.0</ele><time>2026-04-20T07:51:09.485Z</time></trkpt><trkpt lat="45.32564" lon="8.191636"><ele>171.33333333333334</ele><time>2026-04-20T07:51:10.477Z</time></trkpt><trkpt lat="45.3254883" lon="8.1918376"><ele>170.66666666666666</ele><time>2026-04-20T07:51:11.479Z</time></trkpt><trkpt lat="45.3253383" lon="8.1920413"><ele>170.0</ele><time>2026-04-20T07:51:12.464Z</time></trkpt><trkpt lat="45.3251833" lon="8.1922456"><ele>169.66666666666666</ele><time>2026-04-20T07:51:13.472Z</time></trkpt><trkpt lat="45.3250211" lon="8.1924439"><ele>169.33333333333334</ele><time>2026-04-20T07:51:14.462Z</time></trkpt><trkpt lat="45.3248475" lon="8.1926219"><ele>169.0</ele><time>2026-04-20T07:51:15.458Z</time></trkpt><trkpt lat="45.3246592" lon="8.1927687"><ele>169.0</ele><time>2026-04-20T07:51:16.476Z</time></trkpt><trkpt lat="45.3244611" lon="8.1928973"><ele>169.0</ele><time>2026-04-20T07:51:17.495Z</time></trkpt><trkpt lat="45.3242637" lon="8.1930253"><ele>169.0</ele><time>2026-04-20T07:51:18.469Z</time></trkpt><trkpt lat="45.3240593" lon="8.1931583"><ele>169.0</ele><time>2026-04-20T07:51:19.478Z</time></trkpt><trkpt lat="45.3238583" lon="8.1932907"><ele>169.0</ele><time>2026-04-20T07:51:20.461Z</time></trkpt><trkpt lat="45.3236578" lon="8.1934264"><ele>169.0</ele><time>2026-04-20T07:51:21.471Z</time></trkpt><trkpt lat="45.323456" lon="8.193554"><ele>169.0</ele><time>2026-04-20T07:51:22.483Z</time></trkpt><trkpt lat="45.3232529" lon="8.1936795"><ele>169.0</ele><time>2026-04-20T07:51:23.491Z</time></trkpt><trkpt lat="45.3230501" lon="8.1938083"><ele>169.0</ele><time>2026-04-20T07:51:24.486Z</time></trkpt><trkpt lat="45.3228539" lon="8.1939347"><ele>169.0</ele><time>2026-04-20T07:51:25.486Z</time></trkpt><trkpt lat="45.3226562" lon="8.1940592"><ele>169.0</ele><time>2026-04-20T07:51:26.498Z</time></trkpt><trkpt lat="45.3224602" lon="8.1941795"><ele>169.0</ele><time>2026-04-20T07:51:27.49Z</time></trkpt><trkpt lat="45.3222647" lon="8.1943027"><ele>168.66666666666669</ele><time>2026-04-20T07:51:28.488Z</time></trkpt><trkpt lat="45.3220693" lon="8.1944294"><ele>168.33333333333334</ele><time>2026-04-20T07:51:29.49Z</time></trkpt><trkpt lat="45.321874" lon="8.1945573"><ele>168.0</ele><time>2026-04-20T07:51:30.488Z</time></trkpt><trkpt lat="45.3216797" lon="8.1946842"><ele>168.0</ele><time>2026-04-20T07:51:31.486Z</time></trkpt><trkpt lat="45.3214852" lon="8.1948098"><ele>168.0</ele><time>2026-04-20T07:51:32.485Z</time></trkpt><trkpt lat="45.3212892" lon="8.1949372"><ele>168.0</ele><time>2026-04-20T07:51:33.476Z</time></trkpt><trkpt lat="45.321087" lon="8.195065"><ele>167.33333333333334</ele><time>2026-04-20T07:51:34.485Z</time></trkpt><trkpt lat="45.3208832" lon="8.1951925"><ele>166.66666666666669</ele><time>2026-04-20T07:51:35.488Z</time></trkpt><trkpt lat="45.3206825" lon="8.195321"><ele>166.0</ele><time>2026-04-20T07:51:36.488Z</time></trkpt><trkpt lat="45.3204817" lon="8.1954488"><ele>166.0</ele><time>2026-04-20T07:51:37.488Z</time></trkpt><trkpt lat="45.3202803" lon="8.1955774"><ele>166.0</ele><time>2026-04-20T07:51:38.487Z</time></trkpt><trkpt lat="45.3200828" lon="8.1956987"><ele>166.0</ele><time>2026-04-20T07:51:39.482Z</time></trkpt><trkpt lat="45.3198896" lon="8.1958211"><ele>166.0</ele><time>2026-04-20T07:51:40.5Z</time></trkpt><trkpt lat="45.3197003" lon="8.1959395"><ele>166.0</ele><time>2026-04-20T07:51:41.482Z</time></trkpt><trkpt lat="45.3194969" lon="8.1960642"><ele>166.0</ele><time>2026-04-20T07:51:42.486Z</time></trkpt><trkpt lat="45.3192965" lon="8.1961879"><ele>166.0</ele><time>2026-04-20T07:51:43.486Z</time></trkpt><trkpt lat="45.3190965" lon="8.1963108"><ele>166.0</ele><time>2026-04-20T07:51:44.486Z</time></trkpt><trkpt lat="45.3188936" lon="8.1964407"><ele>166.0</ele><time>2026-04-20T07:51:45.492Z</time></trkpt><trkpt lat="45.3186938" lon="8.1965726"><ele>166.0</ele><time>2026-04-20T07:51:46.486Z</time></trkpt><trkpt lat="45.3184937" lon="8.1967043"><ele>166.0</ele><time>2026-04-20T07:51:47.499Z</time></trkpt><trkpt lat="45.3182954" lon="8.1968301"><ele>166.0</ele><time>2026-04-20T07:51:48.489Z</time></trkpt><trkpt lat="45.318095" lon="8.1969578"><ele>166.33333333333334</ele><time>2026-04-20T07:51:49.492Z</time></trkpt><trkpt lat="45.3178977" lon="8.1970838"><ele>166.66666666666666</ele><time>2026-04-20T07:51:50.484Z</time></trkpt><trkpt lat="45.3176971" lon="8.1972129"><ele>167.0</ele><time>2026-04-20T07:51:51.491Z</time></trkpt><trkpt lat="45.3174968" lon="8.1973463"><ele>167.0</ele><time>2026-04-20T07:51:52.492Z</time></trkpt><trkpt lat="45.3172976" lon="8.1974763"><ele>167.0</ele><time>2026-04-20T07:51:53.487Z</time></trkpt><trkpt lat="45.3170984" lon="8.1976044"><ele>167.0</ele><time>2026-04-20T07:51:54.497Z</time></trkpt><trkpt lat="45.3169005" lon="8.1977322"><ele>166.66666666666666</ele><time>2026-04-20T07:51:55.492Z</time></trkpt><trkpt lat="45.3167027" lon="8.1978591"><ele>166.33333333333334</ele><time>2026-04-20T07:51:56.494Z</time></trkpt><trkpt lat="45.3164975" lon="8.1979897"><ele>166.0</ele><time>2026-04-20T07:51:57.487Z</time></trkpt><trkpt lat="45.3162967" lon="8.1981195"><ele>166.0</ele><time>2026-04-20T07:51:58.491Z</time></trkpt><trkpt lat="45.3160927" lon="8.1982518"><ele>166.0</ele><time>2026-04-20T07:51:59.491Z</time></trkpt><trkpt lat="45.3158894" lon="8.1983856"><ele>166.0</ele><time>2026-04-20T07:52:00.497Z</time></trkpt><trkpt lat="45.3156879" lon="8.1985198"><ele>166.0</ele><time>2026-04-20T07:52:01.492Z</time></trkpt><trkpt lat="45.3154859" lon="8.1986491"><ele>166.0</ele><time>2026-04-20T07:52:02.486Z</time></trkpt><trkpt lat="45.3152822" lon="8.1987806"><ele>166.0</ele><time>2026-04-20T07:52:03.496Z</time></trkpt><trkpt lat="45.3150797" lon="8.1989096"><ele>165.66666666666669</ele><time>2026-04-20T07:52:04.487Z</time></trkpt><trkpt lat="45.3148802" lon="8.1990378"><ele>165.33333333333334</ele><time>2026-04-20T07:52:05.486Z</time></trkpt><trkpt lat="45.3146798" lon="8.1991673"><ele>165.0</ele><time>2026-04-20T07:52:06.489Z</time></trkpt><trkpt lat="45.3144782" lon="8.1992964"><ele>165.0</ele><time>2026-04-20T07:52:07.496Z</time></trkpt><trkpt lat="45.3142793" lon="8.1994263"><ele>165.0</ele><time>2026-04-20T07:52:08.496Z</time></trkpt><trkpt lat="45.3140851" lon="8.1995562"><ele>165.0</ele><time>2026-04-20T07:52:09.486Z</time></trkpt><trkpt lat="45.3138859" lon="8.1996808"><ele>165.0</ele><time>2026-04-20T07:52:10.49Z</time></trkpt><trkpt lat="45.3136898" lon="8.1998054"><ele>165.0</ele><time>2026-04-20T07:52:11.491Z</time></trkpt><trkpt lat="45.3134955" lon="8.1999261"><ele>165.0</ele><time>2026-04-20T07:52:12.49Z</time></trkpt><trkpt lat="45.3132999" lon="8.2000496"><ele>165.0</ele><time>2026-04-20T07:52:13.493Z</time></trkpt><trkpt lat="45.3131044" lon="8.2001756"><ele>165.0</ele><time>2026-04-20T07:52:14.498Z</time></trkpt><trkpt lat="45.3129085" lon="8.2003006"><ele>165.0</ele><time>2026-04-20T07:52:15.487Z</time></trkpt><trkpt lat="45.3127115" lon="8.2004275"><ele>165.0</ele><time>2026-04-20T07:52:16.489Z</time></trkpt><trkpt lat="45.3125114" lon="8.2005537"><ele>165.0</ele><time>2026-04-20T07:52:17.498Z</time></trkpt><trkpt lat="45.3123106" lon="8.2006796"><ele>165.0</ele><time>2026-04-20T07:52:18.495Z</time></trkpt><trkpt lat="45.3121108" lon="8.2008059"><ele>164.66666666666666</ele><time>2026-04-20T07:52:19.5Z</time></trkpt><trkpt lat="45.3119141" lon="8.2009324"><ele>164.33333333333331</ele><time>2026-04-20T07:52:20.488Z</time></trkpt><trkpt lat="45.3117162" lon="8.201058"><ele>164.0</ele><time>2026-04-20T07:52:21.488Z</time></trkpt><trkpt lat="45.311519" lon="8.2011811"><ele>164.0</ele><time>2026-04-20T07:52:22.49Z</time></trkpt><trkpt lat="45.3113243" lon="8.2013077"><ele>164.0</ele><time>2026-04-20T07:52:23.487Z</time></trkpt><trkpt lat="45.3111327" lon="8.2014343"><ele>164.0</ele><time>2026-04-20T07:52:24.49Z</time></trkpt><trkpt lat="45.3109409" lon="8.2015603"><ele>164.0</ele><time>2026-04-20T07:52:25.484Z</time></trkpt><trkpt lat="45.3107449" lon="8.2016828"><ele>164.0</ele><time>2026-04-20T07:52:26.485Z</time></trkpt><trkpt lat="45.3105486" lon="8.2018081"><ele>164.0</ele><time>2026-04-20T07:52:27.496Z</time></trkpt><trkpt lat="45.3103542" lon="8.2019356"><ele>164.0</ele><time>2026-04-20T07:52:28.483Z</time></trkpt><trkpt lat="45.3101632" lon="8.202061"><ele>164.0</ele><time>2026-04-20T07:52:29.484Z</time></trkpt><trkpt lat="45.3099702" lon="8.2021917"><ele>164.0</ele><time>2026-04-20T07:52:30.479Z</time></trkpt><trkpt lat="45.3097821" lon="8.2023332"><ele>164.0</ele><time>2026-04-20T07:52:31.49Z</time></trkpt><trkpt lat="45.3095957" lon="8.2024876"><ele>164.0</ele><time>2026-04-20T07:52:32.484Z</time></trkpt><trkpt lat="45.3094122" lon="8.2026619"><ele>164.0</ele><time>2026-04-20T07:52:33.476Z</time></trkpt><trkpt lat="45.3092439" lon="8.202853"><ele>164.0</ele><time>2026-04-20T07:52:34.467Z</time></trkpt><trkpt lat="45.3090861" lon="8.2030598"><ele>164.0</ele><time>2026-04-20T07:52:35.46Z</time></trkpt><trkpt lat="45.308933" lon="8.2032707"><ele>164.0</ele><time>2026-04-20T07:52:36.461Z</time></trkpt><trkpt lat="45.3087786" lon="8.2034822"><ele>163.66666666666666</ele><time>2026-04-20T07:52:37.466Z</time></trkpt><trkpt lat="45.3086233" lon="8.2036956"><ele>163.33333333333334</ele><time>2026-04-20T07:52:38.466Z</time></trkpt><trkpt lat="45.3084689" lon="8.2039106"><ele>163.0</ele><time>2026-04-20T07:52:39.495Z</time></trkpt><trkpt lat="45.3083134" lon="8.2041278"><ele>163.0</ele><time>2026-04-20T07:52:40.489Z</time></trkpt><trkpt lat="45.3081586" lon="8.2043405"><ele>163.0</ele><time>2026-04-20T07:52:41.491Z</time></trkpt><trkpt lat="45.3080035" lon="8.2045515"><ele>163.0</ele><time>2026-04-20T07:52:42.486Z</time></trkpt><trkpt lat="45.3078472" lon="8.2047629"><ele>162.66666666666669</ele><time>2026-04-20T07:52:43.49Z</time></trkpt><trkpt lat="45.3076922" lon="8.2049707"><ele>162.33333333333334</ele><time>2026-04-20T07:52:44.494Z</time></trkpt><trkpt lat="45.3075411" lon="8.2051792"><ele>162.0</ele><time>2026-04-20T07:52:45.496Z</time></trkpt><trkpt lat="45.3073897" lon="8.2053925"><ele>162.0</ele><time>2026-04-20T07:52:46.497Z</time></trkpt><trkpt lat="45.3072371" lon="8.2056054"><ele>162.0</ele><time>2026-04-20T07:52:47.494Z</time></trkpt><trkpt lat="45.3070824" lon="8.2058146"><ele>162.0</ele><time>2026-04-20T07:52:48.495Z</time></trkpt><trkpt lat="45.3069188" lon="8.2060345"><ele>162.0</ele><time>2026-04-20T07:52:49.4Z</time></trkpt><trkpt lat="45.3067767" lon="8.2062465"><ele>162.0</ele><time>2026-04-20T07:52:50.389Z</time></trkpt><trkpt lat="45.3066111" lon="8.2064557"><ele>162.0</ele><time>2026-04-20T07:52:51.386Z</time></trkpt><trkpt lat="45.3064493" lon="8.2066627"><ele>162.0</ele><time>2026-04-20T07:52:52.393Z</time></trkpt><trkpt lat="45.3062981" lon="8.2068802"><ele>162.0</ele><time>2026-04-20T07:52:53.395Z</time></trkpt><trkpt lat="45.306143" lon="8.2070954"><ele>162.0</ele><time>2026-04-20T07:52:54.382Z</time></trkpt><trkpt lat="45.3059848" lon="8.2072968"><ele>161.66666666666666</ele><time>2026-04-20T07:52:55.392Z</time></trkpt><trkpt lat="45.3058286" lon="8.2075027"><ele>161.33333333333331</ele><time>2026-04-20T07:52:56.386Z</time></trkpt><trkpt lat="45.3056783" lon="8.2077144"><ele>161.0</ele><time>2026-04-20T07:52:57.39Z</time></trkpt><trkpt lat="45.3055248" lon="8.2079261"><ele>161.0</ele><time>2026-04-20T07:52:58.394Z</time></trkpt><trkpt lat="45.3053701" lon="8.2081388"><ele>161.0</ele><time>2026-04-20T07:52:59.391Z</time></trkpt><trkpt lat="45.3052139" lon="8.2083516"><ele>161.0</ele><time>2026-04-20T07:53:00.4Z</time></trkpt><trkpt lat="45.3050482" lon="8.2085645"><ele>161.33333333333331</ele><time>2026-04-20T07:53:01.392Z</time></trkpt><trkpt lat="45.3048887" lon="8.2087699"><ele>161.66666666666666</ele><time>2026-04-20T07:53:02.387Z</time></trkpt><trkpt lat="45.3047408" lon="8.2089847"><ele>162.0</ele><time>2026-04-20T07:53:03.39Z</time></trkpt><trkpt lat="45.3045775" lon="8.2092014"><ele>161.33333333333334</ele><time>2026-04-20T07:53:04.382Z</time></trkpt><trkpt lat="45.3044175" lon="8.2094145"><ele>160.66666666666669</ele><time>2026-04-20T07:53:05.391Z</time></trkpt><trkpt lat="45.3042669" lon="8.2096305"><ele>160.0</ele><time>2026-04-20T07:53:06.387Z</time></trkpt><trkpt lat="45.3040997" lon="8.2098411"><ele>160.0</ele><time>2026-04-20T07:53:07.384Z</time></trkpt><trkpt lat="45.3039448" lon="8.2100531"><ele>160.0</ele><time>2026-04-20T07:53:08.389Z</time></trkpt><trkpt lat="45.3037955" lon="8.2102718"><ele>160.0</ele><time>2026-04-20T07:53:09.388Z</time></trkpt><trkpt lat="45.3036294" lon="8.210489"><ele>160.0</ele><time>2026-04-20T07:53:10.385Z</time></trkpt><trkpt lat="45.3034696" lon="8.2106951"><ele>160.0</ele><time>2026-04-20T07:53:11.389Z</time></trkpt><trkpt lat="45.3033039" lon="8.2109164"><ele>160.0</ele><time>2026-04-20T07:53:12.382Z</time></trkpt><trkpt lat="45.3031492" lon="8.2111342"><ele>160.0</ele><time>2026-04-20T07:53:13.383Z</time></trkpt><trkpt lat="45.3029909" lon="8.2113439"><ele>160.0</ele><time>2026-04-20T07:53:14.383Z</time></trkpt><trkpt lat="45.3028293" lon="8.2115611"><ele>160.0</ele><time>2026-04-20T07:53:15.392Z</time></trkpt><trkpt lat="45.3026767" lon="8.2117704"><ele>160.33333333333334</ele><time>2026-04-20T07:53:16.381Z</time></trkpt><trkpt lat="45.3025157" lon="8.211973"><ele>160.66666666666666</ele><time>2026-04-20T07:53:17.385Z</time></trkpt><trkpt lat="45.3023573" lon="8.2121883"><ele>161.0</ele><time>2026-04-20T07:53:18.389Z</time></trkpt><trkpt lat="45.3021939" lon="8.2124061"><ele>161.33333333333331</ele><time>2026-04-20T07:53:19.394Z</time></trkpt><trkpt lat="45.3020501" lon="8.212628"><ele>161.66666666666666</ele><time>2026-04-20T07:53:20.395Z</time></trkpt><trkpt lat="45.3018989" lon="8.2128447"><ele>162.0</ele><time>2026-04-20T07:53:21.39Z</time></trkpt><trkpt lat="45.3017372" lon="8.2130634"><ele>161.66666666666666</ele><time>2026-04-20T07:53:22.39Z</time></trkpt><trkpt lat="45.3015777" lon="8.2132777"><ele>161.33333333333331</ele><time>2026-04-20T07:53:23.389Z</time></trkpt><trkpt lat="45.3014206" lon="8.2134938"><ele>161.0</ele><time>2026-04-20T07:53:24.39Z</time></trkpt><trkpt lat="45.301267" lon="8.2137071"><ele>161.0</ele><time>2026-04-20T07:53:25.38Z</time></trkpt><trkpt lat="45.3011072" lon="8.2139229"><ele>161.0</ele><time>2026-04-20T07:53:26.385Z</time></trkpt><trkpt lat="45.300931" lon="8.2141417"><ele>161.0</ele><time>2026-04-20T07:53:27.386Z</time></trkpt><trkpt lat="45.3007718" lon="8.2143575"><ele>161.0</ele><time>2026-04-20T07:53:28.393Z</time></trkpt><trkpt lat="45.3006152" lon="8.2145609"><ele>161.0</ele><time>2026-04-20T07:53:29.39Z</time></trkpt><trkpt lat="45.3004449" lon="8.2147717"><ele>160.33333333333331</ele><time>2026-04-20T07:53:30.386Z</time></trkpt><trkpt lat="45.3002825" lon="8.2149786"><ele>159.66666666666666</ele><time>2026-04-20T07:53:31.389Z</time></trkpt><trkpt lat="45.3001234" lon="8.2151911"><ele>159.0</ele><time>2026-04-20T07:53:32.387Z</time></trkpt><trkpt lat="45.2999684" lon="8.2154087"><ele>159.0</ele><time>2026-04-20T07:53:33.383Z</time></trkpt><trkpt lat="45.2998028" lon="8.2156184"><ele>159.0</ele><time>2026-04-20T07:53:34.389Z</time></trkpt><trkpt lat="45.2996537" lon="8.2158232"><ele>159.0</ele><time>2026-04-20T07:53:35.377Z</time></trkpt><trkpt lat="45.2995006" lon="8.2160422"><ele>160.0</ele><time>2026-04-20T07:53:36.386Z</time></trkpt><trkpt lat="45.299334" lon="8.2162637"><ele>161.0</ele><time>2026-04-20T07:53:37.387Z</time></trkpt><trkpt lat="45.29917" lon="8.2164827"><ele>160.33333333333331</ele><time>2026-04-20T07:53:38.388Z</time></trkpt><trkpt lat="45.2990221" lon="8.2167002"><ele>159.66666666666666</ele><time>2026-04-20T07:53:39.387Z</time></trkpt><trkpt lat="45.2988552" lon="8.2169101"><ele>159.0</ele><time>2026-04-20T07:53:40.388Z</time></trkpt><trkpt lat="45.2986947" lon="8.2171215"><ele>159.33333333333334</ele><time>2026-04-20T07:53:41.39Z</time></trkpt><trkpt lat="45.2985374" lon="8.2173411"><ele>159.66666666666669</ele><time>2026-04-20T07:53:42.391Z</time></trkpt><trkpt lat="45.2983742" lon="8.2175589"><ele>160.0</ele><time>2026-04-20T07:53:43.389Z</time></trkpt><trkpt lat="45.2982095" lon="8.2177743"><ele>159.66666666666669</ele><time>2026-04-20T07:53:44.385Z</time></trkpt><trkpt lat="45.2980679" lon="8.2179979"><ele>159.33333333333334</ele><time>2026-04-20T07:53:45.383Z</time></trkpt><trkpt lat="45.2979112" lon="8.2182073"><ele>159.0</ele><time>2026-04-20T07:53:46.389Z</time></trkpt><trkpt lat="45.2977482" lon="8.2184214"><ele>158.66666666666666</ele><time>2026-04-20T07:53:47.384Z</time></trkpt><trkpt lat="45.2975819" lon="8.218635"><ele>158.33333333333331</ele><time>2026-04-20T07:53:48.387Z</time></trkpt><trkpt lat="45.2974275" lon="8.2188469"><ele>158.0</ele><time>2026-04-20T07:53:49.394Z</time></trkpt><trkpt lat="45.2972715" lon="8.2190644"><ele>158.33333333333331</ele><time>2026-04-20T07:53:50.387Z</time></trkpt><trkpt lat="45.297111" lon="8.2192797"><ele>158.66666666666666</ele><time>2026-04-20T07:53:51.391Z</time></trkpt><trkpt lat="45.2969583" lon="8.2194952"><ele>159.0</ele><time>2026-04-20T07:53:52.386Z</time></trkpt><trkpt lat="45.2968121" lon="8.2197022"><ele>158.66666666666666</ele><time>2026-04-20T07:53:53.384Z</time></trkpt><trkpt lat="45.296645" lon="8.2199126"><ele>158.33333333333331</ele><time>2026-04-20T07:53:54.385Z</time></trkpt><trkpt lat="45.2965004" lon="8.2201324"><ele>158.0</ele><time>2026-04-20T07:53:55.39Z</time></trkpt><trkpt lat="45.2963383" lon="8.2203464"><ele>158.0</ele><time>2026-04-20T07:53:56.391Z</time></trkpt><trkpt lat="45.2961748" lon="8.2205575"><ele>158.0</ele><time>2026-04-20T07:53:57.39Z</time></trkpt><trkpt lat="45.2960164" lon="8.2207678"><ele>158.0</ele><time>2026-04-20T07:53:58.388Z</time></trkpt><trkpt lat="45.2958696" lon="8.2209723"><ele>157.66666666666666</ele><time>2026-04-20T07:53:59.396Z</time></trkpt><trkpt lat="45.2957135" lon="8.2211795"><ele>157.33333333333334</ele><time>2026-04-20T07:54:00.389Z</time></trkpt><trkpt lat="45.2955567" lon="8.2213879"><ele>157.0</ele><time>2026-04-20T07:54:01.388Z</time></trkpt><trkpt lat="45.2954081" lon="8.2216069"><ele>157.0</ele><time>2026-04-20T07:54:02.389Z</time></trkpt><trkpt lat="45.2952534" lon="8.2218318"><ele>157.0</ele><time>2026-04-20T07:54:03.386Z</time></trkpt><trkpt lat="45.2950982" lon="8.2220479"><ele>157.0</ele><time>2026-04-20T07:54:04.388Z</time></trkpt><trkpt lat="45.2949335" lon="8.2222597"><ele>157.0</ele><time>2026-04-20T07:54:05.386Z</time></trkpt><trkpt lat="45.2947661" lon="8.2224706"><ele>157.0</ele><time>2026-04-20T07:54:06.388Z</time></trkpt><trkpt lat="45.2945981" lon="8.2226771"><ele>157.0</ele><time>2026-04-20T07:54:07.389Z</time></trkpt><trkpt lat="45.2944505" lon="8.2228979"><ele>157.0</ele><time>2026-04-20T07:54:08.387Z</time></trkpt><trkpt lat="45.2942842" lon="8.223116"><ele>157.0</ele><time>2026-04-20T07:54:09.391Z</time></trkpt><trkpt lat="45.2941214" lon="8.2233397"><ele>157.0</ele><time>2026-04-20T07:54:10.388Z</time></trkpt><trkpt lat="45.2939694" lon="8.2235518"><ele>157.0</ele><time>2026-04-20T07:54:11.391Z</time></trkpt><trkpt lat="45.2938237" lon="8.2237754"><ele>157.0</ele><time>2026-04-20T07:54:12.389Z</time></trkpt><trkpt lat="45.2936673" lon="8.2240048"><ele>157.0</ele><time>2026-04-20T07:54:13.388Z</time></trkpt><trkpt lat="45.2935377" lon="8.2242483"><ele>157.0</ele><time>2026-04-20T07:54:14.381Z</time></trkpt><trkpt lat="45.2933946" lon="8.2244956"><ele>157.0</ele><time>2026-04-20T07:54:15.384Z</time></trkpt><trkpt lat="45.2932535" lon="8.224725"><ele>157.0</ele><time>2026-04-20T07:54:16.384Z</time></trkpt><trkpt lat="45.2931207" lon="8.2249706"><ele>157.0</ele><time>2026-04-20T07:54:17.383Z</time></trkpt><trkpt lat="45.2929908" lon="8.2252121"><ele>157.0</ele><time>2026-04-20T07:54:18.386Z</time></trkpt><trkpt lat="45.292849" lon="8.2254432"><ele>156.66666666666669</ele><time>2026-04-20T07:54:19.392Z</time></trkpt><trkpt lat="45.2927057" lon="8.2256848"><ele>156.33333333333334</ele><time>2026-04-20T07:54:20.39Z</time></trkpt><trkpt lat="45.292563" lon="8.2259238"><ele>156.0</ele><time>2026-04-20T07:54:21.388Z</time></trkpt><trkpt lat="45.2924287" lon="8.2261533"><ele>156.0</ele><time>2026-04-20T07:54:22.392Z</time></trkpt><trkpt lat="45.2922911" lon="8.2263941"><ele>156.0</ele><time>2026-04-20T07:54:23.39Z</time></trkpt><trkpt lat="45.2921624" lon="8.2266493"><ele>156.0</ele><time>2026-04-20T07:54:24.391Z</time></trkpt><trkpt lat="45.2920285" lon="8.2268866"><ele>156.0</ele><time>2026-04-20T07:54:25.391Z</time></trkpt><trkpt lat="45.2918862" lon="8.2271356"><ele>156.0</ele><time>2026-04-20T07:54:26.384Z</time></trkpt><trkpt lat="45.2917444" lon="8.2273777"><ele>156.0</ele><time>2026-04-20T07:54:27.389Z</time></trkpt><trkpt lat="45.2916002" lon="8.227611"><ele>156.0</ele><time>2026-04-20T07:54:28.392Z</time></trkpt><trkpt lat="45.2914541" lon="8.227847"><ele>156.0</ele><time>2026-04-20T07:54:29.393Z</time></trkpt><trkpt lat="45.2913069" lon="8.2280861"><ele>156.0</ele><time>2026-04-20T07:54:30.392Z</time></trkpt><trkpt lat="45.2911645" lon="8.2283269"><ele>156.0</ele><time>2026-04-20T07:54:31.391Z</time></trkpt><trkpt lat="45.2910109" lon="8.2285711"><ele>156.0</ele><time>2026-04-20T07:54:32.39Z</time></trkpt><trkpt lat="45.2908687" lon="8.2288128"><ele>156.0</ele><time>2026-04-20T07:54:33.388Z</time></trkpt><trkpt lat="45.2907293" lon="8.2290574"><ele>156.0</ele><time>2026-04-20T07:54:34.386Z</time></trkpt><trkpt lat="45.2905942" lon="8.2292948"><ele>156.0</ele><time>2026-04-20T07:54:35.388Z</time></trkpt><trkpt lat="45.2904571" lon="8.2295374"><ele>156.0</ele><time>2026-04-20T07:54:36.383Z</time></trkpt><trkpt lat="45.2903267" lon="8.229778"><ele>156.0</ele><time>2026-04-20T07:54:37.388Z</time></trkpt><trkpt lat="45.2901881" lon="8.2300214"><ele>156.0</ele><time>2026-04-20T07:54:38.382Z</time></trkpt><trkpt lat="45.2900526" lon="8.230269"><ele>156.0</ele><time>2026-04-20T07:54:39.382Z</time></trkpt><trkpt lat="45.2899239" lon="8.2305156"><ele>156.0</ele><time>2026-04-20T07:54:40.384Z</time></trkpt><trkpt lat="45.2897889" lon="8.2307548"><ele>156.0</ele><time>2026-04-20T07:54:41.387Z</time></trkpt><trkpt lat="45.2896459" lon="8.2309949"><ele>155.33333333333334</ele><time>2026-04-20T07:54:42.388Z</time></trkpt><trkpt lat="45.2895109" lon="8.2312451"><ele>154.66666666666669</ele><time>2026-04-20T07:54:43.387Z</time></trkpt><trkpt lat="45.2893782" lon="8.2315003"><ele>154.0</ele><time>2026-04-20T07:54:44.389Z</time></trkpt><trkpt lat="45.2892297" lon="8.2317394"><ele>154.0</ele><time>2026-04-20T07:54:45.388Z</time></trkpt><trkpt lat="45.2890882" lon="8.2319635"><ele>154.0</ele><time>2026-04-20T07:54:46.394Z</time></trkpt><trkpt lat="45.2889445" lon="8.2322077"><ele>154.0</ele><time>2026-04-20T07:54:47.392Z</time></trkpt><trkpt lat="45.2888095" lon="8.2324473"><ele>154.0</ele><time>2026-04-20T07:54:48.393Z</time></trkpt><trkpt lat="45.2886665" lon="8.2326849"><ele>154.0</ele><time>2026-04-20T07:54:49.395Z</time></trkpt><trkpt lat="45.2885184" lon="8.2329186"><ele>154.0</ele><time>2026-04-20T07:54:50.396Z</time></trkpt><trkpt lat="45.2883908" lon="8.233162"><ele>154.0</ele><time>2026-04-20T07:54:51.395Z</time></trkpt><trkpt lat="45.2882497" lon="8.2334102"><ele>154.0</ele><time>2026-04-20T07:54:52.4Z</time></trkpt><trkpt lat="45.2881223" lon="8.233652"><ele>154.0</ele><time>2026-04-20T07:54:53.399Z</time></trkpt><trkpt lat="45.2879742" lon="8.2338948"><ele>154.0</ele><time>2026-04-20T07:54:54.397Z</time></trkpt><trkpt lat="45.2878356" lon="8.2341312"><ele>154.0</ele><time>2026-04-20T07:54:55.398Z</time></trkpt><trkpt lat="45.2876886" lon="8.234382"><ele>154.0</ele><time>2026-04-20T07:54:56.402Z</time></trkpt><trkpt lat="45.2875591" lon="8.2346293"><ele>153.66666666666669</ele><time>2026-04-20T07:54:57.399Z</time></trkpt><trkpt lat="45.2874213" lon="8.2348598"><ele>153.33333333333334</ele><time>2026-04-20T07:54:58.401Z</time></trkpt><trkpt lat="45.2872835" lon="8.2350927"><ele>153.0</ele><time>2026-04-20T07:54:59.402Z</time></trkpt><trkpt lat="45.2871413" lon="8.2353342"><ele>153.0</ele><time>2026-04-20T07:55:00.406Z</time></trkpt><trkpt lat="45.2870026" lon="8.2355732"><ele>153.0</ele><time>2026-04-20T07:55:01.404Z</time></trkpt><trkpt lat="45.2868602" lon="8.2358042"><ele>153.0</ele><time>2026-04-20T07:55:02.403Z</time></trkpt><trkpt lat="45.2867114" lon="8.2360327"><ele>153.0</ele><time>2026-04-20T07:55:03.389Z</time></trkpt><trkpt lat="45.2865823" lon="8.2362724"><ele>153.0</ele><time>2026-04-20T07:55:04.388Z</time></trkpt><trkpt lat="45.2864408" lon="8.236523"><ele>153.0</ele><time>2026-04-20T07:55:05.392Z</time></trkpt><trkpt lat="45.2862977" lon="8.2367682"><ele>153.0</ele><time>2026-04-20T07:55:06.388Z</time></trkpt><trkpt lat="45.2861562" lon="8.2370133"><ele>153.0</ele><time>2026-04-20T07:55:07.388Z</time></trkpt><trkpt lat="45.2860209" lon="8.2372569"><ele>153.0</ele><time>2026-04-20T07:55:08.391Z</time></trkpt><trkpt lat="45.2858869" lon="8.2375066"><ele>153.0</ele><time>2026-04-20T07:55:09.386Z</time></trkpt><trkpt lat="45.2857472" lon="8.2377618"><ele>153.0</ele><time>2026-04-20T07:55:10.39Z</time></trkpt><trkpt lat="45.2856159" lon="8.2380073"><ele>153.0</ele><time>2026-04-20T07:55:11.393Z</time></trkpt><trkpt lat="45.2854742" lon="8.2382542"><ele>152.0</ele><time>2026-04-20T07:55:12.397Z</time></trkpt><trkpt lat="45.2853212" lon="8.2384952"><ele>151.0</ele><time>2026-04-20T07:55:13.392Z</time></trkpt><trkpt lat="45.2851667" lon="8.2387286"><ele>151.33333333333334</ele><time>2026-04-20T07:55:14.403Z</time></trkpt><trkpt lat="45.2850247" lon="8.2389742"><ele>151.66666666666666</ele><time>2026-04-20T07:55:15.397Z</time></trkpt><trkpt lat="45.2848756" lon="8.2392023"><ele>152.0</ele><time>2026-04-20T07:55:16.393Z</time></trkpt><trkpt lat="45.2847275" lon="8.2394362"><ele>152.0</ele><time>2026-04-20T07:55:17.392Z</time></trkpt><trkpt lat="45.2845748" lon="8.2396563"><ele>152.0</ele><time>2026-04-20T07:55:18.392Z</time></trkpt><trkpt lat="45.2844261" lon="8.2398871"><ele>152.0</ele><time>2026-04-20T07:55:19.395Z</time></trkpt><trkpt lat="45.2842711" lon="8.2401218"><ele>152.0</ele><time>2026-04-20T07:55:20.396Z</time></trkpt><trkpt lat="45.2841335" lon="8.2403621"><ele>152.0</ele><time>2026-04-20T07:55:21.393Z</time></trkpt><trkpt lat="45.2839791" lon="8.2406"><ele>152.0</ele><time>2026-04-20T07:55:22.394Z</time></trkpt><trkpt lat="45.2838266" lon="8.2408242"><ele>151.66666666666666</ele><time>2026-04-20T07:55:23.395Z</time></trkpt><trkpt lat="45.2836719" lon="8.2410497"><ele>151.33333333333334</ele><time>2026-04-20T07:55:24.389Z</time></trkpt><trkpt lat="45.2835215" lon="8.2412821"><ele>151.0</ele><time>2026-04-20T07:55:25.392Z</time></trkpt><trkpt lat="45.2833796" lon="8.2415107"><ele>151.0</ele><time>2026-04-20T07:55:26.391Z</time></trkpt><trkpt lat="45.2832295" lon="8.241735"><ele>151.0</ele><time>2026-04-20T07:55:27.385Z</time></trkpt><trkpt lat="45.2830917" lon="8.2419574"><ele>151.0</ele><time>2026-04-20T07:55:28.393Z</time></trkpt><trkpt lat="45.2829339" lon="8.2421855"><ele>151.0</ele><time>2026-04-20T07:55:29.392Z</time></trkpt><trkpt lat="45.2827866" lon="8.2424084"><ele>151.0</ele><time>2026-04-20T07:55:30.388Z</time></trkpt><trkpt lat="45.2826335" lon="8.2426344"><ele>151.0</ele><time>2026-04-20T07:55:31.394Z</time></trkpt><trkpt lat="45.2824973" lon="8.2428648"><ele>151.0</ele><time>2026-04-20T07:55:32.39Z</time></trkpt><trkpt lat="45.2823448" lon="8.243094"><ele>151.0</ele><time>2026-04-20T07:55:33.392Z</time></trkpt><trkpt lat="45.2821988" lon="8.2433261"><ele>151.0</ele><time>2026-04-20T07:55:34.389Z</time></trkpt><trkpt lat="45.2820641" lon="8.2435533"><ele>151.0</ele><time>2026-04-20T07:55:35.399Z</time></trkpt><trkpt lat="45.2819381" lon="8.2437785"><ele>151.0</ele><time>2026-04-20T07:55:36.389Z</time></trkpt><trkpt lat="45.281794" lon="8.2440152"><ele>151.0</ele><time>2026-04-20T07:55:37.389Z</time></trkpt><trkpt lat="45.2816642" lon="8.2442609"><ele>151.0</ele><time>2026-04-20T07:55:38.391Z</time></trkpt><trkpt lat="45.2815237" lon="8.2445036"><ele>151.0</ele><time>2026-04-20T07:55:39.394Z</time></trkpt><trkpt lat="45.2813897" lon="8.2447571"><ele>151.0</ele><time>2026-04-20T07:55:40.405Z</time></trkpt><trkpt lat="45.2812529" lon="8.2449952"><ele>151.0</ele><time>2026-04-20T07:55:41.395Z</time></trkpt><trkpt lat="45.2811093" lon="8.2452231"><ele>151.0</ele><time>2026-04-20T07:55:42.396Z</time></trkpt><trkpt lat="45.2809687" lon="8.2454642"><ele>151.0</ele><time>2026-04-20T07:55:43.397Z</time></trkpt><trkpt lat="45.2808258" lon="8.2456931"><ele>151.0</ele><time>2026-04-20T07:55:44.389Z</time></trkpt><trkpt lat="45.2806873" lon="8.2459324"><ele>151.0</ele><time>2026-04-20T07:55:45.392Z</time></trkpt><trkpt lat="45.2805484" lon="8.2461647"><ele>151.0</ele><time>2026-04-20T07:55:46.407Z</time></trkpt><trkpt lat="45.2804073" lon="8.2464074"><ele>151.0</ele><time>2026-04-20T07:55:47.395Z</time></trkpt><trkpt lat="45.2802664" lon="8.2466481"><ele>151.0</ele><time>2026-04-20T07:55:48.391Z</time></trkpt><trkpt lat="45.2801265" lon="8.2468941"><ele>151.0</ele><time>2026-04-20T07:55:49.392Z</time></trkpt><trkpt lat="45.2799906" lon="8.2471472"><ele>151.33333333333334</ele><time>2026-04-20T07:55:50.401Z</time></trkpt><trkpt lat="45.2798522" lon="8.2473979"><ele>151.66666666666666</ele><time>2026-04-20T07:55:51.407Z</time></trkpt><trkpt lat="45.2797385" lon="8.2476545"><ele>152.0</ele><time>2026-04-20T07:55:52.397Z</time></trkpt><trkpt lat="45.2796081" lon="8.2479196"><ele>151.0</ele><time>2026-04-20T07:55:53.395Z</time></trkpt><trkpt lat="45.2794887" lon="8.248174"><ele>150.0</ele><time>2026-04-20T07:55:54.398Z</time></trkpt><trkpt lat="45.2793761" lon="8.2484162"><ele>149.0</ele><time>2026-04-20T07:55:55.389Z</time></trkpt><trkpt lat="45.2792638" lon="8.2486814"><ele>149.0</ele><time>2026-04-20T07:55:56.404Z</time></trkpt><trkpt lat="45.2791515" lon="8.2489553"><ele>149.0</ele><time>2026-04-20T07:55:57.388Z</time></trkpt><trkpt lat="45.2790495" lon="8.2492359"><ele>149.0</ele><time>2026-04-20T07:55:58.394Z</time></trkpt><trkpt lat="45.278944" lon="8.2495213"><ele>149.0</ele><time>2026-04-20T07:55:59.391Z</time></trkpt><trkpt lat="45.2788413" lon="8.2498054"><ele>149.0</ele><time>2026-04-20T07:56:00.399Z</time></trkpt><trkpt lat="45.2787441" lon="8.2500765"><ele>149.0</ele><time>2026-04-20T07:56:01.407Z</time></trkpt><trkpt lat="45.2786394" lon="8.2503547"><ele>149.0</ele><time>2026-04-20T07:56:02.395Z</time></trkpt><trkpt lat="45.2785486" lon="8.2506421"><ele>149.0</ele><time>2026-04-20T07:56:03.403Z</time></trkpt><trkpt lat="45.2784529" lon="8.2509228"><ele>149.0</ele><time>2026-04-20T07:56:04.398Z</time></trkpt><trkpt lat="45.2783612" lon="8.2511884"><ele>149.0</ele><time>2026-04-20T07:56:05.399Z</time></trkpt><trkpt lat="45.2782622" lon="8.2514579"><ele>149.0</ele><time>2026-04-20T07:56:06.4Z</time></trkpt><trkpt lat="45.2781692" lon="8.2517402"><ele>149.0</ele><time>2026-04-20T07:56:07.411Z</time></trkpt><trkpt lat="45.2780737" lon="8.2520168"><ele>149.0</ele><time>2026-04-20T07:56:08.39Z</time></trkpt><trkpt lat="45.2779778" lon="8.2522886"><ele>149.0</ele><time>2026-04-20T07:56:09.391Z</time></trkpt><trkpt lat="45.2778738" lon="8.2525563"><ele>149.0</ele><time>2026-04-20T07:56:10.395Z</time></trkpt><trkpt lat="45.2777779" lon="8.2528188"><ele>149.0</ele><time>2026-04-20T07:56:11.395Z</time></trkpt><trkpt lat="45.2776801" lon="8.253082"><ele>149.0</ele><time>2026-04-20T07:56:12.404Z</time></trkpt><trkpt lat="45.2775922" lon="8.2533504"><ele>149.0</ele><time>2026-04-20T07:56:13.39Z</time></trkpt><trkpt lat="45.2774966" lon="8.253617"><ele>149.0</ele><time>2026-04-20T07:56:14.398Z</time></trkpt><trkpt lat="45.2773925" lon="8.2538719"><ele>149.0</ele><time>2026-04-20T07:56:15.396Z</time></trkpt><trkpt lat="45.2773089" lon="8.2541349"><ele>149.0</ele><time>2026-04-20T07:56:16.392Z</time></trkpt><trkpt lat="45.2772171" lon="8.2543671"><ele>149.33333333333331</ele><time>2026-04-20T07:56:17.413Z</time></trkpt><trkpt lat="45.2771446" lon="8.2545845"><ele>149.66666666666666</ele><time>2026-04-20T07:56:18.395Z</time></trkpt><trkpt lat="45.2770743" lon="8.2547999"><ele>150.0</ele><time>2026-04-20T07:56:19.399Z</time></trkpt><trkpt lat="45.2770022" lon="8.2550143"><ele>150.66666666666666</ele><time>2026-04-20T07:56:20.39Z</time></trkpt><trkpt lat="45.2769132" lon="8.2552114"><ele>151.33333333333331</ele><time>2026-04-20T07:56:21.395Z</time></trkpt><trkpt lat="45.2768456" lon="8.2554194"><ele>152.0</ele><time>2026-04-20T07:56:22.394Z</time></trkpt><trkpt lat="45.2767686" lon="8.2555814"><ele>152.0</ele><time>2026-04-20T07:56:23.396Z</time></trkpt><trkpt lat="45.27667" lon="8.2557086"><ele>152.0</ele><time>2026-04-20T07:56:24.379Z</time></trkpt><trkpt lat="45.276524" lon="8.2557907"><ele>152.0</ele><time>2026-04-20T07:56:25.377Z</time></trkpt><trkpt lat="45.2763775" lon="8.2558332"><ele>152.0</ele><time>2026-04-20T07:56:26.376Z</time></trkpt><trkpt lat="45.2762285" lon="8.2558556"><ele>151.0</ele><time>2026-04-20T07:56:27.362Z</time></trkpt><trkpt lat="45.2760624" lon="8.2558517"><ele>150.0</ele><time>2026-04-20T07:56:28.377Z</time></trkpt><trkpt lat="45.2758752" lon="8.2558437"><ele>149.0</ele><time>2026-04-20T07:56:29.374Z</time></trkpt><trkpt lat="45.2756828" lon="8.2558299"><ele>148.33333333333331</ele><time>2026-04-20T07:56:30.362Z</time></trkpt><trkpt lat="45.2754697" lon="8.2558186"><ele>147.66666666666666</ele><time>2026-04-20T07:56:31.381Z</time></trkpt><trkpt lat="45.2752482" lon="8.2558153"><ele>147.0</ele><time>2026-04-20T07:56:32.391Z</time></trkpt><trkpt lat="45.27503" lon="8.2557979"><ele>147.0</ele><time>2026-04-20T07:56:33.406Z</time></trkpt><trkpt lat="45.2748054" lon="8.2557638"><ele>147.0</ele><time>2026-04-20T07:56:34.396Z</time></trkpt><trkpt lat="45.2745943" lon="8.2557061"><ele>147.0</ele><time>2026-04-20T07:56:35.377Z</time></trkpt><trkpt lat="45.2743743" lon="8.2556051"><ele>147.5</ele><time>2026-04-20T07:56:36.382Z</time></trkpt><trkpt lat="45.2741588" lon="8.2554921"><ele>148.0</ele><time>2026-04-20T07:56:37.39Z</time></trkpt><trkpt lat="45.2739429" lon="8.255385"><ele>147.5</ele><time>2026-04-20T07:56:38.4Z</time></trkpt><trkpt lat="45.27372" lon="8.2552905"><ele>147.0</ele><time>2026-04-20T07:56:39.384Z</time></trkpt><trkpt lat="45.2734951" lon="8.2552021"><ele>147.0</ele><time>2026-04-20T07:56:40.385Z</time></trkpt><trkpt lat="45.2732827" lon="8.2551054"><ele>147.0</ele><time>2026-04-20T07:56:41.384Z</time></trkpt><trkpt lat="45.273063" lon="8.2550053"><ele>147.0</ele><time>2026-04-20T07:56:42.388Z</time></trkpt><trkpt lat="45.2728472" lon="8.2549021"><ele>147.0</ele><time>2026-04-20T07:56:43.396Z</time></trkpt><trkpt lat="45.2726397" lon="8.254783"><ele>147.0</ele><time>2026-04-20T07:56:44.387Z</time></trkpt><trkpt lat="45.2724346" lon="8.2546431"><ele>147.0</ele><time>2026-04-20T07:56:45.385Z</time></trkpt><trkpt lat="45.2722341" lon="8.2544875"><ele>146.66666666666666</ele><time>2026-04-20T07:56:46.381Z</time></trkpt><trkpt lat="45.2720329" lon="8.2543533"><ele>146.33333333333331</ele><time>2026-04-20T07:56:47.382Z</time></trkpt><trkpt lat="45.2718352" lon="8.2542103"><ele>146.0</ele><time>2026-04-20T07:56:48.39Z</time></trkpt><trkpt lat="45.271627" lon="8.2540686"><ele>147.0</ele><time>2026-04-20T07:56:49.39Z</time></trkpt><trkpt lat="45.2714225" lon="8.2539268"><ele>148.0</ele><time>2026-04-20T07:56:50.385Z</time></trkpt><trkpt lat="45.2712192" lon="8.2537889"><ele>148.0</ele><time>2026-04-20T07:56:51.384Z</time></trkpt><trkpt lat="45.2710088" lon="8.2536573"><ele>148.0</ele><time>2026-04-20T07:56:52.392Z</time></trkpt><trkpt lat="45.2708059" lon="8.2535247"><ele>148.5</ele><time>2026-04-20T07:56:53.403Z</time></trkpt><trkpt lat="45.2706032" lon="8.2533896"><ele>149.0</ele><time>2026-04-20T07:56:54.388Z</time></trkpt><trkpt lat="45.2703948" lon="8.2532528"><ele>148.66666666666666</ele><time>2026-04-20T07:56:55.386Z</time></trkpt><trkpt lat="45.2701954" lon="8.2531162"><ele>148.33333333333334</ele><time>2026-04-20T07:56:56.389Z</time></trkpt><trkpt lat="45.2699946" lon="8.2529781"><ele>148.0</ele><time>2026-04-20T07:56:57.382Z</time></trkpt><trkpt lat="45.2698094" lon="8.2528404"><ele>148.66666666666669</ele><time>2026-04-20T07:56:58.398Z</time></trkpt><trkpt lat="45.2696379" lon="8.2527258"><ele>149.33333333333334</ele><time>2026-04-20T07:56:59.382Z</time></trkpt><trkpt lat="45.2694762" lon="8.2526232"><ele>150.0</ele><time>2026-04-20T07:57:00.392Z</time></trkpt><trkpt lat="45.2693442" lon="8.2525515"><ele>150.0</ele><time>2026-04-20T07:57:01.389Z</time></trkpt><trkpt lat="45.2692008" lon="8.2524873"><ele>150.0</ele><time>2026-04-20T07:57:02.396Z</time></trkpt><trkpt lat="45.2690437" lon="8.2524458"><ele>150.0</ele><time>2026-04-20T07:57:03.395Z</time></trkpt><trkpt lat="45.26888" lon="8.2524723"><ele>150.33333333333334</ele><time>2026-04-20T07:57:04.386Z</time></trkpt><trkpt lat="45.2687346" lon="8.2525496"><ele>150.66666666666669</ele><time>2026-04-20T07:57:05.38Z</time></trkpt><trkpt lat="45.2685805" lon="8.2526642"><ele>151.0</ele><time>2026-04-20T07:57:06.377Z</time></trkpt><trkpt lat="45.2684354" lon="8.2527986"><ele>151.0</ele><time>2026-04-20T07:57:07.383Z</time></trkpt><trkpt lat="45.268276" lon="8.2529541"><ele>151.0</ele><time>2026-04-20T07:57:08.38Z</time></trkpt><trkpt lat="45.2681331" lon="8.2531035"><ele>151.0</ele><time>2026-04-20T07:57:09.381Z</time></trkpt><trkpt lat="45.2679753" lon="8.2532546"><ele>150.66666666666669</ele><time>2026-04-20T07:57:10.378Z</time></trkpt><trkpt lat="45.2678292" lon="8.2534042"><ele>150.33333333333334</ele><time>2026-04-20T07:57:11.385Z</time></trkpt><trkpt lat="45.2676845" lon="8.2535519"><ele>150.0</ele><time>2026-04-20T07:57:12.386Z</time></trkpt><trkpt lat="45.2675207" lon="8.2537093"><ele>150.0</ele><time>2026-04-20T07:57:13.389Z</time></trkpt><trkpt lat="45.2673823" lon="8.2538541"><ele>150.0</ele><time>2026-04-20T07:57:14.395Z</time></trkpt><trkpt lat="45.267239" lon="8.2539928"><ele>150.0</ele><time>2026-04-20T07:57:15.39Z</time></trkpt><trkpt lat="45.2671149" lon="8.2541298"><ele>149.75</ele><time>2026-04-20T07:57:16.389Z</time></trkpt><trkpt lat="45.2669968" lon="8.2542569"><ele>149.5</ele><time>2026-04-20T07:57:17.39Z</time></trkpt><trkpt lat="45.266864" lon="8.2543679"><ele>149.25</ele><time>2026-04-20T07:57:18.392Z</time></trkpt><trkpt lat="45.2667445" lon="8.254483"><ele>149.0</ele><time>2026-04-20T07:57:19.392Z</time></trkpt><trkpt lat="45.2666432" lon="8.2545768"><ele>149.0</ele><time>2026-04-20T07:57:20.392Z</time></trkpt><trkpt lat="45.2665417" lon="8.2546564"><ele>149.0</ele><time>2026-04-20T07:57:21.383Z</time></trkpt><trkpt lat="45.2664643" lon="8.2546984"><ele>149.0</ele><time>2026-04-20T07:57:22.391Z</time></trkpt><trkpt lat="45.2663686" lon="8.2547071"><ele>149.0</ele><time>2026-04-20T07:57:23.377Z</time></trkpt><trkpt lat="45.2662657" lon="8.2547181"><ele>149.0</ele><time>2026-04-20T07:57:24.393Z</time></trkpt><trkpt lat="45.2661756" lon="8.2547561"><ele>149.4</ele><time>2026-04-20T07:57:25.381Z</time></trkpt><trkpt lat="45.2661146" lon="8.2548121"><ele>149.8</ele><time>2026-04-20T07:57:26.388Z</time></trkpt><trkpt lat="45.2660591" lon="8.2549507"><ele>150.2</ele><time>2026-04-20T07:57:28.383Z</time></trkpt><trkpt lat="45.2660439" lon="8.2550536"><ele>150.6</ele><time>2026-04-20T07:57:29.377Z</time></trkpt><trkpt lat="45.266028" lon="8.2551679"><ele>151.0</ele><time>2026-04-20T07:57:30.39Z</time></trkpt><trkpt lat="45.2659762" lon="8.2553105"><ele>151.0</ele><time>2026-04-20T07:57:31.374Z</time></trkpt><trkpt lat="45.2658947" lon="8.2554502"><ele>151.0</ele><time>2026-04-20T07:57:32.374Z</time></trkpt><trkpt lat="45.2657701" lon="8.2555909"><ele>151.0</ele><time>2026-04-20T07:57:33.389Z</time></trkpt><trkpt lat="45.2656151" lon="8.2557301"><ele>150.0</ele><time>2026-04-20T07:57:34.375Z</time></trkpt><trkpt lat="45.2654433" lon="8.255875"><ele>149.0</ele><time>2026-04-20T07:57:35.391Z</time></trkpt><trkpt lat="45.265277" lon="8.2560145"><ele>148.0</ele><time>2026-04-20T07:57:36.385Z</time></trkpt><trkpt lat="45.2651279" lon="8.2561597"><ele>148.0</ele><time>2026-04-20T07:57:37.382Z</time></trkpt><trkpt lat="45.2649714" lon="8.2563061"><ele>148.0</ele><time>2026-04-20T07:57:38.389Z</time></trkpt><trkpt lat="45.2648256" lon="8.2564616"><ele>148.0</ele><time>2026-04-20T07:57:39.388Z</time></trkpt><trkpt lat="45.2646649" lon="8.2566163"><ele>148.66666666666669</ele><time>2026-04-20T07:57:40.383Z</time></trkpt><trkpt lat="45.2645023" lon="8.2567792"><ele>149.33333333333334</ele><time>2026-04-20T07:57:41.388Z</time></trkpt><trkpt lat="45.2643304" lon="8.2569378"><ele>150.0</ele><time>2026-04-20T07:57:42.4Z</time></trkpt><trkpt lat="45.2641735" lon="8.2571077"><ele>150.0</ele><time>2026-04-20T07:57:43.394Z</time></trkpt><trkpt lat="45.2640099" lon="8.2572733"><ele>150.0</ele><time>2026-04-20T07:57:44.395Z</time></trkpt><trkpt lat="45.2638482" lon="8.257431"><ele>150.0</ele><time>2026-04-20T07:57:45.395Z</time></trkpt><trkpt lat="45.263683" lon="8.2575878"><ele>149.66666666666666</ele><time>2026-04-20T07:57:46.387Z</time></trkpt><trkpt lat="45.2635165" lon="8.2577566"><ele>149.33333333333331</ele><time>2026-04-20T07:57:47.39Z</time></trkpt><trkpt lat="45.2633525" lon="8.2579251"><ele>149.0</ele><time>2026-04-20T07:57:48.393Z</time></trkpt><trkpt lat="45.2631849" lon="8.2580959"><ele>149.0</ele><time>2026-04-20T07:57:49.389Z</time></trkpt><trkpt lat="45.2630151" lon="8.2582703"><ele>149.0</ele><time>2026-04-20T07:57:50.391Z</time></trkpt><trkpt lat="45.2628456" lon="8.2584426"><ele>149.0</ele><time>2026-04-20T07:57:51.386Z</time></trkpt><trkpt lat="45.2626775" lon="8.2586176"><ele>149.0</ele><time>2026-04-20T07:57:52.392Z</time></trkpt><trkpt lat="45.2625115" lon="8.2587844"><ele>149.0</ele><time>2026-04-20T07:57:53.387Z</time></trkpt><trkpt lat="45.2623301" lon="8.2589547"><ele>149.0</ele><time>2026-04-20T07:57:54.387Z</time></trkpt><trkpt lat="45.2621618" lon="8.2591298"><ele>149.0</ele><time>2026-04-20T07:57:55.395Z</time></trkpt><trkpt lat="45.2619879" lon="8.2592974"><ele>149.0</ele><time>2026-04-20T07:57:56.388Z</time></trkpt><trkpt lat="45.2618203" lon="8.2594796"><ele>149.0</ele><time>2026-04-20T07:57:57.397Z</time></trkpt><trkpt lat="45.2616428" lon="8.2596418"><ele>148.33333333333331</ele><time>2026-04-20T07:57:58.391Z</time></trkpt><trkpt lat="45.2614677" lon="8.2598113"><ele>147.66666666666666</ele><time>2026-04-20T07:57:59.399Z</time></trkpt><trkpt lat="45.261294" lon="8.2599757"><ele>147.0</ele><time>2026-04-20T07:58:00.394Z</time></trkpt><trkpt lat="45.2611276" lon="8.2601402"><ele>147.0</ele><time>2026-04-20T07:58:01.392Z</time></trkpt><trkpt lat="45.2609544" lon="8.2603019"><ele>147.0</ele><time>2026-04-20T07:58:02.387Z</time></trkpt><trkpt lat="45.2607917" lon="8.2604774"><ele>147.0</ele><time>2026-04-20T07:58:03.388Z</time></trkpt><trkpt lat="45.2606248" lon="8.2606644"><ele>146.66666666666666</ele><time>2026-04-20T07:58:04.386Z</time></trkpt><trkpt lat="45.2604468" lon="8.2608462"><ele>146.33333333333331</ele><time>2026-04-20T07:58:05.396Z</time></trkpt><trkpt lat="45.2602763" lon="8.261025"><ele>146.0</ele><time>2026-04-20T07:58:06.393Z</time></trkpt><trkpt lat="45.2600908" lon="8.2612052"><ele>146.0</ele><time>2026-04-20T07:58:07.414Z</time></trkpt><trkpt lat="45.2599236" lon="8.261373"><ele>146.0</ele><time>2026-04-20T07:58:08.396Z</time></trkpt><trkpt lat="45.2597588" lon="8.2615463"><ele>146.0</ele><time>2026-04-20T07:58:09.393Z</time></trkpt><trkpt lat="45.2595896" lon="8.2617222"><ele>146.33333333333331</ele><time>2026-04-20T07:58:10.394Z</time></trkpt><trkpt lat="45.2594051" lon="8.2618981"><ele>146.66666666666666</ele><time>2026-04-20T07:58:11.388Z</time></trkpt><trkpt lat="45.2592411" lon="8.2620723"><ele>147.0</ele><time>2026-04-20T07:58:12.413Z</time></trkpt><trkpt lat="45.2590794" lon="8.2622404"><ele>147.0</ele><time>2026-04-20T07:58:13.396Z</time></trkpt><trkpt lat="45.2589087" lon="8.2624138"><ele>147.0</ele><time>2026-04-20T07:58:14.399Z</time></trkpt><trkpt lat="45.2587332" lon="8.2625788"><ele>147.0</ele><time>2026-04-20T07:58:15.387Z</time></trkpt><trkpt lat="45.2585719" lon="8.2627453"><ele>147.0</ele><time>2026-04-20T07:58:16.394Z</time></trkpt><trkpt lat="45.2584109" lon="8.2629146"><ele>147.0</ele><time>2026-04-20T07:58:17.406Z</time></trkpt><trkpt lat="45.2582756" lon="8.2630816"><ele>147.0</ele><time>2026-04-20T07:58:18.385Z</time></trkpt><trkpt lat="45.258164" lon="8.2632648"><ele>147.0</ele><time>2026-04-20T07:58:19.379Z</time></trkpt><trkpt lat="45.2580536" lon="8.2634971"><ele>147.0</ele><time>2026-04-20T07:58:20.375Z</time></trkpt><trkpt lat="45.2579559" lon="8.2637523"><ele>147.0</ele><time>2026-04-20T07:58:21.379Z</time></trkpt><trkpt lat="45.2578784" lon="8.2640212"><ele>147.0</ele><time>2026-04-20T07:58:22.409Z</time></trkpt><trkpt lat="45.2578116" lon="8.2643005"><ele>147.0</ele><time>2026-04-20T07:58:23.392Z</time></trkpt><trkpt lat="45.2577498" lon="8.2645791"><ele>147.0</ele><time>2026-04-20T07:58:24.391Z</time></trkpt><trkpt lat="45.257676" lon="8.2648585"><ele>147.0</ele><time>2026-04-20T07:58:25.4Z</time></trkpt><trkpt lat="45.2576053" lon="8.2651389"><ele>147.0</ele><time>2026-04-20T07:58:26.395Z</time></trkpt><trkpt lat="45.2575292" lon="8.265395"><ele>147.0</ele><time>2026-04-20T07:58:27.416Z</time></trkpt><trkpt lat="45.2574437" lon="8.2656694"><ele>146.66666666666666</ele><time>2026-04-20T07:58:28.391Z</time></trkpt><trkpt lat="45.2573683" lon="8.2659513"><ele>146.33333333333331</ele><time>2026-04-20T07:58:29.401Z</time></trkpt><trkpt lat="45.2573017" lon="8.2662379"><ele>146.0</ele><time>2026-04-20T07:58:30.397Z</time></trkpt><trkpt lat="45.2572292" lon="8.2665102"><ele>145.33333333333331</ele><time>2026-04-20T07:58:31.393Z</time></trkpt><trkpt lat="45.2571542" lon="8.2667899"><ele>144.66666666666666</ele><time>2026-04-20T07:58:32.405Z</time></trkpt><trkpt lat="45.2570843" lon="8.2670631"><ele>144.0</ele><time>2026-04-20T07:58:33.396Z</time></trkpt><trkpt lat="45.2570071" lon="8.2673316"><ele>144.0</ele><time>2026-04-20T07:58:34.4Z</time></trkpt><trkpt lat="45.2569391" lon="8.2676119"><ele>144.0</ele><time>2026-04-20T07:58:35.403Z</time></trkpt><trkpt lat="45.2568783" lon="8.2678966"><ele>144.0</ele><time>2026-04-20T07:58:36.393Z</time></trkpt><trkpt lat="45.256809" lon="8.2681824"><ele>144.33333333333334</ele><time>2026-04-20T07:58:37.417Z</time></trkpt><trkpt lat="45.2567392" lon="8.268453"><ele>144.66666666666669</ele><time>2026-04-20T07:58:38.398Z</time></trkpt><trkpt lat="45.2566585" lon="8.2687263"><ele>145.0</ele><time>2026-04-20T07:58:39.403Z</time></trkpt><trkpt lat="45.2565855" lon="8.2689931"><ele>145.0</ele><time>2026-04-20T07:58:40.398Z</time></trkpt><trkpt lat="45.2565302" lon="8.2692362"><ele>145.0</ele><time>2026-04-20T07:58:41.399Z</time></trkpt><trkpt lat="45.2564638" lon="8.2694506"><ele>145.0</ele><time>2026-04-20T07:58:42.404Z</time></trkpt><trkpt lat="45.2563988" lon="8.2696594"><ele>144.66666666666669</ele><time>2026-04-20T07:58:43.403Z</time></trkpt><trkpt lat="45.2563451" lon="8.269873"><ele>144.33333333333334</ele><time>2026-04-20T07:58:44.393Z</time></trkpt><trkpt lat="45.2562994" lon="8.2700773"><ele>144.0</ele><time>2026-04-20T07:58:45.393Z</time></trkpt><trkpt lat="45.2562573" lon="8.2702694"><ele>144.0</ele><time>2026-04-20T07:58:46.406Z</time></trkpt><trkpt lat="45.2562164" lon="8.2704628"><ele>144.0</ele><time>2026-04-20T07:58:47.398Z</time></trkpt><trkpt lat="45.2561644" lon="8.270654"><ele>144.0</ele><time>2026-04-20T07:58:48.407Z</time></trkpt><trkpt lat="45.2561095" lon="8.2708397"><ele>144.0</ele><time>2026-04-20T07:58:49.405Z</time></trkpt><trkpt lat="45.2560467" lon="8.2710117"><ele>144.5</ele><time>2026-04-20T07:58:50.402Z</time></trkpt><trkpt lat="45.2559965" lon="8.2712051"><ele>145.0</ele><time>2026-04-20T07:58:51.397Z</time></trkpt><trkpt lat="45.2559443" lon="8.2714017"><ele>145.5</ele><time>2026-04-20T07:58:52.402Z</time></trkpt><trkpt lat="45.2558902" lon="8.2715989"><ele>146.0</ele><time>2026-04-20T07:58:53.404Z</time></trkpt><trkpt lat="45.2558401" lon="8.271803"><ele>146.25</ele><time>2026-04-20T07:58:54.391Z</time></trkpt><trkpt lat="45.255796" lon="8.272008"><ele>146.5</ele><time>2026-04-20T07:58:55.402Z</time></trkpt><trkpt lat="45.2557488" lon="8.2722038"><ele>146.75</ele><time>2026-04-20T07:58:56.394Z</time></trkpt><trkpt lat="45.2556969" lon="8.2724074"><ele>147.0</ele><time>2026-04-20T07:58:57.397Z</time></trkpt><trkpt lat="45.2556493" lon="8.2726139"><ele>146.66666666666666</ele><time>2026-04-20T07:58:58.408Z</time></trkpt><trkpt lat="45.2556037" lon="8.2728324"><ele>146.33333333333331</ele><time>2026-04-20T07:58:59.4Z</time></trkpt><trkpt lat="45.2555449" lon="8.2730314"><ele>146.0</ele><time>2026-04-20T07:59:00.401Z</time></trkpt><trkpt lat="45.2554924" lon="8.2732386"><ele>146.0</ele><time>2026-04-20T07:59:01.395Z</time></trkpt><trkpt lat="45.2554304" lon="8.2734198"><ele>146.0</ele><time>2026-04-20T07:59:02.394Z</time></trkpt><trkpt lat="45.2553755" lon="8.2736059"><ele>146.0</ele><time>2026-04-20T07:59:03.412Z</time></trkpt><trkpt lat="45.2553275" lon="8.2737739"><ele>146.0</ele><time>2026-04-20T07:59:04.395Z</time></trkpt><trkpt lat="45.2552811" lon="8.2739428"><ele>146.0</ele><time>2026-04-20T07:59:05.388Z</time></trkpt><trkpt lat="45.2552392" lon="8.2740909"><ele>146.0</ele><time>2026-04-20T07:59:06.392Z</time></trkpt><trkpt lat="45.2552133" lon="8.2742512"><ele>146.0</ele><time>2026-04-20T07:59:07.391Z</time></trkpt><trkpt lat="45.2551712" lon="8.2744133"><ele>146.0</ele><time>2026-04-20T07:59:08.395Z</time></trkpt><trkpt lat="45.255135" lon="8.2745745"><ele>146.0</ele><time>2026-04-20T07:59:09.406Z</time></trkpt><trkpt lat="45.2550874" lon="8.2747301"><ele>146.0</ele><time>2026-04-20T07:59:10.387Z</time></trkpt><trkpt lat="45.2550479" lon="8.2748763"><ele>146.0</ele><time>2026-04-20T07:59:11.387Z</time></trkpt><trkpt lat="45.2550139" lon="8.2750238"><ele>146.0</ele><time>2026-04-20T07:59:12.382Z</time></trkpt><trkpt lat="45.2549739" lon="8.2751832"><ele>146.2</ele><time>2026-04-20T07:59:13.378Z</time></trkpt><trkpt lat="45.2549338" lon="8.2753159"><ele>146.39999999999998</ele><time>2026-04-20T07:59:14.394Z</time></trkpt><trkpt lat="45.254896" lon="8.2754665"><ele>146.6</ele><time>2026-04-20T07:59:15.374Z</time></trkpt><trkpt lat="45.2548615" lon="8.2756135"><ele>146.79999999999998</ele><time>2026-04-20T07:59:16.386Z</time></trkpt><trkpt lat="45.2548227" lon="8.2757665"><ele>147.0</ele><time>2026-04-20T07:59:17.379Z</time></trkpt><trkpt lat="45.2547777" lon="8.2759318"><ele>147.0</ele><time>2026-04-20T07:59:18.386Z</time></trkpt><trkpt lat="45.2547381" lon="8.2760957"><ele>147.0</ele><time>2026-04-20T07:59:19.4Z</time></trkpt><trkpt lat="45.2547024" lon="8.2762543"><ele>147.0</ele><time>2026-04-20T07:59:20.388Z</time></trkpt><trkpt lat="45.2546552" lon="8.2764219"><ele>147.0</ele><time>2026-04-20T07:59:21.382Z</time></trkpt><trkpt lat="45.2546126" lon="8.2765781"><ele>147.0</ele><time>2026-04-20T07:59:22.384Z</time></trkpt><trkpt lat="45.2545749" lon="8.2767262"><ele>147.0</ele><time>2026-04-20T07:59:23.391Z</time></trkpt><trkpt lat="45.2545377" lon="8.2768651"><ele>147.0</ele><time>2026-04-20T07:59:24.417Z</time></trkpt><trkpt lat="45.2545051" lon="8.2769885"><ele>147.0</ele><time>2026-04-20T07:59:25.407Z</time></trkpt><trkpt lat="45.2544729" lon="8.2771071"><ele>147.0</ele><time>2026-04-20T07:59:26.489Z</time></trkpt><trkpt lat="45.2544349" lon="8.2772173"><ele>146.79999999999998</ele><time>2026-04-20T07:59:27.496Z</time></trkpt><trkpt lat="45.2543933" lon="8.2773186"><ele>146.6</ele><time>2026-04-20T07:59:28.488Z</time></trkpt><trkpt lat="45.2543345" lon="8.2774194"><ele>146.39999999999998</ele><time>2026-04-20T07:59:29.505Z</time></trkpt><trkpt lat="45.254267" lon="8.2775242"><ele>146.2</ele><time>2026-04-20T07:59:30.469Z</time></trkpt><trkpt lat="45.2541949" lon="8.2776308"><ele>146.0</ele><time>2026-04-20T07:59:31.482Z</time></trkpt><trkpt lat="45.2541203" lon="8.2777365"><ele>146.0</ele><time>2026-04-20T07:59:32.473Z</time></trkpt><trkpt lat="45.2540406" lon="8.2778356"><ele>146.0</ele><time>2026-04-20T07:59:33.465Z</time></trkpt><trkpt lat="45.2539476" lon="8.277933"><ele>146.0</ele><time>2026-04-20T07:59:34.495Z</time></trkpt><trkpt lat="45.2537789" lon="8.2780109"><ele>146.0</ele><time>2026-04-20T07:59:36.386Z</time></trkpt><trkpt lat="45.2536791" lon="8.2779862"><ele>146.2</ele><time>2026-04-20T07:59:37.379Z</time></trkpt><trkpt lat="45.2535855" lon="8.277941"><ele>146.39999999999998</ele><time>2026-04-20T07:59:38.366Z</time></trkpt><trkpt lat="45.2534884" lon="8.277895"><ele>146.6</ele><time>2026-04-20T07:59:39.369Z</time></trkpt><trkpt lat="45.2533879" lon="8.2778444"><ele>146.79999999999998</ele><time>2026-04-20T07:59:40.371Z</time></trkpt><trkpt lat="45.2532946" lon="8.2777976"><ele>147.0</ele><time>2026-04-20T07:59:41.38Z</time></trkpt><trkpt lat="45.2531991" lon="8.2777814"><ele>147.0</ele><time>2026-04-20T07:59:42.368Z</time></trkpt><trkpt lat="45.2530992" lon="8.2778088"><ele>147.0</ele><time>2026-04-20T07:59:43.38Z</time></trkpt><trkpt lat="45.2530129" lon="8.2778993"><ele>147.0</ele><time>2026-04-20T07:59:44.379Z</time></trkpt><trkpt lat="45.2529462" lon="8.2780306"><ele>147.0</ele><time>2026-04-20T07:59:45.368Z</time></trkpt><trkpt lat="45.2528829" lon="8.2781723"><ele>147.0</ele><time>2026-04-20T07:59:46.366Z</time></trkpt><trkpt lat="45.2528245" lon="8.2783272"><ele>147.0</ele><time>2026-04-20T07:59:47.366Z</time></trkpt><trkpt lat="45.2527637" lon="8.2784855"><ele>147.0</ele><time>2026-04-20T07:59:48.351Z</time></trkpt><trkpt lat="45.2527027" lon="8.2786365"><ele>147.0</ele><time>2026-04-20T07:59:49.355Z</time></trkpt><trkpt lat="45.2526559" lon="8.2787804"><ele>147.0</ele><time>2026-04-20T07:59:50.356Z</time></trkpt><trkpt lat="45.252604" lon="8.2789139"><ele>147.0</ele><time>2026-04-20T07:59:51.357Z</time></trkpt><trkpt lat="45.2525524" lon="8.2790511"><ele>147.0</ele><time>2026-04-20T07:59:52.365Z</time></trkpt><trkpt lat="45.2525029" lon="8.2792011"><ele>147.0</ele><time>2026-04-20T07:59:53.369Z</time></trkpt><trkpt lat="45.2524535" lon="8.2793469"><ele>147.0</ele><time>2026-04-20T07:59:54.371Z</time></trkpt><trkpt lat="45.2524021" lon="8.2794992"><ele>147.0</ele><time>2026-04-20T07:59:55.372Z</time></trkpt><trkpt lat="45.252352" lon="8.2796556"><ele>147.0</ele><time>2026-04-20T07:59:56.372Z</time></trkpt><trkpt lat="45.2522985" lon="8.279808"><ele>147.0</ele><time>2026-04-20T07:59:57.38Z</time></trkpt><trkpt lat="45.2522485" lon="8.2799715"><ele>147.0</ele><time>2026-04-20T07:59:58.373Z</time></trkpt><trkpt lat="45.2522017" lon="8.2801404"><ele>147.0</ele><time>2026-04-20T07:59:59.38Z</time></trkpt><trkpt lat="45.2521568" lon="8.2803074"><ele>147.0</ele><time>2026-04-20T08:00:00.376Z</time></trkpt><trkpt lat="45.2521085" lon="8.2804671"><ele>147.0</ele><time>2026-04-20T08:00:01.37Z</time></trkpt><trkpt lat="45.2520657" lon="8.2806255"><ele>147.0</ele><time>2026-04-20T08:00:02.369Z</time></trkpt><trkpt lat="45.2520178" lon="8.2807863"><ele>147.0</ele><time>2026-04-20T08:00:03.383Z</time></trkpt><trkpt lat="45.2519719" lon="8.280956"><ele>147.0</ele><time>2026-04-20T08:00:04.373Z</time></trkpt><trkpt lat="45.2519359" lon="8.2811226"><ele>147.0</ele><time>2026-04-20T08:00:05.37Z</time></trkpt><trkpt lat="45.2519094" lon="8.2812929"><ele>147.0</ele><time>2026-04-20T08:00:06.366Z</time></trkpt><trkpt lat="45.2518644" lon="8.2814745"><ele>146.75</ele><time>2026-04-20T08:00:07.373Z</time></trkpt><trkpt lat="45.2518306" lon="8.2816491"><ele>146.5</ele><time>2026-04-20T08:00:08.373Z</time></trkpt><trkpt lat="45.2517981" lon="8.2818202"><ele>146.25</ele><time>2026-04-20T08:00:09.369Z</time></trkpt><trkpt lat="45.2517601" lon="8.2819869"><ele>146.0</ele><time>2026-04-20T08:00:10.367Z</time></trkpt><trkpt lat="45.2517195" lon="8.2821578"><ele>145.75</ele><time>2026-04-20T08:00:11.382Z</time></trkpt><trkpt lat="45.2516814" lon="8.2823331"><ele>145.5</ele><time>2026-04-20T08:00:12.379Z</time></trkpt><trkpt lat="45.251639" lon="8.2825088"><ele>145.25</ele><time>2026-04-20T08:00:13.38Z</time></trkpt><trkpt lat="45.2515975" lon="8.2826833"><ele>145.0</ele><time>2026-04-20T08:00:14.374Z</time></trkpt><trkpt lat="45.251563" lon="8.2828516"><ele>145.0</ele><time>2026-04-20T08:00:15.371Z</time></trkpt><trkpt lat="45.251525" lon="8.283006"><ele>145.0</ele><time>2026-04-20T08:00:16.373Z</time></trkpt><trkpt lat="45.2514906" lon="8.2831557"><ele>145.0</ele><time>2026-04-20T08:00:17.369Z</time></trkpt><trkpt lat="45.2545377" lon="8.2768651"><ele>145.16666666666669</ele><time>2026-04-20T07:59:24.417Z</time></trkpt><trkpt lat="45.2545051" lon="8.2769885"><ele>145.33333333333334</ele><time>2026-04-20T07:59:25.407Z</time></trkpt><trkpt lat="45.2544729" lon="8.2771071"><ele>145.5</ele><time>2026-04-20T07:59:26.489Z</time></trkpt><trkpt lat="45.2544349" lon="8.2772173"><ele>145.66666666666666</ele><time>2026-04-20T07:59:27.496Z</time></trkpt><trkpt lat="45.2543933" lon="8.2773186"><ele>145.83333333333331</ele><time>2026-04-20T07:59:28.488Z</time></trkpt><trkpt lat="45.2543345" lon="8.2774194"><ele>146.0</ele><time>2026-04-20T07:59:29.505Z</time></trkpt><trkpt lat="45.254267" lon="8.2775242"><ele>146.0</ele><time>2026-04-20T07:59:30.469Z</time></trkpt><trkpt lat="45.2541949" lon="8.2776308"><ele>146.0</ele><time>2026-04-20T07:59:31.482Z</time></trkpt><trkpt lat="45.2541203" lon="8.2777365"><ele>146.0</ele><time>2026-04-20T07:59:32.473Z</time></trkpt><trkpt lat="45.2540406" lon="8.2778356"><ele>146.0</ele><time>2026-04-20T07:59:33.465Z</time></trkpt><trkpt lat="45.2539476" lon="8.277933"><ele>146.0</ele><time>2026-04-20T07:59:34.495Z</time></trkpt><trkpt lat="45.2537789" lon="8.2780109"><ele>146.2</ele><time>2026-04-20T07:59:36.386Z</time></trkpt><trkpt lat="45.2536791" lon="8.2779862"><ele>146.39999999999998</ele><time>2026-04-20T07:59:37.379Z</time></trkpt><trkpt lat="45.2535855" lon="8.277941"><ele>146.6</ele><time>2026-04-20T07:59:38.366Z</time></trkpt><trkpt lat="45.2534884" lon="8.277895"><ele>146.79999999999998</ele><time>2026-04-20T07:59:39.369Z</time></trkpt><trkpt lat="45.2533879" lon="8.2778444"><ele>147.0</ele><time>2026-04-20T07:59:40.371Z</time></trkpt><trkpt lat="45.2532946" lon="8.2777976"><ele>147.0</ele><time>2026-04-20T07:59:41.38Z</time></trkpt><trkpt lat="45.2531991" lon="8.2777814"><ele>147.0</ele><time>2026-04-20T07:59:42.368Z</time></trkpt><trkpt lat="45.2530992" lon="8.2778088"><ele>147.0</ele><time>2026-04-20T07:59:43.38Z</time></trkpt><trkpt lat="45.2530129" lon="8.2778993"><ele>147.0</ele><time>2026-04-20T07:59:44.379Z</time></trkpt><trkpt lat="45.2529462" lon="8.2780306"><ele>147.0</ele><time>2026-04-20T07:59:45.368Z</time></trkpt><trkpt lat="45.2528829" lon="8.2781723"><ele>147.0</ele><time>2026-04-20T07:59:46.366Z</time></trkpt><trkpt lat="45.2528245" lon="8.2783272"><ele>147.0</ele><time>2026-04-20T07:59:47.366Z</time></trkpt><trkpt lat="45.2527637" lon="8.2784855"><ele>147.0</ele><time>2026-04-20T07:59:48.351Z</time></trkpt><trkpt lat="45.2527027" lon="8.2786365"><ele>147.0</ele><time>2026-04-20T07:59:49.355Z</time></trkpt><trkpt lat="45.2526559" lon="8.2787804"><ele>147.0</ele><time>2026-04-20T07:59:50.356Z</time></trkpt><trkpt lat="45.252604" lon="8.2789139"><ele>147.0</ele><time>2026-04-20T07:59:51.357Z</time></trkpt><trkpt lat="45.2525524" lon="8.2790511"><ele>147.0</ele><time>2026-04-20T07:59:52.365Z</time></trkpt><trkpt lat="45.2525029" lon="8.2792011"><ele>147.0</ele><time>2026-04-20T07:59:53.369Z</time></trkpt><trkpt lat="45.2524535" lon="8.2793469"><ele>147.0</ele><time>2026-04-20T07:59:54.371Z</time></trkpt><trkpt lat="45.2524021" lon="8.2794992"><ele>147.0</ele><time>2026-04-20T07:59:55.372Z</time></trkpt><trkpt lat="45.252352" lon="8.2796556"><ele>147.0</ele><time>2026-04-20T07:59:56.372Z</time></trkpt><trkpt lat="45.2522985" lon="8.279808"><ele>147.0</ele><time>2026-04-20T07:59:57.38Z</time></trkpt><trkpt lat="45.2522485" lon="8.2799715"><ele>147.0</ele><time>2026-04-20T07:59:58.373Z</time></trkpt><trkpt lat="45.2522017" lon="8.2801404"><ele>147.0</ele><time>2026-04-20T07:59:59.38Z</time></trkpt><trkpt lat="45.2521568" lon="8.2803074"><ele>147.0</ele><time>2026-04-20T08:00:00.376Z</time></trkpt><trkpt lat="45.2521085" lon="8.2804671"><ele>147.0</ele><time>2026-04-20T08:00:01.37Z</time></trkpt><trkpt lat="45.2520657" lon="8.2806255"><ele>147.0</ele><time>2026-04-20T08:00:02.369Z</time></trkpt><trkpt lat="45.2520178" lon="8.2807863"><ele>147.0</ele><time>2026-04-20T08:00:03.383Z</time></trkpt><trkpt lat="45.2519719" lon="8.280956"><ele>147.0</ele><time>2026-04-20T08:00:04.373Z</time></trkpt><trkpt lat="45.2519359" lon="8.2811226"><ele>147.0</ele><time>2026-04-20T08:00:05.37Z</time></trkpt><trkpt lat="45.2519094" lon="8.2812929"><ele>147.0</ele><time>2026-04-20T08:00:06.366Z</time></trkpt><trkpt lat="45.2518644" lon="8.2814745"><ele>146.75</ele><time>2026-04-20T08:00:07.373Z</time></trkpt><trkpt lat="45.2518306" lon="8.2816491"><ele>146.5</ele><time>2026-04-20T08:00:08.373Z</time></trkpt><trkpt lat="45.2517981" lon="8.2818202"><ele>146.25</ele><time>2026-04-20T08:00:09.369Z</time></trkpt><trkpt lat="45.2517601" lon="8.2819869"><ele>146.0</ele><time>2026-04-20T08:00:10.367Z</time></trkpt><trkpt lat="45.2517195" lon="8.2821578"><ele>145.75</ele><time>2026-04-20T08:00:11.382Z</time></trkpt><trkpt lat="45.2516814" lon="8.2823331"><ele>145.5</ele><time>2026-04-20T08:00:12.379Z</time></trkpt><trkpt lat="45.251639" lon="8.2825088"><ele>145.25</ele><time>2026-04-20T08:00:13.38Z</time></trkpt><trkpt lat="45.2515975" lon="8.2826833"><ele>145.0</ele><time>2026-04-20T08:00:14.374Z</time></trkpt><trkpt lat="45.251563" lon="8.2828516"><ele>145.0</ele><time>2026-04-20T08:00:15.371Z</time></trkpt><trkpt lat="45.251525" lon="8.283006"><ele>145.0</ele><time>2026-04-20T08:00:16.373Z</time></trkpt><trkpt lat="45.2514906" lon="8.2831557"><ele>145.0</ele><time>2026-04-20T08:00:17.369Z</time></trkpt><trkpt lat="45.2514565" lon="8.2833269"><ele>145.0</ele><time>2026-04-20T08:00:18.374Z</time></trkpt><trkpt lat="45.2514209" lon="8.2835014"><ele>145.0</ele><time>2026-04-20T08:00:19.37Z</time></trkpt><trkpt lat="45.2513834" lon="8.2836687"><ele>145.0</ele><time>2026-04-20T08:00:20.37Z</time></trkpt><trkpt lat="45.251344" lon="8.28384"><ele>145.0</ele><time>2026-04-20T08:00:21.372Z</time></trkpt><trkpt lat="45.2513055" lon="8.2840154"><ele>145.0</ele><time>2026-04-20T08:00:22.376Z</time></trkpt><trkpt lat="45.251261" lon="8.2841741"><ele>145.0</ele><time>2026-04-20T08:00:23.374Z</time></trkpt><trkpt lat="45.2512016" lon="8.2843244"><ele>145.0</ele><time>2026-04-20T08:00:24.373Z</time></trkpt><trkpt lat="45.2511212" lon="8.2844631"><ele>145.0</ele><time>2026-04-20T08:00:25.378Z</time></trkpt><trkpt lat="45.2510423" lon="8.2846"><ele>145.0</ele><time>2026-04-20T08:00:26.376Z</time></trkpt><trkpt lat="45.250956" lon="8.2847381"><ele>145.0</ele><time>2026-04-20T08:00:27.38Z</time></trkpt><trkpt lat="45.2508828" lon="8.2848784"><ele>145.0</ele><time>2026-04-20T08:00:28.377Z</time></trkpt><trkpt lat="45.2508111" lon="8.2850156"><ele>145.0</ele><time>2026-04-20T08:00:29.37Z</time></trkpt><trkpt lat="45.2507302" lon="8.2851388"><ele>145.0</ele><time>2026-04-20T08:00:30.38Z</time></trkpt><trkpt lat="45.2506445" lon="8.2852725"><ele>144.66666666666669</ele><time>2026-04-20T08:00:31.381Z</time></trkpt><trkpt lat="45.2505534" lon="8.2854289"><ele>144.33333333333334</ele><time>2026-04-20T08:00:32.37Z</time></trkpt><trkpt lat="45.2504643" lon="8.2855968"><ele>144.0</ele><time>2026-04-20T08:00:33.388Z</time></trkpt><trkpt lat="45.250366" lon="8.2857835"><ele>143.66666666666666</ele><time>2026-04-20T08:00:34.38Z</time></trkpt><trkpt lat="45.250259" lon="8.2859741"><ele>143.33333333333331</ele><time>2026-04-20T08:00:35.371Z</time></trkpt><trkpt lat="45.2501442" lon="8.2861664"><ele>143.0</ele><time>2026-04-20T08:00:36.386Z</time></trkpt><trkpt lat="45.2500249" lon="8.2863603"><ele>143.0</ele><time>2026-04-20T08:00:37.387Z</time></trkpt><trkpt lat="45.2499099" lon="8.2865792"><ele>143.0</ele><time>2026-04-20T08:00:38.373Z</time></trkpt><trkpt lat="45.2497847" lon="8.2868212"><ele>143.0</ele><time>2026-04-20T08:00:39.38Z</time></trkpt><trkpt lat="45.2496573" lon="8.2870519"><ele>143.0</ele><time>2026-04-20T08:00:40.396Z</time></trkpt><trkpt lat="45.2495206" lon="8.2872905"><ele>143.0</ele><time>2026-04-20T08:00:41.389Z</time></trkpt><trkpt lat="45.2493784" lon="8.2875412"><ele>143.0</ele><time>2026-04-20T08:00:42.391Z</time></trkpt><trkpt lat="45.24924" lon="8.2877885"><ele>143.0</ele><time>2026-04-20T08:00:43.391Z</time></trkpt><trkpt lat="45.2491021" lon="8.2880273"><ele>143.0</ele><time>2026-04-20T08:00:44.398Z</time></trkpt><trkpt lat="45.2489653" lon="8.2882673"><ele>143.0</ele><time>2026-04-20T08:00:45.381Z</time></trkpt><trkpt lat="45.2488302" lon="8.2885185"><ele>142.66666666666666</ele><time>2026-04-20T08:00:46.392Z</time></trkpt><trkpt lat="45.2486914" lon="8.2887674"><ele>142.33333333333334</ele><time>2026-04-20T08:00:47.393Z</time></trkpt><trkpt lat="45.2485512" lon="8.2890155"><ele>142.0</ele><time>2026-04-20T08:00:48.387Z</time></trkpt><trkpt lat="45.2484102" lon="8.2892656"><ele>142.0</ele><time>2026-04-20T08:00:49.396Z</time></trkpt><trkpt lat="45.2482738" lon="8.2895253"><ele>142.0</ele><time>2026-04-20T08:00:50.394Z</time></trkpt><trkpt lat="45.2481326" lon="8.2897824"><ele>141.5</ele><time>2026-04-20T08:00:51.396Z</time></trkpt><trkpt lat="45.2479832" lon="8.2900223"><ele>141.0</ele><time>2026-04-20T08:00:52.389Z</time></trkpt><trkpt lat="45.2478396" lon="8.2902757"><ele>141.0</ele><time>2026-04-20T08:00:53.395Z</time></trkpt><trkpt lat="45.2477029" lon="8.2905367"><ele>141.0</ele><time>2026-04-20T08:00:54.391Z</time></trkpt><trkpt lat="45.2475618" lon="8.290793"><ele>141.5</ele><time>2026-04-20T08:00:55.391Z</time></trkpt><trkpt lat="45.2474304" lon="8.2910493"><ele>142.0</ele><time>2026-04-20T08:00:56.383Z</time></trkpt><trkpt lat="45.2472863" lon="8.2913039"><ele>142.0</ele><time>2026-04-20T08:00:57.394Z</time></trkpt><trkpt lat="45.2471394" lon="8.2915528"><ele>142.0</ele><time>2026-04-20T08:00:58.388Z</time></trkpt><trkpt lat="45.2469996" lon="8.2918094"><ele>142.0</ele><time>2026-04-20T08:00:59.388Z</time></trkpt><trkpt lat="45.246849" lon="8.2920703"><ele>142.0</ele><time>2026-04-20T08:01:00.39Z</time></trkpt><trkpt lat="45.246713" lon="8.2923181"><ele>142.0</ele><time>2026-04-20T08:01:01.406Z</time></trkpt><trkpt lat="45.2465599" lon="8.2925725"><ele>142.0</ele><time>2026-04-20T08:01:02.386Z</time></trkpt><trkpt lat="45.2464277" lon="8.2928337"><ele>142.5</ele><time>2026-04-20T08:01:03.391Z</time></trkpt><trkpt lat="45.2462876" lon="8.2930921"><ele>143.0</ele><time>2026-04-20T08:01:04.391Z</time></trkpt><trkpt lat="45.2461495" lon="8.293358"><ele>143.0</ele><time>2026-04-20T08:01:05.382Z</time></trkpt><trkpt lat="45.2460074" lon="8.2936305"><ele>143.0</ele><time>2026-04-20T08:01:06.39Z</time></trkpt><trkpt lat="45.2458638" lon="8.2938879"><ele>142.5</ele><time>2026-04-20T08:01:07.395Z</time></trkpt><trkpt lat="45.2457242" lon="8.2941468"><ele>142.0</ele><time>2026-04-20T08:01:08.388Z</time></trkpt><trkpt lat="45.2455886" lon="8.2944231"><ele>142.0</ele><time>2026-04-20T08:01:09.408Z</time></trkpt><trkpt lat="45.2454694" lon="8.2947073"><ele>142.0</ele><time>2026-04-20T08:01:10.377Z</time></trkpt><trkpt lat="45.24538" lon="8.295011"><ele>142.0</ele><time>2026-04-20T08:01:11.38Z</time></trkpt><trkpt lat="45.2452948" lon="8.2953331"><ele>142.0</ele><time>2026-04-20T08:01:12.39Z</time></trkpt><trkpt lat="45.2452081" lon="8.2956643"><ele>142.0</ele><time>2026-04-20T08:01:13.397Z</time></trkpt><trkpt lat="45.2451026" lon="8.295975"><ele>142.0</ele><time>2026-04-20T08:01:14.391Z</time></trkpt><trkpt lat="45.2449921" lon="8.2962939"><ele>142.0</ele><time>2026-04-20T08:01:15.384Z</time></trkpt><trkpt lat="45.2448916" lon="8.2966203"><ele>142.0</ele><time>2026-04-20T08:01:16.385Z</time></trkpt><trkpt lat="45.2447877" lon="8.2969265"><ele>142.0</ele><time>2026-04-20T08:01:17.389Z</time></trkpt><trkpt lat="45.2446923" lon="8.2972429"><ele>142.0</ele><time>2026-04-20T08:01:18.389Z</time></trkpt><trkpt lat="45.2445996" lon="8.2975606"><ele>142.0</ele><time>2026-04-20T08:01:19.395Z</time></trkpt><trkpt lat="45.2445092" lon="8.2978917"><ele>142.0</ele><time>2026-04-20T08:01:20.389Z</time></trkpt><trkpt lat="45.2444155" lon="8.2982123"><ele>142.0</ele><time>2026-04-20T08:01:21.386Z</time></trkpt><trkpt lat="45.2443235" lon="8.2985364"><ele>142.0</ele><time>2026-04-20T08:01:22.39Z</time></trkpt><trkpt lat="45.2442265" lon="8.2988463"><ele>141.5</ele><time>2026-04-20T08:01:23.386Z</time></trkpt><trkpt lat="45.2441376" lon="8.2991654"><ele>141.0</ele><time>2026-04-20T08:01:24.392Z</time></trkpt><trkpt lat="45.2440391" lon="8.2994856"><ele>141.0</ele><time>2026-04-20T08:01:25.381Z</time></trkpt><trkpt lat="45.2439566" lon="8.299804"><ele>141.0</ele><time>2026-04-20T08:01:26.385Z</time></trkpt><trkpt lat="45.243858" lon="8.3001181"><ele>141.0</ele><time>2026-04-20T08:01:27.394Z</time></trkpt><trkpt lat="45.2437726" lon="8.3004334"><ele>141.0</ele><time>2026-04-20T08:01:28.391Z</time></trkpt><trkpt lat="45.2436659" lon="8.3007421"><ele>141.0</ele><time>2026-04-20T08:01:29.386Z</time></trkpt><trkpt lat="45.243563" lon="8.3010546"><ele>141.0</ele><time>2026-04-20T08:01:30.397Z</time></trkpt><trkpt lat="45.2434605" lon="8.301357"><ele>141.5</ele><time>2026-04-20T08:01:31.401Z</time></trkpt><trkpt lat="45.2433741" lon="8.3016683"><ele>142.0</ele><time>2026-04-20T08:01:32.388Z</time></trkpt><trkpt lat="45.243278" lon="8.301999"><ele>142.0</ele><time>2026-04-20T08:01:33.39Z</time></trkpt><trkpt lat="45.2431962" lon="8.302313"><ele>142.0</ele><time>2026-04-20T08:01:34.396Z</time></trkpt><trkpt lat="45.2430993" lon="8.3026366"><ele>141.5</ele><time>2026-04-20T08:01:35.387Z</time></trkpt><trkpt lat="45.2430086" lon="8.3029384"><ele>141.0</ele><time>2026-04-20T08:01:36.39Z</time></trkpt><trkpt lat="45.2429169" lon="8.3032446"><ele>141.0</ele><time>2026-04-20T08:01:37.395Z</time></trkpt><trkpt lat="45.2428164" lon="8.3035244"><ele>141.0</ele><time>2026-04-20T08:01:38.387Z</time></trkpt><trkpt lat="45.2427213" lon="8.3038184"><ele>141.0</ele><time>2026-04-20T08:01:39.403Z</time></trkpt><trkpt lat="45.2426393" lon="8.3041221"><ele>141.5</ele><time>2026-04-20T08:01:40.395Z</time></trkpt><trkpt lat="45.2425519" lon="8.3044265"><ele>142.0</ele><time>2026-04-20T08:01:41.397Z</time></trkpt><trkpt lat="45.2424606" lon="8.3047304"><ele>142.0</ele><time>2026-04-20T08:01:42.398Z</time></trkpt><trkpt lat="45.2423954" lon="8.3050294"><ele>142.0</ele><time>2026-04-20T08:01:43.402Z</time></trkpt><trkpt lat="45.2423316" lon="8.3053314"><ele>142.0</ele><time>2026-04-20T08:01:44.391Z</time></trkpt><trkpt lat="45.2422681" lon="8.3056347"><ele>141.5</ele><time>2026-04-20T08:01:45.387Z</time></trkpt><trkpt lat="45.2422061" lon="8.305947"><ele>141.0</ele><time>2026-04-20T08:01:46.396Z</time></trkpt><trkpt lat="45.242135" lon="8.3062565"><ele>140.0</ele><time>2026-04-20T08:01:47.395Z</time></trkpt><trkpt lat="45.2420686" lon="8.3065646"><ele>139.0</ele><time>2026-04-20T08:01:48.398Z</time></trkpt><trkpt lat="45.2419998" lon="8.3068741"><ele>139.0</ele><time>2026-04-20T08:01:49.394Z</time></trkpt><trkpt lat="45.2419296" lon="8.3071912"><ele>139.0</ele><time>2026-04-20T08:01:50.396Z</time></trkpt><trkpt lat="45.2418548" lon="8.3075125"><ele>139.5</ele><time>2026-04-20T08:01:51.396Z</time></trkpt><trkpt lat="45.2417839" lon="8.3078308"><ele>140.0</ele><time>2026-04-20T08:01:52.395Z</time></trkpt><trkpt lat="45.2417083" lon="8.3081542"><ele>140.0</ele><time>2026-04-20T08:01:53.388Z</time></trkpt><trkpt lat="45.2416469" lon="8.3084604"><ele>140.0</ele><time>2026-04-20T08:01:54.392Z</time></trkpt><trkpt lat="45.2415816" lon="8.3087908"><ele>140.0</ele><time>2026-04-20T08:01:55.398Z</time></trkpt><trkpt lat="45.2415224" lon="8.3091102"><ele>140.0</ele><time>2026-04-20T08:01:56.391Z</time></trkpt><trkpt lat="45.2414473" lon="8.309418"><ele>139.5</ele><time>2026-04-20T08:01:57.394Z</time></trkpt><trkpt lat="45.2413793" lon="8.3097223"><ele>139.0</ele><time>2026-04-20T08:01:58.394Z</time></trkpt><trkpt lat="45.2413174" lon="8.3100378"><ele>139.0</ele><time>2026-04-20T08:01:59.395Z</time></trkpt><trkpt lat="45.241235" lon="8.3103507"><ele>139.0</ele><time>2026-04-20T08:02:00.396Z</time></trkpt><trkpt lat="45.2411613" lon="8.3106678"><ele>139.5</ele><time>2026-04-20T08:02:01.393Z</time></trkpt><trkpt lat="45.2410943" lon="8.3109796"><ele>140.0</ele><time>2026-04-20T08:02:02.397Z</time></trkpt><trkpt lat="45.2410248" lon="8.3112861"><ele>140.0</ele><time>2026-04-20T08:02:03.393Z</time></trkpt><trkpt lat="45.2409582" lon="8.3115981"><ele>140.0</ele><time>2026-04-20T08:02:04.399Z</time></trkpt><trkpt lat="45.2408912" lon="8.3119055"><ele>140.0</ele><time>2026-04-20T08:02:05.397Z</time></trkpt><trkpt lat="45.2408232" lon="8.3122071"><ele>140.0</ele><time>2026-04-20T08:02:06.394Z</time></trkpt><trkpt lat="45.2407621" lon="8.3125059"><ele>140.0</ele><time>2026-04-20T08:02:07.39Z</time></trkpt><trkpt lat="45.2406956" lon="8.3128187"><ele>140.0</ele><time>2026-04-20T08:02:08.39Z</time></trkpt><trkpt lat="45.2406333" lon="8.3131188"><ele>140.0</ele><time>2026-04-20T08:02:09.392Z</time></trkpt><trkpt lat="45.2405588" lon="8.3134403"><ele>140.0</ele><time>2026-04-20T08:02:10.394Z</time></trkpt><trkpt lat="45.2404899" lon="8.3137379"><ele>140.0</ele><time>2026-04-20T08:02:11.39Z</time></trkpt><trkpt lat="45.2404216" lon="8.3140504"><ele>140.0</ele><time>2026-04-20T08:02:12.396Z</time></trkpt><trkpt lat="45.2403541" lon="8.3143494"><ele>140.0</ele><time>2026-04-20T08:02:13.393Z</time></trkpt><trkpt lat="45.2402896" lon="8.3146506"><ele>140.0</ele><time>2026-04-20T08:02:14.398Z</time></trkpt><trkpt lat="45.2402202" lon="8.3149634"><ele>140.0</ele><time>2026-04-20T08:02:15.393Z</time></trkpt><trkpt lat="45.2401573" lon="8.3152638"><ele>140.0</ele><time>2026-04-20T08:02:16.399Z</time></trkpt><trkpt lat="45.240094" lon="8.315563"><ele>140.0</ele><time>2026-04-20T08:02:17.391Z</time></trkpt><trkpt lat="45.2400211" lon="8.3158647"><ele>139.66666666666666</ele><time>2026-04-20T08:02:18.391Z</time></trkpt><trkpt lat="45.2399543" lon="8.3161717"><ele>139.33333333333334</ele><time>2026-04-20T08:02:19.408Z</time></trkpt><trkpt lat="45.2398865" lon="8.3164662"><ele>139.0</ele><time>2026-04-20T08:02:20.402Z</time></trkpt><trkpt lat="45.2398243" lon="8.3167643"><ele>139.0</ele><time>2026-04-20T08:02:21.396Z</time></trkpt><trkpt lat="45.239753" lon="8.3170785"><ele>139.0</ele><time>2026-04-20T08:02:22.399Z</time></trkpt><trkpt lat="45.2396796" lon="8.3173839"><ele>139.0</ele><time>2026-04-20T08:02:23.405Z</time></trkpt><trkpt lat="45.2396055" lon="8.3176904"><ele>139.0</ele><time>2026-04-20T08:02:24.401Z</time></trkpt><trkpt lat="45.2395391" lon="8.318002"><ele>139.0</ele><time>2026-04-20T08:02:25.404Z</time></trkpt><trkpt lat="45.2394829" lon="8.3183177"><ele>139.0</ele><time>2026-04-20T08:02:26.4Z</time></trkpt><trkpt lat="45.2394022" lon="8.3186231"><ele>137.5</ele><time>2026-04-20T08:02:27.402Z</time></trkpt><trkpt lat="45.2393348" lon="8.3189372"><ele>136.0</ele><time>2026-04-20T08:02:28.394Z</time></trkpt><trkpt lat="45.2392662" lon="8.3192487"><ele>136.0</ele><time>2026-04-20T08:02:29.392Z</time></trkpt><trkpt lat="45.2391958" lon="8.3195591"><ele>136.0</ele><time>2026-04-20T08:02:30.395Z</time></trkpt><trkpt lat="45.2391225" lon="8.3198705"><ele>136.66666666666669</ele><time>2026-04-20T08:02:31.394Z</time></trkpt><trkpt lat="45.2390484" lon="8.3201659"><ele>137.33333333333334</ele><time>2026-04-20T08:02:32.39Z</time></trkpt><trkpt lat="45.2389857" lon="8.3204728"><ele>138.0</ele><time>2026-04-20T08:02:33.383Z</time></trkpt><trkpt lat="45.2389141" lon="8.3207923"><ele>138.0</ele><time>2026-04-20T08:02:34.389Z</time></trkpt><trkpt lat="45.2388474" lon="8.3210943"><ele>138.0</ele><time>2026-04-20T08:02:35.392Z</time></trkpt><trkpt lat="45.2387763" lon="8.3213945"><ele>138.0</ele><time>2026-04-20T08:02:36.388Z</time></trkpt><trkpt lat="45.2387108" lon="8.3216932"><ele>137.0</ele><time>2026-04-20T08:02:37.398Z</time></trkpt><trkpt lat="45.2386482" lon="8.3219901"><ele>136.0</ele><time>2026-04-20T08:02:38.389Z</time></trkpt><trkpt lat="45.2385883" lon="8.3222942"><ele>135.0</ele><time>2026-04-20T08:02:39.396Z</time></trkpt><trkpt lat="45.2385308" lon="8.3225976"><ele>135.0</ele><time>2026-04-20T08:02:40.394Z</time></trkpt><trkpt lat="45.2384683" lon="8.3228968"><ele>135.0</ele><time>2026-04-20T08:02:41.4Z</time></trkpt><trkpt lat="45.2383986" lon="8.3231747"><ele>135.0</ele><time>2026-04-20T08:02:42.394Z</time></trkpt><trkpt lat="45.2383308" lon="8.3234692"><ele>135.0</ele><time>2026-04-20T08:02:43.392Z</time></trkpt><trkpt lat="45.2382653" lon="8.3237648"><ele>135.0</ele><time>2026-04-20T08:02:44.397Z</time></trkpt><trkpt lat="45.2381972" lon="8.3240453"><ele>135.0</ele><time>2026-04-20T08:02:45.392Z</time></trkpt><trkpt lat="45.2381575" lon="8.3243133"><ele>134.66666666666666</ele><time>2026-04-20T08:02:46.389Z</time></trkpt><trkpt lat="45.238102" lon="8.3245549"><ele>134.33333333333331</ele><time>2026-04-20T08:02:47.393Z</time></trkpt><trkpt lat="45.2380608" lon="8.3247988"><ele>134.0</ele><time>2026-04-20T08:02:48.384Z</time></trkpt><trkpt lat="45.2380051" lon="8.3250212"><ele>134.0</ele><time>2026-04-20T08:02:49.386Z</time></trkpt><trkpt lat="45.2379453" lon="8.3252331"><ele>134.0</ele><time>2026-04-20T08:02:50.383Z</time></trkpt><trkpt lat="45.237884" lon="8.3254506"><ele>134.0</ele><time>2026-04-20T08:02:51.385Z</time></trkpt><trkpt lat="45.2378099" lon="8.3256635"><ele>133.66666666666666</ele><time>2026-04-20T08:02:52.395Z</time></trkpt><trkpt lat="45.2377235" lon="8.3258878"><ele>133.33333333333334</ele><time>2026-04-20T08:02:53.388Z</time></trkpt><trkpt lat="45.2376338" lon="8.3260962"><ele>133.0</ele><time>2026-04-20T08:02:54.39Z</time></trkpt><trkpt lat="45.2375211" lon="8.3262881"><ele>133.0</ele><time>2026-04-20T08:02:55.376Z</time></trkpt><trkpt lat="45.2374076" lon="8.3264604"><ele>133.0</ele><time>2026-04-20T08:02:56.378Z</time></trkpt><trkpt lat="45.2372678" lon="8.3266048"><ele>133.0</ele><time>2026-04-20T08:02:57.369Z</time></trkpt><trkpt lat="45.2371413" lon="8.3267335"><ele>134.0</ele><time>2026-04-20T08:02:58.384Z</time></trkpt><trkpt lat="45.2370118" lon="8.3268573"><ele>135.0</ele><time>2026-04-20T08:02:59.386Z</time></trkpt><trkpt lat="45.2368938" lon="8.3269994"><ele>136.0</ele><time>2026-04-20T08:03:00.387Z</time></trkpt><trkpt lat="45.2367712" lon="8.3271282"><ele>136.0</ele><time>2026-04-20T08:03:01.386Z</time></trkpt><trkpt lat="45.2366643" lon="8.3272423"><ele>136.0</ele><time>2026-04-20T08:03:02.389Z</time></trkpt><trkpt lat="45.23656" lon="8.3273576"><ele>136.0</ele><time>2026-04-20T08:03:03.387Z</time></trkpt><trkpt lat="45.2364595" lon="8.3274529"><ele>136.0</ele><time>2026-04-20T08:03:04.381Z</time></trkpt><trkpt lat="45.2363773" lon="8.3275332"><ele>136.2</ele><time>2026-04-20T08:03:05.382Z</time></trkpt><trkpt lat="45.2362995" lon="8.3276096"><ele>136.39999999999998</ele><time>2026-04-20T08:03:06.376Z</time></trkpt><trkpt lat="45.2362274" lon="8.3276532"><ele>136.6</ele><time>2026-04-20T08:03:07.373Z</time></trkpt><trkpt lat="45.2361443" lon="8.3277443"><ele>136.79999999999998</ele><time>2026-04-20T08:03:09.373Z</time></trkpt><trkpt lat="45.236168" lon="8.3279198"><ele>137.0</ele><time>2026-04-20T08:03:11.358Z</time></trkpt><trkpt lat="45.236229" lon="8.3280179"><ele>137.25</ele><time>2026-04-20T08:03:12.366Z</time></trkpt><trkpt lat="45.2363016" lon="8.3281234"><ele>137.5</ele><time>2026-04-20T08:03:13.367Z</time></trkpt><trkpt lat="45.2363847" lon="8.3282374"><ele>137.75</ele><time>2026-04-20T08:03:14.372Z</time></trkpt><trkpt lat="45.2364735" lon="8.328369"><ele>138.0</ele><time>2026-04-20T08:03:15.371Z</time></trkpt><trkpt lat="45.2365679" lon="8.3285201"><ele>137.66666666666666</ele><time>2026-04-20T08:03:16.379Z</time></trkpt><trkpt lat="45.2366726" lon="8.3286947"><ele>137.33333333333331</ele><time>2026-04-20T08:03:17.381Z</time></trkpt><trkpt lat="45.2367599" lon="8.3288861"><ele>137.0</ele><time>2026-04-20T08:03:18.366Z</time></trkpt><trkpt lat="45.2368619" lon="8.3290826"><ele>137.0</ele><time>2026-04-20T08:03:19.373Z</time></trkpt><trkpt lat="45.2369634" lon="8.3292845"><ele>137.0</ele><time>2026-04-20T08:03:20.38Z</time></trkpt><trkpt lat="45.2370541" lon="8.3294818"><ele>137.0</ele><time>2026-04-20T08:03:21.384Z</time></trkpt><trkpt lat="45.2371443" lon="8.3296773"><ele>136.66666666666666</ele><time>2026-04-20T08:03:22.388Z</time></trkpt><trkpt lat="45.2372452" lon="8.3298882"><ele>136.33333333333334</ele><time>2026-04-20T08:03:23.379Z</time></trkpt><trkpt lat="45.2373566" lon="8.330096"><ele>136.0</ele><time>2026-04-20T08:03:24.393Z</time></trkpt><trkpt lat="45.2374577" lon="8.3303062"><ele>136.0</ele><time>2026-04-20T08:03:25.385Z</time></trkpt><trkpt lat="45.2375712" lon="8.3304993"><ele>136.0</ele><time>2026-04-20T08:03:26.376Z</time></trkpt><trkpt lat="45.2376721" lon="8.3307061"><ele>136.0</ele><time>2026-04-20T08:03:27.387Z</time></trkpt><trkpt lat="45.2377764" lon="8.3309056"><ele>136.0</ele><time>2026-04-20T08:03:28.383Z</time></trkpt><trkpt lat="45.2378858" lon="8.3311101"><ele>136.0</ele><time>2026-04-20T08:03:29.385Z</time></trkpt><trkpt lat="45.2379926" lon="8.3313227"><ele>136.0</ele><time>2026-04-20T08:03:30.384Z</time></trkpt><trkpt lat="45.2380971" lon="8.3315281"><ele>136.66666666666669</ele><time>2026-04-20T08:03:31.385Z</time></trkpt><trkpt lat="45.2382041" lon="8.3317369"><ele>137.33333333333334</ele><time>2026-04-20T08:03:32.387Z</time></trkpt><trkpt lat="45.2383036" lon="8.3319614"><ele>138.0</ele><time>2026-04-20T08:03:33.383Z</time></trkpt><trkpt lat="45.2384126" lon="8.3321836"><ele>137.33333333333334</ele><time>2026-04-20T08:03:34.386Z</time></trkpt><trkpt lat="45.2385162" lon="8.3323957"><ele>136.66666666666669</ele><time>2026-04-20T08:03:35.383Z</time></trkpt><trkpt lat="45.2386179" lon="8.3326047"><ele>136.0</ele><time>2026-04-20T08:03:36.389Z</time></trkpt><trkpt lat="45.2387257" lon="8.3328207"><ele>136.0</ele><time>2026-04-20T08:03:37.386Z</time></trkpt><trkpt lat="45.2388417" lon="8.33303"><ele>136.0</ele><time>2026-04-20T08:03:38.39Z</time></trkpt><trkpt lat="45.2389491" lon="8.3332439"><ele>136.0</ele><time>2026-04-20T08:03:39.39Z</time></trkpt><trkpt lat="45.2390563" lon="8.3334466"><ele>135.33333333333334</ele><time>2026-04-20T08:03:40.391Z</time></trkpt><trkpt lat="45.23916" lon="8.3336376"><ele>134.66666666666666</ele><time>2026-04-20T08:03:41.392Z</time></trkpt><trkpt lat="45.2392563" lon="8.3338339"><ele>134.0</ele><time>2026-04-20T08:03:42.386Z</time></trkpt><trkpt lat="45.2393458" lon="8.3340291"><ele>134.0</ele><time>2026-04-20T08:03:43.398Z</time></trkpt><trkpt lat="45.2394362" lon="8.3342209"><ele>134.0</ele><time>2026-04-20T08:03:44.403Z</time></trkpt><trkpt lat="45.2395296" lon="8.3344004"><ele>134.0</ele><time>2026-04-20T08:03:45.399Z</time></trkpt><trkpt lat="45.2396244" lon="8.3345679"><ele>134.0</ele><time>2026-04-20T08:03:46.398Z</time></trkpt><trkpt lat="45.2397096" lon="8.3347511"><ele>134.0</ele><time>2026-04-20T08:03:47.408Z</time></trkpt><trkpt lat="45.2397782" lon="8.3349103"><ele>134.0</ele><time>2026-04-20T08:03:48.411Z</time></trkpt><trkpt lat="45.2398546" lon="8.3350631"><ele>134.0</ele><time>2026-04-20T08:03:49.5Z</time></trkpt><trkpt lat="45.2399271" lon="8.3352009"><ele>134.0</ele><time>2026-04-20T08:03:50.49Z</time></trkpt><trkpt lat="45.2399931" lon="8.335327"><ele>134.0</ele><time>2026-04-20T08:03:51.491Z</time></trkpt><trkpt lat="45.2400348" lon="8.3354325"><ele>134.0</ele><time>2026-04-20T08:03:52.486Z</time></trkpt><trkpt lat="45.2400344" lon="8.3356007"><ele>134.0</ele><time>2026-04-20T08:03:54.391Z</time></trkpt><trkpt lat="45.2399641" lon="8.3356861"><ele>134.0</ele><time>2026-04-20T08:03:55.377Z</time></trkpt><trkpt lat="45.2398949" lon="8.3357171"><ele>134.0</ele><time>2026-04-20T08:03:56.387Z</time></trkpt><trkpt lat="45.2398066" lon="8.3357042"><ele>134.0</ele><time>2026-04-20T08:03:57.39Z</time></trkpt><trkpt lat="45.2396924" lon="8.3356392"><ele>134.0</ele><time>2026-04-20T08:03:58.371Z</time></trkpt><trkpt lat="45.2395574" lon="8.3355505"><ele>134.0</ele><time>2026-04-20T08:03:59.364Z</time></trkpt><trkpt lat="45.2394136" lon="8.3354392"><ele>134.0</ele><time>2026-04-20T08:04:00.381Z</time></trkpt><trkpt lat="45.2392646" lon="8.3353032"><ele>134.0</ele><time>2026-04-20T08:04:01.383Z</time></trkpt><trkpt lat="45.2391026" lon="8.3351762"><ele>134.0</ele><time>2026-04-20T08:04:02.367Z</time></trkpt><trkpt lat="45.2389369" lon="8.3350476"><ele>134.33333333333331</ele><time>2026-04-20T08:04:03.376Z</time></trkpt><trkpt lat="45.2387691" lon="8.3349156"><ele>134.66666666666666</ele><time>2026-04-20T08:04:04.376Z</time></trkpt><trkpt lat="45.2385805" lon="8.3347731"><ele>135.0</ele><time>2026-04-20T08:04:05.377Z</time></trkpt><trkpt lat="45.2383901" lon="8.3346264"><ele>134.33333333333334</ele><time>2026-04-20T08:04:06.376Z</time></trkpt><trkpt lat="45.2382005" lon="8.3344823"><ele>133.66666666666669</ele><time>2026-04-20T08:04:07.381Z</time></trkpt><trkpt lat="45.2380065" lon="8.3343517"><ele>133.0</ele><time>2026-04-20T08:04:08.389Z</time></trkpt><trkpt lat="45.2378126" lon="8.334218"><ele>133.0</ele><time>2026-04-20T08:04:09.401Z</time></trkpt><trkpt lat="45.2376254" lon="8.334077"><ele>133.0</ele><time>2026-04-20T08:04:10.393Z</time></trkpt><trkpt lat="45.2374291" lon="8.3339264"><ele>133.0</ele><time>2026-04-20T08:04:11.396Z</time></trkpt><trkpt lat="45.2372422" lon="8.3337729"><ele>133.66666666666669</ele><time>2026-04-20T08:04:12.396Z</time></trkpt><trkpt lat="45.2370431" lon="8.3336271"><ele>134.33333333333334</ele><time>2026-04-20T08:04:13.392Z</time></trkpt><trkpt lat="45.2368634" lon="8.3334856"><ele>135.0</ele><time>2026-04-20T08:04:14.412Z</time></trkpt><trkpt lat="45.2366755" lon="8.3333395"><ele>135.0</ele><time>2026-04-20T08:04:15.388Z</time></trkpt><trkpt lat="45.2364877" lon="8.3332007"><ele>135.0</ele><time>2026-04-20T08:04:16.4Z</time></trkpt><trkpt lat="45.2362904" lon="8.3330637"><ele>135.0</ele><time>2026-04-20T08:04:17.398Z</time></trkpt><trkpt lat="45.2360973" lon="8.3329199"><ele>135.66666666666666</ele><time>2026-04-20T08:04:18.393Z</time></trkpt><trkpt lat="45.2359037" lon="8.3327845"><ele>136.33333333333331</ele><time>2026-04-20T08:04:19.4Z</time></trkpt><trkpt lat="45.2357133" lon="8.3326416"><ele>137.0</ele><time>2026-04-20T08:04:20.393Z</time></trkpt><trkpt lat="45.2355363" lon="8.3325006"><ele>137.0</ele><time>2026-04-20T08:04:21.398Z</time></trkpt><trkpt lat="45.2353496" lon="8.332351"><ele>137.0</ele><time>2026-04-20T08:04:22.393Z</time></trkpt><trkpt lat="45.235163" lon="8.3322036"><ele>137.0</ele><time>2026-04-20T08:04:23.394Z</time></trkpt><trkpt lat="45.2349827" lon="8.3320617"><ele>137.33333333333331</ele><time>2026-04-20T08:04:24.393Z</time></trkpt><trkpt lat="45.2347883" lon="8.3319369"><ele>137.66666666666666</ele><time>2026-04-20T08:04:25.386Z</time></trkpt><trkpt lat="45.2345883" lon="8.3317888"><ele>138.0</ele><time>2026-04-20T08:04:26.396Z</time></trkpt><trkpt lat="45.2343991" lon="8.3316381"><ele>138.0</ele><time>2026-04-20T08:04:27.39Z</time></trkpt><trkpt lat="45.2342134" lon="8.3314937"><ele>138.0</ele><time>2026-04-20T08:04:28.388Z</time></trkpt><trkpt lat="45.234019" lon="8.3313501"><ele>138.0</ele><time>2026-04-20T08:04:29.379Z</time></trkpt><trkpt lat="45.2338232" lon="8.3312037"><ele>138.0</ele><time>2026-04-20T08:04:30.381Z</time></trkpt><trkpt lat="45.2336155" lon="8.3310629"><ele>138.0</ele><time>2026-04-20T08:04:31.384Z</time></trkpt><trkpt lat="45.2334229" lon="8.3309228"><ele>138.0</ele><time>2026-04-20T08:04:32.382Z</time></trkpt><trkpt lat="45.2332263" lon="8.3307817"><ele>137.66666666666666</ele><time>2026-04-20T08:04:33.385Z</time></trkpt><trkpt lat="45.233033" lon="8.3306325"><ele>137.33333333333331</ele><time>2026-04-20T08:04:34.383Z</time></trkpt><trkpt lat="45.2328458" lon="8.3304782"><ele>137.0</ele><time>2026-04-20T08:04:35.386Z</time></trkpt><trkpt lat="45.232666" lon="8.3303292"><ele>137.0</ele><time>2026-04-20T08:04:36.389Z</time></trkpt><trkpt lat="45.2324736" lon="8.3301812"><ele>137.0</ele><time>2026-04-20T08:04:37.388Z</time></trkpt><trkpt lat="45.2322855" lon="8.3300202"><ele>137.0</ele><time>2026-04-20T08:04:38.389Z</time></trkpt><trkpt lat="45.2320984" lon="8.3298407"><ele>137.0</ele><time>2026-04-20T08:04:39.388Z</time></trkpt><trkpt lat="45.2319037" lon="8.3296624"><ele>137.0</ele><time>2026-04-20T08:04:40.394Z</time></trkpt><trkpt lat="45.2317205" lon="8.3294725"><ele>137.0</ele><time>2026-04-20T08:04:41.384Z</time></trkpt><trkpt lat="45.2315568" lon="8.329274"><ele>137.0</ele><time>2026-04-20T08:04:42.385Z</time></trkpt><trkpt lat="45.2313955" lon="8.3290672"><ele>137.0</ele><time>2026-04-20T08:04:43.376Z</time></trkpt><trkpt lat="45.2312302" lon="8.328856"><ele>138.33333333333331</ele><time>2026-04-20T08:04:44.377Z</time></trkpt><trkpt lat="45.2310776" lon="8.3286336"><ele>139.66666666666666</ele><time>2026-04-20T08:04:45.375Z</time></trkpt><trkpt lat="45.230925" lon="8.328404"><ele>141.0</ele><time>2026-04-20T08:04:46.376Z</time></trkpt><trkpt lat="45.2307856" lon="8.3281671"><ele>141.33333333333334</ele><time>2026-04-20T08:04:47.379Z</time></trkpt><trkpt lat="45.2306405" lon="8.3279267"><ele>141.66666666666669</ele><time>2026-04-20T08:04:48.378Z</time></trkpt><trkpt lat="45.2305044" lon="8.3276849"><ele>142.0</ele><time>2026-04-20T08:04:49.381Z</time></trkpt><trkpt lat="45.2303743" lon="8.3274385"><ele>141.66666666666669</ele><time>2026-04-20T08:04:50.383Z</time></trkpt><trkpt lat="45.2302479" lon="8.3271786"><ele>141.33333333333334</ele><time>2026-04-20T08:04:51.382Z</time></trkpt><trkpt lat="45.2301285" lon="8.3269253"><ele>141.0</ele><time>2026-04-20T08:04:52.384Z</time></trkpt><trkpt lat="45.2300087" lon="8.3266457"><ele>140.66666666666666</ele><time>2026-04-20T08:04:53.384Z</time></trkpt><trkpt lat="45.2298983" lon="8.326364"><ele>140.33333333333331</ele><time>2026-04-20T08:04:54.386Z</time></trkpt><trkpt lat="45.2298003" lon="8.3260885"><ele>140.0</ele><time>2026-04-20T08:04:55.379Z</time></trkpt><trkpt lat="45.2296998" lon="8.3258033"><ele>140.0</ele><time>2026-04-20T08:04:56.377Z</time></trkpt><trkpt lat="45.2296043" lon="8.3255234"><ele>140.0</ele><time>2026-04-20T08:04:57.38Z</time></trkpt><trkpt lat="45.2295044" lon="8.3252454"><ele>140.0</ele><time>2026-04-20T08:04:58.379Z</time></trkpt><trkpt lat="45.2294088" lon="8.3249645"><ele>140.0</ele><time>2026-04-20T08:04:59.38Z</time></trkpt><trkpt lat="45.2293041" lon="8.3246915"><ele>140.0</ele><time>2026-04-20T08:05:00.384Z</time></trkpt><trkpt lat="45.2291951" lon="8.3244266"><ele>140.0</ele><time>2026-04-20T08:05:01.385Z</time></trkpt><trkpt lat="45.2290881" lon="8.3241519"><ele>140.5</ele><time>2026-04-20T08:05:02.382Z</time></trkpt><trkpt lat="45.2289855" lon="8.3238742"><ele>141.0</ele><time>2026-04-20T08:05:03.383Z</time></trkpt><trkpt lat="45.228876" lon="8.3235857"><ele>141.0</ele><time>2026-04-20T08:05:04.392Z</time></trkpt><trkpt lat="45.2287691" lon="8.3232955"><ele>141.0</ele><time>2026-04-20T08:05:05.388Z</time></trkpt><trkpt lat="45.2286695" lon="8.3230247"><ele>141.0</ele><time>2026-04-20T08:05:06.389Z</time></trkpt><trkpt lat="45.2285748" lon="8.3227546"><ele>141.0</ele><time>2026-04-20T08:05:07.397Z</time></trkpt><trkpt lat="45.2284795" lon="8.3224747"><ele>141.0</ele><time>2026-04-20T08:05:08.39Z</time></trkpt><trkpt lat="45.2283834" lon="8.3221932"><ele>141.0</ele><time>2026-04-20T08:05:09.391Z</time></trkpt><trkpt lat="45.2282757" lon="8.3219106"><ele>141.0</ele><time>2026-04-20T08:05:10.392Z</time></trkpt><trkpt lat="45.2281761" lon="8.3216376"><ele>141.0</ele><time>2026-04-20T08:05:11.395Z</time></trkpt><trkpt lat="45.2280689" lon="8.3213678"><ele>141.0</ele><time>2026-04-20T08:05:12.39Z</time></trkpt><trkpt lat="45.2279678" lon="8.3210922"><ele>140.66666666666666</ele><time>2026-04-20T08:05:13.396Z</time></trkpt><trkpt lat="45.22787" lon="8.320811"><ele>140.33333333333331</ele><time>2026-04-20T08:05:14.396Z</time></trkpt><trkpt lat="45.2277729" lon="8.3205376"><ele>140.0</ele><time>2026-04-20T08:05:15.382Z</time></trkpt><trkpt lat="45.2276683" lon="8.3202593"><ele>140.0</ele><time>2026-04-20T08:05:16.384Z</time></trkpt><trkpt lat="45.227567" lon="8.3199718"><ele>140.0</ele><time>2026-04-20T08:05:17.386Z</time></trkpt><trkpt lat="45.2274618" lon="8.3196933"><ele>140.0</ele><time>2026-04-20T08:05:18.378Z</time></trkpt><trkpt lat="45.2273594" lon="8.3194193"><ele>139.66666666666666</ele><time>2026-04-20T08:05:19.377Z</time></trkpt><trkpt lat="45.2272517" lon="8.3191534"><ele>139.33333333333334</ele><time>2026-04-20T08:05:20.391Z</time></trkpt><trkpt lat="45.2271493" lon="8.3188774"><ele>139.0</ele><time>2026-04-20T08:05:21.384Z</time></trkpt><trkpt lat="45.2270485" lon="8.3185958"><ele>139.66666666666669</ele><time>2026-04-20T08:05:22.395Z</time></trkpt><trkpt lat="45.2269511" lon="8.3183276"><ele>140.33333333333334</ele><time>2026-04-20T08:05:23.39Z</time></trkpt><trkpt lat="45.2268579" lon="8.318067"><ele>141.0</ele><time>2026-04-20T08:05:24.383Z</time></trkpt><trkpt lat="45.2267678" lon="8.3178231"><ele>141.0</ele><time>2026-04-20T08:05:25.376Z</time></trkpt><trkpt lat="45.2266838" lon="8.317565"><ele>141.0</ele><time>2026-04-20T08:05:26.388Z</time></trkpt><trkpt lat="45.2265833" lon="8.3172995"><ele>141.0</ele><time>2026-04-20T08:05:27.387Z</time></trkpt><trkpt lat="45.2264817" lon="8.3170335"><ele>140.66666666666666</ele><time>2026-04-20T08:05:28.383Z</time></trkpt><trkpt lat="45.226399" lon="8.3167665"><ele>140.33333333333331</ele><time>2026-04-20T08:05:29.382Z</time></trkpt><trkpt lat="45.2262909" lon="8.3165001"><ele>140.0</ele><time>2026-04-20T08:05:30.388Z</time></trkpt><trkpt lat="45.2261857" lon="8.3162125"><ele>140.0</ele><time>2026-04-20T08:05:31.385Z</time></trkpt><trkpt lat="45.2260786" lon="8.3159323"><ele>140.0</ele><time>2026-04-20T08:05:32.374Z</time></trkpt><trkpt lat="45.2259672" lon="8.3156441"><ele>140.0</ele><time>2026-04-20T08:05:33.381Z</time></trkpt><trkpt lat="45.22585" lon="8.3153758"><ele>140.0</ele><time>2026-04-20T08:05:34.377Z</time></trkpt><trkpt lat="45.2257321" lon="8.3151138"><ele>140.0</ele><time>2026-04-20T08:05:35.377Z</time></trkpt><trkpt lat="45.225606" lon="8.3148502"><ele>139.5</ele><time>2026-04-20T08:05:36.383Z</time></trkpt><trkpt lat="45.2254685" lon="8.3145939"><ele>139.0</ele><time>2026-04-20T08:05:37.381Z</time></trkpt><trkpt lat="45.2253217" lon="8.3143407"><ele>139.0</ele><time>2026-04-20T08:05:38.379Z</time></trkpt><trkpt lat="45.2251805" lon="8.3141034"><ele>139.0</ele><time>2026-04-20T08:05:39.379Z</time></trkpt><trkpt lat="45.2250249" lon="8.3138739"><ele>139.0</ele><time>2026-04-20T08:05:40.379Z</time></trkpt><trkpt lat="45.2248662" lon="8.3136535"><ele>138.66666666666669</ele><time>2026-04-20T08:05:41.375Z</time></trkpt><trkpt lat="45.224709" lon="8.3134465"><ele>138.33333333333334</ele><time>2026-04-20T08:05:42.381Z</time></trkpt><trkpt lat="45.2245449" lon="8.31323"><ele>138.0</ele><time>2026-04-20T08:05:43.373Z</time></trkpt><trkpt lat="45.2243786" lon="8.3130078"><ele>138.0</ele><time>2026-04-20T08:05:44.381Z</time></trkpt><trkpt lat="45.2242097" lon="8.3128079"><ele>138.0</ele><time>2026-04-20T08:05:45.376Z</time></trkpt><trkpt lat="45.224047" lon="8.3126036"><ele>138.0</ele><time>2026-04-20T08:05:46.375Z</time></trkpt><trkpt lat="45.2238803" lon="8.3124014"><ele>138.0</ele><time>2026-04-20T08:05:47.378Z</time></trkpt><trkpt lat="45.2237148" lon="8.3121958"><ele>138.0</ele><time>2026-04-20T08:05:48.375Z</time></trkpt><trkpt lat="45.2235594" lon="8.3119882"><ele>138.0</ele><time>2026-04-20T08:05:49.377Z</time></trkpt><trkpt lat="45.2233903" lon="8.3117833"><ele>138.0</ele><time>2026-04-20T08:05:50.375Z</time></trkpt><trkpt lat="45.2232217" lon="8.3115791"><ele>138.0</ele><time>2026-04-20T08:05:51.375Z</time></trkpt><trkpt lat="45.2230521" lon="8.3113794"><ele>138.0</ele><time>2026-04-20T08:05:52.372Z</time></trkpt><trkpt lat="45.2228821" lon="8.311176"><ele>137.66666666666666</ele><time>2026-04-20T08:05:53.373Z</time></trkpt><trkpt lat="45.2227134" lon="8.3109711"><ele>137.33333333333331</ele><time>2026-04-20T08:05:54.374Z</time></trkpt><trkpt lat="45.2225372" lon="8.3107784"><ele>137.0</ele><time>2026-04-20T08:05:55.376Z</time></trkpt><trkpt lat="45.2223548" lon="8.3105965"><ele>137.0</ele><time>2026-04-20T08:05:56.377Z</time></trkpt><trkpt lat="45.2221819" lon="8.310441"><ele>137.0</ele><time>2026-04-20T08:05:57.372Z</time></trkpt><trkpt lat="45.2219972" lon="8.310279"><ele>137.0</ele><time>2026-04-20T08:05:58.379Z</time></trkpt><trkpt lat="45.2218109" lon="8.3101158"><ele>137.0</ele><time>2026-04-20T08:05:59.376Z</time></trkpt><trkpt lat="45.2216196" lon="8.3099628"><ele>137.0</ele><time>2026-04-20T08:06:00.373Z</time></trkpt><trkpt lat="45.2214304" lon="8.3098198"><ele>137.0</ele><time>2026-04-20T08:06:01.379Z</time></trkpt><trkpt lat="45.2212361" lon="8.309698"><ele>137.66666666666666</ele><time>2026-04-20T08:06:02.371Z</time></trkpt><trkpt lat="45.2210372" lon="8.3095783"><ele>138.33333333333334</ele><time>2026-04-20T08:06:03.379Z</time></trkpt><trkpt lat="45.2208322" lon="8.3094664"><ele>139.0</ele><time>2026-04-20T08:06:04.376Z</time></trkpt><trkpt lat="45.2206508" lon="8.3093626"><ele>139.0</ele><time>2026-04-20T08:06:05.376Z</time></trkpt><trkpt lat="45.2204674" lon="8.3092702"><ele>139.0</ele><time>2026-04-20T08:06:06.372Z</time></trkpt><trkpt lat="45.2202861" lon="8.3091857"><ele>139.0</ele><time>2026-04-20T08:06:07.374Z</time></trkpt><trkpt lat="45.2201057" lon="8.3091021"><ele>139.0</ele><time>2026-04-20T08:06:08.376Z</time></trkpt><trkpt lat="45.219908" lon="8.3090074"><ele>139.0</ele><time>2026-04-20T08:06:09.376Z</time></trkpt><trkpt lat="45.2196977" lon="8.3089105"><ele>139.0</ele><time>2026-04-20T08:06:10.375Z</time></trkpt><trkpt lat="45.2194955" lon="8.3088169"><ele>139.33333333333334</ele><time>2026-04-20T08:06:11.374Z</time></trkpt><trkpt lat="45.2192882" lon="8.308725"><ele>139.66666666666666</ele><time>2026-04-20T08:06:12.377Z</time></trkpt><trkpt lat="45.2190828" lon="8.3086327"><ele>140.0</ele><time>2026-04-20T08:06:13.375Z</time></trkpt><trkpt lat="45.2188917" lon="8.3085433"><ele>140.0</ele><time>2026-04-20T08:06:14.378Z</time></trkpt><trkpt lat="45.2186855" lon="8.3084519"><ele>140.0</ele><time>2026-04-20T08:06:15.374Z</time></trkpt><trkpt lat="45.2184866" lon="8.3083587"><ele>140.0</ele><time>2026-04-20T08:06:16.371Z</time></trkpt><trkpt lat="45.2182802" lon="8.3082585"><ele>140.0</ele><time>2026-04-20T08:06:17.388Z</time></trkpt><trkpt lat="45.2180853" lon="8.3081609"><ele>140.0</ele><time>2026-04-20T08:06:18.37Z</time></trkpt><trkpt lat="45.2178843" lon="8.308068"><ele>140.0</ele><time>2026-04-20T08:06:19.376Z</time></trkpt><trkpt lat="45.217693" lon="8.3079768"><ele>140.33333333333331</ele><time>2026-04-20T08:06:20.373Z</time></trkpt><trkpt lat="45.2175029" lon="8.3078878"><ele>140.66666666666666</ele><time>2026-04-20T08:06:21.376Z</time></trkpt><trkpt lat="45.2173132" lon="8.3078032"><ele>141.0</ele><time>2026-04-20T08:06:22.374Z</time></trkpt><trkpt lat="45.2171169" lon="8.3077094"><ele>141.0</ele><time>2026-04-20T08:06:23.373Z</time></trkpt><trkpt lat="45.216914" lon="8.3076213"><ele>141.0</ele><time>2026-04-20T08:06:24.372Z</time></trkpt><trkpt lat="45.2167191" lon="8.3075434"><ele>141.0</ele><time>2026-04-20T08:06:25.373Z</time></trkpt><trkpt lat="45.21653" lon="8.3074672"><ele>141.0</ele><time>2026-04-20T08:06:26.379Z</time></trkpt><trkpt lat="45.2163189" lon="8.3073749"><ele>141.0</ele><time>2026-04-20T08:06:27.375Z</time></trkpt><trkpt lat="45.2160988" lon="8.3072774"><ele>141.5</ele><time>2026-04-20T08:06:28.373Z</time></trkpt><trkpt lat="45.215888" lon="8.3071756"><ele>142.0</ele><time>2026-04-20T08:06:29.38Z</time></trkpt><trkpt lat="45.2156699" lon="8.3070675"><ele>142.5</ele><time>2026-04-20T08:06:30.377Z</time></trkpt><trkpt lat="45.2154454" lon="8.3069662"><ele>143.0</ele><time>2026-04-20T08:06:31.387Z</time></trkpt><trkpt lat="45.2152218" lon="8.3068602"><ele>143.0</ele><time>2026-04-20T08:06:32.372Z</time></trkpt><trkpt lat="45.2150105" lon="8.3067603"><ele>143.0</ele><time>2026-04-20T08:06:33.374Z</time></trkpt><trkpt lat="45.2147876" lon="8.3066508"><ele>142.0</ele><time>2026-04-20T08:06:34.375Z</time></trkpt><trkpt lat="45.2145741" lon="8.3065376"><ele>141.0</ele><time>2026-04-20T08:06:35.373Z</time></trkpt><trkpt lat="45.2143576" lon="8.3064331"><ele>141.0</ele><time>2026-04-20T08:06:36.369Z</time></trkpt><trkpt lat="45.2141442" lon="8.3063343"><ele>141.0</ele><time>2026-04-20T08:06:37.376Z</time></trkpt><trkpt lat="45.2139182" lon="8.3062449"><ele>141.0</ele><time>2026-04-20T08:06:38.395Z</time></trkpt><trkpt lat="45.2137007" lon="8.3061455"><ele>141.0</ele><time>2026-04-20T08:06:39.481Z</time></trkpt><trkpt lat="45.2134799" lon="8.3060452"><ele>141.0</ele><time>2026-04-20T08:06:40.475Z</time></trkpt><trkpt lat="45.2132557" lon="8.3059427"><ele>141.0</ele><time>2026-04-20T08:06:41.478Z</time></trkpt><trkpt lat="45.2130303" lon="8.3058381"><ele>141.5</ele><time>2026-04-20T08:06:42.474Z</time></trkpt><trkpt lat="45.212806" lon="8.3057338"><ele>142.0</ele><time>2026-04-20T08:06:43.475Z</time></trkpt><trkpt lat="45.2125778" lon="8.3056307"><ele>141.5</ele><time>2026-04-20T08:06:44.475Z</time></trkpt><trkpt lat="45.2123524" lon="8.3055318"><ele>141.0</ele><time>2026-04-20T08:06:45.475Z</time></trkpt><trkpt lat="45.2121303" lon="8.3054319"><ele>141.0</ele><time>2026-04-20T08:06:46.476Z</time></trkpt><trkpt lat="45.2119124" lon="8.305329"><ele>141.0</ele><time>2026-04-20T08:06:47.476Z</time></trkpt><trkpt lat="45.2116907" lon="8.3052275"><ele>142.0</ele><time>2026-04-20T08:06:48.476Z</time></trkpt><trkpt lat="45.2114703" lon="8.3051295"><ele>143.0</ele><time>2026-04-20T08:06:49.476Z</time></trkpt><trkpt lat="45.211244" lon="8.3050437"><ele>143.0</ele><time>2026-04-20T08:06:50.479Z</time></trkpt><trkpt lat="45.2110217" lon="8.3049331"><ele>143.0</ele><time>2026-04-20T08:06:51.475Z</time></trkpt><trkpt lat="45.2108025" lon="8.30482"><ele>142.0</ele><time>2026-04-20T08:06:52.477Z</time></trkpt><trkpt lat="45.2105955" lon="8.3047112"><ele>141.0</ele><time>2026-04-20T08:06:53.477Z</time></trkpt><trkpt lat="45.2103996" lon="8.3046119"><ele>140.0</ele><time>2026-04-20T08:06:54.479Z</time></trkpt><trkpt lat="45.2102039" lon="8.3045218"><ele>140.0</ele><time>2026-04-20T08:06:55.476Z</time></trkpt><trkpt lat="45.2100137" lon="8.304437"><ele>140.0</ele><time>2026-04-20T08:06:56.478Z</time></trkpt><trkpt lat="45.2098252" lon="8.3043553"><ele>140.0</ele><time>2026-04-20T08:06:57.487Z</time></trkpt><trkpt lat="45.2096464" lon="8.3042889"><ele>140.33333333333331</ele><time>2026-04-20T08:06:58.475Z</time></trkpt><trkpt lat="45.2094596" lon="8.3042329"><ele>140.66666666666666</ele><time>2026-04-20T08:06:59.48Z</time></trkpt><trkpt lat="45.2092735" lon="8.3041881"><ele>141.0</ele><time>2026-04-20T08:07:00.487Z</time></trkpt><trkpt lat="45.2090937" lon="8.3041521"><ele>140.66666666666666</ele><time>2026-04-20T08:07:01.488Z</time></trkpt><trkpt lat="45.2089214" lon="8.3041192"><ele>140.33333333333331</ele><time>2026-04-20T08:07:02.479Z</time></trkpt><trkpt lat="45.2087611" lon="8.304091"><ele>140.0</ele><time>2026-04-20T08:07:03.475Z</time></trkpt><trkpt lat="45.2086096" lon="8.3040617"><ele>140.0</ele><time>2026-04-20T08:07:04.475Z</time></trkpt><trkpt lat="45.2084728" lon="8.3040229"><ele>140.0</ele><time>2026-04-20T08:07:05.476Z</time></trkpt><trkpt lat="45.208349" lon="8.3039725"><ele>140.0</ele><time>2026-04-20T08:07:06.474Z</time></trkpt><trkpt lat="45.2082406" lon="8.3039153"><ele>140.0</ele><time>2026-04-20T08:07:07.467Z</time></trkpt><trkpt lat="45.2081552" lon="8.3038377"><ele>140.0</ele><time>2026-04-20T08:07:08.468Z</time></trkpt><trkpt lat="45.2080932" lon="8.3037432"><ele>140.0</ele><time>2026-04-20T08:07:09.469Z</time></trkpt><trkpt lat="45.2080182" lon="8.3036583"><ele>140.0</ele><time>2026-04-20T08:07:10.449Z</time></trkpt><trkpt lat="45.2079342" lon="8.3036157"><ele>140.0</ele><time>2026-04-20T08:07:11.453Z</time></trkpt><trkpt lat="45.2078446" lon="8.3036106"><ele>140.0</ele><time>2026-04-20T08:07:12.452Z</time></trkpt><trkpt lat="45.20777" lon="8.3036674"><ele>140.0</ele><time>2026-04-20T08:07:13.453Z</time></trkpt><trkpt lat="45.2077053" lon="8.3037485"><ele>140.0</ele><time>2026-04-20T08:07:14.379Z</time></trkpt><trkpt lat="45.2076644" lon="8.3038779"><ele>140.0</ele><time>2026-04-20T08:07:15.379Z</time></trkpt><trkpt lat="45.2076152" lon="8.3040297"><ele>140.0</ele><time>2026-04-20T08:07:16.365Z</time></trkpt><trkpt lat="45.2075344" lon="8.304171"><ele>140.0</ele><time>2026-04-20T08:07:17.361Z</time></trkpt><trkpt lat="45.2074208" lon="8.3042948"><ele>140.0</ele><time>2026-04-20T08:07:18.373Z</time></trkpt><trkpt lat="45.2072514" lon="8.3044064"><ele>140.0</ele><time>2026-04-20T08:07:19.373Z</time></trkpt><trkpt lat="45.2070024" lon="8.3044994"><ele>140.0</ele><time>2026-04-20T08:07:20.357Z</time></trkpt><trkpt lat="45.2067757" lon="8.3046086"><ele>140.0</ele><time>2026-04-20T08:07:21.368Z</time></trkpt><trkpt lat="45.206571" lon="8.3047207"><ele>140.0</ele><time>2026-04-20T08:07:22.367Z</time></trkpt><trkpt lat="45.2063713" lon="8.3048475"><ele>140.0</ele><time>2026-04-20T08:07:23.372Z</time></trkpt><trkpt lat="45.2061656" lon="8.3049913"><ele>137.5</ele><time>2026-04-20T08:07:24.371Z</time></trkpt><trkpt lat="45.2059528" lon="8.3051267"><ele>135.0</ele><time>2026-04-20T08:07:25.372Z</time></trkpt><trkpt lat="45.2057377" lon="8.3052656"><ele>133.0</ele><time>2026-04-20T08:07:26.374Z</time></trkpt><trkpt lat="45.2055358" lon="8.3054085"><ele>131.0</ele><time>2026-04-20T08:07:27.376Z</time></trkpt><trkpt lat="45.2053237" lon="8.3055393"><ele>131.5</ele><time>2026-04-20T08:07:28.374Z</time></trkpt><trkpt lat="45.205114" lon="8.3056734"><ele>132.0</ele><time>2026-04-20T08:07:29.37Z</time></trkpt><trkpt lat="45.2049039" lon="8.3058191"><ele>131.5</ele><time>2026-04-20T08:07:30.371Z</time></trkpt><trkpt lat="45.2046969" lon="8.3059581"><ele>131.0</ele><time>2026-04-20T08:07:31.379Z</time></trkpt><trkpt lat="45.2044861" lon="8.3061086"><ele>131.0</ele><time>2026-04-20T08:07:32.373Z</time></trkpt><trkpt lat="45.2042726" lon="8.3062542"><ele>131.0</ele><time>2026-04-20T08:07:33.378Z</time></trkpt><trkpt lat="45.20406" lon="8.3063859"><ele>130.5</ele><time>2026-04-20T08:07:34.377Z</time></trkpt><trkpt lat="45.2038553" lon="8.3065229"><ele>130.0</ele><time>2026-04-20T08:07:35.371Z</time></trkpt><trkpt lat="45.2036553" lon="8.3066727"><ele>130.0</ele><time>2026-04-20T08:07:36.366Z</time></trkpt><trkpt lat="45.2034492" lon="8.3068009"><ele>130.0</ele><time>2026-04-20T08:07:37.375Z</time></trkpt><trkpt lat="45.2032442" lon="8.3069288"><ele>130.0</ele><time>2026-04-20T08:07:38.377Z</time></trkpt><trkpt lat="45.2030393" lon="8.3070683"><ele>130.0</ele><time>2026-04-20T08:07:39.376Z</time></trkpt><trkpt lat="45.202846" lon="8.3072155"><ele>130.0</ele><time>2026-04-20T08:07:40.379Z</time></trkpt><trkpt lat="45.2026464" lon="8.3073439"><ele>130.0</ele><time>2026-04-20T08:07:41.376Z</time></trkpt><trkpt lat="45.2024511" lon="8.3074744"><ele>129.5</ele><time>2026-04-20T08:07:42.372Z</time></trkpt><trkpt lat="45.2022384" lon="8.3076174"><ele>129.0</ele><time>2026-04-20T08:07:43.379Z</time></trkpt><trkpt lat="45.2020402" lon="8.3077484"><ele>129.0</ele><time>2026-04-20T08:07:44.38Z</time></trkpt><trkpt lat="45.2018305" lon="8.3078814"><ele>129.0</ele><time>2026-04-20T08:07:45.375Z</time></trkpt><trkpt lat="45.2016266" lon="8.3080169"><ele>128.66666666666666</ele><time>2026-04-20T08:07:46.382Z</time></trkpt><trkpt lat="45.201434" lon="8.3081656"><ele>128.33333333333331</ele><time>2026-04-20T08:07:47.381Z</time></trkpt><trkpt lat="45.2012365" lon="8.3083124"><ele>128.0</ele><time>2026-04-20T08:07:48.382Z</time></trkpt><trkpt lat="45.2010364" lon="8.3084389"><ele>128.0</ele><time>2026-04-20T08:07:49.38Z</time></trkpt><trkpt lat="45.2008381" lon="8.3085749"><ele>128.0</ele><time>2026-04-20T08:07:50.373Z</time></trkpt><trkpt lat="45.2006294" lon="8.3087049"><ele>128.0</ele><time>2026-04-20T08:07:51.373Z</time></trkpt><trkpt lat="45.2004219" lon="8.3088477"><ele>128.0</ele><time>2026-04-20T08:07:52.378Z</time></trkpt><trkpt lat="45.2002129" lon="8.3089869"><ele>128.0</ele><time>2026-04-20T08:07:53.371Z</time></trkpt><trkpt lat="45.2000046" lon="8.3091271"><ele>128.0</ele><time>2026-04-20T08:07:54.374Z</time></trkpt><trkpt lat="45.1997896" lon="8.3092777"><ele>128.0</ele><time>2026-04-20T08:07:55.376Z</time></trkpt><trkpt lat="45.1995825" lon="8.309438"><ele>128.0</ele><time>2026-04-20T08:07:56.37Z</time></trkpt><trkpt lat="45.1993883" lon="8.3096146"><ele>128.0</ele><time>2026-04-20T08:07:57.378Z</time></trkpt><trkpt lat="45.1991934" lon="8.3098012"><ele>128.5</ele><time>2026-04-20T08:07:58.371Z</time></trkpt><trkpt lat="45.1990156" lon="8.3099892"><ele>129.0</ele><time>2026-04-20T08:07:59.371Z</time></trkpt><trkpt lat="45.198832" lon="8.3101887"><ele>128.5</ele><time>2026-04-20T08:08:00.375Z</time></trkpt><trkpt lat="45.1986592" lon="8.3103959"><ele>128.0</ele><time>2026-04-20T08:08:01.372Z</time></trkpt><trkpt lat="45.1984815" lon="8.3106152"><ele>128.0</ele><time>2026-04-20T08:08:02.37Z</time></trkpt><trkpt lat="45.1983119" lon="8.3108308"><ele>128.0</ele><time>2026-04-20T08:08:03.367Z</time></trkpt><trkpt lat="45.1981505" lon="8.3110584"><ele>127.5</ele><time>2026-04-20T08:08:04.369Z</time></trkpt><trkpt lat="45.197986" lon="8.3112928"><ele>127.0</ele><time>2026-04-20T08:08:05.369Z</time></trkpt><trkpt lat="45.1978279" lon="8.311544"><ele>127.0</ele><time>2026-04-20T08:08:06.37Z</time></trkpt><trkpt lat="45.197684" lon="8.3118006"><ele>127.0</ele><time>2026-04-20T08:08:07.375Z</time></trkpt><trkpt lat="45.1975439" lon="8.3120614"><ele>127.0</ele><time>2026-04-20T08:08:08.376Z</time></trkpt><trkpt lat="45.1973944" lon="8.3123312"><ele>127.0</ele><time>2026-04-20T08:08:09.372Z</time></trkpt><trkpt lat="45.1972549" lon="8.3125944"><ele>127.0</ele><time>2026-04-20T08:08:10.368Z</time></trkpt><trkpt lat="45.1971122" lon="8.3128568"><ele>127.0</ele><time>2026-04-20T08:08:11.385Z</time></trkpt><trkpt lat="45.1969661" lon="8.3131173"><ele>127.0</ele><time>2026-04-20T08:08:12.376Z</time></trkpt><trkpt lat="45.1968319" lon="8.3133736"><ele>127.0</ele><time>2026-04-20T08:08:13.37Z</time></trkpt><trkpt lat="45.1967015" lon="8.3136403"><ele>127.5</ele><time>2026-04-20T08:08:14.382Z</time></trkpt><trkpt lat="45.1965528" lon="8.3139075"><ele>128.0</ele><time>2026-04-20T08:08:15.371Z</time></trkpt><trkpt lat="45.1964153" lon="8.314179"><ele>127.5</ele><time>2026-04-20T08:08:16.37Z</time></trkpt><trkpt lat="45.1962748" lon="8.3144607"><ele>127.0</ele><time>2026-04-20T08:08:17.381Z</time></trkpt><trkpt lat="45.1961288" lon="8.3147433"><ele>127.0</ele><time>2026-04-20T08:08:18.376Z</time></trkpt><trkpt lat="45.1959836" lon="8.3150199"><ele>127.0</ele><time>2026-04-20T08:08:19.376Z</time></trkpt><trkpt lat="45.1958396" lon="8.3152837"><ele>127.0</ele><time>2026-04-20T08:08:20.374Z</time></trkpt><trkpt lat="45.1956994" lon="8.3155508"><ele>127.0</ele><time>2026-04-20T08:08:21.378Z</time></trkpt><trkpt lat="45.1955637" lon="8.3158291"><ele>127.0</ele><time>2026-04-20T08:08:22.371Z</time></trkpt><trkpt lat="45.1954327" lon="8.3161144"><ele>127.0</ele><time>2026-04-20T08:08:23.378Z</time></trkpt><trkpt lat="45.1952994" lon="8.3163948"><ele>126.5</ele><time>2026-04-20T08:08:24.371Z</time></trkpt><trkpt lat="45.1951403" lon="8.3166636"><ele>126.0</ele><time>2026-04-20T08:08:25.374Z</time></trkpt><trkpt lat="45.1949946" lon="8.3169419"><ele>126.0</ele><time>2026-04-20T08:08:26.371Z</time></trkpt><trkpt lat="45.1948523" lon="8.3172125"><ele>126.0</ele><time>2026-04-20T08:08:27.376Z</time></trkpt><trkpt lat="45.1947213" lon="8.3174685"><ele>126.0</ele><time>2026-04-20T08:08:28.376Z</time></trkpt><trkpt lat="45.1945768" lon="8.3177387"><ele>126.0</ele><time>2026-04-20T08:08:29.371Z</time></trkpt><trkpt lat="45.1944359" lon="8.3180054"><ele>126.0</ele><time>2026-04-20T08:08:30.376Z</time></trkpt><trkpt lat="45.1942973" lon="8.3182789"><ele>126.0</ele><time>2026-04-20T08:08:31.376Z</time></trkpt><trkpt lat="45.1941526" lon="8.3185633"><ele>126.0</ele><time>2026-04-20T08:08:32.375Z</time></trkpt><trkpt lat="45.1940153" lon="8.3188418"><ele>126.0</ele><time>2026-04-20T08:08:33.376Z</time></trkpt><trkpt lat="45.1938672" lon="8.3191162"><ele>126.0</ele><time>2026-04-20T08:08:34.378Z</time></trkpt><trkpt lat="45.1937378" lon="8.3193787"><ele>126.0</ele><time>2026-04-20T08:08:35.377Z</time></trkpt><trkpt lat="45.1935983" lon="8.3196404"><ele>127.5</ele><time>2026-04-20T08:08:36.369Z</time></trkpt><trkpt lat="45.1934476" lon="8.3199043"><ele>129.0</ele><time>2026-04-20T08:08:37.372Z</time></trkpt><trkpt lat="45.1932954" lon="8.3201758"><ele>128.0</ele><time>2026-04-20T08:08:38.373Z</time></trkpt><trkpt lat="45.1931502" lon="8.3204349"><ele>127.0</ele><time>2026-04-20T08:08:39.372Z</time></trkpt><trkpt lat="45.1930153" lon="8.3207032"><ele>126.5</ele><time>2026-04-20T08:08:40.375Z</time></trkpt><trkpt lat="45.1928892" lon="8.3209764"><ele>126.0</ele><time>2026-04-20T08:08:41.374Z</time></trkpt><trkpt lat="45.1927513" lon="8.3212423"><ele>126.0</ele><time>2026-04-20T08:08:42.372Z</time></trkpt><trkpt lat="45.1926122" lon="8.3215129"><ele>126.0</ele><time>2026-04-20T08:08:43.376Z</time></trkpt><trkpt lat="45.1924685" lon="8.3217797"><ele>126.0</ele><time>2026-04-20T08:08:44.372Z</time></trkpt><trkpt lat="45.192321" lon="8.3220504"><ele>126.0</ele><time>2026-04-20T08:08:45.373Z</time></trkpt><trkpt lat="45.192177" lon="8.3223256"><ele>126.0</ele><time>2026-04-20T08:08:46.368Z</time></trkpt><trkpt lat="45.1920418" lon="8.3225948"><ele>126.0</ele><time>2026-04-20T08:08:47.379Z</time></trkpt><trkpt lat="45.1919052" lon="8.3228723"><ele>126.5</ele><time>2026-04-20T08:08:48.372Z</time></trkpt><trkpt lat="45.1917586" lon="8.3231462"><ele>127.0</ele><time>2026-04-20T08:08:49.371Z</time></trkpt><trkpt lat="45.1916159" lon="8.323422"><ele>127.0</ele><time>2026-04-20T08:08:50.378Z</time></trkpt><trkpt lat="45.19147" lon="8.3236951"><ele>127.0</ele><time>2026-04-20T08:08:51.373Z</time></trkpt><trkpt lat="45.1913294" lon="8.3239656"><ele>127.0</ele><time>2026-04-20T08:08:52.375Z</time></trkpt><trkpt lat="45.191188" lon="8.3242423"><ele>127.0</ele><time>2026-04-20T08:08:53.377Z</time></trkpt><trkpt lat="45.1910588" lon="8.3245352"><ele>126.5</ele><time>2026-04-20T08:08:54.376Z</time></trkpt><trkpt lat="45.1909134" lon="8.3248064"><ele>126.0</ele><time>2026-04-20T08:08:55.377Z</time></trkpt><trkpt lat="45.1907686" lon="8.3250717"><ele>126.0</ele><time>2026-04-20T08:08:56.371Z</time></trkpt><trkpt lat="45.1906244" lon="8.325347"><ele>126.0</ele><time>2026-04-20T08:08:57.381Z</time></trkpt><trkpt lat="45.1904723" lon="8.3256264"><ele>126.0</ele><time>2026-04-20T08:08:58.38Z</time></trkpt><trkpt lat="45.190316" lon="8.3259041"><ele>126.0</ele><time>2026-04-20T08:08:59.376Z</time></trkpt><trkpt lat="45.1901719" lon="8.3261765"><ele>126.0</ele><time>2026-04-20T08:09:00.374Z</time></trkpt><trkpt lat="45.190035" lon="8.326463"><ele>126.0</ele><time>2026-04-20T08:09:01.383Z</time></trkpt><trkpt lat="45.1898991" lon="8.3267304"><ele>126.5</ele><time>2026-04-20T08:09:02.368Z</time></trkpt><trkpt lat="45.1897577" lon="8.3269884"><ele>127.0</ele><time>2026-04-20T08:09:03.369Z</time></trkpt><trkpt lat="45.1896102" lon="8.3272635"><ele>127.0</ele><time>2026-04-20T08:09:04.379Z</time></trkpt><trkpt lat="45.189469" lon="8.327536"><ele>127.0</ele><time>2026-04-20T08:09:05.371Z</time></trkpt><trkpt lat="45.1893234" lon="8.3278206"><ele>127.0</ele><time>2026-04-20T08:09:06.371Z</time></trkpt><trkpt lat="45.1891783" lon="8.3280974"><ele>127.0</ele><time>2026-04-20T08:09:07.372Z</time></trkpt><trkpt lat="45.189043" lon="8.3283689"><ele>126.0</ele><time>2026-04-20T08:09:08.379Z</time></trkpt><trkpt lat="45.1888991" lon="8.3286482"><ele>125.0</ele><time>2026-04-20T08:09:09.371Z</time></trkpt><trkpt lat="45.1887495" lon="8.3289255"><ele>124.5</ele><time>2026-04-20T08:09:10.375Z</time></trkpt><trkpt lat="45.1886012" lon="8.3291906"><ele>124.0</ele><time>2026-04-20T08:09:11.374Z</time></trkpt><trkpt lat="45.1884691" lon="8.3294547"><ele>124.5</ele><time>2026-04-20T08:09:12.374Z</time></trkpt><trkpt lat="45.1883353" lon="8.3297309"><ele>125.0</ele><time>2026-04-20T08:09:13.377Z</time></trkpt><trkpt lat="45.1882063" lon="8.3300044"><ele>125.5</ele><time>2026-04-20T08:09:14.377Z</time></trkpt><trkpt lat="45.1880758" lon="8.3302778"><ele>126.0</ele><time>2026-04-20T08:09:15.37Z</time></trkpt><trkpt lat="45.187946" lon="8.3305686"><ele>126.0</ele><time>2026-04-20T08:09:16.37Z</time></trkpt><trkpt lat="45.1877939" lon="8.3308366"><ele>126.0</ele><time>2026-04-20T08:09:17.371Z</time></trkpt><trkpt lat="45.187638" lon="8.3310808"><ele>126.0</ele><time>2026-04-20T08:09:18.365Z</time></trkpt><trkpt lat="45.1874708" lon="8.3313181"><ele>126.0</ele><time>2026-04-20T08:09:19.374Z</time></trkpt><trkpt lat="45.1873145" lon="8.3315498"><ele>126.0</ele><time>2026-04-20T08:09:20.375Z</time></trkpt><trkpt lat="45.1871346" lon="8.3317535"><ele>126.0</ele><time>2026-04-20T08:09:21.374Z</time></trkpt><trkpt lat="45.1869447" lon="8.3319423"><ele>126.0</ele><time>2026-04-20T08:09:22.367Z</time></trkpt><trkpt lat="45.1867471" lon="8.3321272"><ele>126.0</ele><time>2026-04-20T08:09:23.365Z</time></trkpt><trkpt lat="45.1865381" lon="8.3322885"><ele>126.0</ele><time>2026-04-20T08:09:24.372Z</time></trkpt><trkpt lat="45.1863216" lon="8.332436"><ele>126.0</ele><time>2026-04-20T08:09:25.369Z</time></trkpt><trkpt lat="45.1860923" lon="8.3325635"><ele>126.0</ele><time>2026-04-20T08:09:26.37Z</time></trkpt><trkpt lat="45.1858625" lon="8.3326676"><ele>126.0</ele><time>2026-04-20T08:09:27.372Z</time></trkpt><trkpt lat="45.1856256" lon="8.3327469"><ele>125.5</ele><time>2026-04-20T08:09:28.375Z</time></trkpt><trkpt lat="45.1853999" lon="8.3328093"><ele>125.0</ele><time>2026-04-20T08:09:29.373Z</time></trkpt><trkpt lat="45.1851539" lon="8.3328549"><ele>125.0</ele><time>2026-04-20T08:09:30.387Z</time></trkpt><trkpt lat="45.1849137" lon="8.3328727"><ele>125.0</ele><time>2026-04-20T08:09:31.382Z</time></trkpt><trkpt lat="45.1846739" lon="8.3328764"><ele>125.5</ele><time>2026-04-20T08:09:32.379Z</time></trkpt><trkpt lat="45.1844254" lon="8.3328778"><ele>126.0</ele><time>2026-04-20T08:09:33.376Z</time></trkpt><trkpt lat="45.184172" lon="8.3328801"><ele>126.0</ele><time>2026-04-20T08:09:34.378Z</time></trkpt><trkpt lat="45.1839128" lon="8.3328751"><ele>126.0</ele><time>2026-04-20T08:09:35.372Z</time></trkpt><trkpt lat="45.1836672" lon="8.3328565"><ele>126.0</ele><time>2026-04-20T08:09:36.38Z</time></trkpt><trkpt lat="45.183424" lon="8.332839"><ele>126.0</ele><time>2026-04-20T08:09:37.369Z</time></trkpt><trkpt lat="45.1831644" lon="8.3328353"><ele>126.0</ele><time>2026-04-20T08:09:38.37Z</time></trkpt><trkpt lat="45.1829141" lon="8.3328225"><ele>126.0</ele><time>2026-04-20T08:09:39.374Z</time></trkpt><trkpt lat="45.1826707" lon="8.3328281"><ele>126.0</ele><time>2026-04-20T08:09:40.374Z</time></trkpt><trkpt lat="45.182431" lon="8.3328012"><ele>126.0</ele><time>2026-04-20T08:09:41.375Z</time></trkpt><trkpt lat="45.1822004" lon="8.3327839"><ele>126.5</ele><time>2026-04-20T08:09:42.368Z</time></trkpt><trkpt lat="45.181956" lon="8.3327749"><ele>127.0</ele><time>2026-04-20T08:09:43.374Z</time></trkpt><trkpt lat="45.1817037" lon="8.3327565"><ele>126.5</ele><time>2026-04-20T08:09:44.375Z</time></trkpt><trkpt lat="45.181448" lon="8.3327502"><ele>126.0</ele><time>2026-04-20T08:09:45.372Z</time></trkpt><trkpt lat="45.1811965" lon="8.3327496"><ele>126.0</ele><time>2026-04-20T08:09:46.372Z</time></trkpt><trkpt lat="45.1809502" lon="8.3327437"><ele>126.0</ele><time>2026-04-20T08:09:47.374Z</time></trkpt><trkpt lat="45.1807135" lon="8.3327327"><ele>126.0</ele><time>2026-04-20T08:09:48.37Z</time></trkpt><trkpt lat="45.1804702" lon="8.332727"><ele>126.0</ele><time>2026-04-20T08:09:49.377Z</time></trkpt><trkpt lat="45.180229" lon="8.3327182"><ele>126.0</ele><time>2026-04-20T08:09:50.383Z</time></trkpt><trkpt lat="45.1799734" lon="8.3327164"><ele>126.0</ele><time>2026-04-20T08:09:51.377Z</time></trkpt><trkpt lat="45.1797141" lon="8.3327037"><ele>125.5</ele><time>2026-04-20T08:09:52.379Z</time></trkpt><trkpt lat="45.1794687" lon="8.3326925"><ele>125.0</ele><time>2026-04-20T08:09:53.368Z</time></trkpt><trkpt lat="45.1792205" lon="8.3326819"><ele>124.5</ele><time>2026-04-20T08:09:54.376Z</time></trkpt><trkpt lat="45.1789712" lon="8.3326744"><ele>124.0</ele><time>2026-04-20T08:09:55.375Z</time></trkpt><trkpt lat="45.1787315" lon="8.3326682"><ele>124.0</ele><time>2026-04-20T08:09:56.379Z</time></trkpt><trkpt lat="45.1784904" lon="8.332665"><ele>124.0</ele><time>2026-04-20T08:09:57.379Z</time></trkpt><trkpt lat="45.1782421" lon="8.3326634"><ele>125.0</ele><time>2026-04-20T08:09:58.379Z</time></trkpt><trkpt lat="45.1780161" lon="8.3326446"><ele>126.0</ele><time>2026-04-20T08:09:59.385Z</time></trkpt><trkpt lat="45.1777846" lon="8.3326235"><ele>126.0</ele><time>2026-04-20T08:10:00.377Z</time></trkpt><trkpt lat="45.1775578" lon="8.3326094"><ele>126.0</ele><time>2026-04-20T08:10:01.378Z</time></trkpt><trkpt lat="45.1773303" lon="8.3326"><ele>126.0</ele><time>2026-04-20T08:10:02.372Z</time></trkpt><trkpt lat="45.1770982" lon="8.3325914"><ele>126.0</ele><time>2026-04-20T08:10:03.376Z</time></trkpt><trkpt lat="45.1768763" lon="8.3325901"><ele>126.0</ele><time>2026-04-20T08:10:04.371Z</time></trkpt><trkpt lat="45.1766504" lon="8.3325663"><ele>126.0</ele><time>2026-04-20T08:10:05.368Z</time></trkpt><trkpt lat="45.1764246" lon="8.3325601"><ele>125.5</ele><time>2026-04-20T08:10:06.371Z</time></trkpt><trkpt lat="45.1761795" lon="8.3325566"><ele>125.0</ele><time>2026-04-20T08:10:07.367Z</time></trkpt><trkpt lat="45.175937" lon="8.3325419"><ele>125.0</ele><time>2026-04-20T08:10:08.365Z</time></trkpt><trkpt lat="45.1757008" lon="8.332529"><ele>125.0</ele><time>2026-04-20T08:10:09.366Z</time></trkpt><trkpt lat="45.1754553" lon="8.3325146"><ele>125.0</ele><time>2026-04-20T08:10:10.366Z</time></trkpt><trkpt lat="45.1752287" lon="8.3324953"><ele>125.0</ele><time>2026-04-20T08:10:11.363Z</time></trkpt><trkpt lat="45.1749767" lon="8.3324858"><ele>124.5</ele><time>2026-04-20T08:10:12.367Z</time></trkpt><trkpt lat="45.1747328" lon="8.3324856"><ele>124.0</ele><time>2026-04-20T08:10:13.376Z</time></trkpt><trkpt lat="45.1745079" lon="8.3324556"><ele>124.0</ele><time>2026-04-20T08:10:14.389Z</time></trkpt><trkpt lat="45.174261" lon="8.3324417"><ele>124.0</ele><time>2026-04-20T08:10:15.376Z</time></trkpt><trkpt lat="45.1740345" lon="8.3324216"><ele>124.5</ele><time>2026-04-20T08:10:16.377Z</time></trkpt><trkpt lat="45.1737931" lon="8.332406"><ele>125.0</ele><time>2026-04-20T08:10:17.383Z</time></trkpt><trkpt lat="45.1735481" lon="8.3323984"><ele>125.0</ele><time>2026-04-20T08:10:18.373Z</time></trkpt><trkpt lat="45.1733012" lon="8.3323905"><ele>125.0</ele><time>2026-04-20T08:10:19.371Z</time></trkpt><trkpt lat="45.1730569" lon="8.3323753"><ele>124.5</ele><time>2026-04-20T08:10:20.38Z</time></trkpt><trkpt lat="45.1728122" lon="8.3323663"><ele>124.0</ele><time>2026-04-20T08:10:21.379Z</time></trkpt><trkpt lat="45.1836672" lon="8.3328565"><ele>125.0</ele><time>2026-04-20T08:09:36.38Z</time></trkpt><trkpt lat="45.183424" lon="8.332839"><ele>126.0</ele><time>2026-04-20T08:09:37.369Z</time></trkpt><trkpt lat="45.1831644" lon="8.3328353"><ele>126.0</ele><time>2026-04-20T08:09:38.37Z</time></trkpt><trkpt lat="45.1829141" lon="8.3328225"><ele>126.0</ele><time>2026-04-20T08:09:39.374Z</time></trkpt><trkpt lat="45.1826707" lon="8.3328281"><ele>126.0</ele><time>2026-04-20T08:09:40.374Z</time></trkpt><trkpt lat="45.182431" lon="8.3328012"><ele>126.0</ele><time>2026-04-20T08:09:41.375Z</time></trkpt><trkpt lat="45.1822004" lon="8.3327839"><ele>126.5</ele><time>2026-04-20T08:09:42.368Z</time></trkpt><trkpt lat="45.181956" lon="8.3327749"><ele>127.0</ele><time>2026-04-20T08:09:43.374Z</time></trkpt><trkpt lat="45.1817037" lon="8.3327565"><ele>126.5</ele><time>2026-04-20T08:09:44.375Z</time></trkpt><trkpt lat="45.181448" lon="8.3327502"><ele>126.0</ele><time>2026-04-20T08:09:45.372Z</time></trkpt><trkpt lat="45.1811965" lon="8.3327496"><ele>126.0</ele><time>2026-04-20T08:09:46.372Z</time></trkpt><trkpt lat="45.1809502" lon="8.3327437"><ele>126.0</ele><time>2026-04-20T08:09:47.374Z</time></trkpt><trkpt lat="45.1807135" lon="8.3327327"><ele>126.0</ele><time>2026-04-20T08:09:48.37Z</time></trkpt><trkpt lat="45.1804702" lon="8.332727"><ele>126.0</ele><time>2026-04-20T08:09:49.377Z</time></trkpt><trkpt lat="45.180229" lon="8.3327182"><ele>126.0</ele><time>2026-04-20T08:09:50.383Z</time></trkpt><trkpt lat="45.1799734" lon="8.3327164"><ele>126.0</ele><time>2026-04-20T08:09:51.377Z</time></trkpt><trkpt lat="45.1797141" lon="8.3327037"><ele>125.5</ele><time>2026-04-20T08:09:52.379Z</time></trkpt><trkpt lat="45.1794687" lon="8.3326925"><ele>125.0</ele><time>2026-04-20T08:09:53.368Z</time></trkpt><trkpt lat="45.1792205" lon="8.3326819"><ele>124.5</ele><time>2026-04-20T08:09:54.376Z</time></trkpt><trkpt lat="45.1789712" lon="8.3326744"><ele>124.0</ele><time>2026-04-20T08:09:55.375Z</time></trkpt><trkpt lat="45.1787315" lon="8.3326682"><ele>124.0</ele><time>2026-04-20T08:09:56.379Z</time></trkpt><trkpt lat="45.1784904" lon="8.332665"><ele>124.0</ele><time>2026-04-20T08:09:57.379Z</time></trkpt><trkpt lat="45.1782421" lon="8.3326634"><ele>125.0</ele><time>2026-04-20T08:09:58.379Z</time></trkpt><trkpt lat="45.1780161" lon="8.3326446"><ele>126.0</ele><time>2026-04-20T08:09:59.385Z</time></trkpt><trkpt lat="45.1777846" lon="8.3326235"><ele>126.0</ele><time>2026-04-20T08:10:00.377Z</time></trkpt><trkpt lat="45.1775578" lon="8.3326094"><ele>126.0</ele><time>2026-04-20T08:10:01.378Z</time></trkpt><trkpt lat="45.1773303" lon="8.3326"><ele>126.0</ele><time>2026-04-20T08:10:02.372Z</time></trkpt><trkpt lat="45.1770982" lon="8.3325914"><ele>126.0</ele><time>2026-04-20T08:10:03.376Z</time></trkpt><trkpt lat="45.1768763" lon="8.3325901"><ele>126.0</ele><time>2026-04-20T08:10:04.371Z</time></trkpt><trkpt lat="45.1766504" lon="8.3325663"><ele>126.0</ele><time>2026-04-20T08:10:05.368Z</time></trkpt><trkpt lat="45.1764246" lon="8.3325601"><ele>125.5</ele><time>2026-04-20T08:10:06.371Z</time></trkpt><trkpt lat="45.1761795" lon="8.3325566"><ele>125.0</ele><time>2026-04-20T08:10:07.367Z</time></trkpt><trkpt lat="45.175937" lon="8.3325419"><ele>125.0</ele><time>2026-04-20T08:10:08.365Z</time></trkpt><trkpt lat="45.1757008" lon="8.332529"><ele>125.0</ele><time>2026-04-20T08:10:09.366Z</time></trkpt><trkpt lat="45.1754553" lon="8.3325146"><ele>125.0</ele><time>2026-04-20T08:10:10.366Z</time></trkpt><trkpt lat="45.1752287" lon="8.3324953"><ele>125.0</ele><time>2026-04-20T08:10:11.363Z</time></trkpt><trkpt lat="45.1749767" lon="8.3324858"><ele>124.5</ele><time>2026-04-20T08:10:12.367Z</time></trkpt><trkpt lat="45.1747328" lon="8.3324856"><ele>124.0</ele><time>2026-04-20T08:10:13.376Z</time></trkpt><trkpt lat="45.1745079" lon="8.3324556"><ele>124.0</ele><time>2026-04-20T08:10:14.389Z</time></trkpt><trkpt lat="45.174261" lon="8.3324417"><ele>124.0</ele><time>2026-04-20T08:10:15.376Z</time></trkpt><trkpt lat="45.1740345" lon="8.3324216"><ele>124.5</ele><time>2026-04-20T08:10:16.377Z</time></trkpt><trkpt lat="45.1737931" lon="8.332406"><ele>125.0</ele><time>2026-04-20T08:10:17.383Z</time></trkpt><trkpt lat="45.1735481" lon="8.3323984"><ele>125.0</ele><time>2026-04-20T08:10:18.373Z</time></trkpt><trkpt lat="45.1733012" lon="8.3323905"><ele>125.0</ele><time>2026-04-20T08:10:19.371Z</time></trkpt><trkpt lat="45.1730569" lon="8.3323753"><ele>124.5</ele><time>2026-04-20T08:10:20.38Z</time></trkpt><trkpt lat="45.1728122" lon="8.3323663"><ele>124.0</ele><time>2026-04-20T08:10:21.379Z</time></trkpt><trkpt lat="45.1725588" lon="8.332365"><ele>124.0</ele><time>2026-04-20T08:10:22.376Z</time></trkpt><trkpt lat="45.1723104" lon="8.3323538"><ele>124.0</ele><time>2026-04-20T08:10:23.38Z</time></trkpt><trkpt lat="45.1720748" lon="8.3323489"><ele>124.0</ele><time>2026-04-20T08:10:24.379Z</time></trkpt><trkpt lat="45.1718331" lon="8.3323494"><ele>124.0</ele><time>2026-04-20T08:10:25.381Z</time></trkpt><trkpt lat="45.1715833" lon="8.3323484"><ele>124.0</ele><time>2026-04-20T08:10:26.378Z</time></trkpt><trkpt lat="45.1713392" lon="8.3323289"><ele>124.0</ele><time>2026-04-20T08:10:27.38Z</time></trkpt><trkpt lat="45.1711057" lon="8.3323175"><ele>124.0</ele><time>2026-04-20T08:10:28.373Z</time></trkpt><trkpt lat="45.1708555" lon="8.3323044"><ele>124.0</ele><time>2026-04-20T08:10:29.384Z</time></trkpt><trkpt lat="45.1706067" lon="8.3323"><ele>125.0</ele><time>2026-04-20T08:10:30.377Z</time></trkpt><trkpt lat="45.1703667" lon="8.3322948"><ele>126.0</ele><time>2026-04-20T08:10:31.377Z</time></trkpt><trkpt lat="45.1701351" lon="8.3322839"><ele>126.0</ele><time>2026-04-20T08:10:32.378Z</time></trkpt><trkpt lat="45.1698887" lon="8.3322642"><ele>126.0</ele><time>2026-04-20T08:10:33.375Z</time></trkpt><trkpt lat="45.1696383" lon="8.3322543"><ele>126.0</ele><time>2026-04-20T08:10:34.359Z</time></trkpt><trkpt lat="45.1693898" lon="8.3322549"><ele>126.0</ele><time>2026-04-20T08:10:35.364Z</time></trkpt><trkpt lat="45.1691399" lon="8.3322517"><ele>125.5</ele><time>2026-04-20T08:10:36.359Z</time></trkpt><trkpt lat="45.1688858" lon="8.3322498"><ele>125.0</ele><time>2026-04-20T08:10:37.362Z</time></trkpt><trkpt lat="45.168638" lon="8.3322323"><ele>124.5</ele><time>2026-04-20T08:10:38.368Z</time></trkpt><trkpt lat="45.1683995" lon="8.3322137"><ele>124.0</ele><time>2026-04-20T08:10:39.365Z</time></trkpt><trkpt lat="45.1681593" lon="8.3322035"><ele>123.5</ele><time>2026-04-20T08:10:40.365Z</time></trkpt><trkpt lat="45.1679154" lon="8.3321852"><ele>123.0</ele><time>2026-04-20T08:10:41.367Z</time></trkpt><trkpt lat="45.1676721" lon="8.3321727"><ele>123.0</ele><time>2026-04-20T08:10:42.372Z</time></trkpt><trkpt lat="45.16743" lon="8.3321517"><ele>123.0</ele><time>2026-04-20T08:10:43.371Z</time></trkpt><trkpt lat="45.1671904" lon="8.3321394"><ele>124.0</ele><time>2026-04-20T08:10:44.371Z</time></trkpt><trkpt lat="45.1669504" lon="8.332124"><ele>125.0</ele><time>2026-04-20T08:10:45.37Z</time></trkpt><trkpt lat="45.1666955" lon="8.3321158"><ele>124.5</ele><time>2026-04-20T08:10:46.37Z</time></trkpt><trkpt lat="45.1664485" lon="8.3320999"><ele>124.0</ele><time>2026-04-20T08:10:47.375Z</time></trkpt><trkpt lat="45.1661886" lon="8.3320962"><ele>124.0</ele><time>2026-04-20T08:10:48.368Z</time></trkpt><trkpt lat="45.1659239" lon="8.3321027"><ele>124.0</ele><time>2026-04-20T08:10:49.361Z</time></trkpt><trkpt lat="45.1656678" lon="8.3320908"><ele>124.5</ele><time>2026-04-20T08:10:50.37Z</time></trkpt><trkpt lat="45.165413" lon="8.3320779"><ele>125.0</ele><time>2026-04-20T08:10:51.373Z</time></trkpt><trkpt lat="45.1651621" lon="8.3320568"><ele>125.0</ele><time>2026-04-20T08:10:52.376Z</time></trkpt><trkpt lat="45.1649118" lon="8.3320489"><ele>125.0</ele><time>2026-04-20T08:10:53.368Z</time></trkpt><trkpt lat="45.1646503" lon="8.3320339"><ele>124.5</ele><time>2026-04-20T08:10:54.364Z</time></trkpt><trkpt lat="45.1643905" lon="8.3320284"><ele>124.0</ele><time>2026-04-20T08:10:55.362Z</time></trkpt><trkpt lat="45.1641296" lon="8.3320107"><ele>124.5</ele><time>2026-04-20T08:10:56.362Z</time></trkpt><trkpt lat="45.1638709" lon="8.3319965"><ele>125.0</ele><time>2026-04-20T08:10:57.369Z</time></trkpt><trkpt lat="45.1636166" lon="8.331989"><ele>125.0</ele><time>2026-04-20T08:10:58.364Z</time></trkpt><trkpt lat="45.1633581" lon="8.3319739"><ele>125.0</ele><time>2026-04-20T08:10:59.368Z</time></trkpt><trkpt lat="45.1630979" lon="8.3319585"><ele>124.5</ele><time>2026-04-20T08:11:00.376Z</time></trkpt><trkpt lat="45.1628387" lon="8.3319511"><ele>124.0</ele><time>2026-04-20T08:11:01.371Z</time></trkpt><trkpt lat="45.1625912" lon="8.331936"><ele>124.0</ele><time>2026-04-20T08:11:02.367Z</time></trkpt><trkpt lat="45.1623302" lon="8.3319099"><ele>124.0</ele><time>2026-04-20T08:11:03.367Z</time></trkpt><trkpt lat="45.1620638" lon="8.3319058"><ele>124.0</ele><time>2026-04-20T08:11:04.366Z</time></trkpt><trkpt lat="45.1618075" lon="8.3318949"><ele>124.0</ele><time>2026-04-20T08:11:05.367Z</time></trkpt><trkpt lat="45.1615566" lon="8.3318771"><ele>123.5</ele><time>2026-04-20T08:11:06.359Z</time></trkpt><trkpt lat="45.1612961" lon="8.3318756"><ele>123.0</ele><time>2026-04-20T08:11:07.367Z</time></trkpt><trkpt lat="45.161043" lon="8.331862"><ele>123.0</ele><time>2026-04-20T08:11:08.361Z</time></trkpt><trkpt lat="45.1607813" lon="8.3318656"><ele>123.0</ele><time>2026-04-20T08:11:09.368Z</time></trkpt><trkpt lat="45.1605352" lon="8.3318499"><ele>123.0</ele><time>2026-04-20T08:11:10.364Z</time></trkpt><trkpt lat="45.1602718" lon="8.3318454"><ele>123.0</ele><time>2026-04-20T08:11:11.363Z</time></trkpt><trkpt lat="45.1600146" lon="8.3318436"><ele>123.5</ele><time>2026-04-20T08:11:12.363Z</time></trkpt><trkpt lat="45.1597542" lon="8.331834"><ele>124.0</ele><time>2026-04-20T08:11:13.363Z</time></trkpt><trkpt lat="45.1595031" lon="8.3318341"><ele>124.0</ele><time>2026-04-20T08:11:14.372Z</time></trkpt><trkpt lat="45.1592508" lon="8.3318287"><ele>124.0</ele><time>2026-04-20T08:11:15.368Z</time></trkpt><trkpt lat="45.159015" lon="8.3318339"><ele>123.5</ele><time>2026-04-20T08:11:16.369Z</time></trkpt><trkpt lat="45.158758" lon="8.3318484"><ele>123.0</ele><time>2026-04-20T08:11:17.366Z</time></trkpt><trkpt lat="45.1584923" lon="8.3318864"><ele>123.0</ele><time>2026-04-20T08:11:18.372Z</time></trkpt><trkpt lat="45.1582409" lon="8.3319277"><ele>123.0</ele><time>2026-04-20T08:11:19.372Z</time></trkpt><trkpt lat="45.1579894" lon="8.3319777"><ele>124.0</ele><time>2026-04-20T08:11:20.365Z</time></trkpt><trkpt lat="45.1577426" lon="8.3320382"><ele>125.0</ele><time>2026-04-20T08:11:21.376Z</time></trkpt><trkpt lat="45.1574974" lon="8.332102"><ele>124.5</ele><time>2026-04-20T08:11:22.371Z</time></trkpt><trkpt lat="45.1572423" lon="8.3321775"><ele>124.0</ele><time>2026-04-20T08:11:23.372Z</time></trkpt><trkpt lat="45.1569902" lon="8.3322682"><ele>124.0</ele><time>2026-04-20T08:11:24.374Z</time></trkpt><trkpt lat="45.1567478" lon="8.3323628"><ele>124.0</ele><time>2026-04-20T08:11:25.374Z</time></trkpt><trkpt lat="45.1565128" lon="8.332467"><ele>123.5</ele><time>2026-04-20T08:11:26.368Z</time></trkpt><trkpt lat="45.1562768" lon="8.3325802"><ele>123.0</ele><time>2026-04-20T08:11:27.37Z</time></trkpt><trkpt lat="45.1560457" lon="8.3327014"><ele>123.0</ele><time>2026-04-20T08:11:28.373Z</time></trkpt><trkpt lat="45.1558175" lon="8.3328294"><ele>123.0</ele><time>2026-04-20T08:11:29.377Z</time></trkpt><trkpt lat="45.1555992" lon="8.3329605"><ele>123.5</ele><time>2026-04-20T08:11:30.372Z</time></trkpt><trkpt lat="45.1553783" lon="8.3331069"><ele>124.0</ele><time>2026-04-20T08:11:31.381Z</time></trkpt><trkpt lat="45.155157" lon="8.3332659"><ele>124.0</ele><time>2026-04-20T08:11:32.375Z</time></trkpt><trkpt lat="45.1549434" lon="8.3334528"><ele>124.0</ele><time>2026-04-20T08:11:33.373Z</time></trkpt><trkpt lat="45.1547224" lon="8.3336373"><ele>123.0</ele><time>2026-04-20T08:11:34.374Z</time></trkpt><trkpt lat="45.1544978" lon="8.3338281"><ele>122.0</ele><time>2026-04-20T08:11:35.373Z</time></trkpt><trkpt lat="45.1542813" lon="8.334024"><ele>122.0</ele><time>2026-04-20T08:11:36.368Z</time></trkpt><trkpt lat="45.1540716" lon="8.3342194"><ele>122.0</ele><time>2026-04-20T08:11:37.363Z</time></trkpt><trkpt lat="45.1538567" lon="8.3344122"><ele>121.5</ele><time>2026-04-20T08:11:38.371Z</time></trkpt><trkpt lat="45.1536485" lon="8.3345905"><ele>121.0</ele><time>2026-04-20T08:11:39.369Z</time></trkpt><trkpt lat="45.1534345" lon="8.3347774"><ele>121.0</ele><time>2026-04-20T08:11:40.372Z</time></trkpt><trkpt lat="45.1532199" lon="8.3349657"><ele>121.0</ele><time>2026-04-20T08:11:41.363Z</time></trkpt><trkpt lat="45.1530097" lon="8.3351467"><ele>121.0</ele><time>2026-04-20T08:11:42.367Z</time></trkpt><trkpt lat="45.1528" lon="8.3353246"><ele>121.0</ele><time>2026-04-20T08:11:43.373Z</time></trkpt><trkpt lat="45.1526001" lon="8.3355119"><ele>121.5</ele><time>2026-04-20T08:11:44.374Z</time></trkpt><trkpt lat="45.1523865" lon="8.3357047"><ele>122.0</ele><time>2026-04-20T08:11:45.375Z</time></trkpt><trkpt lat="45.152176" lon="8.3358865"><ele>122.0</ele><time>2026-04-20T08:11:46.366Z</time></trkpt><trkpt lat="45.1519701" lon="8.3360679"><ele>122.0</ele><time>2026-04-20T08:11:47.37Z</time></trkpt><trkpt lat="45.1517688" lon="8.3362539"><ele>122.0</ele><time>2026-04-20T08:11:48.363Z</time></trkpt><trkpt lat="45.1515627" lon="8.336436"><ele>122.0</ele><time>2026-04-20T08:11:49.372Z</time></trkpt><trkpt lat="45.1513616" lon="8.336615"><ele>122.0</ele><time>2026-04-20T08:11:50.371Z</time></trkpt><trkpt lat="45.1511562" lon="8.3368065"><ele>122.0</ele><time>2026-04-20T08:11:51.369Z</time></trkpt><trkpt lat="45.1509443" lon="8.3369929"><ele>122.0</ele><time>2026-04-20T08:11:52.361Z</time></trkpt><trkpt lat="45.150734" lon="8.3371714"><ele>122.0</ele><time>2026-04-20T08:11:53.364Z</time></trkpt><trkpt lat="45.1505265" lon="8.3373595"><ele>122.0</ele><time>2026-04-20T08:11:54.376Z</time></trkpt><trkpt lat="45.1503265" lon="8.337557"><ele>122.0</ele><time>2026-04-20T08:11:55.366Z</time></trkpt><trkpt lat="45.1501189" lon="8.3377444"><ele>122.0</ele><time>2026-04-20T08:11:56.367Z</time></trkpt><trkpt lat="45.1499087" lon="8.3379276"><ele>122.0</ele><time>2026-04-20T08:11:57.367Z</time></trkpt><trkpt lat="45.1497057" lon="8.3381102"><ele>122.0</ele><time>2026-04-20T08:11:58.36Z</time></trkpt><trkpt lat="45.1494979" lon="8.3382904"><ele>122.0</ele><time>2026-04-20T08:11:59.362Z</time></trkpt><trkpt lat="45.1492965" lon="8.3384782"><ele>122.0</ele><time>2026-04-20T08:12:00.36Z</time></trkpt><trkpt lat="45.1490967" lon="8.3386586"><ele>122.0</ele><time>2026-04-20T08:12:01.359Z</time></trkpt><trkpt lat="45.1488858" lon="8.3388366"><ele>121.0</ele><time>2026-04-20T08:12:02.371Z</time></trkpt><trkpt lat="45.148668" lon="8.339017"><ele>120.0</ele><time>2026-04-20T08:12:03.363Z</time></trkpt><trkpt lat="45.1484433" lon="8.3392109"><ele>120.0</ele><time>2026-04-20T08:12:04.369Z</time></trkpt><trkpt lat="45.1482423" lon="8.3393997"><ele>120.0</ele><time>2026-04-20T08:12:05.365Z</time></trkpt><trkpt lat="45.1480267" lon="8.3395809"><ele>117.5</ele><time>2026-04-20T08:12:06.359Z</time></trkpt><trkpt lat="45.1478227" lon="8.339781"><ele>115.0</ele><time>2026-04-20T08:12:07.367Z</time></trkpt><trkpt lat="45.1476144" lon="8.3399622"><ele>115.0</ele><time>2026-04-20T08:12:08.366Z</time></trkpt><trkpt lat="45.1474036" lon="8.3401317"><ele>115.0</ele><time>2026-04-20T08:12:09.362Z</time></trkpt><trkpt lat="45.1472009" lon="8.3403197"><ele>115.5</ele><time>2026-04-20T08:12:10.371Z</time></trkpt><trkpt lat="45.1470088" lon="8.3405016"><ele>116.0</ele><time>2026-04-20T08:12:11.374Z</time></trkpt><trkpt lat="45.1468061" lon="8.3406815"><ele>116.0</ele><time>2026-04-20T08:12:12.365Z</time></trkpt><trkpt lat="45.1465953" lon="8.3408591"><ele>116.0</ele><time>2026-04-20T08:12:13.376Z</time></trkpt><trkpt lat="45.146382" lon="8.3410305"><ele>120.0</ele><time>2026-04-20T08:12:14.371Z</time></trkpt><trkpt lat="45.146179" lon="8.3412214"><ele>124.0</ele><time>2026-04-20T08:12:15.368Z</time></trkpt><trkpt lat="45.1459701" lon="8.3414099"><ele>126.0</ele><time>2026-04-20T08:12:16.367Z</time></trkpt><trkpt lat="45.145758" lon="8.3415911"><ele>128.0</ele><time>2026-04-20T08:12:17.357Z</time></trkpt><trkpt lat="45.1455612" lon="8.3417872"><ele>128.0</ele><time>2026-04-20T08:12:18.371Z</time></trkpt><trkpt lat="45.1453587" lon="8.3419608"><ele>128.0</ele><time>2026-04-20T08:12:19.363Z</time></trkpt><trkpt lat="45.1451574" lon="8.3421491"><ele>128.0</ele><time>2026-04-20T08:12:20.379Z</time></trkpt><trkpt lat="45.1449463" lon="8.3423187"><ele>128.0</ele><time>2026-04-20T08:12:21.363Z</time></trkpt><trkpt lat="45.1447257" lon="8.3424919"><ele>128.0</ele><time>2026-04-20T08:12:22.369Z</time></trkpt><trkpt lat="45.1445041" lon="8.3426675"><ele>128.0</ele><time>2026-04-20T08:12:23.375Z</time></trkpt><trkpt lat="45.144279" lon="8.3428301"><ele>128.0</ele><time>2026-04-20T08:12:24.375Z</time></trkpt><trkpt lat="45.1440609" lon="8.3429632"><ele>128.0</ele><time>2026-04-20T08:12:25.367Z</time></trkpt><trkpt lat="45.1438392" lon="8.3430854"><ele>128.5</ele><time>2026-04-20T08:12:26.372Z</time></trkpt><trkpt lat="45.1436105" lon="8.3432034"><ele>129.0</ele><time>2026-04-20T08:12:27.373Z</time></trkpt><trkpt lat="45.1433763" lon="8.3433054"><ele>129.0</ele><time>2026-04-20T08:12:28.369Z</time></trkpt><trkpt lat="45.1431224" lon="8.343397"><ele>129.0</ele><time>2026-04-20T08:12:29.367Z</time></trkpt><trkpt lat="45.1428659" lon="8.3434943"><ele>129.0</ele><time>2026-04-20T08:12:30.364Z</time></trkpt><trkpt lat="45.142621" lon="8.343583"><ele>129.0</ele><time>2026-04-20T08:12:31.369Z</time></trkpt><trkpt lat="45.1423751" lon="8.3436558"><ele>128.5</ele><time>2026-04-20T08:12:32.359Z</time></trkpt><trkpt lat="45.1421251" lon="8.3437293"><ele>128.0</ele><time>2026-04-20T08:12:33.369Z</time></trkpt><trkpt lat="45.1418845" lon="8.3437902"><ele>128.0</ele><time>2026-04-20T08:12:34.363Z</time></trkpt><trkpt lat="45.1416417" lon="8.3438592"><ele>128.0</ele><time>2026-04-20T08:12:35.366Z</time></trkpt><trkpt lat="45.141399" lon="8.3439393"><ele>128.5</ele><time>2026-04-20T08:12:36.363Z</time></trkpt><trkpt lat="45.1411636" lon="8.3440194"><ele>129.0</ele><time>2026-04-20T08:12:37.364Z</time></trkpt><trkpt lat="45.14094" lon="8.3440916"><ele>128.5</ele><time>2026-04-20T08:12:38.365Z</time></trkpt><trkpt lat="45.1407018" lon="8.3441551"><ele>128.0</ele><time>2026-04-20T08:12:39.366Z</time></trkpt><trkpt lat="45.14046" lon="8.344223"><ele>128.0</ele><time>2026-04-20T08:12:40.367Z</time></trkpt><trkpt lat="45.1402121" lon="8.3442959"><ele>128.0</ele><time>2026-04-20T08:12:41.37Z</time></trkpt><trkpt lat="45.1399745" lon="8.3443269"><ele>127.5</ele><time>2026-04-20T08:12:42.371Z</time></trkpt><trkpt lat="45.1397426" lon="8.3443452"><ele>127.0</ele><time>2026-04-20T08:12:43.38Z</time></trkpt><trkpt lat="45.1394929" lon="8.3443798"><ele>127.0</ele><time>2026-04-20T08:12:44.386Z</time></trkpt><trkpt lat="45.1392486" lon="8.3443999"><ele>127.0</ele><time>2026-04-20T08:12:45.382Z</time></trkpt><trkpt lat="45.1390186" lon="8.3444117"><ele>126.0</ele><time>2026-04-20T08:12:46.384Z</time></trkpt><trkpt lat="45.1387651" lon="8.3444072"><ele>125.0</ele><time>2026-04-20T08:12:47.384Z</time></trkpt><trkpt lat="45.1385033" lon="8.3443863"><ele>125.0</ele><time>2026-04-20T08:12:48.374Z</time></trkpt><trkpt lat="45.1382442" lon="8.3443351"><ele>125.0</ele><time>2026-04-20T08:12:49.382Z</time></trkpt><trkpt lat="45.1379922" lon="8.3442789"><ele>125.0</ele><time>2026-04-20T08:12:50.384Z</time></trkpt><trkpt lat="45.1377447" lon="8.3442074"><ele>125.0</ele><time>2026-04-20T08:12:51.378Z</time></trkpt><trkpt lat="45.1374998" lon="8.3441289"><ele>125.5</ele><time>2026-04-20T08:12:52.372Z</time></trkpt><trkpt lat="45.1372568" lon="8.344036"><ele>126.0</ele><time>2026-04-20T08:12:53.367Z</time></trkpt><trkpt lat="45.1370143" lon="8.3439382"><ele>126.5</ele><time>2026-04-20T08:12:54.369Z</time></trkpt><trkpt lat="45.1367738" lon="8.3438145"><ele>127.0</ele><time>2026-04-20T08:12:55.371Z</time></trkpt><trkpt lat="45.1365374" lon="8.3436799"><ele>127.0</ele><time>2026-04-20T08:12:56.368Z</time></trkpt><trkpt lat="45.1363134" lon="8.3435254"><ele>127.0</ele><time>2026-04-20T08:12:57.374Z</time></trkpt><trkpt lat="45.1360787" lon="8.3433733"><ele>127.0</ele><time>2026-04-20T08:12:58.369Z</time></trkpt><trkpt lat="45.1358446" lon="8.3432156"><ele>127.0</ele><time>2026-04-20T08:12:59.368Z</time></trkpt><trkpt lat="45.1356245" lon="8.3430426"><ele>127.0</ele><time>2026-04-20T08:13:00.368Z</time></trkpt><trkpt lat="45.1354092" lon="8.3428468"><ele>127.0</ele><time>2026-04-20T08:13:01.37Z</time></trkpt><trkpt lat="45.1351973" lon="8.3426412"><ele>127.0</ele><time>2026-04-20T08:13:02.363Z</time></trkpt><trkpt lat="45.1349995" lon="8.3424218"><ele>127.0</ele><time>2026-04-20T08:13:03.371Z</time></trkpt><trkpt lat="45.1348041" lon="8.3421939"><ele>127.0</ele><time>2026-04-20T08:13:04.374Z</time></trkpt><trkpt lat="45.1346246" lon="8.3419603"><ele>127.0</ele><time>2026-04-20T08:13:05.369Z</time></trkpt><trkpt lat="45.1344419" lon="8.3417184"><ele>127.0</ele><time>2026-04-20T08:13:06.372Z</time></trkpt><trkpt lat="45.1342501" lon="8.3414853"><ele>127.0</ele><time>2026-04-20T08:13:07.373Z</time></trkpt><trkpt lat="45.1340542" lon="8.3412615"><ele>128.0</ele><time>2026-04-20T08:13:08.367Z</time></trkpt><trkpt lat="45.1338722" lon="8.3410329"><ele>129.0</ele><time>2026-04-20T08:13:09.37Z</time></trkpt><trkpt lat="45.1336856" lon="8.3408097"><ele>129.0</ele><time>2026-04-20T08:13:10.366Z</time></trkpt><trkpt lat="45.1334973" lon="8.3405753"><ele>129.0</ele><time>2026-04-20T08:13:11.363Z</time></trkpt><trkpt lat="45.1333046" lon="8.3403418"><ele>130.0</ele><time>2026-04-20T08:13:12.37Z</time></trkpt><trkpt lat="45.1331172" lon="8.3401046"><ele>131.0</ele><time>2026-04-20T08:13:13.368Z</time></trkpt><trkpt lat="45.1329347" lon="8.3398703"><ele>131.5</ele><time>2026-04-20T08:13:14.371Z</time></trkpt><trkpt lat="45.132744" lon="8.3396354"><ele>132.0</ele><time>2026-04-20T08:13:15.37Z</time></trkpt><trkpt lat="45.132558" lon="8.3394072"><ele>132.5</ele><time>2026-04-20T08:13:16.365Z</time></trkpt><trkpt lat="45.1323722" lon="8.3391686"><ele>133.0</ele><time>2026-04-20T08:13:17.374Z</time></trkpt><trkpt lat="45.1321791" lon="8.3389601"><ele>131.5</ele><time>2026-04-20T08:13:18.369Z</time></trkpt><trkpt lat="45.1319974" lon="8.3387421"><ele>130.0</ele><time>2026-04-20T08:13:19.367Z</time></trkpt><trkpt lat="45.1318153" lon="8.3385192"><ele>130.0</ele><time>2026-04-20T08:13:20.367Z</time></trkpt><trkpt lat="45.1316459" lon="8.3382932"><ele>130.0</ele><time>2026-04-20T08:13:21.367Z</time></trkpt><trkpt lat="45.1314678" lon="8.3380683"><ele>130.0</ele><time>2026-04-20T08:13:22.37Z</time></trkpt><trkpt lat="45.1312826" lon="8.33784"><ele>130.0</ele><time>2026-04-20T08:13:23.373Z</time></trkpt><trkpt lat="45.131097" lon="8.337612"><ele>130.0</ele><time>2026-04-20T08:13:24.376Z</time></trkpt><trkpt lat="45.1308991" lon="8.3374109"><ele>130.0</ele><time>2026-04-20T08:13:25.37Z</time></trkpt><trkpt lat="45.1307021" lon="8.3372268"><ele>130.0</ele><time>2026-04-20T08:13:26.371Z</time></trkpt><trkpt lat="45.1304885" lon="8.3370434"><ele>130.0</ele><time>2026-04-20T08:13:27.374Z</time></trkpt><trkpt lat="45.1302782" lon="8.3368639"><ele>130.0</ele><time>2026-04-20T08:13:28.375Z</time></trkpt><trkpt lat="45.1300762" lon="8.3366747"><ele>130.0</ele><time>2026-04-20T08:13:29.367Z</time></trkpt><trkpt lat="45.129877" lon="8.3364879"><ele>130.5</ele><time>2026-04-20T08:13:30.367Z</time></trkpt><trkpt lat="45.1296667" lon="8.3362978"><ele>131.0</ele><time>2026-04-20T08:13:31.379Z</time></trkpt><trkpt lat="45.129464" lon="8.3361105"><ele>131.0</ele><time>2026-04-20T08:13:32.37Z</time></trkpt><trkpt lat="45.1292487" lon="8.3359162"><ele>131.0</ele><time>2026-04-20T08:13:33.373Z</time></trkpt><trkpt lat="45.1290395" lon="8.3357181"><ele>133.0</ele><time>2026-04-20T08:13:34.372Z</time></trkpt><trkpt lat="45.128831" lon="8.3355268"><ele>135.0</ele><time>2026-04-20T08:13:35.377Z</time></trkpt><trkpt lat="45.1286337" lon="8.3353352"><ele>135.0</ele><time>2026-04-20T08:13:36.368Z</time></trkpt><trkpt lat="45.1284192" lon="8.3351453"><ele>135.0</ele><time>2026-04-20T08:13:37.373Z</time></trkpt><trkpt lat="45.1282118" lon="8.3349453"><ele>136.0</ele><time>2026-04-20T08:13:38.366Z</time></trkpt><trkpt lat="45.1280122" lon="8.3347566"><ele>137.0</ele><time>2026-04-20T08:13:39.374Z</time></trkpt><trkpt lat="45.1278027" lon="8.3345574"><ele>137.0</ele><time>2026-04-20T08:13:40.367Z</time></trkpt><trkpt lat="45.1275929" lon="8.3343727"><ele>137.0</ele><time>2026-04-20T08:13:41.368Z</time></trkpt><trkpt lat="45.1273834" lon="8.3341857"><ele>137.5</ele><time>2026-04-20T08:13:42.358Z</time></trkpt><trkpt lat="45.1271855" lon="8.3339856"><ele>138.0</ele><time>2026-04-20T08:13:43.36Z</time></trkpt><trkpt lat="45.1269828" lon="8.3337846"><ele>138.0</ele><time>2026-04-20T08:13:44.363Z</time></trkpt><trkpt lat="45.1267813" lon="8.3335739"><ele>138.0</ele><time>2026-04-20T08:13:45.355Z</time></trkpt><trkpt lat="45.1265686" lon="8.3333863"><ele>137.5</ele><time>2026-04-20T08:13:46.366Z</time></trkpt><trkpt lat="45.126355" lon="8.3332015"><ele>137.0</ele><time>2026-04-20T08:13:47.36Z</time></trkpt><trkpt lat="45.1261433" lon="8.3330317"><ele>137.0</ele><time>2026-04-20T08:13:48.364Z</time></trkpt><trkpt lat="45.1259343" lon="8.332846"><ele>137.0</ele><time>2026-04-20T08:13:49.36Z</time></trkpt><trkpt lat="45.1257298" lon="8.3326422"><ele>137.5</ele><time>2026-04-20T08:13:50.36Z</time></trkpt><trkpt lat="45.1255234" lon="8.3324417"><ele>138.0</ele><time>2026-04-20T08:13:51.365Z</time></trkpt><trkpt lat="45.1253154" lon="8.3322386"><ele>138.0</ele><time>2026-04-20T08:13:52.36Z</time></trkpt><trkpt lat="45.1250968" lon="8.3320387"><ele>138.0</ele><time>2026-04-20T08:13:53.366Z</time></trkpt><trkpt lat="45.124882" lon="8.3318469"><ele>138.0</ele><time>2026-04-20T08:13:54.37Z</time></trkpt><trkpt lat="45.1246705" lon="8.3316486"><ele>138.0</ele><time>2026-04-20T08:13:55.374Z</time></trkpt><trkpt lat="45.1244637" lon="8.3314477"><ele>138.0</ele><time>2026-04-20T08:13:56.37Z</time></trkpt><trkpt lat="45.124257" lon="8.3312551"><ele>138.0</ele><time>2026-04-20T08:13:57.376Z</time></trkpt><trkpt lat="45.1240451" lon="8.331062"><ele>138.0</ele><time>2026-04-20T08:13:58.369Z</time></trkpt><trkpt lat="45.1238365" lon="8.3308578"><ele>138.0</ele><time>2026-04-20T08:13:59.375Z</time></trkpt><trkpt lat="45.123625" lon="8.3306635"><ele>138.5</ele><time>2026-04-20T08:14:00.375Z</time></trkpt><trkpt lat="45.1234115" lon="8.3304709"><ele>139.0</ele><time>2026-04-20T08:14:01.377Z</time></trkpt><trkpt lat="45.1232058" lon="8.3302563"><ele>139.0</ele><time>2026-04-20T08:14:02.37Z</time></trkpt><trkpt lat="45.1230032" lon="8.330042"><ele>139.0</ele><time>2026-04-20T08:14:03.364Z</time></trkpt><trkpt lat="45.1227949" lon="8.3298427"><ele>139.5</ele><time>2026-04-20T08:14:04.363Z</time></trkpt><trkpt lat="45.1225901" lon="8.3296534"><ele>140.0</ele><time>2026-04-20T08:14:05.364Z</time></trkpt><trkpt lat="45.1223847" lon="8.3294522"><ele>140.0</ele><time>2026-04-20T08:14:06.366Z</time></trkpt><trkpt lat="45.1221875" lon="8.3292543"><ele>140.0</ele><time>2026-04-20T08:14:07.371Z</time></trkpt><trkpt lat="45.1219824" lon="8.3290518"><ele>141.0</ele><time>2026-04-20T08:14:08.374Z</time></trkpt><trkpt lat="45.1217771" lon="8.3288429"><ele>142.0</ele><time>2026-04-20T08:14:09.372Z</time></trkpt><trkpt lat="45.1215639" lon="8.3286504"><ele>142.0</ele><time>2026-04-20T08:14:10.371Z</time></trkpt><trkpt lat="45.1213404" lon="8.328458"><ele>142.0</ele><time>2026-04-20T08:14:11.371Z</time></trkpt><trkpt lat="45.1211205" lon="8.3282797"><ele>142.0</ele><time>2026-04-20T08:14:12.368Z</time></trkpt><trkpt lat="45.1208996" lon="8.3280956"><ele>142.0</ele><time>2026-04-20T08:14:13.366Z</time></trkpt><trkpt lat="45.1206953" lon="8.3279007"><ele>142.0</ele><time>2026-04-20T08:14:14.369Z</time></trkpt><trkpt lat="45.1204986" lon="8.3277076"><ele>142.0</ele><time>2026-04-20T08:14:15.371Z</time></trkpt><trkpt lat="45.1202945" lon="8.3275155"><ele>142.0</ele><time>2026-04-20T08:14:16.37Z</time></trkpt><trkpt lat="45.1200861" lon="8.3273236"><ele>142.0</ele><time>2026-04-20T08:14:17.371Z</time></trkpt><trkpt lat="45.119891" lon="8.3271124"><ele>140.5</ele><time>2026-04-20T08:14:18.366Z</time></trkpt><trkpt lat="45.1196803" lon="8.3269219"><ele>139.0</ele><time>2026-04-20T08:14:19.369Z</time></trkpt><trkpt lat="45.1194698" lon="8.3267398"><ele>139.0</ele><time>2026-04-20T08:14:20.363Z</time></trkpt><trkpt lat="45.1192731" lon="8.326553"><ele>139.0</ele><time>2026-04-20T08:14:21.366Z</time></trkpt><trkpt lat="45.119058" lon="8.3263572"><ele>138.0</ele><time>2026-04-20T08:14:22.366Z</time></trkpt><trkpt lat="45.1188649" lon="8.3261555"><ele>137.0</ele><time>2026-04-20T08:14:23.361Z</time></trkpt><trkpt lat="45.11865" lon="8.3259744"><ele>137.0</ele><time>2026-04-20T08:14:24.37Z</time></trkpt><trkpt lat="45.1184343" lon="8.3257823"><ele>137.0</ele><time>2026-04-20T08:14:25.369Z</time></trkpt><trkpt lat="45.1182306" lon="8.3255877"><ele>136.5</ele><time>2026-04-20T08:14:26.366Z</time></trkpt><trkpt lat="45.1180266" lon="8.3253963"><ele>136.0</ele><time>2026-04-20T08:14:27.365Z</time></trkpt><trkpt lat="45.1178179" lon="8.3252032"><ele>136.0</ele><time>2026-04-20T08:14:28.373Z</time></trkpt><trkpt lat="45.1176128" lon="8.3250095"><ele>136.0</ele><time>2026-04-20T08:14:29.377Z</time></trkpt><trkpt lat="45.1174119" lon="8.3248167"><ele>136.0</ele><time>2026-04-20T08:14:30.378Z</time></trkpt><trkpt lat="45.1172106" lon="8.3246208"><ele>136.0</ele><time>2026-04-20T08:14:31.379Z</time></trkpt><trkpt lat="45.1170119" lon="8.3244306"><ele>136.0</ele><time>2026-04-20T08:14:32.372Z</time></trkpt><trkpt lat="45.116802" lon="8.3242473"><ele>136.0</ele><time>2026-04-20T08:14:33.38Z</time></trkpt><trkpt lat="45.1165954" lon="8.3240642"><ele>135.5</ele><time>2026-04-20T08:14:34.374Z</time></trkpt><trkpt lat="45.1163972" lon="8.3238759"><ele>135.0</ele><time>2026-04-20T08:14:35.373Z</time></trkpt><trkpt lat="45.1161965" lon="8.3236784"><ele>135.0</ele><time>2026-04-20T08:14:36.375Z</time></trkpt><trkpt lat="45.1160043" lon="8.3234881"><ele>135.0</ele><time>2026-04-20T08:14:37.38Z</time></trkpt><trkpt lat="45.115809" lon="8.3233073"><ele>135.0</ele><time>2026-04-20T08:14:38.373Z</time></trkpt><trkpt lat="45.1156034" lon="8.3231254"><ele>135.0</ele><time>2026-04-20T08:14:39.377Z</time></trkpt><trkpt lat="45.1154029" lon="8.3229467"><ele>135.5</ele><time>2026-04-20T08:14:40.379Z</time></trkpt><trkpt lat="45.1152158" lon="8.3227697"><ele>136.0</ele><time>2026-04-20T08:14:41.373Z</time></trkpt><trkpt lat="45.115012" lon="8.3225814"><ele>135.5</ele><time>2026-04-20T08:14:42.376Z</time></trkpt><trkpt lat="45.114808" lon="8.3223935"><ele>135.0</ele><time>2026-04-20T08:14:43.378Z</time></trkpt><trkpt lat="45.1146017" lon="8.3222055"><ele>135.0</ele><time>2026-04-20T08:14:44.383Z</time></trkpt><trkpt lat="45.1143976" lon="8.3220202"><ele>135.0</ele><time>2026-04-20T08:14:45.372Z</time></trkpt><trkpt lat="45.1142045" lon="8.3218281"><ele>137.0</ele><time>2026-04-20T08:14:46.383Z</time></trkpt><trkpt lat="45.1140082" lon="8.3216467"><ele>139.0</ele><time>2026-04-20T08:14:47.374Z</time></trkpt><trkpt lat="45.1138048" lon="8.3214636"><ele>139.5</ele><time>2026-04-20T08:14:48.381Z</time></trkpt><trkpt lat="45.113617" lon="8.3212694"><ele>140.0</ele><time>2026-04-20T08:14:49.379Z</time></trkpt><trkpt lat="45.113415" lon="8.3210773"><ele>139.5</ele><time>2026-04-20T08:14:50.379Z</time></trkpt><trkpt lat="45.113214" lon="8.3208772"><ele>139.0</ele><time>2026-04-20T08:14:51.369Z</time></trkpt><trkpt lat="45.1130068" lon="8.3206911"><ele>139.5</ele><time>2026-04-20T08:14:52.372Z</time></trkpt><trkpt lat="45.1128019" lon="8.3205025"><ele>140.0</ele><time>2026-04-20T08:14:53.377Z</time></trkpt><trkpt lat="45.1125997" lon="8.3203272"><ele>139.0</ele><time>2026-04-20T08:14:54.377Z</time></trkpt><trkpt lat="45.1123926" lon="8.3201297"><ele>138.0</ele><time>2026-04-20T08:14:55.382Z</time></trkpt><trkpt lat="45.1121898" lon="8.3199296"><ele>138.0</ele><time>2026-04-20T08:14:56.38Z</time></trkpt><trkpt lat="45.1119769" lon="8.31974"><ele>138.0</ele><time>2026-04-20T08:14:57.381Z</time></trkpt><trkpt lat="45.1117699" lon="8.3195358"><ele>139.5</ele><time>2026-04-20T08:14:58.377Z</time></trkpt><trkpt lat="45.1115469" lon="8.3193319"><ele>141.0</ele><time>2026-04-20T08:14:59.385Z</time></trkpt><trkpt lat="45.111342" lon="8.3191319"><ele>141.0</ele><time>2026-04-20T08:15:00.379Z</time></trkpt><trkpt lat="45.1111485" lon="8.3189221"><ele>141.0</ele><time>2026-04-20T08:15:01.379Z</time></trkpt><trkpt lat="45.1109278" lon="8.3187249"><ele>141.0</ele><time>2026-04-20T08:15:02.375Z</time></trkpt><trkpt lat="45.1107115" lon="8.3185202"><ele>141.0</ele><time>2026-04-20T08:15:03.377Z</time></trkpt><trkpt lat="45.1105062" lon="8.3183135"><ele>141.0</ele><time>2026-04-20T08:15:04.377Z</time></trkpt><trkpt lat="45.1103003" lon="8.3180983"><ele>141.0</ele><time>2026-04-20T08:15:05.373Z</time></trkpt><trkpt lat="45.1100962" lon="8.3178837"><ele>139.5</ele><time>2026-04-20T08:15:06.373Z</time></trkpt><trkpt lat="45.1098974" lon="8.3176813"><ele>138.0</ele><time>2026-04-20T08:15:07.374Z</time></trkpt><trkpt lat="45.1096902" lon="8.3174789"><ele>138.0</ele><time>2026-04-20T08:15:08.371Z</time></trkpt><trkpt lat="45.1094813" lon="8.3172632"><ele>138.0</ele><time>2026-04-20T08:15:09.377Z</time></trkpt><trkpt lat="45.1092828" lon="8.317055"><ele>137.5</ele><time>2026-04-20T08:15:10.368Z</time></trkpt><trkpt lat="45.1090728" lon="8.3168473"><ele>137.0</ele><time>2026-04-20T08:15:11.377Z</time></trkpt><trkpt lat="45.1088609" lon="8.3166495"><ele>137.0</ele><time>2026-04-20T08:15:12.376Z</time></trkpt><trkpt lat="45.1086591" lon="8.3164422"><ele>137.0</ele><time>2026-04-20T08:15:13.371Z</time></trkpt><trkpt lat="45.1084576" lon="8.3162442"><ele>137.5</ele><time>2026-04-20T08:15:14.377Z</time></trkpt><trkpt lat="45.1082507" lon="8.3160391"><ele>138.0</ele><time>2026-04-20T08:15:15.372Z</time></trkpt><trkpt lat="45.1080549" lon="8.3158398"><ele>139.0</ele><time>2026-04-20T08:15:16.383Z</time></trkpt><trkpt lat="45.1078364" lon="8.3156316"><ele>140.0</ele><time>2026-04-20T08:15:17.392Z</time></trkpt><trkpt lat="45.1076145" lon="8.3154216"><ele>139.5</ele><time>2026-04-20T08:15:18.39Z</time></trkpt><trkpt lat="45.1074053" lon="8.315206"><ele>139.0</ele><time>2026-04-20T08:15:19.387Z</time></trkpt><trkpt lat="45.1071901" lon="8.3150001"><ele>139.0</ele><time>2026-04-20T08:15:20.39Z</time></trkpt><trkpt lat="45.1069803" lon="8.3147853"><ele>139.0</ele><time>2026-04-20T08:15:21.385Z</time></trkpt><trkpt lat="45.1067706" lon="8.3145634"><ele>140.0</ele><time>2026-04-20T08:15:22.39Z</time></trkpt><trkpt lat="45.1065668" lon="8.3143528"><ele>141.0</ele><time>2026-04-20T08:15:23.383Z</time></trkpt><trkpt lat="45.106354" lon="8.3141401"><ele>141.0</ele><time>2026-04-20T08:15:24.391Z</time></trkpt><trkpt lat="45.106151" lon="8.3139301"><ele>141.0</ele><time>2026-04-20T08:15:25.388Z</time></trkpt><trkpt lat="45.1059406" lon="8.3137207"><ele>141.0</ele><time>2026-04-20T08:15:26.389Z</time></trkpt><trkpt lat="45.105728" lon="8.3135073"><ele>141.0</ele><time>2026-04-20T08:15:27.374Z</time></trkpt><trkpt lat="45.1055118" lon="8.313301"><ele>141.0</ele><time>2026-04-20T08:15:28.377Z</time></trkpt><trkpt lat="45.1053037" lon="8.3130851"><ele>141.0</ele><time>2026-04-20T08:15:29.381Z</time></trkpt><trkpt lat="45.1050953" lon="8.3128823"><ele>142.5</ele><time>2026-04-20T08:15:30.377Z</time></trkpt><trkpt lat="45.104887" lon="8.312677"><ele>144.0</ele><time>2026-04-20T08:15:31.384Z</time></trkpt><trkpt lat="45.1046764" lon="8.3124745"><ele>144.0</ele><time>2026-04-20T08:15:32.375Z</time></trkpt><trkpt lat="45.1044754" lon="8.3122645"><ele>144.0</ele><time>2026-04-20T08:15:33.381Z</time></trkpt><trkpt lat="45.104274" lon="8.3120521"><ele>144.0</ele><time>2026-04-20T08:15:34.37Z</time></trkpt><trkpt lat="45.1040497" lon="8.3118553"><ele>144.0</ele><time>2026-04-20T08:15:35.371Z</time></trkpt><trkpt lat="45.1038352" lon="8.311649"><ele>144.0</ele><time>2026-04-20T08:15:36.384Z</time></trkpt><trkpt lat="45.1036116" lon="8.3114451"><ele>144.0</ele><time>2026-04-20T08:15:37.381Z</time></trkpt><trkpt lat="45.1034064" lon="8.311234"><ele>146.5</ele><time>2026-04-20T08:15:38.363Z</time></trkpt><trkpt lat="45.1031931" lon="8.3110246"><ele>149.0</ele><time>2026-04-20T08:15:39.371Z</time></trkpt><trkpt lat="45.102987" lon="8.3108097"><ele>149.0</ele><time>2026-04-20T08:15:40.372Z</time></trkpt><trkpt lat="45.1027753" lon="8.3105959"><ele>149.0</ele><time>2026-04-20T08:15:41.384Z</time></trkpt><trkpt lat="45.1025562" lon="8.3104184"><ele>152.0</ele><time>2026-04-20T08:15:42.362Z</time></trkpt><trkpt lat="45.1023161" lon="8.3102767"><ele>155.0</ele><time>2026-04-20T08:15:43.369Z</time></trkpt><trkpt lat="45.102078" lon="8.3101654"><ele>155.0</ele><time>2026-04-20T08:15:44.372Z</time></trkpt><trkpt lat="45.101825" lon="8.3100899"><ele>155.0</ele><time>2026-04-20T08:15:45.373Z</time></trkpt><trkpt lat="45.1015749" lon="8.3100306"><ele>157.66666666666666</ele><time>2026-04-20T08:15:46.37Z</time></trkpt><trkpt lat="45.1013533" lon="8.3100017"><ele>160.33333333333334</ele><time>2026-04-20T08:15:47.361Z</time></trkpt><trkpt lat="45.1011266" lon="8.3099947"><ele>163.0</ele><time>2026-04-20T08:15:48.355Z</time></trkpt><trkpt lat="45.1009235" lon="8.309996"><ele>163.0</ele><time>2026-04-20T08:15:49.363Z</time></trkpt><trkpt lat="45.1007193" lon="8.3100043"><ele>163.0</ele><time>2026-04-20T08:15:50.365Z</time></trkpt><trkpt lat="45.1005508" lon="8.310031"><ele>163.0</ele><time>2026-04-20T08:15:51.368Z</time></trkpt><trkpt lat="45.1003755" lon="8.3100746"><ele>163.0</ele><time>2026-04-20T08:15:52.366Z</time></trkpt><trkpt lat="45.1002024" lon="8.3101178"><ele>163.0</ele><time>2026-04-20T08:15:53.362Z</time></trkpt><trkpt lat="45.1000542" lon="8.3101781"><ele>163.0</ele><time>2026-04-20T08:15:54.358Z</time></trkpt><trkpt lat="45.0999111" lon="8.3102252"><ele>162.66666666666669</ele><time>2026-04-20T08:15:55.349Z</time></trkpt><trkpt lat="45.0997406" lon="8.3102679"><ele>162.33333333333334</ele><time>2026-04-20T08:15:56.372Z</time></trkpt><trkpt lat="45.0995602" lon="8.3103128"><ele>162.0</ele><time>2026-04-20T08:15:57.363Z</time></trkpt><trkpt lat="45.0993881" lon="8.310356"><ele>162.0</ele><time>2026-04-20T08:15:58.361Z</time></trkpt><trkpt lat="45.0992424" lon="8.3104061"><ele>162.0</ele><time>2026-04-20T08:15:59.363Z</time></trkpt><trkpt lat="45.0991109" lon="8.3104426"><ele>162.0</ele><time>2026-04-20T08:16:00.367Z</time></trkpt><trkpt lat="45.098996" lon="8.3104519"><ele>162.0</ele><time>2026-04-20T08:16:01.375Z</time></trkpt><trkpt lat="45.0988649" lon="8.3104793"><ele>161.5</ele><time>2026-04-20T08:16:02.354Z</time></trkpt><trkpt lat="45.0987416" lon="8.310508"><ele>161.0</ele><time>2026-04-20T08:16:03.359Z</time></trkpt><trkpt lat="45.098615" lon="8.3105276"><ele>160.5</ele><time>2026-04-20T08:16:04.361Z</time></trkpt><trkpt lat="45.0984868" lon="8.3105417"><ele>160.0</ele><time>2026-04-20T08:16:05.366Z</time></trkpt><trkpt lat="45.0983409" lon="8.3105595"><ele>157.66666666666669</ele><time>2026-04-20T08:16:06.38Z</time></trkpt><trkpt lat="45.0981918" lon="8.3105672"><ele>155.33333333333334</ele><time>2026-04-20T08:16:07.368Z</time></trkpt><trkpt lat="45.0980392" lon="8.310557"><ele>153.0</ele><time>2026-04-20T08:16:08.365Z</time></trkpt><trkpt lat="45.0978818" lon="8.3105371"><ele>153.0</ele><time>2026-04-20T08:16:09.367Z</time></trkpt><trkpt lat="45.0977048" lon="8.3105371"><ele>153.0</ele><time>2026-04-20T08:16:10.375Z</time></trkpt><trkpt lat="45.0974929" lon="8.3104978"><ele>153.0</ele><time>2026-04-20T08:16:11.367Z</time></trkpt><trkpt lat="45.0972874" lon="8.3104309"><ele>153.0</ele><time>2026-04-20T08:16:12.376Z</time></trkpt><trkpt lat="45.0970471" lon="8.3103703"><ele>153.0</ele><time>2026-04-20T08:16:13.379Z</time></trkpt><trkpt lat="45.096796" lon="8.3103127"><ele>153.0</ele><time>2026-04-20T08:16:14.47Z</time></trkpt><trkpt lat="45.0965461" lon="8.3102601"><ele>153.0</ele><time>2026-04-20T08:16:15.47Z</time></trkpt><trkpt lat="45.0963003" lon="8.3102027"><ele>153.0</ele><time>2026-04-20T08:16:16.494Z</time></trkpt><trkpt lat="45.0960578" lon="8.3101519"><ele>153.0</ele><time>2026-04-20T08:16:17.481Z</time></trkpt><trkpt lat="45.0958158" lon="8.3100995"><ele>152.5</ele><time>2026-04-20T08:16:18.465Z</time></trkpt><trkpt lat="45.0955728" lon="8.3100514"><ele>152.0</ele><time>2026-04-20T08:16:19.482Z</time></trkpt><trkpt lat="45.0953401" lon="8.310004"><ele>152.0</ele><time>2026-04-20T08:16:20.468Z</time></trkpt><trkpt lat="45.0951082" lon="8.3099621"><ele>152.0</ele><time>2026-04-20T08:16:21.473Z</time></trkpt><trkpt lat="45.0948686" lon="8.3099238"><ele>151.0</ele><time>2026-04-20T08:16:22.486Z</time></trkpt><trkpt lat="45.0946312" lon="8.309884"><ele>150.0</ele><time>2026-04-20T08:16:23.481Z</time></trkpt><trkpt lat="45.0943914" lon="8.3098459"><ele>150.0</ele><time>2026-04-20T08:16:24.48Z</time></trkpt><trkpt lat="45.0941565" lon="8.3098131"><ele>150.0</ele><time>2026-04-20T08:16:25.47Z</time></trkpt><trkpt lat="45.0939333" lon="8.3098005"><ele>149.5</ele><time>2026-04-20T08:16:26.463Z</time></trkpt><trkpt lat="45.0937056" lon="8.3098028"><ele>149.0</ele><time>2026-04-20T08:16:27.485Z</time></trkpt><trkpt lat="45.0934731" lon="8.3098209"><ele>150.0</ele><time>2026-04-20T08:16:28.473Z</time></trkpt><trkpt lat="45.0932409" lon="8.3098447"><ele>151.0</ele><time>2026-04-20T08:16:29.472Z</time></trkpt><trkpt lat="45.0930075" lon="8.3098733"><ele>151.0</ele><time>2026-04-20T08:16:30.478Z</time></trkpt><trkpt lat="45.0927753" lon="8.3099015"><ele>151.0</ele><time>2026-04-20T08:16:31.474Z</time></trkpt><trkpt lat="45.0925441" lon="8.309925"><ele>151.5</ele><time>2026-04-20T08:16:32.487Z</time></trkpt><trkpt lat="45.0923129" lon="8.3099462"><ele>152.0</ele><time>2026-04-20T08:16:33.471Z</time></trkpt><trkpt lat="45.0920812" lon="8.3099672"><ele>152.0</ele><time>2026-04-20T08:16:34.477Z</time></trkpt><trkpt lat="45.0918517" lon="8.3099901"><ele>152.0</ele><time>2026-04-20T08:16:35.474Z</time></trkpt><trkpt lat="45.0916232" lon="8.3100112"><ele>151.0</ele><time>2026-04-20T08:16:36.478Z</time></trkpt><trkpt lat="45.0913988" lon="8.3100321"><ele>150.0</ele><time>2026-04-20T08:16:37.493Z</time></trkpt><trkpt lat="45.0911728" lon="8.3100548"><ele>150.0</ele><time>2026-04-20T08:16:38.464Z</time></trkpt><trkpt lat="45.0909516" lon="8.31008"><ele>150.0</ele><time>2026-04-20T08:16:39.473Z</time></trkpt><trkpt lat="45.0907336" lon="8.3101073"><ele>150.0</ele><time>2026-04-20T08:16:40.482Z</time></trkpt><trkpt lat="45.0905179" lon="8.3101301"><ele>150.0</ele><time>2026-04-20T08:16:41.475Z</time></trkpt><trkpt lat="45.0903051" lon="8.3101506"><ele>150.0</ele><time>2026-04-20T08:16:42.474Z</time></trkpt><trkpt lat="45.0900939" lon="8.310171"><ele>150.0</ele><time>2026-04-20T08:16:43.483Z</time></trkpt><trkpt lat="45.08988" lon="8.31019"><ele>151.33333333333334</ele><time>2026-04-20T08:16:44.466Z</time></trkpt><trkpt lat="45.0896636" lon="8.3102097"><ele>152.66666666666669</ele><time>2026-04-20T08:16:45.469Z</time></trkpt><trkpt lat="45.0894505" lon="8.3102313"><ele>154.0</ele><time>2026-04-20T08:16:46.464Z</time></trkpt><trkpt lat="45.0892368" lon="8.3102529"><ele>154.0</ele><time>2026-04-20T08:16:47.47Z</time></trkpt><trkpt lat="45.0890195" lon="8.3102751"><ele>154.0</ele><time>2026-04-20T08:16:48.484Z</time></trkpt><trkpt lat="45.0888034" lon="8.3102961"><ele>154.0</ele><time>2026-04-20T08:16:49.465Z</time></trkpt><trkpt lat="45.088589" lon="8.310315"><ele>154.0</ele><time>2026-04-20T08:16:50.475Z</time></trkpt><trkpt lat="45.0883765" lon="8.3103326"><ele>154.0</ele><time>2026-04-20T08:16:51.464Z</time></trkpt><trkpt lat="45.0881618" lon="8.3103531"><ele>154.0</ele><time>2026-04-20T08:16:52.472Z</time></trkpt><trkpt lat="45.0879454" lon="8.3103778"><ele>153.66666666666669</ele><time>2026-04-20T08:16:53.488Z</time></trkpt><trkpt lat="45.087726" lon="8.3103984"><ele>153.33333333333334</ele><time>2026-04-20T08:16:54.474Z</time></trkpt><trkpt lat="45.0875062" lon="8.3104114"><ele>153.0</ele><time>2026-04-20T08:16:55.47Z</time></trkpt><trkpt lat="45.0872838" lon="8.3104126"><ele>153.66666666666666</ele><time>2026-04-20T08:16:56.463Z</time></trkpt><trkpt lat="45.0870631" lon="8.310397"><ele>154.33333333333331</ele><time>2026-04-20T08:16:57.462Z</time></trkpt><trkpt lat="45.0868474" lon="8.3103595"><ele>155.0</ele><time>2026-04-20T08:16:58.471Z</time></trkpt><trkpt lat="45.086627" lon="8.3103075"><ele>155.66666666666666</ele><time>2026-04-20T08:16:59.459Z</time></trkpt><trkpt lat="45.0864087" lon="8.3102511"><ele>156.33333333333334</ele><time>2026-04-20T08:17:00.465Z</time></trkpt><trkpt lat="45.0861908" lon="8.3101842"><ele>157.0</ele><time>2026-04-20T08:17:01.467Z</time></trkpt><trkpt lat="45.0859759" lon="8.3101047"><ele>157.0</ele><time>2026-04-20T08:17:02.457Z</time></trkpt><trkpt lat="45.0857648" lon="8.3100106"><ele>157.0</ele><time>2026-04-20T08:17:03.479Z</time></trkpt><trkpt lat="45.0855532" lon="8.3099098"><ele>157.0</ele><time>2026-04-20T08:17:04.462Z</time></trkpt><trkpt lat="45.0853376" lon="8.3098136"><ele>156.5</ele><time>2026-04-20T08:17:05.46Z</time></trkpt><trkpt lat="45.0851181" lon="8.3097157"><ele>156.0</ele><time>2026-04-20T08:17:06.461Z</time></trkpt><trkpt lat="45.0848959" lon="8.3096156"><ele>154.5</ele><time>2026-04-20T08:17:07.468Z</time></trkpt><trkpt lat="45.0846782" lon="8.3095121"><ele>153.0</ele><time>2026-04-20T08:17:08.475Z</time></trkpt><trkpt lat="45.0844627" lon="8.3094089"><ele>153.0</ele><time>2026-04-20T08:17:09.47Z</time></trkpt><trkpt lat="45.084245" lon="8.3093112"><ele>153.0</ele><time>2026-04-20T08:17:10.47Z</time></trkpt><trkpt lat="45.0840249" lon="8.3092171"><ele>154.5</ele><time>2026-04-20T08:17:11.464Z</time></trkpt><trkpt lat="45.0838016" lon="8.3091276"><ele>156.0</ele><time>2026-04-20T08:17:12.466Z</time></trkpt><trkpt lat="45.0835804" lon="8.3090364"><ele>156.0</ele><time>2026-04-20T08:17:13.473Z</time></trkpt><trkpt lat="45.0833602" lon="8.3089389"><ele>156.0</ele><time>2026-04-20T08:17:14.467Z</time></trkpt><trkpt lat="45.083139" lon="8.3088406"><ele>155.5</ele><time>2026-04-20T08:17:15.458Z</time></trkpt><trkpt lat="45.0829179" lon="8.3087412"><ele>155.0</ele><time>2026-04-20T08:17:16.452Z</time></trkpt><trkpt lat="45.0826966" lon="8.3086414"><ele>155.0</ele><time>2026-04-20T08:17:17.457Z</time></trkpt><trkpt lat="45.082475" lon="8.3085407"><ele>155.0</ele><time>2026-04-20T08:17:18.468Z</time></trkpt><trkpt lat="45.0822531" lon="8.3084415"><ele>156.5</ele><time>2026-04-20T08:17:19.466Z</time></trkpt><trkpt lat="45.0820324" lon="8.3083424"><ele>158.0</ele><time>2026-04-20T08:17:20.47Z</time></trkpt><trkpt lat="45.0818128" lon="8.3082486"><ele>158.5</ele><time>2026-04-20T08:17:21.463Z</time></trkpt><trkpt lat="45.0815898" lon="8.3081527"><ele>159.0</ele><time>2026-04-20T08:17:22.461Z</time></trkpt><trkpt lat="45.0813676" lon="8.3080542"><ele>160.0</ele><time>2026-04-20T08:17:23.466Z</time></trkpt><trkpt lat="45.081145" lon="8.3079519"><ele>161.0</ele><time>2026-04-20T08:17:24.458Z</time></trkpt><trkpt lat="45.0809216" lon="8.3078497"><ele>161.0</ele><time>2026-04-20T08:17:25.458Z</time></trkpt><trkpt lat="45.080697" lon="8.3077454"><ele>161.0</ele><time>2026-04-20T08:17:26.458Z</time></trkpt><trkpt lat="45.0804732" lon="8.3076454"><ele>161.0</ele><time>2026-04-20T08:17:27.462Z</time></trkpt><trkpt lat="45.0802456" lon="8.3075398"><ele>161.0</ele><time>2026-04-20T08:17:28.471Z</time></trkpt><trkpt lat="45.0800258" lon="8.3074369"><ele>159.5</ele><time>2026-04-20T08:17:29.463Z</time></trkpt><trkpt lat="45.0798041" lon="8.3073317"><ele>158.0</ele><time>2026-04-20T08:17:30.463Z</time></trkpt><trkpt lat="45.0795857" lon="8.3072304"><ele>158.0</ele><time>2026-04-20T08:17:31.467Z</time></trkpt><trkpt lat="45.0793599" lon="8.3071255"><ele>158.0</ele><time>2026-04-20T08:17:32.458Z</time></trkpt><trkpt lat="45.0791488" lon="8.3070144"><ele>157.33333333333331</ele><time>2026-04-20T08:17:33.469Z</time></trkpt><trkpt lat="45.0789442" lon="8.3069036"><ele>156.66666666666666</ele><time>2026-04-20T08:17:34.464Z</time></trkpt><trkpt lat="45.078736" lon="8.3067916"><ele>156.0</ele><time>2026-04-20T08:17:35.465Z</time></trkpt><trkpt lat="45.0785205" lon="8.3066809"><ele>156.0</ele><time>2026-04-20T08:17:36.466Z</time></trkpt><trkpt lat="45.078299" lon="8.3065604"><ele>156.0</ele><time>2026-04-20T08:17:37.455Z</time></trkpt><trkpt lat="45.0780819" lon="8.3064178"><ele>157.0</ele><time>2026-04-20T08:17:38.47Z</time></trkpt><trkpt lat="45.0778727" lon="8.3062602"><ele>158.0</ele><time>2026-04-20T08:17:39.459Z</time></trkpt><trkpt lat="45.077669" lon="8.3060817"><ele>158.0</ele><time>2026-04-20T08:17:40.449Z</time></trkpt><trkpt lat="45.0774522" lon="8.3058816"><ele>158.0</ele><time>2026-04-20T08:17:41.455Z</time></trkpt><trkpt lat="45.0772986" lon="8.3056642"><ele>158.5</ele><time>2026-04-20T08:17:42.453Z</time></trkpt><trkpt lat="45.0771266" lon="8.3053927"><ele>159.0</ele><time>2026-04-20T08:17:43.473Z</time></trkpt><trkpt lat="45.0769643" lon="8.3051256"><ele>159.0</ele><time>2026-04-20T08:17:44.468Z</time></trkpt><trkpt lat="45.0768084" lon="8.3048702"><ele>159.0</ele><time>2026-04-20T08:17:45.46Z</time></trkpt><trkpt lat="45.0766583" lon="8.3046188"><ele>160.0</ele><time>2026-04-20T08:17:46.468Z</time></trkpt><trkpt lat="45.0765019" lon="8.304354"><ele>161.0</ele><time>2026-04-20T08:17:47.472Z</time></trkpt><trkpt lat="45.0763461" lon="8.3040967"><ele>160.0</ele><time>2026-04-20T08:17:48.47Z</time></trkpt><trkpt lat="45.0761901" lon="8.3038432"><ele>159.0</ele><time>2026-04-20T08:17:49.482Z</time></trkpt><trkpt lat="45.0760369" lon="8.3035941"><ele>159.0</ele><time>2026-04-20T08:17:50.472Z</time></trkpt><trkpt lat="45.0758804" lon="8.3033398"><ele>159.0</ele><time>2026-04-20T08:17:51.468Z</time></trkpt><trkpt lat="45.0757244" lon="8.3030855"><ele>159.5</ele><time>2026-04-20T08:17:52.472Z</time></trkpt><trkpt lat="45.0755689" lon="8.3028311"><ele>160.0</ele><time>2026-04-20T08:17:53.467Z</time></trkpt><trkpt lat="45.0754099" lon="8.3025801"><ele>160.0</ele><time>2026-04-20T08:17:54.47Z</time></trkpt><trkpt lat="45.0752498" lon="8.3023326"><ele>160.0</ele><time>2026-04-20T08:17:55.481Z</time></trkpt><trkpt lat="45.0750904" lon="8.3020799"><ele>160.5</ele><time>2026-04-20T08:17:56.47Z</time></trkpt><trkpt lat="45.0749327" lon="8.3018278"><ele>161.0</ele><time>2026-04-20T08:17:57.471Z</time></trkpt><trkpt lat="45.0747732" lon="8.3015735"><ele>160.0</ele><time>2026-04-20T08:17:58.471Z</time></trkpt><trkpt lat="45.0746161" lon="8.3013202"><ele>159.0</ele><time>2026-04-20T08:17:59.469Z</time></trkpt><trkpt lat="45.0744577" lon="8.3010653"><ele>159.0</ele><time>2026-04-20T08:18:00.482Z</time></trkpt><trkpt lat="45.0743003" lon="8.3008131"><ele>159.0</ele><time>2026-04-20T08:18:01.474Z</time></trkpt><trkpt lat="45.0741397" lon="8.3005671"><ele>161.5</ele><time>2026-04-20T08:18:02.474Z</time></trkpt><trkpt lat="45.0739792" lon="8.3003177"><ele>164.0</ele><time>2026-04-20T08:18:03.472Z</time></trkpt><trkpt lat="45.0738249" lon="8.3000622"><ele>164.0</ele><time>2026-04-20T08:18:04.468Z</time></trkpt><trkpt lat="45.0736721" lon="8.2998047"><ele>164.0</ele><time>2026-04-20T08:18:05.477Z</time></trkpt><trkpt lat="45.0735186" lon="8.2995488"><ele>163.5</ele><time>2026-04-20T08:18:06.467Z</time></trkpt><trkpt lat="45.0733664" lon="8.2992994"><ele>163.0</ele><time>2026-04-20T08:18:07.465Z</time></trkpt><trkpt lat="45.0732149" lon="8.2990495"><ele>161.5</ele><time>2026-04-20T08:18:08.464Z</time></trkpt><trkpt lat="45.0730593" lon="8.2987972"><ele>160.0</ele><time>2026-04-20T08:18:09.468Z</time></trkpt><trkpt lat="45.0729037" lon="8.2985448"><ele>160.0</ele><time>2026-04-20T08:18:10.482Z</time></trkpt><trkpt lat="45.0727476" lon="8.2982903"><ele>160.0</ele><time>2026-04-20T08:18:11.471Z</time></trkpt><trkpt lat="45.072595" lon="8.2980387"><ele>160.5</ele><time>2026-04-20T08:18:12.463Z</time></trkpt><trkpt lat="45.0724422" lon="8.2977842"><ele>161.0</ele><time>2026-04-20T08:18:13.466Z</time></trkpt><trkpt lat="45.0722879" lon="8.2975236"><ele>162.0</ele><time>2026-04-20T08:18:14.474Z</time></trkpt><trkpt lat="45.0721336" lon="8.2972615"><ele>163.0</ele><time>2026-04-20T08:18:15.467Z</time></trkpt><trkpt lat="45.0719772" lon="8.2969985"><ele>163.0</ele><time>2026-04-20T08:18:16.468Z</time></trkpt><trkpt lat="45.0718187" lon="8.2967373"><ele>163.0</ele><time>2026-04-20T08:18:17.471Z</time></trkpt><trkpt lat="45.0716592" lon="8.2964769"><ele>163.0</ele><time>2026-04-20T08:18:18.467Z</time></trkpt><trkpt lat="45.071499" lon="8.2962147"><ele>163.0</ele><time>2026-04-20T08:18:19.469Z</time></trkpt><trkpt lat="45.0713419" lon="8.2959504"><ele>163.0</ele><time>2026-04-20T08:18:20.469Z</time></trkpt><trkpt lat="45.0711857" lon="8.2956821"><ele>163.0</ele><time>2026-04-20T08:18:21.479Z</time></trkpt><trkpt lat="45.0710323" lon="8.2954014"><ele>163.5</ele><time>2026-04-20T08:18:22.473Z</time></trkpt><trkpt lat="45.0708853" lon="8.2951154"><ele>164.0</ele><time>2026-04-20T08:18:23.474Z</time></trkpt><trkpt lat="45.0707392" lon="8.2948226"><ele>164.5</ele><time>2026-04-20T08:18:24.46Z</time></trkpt><trkpt lat="45.0705964" lon="8.294527"><ele>165.0</ele><time>2026-04-20T08:18:25.469Z</time></trkpt><trkpt lat="45.07046" lon="8.2942334"><ele>165.0</ele><time>2026-04-20T08:18:26.485Z</time></trkpt><trkpt lat="45.0703263" lon="8.293934"><ele>165.0</ele><time>2026-04-20T08:18:27.475Z</time></trkpt><trkpt lat="45.0701975" lon="8.2936342"><ele>166.5</ele><time>2026-04-20T08:18:28.471Z</time></trkpt><trkpt lat="45.0700711" lon="8.2933312"><ele>168.0</ele><time>2026-04-20T08:18:29.472Z</time></trkpt><trkpt lat="45.0699446" lon="8.2930367"><ele>171.0</ele><time>2026-04-20T08:18:30.471Z</time></trkpt><trkpt lat="45.0698161" lon="8.29275"><ele>174.0</ele><time>2026-04-20T08:18:31.49Z</time></trkpt><trkpt lat="45.0696895" lon="8.292464"><ele>172.5</ele><time>2026-04-20T08:18:32.469Z</time></trkpt><trkpt lat="45.0695724" lon="8.2921728"><ele>171.0</ele><time>2026-04-20T08:18:33.468Z</time></trkpt><trkpt lat="45.0694623" lon="8.2918806"><ele>171.0</ele><time>2026-04-20T08:18:34.472Z</time></trkpt><trkpt lat="45.0693504" lon="8.2915914"><ele>171.0</ele><time>2026-04-20T08:18:35.466Z</time></trkpt><trkpt lat="45.0692354" lon="8.2913087"><ele>170.5</ele><time>2026-04-20T08:18:36.487Z</time></trkpt><trkpt lat="45.0691231" lon="8.2910301"><ele>170.0</ele><time>2026-04-20T08:18:37.467Z</time></trkpt><trkpt lat="45.0690124" lon="8.2907487"><ele>173.0</ele><time>2026-04-20T08:18:38.46Z</time></trkpt><trkpt lat="45.0689019" lon="8.2904706"><ele>176.0</ele><time>2026-04-20T08:18:39.463Z</time></trkpt><trkpt lat="45.0687882" lon="8.2901974"><ele>179.0</ele><time>2026-04-20T08:18:40.461Z</time></trkpt><trkpt lat="45.0686692" lon="8.2899202"><ele>178.5</ele><time>2026-04-20T08:18:41.475Z</time></trkpt><trkpt lat="45.0685462" lon="8.2896311"><ele>178.0</ele><time>2026-04-20T08:18:42.455Z</time></trkpt><trkpt lat="45.0684207" lon="8.2893431"><ele>178.0</ele><time>2026-04-20T08:18:43.457Z</time></trkpt><trkpt lat="45.0682965" lon="8.2890527"><ele>178.0</ele><time>2026-04-20T08:18:44.454Z</time></trkpt><trkpt lat="45.0681758" lon="8.2887647"><ele>183.0</ele><time>2026-04-20T08:18:45.463Z</time></trkpt><trkpt lat="45.068056" lon="8.2884781"><ele>188.0</ele><time>2026-04-20T08:18:46.473Z</time></trkpt><trkpt lat="45.0679392" lon="8.2882"><ele>186.66666666666666</ele><time>2026-04-20T08:18:47.466Z</time></trkpt><trkpt lat="45.0678253" lon="8.2879283"><ele>185.33333333333334</ele><time>2026-04-20T08:18:48.468Z</time></trkpt><trkpt lat="45.0677114" lon="8.2876532"><ele>184.0</ele><time>2026-04-20T08:18:49.46Z</time></trkpt><trkpt lat="45.0675984" lon="8.2873786"><ele>181.5</ele><time>2026-04-20T08:18:50.463Z</time></trkpt><trkpt lat="45.0674857" lon="8.2870998"><ele>179.0</ele><time>2026-04-20T08:18:51.474Z</time></trkpt><trkpt lat="45.0673756" lon="8.2868188"><ele>181.33333333333331</ele><time>2026-04-20T08:18:52.465Z</time></trkpt><trkpt lat="45.0672661" lon="8.2865401"><ele>183.66666666666666</ele><time>2026-04-20T08:18:53.459Z</time></trkpt><trkpt lat="45.0671631" lon="8.2862755"><ele>186.0</ele><time>2026-04-20T08:18:54.462Z</time></trkpt><trkpt lat="45.0670647" lon="8.2860284"><ele>186.0</ele><time>2026-04-20T08:18:55.457Z</time></trkpt><trkpt lat="45.0669705" lon="8.2857941"><ele>186.0</ele><time>2026-04-20T08:18:56.477Z</time></trkpt><trkpt lat="45.0668771" lon="8.2855626"><ele>186.0</ele><time>2026-04-20T08:18:57.471Z</time></trkpt><trkpt lat="45.0667831" lon="8.2853401"><ele>187.66666666666666</ele><time>2026-04-20T08:18:58.462Z</time></trkpt><trkpt lat="45.0666886" lon="8.2851206"><ele>189.33333333333331</ele><time>2026-04-20T08:18:59.467Z</time></trkpt><trkpt lat="45.066594" lon="8.2848932"><ele>191.0</ele><time>2026-04-20T08:19:00.46Z</time></trkpt><trkpt lat="45.0665001" lon="8.2846587"><ele>185.66666666666666</ele><time>2026-04-20T08:19:01.476Z</time></trkpt><trkpt lat="45.0664075" lon="8.2844207"><ele>180.33333333333334</ele><time>2026-04-20T08:19:02.471Z</time></trkpt><trkpt lat="45.0663135" lon="8.2841863"><ele>175.0</ele><time>2026-04-20T08:19:03.465Z</time></trkpt><trkpt lat="45.0662182" lon="8.2839443"><ele>173.66666666666669</ele><time>2026-04-20T08:19:04.463Z</time></trkpt><trkpt lat="45.0661204" lon="8.2837004"><ele>172.33333333333334</ele><time>2026-04-20T08:19:05.463Z</time></trkpt><trkpt lat="45.0660208" lon="8.2834515"><ele>171.0</ele><time>2026-04-20T08:19:06.47Z</time></trkpt><trkpt lat="45.0659188" lon="8.283204"><ele>171.0</ele><time>2026-04-20T08:19:07.468Z</time></trkpt><trkpt lat="45.0658147" lon="8.2829571"><ele>171.0</ele><time>2026-04-20T08:19:08.461Z</time></trkpt><trkpt lat="45.0657064" lon="8.2827144"><ele>171.0</ele><time>2026-04-20T08:19:09.471Z</time></trkpt><trkpt lat="45.0655954" lon="8.2824743"><ele>171.66666666666666</ele><time>2026-04-20T08:19:10.467Z</time></trkpt><trkpt lat="45.0654797" lon="8.2822402"><ele>172.33333333333331</ele><time>2026-04-20T08:19:11.482Z</time></trkpt><trkpt lat="45.0653581" lon="8.2820133"><ele>173.0</ele><time>2026-04-20T08:19:12.472Z</time></trkpt><trkpt lat="45.0652289" lon="8.2817954"><ele>173.0</ele><time>2026-04-20T08:19:13.472Z</time></trkpt><trkpt lat="45.0650905" lon="8.281592"><ele>173.0</ele><time>2026-04-20T08:19:14.472Z</time></trkpt><trkpt lat="45.0649445" lon="8.2813998"><ele>173.0</ele><time>2026-04-20T08:19:15.465Z</time></trkpt><trkpt lat="45.0647919" lon="8.2812116"><ele>173.0</ele><time>2026-04-20T08:19:16.467Z</time></trkpt><trkpt lat="45.0646364" lon="8.2810331"><ele>173.0</ele><time>2026-04-20T08:19:17.485Z</time></trkpt><trkpt lat="45.0644748" lon="8.2808713"><ele>173.0</ele><time>2026-04-20T08:19:18.468Z</time></trkpt><trkpt lat="45.0643074" lon="8.2807187"><ele>172.66666666666666</ele><time>2026-04-20T08:19:19.464Z</time></trkpt><trkpt lat="45.0641379" lon="8.2805789"><ele>172.33333333333334</ele><time>2026-04-20T08:19:20.471Z</time></trkpt><trkpt lat="45.0639651" lon="8.2804499"><ele>172.0</ele><time>2026-04-20T08:19:21.483Z</time></trkpt><trkpt lat="45.0637858" lon="8.2803291"><ele>172.66666666666669</ele><time>2026-04-20T08:19:22.49Z</time></trkpt><trkpt lat="45.0636034" lon="8.2802142"><ele>173.33333333333334</ele><time>2026-04-20T08:19:23.464Z</time></trkpt><trkpt lat="45.0634213" lon="8.2801045"><ele>174.0</ele><time>2026-04-20T08:19:24.466Z</time></trkpt><trkpt lat="45.0632407" lon="8.2799966"><ele>174.0</ele><time>2026-04-20T08:19:25.469Z</time></trkpt><trkpt lat="45.0630684" lon="8.2798955"><ele>174.0</ele><time>2026-04-20T08:19:26.467Z</time></trkpt><trkpt lat="45.0629037" lon="8.2798014"><ele>174.0</ele><time>2026-04-20T08:19:27.48Z</time></trkpt><trkpt lat="45.0627474" lon="8.2797094"><ele>174.0</ele><time>2026-04-20T08:19:28.468Z</time></trkpt><trkpt lat="45.0626" lon="8.2796223"><ele>174.0</ele><time>2026-04-20T08:19:29.469Z</time></trkpt><trkpt lat="45.0624626" lon="8.2795381"><ele>174.0</ele><time>2026-04-20T08:19:30.467Z</time></trkpt><trkpt lat="45.0623319" lon="8.2794559"><ele>174.5</ele><time>2026-04-20T08:19:31.472Z</time></trkpt><trkpt lat="45.0622072" lon="8.2793806"><ele>175.0</ele><time>2026-04-20T08:19:32.474Z</time></trkpt><trkpt lat="45.0620899" lon="8.2793152"><ele>175.5</ele><time>2026-04-20T08:19:33.473Z</time></trkpt><trkpt lat="45.0619767" lon="8.2792576"><ele>176.0</ele><time>2026-04-20T08:19:34.471Z</time></trkpt><trkpt lat="45.0618662" lon="8.2792001"><ele>176.0</ele><time>2026-04-20T08:19:35.468Z</time></trkpt><trkpt lat="45.0617519" lon="8.2791392"><ele>176.0</ele><time>2026-04-20T08:19:36.466Z</time></trkpt><trkpt lat="45.0616353" lon="8.2790717"><ele>176.0</ele><time>2026-04-20T08:19:37.477Z</time></trkpt><trkpt lat="45.0615179" lon="8.2790003"><ele>176.0</ele><time>2026-04-20T08:19:38.467Z</time></trkpt><trkpt lat="45.0614005" lon="8.2789273"><ele>176.25</ele><time>2026-04-20T08:19:39.465Z</time></trkpt><trkpt lat="45.0612823" lon="8.2788542"><ele>176.5</ele><time>2026-04-20T08:19:40.468Z</time></trkpt><trkpt lat="45.0611635" lon="8.2787817"><ele>176.75</ele><time>2026-04-20T08:19:41.471Z</time></trkpt><trkpt lat="45.0610429" lon="8.27871"><ele>177.0</ele><time>2026-04-20T08:19:42.481Z</time></trkpt><trkpt lat="45.0609242" lon="8.2786384"><ele>177.0</ele><time>2026-04-20T08:19:43.473Z</time></trkpt><trkpt lat="45.060807" lon="8.278567"><ele>177.0</ele><time>2026-04-20T08:19:44.484Z</time></trkpt><trkpt lat="45.0606953" lon="8.278495"><ele>177.0</ele><time>2026-04-20T08:19:45.472Z</time></trkpt><trkpt lat="45.0605808" lon="8.2784216"><ele>177.0</ele><time>2026-04-20T08:19:46.473Z</time></trkpt><trkpt lat="45.0604637" lon="8.27835"><ele>177.0</ele><time>2026-04-20T08:19:47.469Z</time></trkpt><trkpt lat="45.0603454" lon="8.2782819"><ele>177.0</ele><time>2026-04-20T08:19:48.484Z</time></trkpt><trkpt lat="45.0602235" lon="8.2782118"><ele>177.0</ele><time>2026-04-20T08:19:49.47Z</time></trkpt><trkpt lat="45.0600996" lon="8.2781384"><ele>177.0</ele><time>2026-04-20T08:19:50.468Z</time></trkpt><trkpt lat="45.0599734" lon="8.2780621"><ele>177.25</ele><time>2026-04-20T08:19:51.473Z</time></trkpt><trkpt lat="45.0598445" lon="8.2779832"><ele>177.5</ele><time>2026-04-20T08:19:52.469Z</time></trkpt><trkpt lat="45.0597159" lon="8.2779029"><ele>177.75</ele><time>2026-04-20T08:19:53.484Z</time></trkpt><trkpt lat="45.0595976" lon="8.277825"><ele>178.0</ele><time>2026-04-20T08:19:54.472Z</time></trkpt><trkpt lat="45.0594855" lon="8.2777533"><ele>178.0</ele><time>2026-04-20T08:19:55.472Z</time></trkpt><trkpt lat="45.0593796" lon="8.2776874"><ele>178.0</ele><time>2026-04-20T08:19:56.47Z</time></trkpt><trkpt lat="45.0592679" lon="8.2776222"><ele>178.0</ele><time>2026-04-20T08:19:57.478Z</time></trkpt><trkpt lat="45.0591554" lon="8.2775553"><ele>178.0</ele><time>2026-04-20T08:19:58.484Z</time></trkpt><trkpt lat="45.0590452" lon="8.2774908"><ele>178.0</ele><time>2026-04-20T08:19:59.469Z</time></trkpt><trkpt lat="45.0589424" lon="8.2774318"><ele>178.0</ele><time>2026-04-20T08:20:00.48Z</time></trkpt><trkpt lat="45.0588474" lon="8.2773763"><ele>178.0</ele><time>2026-04-20T08:20:01.478Z</time></trkpt><trkpt lat="45.0587583" lon="8.2773237"><ele>178.0</ele><time>2026-04-20T08:20:02.479Z</time></trkpt><trkpt lat="45.0586755" lon="8.2772775"><ele>178.0</ele><time>2026-04-20T08:20:03.481Z</time></trkpt><trkpt lat="45.0585967" lon="8.2772395"><ele>178.33333333333334</ele><time>2026-04-20T08:20:04.473Z</time></trkpt><trkpt lat="45.0585269" lon="8.2772019"><ele>178.66666666666669</ele><time>2026-04-20T08:20:05.473Z</time></trkpt><trkpt lat="45.0584655" lon="8.2771772"><ele>179.0</ele><time>2026-04-20T08:20:06.476Z</time></trkpt><trkpt lat="45.0583699" lon="8.2771258"><ele>179.33333333333334</ele><time>2026-04-20T08:20:08.484Z</time></trkpt><trkpt lat="45.0582947" lon="8.2770766"><ele>179.66666666666666</ele><time>2026-04-20T08:20:10.467Z</time></trkpt><trkpt lat="45.0582277" lon="8.2770366"><ele>180.0</ele><time>2026-04-20T08:20:14.481Z</time></trkpt><trkpt lat="45.0582927" lon="8.2770758"><ele>180.0</ele><time>2026-04-20T08:20:24.472Z</time></trkpt><trkpt lat="45.0582074" lon="8.2770337"><ele>180.0</ele><time>2026-04-20T08:20:31.473Z</time></trkpt><trkpt lat="45.0580605" lon="8.2769179"><ele>180.0</ele><time>2026-04-20T08:20:33.464Z</time></trkpt><trkpt lat="45.0579456" lon="8.2768399"><ele>180.0</ele><time>2026-04-20T08:20:34.472Z</time></trkpt><trkpt lat="45.0578209" lon="8.2767531"><ele>180.0</ele><time>2026-04-20T08:20:35.464Z</time></trkpt><trkpt lat="45.0576794" lon="8.2766602"><ele>180.0</ele><time>2026-04-20T08:20:36.469Z</time></trkpt><trkpt lat="45.0575269" lon="8.2765685"><ele>180.0</ele><time>2026-04-20T08:20:37.472Z</time></trkpt><trkpt lat="45.0573839" lon="8.2764852"><ele>181.66666666666666</ele><time>2026-04-20T08:20:38.466Z</time></trkpt><trkpt lat="45.0572374" lon="8.2764125"><ele>183.33333333333331</ele><time>2026-04-20T08:20:39.481Z</time></trkpt><trkpt lat="45.0570859" lon="8.276358"><ele>185.0</ele><time>2026-04-20T08:20:40.463Z</time></trkpt><trkpt lat="45.0569252" lon="8.2763386"><ele>185.0</ele><time>2026-04-20T08:20:41.444Z</time></trkpt><trkpt lat="45.0567595" lon="8.2763531"><ele>185.0</ele><time>2026-04-20T08:20:42.441Z</time></trkpt><trkpt lat="45.0565851" lon="8.2764045"><ele>185.0</ele><time>2026-04-20T08:20:43.451Z</time></trkpt><trkpt lat="45.0564303" lon="8.276473"><ele>187.33333333333331</ele><time>2026-04-20T08:20:44.464Z</time></trkpt><trkpt lat="45.056284" lon="8.2765667"><ele>189.66666666666666</ele><time>2026-04-20T08:20:45.462Z</time></trkpt><trkpt lat="45.0561409" lon="8.2766799"><ele>192.0</ele><time>2026-04-20T08:20:46.466Z</time></trkpt><trkpt lat="45.0560062" lon="8.2767953"><ele>192.0</ele><time>2026-04-20T08:20:47.454Z</time></trkpt><trkpt lat="45.0558715" lon="8.2769243"><ele>192.0</ele><time>2026-04-20T08:20:48.459Z</time></trkpt><trkpt lat="45.0556011" lon="8.27718"><ele>194.5</ele><time>2026-04-20T08:20:50.35Z</time></trkpt><trkpt lat="45.0554677" lon="8.2772704"><ele>197.0</ele><time>2026-04-20T08:20:51.369Z</time></trkpt><trkpt lat="45.0553481" lon="8.2773769"><ele>199.5</ele><time>2026-04-20T08:20:52.368Z</time></trkpt><trkpt lat="45.0552355" lon="8.2774637"><ele>202.0</ele><time>2026-04-20T08:20:53.369Z</time></trkpt><trkpt lat="45.055124" lon="8.2775632"><ele>202.0</ele><time>2026-04-20T08:20:54.369Z</time></trkpt><trkpt lat="45.0550233" lon="8.2776504"><ele>202.0</ele><time>2026-04-20T08:20:55.365Z</time></trkpt><trkpt lat="45.0549169" lon="8.2777297"><ele>202.0</ele><time>2026-04-20T08:20:56.368Z</time></trkpt><trkpt lat="45.0548184" lon="8.2778052"><ele>202.0</ele><time>2026-04-20T08:20:57.366Z</time></trkpt><trkpt lat="45.0547305" lon="8.2778726"><ele>204.2</ele><time>2026-04-20T08:20:58.367Z</time></trkpt><trkpt lat="45.05465" lon="8.2779341"><ele>206.39999999999998</ele><time>2026-04-20T08:20:59.369Z</time></trkpt><trkpt lat="45.0545538" lon="8.2779673"><ele>208.60000000000002</ele><time>2026-04-20T08:21:00.37Z</time></trkpt><trkpt lat="45.0544596" lon="8.277964"><ele>210.8</ele><time>2026-04-20T08:21:01.368Z</time></trkpt><trkpt lat="45.054372" lon="8.2779123"><ele>213.0</ele><time>2026-04-20T08:21:02.372Z</time></trkpt><trkpt lat="45.0542919" lon="8.2778233"><ele>213.0</ele><time>2026-04-20T08:21:03.36Z</time></trkpt><trkpt lat="45.0542222" lon="8.2777113"><ele>213.0</ele><time>2026-04-20T08:21:04.363Z</time></trkpt><trkpt lat="45.0541657" lon="8.277583"><ele>213.0</ele><time>2026-04-20T08:21:05.364Z</time></trkpt><trkpt lat="45.0541029" lon="8.2774316"><ele>213.0</ele><time>2026-04-20T08:21:06.362Z</time></trkpt><trkpt lat="45.0540327" lon="8.2772465"><ele>218.66666666666669</ele><time>2026-04-20T08:21:07.363Z</time></trkpt><trkpt lat="45.0539523" lon="8.2769899"><ele>224.33333333333334</ele><time>2026-04-20T08:21:08.353Z</time></trkpt><trkpt lat="45.0538739" lon="8.2767213"><ele>230.0</ele><time>2026-04-20T08:21:09.353Z</time></trkpt><trkpt lat="45.0537987" lon="8.2764405"><ele>229.0</ele><time>2026-04-20T08:21:10.348Z</time></trkpt><trkpt lat="45.0537153" lon="8.2761695"><ele>228.0</ele><time>2026-04-20T08:21:11.349Z</time></trkpt><trkpt lat="45.0536326" lon="8.2759227"><ele>227.0</ele><time>2026-04-20T08:21:12.358Z</time></trkpt><trkpt lat="45.0535554" lon="8.2756724"><ele>226.0</ele><time>2026-04-20T08:21:13.354Z</time></trkpt><trkpt lat="45.053479" lon="8.2754271"><ele>225.0</ele><time>2026-04-20T08:21:14.355Z</time></trkpt><trkpt lat="45.0533995" lon="8.2751916"><ele>224.0</ele><time>2026-04-20T08:21:15.36Z</time></trkpt><trkpt lat="45.0533219" lon="8.2749639"><ele>226.66666666666669</ele><time>2026-04-20T08:21:16.356Z</time></trkpt><trkpt lat="45.0532468" lon="8.2747341"><ele>229.33333333333331</ele><time>2026-04-20T08:21:17.371Z</time></trkpt><trkpt lat="45.0531748" lon="8.274496"><ele>232.0</ele><time>2026-04-20T08:21:18.368Z</time></trkpt><trkpt lat="45.0530952" lon="8.274261"><ele>232.0</ele><time>2026-04-20T08:21:19.365Z</time></trkpt><trkpt lat="45.0530093" lon="8.2740411"><ele>232.0</ele><time>2026-04-20T08:21:20.366Z</time></trkpt><trkpt lat="45.0529411" lon="8.2738078"><ele>232.0</ele><time>2026-04-20T08:21:21.361Z</time></trkpt><trkpt lat="45.0528606" lon="8.2735697"><ele>232.33333333333331</ele><time>2026-04-20T08:21:22.361Z</time></trkpt><trkpt lat="45.0527828" lon="8.2733261"><ele>232.66666666666669</ele><time>2026-04-20T08:21:23.367Z</time></trkpt><trkpt lat="45.0526987" lon="8.2730759"><ele>233.0</ele><time>2026-04-20T08:21:24.363Z</time></trkpt><trkpt lat="45.0526165" lon="8.2728442"><ele>234.0</ele><time>2026-04-20T08:21:25.365Z</time></trkpt><trkpt lat="45.0525372" lon="8.2726092"><ele>235.0</ele><time>2026-04-20T08:21:26.361Z</time></trkpt><trkpt lat="45.0524469" lon="8.2723769"><ele>236.0</ele><time>2026-04-20T08:21:27.363Z</time></trkpt><trkpt lat="45.0523672" lon="8.2721481"><ele>238.66666666666669</ele><time>2026-04-20T08:21:28.365Z</time></trkpt><trkpt lat="45.0522852" lon="8.2719105"><ele>241.33333333333331</ele><time>2026-04-20T08:21:29.364Z</time></trkpt><trkpt lat="45.0522015" lon="8.2716795"><ele>244.0</ele><time>2026-04-20T08:21:30.368Z</time></trkpt><trkpt lat="45.0521279" lon="8.2714549"><ele>245.33333333333331</ele><time>2026-04-20T08:21:31.368Z</time></trkpt><trkpt lat="45.0520575" lon="8.2712271"><ele>246.66666666666669</ele><time>2026-04-20T08:21:32.37Z</time></trkpt><trkpt lat="45.0519886" lon="8.2710088"><ele>248.0</ele><time>2026-04-20T08:21:33.37Z</time></trkpt><trkpt lat="45.0519042" lon="8.2708186"><ele>250.0</ele><time>2026-04-20T08:21:34.367Z</time></trkpt><trkpt lat="45.0518359" lon="8.2706001"><ele>252.0</ele><time>2026-04-20T08:21:35.353Z</time></trkpt><trkpt lat="45.0517687" lon="8.2703952"><ele>254.0</ele><time>2026-04-20T08:21:36.364Z</time></trkpt><trkpt lat="45.0516696" lon="8.2701939"><ele>254.66666666666669</ele><time>2026-04-20T08:21:37.356Z</time></trkpt><trkpt lat="45.0515787" lon="8.2699654"><ele>255.33333333333331</ele><time>2026-04-20T08:21:38.356Z</time></trkpt><trkpt lat="45.0515033" lon="8.269707"><ele>256.0</ele><time>2026-04-20T08:21:39.364Z</time></trkpt><trkpt lat="45.0514526" lon="8.2694747"><ele>256.0</ele><time>2026-04-20T08:21:40.359Z</time></trkpt><trkpt lat="45.0513688" lon="8.269267"><ele>256.0</ele><time>2026-04-20T08:21:41.361Z</time></trkpt><trkpt lat="45.0512802" lon="8.2690619"><ele>256.0</ele><time>2026-04-20T08:21:42.352Z</time></trkpt><trkpt lat="45.0511765" lon="8.2688757"><ele>260.0</ele><time>2026-04-20T08:21:43.352Z</time></trkpt><trkpt lat="45.0510518" lon="8.2687144"><ele>264.0</ele><time>2026-04-20T08:21:44.368Z</time></trkpt><trkpt lat="45.0509316" lon="8.2685329"><ele>268.0</ele><time>2026-04-20T08:21:45.358Z</time></trkpt><trkpt lat="45.0507935" lon="8.2683875"><ele>267.0</ele><time>2026-04-20T08:21:46.361Z</time></trkpt><trkpt lat="45.0506702" lon="8.2682369"><ele>266.0</ele><time>2026-04-20T08:21:47.363Z</time></trkpt><trkpt lat="45.0505393" lon="8.2681238"><ele>265.0</ele><time>2026-04-20T08:21:48.356Z</time></trkpt><trkpt lat="45.0503934" lon="8.2680339"><ele>270.0</ele><time>2026-04-20T08:21:49.346Z</time></trkpt><trkpt lat="45.0502355" lon="8.2679863"><ele>275.0</ele><time>2026-04-20T08:21:50.345Z</time></trkpt><trkpt lat="45.0500692" lon="8.2679629"><ele>280.0</ele><time>2026-04-20T08:21:51.348Z</time></trkpt><trkpt lat="45.0499077" lon="8.2679689"><ele>282.0</ele><time>2026-04-20T08:21:52.351Z</time></trkpt><trkpt lat="45.0497539" lon="8.2679994"><ele>284.0</ele><time>2026-04-20T08:21:53.366Z</time></trkpt><trkpt lat="45.0496163" lon="8.268028"><ele>286.0</ele><time>2026-04-20T08:21:54.366Z</time></trkpt><trkpt lat="45.0494664" lon="8.2680465"><ele>288.0</ele><time>2026-04-20T08:21:55.363Z</time></trkpt><trkpt lat="45.0493228" lon="8.2680528"><ele>288.0</ele><time>2026-04-20T08:21:56.36Z</time></trkpt><trkpt lat="45.0491502" lon="8.268028"><ele>288.0</ele><time>2026-04-20T08:21:57.355Z</time></trkpt><trkpt lat="45.048986" lon="8.2679623"><ele>288.0</ele><time>2026-04-20T08:21:58.351Z</time></trkpt><trkpt lat="45.0488283" lon="8.2678677"><ele>293.3333333333333</ele><time>2026-04-20T08:21:59.345Z</time></trkpt><trkpt lat="45.0486476" lon="8.2677806"><ele>298.66666666666663</ele><time>2026-04-20T08:22:00.335Z</time></trkpt><trkpt lat="45.0484755" lon="8.2676527"><ele>304.0</ele><time>2026-04-20T08:22:01.327Z</time></trkpt><trkpt lat="45.0483253" lon="8.2675264"><ele>298.3333333333333</ele><time>2026-04-20T08:22:02.315Z</time></trkpt><trkpt lat="45.0481728" lon="8.2674046"><ele>292.6666666666667</ele><time>2026-04-20T08:22:03.32Z</time></trkpt><trkpt lat="45.0480078" lon="8.2673335"><ele>287.0</ele><time>2026-04-20T08:22:04.312Z</time></trkpt><trkpt lat="45.0478543" lon="8.2672303"><ele>284.75</ele><time>2026-04-20T08:22:05.305Z</time></trkpt><trkpt lat="45.0477123" lon="8.2671415"><ele>282.5</ele><time>2026-04-20T08:22:06.263Z</time></trkpt><trkpt lat="45.0475601" lon="8.2670389"><ele>280.25</ele><time>2026-04-20T08:22:07.253Z</time></trkpt><trkpt lat="45.0475699" lon="8.2671604"><ele>278.0</ele><time>2026-04-20T08:22:09.325Z</time></trkpt><trkpt lat="45.0474795" lon="8.2670902"><ele>276.2</ele><time>2026-04-20T08:22:10.342Z</time></trkpt><trkpt lat="45.0473824" lon="8.2670316"><ele>274.4</ele><time>2026-04-20T08:22:11.339Z</time></trkpt><trkpt lat="45.0473003" lon="8.2671022"><ele>272.59999999999997</ele><time>2026-04-20T08:22:12.345Z</time></trkpt><trkpt lat="45.0472099" lon="8.2672203"><ele>270.8</ele><time>2026-04-20T08:22:13.341Z</time></trkpt><trkpt lat="45.0471503" lon="8.2673738"><ele>269.0</ele><time>2026-04-20T08:22:14.35Z</time></trkpt><trkpt lat="45.0470296" lon="8.2674625"><ele>269.0</ele><time>2026-04-20T08:22:15.348Z</time></trkpt><trkpt lat="45.0469318" lon="8.2675657"><ele>269.0</ele><time>2026-04-20T08:22:16.346Z</time></trkpt><trkpt lat="45.0468274" lon="8.2676575"><ele>269.0</ele><time>2026-04-20T08:22:17.346Z</time></trkpt><trkpt lat="45.0467263" lon="8.2677507"><ele>269.0</ele><time>2026-04-20T08:22:18.352Z</time></trkpt><trkpt lat="45.0466282" lon="8.2678454"><ele>267.75</ele><time>2026-04-20T08:22:19.35Z</time></trkpt><trkpt lat="45.0465234" lon="8.2679387"><ele>266.5</ele><time>2026-04-20T08:22:20.367Z</time></trkpt><trkpt lat="45.0464201" lon="8.2680447"><ele>265.25</ele><time>2026-04-20T08:22:21.341Z</time></trkpt><trkpt lat="45.0463163" lon="8.2681482"><ele>264.0</ele><time>2026-04-20T08:22:22.345Z</time></trkpt><trkpt lat="45.0462171" lon="8.2682423"><ele>264.0</ele><time>2026-04-20T08:22:23.344Z</time></trkpt><trkpt lat="45.0461165" lon="8.2683279"><ele>264.0</ele><time>2026-04-20T08:22:24.351Z</time></trkpt><trkpt lat="45.0460199" lon="8.2684144"><ele>264.0</ele><time>2026-04-20T08:22:25.353Z</time></trkpt><trkpt lat="45.0459159" lon="8.2685019"><ele>264.0</ele><time>2026-04-20T08:22:26.353Z</time></trkpt><trkpt lat="45.0458079" lon="8.2685905"><ele>262.5</ele><time>2026-04-20T08:22:27.351Z</time></trkpt><trkpt lat="45.0457063" lon="8.2686873"><ele>261.0</ele><time>2026-04-20T08:22:28.351Z</time></trkpt><trkpt lat="45.0456032" lon="8.2687963"><ele>259.5</ele><time>2026-04-20T08:22:29.346Z</time></trkpt><trkpt lat="45.0454933" lon="8.2689039"><ele>258.0</ele><time>2026-04-20T08:22:30.347Z</time></trkpt><trkpt lat="45.0453829" lon="8.2690021"><ele>258.0</ele><time>2026-04-20T08:22:31.344Z</time></trkpt><trkpt lat="45.0452765" lon="8.269114"><ele>258.0</ele><time>2026-04-20T08:22:32.344Z</time></trkpt><trkpt lat="45.0451743" lon="8.2692122"><ele>258.0</ele><time>2026-04-20T08:22:33.348Z</time></trkpt><trkpt lat="45.0450745" lon="8.2693137"><ele>258.0</ele><time>2026-04-20T08:22:34.349Z</time></trkpt><trkpt lat="45.044971" lon="8.2694047"><ele>256.5</ele><time>2026-04-20T08:22:35.354Z</time></trkpt><trkpt lat="45.0448639" lon="8.2695183"><ele>255.0</ele><time>2026-04-20T08:22:36.343Z</time></trkpt><trkpt lat="45.0447527" lon="8.2696303"><ele>253.5</ele><time>2026-04-20T08:22:37.35Z</time></trkpt><trkpt lat="45.0446373" lon="8.2697374"><ele>252.0</ele><time>2026-04-20T08:22:38.346Z</time></trkpt><trkpt lat="45.0445145" lon="8.2698319"><ele>252.0</ele><time>2026-04-20T08:22:39.353Z</time></trkpt><trkpt lat="45.0443806" lon="8.269939"><ele>252.0</ele><time>2026-04-20T08:22:40.347Z</time></trkpt><trkpt lat="45.0442452" lon="8.2700321"><ele>252.0</ele><time>2026-04-20T08:22:41.348Z</time></trkpt><trkpt lat="45.0441134" lon="8.2701178"><ele>252.0</ele><time>2026-04-20T08:22:42.35Z</time></trkpt><trkpt lat="45.0439796" lon="8.2701989"><ele>248.33333333333331</ele><time>2026-04-20T08:22:43.351Z</time></trkpt><trkpt lat="45.0438212" lon="8.2702435"><ele>244.66666666666666</ele><time>2026-04-20T08:22:44.357Z</time></trkpt><trkpt lat="45.0436624" lon="8.2702881"><ele>241.0</ele><time>2026-04-20T08:22:45.359Z</time></trkpt><trkpt lat="45.0434892" lon="8.2703252"><ele>241.0</ele><time>2026-04-20T08:22:46.369Z</time></trkpt><trkpt lat="45.043318" lon="8.2703162"><ele>241.0</ele><time>2026-04-20T08:22:47.37Z</time></trkpt><trkpt lat="45.0431417" lon="8.2703127"><ele>241.0</ele><time>2026-04-20T08:22:48.367Z</time></trkpt><trkpt lat="45.0429687" lon="8.2702839"><ele>238.33333333333331</ele><time>2026-04-20T08:22:49.384Z</time></trkpt><trkpt lat="45.0427902" lon="8.2702399"><ele>235.66666666666669</ele><time>2026-04-20T08:22:50.382Z</time></trkpt><trkpt lat="45.0426111" lon="8.2701837"><ele>233.0</ele><time>2026-04-20T08:22:51.375Z</time></trkpt><trkpt lat="45.0424322" lon="8.2701138"><ele>232.33333333333334</ele><time>2026-04-20T08:22:52.385Z</time></trkpt><trkpt lat="45.0422545" lon="8.2700352"><ele>231.66666666666669</ele><time>2026-04-20T08:22:53.376Z</time></trkpt><trkpt lat="45.0420629" lon="8.2699547"><ele>231.0</ele><time>2026-04-20T08:22:54.382Z</time></trkpt><trkpt lat="45.0418622" lon="8.2698678"><ele>231.0</ele><time>2026-04-20T08:22:55.38Z</time></trkpt><trkpt lat="45.0416856" lon="8.2697769"><ele>231.0</ele><time>2026-04-20T08:22:56.381Z</time></trkpt><trkpt lat="45.0414927" lon="8.2697024"><ele>231.0</ele><time>2026-04-20T08:22:57.382Z</time></trkpt><trkpt lat="45.041325" lon="8.2696029"><ele>231.0</ele><time>2026-04-20T08:22:58.379Z</time></trkpt><trkpt lat="45.0411252" lon="8.2695141"><ele>231.0</ele><time>2026-04-20T08:22:59.381Z</time></trkpt><trkpt lat="45.0409326" lon="8.2694389"><ele>231.0</ele><time>2026-04-20T08:23:00.367Z</time></trkpt><trkpt lat="45.0407478" lon="8.26936"><ele>231.0</ele><time>2026-04-20T08:23:01.377Z</time></trkpt><trkpt lat="45.0405615" lon="8.2692731"><ele>231.0</ele><time>2026-04-20T08:23:02.368Z</time></trkpt><trkpt lat="45.0403789" lon="8.2691823"><ele>231.0</ele><time>2026-04-20T08:23:03.365Z</time></trkpt><trkpt lat="45.040192" lon="8.2691019"><ele>231.0</ele><time>2026-04-20T08:23:04.362Z</time></trkpt><trkpt lat="45.0399926" lon="8.2690189"><ele>231.0</ele><time>2026-04-20T08:23:05.37Z</time></trkpt><trkpt lat="45.0397975" lon="8.2689293"><ele>231.0</ele><time>2026-04-20T08:23:06.361Z</time></trkpt><trkpt lat="45.0396046" lon="8.2688267"><ele>230.0</ele><time>2026-04-20T08:23:07.36Z</time></trkpt><trkpt lat="45.0394031" lon="8.2687321"><ele>229.0</ele><time>2026-04-20T08:23:08.363Z</time></trkpt><trkpt lat="45.0392019" lon="8.2686327"><ele>228.0</ele><time>2026-04-20T08:23:09.364Z</time></trkpt><trkpt lat="45.039003" lon="8.2685281"><ele>228.0</ele><time>2026-04-20T08:23:10.366Z</time></trkpt><trkpt lat="45.0388048" lon="8.2684339"><ele>228.0</ele><time>2026-04-20T08:23:11.37Z</time></trkpt><trkpt lat="45.0385939" lon="8.2683391"><ele>228.0</ele><time>2026-04-20T08:23:12.369Z</time></trkpt><trkpt lat="45.0383887" lon="8.2682384"><ele>227.66666666666669</ele><time>2026-04-20T08:23:13.365Z</time></trkpt><trkpt lat="45.0381783" lon="8.2681353"><ele>227.33333333333334</ele><time>2026-04-20T08:23:14.372Z</time></trkpt><trkpt lat="45.0379651" lon="8.2680457"><ele>227.0</ele><time>2026-04-20T08:23:15.366Z</time></trkpt><trkpt lat="45.0377497" lon="8.2679518"><ele>225.0</ele><time>2026-04-20T08:23:16.371Z</time></trkpt><trkpt lat="45.0375413" lon="8.2678467"><ele>223.0</ele><time>2026-04-20T08:23:17.37Z</time></trkpt><trkpt lat="45.0373362" lon="8.2677519"><ele>221.0</ele><time>2026-04-20T08:23:18.373Z</time></trkpt><trkpt lat="45.037126" lon="8.2676524"><ele>221.0</ele><time>2026-04-20T08:23:19.377Z</time></trkpt><trkpt lat="45.0369118" lon="8.2675538"><ele>221.0</ele><time>2026-04-20T08:23:20.374Z</time></trkpt><trkpt lat="45.0367031" lon="8.2674477"><ele>221.0</ele><time>2026-04-20T08:23:21.376Z</time></trkpt><trkpt lat="45.0365008" lon="8.2673498"><ele>220.33333333333334</ele><time>2026-04-20T08:23:22.376Z</time></trkpt><trkpt lat="45.0362839" lon="8.2672572"><ele>219.66666666666669</ele><time>2026-04-20T08:23:23.377Z</time></trkpt><trkpt lat="45.0360768" lon="8.2671623"><ele>219.0</ele><time>2026-04-20T08:23:24.38Z</time></trkpt><trkpt lat="45.0358719" lon="8.267066"><ele>218.33333333333331</ele><time>2026-04-20T08:23:25.381Z</time></trkpt><trkpt lat="45.0356625" lon="8.266964"><ele>217.66666666666666</ele><time>2026-04-20T08:23:26.379Z</time></trkpt><trkpt lat="45.0354534" lon="8.266865"><ele>217.0</ele><time>2026-04-20T08:23:27.382Z</time></trkpt><trkpt lat="45.035242" lon="8.2667813"><ele>217.0</ele><time>2026-04-20T08:23:28.383Z</time></trkpt><trkpt lat="45.0350359" lon="8.2666844"><ele>217.0</ele><time>2026-04-20T08:23:29.383Z</time></trkpt><trkpt lat="45.0348257" lon="8.2666"><ele>217.0</ele><time>2026-04-20T08:23:30.381Z</time></trkpt><trkpt lat="45.0346268" lon="8.2665029"><ele>219.5</ele><time>2026-04-20T08:23:31.386Z</time></trkpt><trkpt lat="45.0344086" lon="8.2664194"><ele>222.0</ele><time>2026-04-20T08:23:32.38Z</time></trkpt><trkpt lat="45.0341764" lon="8.2663354"><ele>219.5</ele><time>2026-04-20T08:23:33.377Z</time></trkpt><trkpt lat="45.0339476" lon="8.2662286"><ele>217.0</ele><time>2026-04-20T08:23:34.371Z</time></trkpt><trkpt lat="45.03372" lon="8.2661089"><ele>217.0</ele><time>2026-04-20T08:23:35.371Z</time></trkpt><trkpt lat="45.0334968" lon="8.2659858"><ele>217.0</ele><time>2026-04-20T08:23:36.377Z</time></trkpt><trkpt lat="45.0332661" lon="8.2658865"><ele>216.0</ele><time>2026-04-20T08:23:37.374Z</time></trkpt><trkpt lat="45.0330303" lon="8.2657851"><ele>215.0</ele><time>2026-04-20T08:23:38.379Z</time></trkpt><trkpt lat="45.0328111" lon="8.2656769"><ele>216.5</ele><time>2026-04-20T08:23:39.396Z</time></trkpt><trkpt lat="45.0325905" lon="8.26557"><ele>218.0</ele><time>2026-04-20T08:23:40.471Z</time></trkpt><trkpt lat="45.0323751" lon="8.2654666"><ele>218.0</ele><time>2026-04-20T08:23:41.473Z</time></trkpt><trkpt lat="45.0321693" lon="8.2653618"><ele>218.0</ele><time>2026-04-20T08:23:42.476Z</time></trkpt><trkpt lat="45.0319702" lon="8.2652535"><ele>218.0</ele><time>2026-04-20T08:23:43.471Z</time></trkpt><trkpt lat="45.031775" lon="8.2651373"><ele>216.33333333333334</ele><time>2026-04-20T08:23:44.477Z</time></trkpt><trkpt lat="45.0315813" lon="8.2650081"><ele>214.66666666666669</ele><time>2026-04-20T08:23:45.468Z</time></trkpt><trkpt lat="45.0314125" lon="8.264844"><ele>213.0</ele><time>2026-04-20T08:23:46.466Z</time></trkpt><trkpt lat="45.0312565" lon="8.2646566"><ele>213.0</ele><time>2026-04-20T08:23:47.457Z</time></trkpt><trkpt lat="45.03111" lon="8.2644482"><ele>213.0</ele><time>2026-04-20T08:23:48.452Z</time></trkpt><trkpt lat="45.0309684" lon="8.2642275"><ele>213.0</ele><time>2026-04-20T08:23:49.456Z</time></trkpt><trkpt lat="45.0308316" lon="8.2639981"><ele>211.33333333333331</ele><time>2026-04-20T08:23:50.453Z</time></trkpt><trkpt lat="45.0307079" lon="8.2637416"><ele>209.66666666666666</ele><time>2026-04-20T08:23:51.479Z</time></trkpt><trkpt lat="45.0305883" lon="8.2634912"><ele>208.0</ele><time>2026-04-20T08:23:52.474Z</time></trkpt><trkpt lat="45.0304678" lon="8.2632456"><ele>208.66666666666666</ele><time>2026-04-20T08:23:53.471Z</time></trkpt><trkpt lat="45.0303475" lon="8.2629993"><ele>209.33333333333331</ele><time>2026-04-20T08:23:54.478Z</time></trkpt><trkpt lat="45.0302256" lon="8.2627536"><ele>210.0</ele><time>2026-04-20T08:23:55.471Z</time></trkpt><trkpt lat="45.0301" lon="8.2625081"><ele>210.0</ele><time>2026-04-20T08:23:56.478Z</time></trkpt><trkpt lat="45.0299718" lon="8.262264"><ele>210.0</ele><time>2026-04-20T08:23:57.48Z</time></trkpt><trkpt lat="45.0298417" lon="8.2620229"><ele>210.0</ele><time>2026-04-20T08:23:58.472Z</time></trkpt><trkpt lat="45.029711" lon="8.2617865"><ele>210.0</ele><time>2026-04-20T08:23:59.474Z</time></trkpt><trkpt lat="45.0295819" lon="8.2615478"><ele>210.0</ele><time>2026-04-20T08:24:00.473Z</time></trkpt><trkpt lat="45.029454" lon="8.2613083"><ele>210.0</ele><time>2026-04-20T08:24:01.465Z</time></trkpt><trkpt lat="45.0293268" lon="8.2610683"><ele>210.66666666666669</ele><time>2026-04-20T08:24:02.464Z</time></trkpt><trkpt lat="45.0291995" lon="8.2608266"><ele>211.33333333333334</ele><time>2026-04-20T08:24:03.464Z</time></trkpt><trkpt lat="45.0290712" lon="8.2605834"><ele>212.0</ele><time>2026-04-20T08:24:04.469Z</time></trkpt><trkpt lat="45.0289406" lon="8.2603451"><ele>211.0</ele><time>2026-04-20T08:24:05.469Z</time></trkpt><trkpt lat="45.0288171" lon="8.2601187"><ele>210.0</ele><time>2026-04-20T08:24:06.47Z</time></trkpt><trkpt lat="45.0286994" lon="8.2599049"><ele>209.0</ele><time>2026-04-20T08:24:07.469Z</time></trkpt><trkpt lat="45.0285825" lon="8.2597003"><ele>209.0</ele><time>2026-04-20T08:24:08.471Z</time></trkpt><trkpt lat="45.0284678" lon="8.2594968"><ele>209.0</ele><time>2026-04-20T08:24:09.468Z</time></trkpt><trkpt lat="45.0283507" lon="8.259284"><ele>209.0</ele><time>2026-04-20T08:24:10.474Z</time></trkpt><trkpt lat="45.0282364" lon="8.2590748"><ele>208.33333333333334</ele><time>2026-04-20T08:24:11.47Z</time></trkpt><trkpt lat="45.0281239" lon="8.2588701"><ele>207.66666666666669</ele><time>2026-04-20T08:24:12.468Z</time></trkpt><trkpt lat="45.0280117" lon="8.2586662"><ele>207.0</ele><time>2026-04-20T08:24:13.471Z</time></trkpt><trkpt lat="45.0279021" lon="8.2584666"><ele>207.0</ele><time>2026-04-20T08:24:14.475Z</time></trkpt><trkpt lat="45.0277969" lon="8.2582675"><ele>207.0</ele><time>2026-04-20T08:24:15.478Z</time></trkpt><trkpt lat="45.0276973" lon="8.2580729"><ele>207.0</ele><time>2026-04-20T08:24:16.48Z</time></trkpt><trkpt lat="45.0275922" lon="8.2578846"><ele>207.0</ele><time>2026-04-20T08:24:17.481Z</time></trkpt><trkpt lat="45.0274789" lon="8.2577008"><ele>207.0</ele><time>2026-04-20T08:24:18.483Z</time></trkpt><trkpt lat="45.027358" lon="8.2575223"><ele>207.0</ele><time>2026-04-20T08:24:19.48Z</time></trkpt><trkpt lat="45.0272256" lon="8.2573548"><ele>209.33333333333331</ele><time>2026-04-20T08:24:20.475Z</time></trkpt><trkpt lat="45.0270894" lon="8.2572074"><ele>211.66666666666666</ele><time>2026-04-20T08:24:21.468Z</time></trkpt><trkpt lat="45.0269417" lon="8.2570746"><ele>214.0</ele><time>2026-04-20T08:24:22.469Z</time></trkpt><trkpt lat="45.0267774" lon="8.2569557"><ele>214.0</ele><time>2026-04-20T08:24:23.457Z</time></trkpt><trkpt lat="45.0265896" lon="8.2568662"><ele>214.0</ele><time>2026-04-20T08:24:24.455Z</time></trkpt><trkpt lat="45.0263834" lon="8.256802"><ele>214.0</ele><time>2026-04-20T08:24:25.45Z</time></trkpt><trkpt lat="45.0261584" lon="8.2567526"><ele>214.0</ele><time>2026-04-20T08:24:26.448Z</time></trkpt><trkpt lat="45.0259253" lon="8.2567282"><ele>214.0</ele><time>2026-04-20T08:24:27.479Z</time></trkpt><trkpt lat="45.025682" lon="8.2567231"><ele>215.5</ele><time>2026-04-20T08:24:28.478Z</time></trkpt><trkpt lat="45.0254348" lon="8.2567187"><ele>217.0</ele><time>2026-04-20T08:24:29.482Z</time></trkpt><trkpt lat="45.0251838" lon="8.2567167"><ele>217.5</ele><time>2026-04-20T08:24:30.485Z</time></trkpt><trkpt lat="45.024933" lon="8.2567165"><ele>218.0</ele><time>2026-04-20T08:24:31.485Z</time></trkpt><trkpt lat="45.0246834" lon="8.2567091"><ele>218.0</ele><time>2026-04-20T08:24:32.484Z</time></trkpt><trkpt lat="45.0244361" lon="8.2567003"><ele>218.0</ele><time>2026-04-20T08:24:33.483Z</time></trkpt><trkpt lat="45.0241898" lon="8.2566935"><ele>219.0</ele><time>2026-04-20T08:24:34.478Z</time></trkpt><trkpt lat="45.023944" lon="8.2566907"><ele>220.0</ele><time>2026-04-20T08:24:35.48Z</time></trkpt><trkpt lat="45.0237002" lon="8.2566921"><ele>220.0</ele><time>2026-04-20T08:24:36.478Z</time></trkpt><trkpt lat="45.0234592" lon="8.2566937"><ele>220.0</ele><time>2026-04-20T08:24:37.48Z</time></trkpt><trkpt lat="45.0232238" lon="8.2566933"><ele>219.5</ele><time>2026-04-20T08:24:38.487Z</time></trkpt><trkpt lat="45.0229922" lon="8.2566897"><ele>219.0</ele><time>2026-04-20T08:24:39.49Z</time></trkpt><trkpt lat="45.0227619" lon="8.2566842"><ele>219.0</ele><time>2026-04-20T08:24:40.485Z</time></trkpt><trkpt lat="45.0225352" lon="8.2566834"><ele>219.0</ele><time>2026-04-20T08:24:41.486Z</time></trkpt><trkpt lat="45.0223113" lon="8.2566942"><ele>218.5</ele><time>2026-04-20T08:24:42.483Z</time></trkpt><trkpt lat="45.0220843" lon="8.2567297"><ele>218.0</ele><time>2026-04-20T08:24:43.471Z</time></trkpt><trkpt lat="45.0218632" lon="8.2567872"><ele>219.5</ele><time>2026-04-20T08:24:44.484Z</time></trkpt><trkpt lat="45.0216402" lon="8.2568659"><ele>221.0</ele><time>2026-04-20T08:24:45.476Z</time></trkpt><trkpt lat="45.0214202" lon="8.2569662"><ele>221.0</ele><time>2026-04-20T08:24:46.459Z</time></trkpt><trkpt lat="45.0212033" lon="8.2570862"><ele>221.0</ele><time>2026-04-20T08:24:47.462Z</time></trkpt><trkpt lat="45.0209954" lon="8.2572208"><ele>223.5</ele><time>2026-04-20T08:24:48.463Z</time></trkpt><trkpt lat="45.0207905" lon="8.2573521"><ele>226.0</ele><time>2026-04-20T08:24:49.469Z</time></trkpt><trkpt lat="45.0205847" lon="8.2574808"><ele>226.0</ele><time>2026-04-20T08:24:50.486Z</time></trkpt><trkpt lat="45.0203786" lon="8.2576074"><ele>226.0</ele><time>2026-04-20T08:24:51.485Z</time></trkpt><trkpt lat="45.0201846" lon="8.2577272"><ele>226.0</ele><time>2026-04-20T08:24:52.493Z</time></trkpt><trkpt lat="45.0199958" lon="8.2578427"><ele>227.0</ele><time>2026-04-20T08:24:53.484Z</time></trkpt><trkpt lat="45.0198126" lon="8.2579542"><ele>228.0</ele><time>2026-04-20T08:24:54.483Z</time></trkpt><trkpt lat="45.0196285" lon="8.2580672"><ele>229.0</ele><time>2026-04-20T08:24:55.477Z</time></trkpt><trkpt lat="45.0194437" lon="8.2581727"><ele>229.0</ele><time>2026-04-20T08:24:56.481Z</time></trkpt><trkpt lat="45.0192689" lon="8.2582561"><ele>229.0</ele><time>2026-04-20T08:24:57.48Z</time></trkpt><trkpt lat="45.01909" lon="8.2583112"><ele>229.0</ele><time>2026-04-20T08:24:58.492Z</time></trkpt><trkpt lat="45.0189114" lon="8.2583264"><ele>229.0</ele><time>2026-04-20T08:24:59.492Z</time></trkpt><trkpt lat="45.0187337" lon="8.2582964"><ele>229.0</ele><time>2026-04-20T08:25:00.471Z</time></trkpt><trkpt lat="45.0185691" lon="8.2582255"><ele>229.0</ele><time>2026-04-20T08:25:01.463Z</time></trkpt><trkpt lat="45.0184228" lon="8.2581253"><ele>227.5</ele><time>2026-04-20T08:25:02.462Z</time></trkpt><trkpt lat="45.0182881" lon="8.2580062"><ele>226.0</ele><time>2026-04-20T08:25:03.456Z</time></trkpt><trkpt lat="45.018169" lon="8.2578765"><ele>224.5</ele><time>2026-04-20T08:25:04.464Z</time></trkpt><trkpt lat="45.0180675" lon="8.257742"><ele>223.0</ele><time>2026-04-20T08:25:05.48Z</time></trkpt><trkpt lat="45.0179514" lon="8.2575652"><ele>223.0</ele><time>2026-04-20T08:25:06.459Z</time></trkpt><trkpt lat="45.0178348" lon="8.2573482"><ele>223.0</ele><time>2026-04-20T08:25:07.456Z</time></trkpt><trkpt lat="45.0177025" lon="8.2571068"><ele>223.0</ele><time>2026-04-20T08:25:08.456Z</time></trkpt><trkpt lat="45.01756" lon="8.2568255"><ele>221.5</ele><time>2026-04-20T08:25:09.459Z</time></trkpt><trkpt lat="45.0174123" lon="8.2565048"><ele>220.0</ele><time>2026-04-20T08:25:10.479Z</time></trkpt><trkpt lat="45.0172748" lon="8.2562013"><ele>223.0</ele><time>2026-04-20T08:25:11.461Z</time></trkpt><trkpt lat="45.01715" lon="8.2559167"><ele>226.0</ele><time>2026-04-20T08:25:12.453Z</time></trkpt><trkpt lat="45.0170347" lon="8.2556492"><ele>228.0</ele><time>2026-04-20T08:25:13.464Z</time></trkpt><trkpt lat="45.0169289" lon="8.2554044"><ele>230.0</ele><time>2026-04-20T08:25:14.469Z</time></trkpt><trkpt lat="45.0168272" lon="8.2551793"><ele>232.0</ele><time>2026-04-20T08:25:15.476Z</time></trkpt><trkpt lat="45.0167231" lon="8.2549685"><ele>232.66666666666666</ele><time>2026-04-20T08:25:16.47Z</time></trkpt><trkpt lat="45.0166032" lon="8.2547697"><ele>233.33333333333331</ele><time>2026-04-20T08:25:17.461Z</time></trkpt><trkpt lat="45.0164737" lon="8.2546102"><ele>234.0</ele><time>2026-04-20T08:25:18.461Z</time></trkpt><trkpt lat="45.0163329" lon="8.2544748"><ele>234.0</ele><time>2026-04-20T08:25:19.449Z</time></trkpt><trkpt lat="45.0161838" lon="8.2543635"><ele>234.0</ele><time>2026-04-20T08:25:20.452Z</time></trkpt><trkpt lat="45.0160136" lon="8.2542817"><ele>234.0</ele><time>2026-04-20T08:25:21.451Z</time></trkpt><trkpt lat="45.0158278" lon="8.2542409"><ele>233.33333333333331</ele><time>2026-04-20T08:25:22.444Z</time></trkpt><trkpt lat="45.0156177" lon="8.2542471"><ele>232.66666666666666</ele><time>2026-04-20T08:25:23.447Z</time></trkpt><trkpt lat="45.0153853" lon="8.2542594"><ele>232.0</ele><time>2026-04-20T08:25:24.462Z</time></trkpt><trkpt lat="45.0148624" lon="8.254324"><ele>235.5</ele><time>2026-04-20T08:25:26.349Z</time></trkpt><trkpt lat="45.0146153" lon="8.2543275"><ele>239.0</ele><time>2026-04-20T08:25:27.36Z</time></trkpt><trkpt lat="45.0143629" lon="8.2543646"><ele>240.5</ele><time>2026-04-20T08:25:28.353Z</time></trkpt><trkpt lat="45.0141116" lon="8.254402"><ele>242.0</ele><time>2026-04-20T08:25:29.374Z</time></trkpt><trkpt lat="45.0138831" lon="8.2544285"><ele>242.0</ele><time>2026-04-20T08:25:30.368Z</time></trkpt><trkpt lat="45.0136845" lon="8.2544428"><ele>242.0</ele><time>2026-04-20T08:25:31.371Z</time></trkpt><trkpt lat="45.0135058" lon="8.2544508"><ele>242.0</ele><time>2026-04-20T08:25:32.367Z</time></trkpt><trkpt lat="45.0133248" lon="8.2544697"><ele>244.0</ele><time>2026-04-20T08:25:33.372Z</time></trkpt><trkpt lat="45.0131493" lon="8.2544887"><ele>246.0</ele><time>2026-04-20T08:25:34.369Z</time></trkpt><trkpt lat="45.0129829" lon="8.2545143"><ele>248.0</ele><time>2026-04-20T08:25:35.373Z</time></trkpt><trkpt lat="45.0128122" lon="8.2545773"><ele>248.0</ele><time>2026-04-20T08:25:36.375Z</time></trkpt><trkpt lat="45.0126523" lon="8.2546293"><ele>248.0</ele><time>2026-04-20T08:25:37.358Z</time></trkpt><trkpt lat="45.0125246" lon="8.2546906"><ele>248.0</ele><time>2026-04-20T08:25:38.36Z</time></trkpt><trkpt lat="45.0124172" lon="8.254756"><ele>248.0</ele><time>2026-04-20T08:25:39.361Z</time></trkpt><trkpt lat="45.0123112" lon="8.2548235"><ele>250.5</ele><time>2026-04-20T08:25:40.358Z</time></trkpt><trkpt lat="45.0122171" lon="8.2548829"><ele>253.0</ele><time>2026-04-20T08:25:41.368Z</time></trkpt><trkpt lat="45.0121099" lon="8.2549461"><ele>255.5</ele><time>2026-04-20T08:25:42.363Z</time></trkpt><trkpt lat="45.0120129" lon="8.2550318"><ele>258.0</ele><time>2026-04-20T08:25:43.364Z</time></trkpt><trkpt lat="45.0119043" lon="8.2551042"><ele>258.0</ele><time>2026-04-20T08:25:44.364Z</time></trkpt><trkpt lat="45.0118053" lon="8.2551864"><ele>258.0</ele><time>2026-04-20T08:25:45.359Z</time></trkpt><trkpt lat="45.0116971" lon="8.255263"><ele>258.0</ele><time>2026-04-20T08:25:46.363Z</time></trkpt><trkpt lat="45.0115788" lon="8.2553391"><ele>258.0</ele><time>2026-04-20T08:25:47.364Z</time></trkpt><trkpt lat="45.0114729" lon="8.2554137"><ele>258.75</ele><time>2026-04-20T08:25:48.362Z</time></trkpt><trkpt lat="45.0113635" lon="8.2554757"><ele>259.5</ele><time>2026-04-20T08:25:49.377Z</time></trkpt><trkpt lat="45.0112599" lon="8.255536"><ele>260.25</ele><time>2026-04-20T08:25:50.373Z</time></trkpt><trkpt lat="45.0111558" lon="8.2555957"><ele>261.0</ele><time>2026-04-20T08:25:51.375Z</time></trkpt><trkpt lat="45.0110521" lon="8.2556384"><ele>258.5</ele><time>2026-04-20T08:25:52.366Z</time></trkpt><trkpt lat="45.0109418" lon="8.2556646"><ele>256.0</ele><time>2026-04-20T08:25:53.366Z</time></trkpt><trkpt lat="45.0108247" lon="8.2556869"><ele>253.5</ele><time>2026-04-20T08:25:54.371Z</time></trkpt><trkpt lat="45.010696" lon="8.2557024"><ele>251.0</ele><time>2026-04-20T08:25:55.367Z</time></trkpt><trkpt lat="45.0105629" lon="8.2557253"><ele>251.0</ele><time>2026-04-20T08:25:56.364Z</time></trkpt><trkpt lat="45.0104292" lon="8.2557467"><ele>251.0</ele><time>2026-04-20T08:25:57.374Z</time></trkpt><trkpt lat="45.0103014" lon="8.2557582"><ele>251.0</ele><time>2026-04-20T08:25:58.375Z</time></trkpt><trkpt lat="45.0101704" lon="8.2557756"><ele>251.0</ele><time>2026-04-20T08:25:59.363Z</time></trkpt><trkpt lat="45.0100432" lon="8.2557946"><ele>251.0</ele><time>2026-04-20T08:26:00.365Z</time></trkpt><trkpt lat="45.009921" lon="8.255815"><ele>251.00000000000003</ele><time>2026-04-20T08:26:01.363Z</time></trkpt><trkpt lat="45.0098067" lon="8.255838"><ele>251.00000000000003</ele><time>2026-04-20T08:26:02.362Z</time></trkpt><trkpt lat="45.0097095" lon="8.255856"><ele>251.0</ele><time>2026-04-20T08:26:03.362Z</time></trkpt><trkpt lat="45.0096205" lon="8.2558492"><ele>251.0</ele><time>2026-04-20T08:26:04.352Z</time></trkpt><trkpt lat="45.00955" lon="8.2557913"><ele>251.0</ele><time>2026-04-20T08:26:05.361Z</time></trkpt><trkpt lat="45.0095061" lon="8.2557015"><ele>251.0</ele><time>2026-04-20T08:26:06.361Z</time></trkpt><trkpt lat="45.0095062" lon="8.2555675"><ele>251.0</ele><time>2026-04-20T08:26:07.348Z</time></trkpt><trkpt lat="45.0095352" lon="8.2553854"><ele>251.0</ele><time>2026-04-20T08:26:08.347Z</time></trkpt><trkpt lat="45.0095721" lon="8.2551849"><ele>248.66666666666669</ele><time>2026-04-20T08:26:09.347Z</time></trkpt><trkpt lat="45.0096166" lon="8.2549725"><ele>246.33333333333331</ele><time>2026-04-20T08:26:10.344Z</time></trkpt><trkpt lat="45.0096633" lon="8.2547412"><ele>244.0</ele><time>2026-04-20T08:26:11.345Z</time></trkpt><trkpt lat="45.0096903" lon="8.254553"><ele>242.0</ele><time>2026-04-20T08:26:12.35Z</time></trkpt><trkpt lat="45.0097259" lon="8.2543842"><ele>239.99999999999997</ele><time>2026-04-20T08:26:13.354Z</time></trkpt><trkpt lat="45.0097704" lon="8.254237"><ele>237.99999999999997</ele><time>2026-04-20T08:26:14.357Z</time></trkpt><trkpt lat="45.0097936" lon="8.2541116"><ele>236.0</ele><time>2026-04-20T08:26:15.353Z</time></trkpt><trkpt lat="45.0097833" lon="8.2539691"><ele>234.0</ele><time>2026-04-20T08:26:16.342Z</time></trkpt><trkpt lat="45.0097085" lon="8.2538244"><ele>233.25</ele><time>2026-04-20T08:26:17.356Z</time></trkpt><trkpt lat="45.009658" lon="8.2536651"><ele>232.5</ele><time>2026-04-20T08:26:18.34Z</time></trkpt><trkpt lat="45.0096069" lon="8.2534789"><ele>231.75</ele><time>2026-04-20T08:26:19.337Z</time></trkpt><trkpt lat="45.0095883" lon="8.2532761"><ele>231.0</ele><time>2026-04-20T08:26:20.348Z</time></trkpt><trkpt lat="45.0095718" lon="8.2530602"><ele>230.0</ele><time>2026-04-20T08:26:21.353Z</time></trkpt><trkpt lat="45.0095308" lon="8.2528356"><ele>229.0</ele><time>2026-04-20T08:26:22.358Z</time></trkpt><trkpt lat="45.0095137" lon="8.2526185"><ele>228.0</ele><time>2026-04-20T08:26:23.36Z</time></trkpt><trkpt lat="45.0094901" lon="8.2523822"><ele>227.25</ele><time>2026-04-20T08:26:24.355Z</time></trkpt><trkpt lat="45.0094655" lon="8.2521595"><ele>226.5</ele><time>2026-04-20T08:26:25.364Z</time></trkpt><trkpt lat="45.0094511" lon="8.2519649"><ele>225.75</ele><time>2026-04-20T08:26:26.363Z</time></trkpt><trkpt lat="45.009426" lon="8.251764"><ele>225.0</ele><time>2026-04-20T08:26:27.358Z</time></trkpt><trkpt lat="45.0093956" lon="8.2515599"><ele>224.66666666666669</ele><time>2026-04-20T08:26:28.365Z</time></trkpt><trkpt lat="45.0093598" lon="8.2513492"><ele>224.33333333333334</ele><time>2026-04-20T08:26:29.367Z</time></trkpt><trkpt lat="45.0093096" lon="8.2511432"><ele>224.0</ele><time>2026-04-20T08:26:30.363Z</time></trkpt><trkpt lat="45.0092656" lon="8.2509218"><ele>224.0</ele><time>2026-04-20T08:26:31.37Z</time></trkpt><trkpt lat="45.0092126" lon="8.250687"><ele>224.0</ele><time>2026-04-20T08:26:32.365Z</time></trkpt><trkpt lat="45.0091589" lon="8.2504461"><ele>224.0</ele><time>2026-04-20T08:26:33.368Z</time></trkpt><trkpt lat="45.0091077" lon="8.2502191"><ele>218.66666666666669</ele><time>2026-04-20T08:26:34.365Z</time></trkpt><trkpt lat="45.0090337" lon="8.2499621"><ele>213.33333333333331</ele><time>2026-04-20T08:26:35.364Z</time></trkpt><trkpt lat="45.0089508" lon="8.249702"><ele>208.0</ele><time>2026-04-20T08:26:36.364Z</time></trkpt><trkpt lat="45.0088849" lon="8.2494482"><ele>208.0</ele><time>2026-04-20T08:26:37.365Z</time></trkpt><trkpt lat="45.0087952" lon="8.2491807"><ele>208.0</ele><time>2026-04-20T08:26:38.36Z</time></trkpt><trkpt lat="45.0087048" lon="8.2489074"><ele>208.0</ele><time>2026-04-20T08:26:39.361Z</time></trkpt><trkpt lat="45.0086205" lon="8.2486378"><ele>208.66666666666666</ele><time>2026-04-20T08:26:40.362Z</time></trkpt><trkpt lat="45.0085357" lon="8.2483637"><ele>209.33333333333331</ele><time>2026-04-20T08:26:41.351Z</time></trkpt><trkpt lat="45.0084402" lon="8.2481166"><ele>210.0</ele><time>2026-04-20T08:26:42.354Z</time></trkpt><trkpt lat="45.008322" lon="8.2478782"><ele>209.33333333333331</ele><time>2026-04-20T08:26:43.354Z</time></trkpt><trkpt lat="45.0082006" lon="8.247656"><ele>208.66666666666666</ele><time>2026-04-20T08:26:44.364Z</time></trkpt><trkpt lat="45.0080587" lon="8.2474347"><ele>208.0</ele><time>2026-04-20T08:26:45.355Z</time></trkpt><trkpt lat="45.0079" lon="8.2472314"><ele>208.0</ele><time>2026-04-20T08:26:46.355Z</time></trkpt><trkpt lat="45.0077371" lon="8.2470363"><ele>208.0</ele><time>2026-04-20T08:26:47.356Z</time></trkpt><trkpt lat="45.0075704" lon="8.2468643"><ele>208.0</ele><time>2026-04-20T08:26:48.354Z</time></trkpt><trkpt lat="45.0074024" lon="8.2467197"><ele>207.0</ele><time>2026-04-20T08:26:49.359Z</time></trkpt><trkpt lat="45.0072295" lon="8.2465775"><ele>206.0</ele><time>2026-04-20T08:26:50.363Z</time></trkpt><trkpt lat="45.0070691" lon="8.2464244"><ele>205.0</ele><time>2026-04-20T08:26:51.367Z</time></trkpt><trkpt lat="45.0068931" lon="8.2462811"><ele>205.0</ele><time>2026-04-20T08:26:52.363Z</time></trkpt><trkpt lat="45.0067148" lon="8.2461692"><ele>205.0</ele><time>2026-04-20T08:26:53.354Z</time></trkpt><trkpt lat="45.0065167" lon="8.2461058"><ele>205.0</ele><time>2026-04-20T08:26:54.356Z</time></trkpt><trkpt lat="45.0063112" lon="8.2460816"><ele>203.0</ele><time>2026-04-20T08:26:55.358Z</time></trkpt><trkpt lat="45.0061028" lon="8.2460954"><ele>201.0</ele><time>2026-04-20T08:26:56.355Z</time></trkpt><trkpt lat="45.0058925" lon="8.2461213"><ele>199.0</ele><time>2026-04-20T08:26:57.366Z</time></trkpt><trkpt lat="45.005676" lon="8.2461495"><ele>196.66666666666666</ele><time>2026-04-20T08:26:58.365Z</time></trkpt><trkpt lat="45.0054626" lon="8.2461756"><ele>194.33333333333331</ele><time>2026-04-20T08:26:59.367Z</time></trkpt><trkpt lat="45.0052556" lon="8.2461879"><ele>192.0</ele><time>2026-04-20T08:27:00.377Z</time></trkpt><trkpt lat="45.0050499" lon="8.2461918"><ele>191.0</ele><time>2026-04-20T08:27:01.372Z</time></trkpt><trkpt lat="45.0048289" lon="8.2461851"><ele>190.0</ele><time>2026-04-20T08:27:02.38Z</time></trkpt><trkpt lat="45.0046124" lon="8.2461967"><ele>189.0</ele><time>2026-04-20T08:27:03.372Z</time></trkpt><trkpt lat="45.0043997" lon="8.2462225"><ele>189.0</ele><time>2026-04-20T08:27:04.372Z</time></trkpt><trkpt lat="45.0042164" lon="8.2462417"><ele>189.0</ele><time>2026-04-20T08:27:05.376Z</time></trkpt><trkpt lat="45.0040101" lon="8.246236"><ele>189.0</ele><time>2026-04-20T08:27:06.372Z</time></trkpt><trkpt lat="45.0038086" lon="8.2462511"><ele>187.33333333333334</ele><time>2026-04-20T08:27:07.373Z</time></trkpt><trkpt lat="45.0036095" lon="8.2462512"><ele>185.66666666666669</ele><time>2026-04-20T08:27:08.375Z</time></trkpt><trkpt lat="45.0034082" lon="8.2462698"><ele>184.0</ele><time>2026-04-20T08:27:09.368Z</time></trkpt><trkpt lat="45.0032014" lon="8.2462729"><ele>179.66666666666669</ele><time>2026-04-20T08:27:10.37Z</time></trkpt><trkpt lat="45.0030169" lon="8.2462578"><ele>175.33333333333334</ele><time>2026-04-20T08:27:11.369Z</time></trkpt><trkpt lat="45.002825" lon="8.2462478"><ele>171.0</ele><time>2026-04-20T08:27:12.37Z</time></trkpt><trkpt lat="45.0026593" lon="8.246227"><ele>171.0</ele><time>2026-04-20T08:27:13.37Z</time></trkpt><trkpt lat="45.0025031" lon="8.2461868"><ele>171.0</ele><time>2026-04-20T08:27:14.374Z</time></trkpt><trkpt lat="45.0023434" lon="8.2461515"><ele>171.0</ele><time>2026-04-20T08:27:15.397Z</time></trkpt><trkpt lat="45.0022008" lon="8.2461121"><ele>170.25</ele><time>2026-04-20T08:27:16.37Z</time></trkpt><trkpt lat="45.0020692" lon="8.2460467"><ele>169.5</ele><time>2026-04-20T08:27:17.385Z</time></trkpt><trkpt lat="45.0019571" lon="8.2459878"><ele>168.75</ele><time>2026-04-20T08:27:18.463Z</time></trkpt><trkpt lat="45.0018499" lon="8.2459231"><ele>168.0</ele><time>2026-04-20T08:27:19.466Z</time></trkpt><trkpt lat="45.0017481" lon="8.2458585"><ele>167.5</ele><time>2026-04-20T08:27:20.471Z</time></trkpt><trkpt lat="45.0016489" lon="8.2457916"><ele>167.0</ele><time>2026-04-20T08:27:21.476Z</time></trkpt><trkpt lat="45.0015423" lon="8.2457107"><ele>166.5</ele><time>2026-04-20T08:27:22.472Z</time></trkpt><trkpt lat="45.0014281" lon="8.2456198"><ele>166.0</ele><time>2026-04-20T08:27:23.467Z</time></trkpt><trkpt lat="45.0013016" lon="8.2455188"><ele>165.66666666666669</ele><time>2026-04-20T08:27:24.472Z</time></trkpt><trkpt lat="45.0011646" lon="8.2454058"><ele>165.33333333333334</ele><time>2026-04-20T08:27:25.465Z</time></trkpt><trkpt lat="45.0010275" lon="8.2452818"><ele>165.0</ele><time>2026-04-20T08:27:26.47Z</time></trkpt><trkpt lat="45.0008923" lon="8.2451471"><ele>164.33333333333334</ele><time>2026-04-20T08:27:27.474Z</time></trkpt><trkpt lat="45.0007599" lon="8.2449979"><ele>163.66666666666669</ele><time>2026-04-20T08:27:28.468Z</time></trkpt><trkpt lat="45.0006396" lon="8.2448114"><ele>163.0</ele><time>2026-04-20T08:27:29.465Z</time></trkpt><trkpt lat="45.000516" lon="8.2446456"><ele>163.0</ele><time>2026-04-20T08:27:30.473Z</time></trkpt><trkpt lat="45.000394" lon="8.2444877"><ele>163.0</ele><time>2026-04-20T08:27:31.48Z</time></trkpt><trkpt lat="45.0002736" lon="8.2443242"><ele>163.0</ele><time>2026-04-20T08:27:32.473Z</time></trkpt><trkpt lat="45.000142" lon="8.2441437"><ele>163.33333333333334</ele><time>2026-04-20T08:27:33.468Z</time></trkpt><trkpt lat="45.0000041" lon="8.2439423"><ele>163.66666666666666</ele><time>2026-04-20T08:27:34.459Z</time></trkpt><trkpt lat="44.9998648" lon="8.2437203"><ele>164.0</ele><time>2026-04-20T08:27:35.462Z</time></trkpt><trkpt lat="44.999737" lon="8.2434873"><ele>164.0</ele><time>2026-04-20T08:27:36.464Z</time></trkpt><trkpt lat="44.9996177" lon="8.2432388"><ele>164.0</ele><time>2026-04-20T08:27:37.459Z</time></trkpt><trkpt lat="44.9995104" lon="8.2429794"><ele>164.0</ele><time>2026-04-20T08:27:38.463Z</time></trkpt><trkpt lat="44.9994087" lon="8.242714"><ele>164.66666666666666</ele><time>2026-04-20T08:27:39.467Z</time></trkpt><trkpt lat="44.999305" lon="8.2424546"><ele>165.33333333333334</ele><time>2026-04-20T08:27:40.47Z</time></trkpt><trkpt lat="44.9991987" lon="8.2421973"><ele>166.0</ele><time>2026-04-20T08:27:41.47Z</time></trkpt><trkpt lat="44.9990933" lon="8.2419397"><ele>164.0</ele><time>2026-04-20T08:27:42.477Z</time></trkpt><trkpt lat="44.9989867" lon="8.2416827"><ele>162.0</ele><time>2026-04-20T08:27:43.466Z</time></trkpt><trkpt lat="44.998881" lon="8.2414304"><ele>160.0</ele><time>2026-04-20T08:27:44.48Z</time></trkpt><trkpt lat="44.9987768" lon="8.2411798"><ele>159.0</ele><time>2026-04-20T08:27:45.469Z</time></trkpt><trkpt lat="44.9986742" lon="8.2409326"><ele>158.0</ele><time>2026-04-20T08:27:46.465Z</time></trkpt><trkpt lat="44.9985741" lon="8.2406856"><ele>157.0</ele><time>2026-04-20T08:27:47.475Z</time></trkpt><trkpt lat="44.9984726" lon="8.2404409"><ele>157.0</ele><time>2026-04-20T08:27:48.473Z</time></trkpt><trkpt lat="44.9983713" lon="8.2401967"><ele>157.0</ele><time>2026-04-20T08:27:49.464Z</time></trkpt><trkpt lat="44.9982694" lon="8.2399556"><ele>157.0</ele><time>2026-04-20T08:27:50.479Z</time></trkpt><trkpt lat="44.9981664" lon="8.2397151"><ele>156.33333333333334</ele><time>2026-04-20T08:27:51.47Z</time></trkpt><trkpt lat="44.9980638" lon="8.2394722"><ele>155.66666666666666</ele><time>2026-04-20T08:27:52.477Z</time></trkpt><trkpt lat="44.9979623" lon="8.2392301"><ele>155.0</ele><time>2026-04-20T08:27:53.472Z</time></trkpt><trkpt lat="44.9978601" lon="8.238984"><ele>155.33333333333331</ele><time>2026-04-20T08:27:54.474Z</time></trkpt><trkpt lat="44.9977569" lon="8.2387375"><ele>155.66666666666666</ele><time>2026-04-20T08:27:55.474Z</time></trkpt><trkpt lat="44.9976539" lon="8.2384904"><ele>156.0</ele><time>2026-04-20T08:27:56.474Z</time></trkpt><trkpt lat="44.9975496" lon="8.2382461"><ele>154.66666666666666</ele><time>2026-04-20T08:27:57.473Z</time></trkpt><trkpt lat="44.9974444" lon="8.2379975"><ele>153.33333333333331</ele><time>2026-04-20T08:27:58.475Z</time></trkpt><trkpt lat="44.9973403" lon="8.2377495"><ele>152.0</ele><time>2026-04-20T08:27:59.467Z</time></trkpt><trkpt lat="44.9972355" lon="8.2375014"><ele>152.0</ele><time>2026-04-20T08:28:00.473Z</time></trkpt><trkpt lat="44.9971279" lon="8.2372508"><ele>152.0</ele><time>2026-04-20T08:28:01.47Z</time></trkpt><trkpt lat="44.9970216" lon="8.2369994"><ele>152.0</ele><time>2026-04-20T08:28:02.471Z</time></trkpt><trkpt lat="44.9969151" lon="8.2367446"><ele>152.0</ele><time>2026-04-20T08:28:03.463Z</time></trkpt><trkpt lat="44.9968061" lon="8.2364864"><ele>152.0</ele><time>2026-04-20T08:28:04.471Z</time></trkpt><trkpt lat="44.9967004" lon="8.2362334"><ele>152.0</ele><time>2026-04-20T08:28:05.462Z</time></trkpt><trkpt lat="44.9965957" lon="8.2359846"><ele>152.0</ele><time>2026-04-20T08:28:06.466Z</time></trkpt><trkpt lat="44.9964882" lon="8.2357343"><ele>152.0</ele><time>2026-04-20T08:28:07.464Z</time></trkpt><trkpt lat="44.9963813" lon="8.2354857"><ele>152.0</ele><time>2026-04-20T08:28:08.463Z</time></trkpt><trkpt lat="44.9962739" lon="8.2352335"><ele>151.66666666666666</ele><time>2026-04-20T08:28:09.467Z</time></trkpt><trkpt lat="44.9961678" lon="8.234981"><ele>151.33333333333334</ele><time>2026-04-20T08:28:10.477Z</time></trkpt><trkpt lat="44.9960594" lon="8.2347307"><ele>151.0</ele><time>2026-04-20T08:28:11.471Z</time></trkpt><trkpt lat="44.9959514" lon="8.2344796"><ele>151.0</ele><time>2026-04-20T08:28:12.469Z</time></trkpt><trkpt lat="44.9958421" lon="8.2342288"><ele>151.0</ele><time>2026-04-20T08:28:13.472Z</time></trkpt><trkpt lat="44.9957354" lon="8.2339785"><ele>151.0</ele><time>2026-04-20T08:28:14.471Z</time></trkpt><trkpt lat="44.9956256" lon="8.2337262"><ele>151.0</ele><time>2026-04-20T08:28:15.469Z</time></trkpt><trkpt lat="44.9955122" lon="8.23348"><ele>151.0</ele><time>2026-04-20T08:28:16.465Z</time></trkpt><trkpt lat="44.9953964" lon="8.2332375"><ele>151.0</ele><time>2026-04-20T08:28:17.466Z</time></trkpt><trkpt lat="44.9952709" lon="8.2330066"><ele>150.66666666666669</ele><time>2026-04-20T08:28:18.453Z</time></trkpt><trkpt lat="44.9951381" lon="8.2327812"><ele>150.33333333333334</ele><time>2026-04-20T08:28:19.468Z</time></trkpt><trkpt lat="44.9949991" lon="8.2325654"><ele>150.0</ele><time>2026-04-20T08:28:20.471Z</time></trkpt><trkpt lat="44.9948546" lon="8.2323511"><ele>149.66666666666666</ele><time>2026-04-20T08:28:21.478Z</time></trkpt><trkpt lat="44.9947089" lon="8.2321415"><ele>149.33333333333331</ele><time>2026-04-20T08:28:22.481Z</time></trkpt><trkpt lat="44.9945603" lon="8.2319332"><ele>149.0</ele><time>2026-04-20T08:28:23.482Z</time></trkpt><trkpt lat="44.9944128" lon="8.2317268"><ele>149.0</ele><time>2026-04-20T08:28:24.479Z</time></trkpt><trkpt lat="44.9942625" lon="8.2315216"><ele>149.0</ele><time>2026-04-20T08:28:25.473Z</time></trkpt><trkpt lat="44.9941093" lon="8.2313172"><ele>149.0</ele><time>2026-04-20T08:28:26.474Z</time></trkpt><trkpt lat="44.9939539" lon="8.2311142"><ele>148.66666666666666</ele><time>2026-04-20T08:28:27.487Z</time></trkpt><trkpt lat="44.9937984" lon="8.2309152"><ele>148.33333333333334</ele><time>2026-04-20T08:28:28.482Z</time></trkpt><trkpt lat="44.9936458" lon="8.2307175"><ele>148.0</ele><time>2026-04-20T08:28:29.476Z</time></trkpt><trkpt lat="44.9934945" lon="8.2305199"><ele>148.0</ele><time>2026-04-20T08:28:30.471Z</time></trkpt><trkpt lat="44.993344" lon="8.2303254"><ele>148.0</ele><time>2026-04-20T08:28:31.479Z</time></trkpt><trkpt lat="44.993192" lon="8.2301355"><ele>148.0</ele><time>2026-04-20T08:28:32.478Z</time></trkpt><trkpt lat="44.9930415" lon="8.2299473"><ele>147.33333333333334</ele><time>2026-04-20T08:28:33.48Z</time></trkpt><trkpt lat="44.9928909" lon="8.2297569"><ele>146.66666666666666</ele><time>2026-04-20T08:28:34.477Z</time></trkpt><trkpt lat="44.9927373" lon="8.2295621"><ele>146.0</ele><time>2026-04-20T08:28:35.474Z</time></trkpt><trkpt lat="44.9925877" lon="8.2293706"><ele>146.33333333333331</ele><time>2026-04-20T08:28:36.471Z</time></trkpt><trkpt lat="44.9924379" lon="8.2291782"><ele>146.66666666666666</ele><time>2026-04-20T08:28:37.483Z</time></trkpt><trkpt lat="44.9922889" lon="8.2289836"><ele>147.0</ele><time>2026-04-20T08:28:38.477Z</time></trkpt><trkpt lat="44.9921374" lon="8.2287895"><ele>146.33333333333334</ele><time>2026-04-20T08:28:39.483Z</time></trkpt><trkpt lat="44.9919862" lon="8.2285973"><ele>145.66666666666669</ele><time>2026-04-20T08:28:40.479Z</time></trkpt><trkpt lat="44.9918362" lon="8.2284066"><ele>145.0</ele><time>2026-04-20T08:28:41.482Z</time></trkpt><trkpt lat="44.9916855" lon="8.2282143"><ele>144.33333333333334</ele><time>2026-04-20T08:28:42.48Z</time></trkpt><trkpt lat="44.991535" lon="8.2280227"><ele>143.66666666666666</ele><time>2026-04-20T08:28:43.486Z</time></trkpt><trkpt lat="44.9913897" lon="8.2278408"><ele>143.0</ele><time>2026-04-20T08:28:44.49Z</time></trkpt><trkpt lat="44.9912524" lon="8.227671"><ele>143.0</ele><time>2026-04-20T08:28:45.485Z</time></trkpt><trkpt lat="44.9911198" lon="8.2275089"><ele>143.0</ele><time>2026-04-20T08:28:46.492Z</time></trkpt><trkpt lat="44.9909934" lon="8.2273497"><ele>143.0</ele><time>2026-04-20T08:28:47.496Z</time></trkpt><trkpt lat="44.9908754" lon="8.2271982"><ele>143.0</ele><time>2026-04-20T08:28:48.491Z</time></trkpt><trkpt lat="44.9907621" lon="8.2270543"><ele>143.0</ele><time>2026-04-20T08:28:49.495Z</time></trkpt><trkpt lat="44.9906436" lon="8.226908"><ele>143.0</ele><time>2026-04-20T08:28:50.493Z</time></trkpt><trkpt lat="44.990523" lon="8.2267571"><ele>143.0</ele><time>2026-04-20T08:28:51.504Z</time></trkpt><trkpt lat="44.9904015" lon="8.2266013"><ele>143.0</ele><time>2026-04-20T08:28:52.499Z</time></trkpt><trkpt lat="44.9902788" lon="8.2264432"><ele>143.0</ele><time>2026-04-20T08:28:53.502Z</time></trkpt><trkpt lat="44.9901554" lon="8.2262813"><ele>142.0</ele><time>2026-04-20T08:28:54.501Z</time></trkpt><trkpt lat="44.9900321" lon="8.2261189"><ele>141.0</ele><time>2026-04-20T08:28:55.501Z</time></trkpt><trkpt lat="44.9899158" lon="8.2259641"><ele>140.0</ele><time>2026-04-20T08:28:56.501Z</time></trkpt><trkpt lat="44.9898069" lon="8.2258208"><ele>140.0</ele><time>2026-04-20T08:28:57.505Z</time></trkpt><trkpt lat="44.9897024" lon="8.2256871"><ele>140.0</ele><time>2026-04-20T08:28:58.497Z</time></trkpt><trkpt lat="44.9895955" lon="8.2255559"><ele>140.0</ele><time>2026-04-20T08:28:59.497Z</time></trkpt><trkpt lat="44.9894925" lon="8.2254254"><ele>140.0</ele><time>2026-04-20T08:29:00.497Z</time></trkpt><trkpt lat="44.9893915" lon="8.2252975"><ele>140.25</ele><time>2026-04-20T08:29:01.493Z</time></trkpt><trkpt lat="44.9892934" lon="8.2251712"><ele>140.5</ele><time>2026-04-20T08:29:02.495Z</time></trkpt><trkpt lat="44.9891983" lon="8.2250527"><ele>140.75</ele><time>2026-04-20T08:29:03.492Z</time></trkpt><trkpt lat="44.9891077" lon="8.2249339"><ele>141.0</ele><time>2026-04-20T08:29:04.481Z</time></trkpt><trkpt lat="44.9890234" lon="8.2248258"><ele>140.5</ele><time>2026-04-20T08:29:05.483Z</time></trkpt><trkpt lat="44.9889424" lon="8.2247257"><ele>140.0</ele><time>2026-04-20T08:29:06.473Z</time></trkpt><trkpt lat="44.9888593" lon="8.2246156"><ele>139.5</ele><time>2026-04-20T08:29:07.48Z</time></trkpt><trkpt lat="44.9887713" lon="8.2245069"><ele>139.0</ele><time>2026-04-20T08:29:08.477Z</time></trkpt><trkpt lat="44.9886749" lon="8.224408"><ele>139.0</ele><time>2026-04-20T08:29:09.479Z</time></trkpt><trkpt lat="44.9885709" lon="8.2243175"><ele>139.0</ele><time>2026-04-20T08:29:10.485Z</time></trkpt><trkpt lat="44.9884595" lon="8.2242339"><ele>139.0</ele><time>2026-04-20T08:29:11.48Z</time></trkpt><trkpt lat="44.9883394" lon="8.2241593"><ele>139.0</ele><time>2026-04-20T08:29:12.487Z</time></trkpt><trkpt lat="44.9882133" lon="8.2240978"><ele>139.75</ele><time>2026-04-20T08:29:13.487Z</time></trkpt><trkpt lat="44.988083" lon="8.2240508"><ele>140.5</ele><time>2026-04-20T08:29:14.481Z</time></trkpt><trkpt lat="44.9879463" lon="8.2240193"><ele>141.25</ele><time>2026-04-20T08:29:15.482Z</time></trkpt><trkpt lat="44.9878064" lon="8.2240006"><ele>142.0</ele><time>2026-04-20T08:29:16.461Z</time></trkpt><trkpt lat="44.9876633" lon="8.223994"><ele>142.0</ele><time>2026-04-20T08:29:17.463Z</time></trkpt><trkpt lat="44.987526" lon="8.2239979"><ele>142.0</ele><time>2026-04-20T08:29:18.464Z</time></trkpt><trkpt lat="44.9873924" lon="8.2240105"><ele>142.0</ele><time>2026-04-20T08:29:19.454Z</time></trkpt><trkpt lat="44.987261" lon="8.2240412"><ele>142.0</ele><time>2026-04-20T08:29:20.469Z</time></trkpt><trkpt lat="44.9871355" lon="8.2240812"><ele>141.75</ele><time>2026-04-20T08:29:21.471Z</time></trkpt><trkpt lat="44.9870183" lon="8.2241236"><ele>141.5</ele><time>2026-04-20T08:29:22.457Z</time></trkpt><trkpt lat="44.9869023" lon="8.2241661"><ele>141.25</ele><time>2026-04-20T08:29:23.458Z</time></trkpt><trkpt lat="44.9867834" lon="8.2242095"><ele>141.0</ele><time>2026-04-20T08:29:24.461Z</time></trkpt><trkpt lat="44.9866622" lon="8.2242534"><ele>141.0</ele><time>2026-04-20T08:29:25.464Z</time></trkpt><trkpt lat="44.9865356" lon="8.2242891"><ele>141.0</ele><time>2026-04-20T08:29:26.484Z</time></trkpt><trkpt lat="44.986405" lon="8.2243281"><ele>141.0</ele><time>2026-04-20T08:29:27.49Z</time></trkpt><trkpt lat="44.9862654" lon="8.2243732"><ele>141.0</ele><time>2026-04-20T08:29:28.483Z</time></trkpt><trkpt lat="44.9861227" lon="8.2244239"><ele>141.0</ele><time>2026-04-20T08:29:29.477Z</time></trkpt><trkpt lat="44.9859827" lon="8.2244739"><ele>141.0</ele><time>2026-04-20T08:29:30.478Z</time></trkpt><trkpt lat="44.9858435" lon="8.2245259"><ele>141.0</ele><time>2026-04-20T08:29:31.488Z</time></trkpt><trkpt lat="44.9857055" lon="8.2245771"><ele>141.0</ele><time>2026-04-20T08:29:32.484Z</time></trkpt><trkpt lat="44.9855687" lon="8.2246235"><ele>140.5</ele><time>2026-04-20T08:29:33.487Z</time></trkpt><trkpt lat="44.985436" lon="8.2246678"><ele>140.0</ele><time>2026-04-20T08:29:34.486Z</time></trkpt><trkpt lat="44.9853083" lon="8.224711"><ele>139.5</ele><time>2026-04-20T08:29:35.487Z</time></trkpt><trkpt lat="44.9851831" lon="8.2247535"><ele>139.0</ele><time>2026-04-20T08:29:36.483Z</time></trkpt><trkpt lat="44.9850574" lon="8.2248"><ele>138.5</ele><time>2026-04-20T08:29:37.49Z</time></trkpt><trkpt lat="44.9849294" lon="8.2248466"><ele>138.0</ele><time>2026-04-20T08:29:38.497Z</time></trkpt><trkpt lat="44.9848005" lon="8.2248941"><ele>137.5</ele><time>2026-04-20T08:29:39.497Z</time></trkpt><trkpt lat="44.9846712" lon="8.2249392"><ele>137.0</ele><time>2026-04-20T08:29:40.496Z</time></trkpt><trkpt lat="44.9845376" lon="8.224982"><ele>137.0</ele><time>2026-04-20T08:29:41.493Z</time></trkpt><trkpt lat="44.9843965" lon="8.2250273"><ele>137.0</ele><time>2026-04-20T08:29:42.494Z</time></trkpt><trkpt lat="44.984245" lon="8.2250772"><ele>137.0</ele><time>2026-04-20T08:29:43.5Z</time></trkpt><trkpt lat="44.9840978" lon="8.2251263"><ele>137.0</ele><time>2026-04-20T08:29:44.497Z</time></trkpt><trkpt lat="44.983949" lon="8.2251733"><ele>137.0</ele><time>2026-04-20T08:29:45.501Z</time></trkpt><trkpt lat="44.9837973" lon="8.2252237"><ele>137.0</ele><time>2026-04-20T08:29:46.493Z</time></trkpt><trkpt lat="44.983637" lon="8.2252804"><ele>137.0</ele><time>2026-04-20T08:29:47.493Z</time></trkpt><trkpt lat="44.9834725" lon="8.2253399"><ele>137.0</ele><time>2026-04-20T08:29:48.492Z</time></trkpt><trkpt lat="44.9833048" lon="8.2254008"><ele>137.0</ele><time>2026-04-20T08:29:49.487Z</time></trkpt><trkpt lat="44.9831313" lon="8.2254633"><ele>137.33333333333331</ele><time>2026-04-20T08:29:50.493Z</time></trkpt><trkpt lat="44.982964" lon="8.2255251"><ele>137.66666666666666</ele><time>2026-04-20T08:29:51.491Z</time></trkpt><trkpt lat="44.9828011" lon="8.2255826"><ele>138.0</ele><time>2026-04-20T08:29:52.495Z</time></trkpt><trkpt lat="44.9826366" lon="8.2256343"><ele>138.0</ele><time>2026-04-20T08:29:53.493Z</time></trkpt><trkpt lat="44.9824723" lon="8.2256851"><ele>138.0</ele><time>2026-04-20T08:29:54.496Z</time></trkpt><trkpt lat="44.9823099" lon="8.2257355"><ele>138.0</ele><time>2026-04-20T08:29:55.492Z</time></trkpt><trkpt lat="44.9821489" lon="8.2257868"><ele>138.0</ele><time>2026-04-20T08:29:56.502Z</time></trkpt><trkpt lat="44.9819867" lon="8.2258385"><ele>138.0</ele><time>2026-04-20T08:29:57.499Z</time></trkpt><trkpt lat="44.9818257" lon="8.2258925"><ele>138.0</ele><time>2026-04-20T08:29:58.495Z</time></trkpt><trkpt lat="44.9816734" lon="8.2259455"><ele>138.0</ele><time>2026-04-20T08:29:59.501Z</time></trkpt><trkpt lat="44.9815318" lon="8.2259933"><ele>138.0</ele><time>2026-04-20T08:30:00.495Z</time></trkpt><trkpt lat="44.981392" lon="8.2260398"><ele>138.0</ele><time>2026-04-20T08:30:01.491Z</time></trkpt><trkpt lat="44.981248" lon="8.2260882"><ele>138.0</ele><time>2026-04-20T08:30:02.493Z</time></trkpt><trkpt lat="44.9810988" lon="8.2261378"><ele>138.0</ele><time>2026-04-20T08:30:03.491Z</time></trkpt><trkpt lat="44.9809451" lon="8.2261886"><ele>138.0</ele><time>2026-04-20T08:30:04.492Z</time></trkpt><trkpt lat="44.9807853" lon="8.2262423"><ele>138.0</ele><time>2026-04-20T08:30:05.498Z</time></trkpt><trkpt lat="44.9806201" lon="8.2263011"><ele>137.66666666666666</ele><time>2026-04-20T08:30:06.492Z</time></trkpt><trkpt lat="44.980451" lon="8.2263617"><ele>137.33333333333331</ele><time>2026-04-20T08:30:07.491Z</time></trkpt><trkpt lat="44.9802773" lon="8.2264216"><ele>137.0</ele><time>2026-04-20T08:30:08.493Z</time></trkpt><trkpt lat="44.9801013" lon="8.2264801"><ele>137.33333333333331</ele><time>2026-04-20T08:30:09.495Z</time></trkpt><trkpt lat="44.9799211" lon="8.2265396"><ele>137.66666666666666</ele><time>2026-04-20T08:30:10.495Z</time></trkpt><trkpt lat="44.9797401" lon="8.2265989"><ele>138.0</ele><time>2026-04-20T08:30:11.485Z</time></trkpt><trkpt lat="44.9795569" lon="8.2266569"><ele>138.0</ele><time>2026-04-20T08:30:12.479Z</time></trkpt><trkpt lat="44.9793699" lon="8.2267176"><ele>138.0</ele><time>2026-04-20T08:30:13.483Z</time></trkpt><trkpt lat="44.9791818" lon="8.2267755"><ele>138.0</ele><time>2026-04-20T08:30:14.492Z</time></trkpt><trkpt lat="44.9790009" lon="8.2268359"><ele>138.0</ele><time>2026-04-20T08:30:15.489Z</time></trkpt><trkpt lat="44.9788225" lon="8.2268957"><ele>138.0</ele><time>2026-04-20T08:30:16.488Z</time></trkpt><trkpt lat="44.9786466" lon="8.2269556"><ele>138.0</ele><time>2026-04-20T08:30:17.499Z</time></trkpt><trkpt lat="44.9784688" lon="8.2270127"><ele>137.33333333333334</ele><time>2026-04-20T08:30:18.491Z</time></trkpt><trkpt lat="44.9782892" lon="8.2270703"><ele>136.66666666666669</ele><time>2026-04-20T08:30:19.484Z</time></trkpt><trkpt lat="44.9781097" lon="8.2271303"><ele>136.0</ele><time>2026-04-20T08:30:20.483Z</time></trkpt><trkpt lat="44.9779271" lon="8.2271936"><ele>136.0</ele><time>2026-04-20T08:30:21.482Z</time></trkpt><trkpt lat="44.97774" lon="8.2272579"><ele>136.0</ele><time>2026-04-20T08:30:22.487Z</time></trkpt><trkpt lat="44.9775577" lon="8.2273226"><ele>136.0</ele><time>2026-04-20T08:30:23.486Z</time></trkpt><trkpt lat="44.9773813" lon="8.2273848"><ele>135.66666666666669</ele><time>2026-04-20T08:30:24.481Z</time></trkpt><trkpt lat="44.9772" lon="8.2274482"><ele>135.33333333333334</ele><time>2026-04-20T08:30:25.488Z</time></trkpt><trkpt lat="44.9770129" lon="8.2275135"><ele>135.0</ele><time>2026-04-20T08:30:26.486Z</time></trkpt><trkpt lat="44.976827" lon="8.2275787"><ele>135.66666666666666</ele><time>2026-04-20T08:30:27.491Z</time></trkpt><trkpt lat="44.9766416" lon="8.2276419"><ele>136.33333333333331</ele><time>2026-04-20T08:30:28.48Z</time></trkpt><trkpt lat="44.9764535" lon="8.2277039"><ele>137.0</ele><time>2026-04-20T08:30:29.487Z</time></trkpt><trkpt lat="44.9762645" lon="8.2277664"><ele>137.0</ele><time>2026-04-20T08:30:30.477Z</time></trkpt><trkpt lat="44.9760816" lon="8.2278273"><ele>137.0</ele><time>2026-04-20T08:30:31.489Z</time></trkpt><trkpt lat="44.975897" lon="8.2278891"><ele>137.0</ele><time>2026-04-20T08:30:32.478Z</time></trkpt><trkpt lat="44.9757107" lon="8.2279539"><ele>137.0</ele><time>2026-04-20T08:30:33.489Z</time></trkpt><trkpt lat="44.9755231" lon="8.2280192"><ele>137.0</ele><time>2026-04-20T08:30:34.486Z</time></trkpt><trkpt lat="44.9753322" lon="8.2280859"><ele>137.0</ele><time>2026-04-20T08:30:35.486Z</time></trkpt><trkpt lat="44.9751302" lon="8.2281521"><ele>136.66666666666666</ele><time>2026-04-20T08:30:36.481Z</time></trkpt><trkpt lat="44.9749244" lon="8.2282197"><ele>136.33333333333334</ele><time>2026-04-20T08:30:37.481Z</time></trkpt><trkpt lat="44.9747216" lon="8.2282839"><ele>136.0</ele><time>2026-04-20T08:30:38.482Z</time></trkpt><trkpt lat="44.9745158" lon="8.2283525"><ele>136.0</ele><time>2026-04-20T08:30:39.483Z</time></trkpt><trkpt lat="44.9743082" lon="8.2284237"><ele>136.0</ele><time>2026-04-20T08:30:40.479Z</time></trkpt><trkpt lat="44.9740987" lon="8.228495"><ele>136.0</ele><time>2026-04-20T08:30:41.481Z</time></trkpt><trkpt lat="44.9738835" lon="8.2285667"><ele>135.66666666666669</ele><time>2026-04-20T08:30:42.49Z</time></trkpt><trkpt lat="44.9736663" lon="8.2286303"><ele>135.33333333333334</ele><time>2026-04-20T08:30:43.487Z</time></trkpt><trkpt lat="44.9734487" lon="8.2286726"><ele>135.0</ele><time>2026-04-20T08:30:44.477Z</time></trkpt><trkpt lat="44.9732283" lon="8.2286767"><ele>136.5</ele><time>2026-04-20T08:30:45.479Z</time></trkpt><trkpt lat="44.9730044" lon="8.2286532"><ele>138.0</ele><time>2026-04-20T08:30:46.48Z</time></trkpt><trkpt lat="44.9727812" lon="8.2286058"><ele>138.0</ele><time>2026-04-20T08:30:47.454Z</time></trkpt><trkpt lat="44.9725568" lon="8.2285461"><ele>138.0</ele><time>2026-04-20T08:30:48.469Z</time></trkpt><trkpt lat="44.9723327" lon="8.2284809"><ele>138.0</ele><time>2026-04-20T08:30:49.464Z</time></trkpt><trkpt lat="44.9721104" lon="8.2284195"><ele>138.0</ele><time>2026-04-20T08:30:50.465Z</time></trkpt><trkpt lat="44.9718883" lon="8.2283483"><ele>136.0</ele><time>2026-04-20T08:30:51.476Z</time></trkpt><trkpt lat="44.9716654" lon="8.2282769"><ele>134.0</ele><time>2026-04-20T08:30:52.483Z</time></trkpt><trkpt lat="44.9714418" lon="8.2282042"><ele>135.0</ele><time>2026-04-20T08:30:53.477Z</time></trkpt><trkpt lat="44.9712192" lon="8.2281297"><ele>136.0</ele><time>2026-04-20T08:30:54.475Z</time></trkpt><trkpt lat="44.9710005" lon="8.2280581"><ele>135.66666666666669</ele><time>2026-04-20T08:30:55.476Z</time></trkpt><trkpt lat="44.9707836" lon="8.2279848"><ele>135.33333333333334</ele><time>2026-04-20T08:30:56.476Z</time></trkpt><trkpt lat="44.9705674" lon="8.2279078"><ele>135.0</ele><time>2026-04-20T08:30:57.482Z</time></trkpt><trkpt lat="44.9703576" lon="8.2278344"><ele>135.0</ele><time>2026-04-20T08:30:58.489Z</time></trkpt><trkpt lat="44.9701453" lon="8.2277663"><ele>135.0</ele><time>2026-04-20T08:30:59.48Z</time></trkpt><trkpt lat="44.9699326" lon="8.2277013"><ele>135.0</ele><time>2026-04-20T08:31:00.488Z</time></trkpt><trkpt lat="44.9697209" lon="8.2276382"><ele>135.0</ele><time>2026-04-20T08:31:01.484Z</time></trkpt><trkpt lat="44.9695128" lon="8.2275714"><ele>135.0</ele><time>2026-04-20T08:31:02.481Z</time></trkpt><trkpt lat="44.969319" lon="8.2275069"><ele>135.0</ele><time>2026-04-20T08:31:03.477Z</time></trkpt><trkpt lat="44.9691044" lon="8.227437"><ele>134.66666666666666</ele><time>2026-04-20T08:31:04.479Z</time></trkpt><trkpt lat="44.9688949" lon="8.2273691"><ele>134.33333333333331</ele><time>2026-04-20T08:31:05.479Z</time></trkpt><trkpt lat="44.9686881" lon="8.2273019"><ele>134.0</ele><time>2026-04-20T08:31:06.492Z</time></trkpt><trkpt lat="44.9684841" lon="8.2272359"><ele>134.66666666666666</ele><time>2026-04-20T08:31:07.486Z</time></trkpt><trkpt lat="44.9682903" lon="8.2271719"><ele>135.33333333333334</ele><time>2026-04-20T08:31:08.475Z</time></trkpt><trkpt lat="44.9681084" lon="8.2271101"><ele>136.0</ele><time>2026-04-20T08:31:09.483Z</time></trkpt><trkpt lat="44.9679314" lon="8.2270473"><ele>136.0</ele><time>2026-04-20T08:31:10.479Z</time></trkpt><trkpt lat="44.9677646" lon="8.2269793"><ele>136.0</ele><time>2026-04-20T08:31:11.477Z</time></trkpt><trkpt lat="44.9676015" lon="8.2269097"><ele>136.0</ele><time>2026-04-20T08:31:12.487Z</time></trkpt><trkpt lat="44.9674362" lon="8.2268449"><ele>135.0</ele><time>2026-04-20T08:31:13.484Z</time></trkpt><trkpt lat="44.9672632" lon="8.2267803"><ele>134.0</ele><time>2026-04-20T08:31:14.478Z</time></trkpt><trkpt lat="44.9670896" lon="8.2267174"><ele>133.0</ele><time>2026-04-20T08:31:15.477Z</time></trkpt><trkpt lat="44.9669124" lon="8.2266544"><ele>133.0</ele><time>2026-04-20T08:31:16.478Z</time></trkpt><trkpt lat="44.9667351" lon="8.2265934"><ele>133.0</ele><time>2026-04-20T08:31:17.479Z</time></trkpt><trkpt lat="44.9665537" lon="8.2265345"><ele>133.0</ele><time>2026-04-20T08:31:18.477Z</time></trkpt><trkpt lat="44.9663697" lon="8.2264809"><ele>133.0</ele><time>2026-04-20T08:31:19.475Z</time></trkpt><trkpt lat="44.9661887" lon="8.2264318"><ele>133.0</ele><time>2026-04-20T08:31:20.474Z</time></trkpt><trkpt lat="44.966008" lon="8.2263821"><ele>133.0</ele><time>2026-04-20T08:31:21.47Z</time></trkpt><trkpt lat="44.9658266" lon="8.2263355"><ele>131.66666666666669</ele><time>2026-04-20T08:31:22.477Z</time></trkpt><trkpt lat="44.9656474" lon="8.2262913"><ele>130.33333333333334</ele><time>2026-04-20T08:31:23.476Z</time></trkpt><trkpt lat="44.9654694" lon="8.2262408"><ele>129.0</ele><time>2026-04-20T08:31:24.477Z</time></trkpt><trkpt lat="44.9652926" lon="8.226187"><ele>129.0</ele><time>2026-04-20T08:31:25.474Z</time></trkpt><trkpt lat="44.9651202" lon="8.2261312"><ele>129.0</ele><time>2026-04-20T08:31:26.464Z</time></trkpt><trkpt lat="44.9649465" lon="8.2260758"><ele>129.0</ele><time>2026-04-20T08:31:27.473Z</time></trkpt><trkpt lat="44.9647738" lon="8.2260213"><ele>130.0</ele><time>2026-04-20T08:31:28.469Z</time></trkpt><trkpt lat="44.9646038" lon="8.225968"><ele>131.0</ele><time>2026-04-20T08:31:29.472Z</time></trkpt><trkpt lat="44.9644381" lon="8.225916"><ele>132.0</ele><time>2026-04-20T08:31:30.472Z</time></trkpt><trkpt lat="44.9642781" lon="8.2258662"><ele>133.0</ele><time>2026-04-20T08:31:31.475Z</time></trkpt><trkpt lat="44.9641163" lon="8.2258122"><ele>134.0</ele><time>2026-04-20T08:31:32.471Z</time></trkpt><trkpt lat="44.9639527" lon="8.2257593"><ele>135.0</ele><time>2026-04-20T08:31:33.468Z</time></trkpt><trkpt lat="44.9637874" lon="8.2257068"><ele>135.0</ele><time>2026-04-20T08:31:34.467Z</time></trkpt><trkpt lat="44.9636195" lon="8.225654"><ele>135.0</ele><time>2026-04-20T08:31:35.468Z</time></trkpt><trkpt lat="44.9634544" lon="8.2255975"><ele>135.0</ele><time>2026-04-20T08:31:36.469Z</time></trkpt><trkpt lat="44.9633036" lon="8.2255453"><ele>135.0</ele><time>2026-04-20T08:31:37.472Z</time></trkpt><trkpt lat="44.9631535" lon="8.2254924"><ele>135.0</ele><time>2026-04-20T08:31:38.472Z</time></trkpt><trkpt lat="44.9630027" lon="8.2254403"><ele>135.0</ele><time>2026-04-20T08:31:39.47Z</time></trkpt><trkpt lat="44.962847" lon="8.22539"><ele>135.0</ele><time>2026-04-20T08:31:40.471Z</time></trkpt><trkpt lat="44.9626909" lon="8.2253392"><ele>135.0</ele><time>2026-04-20T08:31:41.476Z</time></trkpt><trkpt lat="44.9625324" lon="8.2252876"><ele>135.0</ele><time>2026-04-20T08:31:42.473Z</time></trkpt><trkpt lat="44.9623764" lon="8.2252433"><ele>134.75</ele><time>2026-04-20T08:31:43.474Z</time></trkpt><trkpt lat="44.9622264" lon="8.2252002"><ele>134.5</ele><time>2026-04-20T08:31:44.478Z</time></trkpt><trkpt lat="44.9620856" lon="8.2251607"><ele>134.25</ele><time>2026-04-20T08:31:45.474Z</time></trkpt><trkpt lat="44.9619535" lon="8.2251238"><ele>134.0</ele><time>2026-04-20T08:31:46.47Z</time></trkpt><trkpt lat="44.9618284" lon="8.2250883"><ele>134.0</ele><time>2026-04-20T08:31:47.477Z</time></trkpt><trkpt lat="44.9617079" lon="8.2250519"><ele>134.0</ele><time>2026-04-20T08:31:48.473Z</time></trkpt><trkpt lat="44.9615895" lon="8.2250119"><ele>134.0</ele><time>2026-04-20T08:31:49.471Z</time></trkpt><trkpt lat="44.961476" lon="8.2249722"><ele>134.0</ele><time>2026-04-20T08:31:50.47Z</time></trkpt><trkpt lat="44.9613625" lon="8.2249355"><ele>134.25</ele><time>2026-04-20T08:31:51.471Z</time></trkpt><trkpt lat="44.9612515" lon="8.2249032"><ele>134.5</ele><time>2026-04-20T08:31:52.475Z</time></trkpt><trkpt lat="44.9611431" lon="8.2248701"><ele>134.75</ele><time>2026-04-20T08:31:53.469Z</time></trkpt><trkpt lat="44.9610327" lon="8.224834"><ele>135.0</ele><time>2026-04-20T08:31:54.474Z</time></trkpt><trkpt lat="44.9609214" lon="8.2247973"><ele>135.0</ele><time>2026-04-20T08:31:55.473Z</time></trkpt><trkpt lat="44.9608099" lon="8.2247597"><ele>135.0</ele><time>2026-04-20T08:31:56.474Z</time></trkpt><trkpt lat="44.9606954" lon="8.2247213"><ele>135.0</ele><time>2026-04-20T08:31:57.478Z</time></trkpt><trkpt lat="44.9605777" lon="8.2246792"><ele>135.0</ele><time>2026-04-20T08:31:58.464Z</time></trkpt><trkpt lat="44.9604552" lon="8.2246317"><ele>135.0</ele><time>2026-04-20T08:31:59.476Z</time></trkpt><trkpt lat="44.9603352" lon="8.2245793"><ele>135.0</ele><time>2026-04-20T08:32:00.479Z</time></trkpt><trkpt lat="44.9602225" lon="8.2245291"><ele>135.0</ele><time>2026-04-20T08:32:01.467Z</time></trkpt><trkpt lat="44.9601171" lon="8.2244851"><ele>135.0</ele><time>2026-04-20T08:32:02.479Z</time></trkpt><trkpt lat="44.9600146" lon="8.2244417"><ele>134.6</ele><time>2026-04-20T08:32:03.476Z</time></trkpt><trkpt lat="44.9599148" lon="8.2244026"><ele>134.2</ele><time>2026-04-20T08:32:04.474Z</time></trkpt><trkpt lat="44.959815" lon="8.2243732"><ele>133.8</ele><time>2026-04-20T08:32:05.468Z</time></trkpt><trkpt lat="44.9597145" lon="8.2243426"><ele>133.4</ele><time>2026-04-20T08:32:06.473Z</time></trkpt><trkpt lat="44.9596296" lon="8.2242902"><ele>133.0</ele><time>2026-04-20T08:32:07.472Z</time></trkpt><trkpt lat="44.9595659" lon="8.2242196"><ele>133.0</ele><time>2026-04-20T08:32:08.461Z</time></trkpt><trkpt lat="44.959505" lon="8.2241455"><ele>133.0</ele><time>2026-04-20T08:32:09.455Z</time></trkpt><trkpt lat="44.9594653" lon="8.2240492"><ele>133.0</ele><time>2026-04-20T08:32:10.453Z</time></trkpt><trkpt lat="44.9594337" lon="8.2239236"><ele>133.0</ele><time>2026-04-20T08:32:11.45Z</time></trkpt><trkpt lat="44.9594301" lon="8.2237748"><ele>133.0</ele><time>2026-04-20T08:32:12.451Z</time></trkpt><trkpt lat="44.9594471" lon="8.2236065"><ele>133.8</ele><time>2026-04-20T08:32:13.465Z</time></trkpt><trkpt lat="44.9594911" lon="8.2234593"><ele>134.60000000000002</ele><time>2026-04-20T08:32:14.462Z</time></trkpt><trkpt lat="44.9595607" lon="8.2233388"><ele>135.39999999999998</ele><time>2026-04-20T08:32:15.455Z</time></trkpt><trkpt lat="44.9596541" lon="8.2232685"><ele>136.2</ele><time>2026-04-20T08:32:16.447Z</time></trkpt><trkpt lat="44.9597624" lon="8.2232244"><ele>137.0</ele><time>2026-04-20T08:32:17.448Z</time></trkpt><trkpt lat="44.9598655" lon="8.223215"><ele>137.0</ele><time>2026-04-20T08:32:18.448Z</time></trkpt><trkpt lat="44.9599672" lon="8.2232562"><ele>137.0</ele><time>2026-04-20T08:32:19.46Z</time></trkpt><trkpt lat="44.9600622" lon="8.2233415"><ele>137.0</ele><time>2026-04-20T08:32:20.454Z</time></trkpt><trkpt lat="44.9601297" lon="8.2234687"><ele>137.0</ele><time>2026-04-20T08:32:21.456Z</time></trkpt><trkpt lat="44.960176" lon="8.2236206"><ele>137.0</ele><time>2026-04-20T08:32:22.453Z</time></trkpt><trkpt lat="44.9601826" lon="8.2237942"><ele>136.75</ele><time>2026-04-20T08:32:23.451Z</time></trkpt><trkpt lat="44.960157" lon="8.2239776"><ele>136.5</ele><time>2026-04-20T08:32:24.456Z</time></trkpt><trkpt lat="44.9601147" lon="8.2241432"><ele>136.25</ele><time>2026-04-20T08:32:25.473Z</time></trkpt><trkpt lat="44.9600698" lon="8.2243014"><ele>136.0</ele><time>2026-04-20T08:32:26.469Z</time></trkpt><trkpt lat="44.9600525" lon="8.2244471"><ele>135.25</ele><time>2026-04-20T08:32:27.458Z</time></trkpt><trkpt lat="44.9600307" lon="8.2246104"><ele>134.5</ele><time>2026-04-20T08:32:28.449Z</time></trkpt><trkpt lat="44.9600017" lon="8.2247908"><ele>133.75</ele><time>2026-04-20T08:32:29.464Z</time></trkpt><trkpt lat="44.959964" lon="8.2249819"><ele>133.0</ele><time>2026-04-20T08:32:30.461Z</time></trkpt><trkpt lat="44.9599208" lon="8.2251791"><ele>132.66666666666669</ele><time>2026-04-20T08:32:31.479Z</time></trkpt><trkpt lat="44.9598745" lon="8.2253951"><ele>132.33333333333334</ele><time>2026-04-20T08:32:32.472Z</time></trkpt><trkpt lat="44.9598314" lon="8.2256139"><ele>132.0</ele><time>2026-04-20T08:32:33.472Z</time></trkpt><trkpt lat="44.9597931" lon="8.2258164"><ele>131.75</ele><time>2026-04-20T08:32:34.475Z</time></trkpt><trkpt lat="44.9597558" lon="8.2260169"><ele>131.5</ele><time>2026-04-20T08:32:35.478Z</time></trkpt><trkpt lat="44.959721" lon="8.2262017"><ele>131.25</ele><time>2026-04-20T08:32:36.474Z</time></trkpt><trkpt lat="44.9596894" lon="8.2263721"><ele>131.0</ele><time>2026-04-20T08:32:37.479Z</time></trkpt><trkpt lat="44.9596603" lon="8.2265241"><ele>131.0</ele><time>2026-04-20T08:32:38.474Z</time></trkpt><trkpt lat="44.9596298" lon="8.2266635"><ele>131.0</ele><time>2026-04-20T08:32:39.473Z</time></trkpt><trkpt lat="44.9596039" lon="8.2267946"><ele>131.0</ele><time>2026-04-20T08:32:40.47Z</time></trkpt><trkpt lat="44.9595824" lon="8.2269144"><ele>131.0</ele><time>2026-04-20T08:32:41.47Z</time></trkpt><trkpt lat="44.9595716" lon="8.2270166"><ele>131.0</ele><time>2026-04-20T08:32:42.461Z</time></trkpt><trkpt lat="44.959615" lon="8.2271839"><ele>131.0</ele><time>2026-04-20T08:32:44.457Z</time></trkpt><trkpt lat="44.9597086" lon="8.2272826"><ele>131.0</ele><time>2026-04-20T08:32:46.445Z</time></trkpt><trkpt lat="44.9597765" lon="8.2273026"><ele>131.0</ele><time>2026-04-20T08:32:47.454Z</time></trkpt><trkpt lat="44.9598544" lon="8.227304"><ele>131.0</ele><time>2026-04-20T08:32:48.448Z</time></trkpt><trkpt lat="44.9599381" lon="8.2272855"><ele>131.0</ele><time>2026-04-20T08:32:49.477Z</time></trkpt><trkpt lat="44.960023" lon="8.2272683"><ele>131.0</ele><time>2026-04-20T08:32:50.478Z</time></trkpt><trkpt lat="44.9601089" lon="8.227251"><ele>130.2</ele><time>2026-04-20T08:32:51.45Z</time></trkpt><trkpt lat="44.9601889" lon="8.2272379"><ele>129.39999999999998</ele><time>2026-04-20T08:32:52.46Z</time></trkpt><trkpt lat="44.9602821" lon="8.2272307"><ele>128.6</ele><time>2026-04-20T08:32:53.45Z</time></trkpt><trkpt lat="44.9603815" lon="8.2272171"><ele>127.8</ele><time>2026-04-20T08:32:54.454Z</time></trkpt><trkpt lat="44.96048" lon="8.2271991"><ele>127.0</ele><time>2026-04-20T08:32:55.468Z</time></trkpt><trkpt lat="44.9605824" lon="8.2271792"><ele>127.0</ele><time>2026-04-20T08:32:56.468Z</time></trkpt><trkpt lat="44.9606885" lon="8.2271617"><ele>126.99999999999999</ele><time>2026-04-20T08:32:57.483Z</time></trkpt><trkpt lat="44.9608005" lon="8.2271474"><ele>126.99999999999999</ele><time>2026-04-20T08:32:58.476Z</time></trkpt><trkpt lat="44.960911" lon="8.2271359"><ele>127.0</ele><time>2026-04-20T08:32:59.477Z</time></trkpt><trkpt lat="44.9610154" lon="8.2271183"><ele>127.0</ele><time>2026-04-20T08:33:00.481Z</time></trkpt><trkpt lat="44.9611168" lon="8.2271099"><ele>127.0</ele><time>2026-04-20T08:33:01.486Z</time></trkpt><trkpt lat="44.9612178" lon="8.2271158"><ele>126.99999999999999</ele><time>2026-04-20T08:33:02.465Z</time></trkpt><trkpt lat="44.961312" lon="8.2271467"><ele>126.99999999999999</ele><time>2026-04-20T08:33:03.458Z</time></trkpt><trkpt lat="44.9614006" lon="8.2271978"><ele>127.0</ele><time>2026-04-20T08:33:04.445Z</time></trkpt><trkpt lat="44.9614754" lon="8.227269"><ele>127.0</ele><time>2026-04-20T08:33:05.452Z</time></trkpt><trkpt lat="44.9615411" lon="8.2273603"><ele>127.19999999999999</ele><time>2026-04-20T08:33:06.444Z</time></trkpt><trkpt lat="44.9615947" lon="8.2274673"><ele>127.39999999999999</ele><time>2026-04-20T08:33:07.44Z</time></trkpt><trkpt lat="44.9616252" lon="8.2275861"><ele>127.60000000000001</ele><time>2026-04-20T08:33:08.462Z</time></trkpt><trkpt lat="44.9616418" lon="8.2277104"><ele>127.80000000000001</ele><time>2026-04-20T08:33:09.468Z</time></trkpt><trkpt lat="44.961649" lon="8.2278412"><ele>128.0</ele><time>2026-04-20T08:33:10.457Z</time></trkpt><trkpt lat="44.9616394" lon="8.2279847"><ele>128.0</ele><time>2026-04-20T08:33:11.465Z</time></trkpt><trkpt lat="44.9616053" lon="8.2281073"><ele>128.0</ele><time>2026-04-20T08:33:12.445Z</time></trkpt><trkpt lat="44.9615482" lon="8.2282246"><ele>128.0</ele><time>2026-04-20T08:33:13.441Z</time></trkpt><trkpt lat="44.9614781" lon="8.2283293"><ele>128.0</ele><time>2026-04-20T08:33:14.452Z</time></trkpt><trkpt lat="44.9614064" lon="8.2284092"><ele>128.0</ele><time>2026-04-20T08:33:15.461Z</time></trkpt><trkpt lat="44.9613169" lon="8.2284918"><ele>128.25</ele><time>2026-04-20T08:33:16.446Z</time></trkpt><trkpt lat="44.9612272" lon="8.2285532"><ele>128.5</ele><time>2026-04-20T08:33:17.457Z</time></trkpt><trkpt lat="44.961129" lon="8.2285948"><ele>128.75</ele><time>2026-04-20T08:33:18.449Z</time></trkpt><trkpt lat="44.9610079" lon="8.2286336"><ele>129.0</ele><time>2026-04-20T08:33:19.447Z</time></trkpt><trkpt lat="44.9608493" lon="8.2286615"><ele>129.0</ele><time>2026-04-20T08:33:20.458Z</time></trkpt><trkpt lat="44.9606754" lon="8.2286725"><ele>129.0</ele><time>2026-04-20T08:33:21.46Z</time></trkpt><trkpt lat="44.9604897" lon="8.2286637"><ele>129.0</ele><time>2026-04-20T08:33:22.451Z</time></trkpt><trkpt lat="44.9602684" lon="8.2286361"><ele>129.0</ele><time>2026-04-20T08:33:23.439Z</time></trkpt><trkpt lat="44.9600408" lon="8.2285996"><ele>129.0</ele><time>2026-04-20T08:33:24.452Z</time></trkpt><trkpt lat="44.9597944" lon="8.2285597"><ele>128.5</ele><time>2026-04-20T08:33:25.452Z</time></trkpt><trkpt lat="44.9595536" lon="8.2284956"><ele>128.0</ele><time>2026-04-20T08:33:26.465Z</time></trkpt><trkpt lat="44.9593191" lon="8.2284266"><ele>129.0</ele><time>2026-04-20T08:33:27.466Z</time></trkpt><trkpt lat="44.9590907" lon="8.2283475"><ele>130.0</ele><time>2026-04-20T08:33:28.458Z</time></trkpt><trkpt lat="44.9588621" lon="8.2282578"><ele>130.0</ele><time>2026-04-20T08:33:29.475Z</time></trkpt><trkpt lat="44.9586361" lon="8.2281624"><ele>130.0</ele><time>2026-04-20T08:33:30.472Z</time></trkpt><trkpt lat="44.958416" lon="8.2280591"><ele>131.0</ele><time>2026-04-20T08:33:31.463Z</time></trkpt><trkpt lat="44.9582016" lon="8.2279387"><ele>132.0</ele><time>2026-04-20T08:33:32.475Z</time></trkpt><trkpt lat="44.9579918" lon="8.2278029"><ele>132.0</ele><time>2026-04-20T08:33:33.474Z</time></trkpt><trkpt lat="44.9577821" lon="8.2276565"><ele>132.0</ele><time>2026-04-20T08:33:34.476Z</time></trkpt><trkpt lat="44.9575826" lon="8.2275069"><ele>132.0</ele><time>2026-04-20T08:33:35.471Z</time></trkpt><trkpt lat="44.9573906" lon="8.2273539"><ele>132.0</ele><time>2026-04-20T08:33:36.475Z</time></trkpt><trkpt lat="44.9571977" lon="8.2271988"><ele>132.0</ele><time>2026-04-20T08:33:37.469Z</time></trkpt><trkpt lat="44.9570051" lon="8.2270413"><ele>131.33333333333334</ele><time>2026-04-20T08:33:38.468Z</time></trkpt><trkpt lat="44.9568149" lon="8.2268779"><ele>130.66666666666669</ele><time>2026-04-20T08:33:39.461Z</time></trkpt><trkpt lat="44.956628" lon="8.2267117"><ele>130.0</ele><time>2026-04-20T08:33:40.465Z</time></trkpt><trkpt lat="44.9564382" lon="8.2265459"><ele>130.33333333333334</ele><time>2026-04-20T08:33:41.476Z</time></trkpt><trkpt lat="44.9562483" lon="8.2263845"><ele>130.66666666666666</ele><time>2026-04-20T08:33:42.478Z</time></trkpt><trkpt lat="44.9560566" lon="8.2262198"><ele>131.0</ele><time>2026-04-20T08:33:43.471Z</time></trkpt><trkpt lat="44.9558646" lon="8.2260568"><ele>131.5</ele><time>2026-04-20T08:33:44.475Z</time></trkpt><trkpt lat="44.9556689" lon="8.2258868"><ele>132.0</ele><time>2026-04-20T08:33:45.472Z</time></trkpt><trkpt lat="44.9554685" lon="8.2257128"><ele>130.5</ele><time>2026-04-20T08:33:46.476Z</time></trkpt><trkpt lat="44.9552716" lon="8.2255421"><ele>129.0</ele><time>2026-04-20T08:33:47.478Z</time></trkpt><trkpt lat="44.9550711" lon="8.2253717"><ele>129.0</ele><time>2026-04-20T08:33:48.475Z</time></trkpt><trkpt lat="44.954866" lon="8.225198"><ele>129.0</ele><time>2026-04-20T08:33:49.475Z</time></trkpt><trkpt lat="44.9546601" lon="8.2250256"><ele>129.0</ele><time>2026-04-20T08:33:50.462Z</time></trkpt><trkpt lat="44.9544468" lon="8.2248596"><ele>129.0</ele><time>2026-04-20T08:33:51.47Z</time></trkpt><trkpt lat="44.9542301" lon="8.2247064"><ele>128.5</ele><time>2026-04-20T08:33:52.478Z</time></trkpt><trkpt lat="44.9540104" lon="8.2245688"><ele>128.0</ele><time>2026-04-20T08:33:53.471Z</time></trkpt><trkpt lat="44.9537897" lon="8.2244378"><ele>128.0</ele><time>2026-04-20T08:33:54.474Z</time></trkpt><trkpt lat="44.9535632" lon="8.2243201"><ele>128.0</ele><time>2026-04-20T08:33:55.474Z</time></trkpt><trkpt lat="44.9533301" lon="8.2242198"><ele>128.0</ele><time>2026-04-20T08:33:56.465Z</time></trkpt><trkpt lat="44.9530947" lon="8.2241369"><ele>128.0</ele><time>2026-04-20T08:33:57.479Z</time></trkpt><trkpt lat="44.9528538" lon="8.2240651"><ele>128.0</ele><time>2026-04-20T08:33:58.469Z</time></trkpt><trkpt lat="44.9526056" lon="8.224007"><ele>128.0</ele><time>2026-04-20T08:33:59.473Z</time></trkpt><trkpt lat="44.9523562" lon="8.2239657"><ele>128.0</ele><time>2026-04-20T08:34:00.475Z</time></trkpt><trkpt lat="44.9520968" lon="8.2239375"><ele>128.0</ele><time>2026-04-20T08:34:01.48Z</time></trkpt><trkpt lat="44.9518436" lon="8.2239214"><ele>128.5</ele><time>2026-04-20T08:34:02.469Z</time></trkpt><trkpt lat="44.9515911" lon="8.223916"><ele>129.0</ele><time>2026-04-20T08:34:03.474Z</time></trkpt><trkpt lat="44.9513468" lon="8.2239224"><ele>129.0</ele><time>2026-04-20T08:34:04.473Z</time></trkpt><trkpt lat="44.9510946" lon="8.2239345"><ele>129.0</ele><time>2026-04-20T08:34:05.474Z</time></trkpt><trkpt lat="44.9508456" lon="8.2239489"><ele>129.0</ele><time>2026-04-20T08:34:06.495Z</time></trkpt><trkpt lat="44.9506066" lon="8.2239673"><ele>129.0</ele><time>2026-04-20T08:34:07.479Z</time></trkpt><trkpt lat="44.9503661" lon="8.2239898"><ele>128.5</ele><time>2026-04-20T08:34:08.479Z</time></trkpt><trkpt lat="44.9501273" lon="8.2240129"><ele>128.0</ele><time>2026-04-20T08:34:09.476Z</time></trkpt><trkpt lat="44.9498889" lon="8.2240347"><ele>128.0</ele><time>2026-04-20T08:34:10.478Z</time></trkpt><trkpt lat="44.9496461" lon="8.2240566"><ele>128.0</ele><time>2026-04-20T08:34:11.49Z</time></trkpt><trkpt lat="44.9494052" lon="8.2240805"><ele>128.5</ele><time>2026-04-20T08:34:12.476Z</time></trkpt><trkpt lat="44.9491638" lon="8.224109"><ele>129.0</ele><time>2026-04-20T08:34:13.48Z</time></trkpt><trkpt lat="44.9489207" lon="8.2241375"><ele>129.0</ele><time>2026-04-20T08:34:14.48Z</time></trkpt><trkpt lat="44.9486746" lon="8.2241613"><ele>129.0</ele><time>2026-04-20T08:34:15.476Z</time></trkpt><trkpt lat="44.9484259" lon="8.2241879"><ele>128.0</ele><time>2026-04-20T08:34:16.491Z</time></trkpt><trkpt lat="44.9481839" lon="8.2242186"><ele>127.0</ele><time>2026-04-20T08:34:17.476Z</time></trkpt><trkpt lat="44.9479389" lon="8.2242479"><ele>127.0</ele><time>2026-04-20T08:34:18.485Z</time></trkpt><trkpt lat="44.9476966" lon="8.2242825"><ele>127.0</ele><time>2026-04-20T08:34:19.48Z</time></trkpt><trkpt lat="44.9474534" lon="8.224318"><ele>127.0</ele><time>2026-04-20T08:34:20.477Z</time></trkpt><trkpt lat="44.9472078" lon="8.2243595"><ele>127.0</ele><time>2026-04-20T08:34:21.49Z</time></trkpt><trkpt lat="44.9469596" lon="8.2244127"><ele>126.5</ele><time>2026-04-20T08:34:22.487Z</time></trkpt><trkpt lat="44.9467091" lon="8.2244751"><ele>126.0</ele><time>2026-04-20T08:34:23.478Z</time></trkpt><trkpt lat="44.9464589" lon="8.2245468"><ele>126.0</ele><time>2026-04-20T08:34:24.47Z</time></trkpt><trkpt lat="44.9462117" lon="8.224628"><ele>126.0</ele><time>2026-04-20T08:34:25.476Z</time></trkpt><trkpt lat="44.9459599" lon="8.2247167"><ele>125.5</ele><time>2026-04-20T08:34:26.474Z</time></trkpt><trkpt lat="44.9457151" lon="8.224805"><ele>125.0</ele><time>2026-04-20T08:34:27.492Z</time></trkpt><trkpt lat="44.9454695" lon="8.2248947"><ele>125.0</ele><time>2026-04-20T08:34:28.483Z</time></trkpt><trkpt lat="44.9452236" lon="8.2249832"><ele>125.0</ele><time>2026-04-20T08:34:29.484Z</time></trkpt><trkpt lat="44.9449719" lon="8.2250719"><ele>125.0</ele><time>2026-04-20T08:34:30.476Z</time></trkpt><trkpt lat="44.9447199" lon="8.225161"><ele>125.0</ele><time>2026-04-20T08:34:31.469Z</time></trkpt><trkpt lat="44.9444729" lon="8.2252512"><ele>125.0</ele><time>2026-04-20T08:34:32.479Z</time></trkpt><trkpt lat="44.9442253" lon="8.2253392"><ele>125.0</ele><time>2026-04-20T08:34:33.475Z</time></trkpt><trkpt lat="44.9439829" lon="8.2254134"><ele>126.0</ele><time>2026-04-20T08:34:34.474Z</time></trkpt><trkpt lat="44.9437342" lon="8.2254755"><ele>127.0</ele><time>2026-04-20T08:34:35.476Z</time></trkpt><trkpt lat="44.9434817" lon="8.2255231"><ele>127.5</ele><time>2026-04-20T08:34:36.472Z</time></trkpt><trkpt lat="44.9432274" lon="8.2255566"><ele>128.0</ele><time>2026-04-20T08:34:37.482Z</time></trkpt><trkpt lat="44.9429805" lon="8.2255764"><ele>128.0</ele><time>2026-04-20T08:34:38.475Z</time></trkpt><trkpt lat="44.9427298" lon="8.2255856"><ele>128.0</ele><time>2026-04-20T08:34:39.48Z</time></trkpt><trkpt lat="44.9424815" lon="8.2255832"><ele>127.0</ele><time>2026-04-20T08:34:40.47Z</time></trkpt><trkpt lat="44.9422304" lon="8.2255711"><ele>126.0</ele><time>2026-04-20T08:34:41.482Z</time></trkpt><trkpt lat="44.9419846" lon="8.2255448"><ele>126.0</ele><time>2026-04-20T08:34:42.483Z</time></trkpt><trkpt lat="44.9417397" lon="8.2255075"><ele>126.0</ele><time>2026-04-20T08:34:43.48Z</time></trkpt><trkpt lat="44.9414937" lon="8.2254627"><ele>126.0</ele><time>2026-04-20T08:34:44.489Z</time></trkpt><trkpt lat="44.9412379" lon="8.2254155"><ele>126.0</ele><time>2026-04-20T08:34:45.474Z</time></trkpt><trkpt lat="44.9409955" lon="8.2253752"><ele>126.5</ele><time>2026-04-20T08:34:46.473Z</time></trkpt><trkpt lat="44.9407521" lon="8.2253372"><ele>127.0</ele><time>2026-04-20T08:34:47.494Z</time></trkpt><trkpt lat="44.9405078" lon="8.2253001"><ele>127.0</ele><time>2026-04-20T08:34:48.479Z</time></trkpt><trkpt lat="44.9402652" lon="8.2252616"><ele>127.0</ele><time>2026-04-20T08:34:49.48Z</time></trkpt><trkpt lat="44.9400215" lon="8.2252239"><ele>126.0</ele><time>2026-04-20T08:34:50.476Z</time></trkpt><trkpt lat="44.9397771" lon="8.2251936"><ele>125.0</ele><time>2026-04-20T08:34:51.483Z</time></trkpt><trkpt lat="44.9395333" lon="8.2251717"><ele>125.0</ele><time>2026-04-20T08:34:52.493Z</time></trkpt><trkpt lat="44.9392864" lon="8.2251587"><ele>125.0</ele><time>2026-04-20T08:34:53.481Z</time></trkpt><trkpt lat="44.9390362" lon="8.2251564"><ele>125.5</ele><time>2026-04-20T08:34:54.477Z</time></trkpt><trkpt lat="44.9387859" lon="8.225164"><ele>126.0</ele><time>2026-04-20T08:34:55.471Z</time></trkpt><trkpt lat="44.9385376" lon="8.2251772"><ele>126.0</ele><time>2026-04-20T08:34:56.479Z</time></trkpt><trkpt lat="44.9382933" lon="8.225194"><ele>126.0</ele><time>2026-04-20T08:34:57.496Z</time></trkpt><trkpt lat="44.9380483" lon="8.2252138"><ele>126.0</ele><time>2026-04-20T08:34:58.481Z</time></trkpt><trkpt lat="44.9378044" lon="8.2252359"><ele>126.0</ele><time>2026-04-20T08:34:59.474Z</time></trkpt><trkpt lat="44.9375644" lon="8.2252574"><ele>125.5</ele><time>2026-04-20T08:35:00.476Z</time></trkpt><trkpt lat="44.9373242" lon="8.2252765"><ele>125.0</ele><time>2026-04-20T08:35:01.479Z</time></trkpt><trkpt lat="44.9370807" lon="8.2252947"><ele>125.0</ele><time>2026-04-20T08:35:02.489Z</time></trkpt><trkpt lat="44.9368381" lon="8.2253121"><ele>125.0</ele><time>2026-04-20T08:35:03.479Z</time></trkpt><trkpt lat="44.9365905" lon="8.2253326"><ele>124.5</ele><time>2026-04-20T08:35:04.466Z</time></trkpt><trkpt lat="44.9363396" lon="8.2253568"><ele>124.0</ele><time>2026-04-20T08:35:05.47Z</time></trkpt><trkpt lat="44.9360881" lon="8.2253813"><ele>124.0</ele><time>2026-04-20T08:35:06.476Z</time></trkpt><trkpt lat="44.9358364" lon="8.2254077"><ele>124.0</ele><time>2026-04-20T08:35:07.483Z</time></trkpt><trkpt lat="44.935583" lon="8.2254363"><ele>124.0</ele><time>2026-04-20T08:35:08.468Z</time></trkpt><trkpt lat="44.9353339" lon="8.2254668"><ele>124.0</ele><time>2026-04-20T08:35:09.478Z</time></trkpt><trkpt lat="44.935085" lon="8.225499"><ele>124.0</ele><time>2026-04-20T08:35:10.47Z</time></trkpt><trkpt lat="44.9348303" lon="8.2255297"><ele>124.0</ele><time>2026-04-20T08:35:11.473Z</time></trkpt><trkpt lat="44.9345729" lon="8.2255593"><ele>124.0</ele><time>2026-04-20T08:35:12.485Z</time></trkpt><trkpt lat="44.9343153" lon="8.2255853"><ele>124.0</ele><time>2026-04-20T08:35:13.473Z</time></trkpt><trkpt lat="44.9340581" lon="8.225614"><ele>124.0</ele><time>2026-04-20T08:35:14.481Z</time></trkpt><trkpt lat="44.9338003" lon="8.2256437"><ele>124.0</ele><time>2026-04-20T08:35:15.474Z</time></trkpt><trkpt lat="44.9335446" lon="8.2256749"><ele>123.0</ele><time>2026-04-20T08:35:16.475Z</time></trkpt><trkpt lat="44.933289" lon="8.2257072"><ele>122.0</ele><time>2026-04-20T08:35:17.488Z</time></trkpt><trkpt lat="44.9330365" lon="8.225734"><ele>122.0</ele><time>2026-04-20T08:35:18.476Z</time></trkpt><trkpt lat="44.9327837" lon="8.2257596"><ele>122.0</ele><time>2026-04-20T08:35:19.467Z</time></trkpt><trkpt lat="44.9325307" lon="8.2257834"><ele>122.5</ele><time>2026-04-20T08:35:20.468Z</time></trkpt><trkpt lat="44.9322797" lon="8.2258081"><ele>123.0</ele><time>2026-04-20T08:35:21.469Z</time></trkpt><trkpt lat="44.9320237" lon="8.2258337"><ele>123.0</ele><time>2026-04-20T08:35:22.474Z</time></trkpt><trkpt lat="44.9317719" lon="8.2258532"><ele>123.0</ele><time>2026-04-20T08:35:23.468Z</time></trkpt><trkpt lat="44.9315204" lon="8.2258778"><ele>124.0</ele><time>2026-04-20T08:35:24.473Z</time></trkpt><trkpt lat="44.9312713" lon="8.2259097"><ele>125.0</ele><time>2026-04-20T08:35:25.47Z</time></trkpt><trkpt lat="44.931023" lon="8.2259488"><ele>125.0</ele><time>2026-04-20T08:35:26.462Z</time></trkpt><trkpt lat="44.9307691" lon="8.2259945"><ele>125.0</ele><time>2026-04-20T08:35:27.496Z</time></trkpt><trkpt lat="44.9305157" lon="8.2260445"><ele>125.0</ele><time>2026-04-20T08:35:28.476Z</time></trkpt><trkpt lat="44.9302567" lon="8.2261059"><ele>125.0</ele><time>2026-04-20T08:35:29.473Z</time></trkpt><trkpt lat="44.9299931" lon="8.2261695"><ele>125.0</ele><time>2026-04-20T08:35:30.475Z</time></trkpt><trkpt lat="44.9297341" lon="8.2262383"><ele>125.0</ele><time>2026-04-20T08:35:31.468Z</time></trkpt><trkpt lat="44.9294694" lon="8.2263205"><ele>124.5</ele><time>2026-04-20T08:35:32.488Z</time></trkpt><trkpt lat="44.9292086" lon="8.2264033"><ele>124.0</ele><time>2026-04-20T08:35:33.477Z</time></trkpt><trkpt lat="44.9289513" lon="8.226491"><ele>123.0</ele><time>2026-04-20T08:35:34.463Z</time></trkpt><trkpt lat="44.9287022" lon="8.226577"><ele>122.0</ele><time>2026-04-20T08:35:35.474Z</time></trkpt><trkpt lat="44.9284562" lon="8.2266668"><ele>121.5</ele><time>2026-04-20T08:35:36.475Z</time></trkpt><trkpt lat="44.9282078" lon="8.2267605"><ele>121.0</ele><time>2026-04-20T08:35:37.485Z</time></trkpt><trkpt lat="44.9279637" lon="8.2268593"><ele>121.0</ele><time>2026-04-20T08:35:38.476Z</time></trkpt><trkpt lat="44.9277272" lon="8.2269643"><ele>121.0</ele><time>2026-04-20T08:35:39.476Z</time></trkpt><trkpt lat="44.9275081" lon="8.2270671"><ele>121.5</ele><time>2026-04-20T08:35:40.473Z</time></trkpt><trkpt lat="44.9272937" lon="8.2271724"><ele>122.0</ele><time>2026-04-20T08:35:41.477Z</time></trkpt><trkpt lat="44.9270831" lon="8.2272787"><ele>122.0</ele><time>2026-04-20T08:35:42.495Z</time></trkpt><trkpt lat="44.9268717" lon="8.2273942"><ele>122.0</ele><time>2026-04-20T08:35:43.481Z</time></trkpt><trkpt lat="44.9266577" lon="8.2275169"><ele>122.0</ele><time>2026-04-20T08:35:44.49Z</time></trkpt><trkpt lat="44.9264411" lon="8.2276448"><ele>122.0</ele><time>2026-04-20T08:35:45.484Z</time></trkpt><trkpt lat="44.926223" lon="8.2277801"><ele>122.0</ele><time>2026-04-20T08:35:46.482Z</time></trkpt><trkpt lat="44.9260019" lon="8.2279224"><ele>122.0</ele><time>2026-04-20T08:35:47.499Z</time></trkpt><trkpt lat="44.925778" lon="8.228072"><ele>120.5</ele><time>2026-04-20T08:35:48.484Z</time></trkpt><trkpt lat="44.9255586" lon="8.2282259"><ele>119.0</ele><time>2026-04-20T08:35:49.479Z</time></trkpt><trkpt lat="44.9253355" lon="8.2283859"><ele>119.0</ele><time>2026-04-20T08:35:50.479Z</time></trkpt><trkpt lat="44.9251118" lon="8.2285518"><ele>119.0</ele><time>2026-04-20T08:35:51.487Z</time></trkpt><trkpt lat="44.9248826" lon="8.2287254"><ele>121.0</ele><time>2026-04-20T08:35:52.481Z</time></trkpt><trkpt lat="44.9246545" lon="8.2289019"><ele>123.0</ele><time>2026-04-20T08:35:53.483Z</time></trkpt><trkpt lat="44.9244299" lon="8.22908"><ele>121.5</ele><time>2026-04-20T08:35:54.48Z</time></trkpt><trkpt lat="44.9242095" lon="8.2292638"><ele>120.0</ele><time>2026-04-20T08:35:55.471Z</time></trkpt><trkpt lat="44.9239942" lon="8.229454"><ele>120.0</ele><time>2026-04-20T08:35:56.482Z</time></trkpt><trkpt lat="44.9237825" lon="8.2296487"><ele>120.0</ele><time>2026-04-20T08:35:57.494Z</time></trkpt><trkpt lat="44.9235738" lon="8.2298494"><ele>121.0</ele><time>2026-04-20T08:35:58.477Z</time></trkpt><trkpt lat="44.9233673" lon="8.2300562"><ele>122.0</ele><time>2026-04-20T08:35:59.478Z</time></trkpt><trkpt lat="44.9231613" lon="8.2302662"><ele>122.0</ele><time>2026-04-20T08:36:00.476Z</time></trkpt><trkpt lat="44.9229495" lon="8.2304858"><ele>122.0</ele><time>2026-04-20T08:36:01.477Z</time></trkpt><trkpt lat="44.9227476" lon="8.2307086"><ele>120.5</ele><time>2026-04-20T08:36:02.486Z</time></trkpt><trkpt lat="44.9225493" lon="8.2309343"><ele>119.0</ele><time>2026-04-20T08:36:03.479Z</time></trkpt><trkpt lat="44.9223567" lon="8.2311569"><ele>119.0</ele><time>2026-04-20T08:36:04.478Z</time></trkpt><trkpt lat="44.9221649" lon="8.2313821"><ele>119.0</ele><time>2026-04-20T08:36:05.469Z</time></trkpt><trkpt lat="44.9219761" lon="8.2316122"><ele>119.0</ele><time>2026-04-20T08:36:06.47Z</time></trkpt><trkpt lat="44.9217907" lon="8.2318454"><ele>119.0</ele><time>2026-04-20T08:36:07.491Z</time></trkpt><trkpt lat="44.9216056" lon="8.2320873"><ele>118.5</ele><time>2026-04-20T08:36:08.468Z</time></trkpt><trkpt lat="44.9214256" lon="8.2323281"><ele>118.0</ele><time>2026-04-20T08:36:09.474Z</time></trkpt><trkpt lat="44.9212447" lon="8.2325755"><ele>118.0</ele><time>2026-04-20T08:36:10.476Z</time></trkpt><trkpt lat="44.9210681" lon="8.2328258"><ele>118.0</ele><time>2026-04-20T08:36:11.48Z</time></trkpt><trkpt lat="44.920889" lon="8.2330815"><ele>118.5</ele><time>2026-04-20T08:36:12.491Z</time></trkpt><trkpt lat="44.9207124" lon="8.2333394"><ele>119.0</ele><time>2026-04-20T08:36:13.471Z</time></trkpt><trkpt lat="44.9205347" lon="8.233602"><ele>119.0</ele><time>2026-04-20T08:36:14.479Z</time></trkpt><trkpt lat="44.9203605" lon="8.2338678"><ele>119.0</ele><time>2026-04-20T08:36:15.481Z</time></trkpt><trkpt lat="44.9201879" lon="8.2341384"><ele>118.5</ele><time>2026-04-20T08:36:16.481Z</time></trkpt><trkpt lat="44.9200165" lon="8.2344096"><ele>118.0</ele><time>2026-04-20T08:36:17.503Z</time></trkpt><trkpt lat="44.9198449" lon="8.2346712"><ele>118.5</ele><time>2026-04-20T08:36:18.484Z</time></trkpt><trkpt lat="44.9196673" lon="8.2349316"><ele>119.0</ele><time>2026-04-20T08:36:19.491Z</time></trkpt><trkpt lat="44.9194922" lon="8.2351862"><ele>119.0</ele><time>2026-04-20T08:36:20.483Z</time></trkpt><trkpt lat="44.9193154" lon="8.2354415"><ele>119.0</ele><time>2026-04-20T08:36:21.478Z</time></trkpt><trkpt lat="44.9191341" lon="8.2356937"><ele>120.0</ele><time>2026-04-20T08:36:22.49Z</time></trkpt><trkpt lat="44.9189493" lon="8.2359489"><ele>121.0</ele><time>2026-04-20T08:36:23.495Z</time></trkpt><trkpt lat="44.9187669" lon="8.236196"><ele>121.0</ele><time>2026-04-20T08:36:24.485Z</time></trkpt><trkpt lat="44.9185781" lon="8.236449"><ele>121.0</ele><time>2026-04-20T08:36:25.484Z</time></trkpt><trkpt lat="44.9183877" lon="8.2367063"><ele>120.5</ele><time>2026-04-20T08:36:26.483Z</time></trkpt><trkpt lat="44.9182001" lon="8.2369702"><ele>120.0</ele><time>2026-04-20T08:36:27.488Z</time></trkpt><trkpt lat="44.9180155" lon="8.2372377"><ele>120.0</ele><time>2026-04-20T08:36:28.492Z</time></trkpt><trkpt lat="44.9178281" lon="8.2375102"><ele>120.0</ele><time>2026-04-20T08:36:29.485Z</time></trkpt><trkpt lat="44.9176469" lon="8.2377757"><ele>120.0</ele><time>2026-04-20T08:36:30.487Z</time></trkpt><trkpt lat="44.9174636" lon="8.2380401"><ele>120.0</ele><time>2026-04-20T08:36:31.484Z</time></trkpt><trkpt lat="44.917288" lon="8.2383018"><ele>121.0</ele><time>2026-04-20T08:36:32.477Z</time></trkpt><trkpt lat="44.9171134" lon="8.2385615"><ele>122.0</ele><time>2026-04-20T08:36:33.486Z</time></trkpt><trkpt lat="44.9169422" lon="8.2388178"><ele>121.5</ele><time>2026-04-20T08:36:34.475Z</time></trkpt><trkpt lat="44.91677" lon="8.2390746"><ele>121.0</ele><time>2026-04-20T08:36:35.483Z</time></trkpt><trkpt lat="44.9165928" lon="8.2393246"><ele>121.0</ele><time>2026-04-20T08:36:36.473Z</time></trkpt><trkpt lat="44.9164132" lon="8.2395676"><ele>121.0</ele><time>2026-04-20T08:36:37.474Z</time></trkpt><trkpt lat="44.9162344" lon="8.2398059"><ele>120.5</ele><time>2026-04-20T08:36:38.482Z</time></trkpt><trkpt lat="44.9160605" lon="8.2400412"><ele>120.0</ele><time>2026-04-20T08:36:39.474Z</time></trkpt><trkpt lat="44.9158869" lon="8.2402786"><ele>120.0</ele><time>2026-04-20T08:36:40.467Z</time></trkpt><trkpt lat="44.9157132" lon="8.2405156"><ele>120.0</ele><time>2026-04-20T08:36:41.469Z</time></trkpt><trkpt lat="44.9155358" lon="8.2407541"><ele>122.0</ele><time>2026-04-20T08:36:42.465Z</time></trkpt><trkpt lat="44.915359" lon="8.240988"><ele>124.0</ele><time>2026-04-20T08:36:43.47Z</time></trkpt><trkpt lat="44.9151803" lon="8.2412153"><ele>122.0</ele><time>2026-04-20T08:36:44.462Z</time></trkpt><trkpt lat="44.9150005" lon="8.2414393"><ele>120.0</ele><time>2026-04-20T08:36:45.464Z</time></trkpt><trkpt lat="44.9148216" lon="8.2416521"><ele>128.5</ele><time>2026-04-20T08:36:46.454Z</time></trkpt><trkpt lat="44.914631" lon="8.2418436"><ele>137.0</ele><time>2026-04-20T08:36:47.442Z</time></trkpt><trkpt lat="44.914436" lon="8.2420117"><ele>138.5</ele><time>2026-04-20T08:36:48.439Z</time></trkpt><trkpt lat="44.9142336" lon="8.2421695"><ele>140.0</ele><time>2026-04-20T08:36:49.406Z</time></trkpt><trkpt lat="44.9140253" lon="8.2423124"><ele>144.5</ele><time>2026-04-20T08:36:50.395Z</time></trkpt><trkpt lat="44.91381" lon="8.2424357"><ele>149.0</ele><time>2026-04-20T08:36:51.382Z</time></trkpt><trkpt lat="44.9135881" lon="8.2425411"><ele>147.5</ele><time>2026-04-20T08:36:52.359Z</time></trkpt><trkpt lat="44.913362" lon="8.242627"><ele>146.0</ele><time>2026-04-20T08:36:53.331Z</time></trkpt><trkpt lat="44.9131326" lon="8.2427021"><ele>146.0</ele><time>2026-04-20T08:36:54.339Z</time></trkpt><trkpt lat="44.9129041" lon="8.2427729"><ele>146.0</ele><time>2026-04-20T08:36:55.337Z</time></trkpt><trkpt lat="44.9126782" lon="8.2428444"><ele>142.66666666666666</ele><time>2026-04-20T08:36:56.388Z</time></trkpt><trkpt lat="44.9124541" lon="8.242915"><ele>139.33333333333334</ele><time>2026-04-20T08:36:57.398Z</time></trkpt><trkpt lat="44.9122431" lon="8.2429919"><ele>136.0</ele><time>2026-04-20T08:36:58.415Z</time></trkpt><trkpt lat="44.9120386" lon="8.2430624"><ele>130.5</ele><time>2026-04-20T08:36:59.441Z</time></trkpt><trkpt lat="44.9116326" lon="8.2432666"><ele>125.0</ele><time>2026-04-20T08:37:00.448Z</time></trkpt><trkpt lat="44.9114143" lon="8.2434859"><ele>125.0</ele><time>2026-04-20T08:37:01.468Z</time></trkpt><trkpt lat="44.9111869" lon="8.2436187"><ele>125.0</ele><time>2026-04-20T08:37:02.455Z</time></trkpt><trkpt lat="44.9109559" lon="8.2437254"><ele>123.0</ele><time>2026-04-20T08:37:03.47Z</time></trkpt><trkpt lat="44.9107288" lon="8.2438257"><ele>121.0</ele><time>2026-04-20T08:37:04.478Z</time></trkpt><trkpt lat="44.9104989" lon="8.2439196"><ele>121.5</ele><time>2026-04-20T08:37:05.46Z</time></trkpt><trkpt lat="44.9102692" lon="8.2440103"><ele>122.0</ele><time>2026-04-20T08:37:06.477Z</time></trkpt><trkpt lat="44.9100379" lon="8.2440991"><ele>122.0</ele><time>2026-04-20T08:37:07.463Z</time></trkpt><trkpt lat="44.9098066" lon="8.2441906"><ele>122.0</ele><time>2026-04-20T08:37:08.474Z</time></trkpt><trkpt lat="44.9095758" lon="8.2442799"><ele>122.0</ele><time>2026-04-20T08:37:09.49Z</time></trkpt><trkpt lat="44.9093486" lon="8.2443705"><ele>122.0</ele><time>2026-04-20T08:37:10.47Z</time></trkpt><trkpt lat="44.9091204" lon="8.2444629"><ele>120.0</ele><time>2026-04-20T08:37:11.471Z</time></trkpt><trkpt lat="44.9088918" lon="8.2445558"><ele>118.0</ele><time>2026-04-20T08:37:12.476Z</time></trkpt><trkpt lat="44.9086645" lon="8.2446459"><ele>118.0</ele><time>2026-04-20T08:37:13.468Z</time></trkpt><trkpt lat="44.9084376" lon="8.2447387"><ele>118.0</ele><time>2026-04-20T08:37:14.482Z</time></trkpt><trkpt lat="44.9082094" lon="8.2448322"><ele>119.0</ele><time>2026-04-20T08:37:15.471Z</time></trkpt><trkpt lat="44.9079801" lon="8.2449248"><ele>120.0</ele><time>2026-04-20T08:37:16.48Z</time></trkpt><trkpt lat="44.907751" lon="8.2450155"><ele>120.5</ele><time>2026-04-20T08:37:17.485Z</time></trkpt><trkpt lat="44.9075213" lon="8.2451056"><ele>121.0</ele><time>2026-04-20T08:37:18.472Z</time></trkpt><trkpt lat="44.9072908" lon="8.2451953"><ele>121.0</ele><time>2026-04-20T08:37:19.485Z</time></trkpt><trkpt lat="44.9070633" lon="8.2452756"><ele>121.0</ele><time>2026-04-20T08:37:20.479Z</time></trkpt><trkpt lat="44.9068329" lon="8.2453526"><ele>118.0</ele><time>2026-04-20T08:37:21.485Z</time></trkpt><trkpt lat="44.9066003" lon="8.2454254"><ele>115.0</ele><time>2026-04-20T08:37:22.483Z</time></trkpt><trkpt lat="44.9063657" lon="8.2454903"><ele>115.0</ele><time>2026-04-20T08:37:23.474Z</time></trkpt><trkpt lat="44.9061314" lon="8.2455476"><ele>115.0</ele><time>2026-04-20T08:37:24.49Z</time></trkpt><trkpt lat="44.9058938" lon="8.2456025"><ele>115.5</ele><time>2026-04-20T08:37:25.484Z</time></trkpt><trkpt lat="44.9056555" lon="8.2456511"><ele>116.0</ele><time>2026-04-20T08:37:26.491Z</time></trkpt><trkpt lat="44.905415" lon="8.2456941"><ele>116.0</ele><time>2026-04-20T08:37:27.493Z</time></trkpt><trkpt lat="44.9051726" lon="8.2457333"><ele>116.0</ele><time>2026-04-20T08:37:28.489Z</time></trkpt><trkpt lat="44.9049308" lon="8.2457643"><ele>119.0</ele><time>2026-04-20T08:37:29.495Z</time></trkpt><trkpt lat="44.9046837" lon="8.2457948"><ele>122.0</ele><time>2026-04-20T08:37:30.49Z</time></trkpt><trkpt lat="44.9044369" lon="8.2458336"><ele>119.5</ele><time>2026-04-20T08:37:31.488Z</time></trkpt><trkpt lat="44.9041863" lon="8.2458837"><ele>117.0</ele><time>2026-04-20T08:37:32.49Z</time></trkpt><trkpt lat="44.903932" lon="8.2459293"><ele>117.0</ele><time>2026-04-20T08:37:33.493Z</time></trkpt><trkpt lat="44.9036763" lon="8.245966"><ele>117.0</ele><time>2026-04-20T08:37:34.501Z</time></trkpt><trkpt lat="44.9034207" lon="8.2459965"><ele>114.5</ele><time>2026-04-20T08:37:35.487Z</time></trkpt><trkpt lat="44.9031613" lon="8.2460194"><ele>112.0</ele><time>2026-04-20T08:37:36.492Z</time></trkpt><trkpt lat="44.9029074" lon="8.2460422"><ele>112.0</ele><time>2026-04-20T08:37:37.492Z</time></trkpt><trkpt lat="44.9026555" lon="8.246066"><ele>112.0</ele><time>2026-04-20T08:37:38.495Z</time></trkpt><trkpt lat="44.9024035" lon="8.2460927"><ele>113.0</ele><time>2026-04-20T08:37:39.51Z</time></trkpt><trkpt lat="44.9021553" lon="8.2461229"><ele>114.0</ele><time>2026-04-20T08:37:40.495Z</time></trkpt><trkpt lat="44.9019053" lon="8.246164"><ele>114.5</ele><time>2026-04-20T08:37:41.488Z</time></trkpt><trkpt lat="44.9016566" lon="8.246208"><ele>115.0</ele><time>2026-04-20T08:37:42.494Z</time></trkpt><trkpt lat="44.9014048" lon="8.2462467"><ele>115.0</ele><time>2026-04-20T08:37:43.497Z</time></trkpt><trkpt lat="44.9011514" lon="8.2462785"><ele>115.0</ele><time>2026-04-20T08:37:44.497Z</time></trkpt><trkpt lat="44.9008988" lon="8.2463072"><ele>113.5</ele><time>2026-04-20T08:37:45.499Z</time></trkpt><trkpt lat="44.9006438" lon="8.246328"><ele>112.0</ele><time>2026-04-20T08:37:46.487Z</time></trkpt><trkpt lat="44.9003884" lon="8.246343"><ele>112.0</ele><time>2026-04-20T08:37:47.486Z</time></trkpt><trkpt lat="44.9001361" lon="8.2463481"><ele>112.0</ele><time>2026-04-20T08:37:48.478Z</time></trkpt><trkpt lat="44.8998773" lon="8.2463552"><ele>110.5</ele><time>2026-04-20T08:37:49.473Z</time></trkpt><trkpt lat="44.8996302" lon="8.2463673"><ele>109.0</ele><time>2026-04-20T08:37:50.481Z</time></trkpt><trkpt lat="44.8993805" lon="8.2463752"><ele>109.5</ele><time>2026-04-20T08:37:51.494Z</time></trkpt><trkpt lat="44.8991289" lon="8.2463796"><ele>110.0</ele><time>2026-04-20T08:37:52.478Z</time></trkpt><trkpt lat="44.898875" lon="8.2463783"><ele>110.0</ele><time>2026-04-20T08:37:53.477Z</time></trkpt><trkpt lat="44.8986203" lon="8.2463742"><ele>110.0</ele><time>2026-04-20T08:37:54.48Z</time></trkpt><trkpt lat="44.8983651" lon="8.246365"><ele>109.5</ele><time>2026-04-20T08:37:55.48Z</time></trkpt><trkpt lat="44.8981091" lon="8.2463466"><ele>109.0</ele><time>2026-04-20T08:37:56.492Z</time></trkpt><trkpt lat="44.8978585" lon="8.2463209"><ele>109.0</ele><time>2026-04-20T08:37:57.496Z</time></trkpt><trkpt lat="44.8976111" lon="8.2462899"><ele>109.0</ele><time>2026-04-20T08:37:58.474Z</time></trkpt><trkpt lat="44.8973651" lon="8.2462584"><ele>109.5</ele><time>2026-04-20T08:37:59.479Z</time></trkpt><trkpt lat="44.8971194" lon="8.2462206"><ele>110.0</ele><time>2026-04-20T08:38:00.476Z</time></trkpt><trkpt lat="44.8968781" lon="8.2461872"><ele>110.5</ele><time>2026-04-20T08:38:01.481Z</time></trkpt><trkpt lat="44.8966334" lon="8.246155"><ele>111.0</ele><time>2026-04-20T08:38:02.483Z</time></trkpt><trkpt lat="44.8963892" lon="8.2461166"><ele>111.0</ele><time>2026-04-20T08:38:03.487Z</time></trkpt><trkpt lat="44.896145" lon="8.2460699"><ele>111.0</ele><time>2026-04-20T08:38:04.488Z</time></trkpt><trkpt lat="44.8959017" lon="8.2460106"><ele>110.5</ele><time>2026-04-20T08:38:05.484Z</time></trkpt><trkpt lat="44.8956562" lon="8.2459415"><ele>110.0</ele><time>2026-04-20T08:38:06.501Z</time></trkpt><trkpt lat="44.8954141" lon="8.2458619"><ele>110.0</ele><time>2026-04-20T08:38:07.5Z</time></trkpt><trkpt lat="44.895172" lon="8.2457722"><ele>110.0</ele><time>2026-04-20T08:38:08.492Z</time></trkpt><trkpt lat="44.8949328" lon="8.2456714"><ele>110.0</ele><time>2026-04-20T08:38:09.493Z</time></trkpt><trkpt lat="44.8946962" lon="8.2455599"><ele>110.0</ele><time>2026-04-20T08:38:10.491Z</time></trkpt><trkpt lat="44.894459" lon="8.2454444"><ele>111.5</ele><time>2026-04-20T08:38:11.503Z</time></trkpt><trkpt lat="44.8942198" lon="8.2453258"><ele>113.0</ele><time>2026-04-20T08:38:12.498Z</time></trkpt><trkpt lat="44.8939802" lon="8.2451971"><ele>113.0</ele><time>2026-04-20T08:38:13.495Z</time></trkpt><trkpt lat="44.8937469" lon="8.2450594"><ele>113.0</ele><time>2026-04-20T08:38:14.498Z</time></trkpt><trkpt lat="44.8935192" lon="8.2449138"><ele>111.5</ele><time>2026-04-20T08:38:15.499Z</time></trkpt><trkpt lat="44.8932956" lon="8.2447547"><ele>110.0</ele><time>2026-04-20T08:38:16.497Z</time></trkpt><trkpt lat="44.8930758" lon="8.2445888"><ele>110.0</ele><time>2026-04-20T08:38:17.491Z</time></trkpt><trkpt lat="44.8928595" lon="8.2444142"><ele>110.0</ele><time>2026-04-20T08:38:18.496Z</time></trkpt><trkpt lat="44.8926452" lon="8.2442425"><ele>109.5</ele><time>2026-04-20T08:38:19.49Z</time></trkpt><trkpt lat="44.8924252" lon="8.2440705"><ele>109.0</ele><time>2026-04-20T08:38:20.483Z</time></trkpt><trkpt lat="44.8922092" lon="8.2439077"><ele>107.5</ele><time>2026-04-20T08:38:21.5Z</time></trkpt><trkpt lat="44.8919937" lon="8.2437452"><ele>106.0</ele><time>2026-04-20T08:38:22.495Z</time></trkpt><trkpt lat="44.8917804" lon="8.2435804"><ele>104.5</ele><time>2026-04-20T08:38:23.488Z</time></trkpt><trkpt lat="44.8915616" lon="8.2434116"><ele>103.0</ele><time>2026-04-20T08:38:24.5Z</time></trkpt><trkpt lat="44.8913446" lon="8.2432471"><ele>102.5</ele><time>2026-04-20T08:38:25.496Z</time></trkpt><trkpt lat="44.8911259" lon="8.2430828"><ele>102.0</ele><time>2026-04-20T08:38:26.512Z</time></trkpt><trkpt lat="44.8909077" lon="8.2429181"><ele>103.0</ele><time>2026-04-20T08:38:27.506Z</time></trkpt><trkpt lat="44.8906836" lon="8.2427497"><ele>104.0</ele><time>2026-04-20T08:38:28.49Z</time></trkpt><trkpt lat="44.8904643" lon="8.2425828"><ele>104.0</ele><time>2026-04-20T08:38:29.492Z</time></trkpt><trkpt lat="44.8902434" lon="8.2424139"><ele>104.0</ele><time>2026-04-20T08:38:30.491Z</time></trkpt><trkpt lat="44.8900238" lon="8.2422476"><ele>108.0</ele><time>2026-04-20T08:38:31.504Z</time></trkpt><trkpt lat="44.8898031" lon="8.2420803"><ele>112.0</ele><time>2026-04-20T08:38:32.496Z</time></trkpt><trkpt lat="44.8895812" lon="8.2419141"><ele>112.0</ele><time>2026-04-20T08:38:33.493Z</time></trkpt><trkpt lat="44.8893582" lon="8.2417479"><ele>112.0</ele><time>2026-04-20T08:38:34.488Z</time></trkpt><trkpt lat="44.8891334" lon="8.2415793"><ele>111.5</ele><time>2026-04-20T08:38:35.5Z</time></trkpt><trkpt lat="44.8889071" lon="8.2414084"><ele>111.0</ele><time>2026-04-20T08:38:36.509Z</time></trkpt><trkpt lat="44.8886855" lon="8.2412377"><ele>111.0</ele><time>2026-04-20T08:38:37.499Z</time></trkpt><trkpt lat="44.888462" lon="8.2410651"><ele>111.0</ele><time>2026-04-20T08:38:38.508Z</time></trkpt><trkpt lat="44.8882367" lon="8.2408964"><ele>111.0</ele><time>2026-04-20T08:38:39.499Z</time></trkpt><trkpt lat="44.8880108" lon="8.2407267"><ele>111.0</ele><time>2026-04-20T08:38:40.493Z</time></trkpt><trkpt lat="44.8877835" lon="8.2405549"><ele>110.5</ele><time>2026-04-20T08:38:41.503Z</time></trkpt><trkpt lat="44.8875553" lon="8.2403806"><ele>110.0</ele><time>2026-04-20T08:38:42.5Z</time></trkpt><trkpt lat="44.8873268" lon="8.2402027"><ele>110.0</ele><time>2026-04-20T08:38:43.496Z</time></trkpt><trkpt lat="44.8871026" lon="8.2400202"><ele>110.0</ele><time>2026-04-20T08:38:44.503Z</time></trkpt><trkpt lat="44.8868847" lon="8.2398295"><ele>110.5</ele><time>2026-04-20T08:38:45.487Z</time></trkpt><trkpt lat="44.8866704" lon="8.2396299"><ele>111.0</ele><time>2026-04-20T08:38:46.488Z</time></trkpt><trkpt lat="44.8864597" lon="8.2394252"><ele>111.0</ele><time>2026-04-20T08:38:47.509Z</time></trkpt><trkpt lat="44.886249" lon="8.2392248"><ele>111.0</ele><time>2026-04-20T08:38:48.502Z</time></trkpt><trkpt lat="44.8860407" lon="8.2390145"><ele>111.5</ele><time>2026-04-20T08:38:49.499Z</time></trkpt><trkpt lat="44.8858356" lon="8.2387902"><ele>112.0</ele><time>2026-04-20T08:38:50.48Z</time></trkpt><trkpt lat="44.8856353" lon="8.2385584"><ele>112.0</ele><time>2026-04-20T08:38:51.501Z</time></trkpt><trkpt lat="44.8854386" lon="8.2383192"><ele>112.0</ele><time>2026-04-20T08:38:52.511Z</time></trkpt><trkpt lat="44.8852474" lon="8.2380768"><ele>113.0</ele><time>2026-04-20T08:38:53.487Z</time></trkpt><trkpt lat="44.8850614" lon="8.2378289"><ele>114.0</ele><time>2026-04-20T08:38:54.485Z</time></trkpt><trkpt lat="44.8848843" lon="8.2375708"><ele>112.5</ele><time>2026-04-20T08:38:55.486Z</time></trkpt><trkpt lat="44.8847107" lon="8.2372998"><ele>111.0</ele><time>2026-04-20T08:38:56.488Z</time></trkpt><trkpt lat="44.8845433" lon="8.237021"><ele>111.0</ele><time>2026-04-20T08:38:57.509Z</time></trkpt><trkpt lat="44.8843829" lon="8.2367365"><ele>111.0</ele><time>2026-04-20T08:38:58.491Z</time></trkpt><trkpt lat="44.8842269" lon="8.2364525"><ele>111.0</ele><time>2026-04-20T08:38:59.492Z</time></trkpt><trkpt lat="44.884073" lon="8.2361653"><ele>111.0</ele><time>2026-04-20T08:39:00.498Z</time></trkpt><trkpt lat="44.8839235" lon="8.2358723"><ele>112.0</ele><time>2026-04-20T08:39:01.502Z</time></trkpt><trkpt lat="44.8837817" lon="8.23558"><ele>113.0</ele><time>2026-04-20T08:39:02.512Z</time></trkpt><trkpt lat="44.8836458" lon="8.2352888"><ele>113.0</ele><time>2026-04-20T08:39:03.496Z</time></trkpt><trkpt lat="44.8835139" lon="8.2349926"><ele>113.0</ele><time>2026-04-20T08:39:04.494Z</time></trkpt><trkpt lat="44.8833881" lon="8.2346939"><ele>113.0</ele><time>2026-04-20T08:39:05.493Z</time></trkpt><trkpt lat="44.8832652" lon="8.234388"><ele>113.0</ele><time>2026-04-20T08:39:06.496Z</time></trkpt><trkpt lat="44.883141" lon="8.2340782"><ele>112.5</ele><time>2026-04-20T08:39:07.508Z</time></trkpt><trkpt lat="44.8830123" lon="8.2337777"><ele>112.0</ele><time>2026-04-20T08:39:08.491Z</time></trkpt><trkpt lat="44.8828783" lon="8.2334763"><ele>112.0</ele><time>2026-04-20T08:39:09.496Z</time></trkpt><trkpt lat="44.882744" lon="8.2331668"><ele>112.0</ele><time>2026-04-20T08:39:10.493Z</time></trkpt><trkpt lat="44.8826128" lon="8.2328562"><ele>112.5</ele><time>2026-04-20T08:39:11.499Z</time></trkpt><trkpt lat="44.8824837" lon="8.232537"><ele>113.0</ele><time>2026-04-20T08:39:12.503Z</time></trkpt><trkpt lat="44.882357" lon="8.2322174"><ele>113.5</ele><time>2026-04-20T08:39:13.493Z</time></trkpt><trkpt lat="44.8822302" lon="8.2318988"><ele>114.0</ele><time>2026-04-20T08:39:14.498Z</time></trkpt><trkpt lat="44.8821012" lon="8.2315705"><ele>114.5</ele><time>2026-04-20T08:39:15.493Z</time></trkpt><trkpt lat="44.8819711" lon="8.2312475"><ele>115.0</ele><time>2026-04-20T08:39:16.498Z</time></trkpt><trkpt lat="44.8818409" lon="8.2309285"><ele>117.5</ele><time>2026-04-20T08:39:17.511Z</time></trkpt><trkpt lat="44.8817158" lon="8.2306069"><ele>120.0</ele><time>2026-04-20T08:39:18.497Z</time></trkpt><trkpt lat="44.8815981" lon="8.2302872"><ele>120.0</ele><time>2026-04-20T08:39:19.501Z</time></trkpt><trkpt lat="44.8814775" lon="8.2299656"><ele>120.0</ele><time>2026-04-20T08:39:20.493Z</time></trkpt><trkpt lat="44.8813514" lon="8.2296467"><ele>119.0</ele><time>2026-04-20T08:39:21.49Z</time></trkpt><trkpt lat="44.8812237" lon="8.229335"><ele>118.0</ele><time>2026-04-20T08:39:22.509Z</time></trkpt><trkpt lat="44.881092" lon="8.2290176"><ele>117.5</ele><time>2026-04-20T08:39:23.487Z</time></trkpt><trkpt lat="44.880965" lon="8.2287001"><ele>117.0</ele><time>2026-04-20T08:39:24.494Z</time></trkpt><trkpt lat="44.8808397" lon="8.2283892"><ele>118.5</ele><time>2026-04-20T08:39:25.49Z</time></trkpt><trkpt lat="44.8807152" lon="8.2280825"><ele>120.0</ele><time>2026-04-20T08:39:26.492Z</time></trkpt><trkpt lat="44.880589" lon="8.2277718"><ele>120.0</ele><time>2026-04-20T08:39:27.505Z</time></trkpt><trkpt lat="44.8804589" lon="8.2274625"><ele>120.0</ele><time>2026-04-20T08:39:28.49Z</time></trkpt><trkpt lat="44.8803269" lon="8.2271484"><ele>119.5</ele><time>2026-04-20T08:39:29.5Z</time></trkpt><trkpt lat="44.8802022" lon="8.2268477"><ele>119.0</ele><time>2026-04-20T08:39:30.493Z</time></trkpt><trkpt lat="44.8800848" lon="8.2265632"><ele>119.66666666666666</ele><time>2026-04-20T08:39:31.492Z</time></trkpt><trkpt lat="44.8799759" lon="8.2263026"><ele>120.33333333333334</ele><time>2026-04-20T08:39:32.496Z</time></trkpt><trkpt lat="44.8798738" lon="8.2260615"><ele>121.0</ele><time>2026-04-20T08:39:33.491Z</time></trkpt><trkpt lat="44.8797732" lon="8.2258268"><ele>120.66666666666667</ele><time>2026-04-20T08:39:34.499Z</time></trkpt><trkpt lat="44.8796738" lon="8.2255933"><ele>120.33333333333334</ele><time>2026-04-20T08:39:35.493Z</time></trkpt><trkpt lat="44.879572" lon="8.2253517"><ele>120.0</ele><time>2026-04-20T08:39:36.495Z</time></trkpt><trkpt lat="44.8794718" lon="8.2251076"><ele>120.0</ele><time>2026-04-20T08:39:37.506Z</time></trkpt><trkpt lat="44.8793694" lon="8.2248608"><ele>120.0</ele><time>2026-04-20T08:39:38.496Z</time></trkpt><trkpt lat="44.8792658" lon="8.2246082"><ele>120.0</ele><time>2026-04-20T08:39:39.49Z</time></trkpt><trkpt lat="44.8791592" lon="8.2243472"><ele>119.66666666666666</ele><time>2026-04-20T08:39:40.492Z</time></trkpt><trkpt lat="44.8790548" lon="8.2240858"><ele>119.33333333333333</ele><time>2026-04-20T08:39:41.489Z</time></trkpt><trkpt lat="44.8789538" lon="8.2238324"><ele>119.0</ele><time>2026-04-20T08:39:42.502Z</time></trkpt><trkpt lat="44.878852" lon="8.2235848"><ele>119.33333333333333</ele><time>2026-04-20T08:39:43.49Z</time></trkpt><trkpt lat="44.8787529" lon="8.2233389"><ele>119.66666666666666</ele><time>2026-04-20T08:39:44.493Z</time></trkpt><trkpt lat="44.8786511" lon="8.2230835"><ele>120.0</ele><time>2026-04-20T08:39:45.485Z</time></trkpt><trkpt lat="44.8785501" lon="8.2228326"><ele>120.0</ele><time>2026-04-20T08:39:46.49Z</time></trkpt><trkpt lat="44.8784531" lon="8.2225845"><ele>120.0</ele><time>2026-04-20T08:39:47.509Z</time></trkpt><trkpt lat="44.878362" lon="8.2223305"><ele>120.0</ele><time>2026-04-20T08:39:48.488Z</time></trkpt><trkpt lat="44.8782758" lon="8.2220711"><ele>119.0</ele><time>2026-04-20T08:39:49.49Z</time></trkpt><trkpt lat="44.8781901" lon="8.2218283"><ele>118.0</ele><time>2026-04-20T08:39:50.49Z</time></trkpt><trkpt lat="44.878097" lon="8.2215901"><ele>117.0</ele><time>2026-04-20T08:39:51.487Z</time></trkpt><trkpt lat="44.8779997" lon="8.2213534"><ele>117.0</ele><time>2026-04-20T08:39:52.503Z</time></trkpt><trkpt lat="44.8779006" lon="8.2211144"><ele>117.0</ele><time>2026-04-20T08:39:53.482Z</time></trkpt><trkpt lat="44.8777995" lon="8.2208702"><ele>117.0</ele><time>2026-04-20T08:39:54.485Z</time></trkpt><trkpt lat="44.8777034" lon="8.2206316"><ele>117.33333333333334</ele><time>2026-04-20T08:39:55.487Z</time></trkpt><trkpt lat="44.8776061" lon="8.2203949"><ele>117.66666666666667</ele><time>2026-04-20T08:39:56.492Z</time></trkpt><trkpt lat="44.877508" lon="8.2201549"><ele>118.0</ele><time>2026-04-20T08:39:57.507Z</time></trkpt><trkpt lat="44.8774093" lon="8.2199081"><ele>118.0</ele><time>2026-04-20T08:39:58.49Z</time></trkpt><trkpt lat="44.8773115" lon="8.2196593"><ele>118.0</ele><time>2026-04-20T08:39:59.497Z</time></trkpt><trkpt lat="44.8772138" lon="8.2194046"><ele>118.0</ele><time>2026-04-20T08:40:00.486Z</time></trkpt><trkpt lat="44.8771145" lon="8.219154"><ele>117.66666666666667</ele><time>2026-04-20T08:40:01.492Z</time></trkpt><trkpt lat="44.8770147" lon="8.2189096"><ele>117.33333333333334</ele><time>2026-04-20T08:40:02.495Z</time></trkpt><trkpt lat="44.8769171" lon="8.2186767"><ele>117.0</ele><time>2026-04-20T08:40:03.486Z</time></trkpt><trkpt lat="44.8768126" lon="8.2184229"><ele>117.33333333333334</ele><time>2026-04-20T08:40:04.493Z</time></trkpt><trkpt lat="44.8767116" lon="8.2181726"><ele>117.66666666666667</ele><time>2026-04-20T08:40:05.493Z</time></trkpt><trkpt lat="44.8766095" lon="8.2179195"><ele>118.0</ele><time>2026-04-20T08:40:06.489Z</time></trkpt><trkpt lat="44.8765058" lon="8.2176628"><ele>117.33333333333334</ele><time>2026-04-20T08:40:07.497Z</time></trkpt><trkpt lat="44.8764038" lon="8.2174053"><ele>116.66666666666666</ele><time>2026-04-20T08:40:08.505Z</time></trkpt><trkpt lat="44.8763024" lon="8.2171481"><ele>116.0</ele><time>2026-04-20T08:40:09.482Z</time></trkpt><trkpt lat="44.8761978" lon="8.216891"><ele>116.0</ele><time>2026-04-20T08:40:10.489Z</time></trkpt><trkpt lat="44.876092" lon="8.2166313"><ele>116.0</ele><time>2026-04-20T08:40:11.481Z</time></trkpt><trkpt lat="44.8759857" lon="8.2163764"><ele>116.0</ele><time>2026-04-20T08:40:12.489Z</time></trkpt><trkpt lat="44.8758793" lon="8.216121"><ele>116.66666666666666</ele><time>2026-04-20T08:40:13.493Z</time></trkpt><trkpt lat="44.8757706" lon="8.2158607"><ele>117.33333333333334</ele><time>2026-04-20T08:40:14.486Z</time></trkpt><trkpt lat="44.8756594" lon="8.215596"><ele>118.0</ele><time>2026-04-20T08:40:15.476Z</time></trkpt><trkpt lat="44.8755481" lon="8.2153289"><ele>118.33333333333334</ele><time>2026-04-20T08:40:16.486Z</time></trkpt><trkpt lat="44.8754354" lon="8.2150585"><ele>118.66666666666666</ele><time>2026-04-20T08:40:17.484Z</time></trkpt><trkpt lat="44.8753222" lon="8.2147881"><ele>119.0</ele><time>2026-04-20T08:40:18.5Z</time></trkpt><trkpt lat="44.8752086" lon="8.2145154"><ele>117.5</ele><time>2026-04-20T08:40:19.482Z</time></trkpt><trkpt lat="44.8750988" lon="8.2142369"><ele>116.0</ele><time>2026-04-20T08:40:20.486Z</time></trkpt><trkpt lat="44.8749895" lon="8.2139602"><ele>116.0</ele><time>2026-04-20T08:40:21.482Z</time></trkpt><trkpt lat="44.8748856" lon="8.2137034"><ele>116.0</ele><time>2026-04-20T08:40:22.492Z</time></trkpt><trkpt lat="44.874782" lon="8.2134563"><ele>116.0</ele><time>2026-04-20T08:40:23.501Z</time></trkpt><trkpt lat="44.874675" lon="8.2132002"><ele>115.5</ele><time>2026-04-20T08:40:24.483Z</time></trkpt><trkpt lat="44.8745628" lon="8.2129344"><ele>115.0</ele><time>2026-04-20T08:40:25.48Z</time></trkpt><trkpt lat="44.8744389" lon="8.2126585"><ele>115.0</ele><time>2026-04-20T08:40:26.482Z</time></trkpt><trkpt lat="44.8743087" lon="8.2123739"><ele>115.0</ele><time>2026-04-20T08:40:27.493Z</time></trkpt><trkpt lat="44.8741739" lon="8.2120804"><ele>115.0</ele><time>2026-04-20T08:40:28.498Z</time></trkpt><trkpt lat="44.8740331" lon="8.2117819"><ele>115.0</ele><time>2026-04-20T08:40:29.491Z</time></trkpt><trkpt lat="44.8738937" lon="8.2114856"><ele>114.5</ele><time>2026-04-20T08:40:30.486Z</time></trkpt><trkpt lat="44.8737563" lon="8.2111947"><ele>114.0</ele><time>2026-04-20T08:40:31.489Z</time></trkpt><trkpt lat="44.8736226" lon="8.2109115"><ele>114.5</ele><time>2026-04-20T08:40:32.484Z</time></trkpt><trkpt lat="44.8734845" lon="8.2106325"><ele>115.0</ele><time>2026-04-20T08:40:33.483Z</time></trkpt><trkpt lat="44.8733391" lon="8.2103657"><ele>117.0</ele><time>2026-04-20T08:40:34.497Z</time></trkpt><trkpt lat="44.8731869" lon="8.2101059"><ele>119.0</ele><time>2026-04-20T08:40:35.486Z</time></trkpt><trkpt lat="44.8730328" lon="8.209851"><ele>117.5</ele><time>2026-04-20T08:40:36.477Z</time></trkpt><trkpt lat="44.8728695" lon="8.2096044"><ele>116.0</ele><time>2026-04-20T08:40:37.479Z</time></trkpt><trkpt lat="44.8726989" lon="8.2093678"><ele>116.0</ele><time>2026-04-20T08:40:38.486Z</time></trkpt><trkpt lat="44.8725214" lon="8.2091348"><ele>116.0</ele><time>2026-04-20T08:40:39.497Z</time></trkpt><trkpt lat="44.8723383" lon="8.2089079"><ele>116.0</ele><time>2026-04-20T08:40:40.481Z</time></trkpt><trkpt lat="44.8721529" lon="8.2086867"><ele>116.0</ele><time>2026-04-20T08:40:41.478Z</time></trkpt><trkpt lat="44.8719647" lon="8.2084755"><ele>116.0</ele><time>2026-04-20T08:40:42.479Z</time></trkpt><trkpt lat="44.8717722" lon="8.2082764"><ele>116.0</ele><time>2026-04-20T08:40:43.476Z</time></trkpt><trkpt lat="44.8715784" lon="8.2080859"><ele>116.0</ele><time>2026-04-20T08:40:44.496Z</time></trkpt><trkpt lat="44.8713761" lon="8.2078969"><ele>116.0</ele><time>2026-04-20T08:40:45.473Z</time></trkpt><trkpt lat="44.8711691" lon="8.2077166"><ele>116.0</ele><time>2026-04-20T08:40:46.475Z</time></trkpt><trkpt lat="44.8709568" lon="8.2075477"><ele>116.0</ele><time>2026-04-20T08:40:47.476Z</time></trkpt><trkpt lat="44.8707393" lon="8.2073863"><ele>115.0</ele><time>2026-04-20T08:40:48.467Z</time></trkpt><trkpt lat="44.8705111" lon="8.2072348"><ele>114.0</ele><time>2026-04-20T08:40:49.468Z</time></trkpt><trkpt lat="44.87027" lon="8.2070956"><ele>115.0</ele><time>2026-04-20T08:40:50.48Z</time></trkpt><trkpt lat="44.8700219" lon="8.2069634"><ele>116.0</ele><time>2026-04-20T08:40:51.481Z</time></trkpt><trkpt lat="44.8697696" lon="8.2068317"><ele>116.0</ele><time>2026-04-20T08:40:52.476Z</time></trkpt><trkpt lat="44.8695125" lon="8.2067077"><ele>116.0</ele><time>2026-04-20T08:40:53.473Z</time></trkpt><trkpt lat="44.8692523" lon="8.2065923"><ele>116.0</ele><time>2026-04-20T08:40:54.475Z</time></trkpt><trkpt lat="44.8689932" lon="8.2064838"><ele>116.0</ele><time>2026-04-20T08:40:55.477Z</time></trkpt><trkpt lat="44.868734" lon="8.2063824"><ele>116.0</ele><time>2026-04-20T08:40:56.487Z</time></trkpt><trkpt lat="44.8684717" lon="8.2062876"><ele>116.0</ele><time>2026-04-20T08:40:57.479Z</time></trkpt><trkpt lat="44.8682122" lon="8.2061985"><ele>116.5</ele><time>2026-04-20T08:40:58.477Z</time></trkpt><trkpt lat="44.8679554" lon="8.206114"><ele>117.0</ele><time>2026-04-20T08:40:59.482Z</time></trkpt><trkpt lat="44.8677031" lon="8.2060429"><ele>117.0</ele><time>2026-04-20T08:41:00.483Z</time></trkpt><trkpt lat="44.8674549" lon="8.2059819"><ele>117.0</ele><time>2026-04-20T08:41:01.486Z</time></trkpt><trkpt lat="44.867204" lon="8.2059228"><ele>117.0</ele><time>2026-04-20T08:41:02.48Z</time></trkpt><trkpt lat="44.866954" lon="8.2058697"><ele>117.0</ele><time>2026-04-20T08:41:03.483Z</time></trkpt><trkpt lat="44.866702" lon="8.2058162"><ele>117.0</ele><time>2026-04-20T08:41:04.483Z</time></trkpt><trkpt lat="44.8664521" lon="8.2057722"><ele>117.0</ele><time>2026-04-20T08:41:05.476Z</time></trkpt><trkpt lat="44.8661994" lon="8.2057323"><ele>117.0</ele><time>2026-04-20T08:41:06.484Z</time></trkpt><trkpt lat="44.8659452" lon="8.2056931"><ele>117.0</ele><time>2026-04-20T08:41:07.484Z</time></trkpt><trkpt lat="44.86569" lon="8.2056556"><ele>116.0</ele><time>2026-04-20T08:41:08.488Z</time></trkpt><trkpt lat="44.8654355" lon="8.2056153"><ele>115.0</ele><time>2026-04-20T08:41:09.484Z</time></trkpt><trkpt lat="44.8651831" lon="8.2055709"><ele>116.0</ele><time>2026-04-20T08:41:10.488Z</time></trkpt><trkpt lat="44.8649293" lon="8.2055212"><ele>117.0</ele><time>2026-04-20T08:41:11.486Z</time></trkpt><trkpt lat="44.8646744" lon="8.2054712"><ele>117.0</ele><time>2026-04-20T08:41:12.491Z</time></trkpt><trkpt lat="44.8644207" lon="8.205417"><ele>117.0</ele><time>2026-04-20T08:41:13.487Z</time></trkpt><trkpt lat="44.8641702" lon="8.2053602"><ele>117.0</ele><time>2026-04-20T08:41:14.492Z</time></trkpt><trkpt lat="44.8639232" lon="8.2052981"><ele>117.0</ele><time>2026-04-20T08:41:15.477Z</time></trkpt><trkpt lat="44.8636752" lon="8.2052204"><ele>117.5</ele><time>2026-04-20T08:41:16.474Z</time></trkpt><trkpt lat="44.8634286" lon="8.2051289"><ele>118.0</ele><time>2026-04-20T08:41:17.481Z</time></trkpt><trkpt lat="44.8631842" lon="8.2050224"><ele>118.0</ele><time>2026-04-20T08:41:18.482Z</time></trkpt><trkpt lat="44.8629424" lon="8.2049013"><ele>118.0</ele><time>2026-04-20T08:41:19.484Z</time></trkpt><trkpt lat="44.8627084" lon="8.2047654"><ele>118.0</ele><time>2026-04-20T08:41:20.48Z</time></trkpt><trkpt lat="44.8624831" lon="8.2046114"><ele>118.0</ele><time>2026-04-20T08:41:21.486Z</time></trkpt><trkpt lat="44.8622664" lon="8.2044447"><ele>118.0</ele><time>2026-04-20T08:41:22.482Z</time></trkpt><trkpt lat="44.8620565" lon="8.2042695"><ele>118.0</ele><time>2026-04-20T08:41:23.481Z</time></trkpt><trkpt lat="44.8618509" lon="8.204091"><ele>118.5</ele><time>2026-04-20T08:41:24.485Z</time></trkpt><trkpt lat="44.8616394" lon="8.2039037"><ele>119.0</ele><time>2026-04-20T08:41:25.481Z</time></trkpt><trkpt lat="44.8614425" lon="8.2037285"><ele>119.0</ele><time>2026-04-20T08:41:26.482Z</time></trkpt><trkpt lat="44.8612393" lon="8.2035503"><ele>119.0</ele><time>2026-04-20T08:41:27.483Z</time></trkpt><trkpt lat="44.861036" lon="8.2033717"><ele>118.5</ele><time>2026-04-20T08:41:28.484Z</time></trkpt><trkpt lat="44.8608343" lon="8.2031938"><ele>118.0</ele><time>2026-04-20T08:41:29.493Z</time></trkpt><trkpt lat="44.8606412" lon="8.2030185"><ele>117.0</ele><time>2026-04-20T08:41:30.484Z</time></trkpt><trkpt lat="44.8604501" lon="8.202841"><ele>116.0</ele><time>2026-04-20T08:41:31.482Z</time></trkpt><trkpt lat="44.8602563" lon="8.2026623"><ele>116.0</ele><time>2026-04-20T08:41:32.482Z</time></trkpt><trkpt lat="44.8600569" lon="8.2024831"><ele>116.0</ele><time>2026-04-20T08:41:33.481Z</time></trkpt><trkpt lat="44.8598521" lon="8.2023068"><ele>116.0</ele><time>2026-04-20T08:41:34.476Z</time></trkpt><trkpt lat="44.8596446" lon="8.2021297"><ele>116.0</ele><time>2026-04-20T08:41:35.486Z</time></trkpt><trkpt lat="44.8594357" lon="8.2019504"><ele>115.5</ele><time>2026-04-20T08:41:36.483Z</time></trkpt><trkpt lat="44.8592207" lon="8.2017667"><ele>115.0</ele><time>2026-04-20T08:41:37.475Z</time></trkpt><trkpt lat="44.8590019" lon="8.2015843"><ele>115.5</ele><time>2026-04-20T08:41:38.482Z</time></trkpt><trkpt lat="44.8587814" lon="8.201406"><ele>116.0</ele><time>2026-04-20T08:41:39.478Z</time></trkpt><trkpt lat="44.85856" lon="8.2012268"><ele>116.0</ele><time>2026-04-20T08:41:40.481Z</time></trkpt><trkpt lat="44.8583365" lon="8.201044"><ele>116.0</ele><time>2026-04-20T08:41:41.48Z</time></trkpt><trkpt lat="44.8581117" lon="8.2008607"><ele>116.0</ele><time>2026-04-20T08:41:42.476Z</time></trkpt><trkpt lat="44.8578886" lon="8.2006769"><ele>116.0</ele><time>2026-04-20T08:41:43.481Z</time></trkpt><trkpt lat="44.8576645" lon="8.200494"><ele>116.0</ele><time>2026-04-20T08:41:44.484Z</time></trkpt><trkpt lat="44.8574414" lon="8.2003116"><ele>116.0</ele><time>2026-04-20T08:41:45.479Z</time></trkpt><trkpt lat="44.8572164" lon="8.2001296"><ele>116.0</ele><time>2026-04-20T08:41:46.478Z</time></trkpt><trkpt lat="44.856992" lon="8.199948"><ele>116.0</ele><time>2026-04-20T08:41:47.487Z</time></trkpt><trkpt lat="44.8567687" lon="8.1997669"><ele>116.5</ele><time>2026-04-20T08:41:48.478Z</time></trkpt><trkpt lat="44.856543" lon="8.1995839"><ele>117.0</ele><time>2026-04-20T08:41:49.484Z</time></trkpt><trkpt lat="44.8563145" lon="8.1994006"><ele>117.0</ele><time>2026-04-20T08:41:50.479Z</time></trkpt><trkpt lat="44.8560891" lon="8.1992187"><ele>117.0</ele><time>2026-04-20T08:41:51.472Z</time></trkpt><trkpt lat="44.8558651" lon="8.1990334"><ele>117.5</ele><time>2026-04-20T08:41:52.479Z</time></trkpt><trkpt lat="44.8556439" lon="8.1988513"><ele>118.0</ele><time>2026-04-20T08:41:53.478Z</time></trkpt><trkpt lat="44.8554223" lon="8.1986696"><ele>118.0</ele><time>2026-04-20T08:41:54.472Z</time></trkpt><trkpt lat="44.8552017" lon="8.1984894"><ele>118.0</ele><time>2026-04-20T08:41:55.477Z</time></trkpt><trkpt lat="44.8549776" lon="8.1983084"><ele>117.5</ele><time>2026-04-20T08:41:56.47Z</time></trkpt><trkpt lat="44.8547549" lon="8.1981281"><ele>117.0</ele><time>2026-04-20T08:41:57.478Z</time></trkpt><trkpt lat="44.8545351" lon="8.1979493"><ele>117.0</ele><time>2026-04-20T08:41:58.474Z</time></trkpt><trkpt lat="44.8543156" lon="8.1977716"><ele>117.0</ele><time>2026-04-20T08:41:59.476Z</time></trkpt><trkpt lat="44.8540929" lon="8.1975901"><ele>117.0</ele><time>2026-04-20T08:42:00.476Z</time></trkpt><trkpt lat="44.8538736" lon="8.1974134"><ele>117.0</ele><time>2026-04-20T08:42:01.478Z</time></trkpt><trkpt lat="44.8536528" lon="8.1972356"><ele>117.5</ele><time>2026-04-20T08:42:02.477Z</time></trkpt><trkpt lat="44.853434" lon="8.1970586"><ele>118.0</ele><time>2026-04-20T08:42:03.479Z</time></trkpt><trkpt lat="44.8532149" lon="8.1968797"><ele>118.0</ele><time>2026-04-20T08:42:04.479Z</time></trkpt><trkpt lat="44.8529976" lon="8.1966994"><ele>118.0</ele><time>2026-04-20T08:42:05.481Z</time></trkpt><trkpt lat="44.8527805" lon="8.1965204"><ele>117.5</ele><time>2026-04-20T08:42:06.478Z</time></trkpt><trkpt lat="44.8525676" lon="8.1963434"><ele>117.0</ele><time>2026-04-20T08:42:07.483Z</time></trkpt><trkpt lat="44.8523548" lon="8.1961664"><ele>117.0</ele><time>2026-04-20T08:42:08.483Z</time></trkpt><trkpt lat="44.8521395" lon="8.1959859"><ele>117.0</ele><time>2026-04-20T08:42:09.483Z</time></trkpt><trkpt lat="44.8519234" lon="8.1958072"><ele>117.0</ele><time>2026-04-20T08:42:10.484Z</time></trkpt><trkpt lat="44.8517026" lon="8.1956292"><ele>117.0</ele><time>2026-04-20T08:42:11.484Z</time></trkpt><trkpt lat="44.8514823" lon="8.1954487"><ele>117.0</ele><time>2026-04-20T08:42:12.481Z</time></trkpt><trkpt lat="44.8512637" lon="8.1952671"><ele>117.0</ele><time>2026-04-20T08:42:13.482Z</time></trkpt><trkpt lat="44.8510421" lon="8.1950864"><ele>118.0</ele><time>2026-04-20T08:42:14.484Z</time></trkpt><trkpt lat="44.8508193" lon="8.1949065"><ele>119.0</ele><time>2026-04-20T08:42:15.48Z</time></trkpt><trkpt lat="44.8505991" lon="8.1947233"><ele>119.0</ele><time>2026-04-20T08:42:16.483Z</time></trkpt><trkpt lat="44.8503824" lon="8.1945425"><ele>119.0</ele><time>2026-04-20T08:42:17.484Z</time></trkpt><trkpt lat="44.8501618" lon="8.1943576"><ele>119.5</ele><time>2026-04-20T08:42:18.482Z</time></trkpt><trkpt lat="44.8499438" lon="8.194173"><ele>120.0</ele><time>2026-04-20T08:42:19.479Z</time></trkpt><trkpt lat="44.84973" lon="8.1939906"><ele>120.0</ele><time>2026-04-20T08:42:20.488Z</time></trkpt><trkpt lat="44.8495161" lon="8.1938059"><ele>120.0</ele><time>2026-04-20T08:42:21.484Z</time></trkpt><trkpt lat="44.849306" lon="8.1936216"><ele>120.5</ele><time>2026-04-20T08:42:22.491Z</time></trkpt><trkpt lat="44.849095" lon="8.1934399"><ele>121.0</ele><time>2026-04-20T08:42:23.483Z</time></trkpt><trkpt lat="44.8488846" lon="8.1932599"><ele>120.5</ele><time>2026-04-20T08:42:24.472Z</time></trkpt><trkpt lat="44.8486817" lon="8.1930901"><ele>120.0</ele><time>2026-04-20T08:42:25.489Z</time></trkpt><trkpt lat="44.8484921" lon="8.1929281"><ele>120.33333333333334</ele><time>2026-04-20T08:42:26.48Z</time></trkpt><trkpt lat="44.848308" lon="8.1927729"><ele>120.66666666666667</ele><time>2026-04-20T08:42:27.487Z</time></trkpt><trkpt lat="44.8481338" lon="8.1926258"><ele>121.0</ele><time>2026-04-20T08:42:28.481Z</time></trkpt><trkpt lat="44.8479605" lon="8.1924805"><ele>121.0</ele><time>2026-04-20T08:42:29.484Z</time></trkpt><trkpt lat="44.8477949" lon="8.1923301"><ele>121.0</ele><time>2026-04-20T08:42:30.485Z</time></trkpt><trkpt lat="44.8476407" lon="8.192167"><ele>121.0</ele><time>2026-04-20T08:42:31.475Z</time></trkpt><trkpt lat="44.8474966" lon="8.1919802"><ele>121.0</ele><time>2026-04-20T08:42:32.48Z</time></trkpt><trkpt lat="44.8473616" lon="8.1917872"><ele>121.0</ele><time>2026-04-20T08:42:33.48Z</time></trkpt><trkpt lat="44.8472345" lon="8.1916078"><ele>121.0</ele><time>2026-04-20T08:42:34.461Z</time></trkpt><trkpt lat="44.8471122" lon="8.1914337"><ele>120.5</ele><time>2026-04-20T08:42:35.464Z</time></trkpt><trkpt lat="44.8469211" lon="8.1910748"><ele>120.0</ele><time>2026-04-20T08:42:37.345Z</time></trkpt><trkpt lat="44.8468537" lon="8.1908315"><ele>119.66666666666666</ele><time>2026-04-20T08:42:38.367Z</time></trkpt><trkpt lat="44.8467764" lon="8.1905972"><ele>119.33333333333333</ele><time>2026-04-20T08:42:39.384Z</time></trkpt><trkpt lat="44.8467096" lon="8.1903629"><ele>119.0</ele><time>2026-04-20T08:42:40.379Z</time></trkpt><trkpt lat="44.8466511" lon="8.1901229"><ele>119.0</ele><time>2026-04-20T08:42:41.386Z</time></trkpt><trkpt lat="44.8465496" lon="8.1898773"><ele>119.0</ele><time>2026-04-20T08:42:42.377Z</time></trkpt><trkpt lat="44.8464052" lon="8.1896796"><ele>119.0</ele><time>2026-04-20T08:42:43.376Z</time></trkpt><trkpt lat="44.8462574" lon="8.1894961"><ele>119.66666666666666</ele><time>2026-04-20T08:42:44.381Z</time></trkpt><trkpt lat="44.846084" lon="8.1893422"><ele>120.33333333333334</ele><time>2026-04-20T08:42:45.375Z</time></trkpt><trkpt lat="44.8459046" lon="8.1892308"><ele>121.0</ele><time>2026-04-20T08:42:46.362Z</time></trkpt><trkpt lat="44.8457212" lon="8.1891142"><ele>121.0</ele><time>2026-04-20T08:42:47.373Z</time></trkpt><trkpt lat="44.8455038" lon="8.1890553"><ele>121.0</ele><time>2026-04-20T08:42:48.367Z</time></trkpt><trkpt lat="44.8452961" lon="8.1890259"><ele>121.0</ele><time>2026-04-20T08:42:49.357Z</time></trkpt><trkpt lat="44.8450852" lon="8.1890405"><ele>120.0</ele><time>2026-04-20T08:42:50.357Z</time></trkpt><trkpt lat="44.8448737" lon="8.1890771"><ele>119.0</ele><time>2026-04-20T08:42:51.369Z</time></trkpt><trkpt lat="44.8446705" lon="8.1891549"><ele>118.0</ele><time>2026-04-20T08:42:52.359Z</time></trkpt><trkpt lat="44.844479" lon="8.1892611"><ele>118.66666666666667</ele><time>2026-04-20T08:42:53.369Z</time></trkpt><trkpt lat="44.8442797" lon="8.1893982"><ele>119.33333333333334</ele><time>2026-04-20T08:42:54.378Z</time></trkpt><trkpt lat="44.8441016" lon="8.1895723"><ele>120.0</ele><time>2026-04-20T08:42:55.369Z</time></trkpt><trkpt lat="44.8439384" lon="8.1897688"><ele>121.0</ele><time>2026-04-20T08:42:56.369Z</time></trkpt><trkpt lat="44.8437954" lon="8.1900003"><ele>122.0</ele><time>2026-04-20T08:42:57.366Z</time></trkpt><trkpt lat="44.8436665" lon="8.1902712"><ele>123.0</ele><time>2026-04-20T08:42:58.367Z</time></trkpt><trkpt lat="44.843553" lon="8.1905521"><ele>122.5</ele><time>2026-04-20T08:42:59.376Z</time></trkpt><trkpt lat="44.8434367" lon="8.1908204"><ele>122.0</ele><time>2026-04-20T08:43:00.375Z</time></trkpt><trkpt lat="44.843309" lon="8.1910845"><ele>122.0</ele><time>2026-04-20T08:43:01.376Z</time></trkpt><trkpt lat="44.8431881" lon="8.1913461"><ele>122.0</ele><time>2026-04-20T08:43:02.363Z</time></trkpt><trkpt lat="44.8430448" lon="8.191598"><ele>121.5</ele><time>2026-04-20T08:43:03.373Z</time></trkpt><trkpt lat="44.8428803" lon="8.1918264"><ele>121.0</ele><time>2026-04-20T08:43:04.368Z</time></trkpt><trkpt lat="44.8426949" lon="8.1920564"><ele>121.0</ele><time>2026-04-20T08:43:05.382Z</time></trkpt><trkpt lat="44.8425258" lon="8.1922719"><ele>121.0</ele><time>2026-04-20T08:43:06.375Z</time></trkpt><trkpt lat="44.8423498" lon="8.1924692"><ele>122.33333333333334</ele><time>2026-04-20T08:43:07.38Z</time></trkpt><trkpt lat="44.8421652" lon="8.192657"><ele>123.66666666666666</ele><time>2026-04-20T08:43:08.375Z</time></trkpt><trkpt lat="44.8419849" lon="8.192819"><ele>125.0</ele><time>2026-04-20T08:43:09.382Z</time></trkpt><trkpt lat="44.8418288" lon="8.1929635"><ele>125.33333333333333</ele><time>2026-04-20T08:43:10.388Z</time></trkpt><trkpt lat="44.8416829" lon="8.1930963"><ele>125.66666666666666</ele><time>2026-04-20T08:43:11.387Z</time></trkpt><trkpt lat="44.8415189" lon="8.1932271"><ele>126.0</ele><time>2026-04-20T08:43:12.388Z</time></trkpt><trkpt lat="44.8413541" lon="8.1933693"><ele>129.66666666666666</ele><time>2026-04-20T08:43:13.379Z</time></trkpt><trkpt lat="44.8412198" lon="8.1934957"><ele>133.33333333333331</ele><time>2026-04-20T08:43:14.37Z</time></trkpt><trkpt lat="44.8410479" lon="8.1936669"><ele>137.0</ele><time>2026-04-20T08:43:15.35Z</time></trkpt><trkpt lat="44.8408795" lon="8.1937809"><ele>139.33333333333331</ele><time>2026-04-20T08:43:16.331Z</time></trkpt><trkpt lat="44.8407209" lon="8.1939163"><ele>141.66666666666666</ele><time>2026-04-20T08:43:17.323Z</time></trkpt><trkpt lat="44.8405684" lon="8.1940524"><ele>144.0</ele><time>2026-04-20T08:43:18.303Z</time></trkpt><trkpt lat="44.8404185" lon="8.1941831"><ele>173.0</ele><time>2026-04-20T08:43:19.276Z</time></trkpt><trkpt lat="44.8317067" lon="8.2017943"><ele>173.0</ele><time>2026-04-20T08:44:20.342Z</time></trkpt><trkpt lat="44.8315678" lon="8.2019224"><ele>173.0</ele><time>2026-04-20T08:44:21.356Z</time></trkpt><trkpt lat="44.8314419" lon="8.2020633"><ele>173.0</ele><time>2026-04-20T08:44:22.373Z</time></trkpt><trkpt lat="44.8313036" lon="8.2021814"><ele>173.0</ele><time>2026-04-20T08:44:23.368Z</time></trkpt><trkpt lat="44.8311764" lon="8.2023251"><ele>173.0</ele><time>2026-04-20T08:44:24.371Z</time></trkpt><trkpt lat="44.8310334" lon="8.2024537"><ele>173.0</ele><time>2026-04-20T08:44:25.375Z</time></trkpt><trkpt lat="44.8309036" lon="8.2025781"><ele>170.33333333333331</ele><time>2026-04-20T08:44:26.371Z</time></trkpt><trkpt lat="44.8307661" lon="8.2027014"><ele>167.66666666666666</ele><time>2026-04-20T08:44:27.383Z</time></trkpt><trkpt lat="44.8306293" lon="8.2028163"><ele>165.0</ele><time>2026-04-20T08:44:28.371Z</time></trkpt><trkpt lat="44.8304952" lon="8.2029488"><ele>165.0</ele><time>2026-04-20T08:44:29.374Z</time></trkpt><trkpt lat="44.8303655" lon="8.2031041"><ele>165.0</ele><time>2026-04-20T08:44:30.372Z</time></trkpt><trkpt lat="44.83023" lon="8.2032584"><ele>165.0</ele><time>2026-04-20T08:44:31.371Z</time></trkpt><trkpt lat="44.8300977" lon="8.2034141"><ele>164.25</ele><time>2026-04-20T08:44:32.373Z</time></trkpt><trkpt lat="44.8299748" lon="8.2035637"><ele>163.5</ele><time>2026-04-20T08:44:33.37Z</time></trkpt><trkpt lat="44.8298591" lon="8.203686"><ele>162.75</ele><time>2026-04-20T08:44:34.376Z</time></trkpt><trkpt lat="44.8297625" lon="8.2038236"><ele>162.0</ele><time>2026-04-20T08:44:35.365Z</time></trkpt><trkpt lat="44.8296367" lon="8.2039647"><ele>162.0</ele><time>2026-04-20T08:44:36.372Z</time></trkpt><trkpt lat="44.8295019" lon="8.2041266"><ele>162.0</ele><time>2026-04-20T08:44:37.361Z</time></trkpt><trkpt lat="44.8293757" lon="8.204301"><ele>162.0</ele><time>2026-04-20T08:44:38.37Z</time></trkpt><trkpt lat="44.829262" lon="8.2044586"><ele>161.33333333333334</ele><time>2026-04-20T08:44:39.371Z</time></trkpt><trkpt lat="44.8291371" lon="8.2046257"><ele>160.66666666666669</ele><time>2026-04-20T08:44:40.37Z</time></trkpt><trkpt lat="44.8290173" lon="8.2047854"><ele>160.0</ele><time>2026-04-20T08:44:41.37Z</time></trkpt><trkpt lat="44.8289027" lon="8.2049538"><ele>160.0</ele><time>2026-04-20T08:44:42.376Z</time></trkpt><trkpt lat="44.8287864" lon="8.2051364"><ele>160.0</ele><time>2026-04-20T08:44:43.368Z</time></trkpt><trkpt lat="44.8286855" lon="8.2053082"><ele>160.0</ele><time>2026-04-20T08:44:44.394Z</time></trkpt><trkpt lat="44.8285753" lon="8.2054847"><ele>160.33333333333334</ele><time>2026-04-20T08:44:45.381Z</time></trkpt><trkpt lat="44.8284669" lon="8.2056784"><ele>160.66666666666666</ele><time>2026-04-20T08:44:46.39Z</time></trkpt><trkpt lat="44.8283727" lon="8.205861"><ele>161.0</ele><time>2026-04-20T08:44:47.391Z</time></trkpt><trkpt lat="44.8282745" lon="8.2060369"><ele>161.0</ele><time>2026-04-20T08:44:48.38Z</time></trkpt><trkpt lat="44.8281899" lon="8.206218"><ele>161.0</ele><time>2026-04-20T08:44:49.39Z</time></trkpt><trkpt lat="44.8280998" lon="8.2063827"><ele>161.0</ele><time>2026-04-20T08:44:50.39Z</time></trkpt><trkpt lat="44.8280067" lon="8.2065511"><ele>160.0</ele><time>2026-04-20T08:44:51.393Z</time></trkpt><trkpt lat="44.8279082" lon="8.2067546"><ele>159.0</ele><time>2026-04-20T08:44:52.4Z</time></trkpt><trkpt lat="44.8278332" lon="8.2069477"><ele>158.0</ele><time>2026-04-20T08:44:53.485Z</time></trkpt><trkpt lat="44.827759" lon="8.2071343"><ele>158.0</ele><time>2026-04-20T08:44:54.49Z</time></trkpt><trkpt lat="44.8276849" lon="8.2073216"><ele>158.0</ele><time>2026-04-20T08:44:55.488Z</time></trkpt><trkpt lat="44.8276148" lon="8.2075086"><ele>158.0</ele><time>2026-04-20T08:44:56.489Z</time></trkpt><trkpt lat="44.8275413" lon="8.207702"><ele>158.0</ele><time>2026-04-20T08:44:57.496Z</time></trkpt><trkpt lat="44.8274726" lon="8.2078928"><ele>158.0</ele><time>2026-04-20T08:44:58.502Z</time></trkpt><trkpt lat="44.827409" lon="8.2080812"><ele>158.0</ele><time>2026-04-20T08:44:59.5Z</time></trkpt><trkpt lat="44.8273494" lon="8.208262"><ele>158.0</ele><time>2026-04-20T08:45:00.496Z</time></trkpt><trkpt lat="44.827294" lon="8.2084368"><ele>158.0</ele><time>2026-04-20T08:45:01.501Z</time></trkpt><trkpt lat="44.8272388" lon="8.2086261"><ele>158.0</ele><time>2026-04-20T08:45:02.493Z</time></trkpt><trkpt lat="44.8271814" lon="8.2088068"><ele>158.0</ele><time>2026-04-20T08:45:03.496Z</time></trkpt><trkpt lat="44.8271064" lon="8.2089851"><ele>158.0</ele><time>2026-04-20T08:45:04.493Z</time></trkpt><trkpt lat="44.8270533" lon="8.2091683"><ele>158.0</ele><time>2026-04-20T08:45:05.496Z</time></trkpt><trkpt lat="44.8270006" lon="8.2093453"><ele>158.0</ele><time>2026-04-20T08:45:06.498Z</time></trkpt><trkpt lat="44.8269535" lon="8.2095167"><ele>158.0</ele><time>2026-04-20T08:45:07.493Z</time></trkpt><trkpt lat="44.8269127" lon="8.2096808"><ele>158.0</ele><time>2026-04-20T08:45:08.493Z</time></trkpt><trkpt lat="44.8268755" lon="8.2098412"><ele>158.25</ele><time>2026-04-20T08:45:09.493Z</time></trkpt><trkpt lat="44.826834" lon="8.2100061"><ele>158.5</ele><time>2026-04-20T08:45:10.496Z</time></trkpt><trkpt lat="44.8267909" lon="8.2101779"><ele>158.75</ele><time>2026-04-20T08:45:11.493Z</time></trkpt><trkpt lat="44.8267451" lon="8.2103546"><ele>159.0</ele><time>2026-04-20T08:45:12.496Z</time></trkpt><trkpt lat="44.8266985" lon="8.2105373"><ele>159.0</ele><time>2026-04-20T08:45:13.493Z</time></trkpt><trkpt lat="44.8266491" lon="8.2107216"><ele>159.0</ele><time>2026-04-20T08:45:14.497Z</time></trkpt><trkpt lat="44.8265975" lon="8.2109036"><ele>159.0</ele><time>2026-04-20T08:45:15.491Z</time></trkpt><trkpt lat="44.8265438" lon="8.2110897"><ele>159.0</ele><time>2026-04-20T08:45:16.49Z</time></trkpt><trkpt lat="44.8264913" lon="8.2112688"><ele>159.0</ele><time>2026-04-20T08:45:17.496Z</time></trkpt><trkpt lat="44.8264418" lon="8.2114421"><ele>159.0</ele><time>2026-04-20T08:45:18.493Z</time></trkpt><trkpt lat="44.8263975" lon="8.21161"><ele>159.0</ele><time>2026-04-20T08:45:19.494Z</time></trkpt><trkpt lat="44.8263518" lon="8.2117746"><ele>159.0</ele><time>2026-04-20T08:45:20.489Z</time></trkpt><trkpt lat="44.8263067" lon="8.2119369"><ele>158.75</ele><time>2026-04-20T08:45:21.496Z</time></trkpt><trkpt lat="44.8262589" lon="8.2120973"><ele>158.5</ele><time>2026-04-20T08:45:22.493Z</time></trkpt><trkpt lat="44.8262113" lon="8.2122634"><ele>158.25</ele><time>2026-04-20T08:45:23.485Z</time></trkpt><trkpt lat="44.826164" lon="8.2124377"><ele>158.0</ele><time>2026-04-20T08:45:24.485Z</time></trkpt><trkpt lat="44.8261151" lon="8.2126179"><ele>158.25</ele><time>2026-04-20T08:45:25.48Z</time></trkpt><trkpt lat="44.8260638" lon="8.2128023"><ele>158.5</ele><time>2026-04-20T08:45:26.481Z</time></trkpt><trkpt lat="44.8260099" lon="8.2129885"><ele>158.75</ele><time>2026-04-20T08:45:27.487Z</time></trkpt><trkpt lat="44.8259559" lon="8.2131727"><ele>159.0</ele><time>2026-04-20T08:45:28.484Z</time></trkpt><trkpt lat="44.8259035" lon="8.2133549"><ele>159.0</ele><time>2026-04-20T08:45:29.481Z</time></trkpt><trkpt lat="44.8258524" lon="8.2135378"><ele>159.0</ele><time>2026-04-20T08:45:30.48Z</time></trkpt><trkpt lat="44.8258033" lon="8.2137188"><ele>159.0</ele><time>2026-04-20T08:45:31.485Z</time></trkpt><trkpt lat="44.825754" lon="8.2138975"><ele>159.0</ele><time>2026-04-20T08:45:32.482Z</time></trkpt><trkpt lat="44.8257053" lon="8.2140717"><ele>159.0</ele><time>2026-04-20T08:45:33.48Z</time></trkpt><trkpt lat="44.8256564" lon="8.2142483"><ele>159.0</ele><time>2026-04-20T08:45:34.487Z</time></trkpt><trkpt lat="44.8256026" lon="8.2144394"><ele>159.0</ele><time>2026-04-20T08:45:35.48Z</time></trkpt><trkpt lat="44.8255504" lon="8.21464"><ele>159.0</ele><time>2026-04-20T08:45:36.488Z</time></trkpt><trkpt lat="44.8254943" lon="8.2148472"><ele>159.0</ele><time>2026-04-20T08:45:37.493Z</time></trkpt><trkpt lat="44.8254362" lon="8.2150622"><ele>159.0</ele><time>2026-04-20T08:45:38.489Z</time></trkpt><trkpt lat="44.8253788" lon="8.2152677"><ele>159.0</ele><time>2026-04-20T08:45:39.488Z</time></trkpt><trkpt lat="44.8253223" lon="8.2154743"><ele>159.66666666666666</ele><time>2026-04-20T08:45:40.49Z</time></trkpt><trkpt lat="44.8252659" lon="8.2156822"><ele>160.33333333333331</ele><time>2026-04-20T08:45:41.487Z</time></trkpt><trkpt lat="44.8252089" lon="8.215895"><ele>161.0</ele><time>2026-04-20T08:45:42.488Z</time></trkpt><trkpt lat="44.8251498" lon="8.216114"><ele>160.33333333333331</ele><time>2026-04-20T08:45:43.48Z</time></trkpt><trkpt lat="44.8250893" lon="8.2163378"><ele>159.66666666666666</ele><time>2026-04-20T08:45:44.483Z</time></trkpt><trkpt lat="44.8250297" lon="8.2165608"><ele>159.0</ele><time>2026-04-20T08:45:45.484Z</time></trkpt><trkpt lat="44.8249666" lon="8.2167775"><ele>159.0</ele><time>2026-04-20T08:45:46.491Z</time></trkpt><trkpt lat="44.8249088" lon="8.2169804"><ele>159.0</ele><time>2026-04-20T08:45:47.495Z</time></trkpt><trkpt lat="44.8248537" lon="8.2171729"><ele>159.0</ele><time>2026-04-20T08:45:48.49Z</time></trkpt><trkpt lat="44.8248002" lon="8.2173613"><ele>159.0</ele><time>2026-04-20T08:45:49.487Z</time></trkpt><trkpt lat="44.8247465" lon="8.2175512"><ele>158.33333333333334</ele><time>2026-04-20T08:45:50.489Z</time></trkpt><trkpt lat="44.8246924" lon="8.2177467"><ele>157.66666666666669</ele><time>2026-04-20T08:45:51.485Z</time></trkpt><trkpt lat="44.8246354" lon="8.2179469"><ele>157.0</ele><time>2026-04-20T08:45:52.507Z</time></trkpt><trkpt lat="44.8245776" lon="8.2181486"><ele>157.0</ele><time>2026-04-20T08:45:53.493Z</time></trkpt><trkpt lat="44.8245219" lon="8.218347"><ele>157.0</ele><time>2026-04-20T08:45:54.5Z</time></trkpt><trkpt lat="44.8244706" lon="8.218536"><ele>157.0</ele><time>2026-04-20T08:45:55.489Z</time></trkpt><trkpt lat="44.8244173" lon="8.2187212"><ele>157.0</ele><time>2026-04-20T08:45:56.49Z</time></trkpt><trkpt lat="44.8243672" lon="8.2189018"><ele>156.75</ele><time>2026-04-20T08:45:57.489Z</time></trkpt><trkpt lat="44.8243142" lon="8.2190813"><ele>156.5</ele><time>2026-04-20T08:45:58.486Z</time></trkpt><trkpt lat="44.8242591" lon="8.2192652"><ele>156.25</ele><time>2026-04-20T08:45:59.491Z</time></trkpt><trkpt lat="44.824202" lon="8.2194565"><ele>156.0</ele><time>2026-04-20T08:46:00.485Z</time></trkpt><trkpt lat="44.8241474" lon="8.2196573"><ele>156.0</ele><time>2026-04-20T08:46:01.486Z</time></trkpt><trkpt lat="44.8240908" lon="8.2198779"><ele>156.0</ele><time>2026-04-20T08:46:02.49Z</time></trkpt><trkpt lat="44.8240366" lon="8.2201103"><ele>156.0</ele><time>2026-04-20T08:46:03.487Z</time></trkpt><trkpt lat="44.8239802" lon="8.2203257"><ele>156.0</ele><time>2026-04-20T08:46:04.486Z</time></trkpt><trkpt lat="44.8239227" lon="8.2205332"><ele>156.0</ele><time>2026-04-20T08:46:05.487Z</time></trkpt><trkpt lat="44.8238694" lon="8.22073"><ele>156.0</ele><time>2026-04-20T08:46:06.487Z</time></trkpt><trkpt lat="44.8238242" lon="8.2209097"><ele>156.0</ele><time>2026-04-20T08:46:07.491Z</time></trkpt><trkpt lat="44.8237712" lon="8.2210953"><ele>156.0</ele><time>2026-04-20T08:46:08.487Z</time></trkpt><trkpt lat="44.8237165" lon="8.2212812"><ele>156.0</ele><time>2026-04-20T08:46:09.482Z</time></trkpt><trkpt lat="44.823661" lon="8.2214637"><ele>156.0</ele><time>2026-04-20T08:46:10.483Z</time></trkpt><trkpt lat="44.8236033" lon="8.2216792"><ele>156.0</ele><time>2026-04-20T08:46:11.475Z</time></trkpt><trkpt lat="44.8235425" lon="8.2219168"><ele>156.66666666666666</ele><time>2026-04-20T08:46:12.483Z</time></trkpt><trkpt lat="44.8234779" lon="8.2221525"><ele>157.33333333333331</ele><time>2026-04-20T08:46:13.473Z</time></trkpt><trkpt lat="44.8234078" lon="8.2223946"><ele>158.0</ele><time>2026-04-20T08:46:14.488Z</time></trkpt><trkpt lat="44.8233394" lon="8.2226328"><ele>158.0</ele><time>2026-04-20T08:46:15.483Z</time></trkpt><trkpt lat="44.8232715" lon="8.2228614"><ele>158.0</ele><time>2026-04-20T08:46:16.487Z</time></trkpt><trkpt lat="44.8232118" lon="8.223069"><ele>158.0</ele><time>2026-04-20T08:46:17.496Z</time></trkpt><trkpt lat="44.8231539" lon="8.2232641"><ele>158.0</ele><time>2026-04-20T08:46:18.487Z</time></trkpt><trkpt lat="44.8230968" lon="8.2234583"><ele>158.0</ele><time>2026-04-20T08:46:19.486Z</time></trkpt><trkpt lat="44.8230422" lon="8.2236467"><ele>158.0</ele><time>2026-04-20T08:46:20.485Z</time></trkpt><trkpt lat="44.8229884" lon="8.2238263"><ele>158.0</ele><time>2026-04-20T08:46:21.484Z</time></trkpt><trkpt lat="44.8229372" lon="8.2239977"><ele>158.0</ele><time>2026-04-20T08:46:22.496Z</time></trkpt><trkpt lat="44.822889" lon="8.2241527"><ele>158.0</ele><time>2026-04-20T08:46:23.485Z</time></trkpt><trkpt lat="44.8228442" lon="8.2243035"><ele>158.0</ele><time>2026-04-20T08:46:24.493Z</time></trkpt><trkpt lat="44.8228022" lon="8.2244465"><ele>158.0</ele><time>2026-04-20T08:46:25.489Z</time></trkpt><trkpt lat="44.822761" lon="8.2245843"><ele>158.0</ele><time>2026-04-20T08:46:26.493Z</time></trkpt><trkpt lat="44.8227195" lon="8.2247108"><ele>158.0</ele><time>2026-04-20T08:46:27.5Z</time></trkpt><trkpt lat="44.8226809" lon="8.2248256"><ele>158.0</ele><time>2026-04-20T08:46:28.491Z</time></trkpt><trkpt lat="44.8226448" lon="8.2249278"><ele>158.0</ele><time>2026-04-20T08:46:29.497Z</time></trkpt><trkpt lat="44.8226072" lon="8.2250134"><ele>158.0</ele><time>2026-04-20T08:46:30.49Z</time></trkpt><trkpt lat="44.8225673" lon="8.2250864"><ele>158.0</ele><time>2026-04-20T08:46:31.494Z</time></trkpt><trkpt lat="44.822469" lon="8.2251661"><ele>157.83333333333331</ele><time>2026-04-20T08:46:33.465Z</time></trkpt><trkpt lat="44.8224004" lon="8.2252023"><ele>157.66666666666666</ele><time>2026-04-20T08:46:34.477Z</time></trkpt><trkpt lat="44.8223394" lon="8.2252461"><ele>157.5</ele><time>2026-04-20T08:46:35.468Z</time></trkpt><trkpt lat="44.8222748" lon="8.2253763"><ele>157.33333333333334</ele><time>2026-04-20T08:46:37.475Z</time></trkpt><trkpt lat="44.8222513" lon="8.2254686"><ele>157.16666666666669</ele><time>2026-04-20T08:46:38.469Z</time></trkpt><trkpt lat="44.8222416" lon="8.2255659"><ele>157.0</ele><time>2026-04-20T08:46:39.46Z</time></trkpt><trkpt lat="44.8222495" lon="8.2256595"><ele>157.0</ele><time>2026-04-20T08:46:40.464Z</time></trkpt><trkpt lat="44.8222674" lon="8.2257569"><ele>157.0</ele><time>2026-04-20T08:46:41.471Z</time></trkpt><trkpt lat="44.8222759" lon="8.2258539"><ele>157.0</ele><time>2026-04-20T08:46:42.47Z</time></trkpt><trkpt lat="44.8222626" lon="8.2259501"><ele>157.0</ele><time>2026-04-20T08:46:43.48Z</time></trkpt><trkpt lat="44.8222347" lon="8.2260398"><ele>157.0</ele><time>2026-04-20T08:46:44.487Z</time></trkpt><trkpt lat="44.8221926" lon="8.2261543"><ele>157.0</ele><time>2026-04-20T08:46:45.468Z</time></trkpt><trkpt lat="44.8221432" lon="8.2262855"><ele>157.0</ele><time>2026-04-20T08:46:46.473Z</time></trkpt><trkpt lat="44.8220976" lon="8.2264288"><ele>157.0</ele><time>2026-04-20T08:46:47.473Z</time></trkpt><trkpt lat="44.8220476" lon="8.2265833"><ele>157.0</ele><time>2026-04-20T08:46:48.47Z</time></trkpt><trkpt lat="44.8219998" lon="8.2267212"><ele>157.0</ele><time>2026-04-20T08:46:49.496Z</time></trkpt><trkpt lat="44.8219574" lon="8.2268452"><ele>157.0</ele><time>2026-04-20T08:46:50.494Z</time></trkpt><trkpt lat="44.8219165" lon="8.2269655"><ele>156.79999999999998</ele><time>2026-04-20T08:46:51.493Z</time></trkpt><trkpt lat="44.8218769" lon="8.2270811"><ele>156.6</ele><time>2026-04-20T08:46:52.496Z</time></trkpt><trkpt lat="44.821833" lon="8.2272014"><ele>156.39999999999998</ele><time>2026-04-20T08:46:53.496Z</time></trkpt><trkpt lat="44.8217845" lon="8.2273326"><ele>156.2</ele><time>2026-04-20T08:46:54.495Z</time></trkpt><trkpt lat="44.8217352" lon="8.2274676"><ele>156.0</ele><time>2026-04-20T08:46:55.488Z</time></trkpt><trkpt lat="44.8216831" lon="8.2276119"><ele>156.0</ele><time>2026-04-20T08:46:56.496Z</time></trkpt><trkpt lat="44.82163" lon="8.2277619"><ele>156.0</ele><time>2026-04-20T08:46:57.504Z</time></trkpt><trkpt lat="44.821576" lon="8.2279218"><ele>156.0</ele><time>2026-04-20T08:46:58.5Z</time></trkpt><trkpt lat="44.8215209" lon="8.2280889"><ele>156.0</ele><time>2026-04-20T08:46:59.499Z</time></trkpt><trkpt lat="44.8214625" lon="8.2282532"><ele>156.0</ele><time>2026-04-20T08:47:00.5Z</time></trkpt><trkpt lat="44.8214036" lon="8.2284109"><ele>156.0</ele><time>2026-04-20T08:47:01.5Z</time></trkpt><trkpt lat="44.8213464" lon="8.2285619"><ele>156.0</ele><time>2026-04-20T08:47:02.497Z</time></trkpt><trkpt lat="44.8212908" lon="8.2287084"><ele>156.0</ele><time>2026-04-20T08:47:03.496Z</time></trkpt><trkpt lat="44.8212352" lon="8.2288549"><ele>155.75</ele><time>2026-04-20T08:47:04.495Z</time></trkpt><trkpt lat="44.8211809" lon="8.229006"><ele>155.5</ele><time>2026-04-20T08:47:05.497Z</time></trkpt><trkpt lat="44.8211252" lon="8.2291614"><ele>155.25</ele><time>2026-04-20T08:47:06.497Z</time></trkpt><trkpt lat="44.8210678" lon="8.2293236"><ele>155.0</ele><time>2026-04-20T08:47:07.498Z</time></trkpt><trkpt lat="44.8210124" lon="8.2294765"><ele>155.25</ele><time>2026-04-20T08:47:08.499Z</time></trkpt><trkpt lat="44.8209575" lon="8.2296246"><ele>155.5</ele><time>2026-04-20T08:47:09.496Z</time></trkpt><trkpt lat="44.8209009" lon="8.2297761"><ele>155.75</ele><time>2026-04-20T08:47:10.496Z</time></trkpt><trkpt lat="44.8208463" lon="8.2299311"><ele>156.0</ele><time>2026-04-20T08:47:11.498Z</time></trkpt><trkpt lat="44.8207896" lon="8.230096"><ele>156.0</ele><time>2026-04-20T08:47:12.493Z</time></trkpt><trkpt lat="44.8207326" lon="8.2302608"><ele>156.0</ele><time>2026-04-20T08:47:13.495Z</time></trkpt><trkpt lat="44.8206759" lon="8.2304205"><ele>156.0</ele><time>2026-04-20T08:47:14.503Z</time></trkpt><trkpt lat="44.8206205" lon="8.2305761"><ele>156.0</ele><time>2026-04-20T08:47:15.496Z</time></trkpt><trkpt lat="44.8205669" lon="8.2307272"><ele>156.0</ele><time>2026-04-20T08:47:16.497Z</time></trkpt><trkpt lat="44.8205142" lon="8.2308796"><ele>156.0</ele><time>2026-04-20T08:47:17.504Z</time></trkpt><trkpt lat="44.8204623" lon="8.2310312"><ele>156.0</ele><time>2026-04-20T08:47:18.495Z</time></trkpt><trkpt lat="44.8204086" lon="8.2311904"><ele>156.0</ele><time>2026-04-20T08:47:19.494Z</time></trkpt><trkpt lat="44.8203549" lon="8.2313529"><ele>156.0</ele><time>2026-04-20T08:47:20.495Z</time></trkpt><trkpt lat="44.8203013" lon="8.2315131"><ele>156.0</ele><time>2026-04-20T08:47:21.493Z</time></trkpt><trkpt lat="44.8202445" lon="8.2316743"><ele>156.0</ele><time>2026-04-20T08:47:22.493Z</time></trkpt><trkpt lat="44.8201873" lon="8.2318312"><ele>156.0</ele><time>2026-04-20T08:47:23.491Z</time></trkpt><trkpt lat="44.8201297" lon="8.2319926"><ele>155.75</ele><time>2026-04-20T08:47:24.494Z</time></trkpt><trkpt lat="44.8200742" lon="8.2321496"><ele>155.5</ele><time>2026-04-20T08:47:25.494Z</time></trkpt><trkpt lat="44.8200166" lon="8.2323083"><ele>155.25</ele><time>2026-04-20T08:47:26.495Z</time></trkpt><trkpt lat="44.8199564" lon="8.2324632"><ele>155.0</ele><time>2026-04-20T08:47:27.498Z</time></trkpt><trkpt lat="44.8198935" lon="8.2326144"><ele>155.0</ele><time>2026-04-20T08:47:28.496Z</time></trkpt><trkpt lat="44.8198298" lon="8.2327651"><ele>155.0</ele><time>2026-04-20T08:47:29.498Z</time></trkpt><trkpt lat="44.8197663" lon="8.2329137"><ele>155.0</ele><time>2026-04-20T08:47:30.496Z</time></trkpt><trkpt lat="44.8197044" lon="8.233051"><ele>155.0</ele><time>2026-04-20T08:47:31.495Z</time></trkpt><trkpt lat="44.8196384" lon="8.2331893"><ele>155.0</ele><time>2026-04-20T08:47:32.49Z</time></trkpt><trkpt lat="44.8195717" lon="8.2333325"><ele>155.0</ele><time>2026-04-20T08:47:33.49Z</time></trkpt><trkpt lat="44.8195047" lon="8.2334788"><ele>155.0</ele><time>2026-04-20T08:47:34.489Z</time></trkpt><trkpt lat="44.8194397" lon="8.2336169"><ele>155.0</ele><time>2026-04-20T08:47:35.487Z</time></trkpt><trkpt lat="44.8193773" lon="8.2337497"><ele>155.0</ele><time>2026-04-20T08:47:36.488Z</time></trkpt><trkpt lat="44.8193146" lon="8.2338788"><ele>155.0</ele><time>2026-04-20T08:47:37.491Z</time></trkpt><trkpt lat="44.8192493" lon="8.2340039"><ele>155.0</ele><time>2026-04-20T08:47:38.495Z</time></trkpt><trkpt lat="44.8191799" lon="8.2341362"><ele>155.0</ele><time>2026-04-20T08:47:39.49Z</time></trkpt><trkpt lat="44.8191121" lon="8.2342604"><ele>155.0</ele><time>2026-04-20T08:47:40.49Z</time></trkpt><trkpt lat="44.8190574" lon="8.2343684"><ele>155.0</ele><time>2026-04-20T08:47:41.486Z</time></trkpt><trkpt lat="44.8190082" lon="8.2344762"><ele>155.0</ele><time>2026-04-20T08:47:42.478Z</time></trkpt><trkpt lat="44.8189685" lon="8.2345747"><ele>155.0</ele><time>2026-04-20T08:47:43.484Z</time></trkpt><trkpt lat="44.8189176" lon="8.2346875"><ele>155.0</ele><time>2026-04-20T08:47:45.479Z</time></trkpt><trkpt lat="44.8188728" lon="8.2347589"><ele>155.0</ele><time>2026-04-20T08:47:48.484Z</time></trkpt><trkpt lat="44.81882" lon="8.2348388"><ele>155.0</ele><time>2026-04-20T08:48:12.467Z</time></trkpt><trkpt lat="44.8187569" lon="8.234959"><ele>155.2</ele><time>2026-04-20T08:48:13.465Z</time></trkpt><trkpt lat="44.818719" lon="8.2350612"><ele>155.4</ele><time>2026-04-20T08:48:14.463Z</time></trkpt><trkpt lat="44.8186745" lon="8.2351573"><ele>155.6</ele><time>2026-04-20T08:48:15.453Z</time></trkpt><trkpt lat="44.8186027" lon="8.235296"><ele>155.8</ele><time>2026-04-20T08:48:16.453Z</time></trkpt><trkpt lat="44.8185132" lon="8.2354675"><ele>156.0</ele><time>2026-04-20T08:48:17.461Z</time></trkpt><trkpt lat="44.8184245" lon="8.2356429"><ele>156.0</ele><time>2026-04-20T08:48:18.456Z</time></trkpt><trkpt lat="44.8183329" lon="8.2358195"><ele>156.0</ele><time>2026-04-20T08:48:19.475Z</time></trkpt><trkpt lat="44.8182371" lon="8.2360043"><ele>156.0</ele><time>2026-04-20T08:48:20.477Z</time></trkpt><trkpt lat="44.8181417" lon="8.2361955"><ele>156.0</ele><time>2026-04-20T08:48:21.479Z</time></trkpt><trkpt lat="44.8180461" lon="8.236385"><ele>156.0</ele><time>2026-04-20T08:48:22.483Z</time></trkpt><trkpt lat="44.8179514" lon="8.2365778"><ele>156.0</ele><time>2026-04-20T08:48:23.48Z</time></trkpt><trkpt lat="44.8178576" lon="8.2367731"><ele>156.25</ele><time>2026-04-20T08:48:24.489Z</time></trkpt><trkpt lat="44.8177711" lon="8.2369563"><ele>156.5</ele><time>2026-04-20T08:48:25.483Z</time></trkpt><trkpt lat="44.8176887" lon="8.2371276"><ele>156.75</ele><time>2026-04-20T08:48:26.491Z</time></trkpt><trkpt lat="44.8176106" lon="8.2372903"><ele>157.0</ele><time>2026-04-20T08:48:27.487Z</time></trkpt><trkpt lat="44.8175374" lon="8.2374469"><ele>156.25</ele><time>2026-04-20T08:48:28.49Z</time></trkpt><trkpt lat="44.8174662" lon="8.237604"><ele>155.5</ele><time>2026-04-20T08:48:29.494Z</time></trkpt><trkpt lat="44.8173953" lon="8.237762"><ele>154.75</ele><time>2026-04-20T08:48:30.489Z</time></trkpt><trkpt lat="44.8173255" lon="8.2379231"><ele>154.0</ele><time>2026-04-20T08:48:31.494Z</time></trkpt><trkpt lat="44.8172576" lon="8.2380933"><ele>153.5</ele><time>2026-04-20T08:48:32.486Z</time></trkpt><trkpt lat="44.8171951" lon="8.2382574"><ele>153.0</ele><time>2026-04-20T08:48:33.492Z</time></trkpt><trkpt lat="44.8171353" lon="8.2384122"><ele>152.5</ele><time>2026-04-20T08:48:34.491Z</time></trkpt><trkpt lat="44.817077" lon="8.2385657"><ele>152.0</ele><time>2026-04-20T08:48:35.486Z</time></trkpt><trkpt lat="44.8170216" lon="8.2387068"><ele>152.0</ele><time>2026-04-20T08:48:36.488Z</time></trkpt><trkpt lat="44.8169686" lon="8.2388381"><ele>152.0</ele><time>2026-04-20T08:48:37.492Z</time></trkpt><trkpt lat="44.8169163" lon="8.2389564"><ele>152.0</ele><time>2026-04-20T08:48:38.486Z</time></trkpt><trkpt lat="44.8168652" lon="8.239053"><ele>152.0</ele><time>2026-04-20T08:48:39.476Z</time></trkpt><trkpt lat="44.8168153" lon="8.2391299"><ele>152.0</ele><time>2026-04-20T08:48:40.475Z</time></trkpt><trkpt lat="44.8167585" lon="8.2391982"><ele>152.0</ele><time>2026-04-20T08:48:41.469Z</time></trkpt><trkpt lat="44.8166891" lon="8.2392656"><ele>152.0</ele><time>2026-04-20T08:48:42.472Z</time></trkpt><trkpt lat="44.8166261" lon="8.2393516"><ele>152.0</ele><time>2026-04-20T08:48:43.467Z</time></trkpt><trkpt lat="44.8165873" lon="8.2394552"><ele>152.0</ele><time>2026-04-20T08:48:44.462Z</time></trkpt><trkpt lat="44.8165761" lon="8.2395732"><ele>152.0</ele><time>2026-04-20T08:48:45.465Z</time></trkpt><trkpt lat="44.816581" lon="8.2397013"><ele>152.0</ele><time>2026-04-20T08:48:46.471Z</time></trkpt><trkpt lat="44.8165503" lon="8.2400133"><ele>152.0</ele><time>2026-04-20T08:48:48.364Z</time></trkpt><trkpt lat="44.8165142" lon="8.2402182"><ele>152.0</ele><time>2026-04-20T08:48:49.35Z</time></trkpt><trkpt lat="44.8164591" lon="8.2404245"><ele>152.0</ele><time>2026-04-20T08:48:50.365Z</time></trkpt><trkpt lat="44.8163875" lon="8.2406222"><ele>151.33333333333331</ele><time>2026-04-20T08:48:51.376Z</time></trkpt><trkpt lat="44.8163272" lon="8.2408208"><ele>150.66666666666666</ele><time>2026-04-20T08:48:52.386Z</time></trkpt><trkpt lat="44.8162585" lon="8.2410611"><ele>150.0</ele><time>2026-04-20T08:48:53.387Z</time></trkpt><trkpt lat="44.8161981" lon="8.2413012"><ele>150.0</ele><time>2026-04-20T08:48:54.383Z</time></trkpt><trkpt lat="44.8161262" lon="8.2415542"><ele>150.0</ele><time>2026-04-20T08:48:55.387Z</time></trkpt><trkpt lat="44.8160575" lon="8.2418086"><ele>150.0</ele><time>2026-04-20T08:48:56.39Z</time></trkpt><trkpt lat="44.8160133" lon="8.2420415"><ele>150.66666666666666</ele><time>2026-04-20T08:48:57.394Z</time></trkpt><trkpt lat="44.8159599" lon="8.2422859"><ele>151.33333333333331</ele><time>2026-04-20T08:48:58.383Z</time></trkpt><trkpt lat="44.8158965" lon="8.2425205"><ele>152.0</ele><time>2026-04-20T08:48:59.388Z</time></trkpt><trkpt lat="44.8158359" lon="8.2427552"><ele>152.0</ele><time>2026-04-20T08:49:00.386Z</time></trkpt><trkpt lat="44.8157762" lon="8.243005"><ele>152.0</ele><time>2026-04-20T08:49:01.386Z</time></trkpt><trkpt lat="44.8157277" lon="8.2432292"><ele>152.0</ele><time>2026-04-20T08:49:02.385Z</time></trkpt><trkpt lat="44.8156666" lon="8.2434355"><ele>151.33333333333331</ele><time>2026-04-20T08:49:03.372Z</time></trkpt><trkpt lat="44.8155978" lon="8.2436214"><ele>150.66666666666666</ele><time>2026-04-20T08:49:04.378Z</time></trkpt><trkpt lat="44.8154769" lon="8.2437955"><ele>150.0</ele><time>2026-04-20T08:49:05.374Z</time></trkpt><trkpt lat="44.8153556" lon="8.2439833"><ele>150.0</ele><time>2026-04-20T08:49:06.381Z</time></trkpt><trkpt lat="44.81528" lon="8.2441867"><ele>150.0</ele><time>2026-04-20T08:49:07.385Z</time></trkpt><trkpt lat="44.815212" lon="8.2443976"><ele>150.0</ele><time>2026-04-20T08:49:08.384Z</time></trkpt><trkpt lat="44.8151519" lon="8.2446123"><ele>150.0</ele><time>2026-04-20T08:49:09.389Z</time></trkpt><trkpt lat="44.8151028" lon="8.2448117"><ele>150.0</ele><time>2026-04-20T08:49:10.368Z</time></trkpt><trkpt lat="44.8150903" lon="8.2450094"><ele>150.0</ele><time>2026-04-20T08:49:11.374Z</time></trkpt><trkpt lat="44.8151385" lon="8.2451616"><ele>150.0</ele><time>2026-04-20T08:49:12.377Z</time></trkpt><trkpt lat="44.815173" lon="8.2453053"><ele>150.0</ele><time>2026-04-20T08:49:13.382Z</time></trkpt><trkpt lat="44.8151624" lon="8.2454755"><ele>150.0</ele><time>2026-04-20T08:49:14.383Z</time></trkpt><trkpt lat="44.8151122" lon="8.2456959"><ele>150.0</ele><time>2026-04-20T08:49:15.39Z</time></trkpt><trkpt lat="44.8150554" lon="8.2459263"><ele>150.33333333333334</ele><time>2026-04-20T08:49:16.385Z</time></trkpt><trkpt lat="44.8150024" lon="8.2461623"><ele>150.66666666666669</ele><time>2026-04-20T08:49:17.4Z</time></trkpt><trkpt lat="44.8149405" lon="8.2464185"><ele>151.0</ele><time>2026-04-20T08:49:18.387Z</time></trkpt><trkpt lat="44.8148798" lon="8.2466706"><ele>150.33333333333334</ele><time>2026-04-20T08:49:19.391Z</time></trkpt><trkpt lat="44.8148169" lon="8.2469293"><ele>149.66666666666666</ele><time>2026-04-20T08:49:20.383Z</time></trkpt><trkpt lat="44.8147658" lon="8.247169"><ele>149.0</ele><time>2026-04-20T08:49:21.388Z</time></trkpt><trkpt lat="44.8147068" lon="8.2474128"><ele>149.0</ele><time>2026-04-20T08:49:22.396Z</time></trkpt><trkpt lat="44.8146425" lon="8.2476738"><ele>149.0</ele><time>2026-04-20T08:49:23.391Z</time></trkpt><trkpt lat="44.8145899" lon="8.2479336"><ele>149.0</ele><time>2026-04-20T08:49:24.392Z</time></trkpt><trkpt lat="44.8145257" lon="8.2481998"><ele>148.66666666666666</ele><time>2026-04-20T08:49:25.388Z</time></trkpt><trkpt lat="44.8144596" lon="8.248461"><ele>148.33333333333334</ele><time>2026-04-20T08:49:26.393Z</time></trkpt><trkpt lat="44.8143847" lon="8.2487264"><ele>148.0</ele><time>2026-04-20T08:49:27.397Z</time></trkpt><trkpt lat="44.8143063" lon="8.248987"><ele>149.0</ele><time>2026-04-20T08:49:28.393Z</time></trkpt><trkpt lat="44.8142304" lon="8.2492596"><ele>150.0</ele><time>2026-04-20T08:49:29.396Z</time></trkpt><trkpt lat="44.8141344" lon="8.2495142"><ele>151.0</ele><time>2026-04-20T08:49:30.395Z</time></trkpt><trkpt lat="44.8140293" lon="8.2497568"><ele>151.33333333333334</ele><time>2026-04-20T08:49:31.395Z</time></trkpt><trkpt lat="44.8139218" lon="8.2500111"><ele>151.66666666666666</ele><time>2026-04-20T08:49:32.394Z</time></trkpt><trkpt lat="44.8137863" lon="8.2502423"><ele>152.0</ele><time>2026-04-20T08:49:33.396Z</time></trkpt><trkpt lat="44.8136605" lon="8.2504817"><ele>151.0</ele><time>2026-04-20T08:49:34.397Z</time></trkpt><trkpt lat="44.8135325" lon="8.2507142"><ele>150.0</ele><time>2026-04-20T08:49:35.399Z</time></trkpt><trkpt lat="44.8133995" lon="8.2509372"><ele>149.0</ele><time>2026-04-20T08:49:36.39Z</time></trkpt><trkpt lat="44.8132617" lon="8.2511401"><ele>150.33333333333331</ele><time>2026-04-20T08:49:37.391Z</time></trkpt><trkpt lat="44.8131179" lon="8.2513519"><ele>151.66666666666666</ele><time>2026-04-20T08:49:38.39Z</time></trkpt><trkpt lat="44.8129628" lon="8.2515476"><ele>153.0</ele><time>2026-04-20T08:49:39.386Z</time></trkpt><trkpt lat="44.8127999" lon="8.2517347"><ele>155.66666666666666</ele><time>2026-04-20T08:49:40.385Z</time></trkpt><trkpt lat="44.8126196" lon="8.251922"><ele>158.33333333333331</ele><time>2026-04-20T08:49:41.385Z</time></trkpt><trkpt lat="44.8124487" lon="8.252113"><ele>161.0</ele><time>2026-04-20T08:49:42.389Z</time></trkpt><trkpt lat="44.8122727" lon="8.2522688"><ele>159.66666666666666</ele><time>2026-04-20T08:49:43.39Z</time></trkpt><trkpt lat="44.8120814" lon="8.2524194"><ele>158.33333333333334</ele><time>2026-04-20T08:49:44.398Z</time></trkpt><trkpt lat="44.8118944" lon="8.2525611"><ele>157.0</ele><time>2026-04-20T08:49:45.39Z</time></trkpt><trkpt lat="44.8117032" lon="8.2526989"><ele>157.0</ele><time>2026-04-20T08:49:46.388Z</time></trkpt><trkpt lat="44.8115062" lon="8.2528199"><ele>157.0</ele><time>2026-04-20T08:49:47.39Z</time></trkpt><trkpt lat="44.8113079" lon="8.2529112"><ele>157.0</ele><time>2026-04-20T08:49:48.387Z</time></trkpt><trkpt lat="44.8110962" lon="8.2530124"><ele>157.33333333333334</ele><time>2026-04-20T08:49:49.396Z</time></trkpt><trkpt lat="44.8108889" lon="8.2530962"><ele>157.66666666666666</ele><time>2026-04-20T08:49:50.392Z</time></trkpt><trkpt lat="44.8106871" lon="8.2531625"><ele>158.0</ele><time>2026-04-20T08:49:51.39Z</time></trkpt><trkpt lat="44.8104802" lon="8.2532317"><ele>158.0</ele><time>2026-04-20T08:49:52.387Z</time></trkpt><trkpt lat="44.8102671" lon="8.2532976"><ele>158.0</ele><time>2026-04-20T08:49:53.387Z</time></trkpt><trkpt lat="44.8100596" lon="8.2533412"><ele>158.0</ele><time>2026-04-20T08:49:54.386Z</time></trkpt><trkpt lat="44.8098365" lon="8.2533813"><ele>156.66666666666666</ele><time>2026-04-20T08:49:55.387Z</time></trkpt><trkpt lat="44.8096235" lon="8.2534005"><ele>155.33333333333334</ele><time>2026-04-20T08:49:56.384Z</time></trkpt><trkpt lat="44.8094145" lon="8.253416"><ele>154.0</ele><time>2026-04-20T08:49:57.393Z</time></trkpt><trkpt lat="44.8092063" lon="8.2534034"><ele>153.33333333333334</ele><time>2026-04-20T08:49:58.381Z</time></trkpt><trkpt lat="44.8089869" lon="8.2533934"><ele>152.66666666666666</ele><time>2026-04-20T08:49:59.387Z</time></trkpt><trkpt lat="44.8087732" lon="8.2534213"><ele>152.0</ele><time>2026-04-20T08:50:00.392Z</time></trkpt><trkpt lat="44.8085676" lon="8.2534486"><ele>152.33333333333331</ele><time>2026-04-20T08:50:01.383Z</time></trkpt><trkpt lat="44.8083475" lon="8.2534634"><ele>152.66666666666666</ele><time>2026-04-20T08:50:02.386Z</time></trkpt><trkpt lat="44.8081396" lon="8.2534714"><ele>153.0</ele><time>2026-04-20T08:50:03.379Z</time></trkpt><trkpt lat="44.8079137" lon="8.253486"><ele>153.0</ele><time>2026-04-20T08:50:04.389Z</time></trkpt><trkpt lat="44.8077043" lon="8.2535092"><ele>153.0</ele><time>2026-04-20T08:50:05.383Z</time></trkpt><trkpt lat="44.8074875" lon="8.2535226"><ele>153.0</ele><time>2026-04-20T08:50:06.393Z</time></trkpt><trkpt lat="44.8073027" lon="8.2535233"><ele>152.66666666666666</ele><time>2026-04-20T08:50:07.388Z</time></trkpt><trkpt lat="44.8071079" lon="8.253544"><ele>152.33333333333331</ele><time>2026-04-20T08:50:08.386Z</time></trkpt><trkpt lat="44.8069211" lon="8.2535479"><ele>152.0</ele><time>2026-04-20T08:50:09.384Z</time></trkpt><trkpt lat="44.8067437" lon="8.2535525"><ele>152.66666666666666</ele><time>2026-04-20T08:50:10.394Z</time></trkpt><trkpt lat="44.8065658" lon="8.253573"><ele>153.33333333333334</ele><time>2026-04-20T08:50:11.389Z</time></trkpt><trkpt lat="44.806403" lon="8.2535743"><ele>154.0</ele><time>2026-04-20T08:50:12.393Z</time></trkpt><trkpt lat="44.8062395" lon="8.2535737"><ele>154.0</ele><time>2026-04-20T08:50:13.396Z</time></trkpt><trkpt lat="44.8060608" lon="8.2535854"><ele>154.0</ele><time>2026-04-20T08:50:14.396Z</time></trkpt><trkpt lat="44.8058943" lon="8.2535917"><ele>154.0</ele><time>2026-04-20T08:50:15.392Z</time></trkpt><trkpt lat="44.8057417" lon="8.253589"><ele>154.33333333333334</ele><time>2026-04-20T08:50:16.392Z</time></trkpt><trkpt lat="44.8055785" lon="8.2536091"><ele>154.66666666666666</ele><time>2026-04-20T08:50:17.394Z</time></trkpt><trkpt lat="44.80542" lon="8.2536276"><ele>155.0</ele><time>2026-04-20T08:50:18.395Z</time></trkpt><trkpt lat="44.8052492" lon="8.2536477"><ele>155.33333333333331</ele><time>2026-04-20T08:50:19.391Z</time></trkpt><trkpt lat="44.8050781" lon="8.2536523"><ele>155.66666666666666</ele><time>2026-04-20T08:50:20.393Z</time></trkpt><trkpt lat="44.804914" lon="8.2536638"><ele>156.0</ele><time>2026-04-20T08:50:21.394Z</time></trkpt><trkpt lat="44.8047544" lon="8.2536574"><ele>156.0</ele><time>2026-04-20T08:50:22.396Z</time></trkpt><trkpt lat="44.8045887" lon="8.2536606"><ele>156.0</ele><time>2026-04-20T08:50:23.392Z</time></trkpt><trkpt lat="44.8044263" lon="8.2536733"><ele>156.0</ele><time>2026-04-20T08:50:24.395Z</time></trkpt><trkpt lat="44.8042549" lon="8.2536853"><ele>157.33333333333334</ele><time>2026-04-20T08:50:25.4Z</time></trkpt><trkpt lat="44.8040867" lon="8.2536914"><ele>158.66666666666669</ele><time>2026-04-20T08:50:26.392Z</time></trkpt><trkpt lat="44.8039089" lon="8.2536967"><ele>160.0</ele><time>2026-04-20T08:50:27.391Z</time></trkpt><trkpt lat="44.8037101" lon="8.2537214"><ele>160.0</ele><time>2026-04-20T08:50:28.39Z</time></trkpt><trkpt lat="44.8035229" lon="8.2537349"><ele>160.0</ele><time>2026-04-20T08:50:29.393Z</time></trkpt><trkpt lat="44.8033238" lon="8.2537424"><ele>160.0</ele><time>2026-04-20T08:50:30.399Z</time></trkpt><trkpt lat="44.8031197" lon="8.2537568"><ele>160.33333333333334</ele><time>2026-04-20T08:50:31.394Z</time></trkpt><trkpt lat="44.8029213" lon="8.2537592"><ele>160.66666666666666</ele><time>2026-04-20T08:50:32.396Z</time></trkpt><trkpt lat="44.8027228" lon="8.2537681"><ele>161.0</ele><time>2026-04-20T08:50:33.392Z</time></trkpt><trkpt lat="44.8025171" lon="8.2537794"><ele>161.0</ele><time>2026-04-20T08:50:34.397Z</time></trkpt><trkpt lat="44.8023109" lon="8.2537943"><ele>161.0</ele><time>2026-04-20T08:50:35.391Z</time></trkpt><trkpt lat="44.8020932" lon="8.2538232"><ele>161.0</ele><time>2026-04-20T08:50:36.391Z</time></trkpt><trkpt lat="44.8018831" lon="8.2538292"><ele>162.33333333333331</ele><time>2026-04-20T08:50:37.399Z</time></trkpt><trkpt lat="44.8016757" lon="8.2538249"><ele>163.66666666666666</ele><time>2026-04-20T08:50:38.393Z</time></trkpt><trkpt lat="44.8014627" lon="8.2538337"><ele>165.0</ele><time>2026-04-20T08:50:39.393Z</time></trkpt><trkpt lat="44.801256" lon="8.2538434"><ele>165.0</ele><time>2026-04-20T08:50:40.391Z</time></trkpt><trkpt lat="44.801046" lon="8.2538524"><ele>165.0</ele><time>2026-04-20T08:50:41.393Z</time></trkpt><trkpt lat="44.8008385" lon="8.2538553"><ele>165.0</ele><time>2026-04-20T08:50:42.39Z</time></trkpt><trkpt lat="44.8006218" lon="8.2538695"><ele>164.66666666666666</ele><time>2026-04-20T08:50:43.399Z</time></trkpt><trkpt lat="44.8004166" lon="8.2538718"><ele>164.33333333333331</ele><time>2026-04-20T08:50:44.396Z</time></trkpt><trkpt lat="44.8002119" lon="8.2538844"><ele>164.0</ele><time>2026-04-20T08:50:45.386Z</time></trkpt><trkpt lat="44.7999988" lon="8.2538885"><ele>165.0</ele><time>2026-04-20T08:50:46.394Z</time></trkpt><trkpt lat="44.7997925" lon="8.253888"><ele>166.0</ele><time>2026-04-20T08:50:47.399Z</time></trkpt><trkpt lat="44.7995965" lon="8.2538931"><ele>167.0</ele><time>2026-04-20T08:50:48.389Z</time></trkpt><trkpt lat="44.799378" lon="8.2539211"><ele>168.0</ele><time>2026-04-20T08:50:49.393Z</time></trkpt><trkpt lat="44.7991638" lon="8.2539465"><ele>169.0</ele><time>2026-04-20T08:50:50.39Z</time></trkpt><trkpt lat="44.7989415" lon="8.2539591"><ele>170.0</ele><time>2026-04-20T08:50:51.393Z</time></trkpt><trkpt lat="44.7987243" lon="8.2539843"><ele>170.0</ele><time>2026-04-20T08:50:52.383Z</time></trkpt><trkpt lat="44.7985171" lon="8.254028"><ele>170.0</ele><time>2026-04-20T08:50:53.388Z</time></trkpt><trkpt lat="44.7982897" lon="8.2540758"><ele>170.0</ele><time>2026-04-20T08:50:54.392Z</time></trkpt><trkpt lat="44.798079" lon="8.2541378"><ele>170.0</ele><time>2026-04-20T08:50:55.392Z</time></trkpt><trkpt lat="44.7978634" lon="8.2542056"><ele>170.0</ele><time>2026-04-20T08:50:56.39Z</time></trkpt><trkpt lat="44.797655" lon="8.2542642"><ele>170.0</ele><time>2026-04-20T08:50:57.399Z</time></trkpt><trkpt lat="44.7974273" lon="8.254336"><ele>171.66666666666666</ele><time>2026-04-20T08:50:58.393Z</time></trkpt><trkpt lat="44.7972102" lon="8.2544241"><ele>173.33333333333334</ele><time>2026-04-20T08:50:59.392Z</time></trkpt><trkpt lat="44.7970058" lon="8.2545046"><ele>175.0</ele><time>2026-04-20T08:51:00.393Z</time></trkpt><trkpt lat="44.7967916" lon="8.2545758"><ele>175.0</ele><time>2026-04-20T08:51:01.394Z</time></trkpt><trkpt lat="44.7965772" lon="8.2546728"><ele>175.0</ele><time>2026-04-20T08:51:02.388Z</time></trkpt><trkpt lat="44.7963705" lon="8.2548015"><ele>175.0</ele><time>2026-04-20T08:51:03.392Z</time></trkpt><trkpt lat="44.7961724" lon="8.2549105"><ele>175.0</ele><time>2026-04-20T08:51:04.414Z</time></trkpt><trkpt lat="44.7959669" lon="8.2550176"><ele>175.0</ele><time>2026-04-20T08:51:05.488Z</time></trkpt><trkpt lat="44.7957627" lon="8.2551219"><ele>178.0</ele><time>2026-04-20T08:51:06.493Z</time></trkpt><trkpt lat="44.7955584" lon="8.2552279"><ele>181.0</ele><time>2026-04-20T08:51:07.489Z</time></trkpt><trkpt lat="44.7953596" lon="8.2553417"><ele>184.0</ele><time>2026-04-20T08:51:08.492Z</time></trkpt><trkpt lat="44.7951626" lon="8.2554551"><ele>190.0</ele><time>2026-04-20T08:51:09.461Z</time></trkpt><trkpt lat="44.7949694" lon="8.2555715"><ele>196.0</ele><time>2026-04-20T08:51:10.449Z</time></trkpt><trkpt lat="44.7947762" lon="8.2556914"><ele>202.0</ele><time>2026-04-20T08:51:11.435Z</time></trkpt><trkpt lat="44.794577" lon="8.2558076"><ele>202.0</ele><time>2026-04-20T08:51:12.414Z</time></trkpt><trkpt lat="44.7943836" lon="8.255927"><ele>202.0</ele><time>2026-04-20T08:51:13.409Z</time></trkpt><trkpt lat="44.7941912" lon="8.2560382"><ele>202.0</ele><time>2026-04-20T08:51:14.39Z</time></trkpt><trkpt lat="44.794002" lon="8.2561509"><ele>202.0</ele><time>2026-04-20T08:51:15.371Z</time></trkpt><trkpt lat="44.7938217" lon="8.256274"><ele>202.0</ele><time>2026-04-20T08:51:16.346Z</time></trkpt><trkpt lat="44.7936366" lon="8.2563927"><ele>202.0</ele><time>2026-04-20T08:51:17.364Z</time></trkpt><trkpt lat="44.7934817" lon="8.2565027"><ele>192.5</ele><time>2026-04-20T08:51:18.441Z</time></trkpt><trkpt lat="44.7933965" lon="8.2566186"><ele>183.0</ele><time>2026-04-20T08:51:19.462Z</time></trkpt><trkpt lat="44.7930681" lon="8.2568576"><ele>183.0</ele><time>2026-04-20T08:51:20.466Z</time></trkpt><trkpt lat="44.7928677" lon="8.2569861"><ele>183.0</ele><time>2026-04-20T08:51:21.477Z</time></trkpt><trkpt lat="44.7926765" lon="8.2571355"><ele>183.0</ele><time>2026-04-20T08:51:22.476Z</time></trkpt><trkpt lat="44.7924921" lon="8.2572904"><ele>178.0</ele><time>2026-04-20T08:51:23.482Z</time></trkpt><trkpt lat="44.7923125" lon="8.2574537"><ele>173.0</ele><time>2026-04-20T08:51:24.469Z</time></trkpt><trkpt lat="44.7920545" lon="8.2575837"><ele>173.0</ele><time>2026-04-20T08:51:25.476Z</time></trkpt><trkpt lat="44.791893" lon="8.2577631"><ele>173.0</ele><time>2026-04-20T08:51:26.48Z</time></trkpt><trkpt lat="44.7917367" lon="8.257949"><ele>173.0</ele><time>2026-04-20T08:51:27.484Z</time></trkpt><trkpt lat="44.7915853" lon="8.2581392"><ele>171.33333333333331</ele><time>2026-04-20T08:51:28.481Z</time></trkpt><trkpt lat="44.7914442" lon="8.2583288"><ele>169.66666666666666</ele><time>2026-04-20T08:51:29.49Z</time></trkpt><trkpt lat="44.7913103" lon="8.2585204"><ele>168.0</ele><time>2026-04-20T08:51:30.49Z</time></trkpt><trkpt lat="44.7911834" lon="8.2587134"><ele>168.0</ele><time>2026-04-20T08:51:31.486Z</time></trkpt><trkpt lat="44.7910657" lon="8.2589057"><ele>168.0</ele><time>2026-04-20T08:51:32.493Z</time></trkpt><trkpt lat="44.7909515" lon="8.2590969"><ele>168.0</ele><time>2026-04-20T08:51:33.486Z</time></trkpt><trkpt lat="44.7908359" lon="8.2592855"><ele>167.33333333333334</ele><time>2026-04-20T08:51:34.489Z</time></trkpt><trkpt lat="44.7907197" lon="8.2594729"><ele>166.66666666666669</ele><time>2026-04-20T08:51:35.489Z</time></trkpt><trkpt lat="44.7906084" lon="8.259658"><ele>166.0</ele><time>2026-04-20T08:51:36.488Z</time></trkpt><trkpt lat="44.7904976" lon="8.2598468"><ele>165.33333333333334</ele><time>2026-04-20T08:51:37.495Z</time></trkpt><trkpt lat="44.7903856" lon="8.2600385"><ele>164.66666666666666</ele><time>2026-04-20T08:51:38.491Z</time></trkpt><trkpt lat="44.7902749" lon="8.2602273"><ele>164.0</ele><time>2026-04-20T08:51:39.493Z</time></trkpt><trkpt lat="44.7901613" lon="8.2604178"><ele>163.66666666666666</ele><time>2026-04-20T08:51:40.49Z</time></trkpt><trkpt lat="44.7900475" lon="8.2606087"><ele>163.33333333333334</ele><time>2026-04-20T08:51:41.492Z</time></trkpt><trkpt lat="44.7899335" lon="8.2607993"><ele>163.0</ele><time>2026-04-20T08:51:42.495Z</time></trkpt><trkpt lat="44.7898207" lon="8.260988"><ele>163.0</ele><time>2026-04-20T08:51:43.49Z</time></trkpt><trkpt lat="44.789708" lon="8.2611729"><ele>163.0</ele><time>2026-04-20T08:51:44.489Z</time></trkpt><trkpt lat="44.7895916" lon="8.2613583"><ele>163.0</ele><time>2026-04-20T08:51:45.496Z</time></trkpt><trkpt lat="44.7894702" lon="8.2615459"><ele>163.33333333333334</ele><time>2026-04-20T08:51:46.495Z</time></trkpt><trkpt lat="44.7893449" lon="8.2617435"><ele>163.66666666666666</ele><time>2026-04-20T08:51:47.499Z</time></trkpt><trkpt lat="44.7892188" lon="8.2619432"><ele>164.0</ele><time>2026-04-20T08:51:48.492Z</time></trkpt><trkpt lat="44.7890953" lon="8.2621405"><ele>162.66666666666666</ele><time>2026-04-20T08:51:49.49Z</time></trkpt><trkpt lat="44.7889745" lon="8.2623341"><ele>161.33333333333334</ele><time>2026-04-20T08:51:50.492Z</time></trkpt><trkpt lat="44.7888555" lon="8.2625209"><ele>160.0</ele><time>2026-04-20T08:51:51.493Z</time></trkpt><trkpt lat="44.7887388" lon="8.2627001"><ele>160.0</ele><time>2026-04-20T08:51:52.493Z</time></trkpt><trkpt lat="44.7886244" lon="8.2628773"><ele>160.0</ele><time>2026-04-20T08:51:53.495Z</time></trkpt><trkpt lat="44.7885114" lon="8.263054"><ele>160.0</ele><time>2026-04-20T08:51:54.495Z</time></trkpt><trkpt lat="44.7884012" lon="8.2632304"><ele>159.66666666666669</ele><time>2026-04-20T08:51:55.488Z</time></trkpt><trkpt lat="44.7882922" lon="8.2634074"><ele>159.33333333333334</ele><time>2026-04-20T08:51:56.49Z</time></trkpt><trkpt lat="44.7881815" lon="8.263584"><ele>159.0</ele><time>2026-04-20T08:51:57.492Z</time></trkpt><trkpt lat="44.7880695" lon="8.2637613"><ele>159.0</ele><time>2026-04-20T08:51:58.491Z</time></trkpt><trkpt lat="44.7879547" lon="8.2639431"><ele>159.0</ele><time>2026-04-20T08:51:59.494Z</time></trkpt><trkpt lat="44.7878381" lon="8.2641283"><ele>159.0</ele><time>2026-04-20T08:52:00.498Z</time></trkpt><trkpt lat="44.7877198" lon="8.2643198"><ele>159.0</ele><time>2026-04-20T08:52:01.493Z</time></trkpt><trkpt lat="44.7876012" lon="8.264513"><ele>159.0</ele><time>2026-04-20T08:52:02.491Z</time></trkpt><trkpt lat="44.7874807" lon="8.2647085"><ele>159.0</ele><time>2026-04-20T08:52:03.494Z</time></trkpt><trkpt lat="44.7873596" lon="8.2649025"><ele>158.66666666666666</ele><time>2026-04-20T08:52:04.492Z</time></trkpt><trkpt lat="44.7872355" lon="8.2651038"><ele>158.33333333333331</ele><time>2026-04-20T08:52:05.498Z</time></trkpt><trkpt lat="44.7871111" lon="8.265309"><ele>158.0</ele><time>2026-04-20T08:52:06.49Z</time></trkpt><trkpt lat="44.7869885" lon="8.2655141"><ele>158.33333333333331</ele><time>2026-04-20T08:52:07.491Z</time></trkpt><trkpt lat="44.7868669" lon="8.2657173"><ele>158.66666666666666</ele><time>2026-04-20T08:52:08.489Z</time></trkpt><trkpt lat="44.7867355" lon="8.2659345"><ele>159.0</ele><time>2026-04-20T08:52:09.484Z</time></trkpt><trkpt lat="44.7866073" lon="8.2661472"><ele>159.0</ele><time>2026-04-20T08:52:10.495Z</time></trkpt><trkpt lat="44.7864919" lon="8.2663418"><ele>159.0</ele><time>2026-04-20T08:52:11.483Z</time></trkpt><trkpt lat="44.7864079" lon="8.266485"><ele>159.0</ele><time>2026-04-20T08:52:12.487Z</time></trkpt><trkpt lat="44.7863127" lon="8.2666484"><ele>159.0</ele><time>2026-04-20T08:52:13.487Z</time></trkpt><trkpt lat="44.7862156" lon="8.266816"><ele>159.0</ele><time>2026-04-20T08:52:14.49Z</time></trkpt><trkpt lat="44.7861174" lon="8.2669879"><ele>159.0</ele><time>2026-04-20T08:52:15.496Z</time></trkpt><trkpt lat="44.7860176" lon="8.2671588"><ele>158.66666666666666</ele><time>2026-04-20T08:52:16.496Z</time></trkpt><trkpt lat="44.7859161" lon="8.2673376"><ele>158.33333333333331</ele><time>2026-04-20T08:52:17.488Z</time></trkpt><trkpt lat="44.7858116" lon="8.2675177"><ele>158.0</ele><time>2026-04-20T08:52:18.491Z</time></trkpt><trkpt lat="44.7857" lon="8.2677057"><ele>158.0</ele><time>2026-04-20T08:52:19.48Z</time></trkpt><trkpt lat="44.7855934" lon="8.2678882"><ele>158.0</ele><time>2026-04-20T08:52:20.472Z</time></trkpt><trkpt lat="44.7854756" lon="8.2680772"><ele>158.0</ele><time>2026-04-20T08:52:21.483Z</time></trkpt><trkpt lat="44.7853274" lon="8.2683036"><ele>158.0</ele><time>2026-04-20T08:52:22.484Z</time></trkpt><trkpt lat="44.7851885" lon="8.2685204"><ele>158.0</ele><time>2026-04-20T08:52:23.483Z</time></trkpt><trkpt lat="44.7850552" lon="8.2687306"><ele>158.0</ele><time>2026-04-20T08:52:24.486Z</time></trkpt><trkpt lat="44.7849233" lon="8.2689438"><ele>157.33333333333331</ele><time>2026-04-20T08:52:25.484Z</time></trkpt><trkpt lat="44.7847895" lon="8.2691606"><ele>156.66666666666666</ele><time>2026-04-20T08:52:26.487Z</time></trkpt><trkpt lat="44.7846587" lon="8.2693778"><ele>156.0</ele><time>2026-04-20T08:52:27.486Z</time></trkpt><trkpt lat="44.7845244" lon="8.2695962"><ele>155.66666666666666</ele><time>2026-04-20T08:52:28.483Z</time></trkpt><trkpt lat="44.7843876" lon="8.26982"><ele>155.33333333333331</ele><time>2026-04-20T08:52:29.48Z</time></trkpt><trkpt lat="44.7842496" lon="8.2700527"><ele>155.0</ele><time>2026-04-20T08:52:30.478Z</time></trkpt><trkpt lat="44.7841074" lon="8.2702887"><ele>156.5</ele><time>2026-04-20T08:52:31.482Z</time></trkpt><trkpt lat="44.7839639" lon="8.2705272"><ele>158.0</ele><time>2026-04-20T08:52:32.48Z</time></trkpt><trkpt lat="44.7838161" lon="8.2707722"><ele>158.5</ele><time>2026-04-20T08:52:33.484Z</time></trkpt><trkpt lat="44.78367" lon="8.2710105"><ele>159.0</ele><time>2026-04-20T08:52:34.487Z</time></trkpt><trkpt lat="44.783513" lon="8.2712662"><ele>157.66666666666666</ele><time>2026-04-20T08:52:35.485Z</time></trkpt><trkpt lat="44.7833624" lon="8.2714757"><ele>156.33333333333331</ele><time>2026-04-20T08:52:36.385Z</time></trkpt><trkpt lat="44.7832123" lon="8.2717122"><ele>155.0</ele><time>2026-04-20T08:52:37.375Z</time></trkpt><trkpt lat="44.7830766" lon="8.2719488"><ele>155.0</ele><time>2026-04-20T08:52:38.379Z</time></trkpt><trkpt lat="44.7829605" lon="8.2721665"><ele>155.0</ele><time>2026-04-20T08:52:39.379Z</time></trkpt><trkpt lat="44.7828258" lon="8.2723821"><ele>155.0</ele><time>2026-04-20T08:52:40.379Z</time></trkpt><trkpt lat="44.7826875" lon="8.2726104"><ele>155.0</ele><time>2026-04-20T08:52:41.381Z</time></trkpt><trkpt lat="44.7825453" lon="8.2728391"><ele>155.0</ele><time>2026-04-20T08:52:42.38Z</time></trkpt><trkpt lat="44.7824081" lon="8.2730603"><ele>155.0</ele><time>2026-04-20T08:52:43.384Z</time></trkpt><trkpt lat="44.7822832" lon="8.2732653"><ele>155.0</ele><time>2026-04-20T08:52:44.376Z</time></trkpt><trkpt lat="44.7821892" lon="8.2734257"><ele>155.0</ele><time>2026-04-20T08:52:45.367Z</time></trkpt><trkpt lat="44.7821121" lon="8.2735687"><ele>155.0</ele><time>2026-04-20T08:52:46.37Z</time></trkpt><trkpt lat="44.7820338" lon="8.273711"><ele>155.0</ele><time>2026-04-20T08:52:47.386Z</time></trkpt><trkpt lat="44.7819606" lon="8.2738328"><ele>154.66666666666666</ele><time>2026-04-20T08:52:48.38Z</time></trkpt><trkpt lat="44.7818674" lon="8.2739672"><ele>154.33333333333334</ele><time>2026-04-20T08:52:49.371Z</time></trkpt><trkpt lat="44.7817597" lon="8.2741563"><ele>154.0</ele><time>2026-04-20T08:52:50.378Z</time></trkpt><trkpt lat="44.7816311" lon="8.2743597"><ele>154.0</ele><time>2026-04-20T08:52:51.374Z</time></trkpt><trkpt lat="44.7814949" lon="8.2745907"><ele>154.0</ele><time>2026-04-20T08:52:52.389Z</time></trkpt><trkpt lat="44.7813494" lon="8.2748076"><ele>154.0</ele><time>2026-04-20T08:52:53.381Z</time></trkpt><trkpt lat="44.7812153" lon="8.2750199"><ele>153.66666666666669</ele><time>2026-04-20T08:52:54.375Z</time></trkpt><trkpt lat="44.7810691" lon="8.2752547"><ele>153.33333333333334</ele><time>2026-04-20T08:52:55.371Z</time></trkpt><trkpt lat="44.780922" lon="8.2754818"><ele>153.0</ele><time>2026-04-20T08:52:56.377Z</time></trkpt><trkpt lat="44.7807804" lon="8.2756959"><ele>153.66666666666666</ele><time>2026-04-20T08:52:57.378Z</time></trkpt><trkpt lat="44.7806295" lon="8.2759321"><ele>154.33333333333331</ele><time>2026-04-20T08:52:58.372Z</time></trkpt><trkpt lat="44.78049" lon="8.2761483"><ele>155.0</ele><time>2026-04-20T08:52:59.382Z</time></trkpt><trkpt lat="44.7803622" lon="8.2763681"><ele>154.0</ele><time>2026-04-20T08:53:00.383Z</time></trkpt><trkpt lat="44.7802414" lon="8.2765729"><ele>153.0</ele><time>2026-04-20T08:53:01.382Z</time></trkpt><trkpt lat="44.7801171" lon="8.2767881"><ele>152.0</ele><time>2026-04-20T08:53:02.39Z</time></trkpt><trkpt lat="44.779973" lon="8.2770033"><ele>152.0</ele><time>2026-04-20T08:53:03.386Z</time></trkpt><trkpt lat="44.7798193" lon="8.2772064"><ele>152.0</ele><time>2026-04-20T08:53:04.386Z</time></trkpt><trkpt lat="44.7796594" lon="8.2773901"><ele>152.0</ele><time>2026-04-20T08:53:05.386Z</time></trkpt><trkpt lat="44.7794915" lon="8.2775585"><ele>151.0</ele><time>2026-04-20T08:53:06.377Z</time></trkpt><trkpt lat="44.7793174" lon="8.2777088"><ele>150.0</ele><time>2026-04-20T08:53:07.381Z</time></trkpt><trkpt lat="44.7791332" lon="8.2778475"><ele>149.0</ele><time>2026-04-20T08:53:08.385Z</time></trkpt><trkpt lat="44.7789463" lon="8.2779699"><ele>149.0</ele><time>2026-04-20T08:53:09.386Z</time></trkpt><trkpt lat="44.7787666" lon="8.27807"><ele>149.0</ele><time>2026-04-20T08:53:10.383Z</time></trkpt><trkpt lat="44.7785889" lon="8.2781585"><ele>149.0</ele><time>2026-04-20T08:53:11.38Z</time></trkpt><trkpt lat="44.7784247" lon="8.2782236"><ele>149.0</ele><time>2026-04-20T08:53:12.384Z</time></trkpt><trkpt lat="44.7782593" lon="8.2782801"><ele>149.0</ele><time>2026-04-20T08:53:13.386Z</time></trkpt><trkpt lat="44.7780847" lon="8.2783256"><ele>149.0</ele><time>2026-04-20T08:53:14.402Z</time></trkpt><trkpt lat="44.7779289" lon="8.2783492"><ele>149.0</ele><time>2026-04-20T08:53:15.377Z</time></trkpt><trkpt lat="44.7777905" lon="8.2783736"><ele>149.0</ele><time>2026-04-20T08:53:16.389Z</time></trkpt><trkpt lat="44.7776746" lon="8.2783708"><ele>149.0</ele><time>2026-04-20T08:53:17.385Z</time></trkpt><trkpt lat="44.7775748" lon="8.2783564"><ele>149.0</ele><time>2026-04-20T08:53:18.385Z</time></trkpt><trkpt lat="44.777479" lon="8.2783082"><ele>149.2</ele><time>2026-04-20T08:53:19.378Z</time></trkpt><trkpt lat="44.7774027" lon="8.2782115"><ele>149.4</ele><time>2026-04-20T08:53:20.384Z</time></trkpt><trkpt lat="44.7773319" lon="8.2781252"><ele>149.6</ele><time>2026-04-20T08:53:21.382Z</time></trkpt><trkpt lat="44.7772633" lon="8.2780485"><ele>149.8</ele><time>2026-04-20T08:53:22.388Z</time></trkpt><trkpt lat="44.7771824" lon="8.2780652"><ele>150.0</ele><time>2026-04-20T08:53:23.401Z</time></trkpt><trkpt lat="44.7770973" lon="8.2781095"><ele>150.0</ele><time>2026-04-20T08:53:24.381Z</time></trkpt><trkpt lat="44.7770212" lon="8.2781686"><ele>150.0</ele><time>2026-04-20T08:53:25.397Z</time></trkpt><trkpt lat="44.7769827" lon="8.2782849"><ele>150.0</ele><time>2026-04-20T08:53:26.389Z</time></trkpt><trkpt lat="44.7769802" lon="8.2784386"><ele>150.0</ele><time>2026-04-20T08:53:27.377Z</time></trkpt><trkpt lat="44.7769958" lon="8.2785995"><ele>150.0</ele><time>2026-04-20T08:53:28.38Z</time></trkpt><trkpt lat="44.7770241" lon="8.2787821"><ele>150.33333333333334</ele><time>2026-04-20T08:53:29.372Z</time></trkpt><trkpt lat="44.7770348" lon="8.2789989"><ele>150.66666666666669</ele><time>2026-04-20T08:53:30.381Z</time></trkpt><trkpt lat="44.7770345" lon="8.2792327"><ele>151.0</ele><time>2026-04-20T08:53:31.373Z</time></trkpt><trkpt lat="44.7770278" lon="8.2794698"><ele>151.0</ele><time>2026-04-20T08:53:32.379Z</time></trkpt><trkpt lat="44.7770046" lon="8.279731"><ele>151.0</ele><time>2026-04-20T08:53:33.38Z</time></trkpt><trkpt lat="44.77699" lon="8.2799794"><ele>151.0</ele><time>2026-04-20T08:53:34.381Z</time></trkpt><trkpt lat="44.7769673" lon="8.28024"><ele>151.0</ele><time>2026-04-20T08:53:35.378Z</time></trkpt><trkpt lat="44.7769695" lon="8.2805065"><ele>151.0</ele><time>2026-04-20T08:53:36.389Z</time></trkpt><trkpt lat="44.7769387" lon="8.2807917"><ele>151.0</ele><time>2026-04-20T08:53:37.386Z</time></trkpt><trkpt lat="44.7769151" lon="8.2810758"><ele>150.0</ele><time>2026-04-20T08:53:38.386Z</time></trkpt><trkpt lat="44.7768893" lon="8.2813514"><ele>149.0</ele><time>2026-04-20T08:53:39.393Z</time></trkpt><trkpt lat="44.7768622" lon="8.281628"><ele>148.0</ele><time>2026-04-20T08:53:40.388Z</time></trkpt><trkpt lat="44.776839" lon="8.2819143"><ele>148.0</ele><time>2026-04-20T08:53:41.385Z</time></trkpt><trkpt lat="44.7768105" lon="8.2821969"><ele>148.0</ele><time>2026-04-20T08:53:42.38Z</time></trkpt><trkpt lat="44.7767952" lon="8.2824869"><ele>148.0</ele><time>2026-04-20T08:53:43.385Z</time></trkpt><trkpt lat="44.7767806" lon="8.2827811"><ele>148.0</ele><time>2026-04-20T08:53:44.386Z</time></trkpt><trkpt lat="44.776768" lon="8.2830799"><ele>148.0</ele><time>2026-04-20T08:53:45.387Z</time></trkpt><trkpt lat="44.7767389" lon="8.283385"><ele>148.0</ele><time>2026-04-20T08:53:46.379Z</time></trkpt><trkpt lat="44.7767037" lon="8.2836843"><ele>147.66666666666669</ele><time>2026-04-20T08:53:47.39Z</time></trkpt><trkpt lat="44.7766889" lon="8.2839978"><ele>147.33333333333334</ele><time>2026-04-20T08:53:48.395Z</time></trkpt><trkpt lat="44.7766512" lon="8.2843041"><ele>147.0</ele><time>2026-04-20T08:53:49.398Z</time></trkpt><trkpt lat="44.7766299" lon="8.2846047"><ele>146.33333333333334</ele><time>2026-04-20T08:53:50.391Z</time></trkpt><trkpt lat="44.7766137" lon="8.28491"><ele>145.66666666666669</ele><time>2026-04-20T08:53:51.388Z</time></trkpt><trkpt lat="44.7765951" lon="8.2852291"><ele>145.0</ele><time>2026-04-20T08:53:52.394Z</time></trkpt><trkpt lat="44.7765748" lon="8.2855381"><ele>145.0</ele><time>2026-04-20T08:53:53.392Z</time></trkpt><trkpt lat="44.7765609" lon="8.2858441"><ele>145.0</ele><time>2026-04-20T08:53:54.4Z</time></trkpt><trkpt lat="44.7765328" lon="8.2861491"><ele>145.0</ele><time>2026-04-20T08:53:55.4Z</time></trkpt><trkpt lat="44.77651" lon="8.2864511"><ele>145.33333333333334</ele><time>2026-04-20T08:53:56.396Z</time></trkpt><trkpt lat="44.7764792" lon="8.2867622"><ele>145.66666666666666</ele><time>2026-04-20T08:53:57.401Z</time></trkpt><trkpt lat="44.7764611" lon="8.2870683"><ele>146.0</ele><time>2026-04-20T08:53:58.399Z</time></trkpt><trkpt lat="44.7764479" lon="8.2873656"><ele>146.0</ele><time>2026-04-20T08:53:59.398Z</time></trkpt><trkpt lat="44.776419" lon="8.2876428"><ele>146.0</ele><time>2026-04-20T08:54:00.399Z</time></trkpt><trkpt lat="44.7764194" lon="8.2879141"><ele>146.0</ele><time>2026-04-20T08:54:01.394Z</time></trkpt><trkpt lat="44.7763938" lon="8.2881793"><ele>146.0</ele><time>2026-04-20T08:54:02.392Z</time></trkpt><trkpt lat="44.7763743" lon="8.2884495"><ele>146.0</ele><time>2026-04-20T08:54:03.394Z</time></trkpt><trkpt lat="44.7763615" lon="8.2887253"><ele>146.0</ele><time>2026-04-20T08:54:04.396Z</time></trkpt><trkpt lat="44.7763469" lon="8.2889909"><ele>146.0</ele><time>2026-04-20T08:54:05.425Z</time></trkpt><trkpt lat="44.7763296" lon="8.2892624"><ele>146.0</ele><time>2026-04-20T08:54:06.497Z</time></trkpt><trkpt lat="44.7763102" lon="8.2895236"><ele>146.0</ele><time>2026-04-20T08:54:07.497Z</time></trkpt><trkpt lat="44.7762923" lon="8.2897788"><ele>146.33333333333331</ele><time>2026-04-20T08:54:08.488Z</time></trkpt><trkpt lat="44.7762759" lon="8.2900319"><ele>146.66666666666666</ele><time>2026-04-20T08:54:09.5Z</time></trkpt><trkpt lat="44.7762626" lon="8.2902864"><ele>147.0</ele><time>2026-04-20T08:54:10.495Z</time></trkpt><trkpt lat="44.7762516" lon="8.2905577"><ele>147.0</ele><time>2026-04-20T08:54:11.492Z</time></trkpt><trkpt lat="44.7762413" lon="8.2908519"><ele>147.0</ele><time>2026-04-20T08:54:12.489Z</time></trkpt><trkpt lat="44.7762235" lon="8.2911756"><ele>147.0</ele><time>2026-04-20T08:54:13.489Z</time></trkpt><trkpt lat="44.776198" lon="8.2915012"><ele>146.0</ele><time>2026-04-20T08:54:14.504Z</time></trkpt><trkpt lat="44.776169" lon="8.2918417"><ele>145.0</ele><time>2026-04-20T08:54:15.5Z</time></trkpt><trkpt lat="44.7761385" lon="8.2921804"><ele>144.5</ele><time>2026-04-20T08:54:16.503Z</time></trkpt><trkpt lat="44.7761115" lon="8.2925214"><ele>144.0</ele><time>2026-04-20T08:54:17.499Z</time></trkpt><trkpt lat="44.7760885" lon="8.2928467"><ele>145.0</ele><time>2026-04-20T08:54:18.497Z</time></trkpt><trkpt lat="44.7760699" lon="8.2931716"><ele>146.0</ele><time>2026-04-20T08:54:19.495Z</time></trkpt><trkpt lat="44.7760538" lon="8.2935005"><ele>146.0</ele><time>2026-04-20T08:54:20.499Z</time></trkpt><trkpt lat="44.7760351" lon="8.293826"><ele>146.0</ele><time>2026-04-20T08:54:21.491Z</time></trkpt><trkpt lat="44.7760096" lon="8.2941478"><ele>145.5</ele><time>2026-04-20T08:54:22.494Z</time></trkpt><trkpt lat="44.7759788" lon="8.2944681"><ele>145.0</ele><time>2026-04-20T08:54:23.49Z</time></trkpt><trkpt lat="44.7759465" lon="8.294788"><ele>145.0</ele><time>2026-04-20T08:54:24.497Z</time></trkpt><trkpt lat="44.7759173" lon="8.2951107"><ele>145.0</ele><time>2026-04-20T08:54:25.486Z</time></trkpt><trkpt lat="44.7758924" lon="8.2954328"><ele>145.0</ele><time>2026-04-20T08:54:26.493Z</time></trkpt><trkpt lat="44.7758674" lon="8.2957511"><ele>145.0</ele><time>2026-04-20T08:54:27.494Z</time></trkpt><trkpt lat="44.775845" lon="8.2960703"><ele>145.0</ele><time>2026-04-20T08:54:28.486Z</time></trkpt><trkpt lat="44.7758251" lon="8.2963875"><ele>145.0</ele><time>2026-04-20T08:54:29.495Z</time></trkpt><trkpt lat="44.7758059" lon="8.296702"><ele>145.0</ele><time>2026-04-20T08:54:30.49Z</time></trkpt><trkpt lat="44.7757867" lon="8.2970144"><ele>145.0</ele><time>2026-04-20T08:54:31.487Z</time></trkpt><trkpt lat="44.7757651" lon="8.2973155"><ele>145.0</ele><time>2026-04-20T08:54:32.482Z</time></trkpt><trkpt lat="44.7757421" lon="8.2976015"><ele>145.0</ele><time>2026-04-20T08:54:33.487Z</time></trkpt><trkpt lat="44.775721" lon="8.2978711"><ele>145.0</ele><time>2026-04-20T08:54:34.493Z</time></trkpt><trkpt lat="44.7756996" lon="8.2981261"><ele>145.0</ele><time>2026-04-20T08:54:35.494Z</time></trkpt><trkpt lat="44.7756768" lon="8.2983698"><ele>145.0</ele><time>2026-04-20T08:54:36.496Z</time></trkpt><trkpt lat="44.7756549" lon="8.2985924"><ele>145.0</ele><time>2026-04-20T08:54:37.49Z</time></trkpt><trkpt lat="44.7756322" lon="8.298798"><ele>145.0</ele><time>2026-04-20T08:54:38.498Z</time></trkpt><trkpt lat="44.7756082" lon="8.2989956"><ele>145.0</ele><time>2026-04-20T08:54:39.492Z</time></trkpt><trkpt lat="44.7755781" lon="8.299197"><ele>145.0</ele><time>2026-04-20T08:54:40.492Z</time></trkpt><trkpt lat="44.7755436" lon="8.2994039"><ele>145.0</ele><time>2026-04-20T08:54:41.49Z</time></trkpt><trkpt lat="44.7755036" lon="8.2996086"><ele>145.0</ele><time>2026-04-20T08:54:42.5Z</time></trkpt><trkpt lat="44.7754572" lon="8.2998188"><ele>144.66666666666669</ele><time>2026-04-20T08:54:43.501Z</time></trkpt><trkpt lat="44.7754037" lon="8.3000287"><ele>144.33333333333334</ele><time>2026-04-20T08:54:44.5Z</time></trkpt><trkpt lat="44.7753451" lon="8.3002429"><ele>144.0</ele><time>2026-04-20T08:54:45.505Z</time></trkpt><trkpt lat="44.7752843" lon="8.3004498"><ele>143.66666666666666</ele><time>2026-04-20T08:54:46.512Z</time></trkpt><trkpt lat="44.7752179" lon="8.3006591"><ele>143.33333333333331</ele><time>2026-04-20T08:54:47.518Z</time></trkpt><trkpt lat="44.775147" lon="8.3008641"><ele>143.0</ele><time>2026-04-20T08:54:48.508Z</time></trkpt><trkpt lat="44.7750672" lon="8.3010636"><ele>142.66666666666666</ele><time>2026-04-20T08:54:49.514Z</time></trkpt><trkpt lat="44.7749789" lon="8.3012648"><ele>142.33333333333334</ele><time>2026-04-20T08:54:50.519Z</time></trkpt><trkpt lat="44.7748865" lon="8.3014676"><ele>142.0</ele><time>2026-04-20T08:54:51.522Z</time></trkpt><trkpt lat="44.7747954" lon="8.3016702"><ele>142.0</ele><time>2026-04-20T08:54:52.522Z</time></trkpt><trkpt lat="44.7747013" lon="8.3018718"><ele>142.0</ele><time>2026-04-20T08:54:53.512Z</time></trkpt><trkpt lat="44.7746047" lon="8.3020683"><ele>142.0</ele><time>2026-04-20T08:54:54.522Z</time></trkpt><trkpt lat="44.7745079" lon="8.3022593"><ele>142.33333333333334</ele><time>2026-04-20T08:54:55.507Z</time></trkpt><trkpt lat="44.7744056" lon="8.3024477"><ele>142.66666666666666</ele><time>2026-04-20T08:54:56.508Z</time></trkpt><trkpt lat="44.7742984" lon="8.3026315"><ele>143.0</ele><time>2026-04-20T08:54:57.507Z</time></trkpt><trkpt lat="44.7741927" lon="8.3028017"><ele>143.33333333333331</ele><time>2026-04-20T08:54:58.514Z</time></trkpt><trkpt lat="44.7740844" lon="8.3029636"><ele>143.66666666666666</ele><time>2026-04-20T08:54:59.516Z</time></trkpt><trkpt lat="44.7739744" lon="8.303119"><ele>144.0</ele><time>2026-04-20T08:55:00.509Z</time></trkpt><trkpt lat="44.7738626" lon="8.3032799"><ele>144.0</ele><time>2026-04-20T08:55:01.508Z</time></trkpt><trkpt lat="44.7737514" lon="8.3034393"><ele>144.0</ele><time>2026-04-20T08:55:02.509Z</time></trkpt><trkpt lat="44.7736398" lon="8.3035977"><ele>144.0</ele><time>2026-04-20T08:55:03.512Z</time></trkpt><trkpt lat="44.7735254" lon="8.3037565"><ele>144.0</ele><time>2026-04-20T08:55:04.51Z</time></trkpt><trkpt lat="44.7734097" lon="8.3039178"><ele>144.0</ele><time>2026-04-20T08:55:05.512Z</time></trkpt><trkpt lat="44.7732947" lon="8.3040787"><ele>144.0</ele><time>2026-04-20T08:55:06.514Z</time></trkpt><trkpt lat="44.7731805" lon="8.3042422"><ele>144.0</ele><time>2026-04-20T08:55:07.515Z</time></trkpt><trkpt lat="44.7730653" lon="8.3044047"><ele>144.0</ele><time>2026-04-20T08:55:08.514Z</time></trkpt><trkpt lat="44.7729461" lon="8.304569"><ele>144.0</ele><time>2026-04-20T08:55:09.516Z</time></trkpt><trkpt lat="44.772827" lon="8.3047351"><ele>143.66666666666666</ele><time>2026-04-20T08:55:10.515Z</time></trkpt><trkpt lat="44.7727112" lon="8.3048972"><ele>143.33333333333331</ele><time>2026-04-20T08:55:11.519Z</time></trkpt><trkpt lat="44.7725946" lon="8.3050663"><ele>143.0</ele><time>2026-04-20T08:55:12.518Z</time></trkpt><trkpt lat="44.7724792" lon="8.3052366"><ele>143.66666666666666</ele><time>2026-04-20T08:55:13.515Z</time></trkpt><trkpt lat="44.7723627" lon="8.3054055"><ele>144.33333333333334</ele><time>2026-04-20T08:55:14.529Z</time></trkpt><trkpt lat="44.7722488" lon="8.3055711"><ele>145.0</ele><time>2026-04-20T08:55:15.521Z</time></trkpt><trkpt lat="44.7721319" lon="8.3057399"><ele>145.0</ele><time>2026-04-20T08:55:16.523Z</time></trkpt><trkpt lat="44.7720161" lon="8.3059092"><ele>145.0</ele><time>2026-04-20T08:55:17.526Z</time></trkpt><trkpt lat="44.7719016" lon="8.3060772"><ele>145.0</ele><time>2026-04-20T08:55:18.524Z</time></trkpt><trkpt lat="44.771783" lon="8.3062462"><ele>145.0</ele><time>2026-04-20T08:55:19.526Z</time></trkpt><trkpt lat="44.7716669" lon="8.3064129"><ele>145.0</ele><time>2026-04-20T08:55:20.522Z</time></trkpt><trkpt lat="44.7715518" lon="8.3065748"><ele>145.0</ele><time>2026-04-20T08:55:21.516Z</time></trkpt><trkpt lat="44.7714331" lon="8.3067374"><ele>145.0</ele><time>2026-04-20T08:55:22.527Z</time></trkpt><trkpt lat="44.7713131" lon="8.3069022"><ele>145.0</ele><time>2026-04-20T08:55:23.511Z</time></trkpt><trkpt lat="44.7711971" lon="8.3070643"><ele>145.0</ele><time>2026-04-20T08:55:24.521Z</time></trkpt><trkpt lat="44.7710834" lon="8.307224"><ele>145.33333333333334</ele><time>2026-04-20T08:55:25.515Z</time></trkpt><trkpt lat="44.7709675" lon="8.3073833"><ele>145.66666666666666</ele><time>2026-04-20T08:55:26.522Z</time></trkpt><trkpt lat="44.7708547" lon="8.3075455"><ele>146.0</ele><time>2026-04-20T08:55:27.516Z</time></trkpt><trkpt lat="44.7707424" lon="8.3077192"><ele>146.0</ele><time>2026-04-20T08:55:28.515Z</time></trkpt><trkpt lat="44.770649" lon="8.3079073"><ele>146.0</ele><time>2026-04-20T08:55:29.492Z</time></trkpt><trkpt lat="44.7705814" lon="8.3081082"><ele>146.0</ele><time>2026-04-20T08:55:30.482Z</time></trkpt><trkpt lat="44.7705292" lon="8.3083254"><ele>146.33333333333331</ele><time>2026-04-20T08:55:31.471Z</time></trkpt><trkpt lat="44.7704913" lon="8.308551"><ele>146.66666666666666</ele><time>2026-04-20T08:55:32.476Z</time></trkpt><trkpt lat="44.7704655" lon="8.3087795"><ele>147.0</ele><time>2026-04-20T08:55:33.47Z</time></trkpt><trkpt lat="44.7704435" lon="8.30901"><ele>147.66666666666666</ele><time>2026-04-20T08:55:34.473Z</time></trkpt><trkpt lat="44.770431" lon="8.3092294"><ele>148.33333333333331</ele><time>2026-04-20T08:55:35.505Z</time></trkpt><trkpt lat="44.7704178" lon="8.309445"><ele>149.0</ele><time>2026-04-20T08:55:36.498Z</time></trkpt><trkpt lat="44.7704017" lon="8.3096633"><ele>148.66666666666666</ele><time>2026-04-20T08:55:37.49Z</time></trkpt><trkpt lat="44.7703862" lon="8.3098802"><ele>148.33333333333334</ele><time>2026-04-20T08:55:38.501Z</time></trkpt><trkpt lat="44.7703702" lon="8.3100987"><ele>148.0</ele><time>2026-04-20T08:55:39.5Z</time></trkpt><trkpt lat="44.7703543" lon="8.3103204"><ele>148.0</ele><time>2026-04-20T08:55:40.496Z</time></trkpt><trkpt lat="44.7703374" lon="8.3105457"><ele>148.0</ele><time>2026-04-20T08:55:41.5Z</time></trkpt><trkpt lat="44.7703225" lon="8.3107707"><ele>148.0</ele><time>2026-04-20T08:55:42.496Z</time></trkpt><trkpt lat="44.7703069" lon="8.3109965"><ele>148.0</ele><time>2026-04-20T08:55:43.5Z</time></trkpt><trkpt lat="44.7702883" lon="8.3112268"><ele>148.0</ele><time>2026-04-20T08:55:44.505Z</time></trkpt><trkpt lat="44.7702686" lon="8.3114599"><ele>148.0</ele><time>2026-04-20T08:55:45.502Z</time></trkpt><trkpt lat="44.7702531" lon="8.3116914"><ele>148.0</ele><time>2026-04-20T08:55:46.502Z</time></trkpt><trkpt lat="44.7702378" lon="8.3119231"><ele>148.0</ele><time>2026-04-20T08:55:47.505Z</time></trkpt><trkpt lat="44.7702185" lon="8.3121651"><ele>148.0</ele><time>2026-04-20T08:55:48.497Z</time></trkpt><trkpt lat="44.7702006" lon="8.3124028"><ele>146.33333333333334</ele><time>2026-04-20T08:55:49.499Z</time></trkpt><trkpt lat="44.7701831" lon="8.3126498"><ele>144.66666666666666</ele><time>2026-04-20T08:55:50.508Z</time></trkpt><trkpt lat="44.770164" lon="8.3128986"><ele>143.0</ele><time>2026-04-20T08:55:51.504Z</time></trkpt><trkpt lat="44.7701467" lon="8.3131489"><ele>143.0</ele><time>2026-04-20T08:55:52.507Z</time></trkpt><trkpt lat="44.770131" lon="8.313401"><ele>143.0</ele><time>2026-04-20T08:55:53.501Z</time></trkpt><trkpt lat="44.7701163" lon="8.3136524"><ele>143.0</ele><time>2026-04-20T08:55:54.507Z</time></trkpt><trkpt lat="44.7700986" lon="8.3139042"><ele>143.33333333333331</ele><time>2026-04-20T08:55:55.498Z</time></trkpt><trkpt lat="44.7700799" lon="8.3141563"><ele>143.66666666666666</ele><time>2026-04-20T08:55:56.501Z</time></trkpt><trkpt lat="44.7700596" lon="8.3144094"><ele>144.0</ele><time>2026-04-20T08:55:57.502Z</time></trkpt><trkpt lat="44.7700402" lon="8.3146658"><ele>144.33333333333334</ele><time>2026-04-20T08:55:58.495Z</time></trkpt><trkpt lat="44.7700209" lon="8.3149199"><ele>144.66666666666669</ele><time>2026-04-20T08:55:59.509Z</time></trkpt><trkpt lat="44.7699994" lon="8.3151781"><ele>145.0</ele><time>2026-04-20T08:56:00.51Z</time></trkpt><trkpt lat="44.7699767" lon="8.3154382"><ele>144.66666666666669</ele><time>2026-04-20T08:56:01.508Z</time></trkpt><trkpt lat="44.7699555" lon="8.3156993"><ele>144.33333333333334</ele><time>2026-04-20T08:56:02.5Z</time></trkpt><trkpt lat="44.7699359" lon="8.3159525"><ele>144.0</ele><time>2026-04-20T08:56:03.502Z</time></trkpt><trkpt lat="44.7699172" lon="8.3162084"><ele>143.66666666666666</ele><time>2026-04-20T08:56:04.504Z</time></trkpt><trkpt lat="44.7699008" lon="8.3164712"><ele>143.33333333333331</ele><time>2026-04-20T08:56:05.5Z</time></trkpt><trkpt lat="44.7698828" lon="8.3167342"><ele>143.0</ele><time>2026-04-20T08:56:06.5Z</time></trkpt><trkpt lat="44.7698654" lon="8.3170022"><ele>143.0</ele><time>2026-04-20T08:56:07.503Z</time></trkpt><trkpt lat="44.7698453" lon="8.3172708"><ele>143.0</ele><time>2026-04-20T08:56:08.494Z</time></trkpt><trkpt lat="44.7698277" lon="8.3175391"><ele>143.0</ele><time>2026-04-20T08:56:09.503Z</time></trkpt><trkpt lat="44.7698083" lon="8.3178098"><ele>142.66666666666666</ele><time>2026-04-20T08:56:10.496Z</time></trkpt><trkpt lat="44.7697886" lon="8.3180853"><ele>142.33333333333334</ele><time>2026-04-20T08:56:11.496Z</time></trkpt><trkpt lat="44.7697668" lon="8.3183606"><ele>142.0</ele><time>2026-04-20T08:56:12.497Z</time></trkpt><trkpt lat="44.7697446" lon="8.3186277"><ele>142.0</ele><time>2026-04-20T08:56:13.501Z</time></trkpt><trkpt lat="44.7697222" lon="8.3188935"><ele>142.0</ele><time>2026-04-20T08:56:14.512Z</time></trkpt><trkpt lat="44.7697006" lon="8.3191655"><ele>142.0</ele><time>2026-04-20T08:56:15.506Z</time></trkpt><trkpt lat="44.7696805" lon="8.3194437"><ele>142.0</ele><time>2026-04-20T08:56:16.515Z</time></trkpt><trkpt lat="44.7696575" lon="8.3197236"><ele>142.0</ele><time>2026-04-20T08:56:17.513Z</time></trkpt><trkpt lat="44.7696347" lon="8.3200062"><ele>142.0</ele><time>2026-04-20T08:56:18.503Z</time></trkpt><trkpt lat="44.7696147" lon="8.3202872"><ele>142.33333333333334</ele><time>2026-04-20T08:56:19.504Z</time></trkpt><trkpt lat="44.7695938" lon="8.3205691"><ele>142.66666666666666</ele><time>2026-04-20T08:56:20.513Z</time></trkpt><trkpt lat="44.769574" lon="8.3208496"><ele>143.0</ele><time>2026-04-20T08:56:21.509Z</time></trkpt><trkpt lat="44.7695537" lon="8.3211283"><ele>143.33333333333331</ele><time>2026-04-20T08:56:22.506Z</time></trkpt><trkpt lat="44.7695314" lon="8.3214046"><ele>143.66666666666666</ele><time>2026-04-20T08:56:23.512Z</time></trkpt><trkpt lat="44.769509" lon="8.3216797"><ele>144.0</ele><time>2026-04-20T08:56:24.509Z</time></trkpt><trkpt lat="44.7694866" lon="8.3219536"><ele>144.0</ele><time>2026-04-20T08:56:25.502Z</time></trkpt><trkpt lat="44.7694642" lon="8.3222283"><ele>144.0</ele><time>2026-04-20T08:56:26.5Z</time></trkpt><trkpt lat="44.7694447" lon="8.3225022"><ele>144.0</ele><time>2026-04-20T08:56:27.505Z</time></trkpt><trkpt lat="44.7694237" lon="8.322771"><ele>147.33333333333334</ele><time>2026-04-20T08:56:28.496Z</time></trkpt><trkpt lat="44.7694065" lon="8.323028"><ele>150.66666666666669</ele><time>2026-04-20T08:56:29.502Z</time></trkpt><trkpt lat="44.7693886" lon="8.3232786"><ele>154.0</ele><time>2026-04-20T08:56:30.499Z</time></trkpt><trkpt lat="44.7693704" lon="8.32352"><ele>150.0</ele><time>2026-04-20T08:56:31.498Z</time></trkpt><trkpt lat="44.7693537" lon="8.3237523"><ele>146.0</ele><time>2026-04-20T08:56:32.501Z</time></trkpt><trkpt lat="44.7693421" lon="8.3239936"><ele>142.0</ele><time>2026-04-20T08:56:33.49Z</time></trkpt><trkpt lat="44.7693317" lon="8.3242545"><ele>142.0</ele><time>2026-04-20T08:56:34.492Z</time></trkpt><trkpt lat="44.7693146" lon="8.3245274"><ele>142.0</ele><time>2026-04-20T08:56:35.489Z</time></trkpt><trkpt lat="44.7692918" lon="8.324799"><ele>142.0</ele><time>2026-04-20T08:56:36.491Z</time></trkpt><trkpt lat="44.7692651" lon="8.3250757"><ele>142.0</ele><time>2026-04-20T08:56:37.494Z</time></trkpt><trkpt lat="44.7692403" lon="8.3253515"><ele>142.0</ele><time>2026-04-20T08:56:38.493Z</time></trkpt><trkpt lat="44.7692139" lon="8.32563"><ele>142.0</ele><time>2026-04-20T08:56:39.492Z</time></trkpt><trkpt lat="44.7691878" lon="8.3259087"><ele>142.0</ele><time>2026-04-20T08:56:40.495Z</time></trkpt><trkpt lat="44.7691661" lon="8.3261823"><ele>142.0</ele><time>2026-04-20T08:56:41.482Z</time></trkpt><trkpt lat="44.7691458" lon="8.3264595"><ele>142.0</ele><time>2026-04-20T08:56:42.498Z</time></trkpt><trkpt lat="44.7691361" lon="8.3267372"><ele>142.0</ele><time>2026-04-20T08:56:43.482Z</time></trkpt><trkpt lat="44.7691356" lon="8.3270193"><ele>142.0</ele><time>2026-04-20T08:56:44.49Z</time></trkpt><trkpt lat="44.7691475" lon="8.3273008"><ele>142.0</ele><time>2026-04-20T08:56:45.49Z</time></trkpt><trkpt lat="44.7691711" lon="8.3275796"><ele>141.66666666666669</ele><time>2026-04-20T08:56:46.489Z</time></trkpt><trkpt lat="44.7692049" lon="8.3278581"><ele>141.33333333333334</ele><time>2026-04-20T08:56:47.484Z</time></trkpt><trkpt lat="44.7692475" lon="8.3281373"><ele>141.0</ele><time>2026-04-20T08:56:48.49Z</time></trkpt><trkpt lat="44.7692906" lon="8.3284106"><ele>141.0</ele><time>2026-04-20T08:56:49.486Z</time></trkpt><trkpt lat="44.7693309" lon="8.3286867"><ele>141.0</ele><time>2026-04-20T08:56:50.486Z</time></trkpt><trkpt lat="44.7693717" lon="8.3289574"><ele>141.0</ele><time>2026-04-20T08:56:51.492Z</time></trkpt><trkpt lat="44.7694119" lon="8.3292244"><ele>140.33333333333334</ele><time>2026-04-20T08:56:52.49Z</time></trkpt><trkpt lat="44.76945" lon="8.3294934"><ele>139.66666666666669</ele><time>2026-04-20T08:56:53.499Z</time></trkpt><trkpt lat="44.7694858" lon="8.329769"><ele>139.0</ele><time>2026-04-20T08:56:54.486Z</time></trkpt><trkpt lat="44.7695206" lon="8.330044"><ele>139.0</ele><time>2026-04-20T08:56:55.49Z</time></trkpt><trkpt lat="44.7695568" lon="8.3303183"><ele>139.0</ele><time>2026-04-20T08:56:56.486Z</time></trkpt><trkpt lat="44.7695958" lon="8.3305914"><ele>139.0</ele><time>2026-04-20T08:56:57.482Z</time></trkpt><trkpt lat="44.7696339" lon="8.3308704"><ele>138.66666666666669</ele><time>2026-04-20T08:56:58.494Z</time></trkpt><trkpt lat="44.7696748" lon="8.3311446"><ele>138.33333333333334</ele><time>2026-04-20T08:56:59.494Z</time></trkpt><trkpt lat="44.7697144" lon="8.3314193"><ele>138.0</ele><time>2026-04-20T08:57:00.502Z</time></trkpt><trkpt lat="44.7697534" lon="8.3316927"><ele>138.66666666666666</ele><time>2026-04-20T08:57:01.489Z</time></trkpt><trkpt lat="44.7697946" lon="8.3319658"><ele>139.33333333333331</ele><time>2026-04-20T08:57:02.485Z</time></trkpt><trkpt lat="44.7698344" lon="8.3322357"><ele>140.0</ele><time>2026-04-20T08:57:03.489Z</time></trkpt><trkpt lat="44.7698688" lon="8.332504"><ele>140.0</ele><time>2026-04-20T08:57:04.49Z</time></trkpt><trkpt lat="44.7699049" lon="8.3327765"><ele>140.0</ele><time>2026-04-20T08:57:05.497Z</time></trkpt><trkpt lat="44.7699423" lon="8.333052"><ele>140.0</ele><time>2026-04-20T08:57:06.494Z</time></trkpt><trkpt lat="44.7699784" lon="8.3333311"><ele>139.33333333333331</ele><time>2026-04-20T08:57:07.503Z</time></trkpt><trkpt lat="44.7700163" lon="8.3336062"><ele>138.66666666666666</ele><time>2026-04-20T08:57:08.489Z</time></trkpt><trkpt lat="44.7700541" lon="8.3338805"><ele>138.0</ele><time>2026-04-20T08:57:09.501Z</time></trkpt><trkpt lat="44.7700901" lon="8.3341524"><ele>138.33333333333334</ele><time>2026-04-20T08:57:10.498Z</time></trkpt><trkpt lat="44.7701253" lon="8.334424"><ele>138.66666666666669</ele><time>2026-04-20T08:57:11.498Z</time></trkpt><trkpt lat="44.7701618" lon="8.3346986"><ele>139.0</ele><time>2026-04-20T08:57:12.486Z</time></trkpt><trkpt lat="44.7701999" lon="8.3349651"><ele>139.0</ele><time>2026-04-20T08:57:13.495Z</time></trkpt><trkpt lat="44.7702358" lon="8.3352135"><ele>139.0</ele><time>2026-04-20T08:57:14.488Z</time></trkpt><trkpt lat="44.7702694" lon="8.3354517"><ele>139.0</ele><time>2026-04-20T08:57:15.492Z</time></trkpt><trkpt lat="44.7703017" lon="8.3356832"><ele>139.0</ele><time>2026-04-20T08:57:16.504Z</time></trkpt><trkpt lat="44.7703311" lon="8.3359119"><ele>139.0</ele><time>2026-04-20T08:57:17.488Z</time></trkpt><trkpt lat="44.7703582" lon="8.3361263"><ele>139.0</ele><time>2026-04-20T08:57:18.483Z</time></trkpt><trkpt lat="44.7703798" lon="8.3363256"><ele>139.25</ele><time>2026-04-20T08:57:19.472Z</time></trkpt><trkpt lat="44.7703897" lon="8.3365126"><ele>139.5</ele><time>2026-04-20T08:57:20.475Z</time></trkpt><trkpt lat="44.7703831" lon="8.3366866"><ele>139.75</ele><time>2026-04-20T08:57:21.472Z</time></trkpt><trkpt lat="44.7703601" lon="8.3368543"><ele>140.0</ele><time>2026-04-20T08:57:22.478Z</time></trkpt><trkpt lat="44.7703126" lon="8.3369806"><ele>140.0</ele><time>2026-04-20T08:57:23.471Z</time></trkpt><trkpt lat="44.770245" lon="8.3370681"><ele>140.0</ele><time>2026-04-20T08:57:24.471Z</time></trkpt><trkpt lat="44.770179" lon="8.3371599"><ele>140.0</ele><time>2026-04-20T08:57:25.468Z</time></trkpt><trkpt lat="44.7701312" lon="8.3372615"><ele>140.0</ele><time>2026-04-20T08:57:26.456Z</time></trkpt><trkpt lat="44.7701177" lon="8.3373777"><ele>140.0</ele><time>2026-04-20T08:57:27.493Z</time></trkpt><trkpt lat="44.7701225" lon="8.3374966"><ele>140.0</ele><time>2026-04-20T08:57:28.48Z</time></trkpt><trkpt lat="44.7700947" lon="8.3377952"><ele>143.33333333333331</ele><time>2026-04-20T08:57:30.374Z</time></trkpt><trkpt lat="44.7700557" lon="8.3379784"><ele>146.66666666666666</ele><time>2026-04-20T08:57:31.362Z</time></trkpt><trkpt lat="44.7700042" lon="8.3381767"><ele>150.0</ele><time>2026-04-20T08:57:32.365Z</time></trkpt><trkpt lat="44.7699253" lon="8.3384227"><ele>150.0</ele><time>2026-04-20T08:57:33.388Z</time></trkpt><trkpt lat="44.7698276" lon="8.3386761"><ele>150.0</ele><time>2026-04-20T08:57:34.391Z</time></trkpt><trkpt lat="44.769711" lon="8.3389125"><ele>150.0</ele><time>2026-04-20T08:57:35.382Z</time></trkpt><trkpt lat="44.7696114" lon="8.339149"><ele>149.0</ele><time>2026-04-20T08:57:36.391Z</time></trkpt><trkpt lat="44.7694993" lon="8.3393938"><ele>148.0</ele><time>2026-04-20T08:57:37.387Z</time></trkpt><trkpt lat="44.769403" lon="8.3396525"><ele>147.0</ele><time>2026-04-20T08:57:38.389Z</time></trkpt><trkpt lat="44.7693222" lon="8.339888"><ele>151.66666666666666</ele><time>2026-04-20T08:57:39.384Z</time></trkpt><trkpt lat="44.7692275" lon="8.3401166"><ele>156.33333333333331</ele><time>2026-04-20T08:57:40.363Z</time></trkpt><trkpt lat="44.7691542" lon="8.3403828"><ele>161.0</ele><time>2026-04-20T08:57:41.344Z</time></trkpt><trkpt lat="44.7690858" lon="8.3406805"><ele>161.0</ele><time>2026-04-20T08:57:42.339Z</time></trkpt><trkpt lat="44.768995" lon="8.3409172"><ele>161.0</ele><time>2026-04-20T08:57:43.318Z</time></trkpt><trkpt lat="44.7688918" lon="8.3411148"><ele>161.0</ele><time>2026-04-20T08:57:44.32Z</time></trkpt><trkpt lat="44.7688028" lon="8.3413409"><ele>160.0</ele><time>2026-04-20T08:57:45.276Z</time></trkpt><trkpt lat="44.7686624" lon="8.3416127"><ele>159.0</ele><time>2026-04-20T08:57:46.348Z</time></trkpt><trkpt lat="44.7686429" lon="8.3418301"><ele>158.0</ele><time>2026-04-20T08:57:47.371Z</time></trkpt><trkpt lat="44.7685829" lon="8.3420592"><ele>156.33333333333331</ele><time>2026-04-20T08:57:48.379Z</time></trkpt><trkpt lat="44.7685405" lon="8.3423137"><ele>154.66666666666666</ele><time>2026-04-20T08:57:49.387Z</time></trkpt><trkpt lat="44.7684961" lon="8.3425643"><ele>153.0</ele><time>2026-04-20T08:57:50.405Z</time></trkpt><trkpt lat="44.7684355" lon="8.3428249"><ele>148.66666666666666</ele><time>2026-04-20T08:57:51.406Z</time></trkpt><trkpt lat="44.7683964" lon="8.3430932"><ele>144.33333333333331</ele><time>2026-04-20T08:57:52.416Z</time></trkpt><trkpt lat="44.768354" lon="8.3433615"><ele>140.0</ele><time>2026-04-20T08:57:53.408Z</time></trkpt><trkpt lat="44.7683071" lon="8.3436381"><ele>139.0</ele><time>2026-04-20T08:57:54.406Z</time></trkpt><trkpt lat="44.768256" lon="8.3439274"><ele>138.0</ele><time>2026-04-20T08:57:55.399Z</time></trkpt><trkpt lat="44.7682246" lon="8.3442132"><ele>137.0</ele><time>2026-04-20T08:57:56.399Z</time></trkpt><trkpt lat="44.7682106" lon="8.344518"><ele>137.33333333333331</ele><time>2026-04-20T08:57:57.412Z</time></trkpt><trkpt lat="44.7681914" lon="8.3448158"><ele>137.66666666666666</ele><time>2026-04-20T08:57:58.401Z</time></trkpt><trkpt lat="44.7681678" lon="8.3450924"><ele>138.0</ele><time>2026-04-20T08:57:59.408Z</time></trkpt><trkpt lat="44.7681665" lon="8.3453728"><ele>137.66666666666666</ele><time>2026-04-20T08:58:00.405Z</time></trkpt><trkpt lat="44.7681681" lon="8.3456528"><ele>137.33333333333331</ele><time>2026-04-20T08:58:01.402Z</time></trkpt><trkpt lat="44.7681837" lon="8.3459284"><ele>137.0</ele><time>2026-04-20T08:58:02.402Z</time></trkpt><trkpt lat="44.7682034" lon="8.3462077"><ele>136.66666666666666</ele><time>2026-04-20T08:58:03.398Z</time></trkpt><trkpt lat="44.7682321" lon="8.3464933"><ele>136.33333333333334</ele><time>2026-04-20T08:58:04.404Z</time></trkpt><trkpt lat="44.7682601" lon="8.3467608"><ele>136.0</ele><time>2026-04-20T08:58:05.389Z</time></trkpt><trkpt lat="44.7683047" lon="8.3470438"><ele>136.33333333333334</ele><time>2026-04-20T08:58:06.4Z</time></trkpt><trkpt lat="44.768353" lon="8.3473251"><ele>136.66666666666666</ele><time>2026-04-20T08:58:07.4Z</time></trkpt><trkpt lat="44.7684184" lon="8.3475719"><ele>137.0</ele><time>2026-04-20T08:58:08.391Z</time></trkpt><trkpt lat="44.7684533" lon="8.3478186"><ele>137.0</ele><time>2026-04-20T08:58:09.4Z</time></trkpt><trkpt lat="44.7685162" lon="8.3480514"><ele>137.0</ele><time>2026-04-20T08:58:10.4Z</time></trkpt><trkpt lat="44.7685702" lon="8.3482889"><ele>137.0</ele><time>2026-04-20T08:58:11.401Z</time></trkpt><trkpt lat="44.7686176" lon="8.3485296"><ele>137.0</ele><time>2026-04-20T08:58:12.397Z</time></trkpt><trkpt lat="44.7686765" lon="8.3487549"><ele>137.0</ele><time>2026-04-20T08:58:13.398Z</time></trkpt><trkpt lat="44.7687322" lon="8.3489649"><ele>137.0</ele><time>2026-04-20T08:58:14.396Z</time></trkpt><trkpt lat="44.7687907" lon="8.349177"><ele>137.0</ele><time>2026-04-20T08:58:15.407Z</time></trkpt><trkpt lat="44.7688459" lon="8.3493894"><ele>137.0</ele><time>2026-04-20T08:58:16.395Z</time></trkpt><trkpt lat="44.7688994" lon="8.3495813"><ele>137.0</ele><time>2026-04-20T08:58:17.401Z</time></trkpt><trkpt lat="44.7689529" lon="8.3497623"><ele>137.0</ele><time>2026-04-20T08:58:18.402Z</time></trkpt><trkpt lat="44.7689942" lon="8.3499563"><ele>137.0</ele><time>2026-04-20T08:58:19.393Z</time></trkpt><trkpt lat="44.7690393" lon="8.3501292"><ele>137.0</ele><time>2026-04-20T08:58:20.39Z</time></trkpt><trkpt lat="44.7690607" lon="8.350327"><ele>137.0</ele><time>2026-04-20T08:58:21.396Z</time></trkpt><trkpt lat="44.7690643" lon="8.3505303"><ele>137.0</ele><time>2026-04-20T08:58:22.398Z</time></trkpt><trkpt lat="44.7690693" lon="8.3507262"><ele>137.0</ele><time>2026-04-20T08:58:23.398Z</time></trkpt><trkpt lat="44.7690698" lon="8.3509227"><ele>137.0</ele><time>2026-04-20T08:58:24.388Z</time></trkpt><trkpt lat="44.7690845" lon="8.3510916"><ele>137.0</ele><time>2026-04-20T08:58:25.397Z</time></trkpt><trkpt lat="44.7690859" lon="8.3512473"><ele>137.0</ele><time>2026-04-20T08:58:26.387Z</time></trkpt><trkpt lat="44.7690768" lon="8.3514037"><ele>137.16666666666666</ele><time>2026-04-20T08:58:27.392Z</time></trkpt><trkpt lat="44.7690694" lon="8.3515083"><ele>137.33333333333331</ele><time>2026-04-20T08:58:28.397Z</time></trkpt><trkpt lat="44.7690678" lon="8.3516342"><ele>137.5</ele><time>2026-04-20T08:58:29.391Z</time></trkpt><trkpt lat="44.7690641" lon="8.3517383"><ele>137.66666666666666</ele><time>2026-04-20T08:58:30.4Z</time></trkpt><trkpt lat="44.7690595" lon="8.3518509"><ele>137.83333333333334</ele><time>2026-04-20T08:58:31.402Z</time></trkpt><trkpt lat="44.7690207" lon="8.3520191"><ele>138.0</ele><time>2026-04-20T08:58:33.392Z</time></trkpt><trkpt lat="44.7689979" lon="8.3521163"><ele>138.14285714285714</ele><time>2026-04-20T08:58:34.399Z</time></trkpt><trkpt lat="44.7689564" lon="8.3522101"><ele>138.2857142857143</ele><time>2026-04-20T08:58:35.391Z</time></trkpt><trkpt lat="44.7689083" lon="8.3522868"><ele>138.42857142857144</ele><time>2026-04-20T08:58:36.399Z</time></trkpt><trkpt lat="44.7688523" lon="8.3523653"><ele>138.57142857142858</ele><time>2026-04-20T08:58:37.402Z</time></trkpt><trkpt lat="44.7687983" lon="8.3524423"><ele>138.71428571428572</ele><time>2026-04-20T08:58:38.403Z</time></trkpt><trkpt lat="44.7687652" lon="8.3525318"><ele>138.85714285714286</ele><time>2026-04-20T08:58:39.374Z</time></trkpt><trkpt lat="44.7687504" lon="8.3526282"><ele>139.0</ele><time>2026-04-20T08:58:40.375Z</time></trkpt><trkpt lat="44.7687509" lon="8.352835"><ele>139.0</ele><time>2026-04-20T08:58:42.383Z</time></trkpt><trkpt lat="44.7687512" lon="8.3529635"><ele>139.0</ele><time>2026-04-20T08:58:43.387Z</time></trkpt><trkpt lat="44.7687361" lon="8.3530912"><ele>139.0</ele><time>2026-04-20T08:58:44.374Z</time></trkpt><trkpt lat="44.7687068" lon="8.3532127"><ele>139.0</ele><time>2026-04-20T08:58:45.367Z</time></trkpt><trkpt lat="44.7686753" lon="8.3533473"><ele>139.0</ele><time>2026-04-20T08:58:46.364Z</time></trkpt><trkpt lat="44.7686534" lon="8.3534806"><ele>138.75</ele><time>2026-04-20T08:58:47.36Z</time></trkpt><trkpt lat="44.7686146" lon="8.3536355"><ele>138.5</ele><time>2026-04-20T08:58:48.355Z</time></trkpt><trkpt lat="44.7685748" lon="8.3537851"><ele>138.25</ele><time>2026-04-20T08:58:49.374Z</time></trkpt><trkpt lat="44.7685269" lon="8.3539559"><ele>138.0</ele><time>2026-04-20T08:58:50.382Z</time></trkpt><trkpt lat="44.7684772" lon="8.3541188"><ele>138.0</ele><time>2026-04-20T08:58:51.387Z</time></trkpt><trkpt lat="44.7684277" lon="8.3542842"><ele>138.0</ele><time>2026-04-20T08:58:52.395Z</time></trkpt><trkpt lat="44.7683817" lon="8.3544355"><ele>138.0</ele><time>2026-04-20T08:58:53.382Z</time></trkpt><trkpt lat="44.7683363" lon="8.3545801"><ele>138.0</ele><time>2026-04-20T08:58:54.387Z</time></trkpt><trkpt lat="44.7682916" lon="8.3547142"><ele>138.20000000000002</ele><time>2026-04-20T08:58:55.389Z</time></trkpt><trkpt lat="44.7682513" lon="8.3548553"><ele>138.4</ele><time>2026-04-20T08:58:56.389Z</time></trkpt><trkpt lat="44.7682222" lon="8.3549982"><ele>138.60000000000002</ele><time>2026-04-20T08:58:57.396Z</time></trkpt><trkpt lat="44.7681922" lon="8.3551342"><ele>138.8</ele><time>2026-04-20T08:58:58.393Z</time></trkpt><trkpt lat="44.7681605" lon="8.3552776"><ele>139.0</ele><time>2026-04-20T08:58:59.387Z</time></trkpt><trkpt lat="44.7681267" lon="8.3554123"><ele>139.4</ele><time>2026-04-20T08:59:00.39Z</time></trkpt><trkpt lat="44.7681004" lon="8.3555431"><ele>139.8</ele><time>2026-04-20T08:59:01.395Z</time></trkpt><trkpt lat="44.7680738" lon="8.3556653"><ele>140.2</ele><time>2026-04-20T08:59:02.382Z</time></trkpt><trkpt lat="44.7680436" lon="8.3557815"><ele>140.6</ele><time>2026-04-20T08:59:03.396Z</time></trkpt><trkpt lat="44.7680074" lon="8.355909"><ele>141.0</ele><time>2026-04-20T08:59:04.396Z</time></trkpt><trkpt lat="44.7679767" lon="8.3560307"><ele>141.0</ele><time>2026-04-20T08:59:05.39Z</time></trkpt><trkpt lat="44.767939" lon="8.3561521"><ele>141.0</ele><time>2026-04-20T08:59:06.392Z</time></trkpt><trkpt lat="44.7678982" lon="8.3562813"><ele>141.0</ele><time>2026-04-20T08:59:07.387Z</time></trkpt><trkpt lat="44.7678588" lon="8.3564101"><ele>141.0</ele><time>2026-04-20T08:59:08.392Z</time></trkpt><trkpt lat="44.7678256" lon="8.3565307"><ele>141.0</ele><time>2026-04-20T08:59:09.387Z</time></trkpt><trkpt lat="44.7677943" lon="8.356655"><ele>141.25</ele><time>2026-04-20T08:59:10.422Z</time></trkpt><trkpt lat="44.7677607" lon="8.3567787"><ele>141.5</ele><time>2026-04-20T08:59:11.491Z</time></trkpt><trkpt lat="44.7677242" lon="8.3569253"><ele>141.75</ele><time>2026-04-20T08:59:12.492Z</time></trkpt><trkpt lat="44.7676825" lon="8.3570939"><ele>142.0</ele><time>2026-04-20T08:59:13.486Z</time></trkpt><trkpt lat="44.7676365" lon="8.3572739"><ele>143.25</ele><time>2026-04-20T08:59:14.489Z</time></trkpt><trkpt lat="44.7675931" lon="8.3574434"><ele>144.5</ele><time>2026-04-20T08:59:15.488Z</time></trkpt><trkpt lat="44.7675565" lon="8.357602"><ele>145.75</ele><time>2026-04-20T08:59:16.488Z</time></trkpt><trkpt lat="44.7675229" lon="8.3577583"><ele>147.0</ele><time>2026-04-20T08:59:17.5Z</time></trkpt><trkpt lat="44.7674912" lon="8.3579072"><ele>149.0</ele><time>2026-04-20T08:59:18.491Z</time></trkpt><trkpt lat="44.7674581" lon="8.3580619"><ele>151.0</ele><time>2026-04-20T08:59:19.489Z</time></trkpt><trkpt lat="44.7674277" lon="8.3582182"><ele>153.0</ele><time>2026-04-20T08:59:20.491Z</time></trkpt><trkpt lat="44.7674003" lon="8.3583684"><ele>155.0</ele><time>2026-04-20T08:59:21.492Z</time></trkpt><trkpt lat="44.7673472" lon="8.3585172"><ele>155.0</ele><time>2026-04-20T08:59:22.497Z</time></trkpt><trkpt lat="44.7673269" lon="8.3586593"><ele>155.0</ele><time>2026-04-20T08:59:23.475Z</time></trkpt><trkpt lat="44.7673093" lon="8.3587979"><ele>155.0</ele><time>2026-04-20T08:59:24.456Z</time></trkpt><trkpt lat="44.7672924" lon="8.3589637"><ele>155.0</ele><time>2026-04-20T08:59:25.443Z</time></trkpt><trkpt lat="44.7672771" lon="8.3590957"><ele>155.0</ele><time>2026-04-20T08:59:26.418Z</time></trkpt><trkpt lat="44.7672663" lon="8.3592498"><ele>156.6</ele><time>2026-04-20T08:59:27.411Z</time></trkpt><trkpt lat="44.7672565" lon="8.3593987"><ele>158.2</ele><time>2026-04-20T08:59:28.391Z</time></trkpt><trkpt lat="44.7672483" lon="8.3595434"><ele>159.8</ele><time>2026-04-20T08:59:29.38Z</time></trkpt><trkpt lat="44.7672442" lon="8.359679"><ele>161.4</ele><time>2026-04-20T08:59:30.37Z</time></trkpt><trkpt lat="44.767244" lon="8.359806"><ele>163.0</ele><time>2026-04-20T08:59:31.37Z</time></trkpt><trkpt lat="44.7672455" lon="8.359928"><ele>163.4</ele><time>2026-04-20T08:59:32.343Z</time></trkpt><trkpt lat="44.7672479" lon="8.3600425"><ele>163.8</ele><time>2026-04-20T08:59:33.347Z</time></trkpt><trkpt lat="44.767252" lon="8.3601481"><ele>164.2</ele><time>2026-04-20T08:59:34.343Z</time></trkpt><trkpt lat="44.767257" lon="8.3602453"><ele>164.6</ele><time>2026-04-20T08:59:35.342Z</time></trkpt><trkpt lat="44.7672625" lon="8.3603338"><ele>165.0</ele><time>2026-04-20T08:59:36.345Z</time></trkpt><trkpt lat="44.7674233" lon="8.3629906"><ele>161.0</ele><time>2026-04-20T08:59:50.333Z</time></trkpt><trkpt lat="44.7674183" lon="8.3631348"><ele>157.0</ele><time>2026-04-20T08:59:51.334Z</time></trkpt><trkpt lat="44.7674885" lon="8.3632532"><ele>153.0</ele><time>2026-04-20T08:59:52.364Z</time></trkpt><trkpt lat="44.767563" lon="8.3633687"><ele>149.0</ele><time>2026-04-20T08:59:53.371Z</time></trkpt><trkpt lat="44.7676441" lon="8.3634558"><ele>145.0</ele><time>2026-04-20T08:59:54.373Z</time></trkpt><trkpt lat="44.7677305" lon="8.3635249"><ele>144.16666666666669</ele><time>2026-04-20T08:59:55.375Z</time></trkpt><trkpt lat="44.7678109" lon="8.3635815"><ele>143.33333333333334</ele><time>2026-04-20T08:59:56.351Z</time></trkpt><trkpt lat="44.7678827" lon="8.3636244"><ele>142.5</ele><time>2026-04-20T08:59:57.36Z</time></trkpt><trkpt lat="44.7679514" lon="8.3636755"><ele>141.66666666666666</ele><time>2026-04-20T08:59:58.358Z</time></trkpt><trkpt lat="44.7680195" lon="8.3637337"><ele>140.83333333333331</ele><time>2026-04-20T08:59:59.362Z</time></trkpt><trkpt lat="44.7680849" lon="8.3637863"><ele>140.0</ele><time>2026-04-20T09:00:00.379Z</time></trkpt><trkpt lat="44.7681651" lon="8.363836"><ele>140.0</ele><time>2026-04-20T09:00:01.364Z</time></trkpt><trkpt lat="44.7682604" lon="8.3638916"><ele>140.0</ele><time>2026-04-20T09:00:02.371Z</time></trkpt><trkpt lat="44.7683542" lon="8.3639538"><ele>140.0</ele><time>2026-04-20T09:00:03.354Z</time></trkpt><trkpt lat="44.768448" lon="8.364007"><ele>140.0</ele><time>2026-04-20T09:00:04.366Z</time></trkpt><trkpt lat="44.7685332" lon="8.3640639"><ele>140.0</ele><time>2026-04-20T09:00:05.362Z</time></trkpt><trkpt lat="44.7686079" lon="8.364123"><ele>139.8</ele><time>2026-04-20T09:00:06.365Z</time></trkpt><trkpt lat="44.7686845" lon="8.364179"><ele>139.6</ele><time>2026-04-20T09:00:07.37Z</time></trkpt><trkpt lat="44.7687711" lon="8.3642324"><ele>139.4</ele><time>2026-04-20T09:00:08.361Z</time></trkpt><trkpt lat="44.7688565" lon="8.3642851"><ele>139.2</ele><time>2026-04-20T09:00:09.385Z</time></trkpt><trkpt lat="44.7689398" lon="8.3643432"><ele>139.0</ele><time>2026-04-20T09:00:10.366Z</time></trkpt><trkpt lat="44.7690232" lon="8.3643913"><ele>139.0</ele><time>2026-04-20T09:00:11.365Z</time></trkpt><trkpt lat="44.7690993" lon="8.3644294"><ele>139.0</ele><time>2026-04-20T09:00:12.365Z</time></trkpt><trkpt lat="44.7691646" lon="8.3644525"><ele>139.0</ele><time>2026-04-20T09:00:13.366Z</time></trkpt><trkpt lat="44.7692307" lon="8.3644945"><ele>139.0</ele><time>2026-04-20T09:00:14.366Z</time></trkpt><trkpt lat="44.769293" lon="8.3645218"><ele>139.0</ele><time>2026-04-20T09:00:15.364Z</time></trkpt><trkpt lat="44.7694024" lon="8.3645781"><ele>139.0</ele><time>2026-04-20T09:00:17.368Z</time></trkpt><trkpt lat="44.7694922" lon="8.3646347"><ele>139.2</ele><time>2026-04-20T09:00:19.369Z</time></trkpt><trkpt lat="44.7695456" lon="8.3646858"><ele>139.4</ele><time>2026-04-20T09:00:21.376Z</time></trkpt><trkpt lat="44.7696094" lon="8.3647461"><ele>139.6</ele><time>2026-04-20T09:00:23.371Z</time></trkpt><trkpt lat="44.7696649" lon="8.3648831"><ele>139.8</ele><time>2026-04-20T09:00:25.358Z</time></trkpt><trkpt lat="44.769683" lon="8.365042"><ele>140.0</ele><time>2026-04-20T09:00:31.369Z</time></trkpt><trkpt lat="44.7697251" lon="8.3651742"><ele>140.0</ele><time>2026-04-20T09:00:33.364Z</time></trkpt><trkpt lat="44.7697808" lon="8.3652456"><ele>140.0</ele><time>2026-04-20T09:00:34.366Z</time></trkpt><trkpt lat="44.7698545" lon="8.3653073"><ele>140.0</ele><time>2026-04-20T09:00:35.368Z</time></trkpt><trkpt lat="44.7699279" lon="8.365375"><ele>140.0</ele><time>2026-04-20T09:00:36.368Z</time></trkpt><trkpt lat="44.7699926" lon="8.3654741"><ele>140.0</ele><time>2026-04-20T09:00:37.365Z</time></trkpt><trkpt lat="44.7700368" lon="8.3656015"><ele>140.0</ele><time>2026-04-20T09:00:38.363Z</time></trkpt><trkpt lat="44.7700716" lon="8.3657403"><ele>140.0</ele><time>2026-04-20T09:00:39.362Z</time></trkpt><trkpt lat="44.7701122" lon="8.3658659"><ele>140.0</ele><time>2026-04-20T09:00:40.369Z</time></trkpt><trkpt lat="44.7701474" lon="8.365996"><ele>140.0</ele><time>2026-04-20T09:00:41.362Z</time></trkpt><trkpt lat="44.7701839" lon="8.3661294"><ele>140.0</ele><time>2026-04-20T09:00:42.372Z</time></trkpt><trkpt lat="44.7702165" lon="8.3662603"><ele>140.0</ele><time>2026-04-20T09:00:43.37Z</time></trkpt><trkpt lat="44.7702528" lon="8.3663948"><ele>139.4</ele><time>2026-04-20T09:00:44.376Z</time></trkpt><trkpt lat="44.7702926" lon="8.3665243"><ele>138.8</ele><time>2026-04-20T09:00:45.367Z</time></trkpt><trkpt lat="44.7703236" lon="8.366651"><ele>138.2</ele><time>2026-04-20T09:00:46.361Z</time></trkpt><trkpt lat="44.7703599" lon="8.3667787"><ele>137.6</ele><time>2026-04-20T09:00:47.375Z</time></trkpt><trkpt lat="44.7703976" lon="8.3669205"><ele>137.0</ele><time>2026-04-20T09:00:48.366Z</time></trkpt><trkpt lat="44.77044" lon="8.3670539"><ele>137.0</ele><time>2026-04-20T09:00:49.377Z</time></trkpt><trkpt lat="44.7704772" lon="8.3671824"><ele>137.0</ele><time>2026-04-20T09:00:50.371Z</time></trkpt><trkpt lat="44.7705208" lon="8.3673042"><ele>137.0</ele><time>2026-04-20T09:00:51.368Z</time></trkpt><trkpt lat="44.7705592" lon="8.3674153"><ele>137.0</ele><time>2026-04-20T09:00:52.37Z</time></trkpt><trkpt lat="44.7705977" lon="8.3675222"><ele>137.0</ele><time>2026-04-20T09:00:53.375Z</time></trkpt><trkpt lat="44.770635" lon="8.3676284"><ele>137.16666666666666</ele><time>2026-04-20T09:00:54.367Z</time></trkpt><trkpt lat="44.7706532" lon="8.3677313"><ele>137.33333333333331</ele><time>2026-04-20T09:00:55.374Z</time></trkpt><trkpt lat="44.7706871" lon="8.3678156"><ele>137.5</ele><time>2026-04-20T09:00:56.37Z</time></trkpt><trkpt lat="44.7707131" lon="8.367899"><ele>137.66666666666666</ele><time>2026-04-20T09:00:57.373Z</time></trkpt><trkpt lat="44.7706992" lon="8.3680193"><ele>137.83333333333334</ele><time>2026-04-20T09:00:59.356Z</time></trkpt><trkpt lat="44.7706036" lon="8.368088"><ele>138.0</ele><time>2026-04-20T09:01:01.363Z</time></trkpt><trkpt lat="44.7705352" lon="8.368101"><ele>138.16666666666666</ele><time>2026-04-20T09:01:02.378Z</time></trkpt><trkpt lat="44.7704187" lon="8.3681263"><ele>138.33333333333334</ele><time>2026-04-20T09:01:04.376Z</time></trkpt><trkpt lat="44.7703547" lon="8.3681403"><ele>138.5</ele><time>2026-04-20T09:01:05.373Z</time></trkpt><trkpt lat="44.7702824" lon="8.3681545"><ele>138.66666666666669</ele><time>2026-04-20T09:01:06.375Z</time></trkpt><trkpt lat="44.7701971" lon="8.3681558"><ele>138.83333333333334</ele><time>2026-04-20T09:01:07.365Z</time></trkpt><trkpt lat="44.7701078" lon="8.3681473"><ele>139.0</ele><time>2026-04-20T09:01:08.358Z</time></trkpt><trkpt lat="44.7700121" lon="8.3681406"><ele>139.33333333333334</ele><time>2026-04-20T09:01:09.355Z</time></trkpt><trkpt lat="44.7699218" lon="8.3681514"><ele>139.66666666666669</ele><time>2026-04-20T09:01:10.361Z</time></trkpt><trkpt lat="44.7698366" lon="8.3681562"><ele>140.0</ele><time>2026-04-20T09:01:11.368Z</time></trkpt><trkpt lat="44.7697533" lon="8.368158"><ele>140.33333333333334</ele><time>2026-04-20T09:01:12.363Z</time></trkpt><trkpt lat="44.7696727" lon="8.3681515"><ele>140.66666666666666</ele><time>2026-04-20T09:01:13.372Z</time></trkpt><trkpt lat="44.7696044" lon="8.3681508"><ele>141.0</ele><time>2026-04-20T09:01:14.359Z</time></trkpt><trkpt lat="44.7695082" lon="8.3681861"><ele>141.0</ele><time>2026-04-20T09:01:16.362Z</time></trkpt><trkpt lat="44.7693956" lon="8.3683239"><ele>141.0</ele><time>2026-04-20T09:01:18.363Z</time></trkpt><trkpt lat="44.7693085" lon="8.3684639"><ele>141.0</ele><time>2026-04-20T09:01:19.356Z</time></trkpt><trkpt lat="44.769221" lon="8.3685949"><ele>141.0</ele><time>2026-04-20T09:01:20.36Z</time></trkpt><trkpt lat="44.7691242" lon="8.3687494"><ele>143.0</ele><time>2026-04-20T09:01:21.362Z</time></trkpt><trkpt lat="44.7690266" lon="8.3689204"><ele>145.0</ele><time>2026-04-20T09:01:22.371Z</time></trkpt><trkpt lat="44.7689331" lon="8.3690797"><ele>147.0</ele><time>2026-04-20T09:01:23.361Z</time></trkpt><trkpt lat="44.7688552" lon="8.3692204"><ele>149.0</ele><time>2026-04-20T09:01:24.365Z</time></trkpt><trkpt lat="44.7687833" lon="8.3693715"><ele>149.0</ele><time>2026-04-20T09:01:25.365Z</time></trkpt><trkpt lat="44.7686972" lon="8.3695265"><ele>149.0</ele><time>2026-04-20T09:01:26.364Z</time></trkpt><trkpt lat="44.7686299" lon="8.3696873"><ele>149.0</ele><time>2026-04-20T09:01:27.359Z</time></trkpt><trkpt lat="44.7685456" lon="8.3698566"><ele>149.0</ele><time>2026-04-20T09:01:28.353Z</time></trkpt><trkpt lat="44.7684984" lon="8.3700449"><ele>152.0</ele><time>2026-04-20T09:01:29.384Z</time></trkpt><trkpt lat="44.7684594" lon="8.3702793"><ele>155.0</ele><time>2026-04-20T09:01:30.394Z</time></trkpt><trkpt lat="44.7684151" lon="8.3704925"><ele>158.0</ele><time>2026-04-20T09:01:31.471Z</time></trkpt><trkpt lat="44.7683673" lon="8.3707062"><ele>159.0</ele><time>2026-04-20T09:01:32.483Z</time></trkpt><trkpt lat="44.7683215" lon="8.3709287"><ele>160.0</ele><time>2026-04-20T09:01:33.471Z</time></trkpt><trkpt lat="44.7682729" lon="8.3711506"><ele>161.0</ele><time>2026-04-20T09:01:34.471Z</time></trkpt><trkpt lat="44.7682192" lon="8.3713666"><ele>161.33333333333331</ele><time>2026-04-20T09:01:35.466Z</time></trkpt><trkpt lat="44.7681608" lon="8.3715656"><ele>161.66666666666666</ele><time>2026-04-20T09:01:36.465Z</time></trkpt><trkpt lat="44.768083" lon="8.3717614"><ele>162.0</ele><time>2026-04-20T09:01:37.457Z</time></trkpt><trkpt lat="44.7679859" lon="8.3719267"><ele>162.0</ele><time>2026-04-20T09:01:38.46Z</time></trkpt><trkpt lat="44.7678789" lon="8.3720879"><ele>162.0</ele><time>2026-04-20T09:01:39.456Z</time></trkpt><trkpt lat="44.7677744" lon="8.3722322"><ele>162.0</ele><time>2026-04-20T09:01:40.446Z</time></trkpt><trkpt lat="44.7676729" lon="8.3723934"><ele>165.0</ele><time>2026-04-20T09:01:41.446Z</time></trkpt><trkpt lat="44.7675474" lon="8.3726152"><ele>168.0</ele><time>2026-04-20T09:01:42.447Z</time></trkpt><trkpt lat="44.7674221" lon="8.3728482"><ele>171.0</ele><time>2026-04-20T09:01:43.464Z</time></trkpt><trkpt lat="44.7673188" lon="8.3730558"><ele>171.0</ele><time>2026-04-20T09:01:44.47Z</time></trkpt><trkpt lat="44.7672123" lon="8.3732372"><ele>171.0</ele><time>2026-04-20T09:01:45.457Z</time></trkpt><trkpt lat="44.7671" lon="8.3734037"><ele>171.0</ele><time>2026-04-20T09:01:46.454Z</time></trkpt><trkpt lat="44.7669932" lon="8.3735541"><ele>171.0</ele><time>2026-04-20T09:01:47.456Z</time></trkpt><trkpt lat="44.7668871" lon="8.3736883"><ele>171.0</ele><time>2026-04-20T09:01:48.455Z</time></trkpt><trkpt lat="44.7667648" lon="8.3737968"><ele>171.0</ele><time>2026-04-20T09:01:49.458Z</time></trkpt><trkpt lat="44.7666295" lon="8.3738944"><ele>171.0</ele><time>2026-04-20T09:01:50.461Z</time></trkpt><trkpt lat="44.7664863" lon="8.3739954"><ele>173.33333333333334</ele><time>2026-04-20T09:01:51.455Z</time></trkpt><trkpt lat="44.7663358" lon="8.3740842"><ele>175.66666666666669</ele><time>2026-04-20T09:01:52.451Z</time></trkpt><trkpt lat="44.7661959" lon="8.3741562"><ele>178.0</ele><time>2026-04-20T09:01:53.451Z</time></trkpt><trkpt lat="44.7660581" lon="8.3742174"><ele>178.75</ele><time>2026-04-20T09:01:54.455Z</time></trkpt><trkpt lat="44.7659366" lon="8.3742604"><ele>179.5</ele><time>2026-04-20T09:01:55.476Z</time></trkpt><trkpt lat="44.7658242" lon="8.3743031"><ele>180.25</ele><time>2026-04-20T09:01:56.475Z</time></trkpt><trkpt lat="44.7657162" lon="8.3743841"><ele>181.0</ele><time>2026-04-20T09:01:57.467Z</time></trkpt><trkpt lat="44.7656052" lon="8.3744918"><ele>181.0</ele><time>2026-04-20T09:01:58.458Z</time></trkpt><trkpt lat="44.7654902" lon="8.3746215"><ele>181.0</ele><time>2026-04-20T09:01:59.454Z</time></trkpt><trkpt lat="44.7653814" lon="8.3747788"><ele>181.0</ele><time>2026-04-20T09:02:00.45Z</time></trkpt><trkpt lat="44.7652807" lon="8.3749344"><ele>180.66666666666669</ele><time>2026-04-20T09:02:01.452Z</time></trkpt><trkpt lat="44.7651778" lon="8.3750934"><ele>180.33333333333334</ele><time>2026-04-20T09:02:02.461Z</time></trkpt><trkpt lat="44.7650694" lon="8.3752554"><ele>180.0</ele><time>2026-04-20T09:02:03.474Z</time></trkpt><trkpt lat="44.7649558" lon="8.3754194"><ele>181.33333333333334</ele><time>2026-04-20T09:02:04.478Z</time></trkpt><trkpt lat="44.7648344" lon="8.375571"><ele>182.66666666666669</ele><time>2026-04-20T09:02:05.471Z</time></trkpt><trkpt lat="44.7647013" lon="8.3757018"><ele>184.0</ele><time>2026-04-20T09:02:06.466Z</time></trkpt><trkpt lat="44.7645545" lon="8.3758167"><ele>184.0</ele><time>2026-04-20T09:02:07.466Z</time></trkpt><trkpt lat="44.7643977" lon="8.3759297"><ele>184.0</ele><time>2026-04-20T09:02:08.453Z</time></trkpt><trkpt lat="44.7642387" lon="8.3760434"><ele>184.0</ele><time>2026-04-20T09:02:09.457Z</time></trkpt><trkpt lat="44.764078" lon="8.3761583"><ele>183.0</ele><time>2026-04-20T09:02:10.458Z</time></trkpt><trkpt lat="44.7639083" lon="8.3762873"><ele>182.0</ele><time>2026-04-20T09:02:11.451Z</time></trkpt><trkpt lat="44.7637533" lon="8.3764175"><ele>181.0</ele><time>2026-04-20T09:02:12.476Z</time></trkpt><trkpt lat="44.7635982" lon="8.3765603"><ele>184.0</ele><time>2026-04-20T09:02:13.462Z</time></trkpt><trkpt lat="44.7634416" lon="8.3767128"><ele>187.0</ele><time>2026-04-20T09:02:14.475Z</time></trkpt><trkpt lat="44.7632886" lon="8.3768803"><ele>190.0</ele><time>2026-04-20T09:02:15.47Z</time></trkpt><trkpt lat="44.7631297" lon="8.3770401"><ele>190.0</ele><time>2026-04-20T09:02:16.354Z</time></trkpt><trkpt lat="44.7629532" lon="8.3771848"><ele>190.0</ele><time>2026-04-20T09:02:17.353Z</time></trkpt><trkpt lat="44.7627672" lon="8.3773066"><ele>190.0</ele><time>2026-04-20T09:02:18.356Z</time></trkpt><trkpt lat="44.7626016" lon="8.3774232"><ele>195.33333333333334</ele><time>2026-04-20T09:02:19.367Z</time></trkpt><trkpt lat="44.7624468" lon="8.3775327"><ele>200.66666666666669</ele><time>2026-04-20T09:02:20.361Z</time></trkpt><trkpt lat="44.7623158" lon="8.377614"><ele>206.0</ele><time>2026-04-20T09:02:21.348Z</time></trkpt><trkpt lat="44.762189" lon="8.3777515"><ele>206.0</ele><time>2026-04-20T09:02:22.351Z</time></trkpt><trkpt lat="44.7620842" lon="8.3779177"><ele>206.0</ele><time>2026-04-20T09:02:23.34Z</time></trkpt><trkpt lat="44.7619664" lon="8.3780175"><ele>206.0</ele><time>2026-04-20T09:02:24.343Z</time></trkpt><trkpt lat="44.7618445" lon="8.3781202"><ele>206.0</ele><time>2026-04-20T09:02:25.344Z</time></trkpt><trkpt lat="44.7617023" lon="8.3781822"><ele>210.33333333333334</ele><time>2026-04-20T09:02:26.341Z</time></trkpt><trkpt lat="44.7615169" lon="8.3782316"><ele>214.66666666666669</ele><time>2026-04-20T09:02:27.356Z</time></trkpt><trkpt lat="44.7613653" lon="8.3782925"><ele>219.0</ele><time>2026-04-20T09:02:28.365Z</time></trkpt><trkpt lat="44.7612085" lon="8.3783533"><ele>219.0</ele><time>2026-04-20T09:02:29.362Z</time></trkpt><trkpt lat="44.7610541" lon="8.3784"><ele>219.0</ele><time>2026-04-20T09:02:30.366Z</time></trkpt><trkpt lat="44.760925" lon="8.3784526"><ele>219.0</ele><time>2026-04-20T09:02:31.359Z</time></trkpt><trkpt lat="44.7608133" lon="8.3785002"><ele>219.0</ele><time>2026-04-20T09:02:32.358Z</time></trkpt><trkpt lat="44.7607147" lon="8.378552"><ele>218.75</ele><time>2026-04-20T09:02:33.359Z</time></trkpt><trkpt lat="44.760636" lon="8.3786195"><ele>218.5</ele><time>2026-04-20T09:02:34.361Z</time></trkpt><trkpt lat="44.7605791" lon="8.3787434"><ele>218.25</ele><time>2026-04-20T09:02:35.358Z</time></trkpt><trkpt lat="44.7605402" lon="8.3789207"><ele>218.0</ele><time>2026-04-20T09:02:36.357Z</time></trkpt><trkpt lat="44.7605009" lon="8.3791064"><ele>217.75</ele><time>2026-04-20T09:02:37.35Z</time></trkpt><trkpt lat="44.7604567" lon="8.3792946"><ele>217.5</ele><time>2026-04-20T09:02:38.348Z</time></trkpt><trkpt lat="44.7604103" lon="8.3794672"><ele>217.25</ele><time>2026-04-20T09:02:39.357Z</time></trkpt><trkpt lat="44.760359" lon="8.3796177"><ele>217.0</ele><time>2026-04-20T09:02:40.359Z</time></trkpt><trkpt lat="44.7602653" lon="8.3797691"><ele>218.25</ele><time>2026-04-20T09:02:41.353Z</time></trkpt><trkpt lat="44.7601393" lon="8.3798762"><ele>219.5</ele><time>2026-04-20T09:02:42.351Z</time></trkpt><trkpt lat="44.7600002" lon="8.3799204"><ele>220.75</ele><time>2026-04-20T09:02:43.342Z</time></trkpt><trkpt lat="44.7598741" lon="8.3799542"><ele>222.0</ele><time>2026-04-20T09:02:44.362Z</time></trkpt><trkpt lat="44.7597158" lon="8.3799739"><ele>222.0</ele><time>2026-04-20T09:02:45.354Z</time></trkpt><trkpt lat="44.7595739" lon="8.3800415"><ele>222.0</ele><time>2026-04-20T09:02:46.364Z</time></trkpt><trkpt lat="44.7594278" lon="8.3800796"><ele>222.0</ele><time>2026-04-20T09:02:47.36Z</time></trkpt><trkpt lat="44.7593034" lon="8.3801367"><ele>222.0</ele><time>2026-04-20T09:02:48.364Z</time></trkpt><trkpt lat="44.7591863" lon="8.3801909"><ele>223.33333333333331</ele><time>2026-04-20T09:02:49.373Z</time></trkpt><trkpt lat="44.7590743" lon="8.3802932"><ele>224.66666666666666</ele><time>2026-04-20T09:02:50.365Z</time></trkpt><trkpt lat="44.7589522" lon="8.3804595"><ele>226.0</ele><time>2026-04-20T09:02:51.356Z</time></trkpt><trkpt lat="44.7588349" lon="8.3806344"><ele>226.0</ele><time>2026-04-20T09:02:52.36Z</time></trkpt><trkpt lat="44.7587093" lon="8.3808241"><ele>226.0</ele><time>2026-04-20T09:02:53.367Z</time></trkpt><trkpt lat="44.7585874" lon="8.3810233"><ele>226.0</ele><time>2026-04-20T09:02:54.368Z</time></trkpt><trkpt lat="44.7584802" lon="8.3811994"><ele>231.33333333333331</ele><time>2026-04-20T09:02:55.37Z</time></trkpt><trkpt lat="44.7583558" lon="8.3813823"><ele>236.66666666666669</ele><time>2026-04-20T09:02:56.371Z</time></trkpt><trkpt lat="44.7582413" lon="8.3815455"><ele>242.0</ele><time>2026-04-20T09:02:57.362Z</time></trkpt><trkpt lat="44.7580899" lon="8.3816826"><ele>242.0</ele><time>2026-04-20T09:02:58.355Z</time></trkpt><trkpt lat="44.7579382" lon="8.3818305"><ele>242.0</ele><time>2026-04-20T09:02:59.364Z</time></trkpt><trkpt lat="44.7577599" lon="8.3819339"><ele>242.0</ele><time>2026-04-20T09:03:00.361Z</time></trkpt><trkpt lat="44.7575818" lon="8.3820445"><ele>242.33333333333334</ele><time>2026-04-20T09:03:01.359Z</time></trkpt><trkpt lat="44.7574199" lon="8.3821716"><ele>242.66666666666669</ele><time>2026-04-20T09:03:02.36Z</time></trkpt><trkpt lat="44.7572529" lon="8.3822778"><ele>243.0</ele><time>2026-04-20T09:03:03.353Z</time></trkpt><trkpt lat="44.7570976" lon="8.3823639"><ele>248.0</ele><time>2026-04-20T09:03:04.372Z</time></trkpt><trkpt lat="44.7569372" lon="8.382413"><ele>253.0</ele><time>2026-04-20T09:03:05.371Z</time></trkpt><trkpt lat="44.7567755" lon="8.3824508"><ele>258.0</ele><time>2026-04-20T09:03:06.37Z</time></trkpt><trkpt lat="44.7566052" lon="8.382471"><ele>258.3333333333333</ele><time>2026-04-20T09:03:07.371Z</time></trkpt><trkpt lat="44.7564447" lon="8.3825101"><ele>258.66666666666663</ele><time>2026-04-20T09:03:08.367Z</time></trkpt><trkpt lat="44.756286" lon="8.3825364"><ele>259.0</ele><time>2026-04-20T09:03:09.366Z</time></trkpt><trkpt lat="44.7561358" lon="8.3825392"><ele>260.0</ele><time>2026-04-20T09:03:10.358Z</time></trkpt><trkpt lat="44.7560053" lon="8.3825632"><ele>261.0</ele><time>2026-04-20T09:03:11.365Z</time></trkpt><trkpt lat="44.7558884" lon="8.3825747"><ele>262.0</ele><time>2026-04-20T09:03:12.366Z</time></trkpt><trkpt lat="44.7557585" lon="8.3826175"><ele>263.0</ele><time>2026-04-20T09:03:13.366Z</time></trkpt><trkpt lat="44.7556153" lon="8.3826399"><ele>263.0</ele><time>2026-04-20T09:03:14.36Z</time></trkpt><trkpt lat="44.7554834" lon="8.3826524"><ele>263.0</ele><time>2026-04-20T09:03:15.369Z</time></trkpt><trkpt lat="44.7553473" lon="8.3826831"><ele>263.0</ele><time>2026-04-20T09:03:16.361Z</time></trkpt><trkpt lat="44.7552018" lon="8.3827049"><ele>263.0</ele><time>2026-04-20T09:03:17.362Z</time></trkpt><trkpt lat="44.7550599" lon="8.3827472"><ele>263.75</ele><time>2026-04-20T09:03:18.36Z</time></trkpt><trkpt lat="44.754916" lon="8.3828012"><ele>264.5</ele><time>2026-04-20T09:03:19.348Z</time></trkpt><trkpt lat="44.7547831" lon="8.3828382"><ele>265.25</ele><time>2026-04-20T09:03:20.363Z</time></trkpt><trkpt lat="44.7546572" lon="8.3828773"><ele>266.0</ele><time>2026-04-20T09:03:21.365Z</time></trkpt><trkpt lat="44.7545272" lon="8.3829234"><ele>266.0</ele><time>2026-04-20T09:03:22.365Z</time></trkpt><trkpt lat="44.7543993" lon="8.3829931"><ele>266.0</ele><time>2026-04-20T09:03:23.359Z</time></trkpt><trkpt lat="44.754262" lon="8.383043"><ele>266.0</ele><time>2026-04-20T09:03:24.372Z</time></trkpt><trkpt lat="44.7541463" lon="8.3831127"><ele>266.0</ele><time>2026-04-20T09:03:25.368Z</time></trkpt><trkpt lat="44.7540159" lon="8.3831519"><ele>265.33333333333337</ele><time>2026-04-20T09:03:26.371Z</time></trkpt><trkpt lat="44.7538789" lon="8.3831319"><ele>264.6666666666667</ele><time>2026-04-20T09:03:27.366Z</time></trkpt><trkpt lat="44.7537219" lon="8.3831264"><ele>264.0</ele><time>2026-04-20T09:03:28.372Z</time></trkpt><trkpt lat="44.7535584" lon="8.3831325"><ele>266.3333333333333</ele><time>2026-04-20T09:03:29.373Z</time></trkpt><trkpt lat="44.7533845" lon="8.3831035"><ele>268.66666666666663</ele><time>2026-04-20T09:03:30.377Z</time></trkpt><trkpt lat="44.7532158" lon="8.3830834"><ele>271.0</ele><time>2026-04-20T09:03:31.375Z</time></trkpt><trkpt lat="44.7530296" lon="8.3830267"><ele>273.25</ele><time>2026-04-20T09:03:32.368Z</time></trkpt><trkpt lat="44.7528694" lon="8.382989"><ele>275.5</ele><time>2026-04-20T09:03:33.366Z</time></trkpt><trkpt lat="44.7527338" lon="8.3829579"><ele>277.75</ele><time>2026-04-20T09:03:34.363Z</time></trkpt><trkpt lat="44.7526022" lon="8.3829222"><ele>280.0</ele><time>2026-04-20T09:03:35.351Z</time></trkpt><trkpt lat="44.7524948" lon="8.3829317"><ele>280.25</ele><time>2026-04-20T09:03:36.362Z</time></trkpt><trkpt lat="44.7523967" lon="8.3829461"><ele>280.5</ele><time>2026-04-20T09:03:37.353Z</time></trkpt><trkpt lat="44.7522714" lon="8.3829999"><ele>280.75</ele><time>2026-04-20T09:03:38.36Z</time></trkpt><trkpt lat="44.7521338" lon="8.3830711"><ele>281.0</ele><time>2026-04-20T09:03:39.37Z</time></trkpt><trkpt lat="44.7520108" lon="8.3831197"><ele>283.0</ele><time>2026-04-20T09:03:40.366Z</time></trkpt><trkpt lat="44.7518629" lon="8.3831503"><ele>285.0</ele><time>2026-04-20T09:03:41.367Z</time></trkpt><trkpt lat="44.7517369" lon="8.3831427"><ele>287.0</ele><time>2026-04-20T09:03:42.373Z</time></trkpt><trkpt lat="44.7516438" lon="8.3831208"><ele>289.0</ele><time>2026-04-20T09:03:43.352Z</time></trkpt><trkpt lat="44.7515443" lon="8.3831795"><ele>289.0</ele><time>2026-04-20T09:03:44.376Z</time></trkpt><trkpt lat="44.7514243" lon="8.3832729"><ele>289.0</ele><time>2026-04-20T09:03:45.363Z</time></trkpt><trkpt lat="44.7513198" lon="8.3834001"><ele>289.0</ele><time>2026-04-20T09:03:46.359Z</time></trkpt><trkpt lat="44.7512512" lon="8.3835359"><ele>289.0</ele><time>2026-04-20T09:03:47.362Z</time></trkpt><trkpt lat="44.7511839" lon="8.3837027"><ele>288.25</ele><time>2026-04-20T09:03:48.364Z</time></trkpt><trkpt lat="44.7511341" lon="8.3838706"><ele>287.5</ele><time>2026-04-20T09:03:49.358Z</time></trkpt><trkpt lat="44.7510814" lon="8.3840666"><ele>286.75</ele><time>2026-04-20T09:03:50.375Z</time></trkpt><trkpt lat="44.7510359" lon="8.3842518"><ele>286.0</ele><time>2026-04-20T09:03:51.369Z</time></trkpt><trkpt lat="44.7509775" lon="8.3844302"><ele>287.75</ele><time>2026-04-20T09:03:52.369Z</time></trkpt><trkpt lat="44.7509055" lon="8.3846022"><ele>289.5</ele><time>2026-04-20T09:03:53.363Z</time></trkpt><trkpt lat="44.7508055" lon="8.3847641"><ele>291.25</ele><time>2026-04-20T09:03:54.376Z</time></trkpt><trkpt lat="44.750698" lon="8.3849033"><ele>293.0</ele><time>2026-04-20T09:03:55.371Z</time></trkpt><trkpt lat="44.7505719" lon="8.3850331"><ele>293.0</ele><time>2026-04-20T09:03:56.381Z</time></trkpt><trkpt lat="44.7504405" lon="8.3851673"><ele>293.0</ele><time>2026-04-20T09:03:57.391Z</time></trkpt><trkpt lat="44.7503134" lon="8.3853204"><ele>293.0</ele><time>2026-04-20T09:03:58.385Z</time></trkpt><trkpt lat="44.7501851" lon="8.3854719"><ele>291.6666666666667</ele><time>2026-04-20T09:03:59.383Z</time></trkpt><trkpt lat="44.7500692" lon="8.3856368"><ele>290.3333333333333</ele><time>2026-04-20T09:04:00.398Z</time></trkpt><trkpt lat="44.7499551" lon="8.3858121"><ele>289.0</ele><time>2026-04-20T09:04:01.378Z</time></trkpt><trkpt lat="44.7498357" lon="8.3859713"><ele>289.0</ele><time>2026-04-20T09:04:02.368Z</time></trkpt><trkpt lat="44.7497342" lon="8.3860799"><ele>289.0</ele><time>2026-04-20T09:04:03.375Z</time></trkpt><trkpt lat="44.7496498" lon="8.3861945"><ele>289.0</ele><time>2026-04-20T09:04:04.375Z</time></trkpt><trkpt lat="44.7495783" lon="8.3863558"><ele>289.0</ele><time>2026-04-20T09:04:05.364Z</time></trkpt><trkpt lat="44.7494929" lon="8.3865214"><ele>288.5</ele><time>2026-04-20T09:04:06.368Z</time></trkpt><trkpt lat="44.7493952" lon="8.3866814"><ele>288.0</ele><time>2026-04-20T09:04:07.359Z</time></trkpt><trkpt lat="44.7493025" lon="8.3868577"><ele>287.5</ele><time>2026-04-20T09:04:08.376Z</time></trkpt><trkpt lat="44.7492357" lon="8.38701"><ele>287.0</ele><time>2026-04-20T09:04:09.374Z</time></trkpt><trkpt lat="44.7491796" lon="8.3870933"><ele>286.8</ele><time>2026-04-20T09:04:10.376Z</time></trkpt><trkpt lat="44.7491148" lon="8.3871353"><ele>286.6</ele><time>2026-04-20T09:04:11.363Z</time></trkpt><trkpt lat="44.749051" lon="8.3871603"><ele>286.40000000000003</ele><time>2026-04-20T09:04:12.366Z</time></trkpt><trkpt lat="44.7489672" lon="8.3871953"><ele>286.2</ele><time>2026-04-20T09:04:13.363Z</time></trkpt><trkpt lat="44.748853" lon="8.3872366"><ele>286.0</ele><time>2026-04-20T09:04:14.389Z</time></trkpt><trkpt lat="44.7487414" lon="8.3872746"><ele>287.25</ele><time>2026-04-20T09:04:15.376Z</time></trkpt><trkpt lat="44.7486143" lon="8.3873116"><ele>288.5</ele><time>2026-04-20T09:04:16.388Z</time></trkpt><trkpt lat="44.7484948" lon="8.3873364"><ele>289.75</ele><time>2026-04-20T09:04:17.375Z</time></trkpt><trkpt lat="44.748365" lon="8.3873679"><ele>291.0</ele><time>2026-04-20T09:04:18.38Z</time></trkpt><trkpt lat="44.7482296" lon="8.3873864"><ele>292.5</ele><time>2026-04-20T09:04:19.379Z</time></trkpt><trkpt lat="44.7480953" lon="8.3874058"><ele>294.0</ele><time>2026-04-20T09:04:20.372Z</time></trkpt><trkpt lat="44.7479659" lon="8.3874244"><ele>295.5</ele><time>2026-04-20T09:04:21.366Z</time></trkpt><trkpt lat="44.7478452" lon="8.3874303"><ele>297.0</ele><time>2026-04-20T09:04:22.358Z</time></trkpt><trkpt lat="44.7477228" lon="8.3874446"><ele>296.0</ele><time>2026-04-20T09:04:23.364Z</time></trkpt><trkpt lat="44.7476024" lon="8.3874446"><ele>295.0</ele><time>2026-04-20T09:04:24.371Z</time></trkpt><trkpt lat="44.7474867" lon="8.3874493"><ele>294.0</ele><time>2026-04-20T09:04:25.362Z</time></trkpt><trkpt lat="44.7473766" lon="8.3874499"><ele>293.0</ele><time>2026-04-20T09:04:26.373Z</time></trkpt><trkpt lat="44.747264" lon="8.3874631"><ele>293.0</ele><time>2026-04-20T09:04:27.37Z</time></trkpt><trkpt lat="44.7471644" lon="8.3874755"><ele>293.0</ele><time>2026-04-20T09:04:28.366Z</time></trkpt><trkpt lat="44.7470706" lon="8.3874856"><ele>293.0</ele><time>2026-04-20T09:04:29.383Z</time></trkpt><trkpt lat="44.7469808" lon="8.3874984"><ele>293.0</ele><time>2026-04-20T09:04:30.398Z</time></trkpt><trkpt lat="44.7468895" lon="8.3875154"><ele>293.0</ele><time>2026-04-20T09:04:31.382Z</time></trkpt><trkpt lat="44.7467837" lon="8.3875458"><ele>290.75</ele><time>2026-04-20T09:04:32.385Z</time></trkpt><trkpt lat="44.7466597" lon="8.3876013"><ele>288.5</ele><time>2026-04-20T09:04:33.386Z</time></trkpt><trkpt lat="44.7465407" lon="8.3876681"><ele>286.25</ele><time>2026-04-20T09:04:34.46Z</time></trkpt><trkpt lat="44.746429" lon="8.3877258"><ele>284.0</ele><time>2026-04-20T09:04:35.463Z</time></trkpt><trkpt lat="44.7463294" lon="8.3877491"><ele>284.0</ele><time>2026-04-20T09:04:36.463Z</time></trkpt><trkpt lat="44.746233" lon="8.3877427"><ele>284.0</ele><time>2026-04-20T09:04:37.46Z</time></trkpt><trkpt lat="44.7461285" lon="8.3877083"><ele>284.0</ele><time>2026-04-20T09:04:38.444Z</time></trkpt><trkpt lat="44.7459704" lon="8.3876558"><ele>284.0</ele><time>2026-04-20T09:04:39.451Z</time></trkpt><trkpt lat="44.7458531" lon="8.3875889"><ele>280.0</ele><time>2026-04-20T09:04:40.452Z</time></trkpt><trkpt lat="44.7457381" lon="8.3875089"><ele>276.0</ele><time>2026-04-20T09:04:41.448Z</time></trkpt><trkpt lat="44.7456254" lon="8.3874167"><ele>272.0</ele><time>2026-04-20T09:04:42.463Z</time></trkpt><trkpt lat="44.7455198" lon="8.3873209"><ele>268.0</ele><time>2026-04-20T09:04:43.47Z</time></trkpt><trkpt lat="44.7454158" lon="8.3872219"><ele>269.0</ele><time>2026-04-20T09:04:44.475Z</time></trkpt><trkpt lat="44.7452922" lon="8.38713"><ele>270.0</ele><time>2026-04-20T09:04:45.462Z</time></trkpt><trkpt lat="44.7451996" lon="8.3870015"><ele>271.0</ele><time>2026-04-20T09:04:46.462Z</time></trkpt><trkpt lat="44.745113" lon="8.3868665"><ele>272.0</ele><time>2026-04-20T09:04:47.472Z</time></trkpt><trkpt lat="44.7450277" lon="8.3867236"><ele>268.0</ele><time>2026-04-20T09:04:48.451Z</time></trkpt><trkpt lat="44.7449527" lon="8.3865817"><ele>264.0</ele><time>2026-04-20T09:04:49.457Z</time></trkpt><trkpt lat="44.7448698" lon="8.3864517"><ele>260.0</ele><time>2026-04-20T09:04:50.449Z</time></trkpt><trkpt lat="44.7447838" lon="8.3863592"><ele>256.0</ele><time>2026-04-20T09:04:51.446Z</time></trkpt><trkpt lat="44.7446827" lon="8.3862844"><ele>255.0</ele><time>2026-04-20T09:04:52.464Z</time></trkpt><trkpt lat="44.7445814" lon="8.3862221"><ele>254.0</ele><time>2026-04-20T09:04:53.476Z</time></trkpt><trkpt lat="44.7443921" lon="8.386028"><ele>253.0</ele><time>2026-04-20T09:04:55.354Z</time></trkpt><trkpt lat="44.744304" lon="8.3859109"><ele>252.16666666666666</ele><time>2026-04-20T09:04:56.351Z</time></trkpt><trkpt lat="44.7442349" lon="8.3858318"><ele>251.33333333333331</ele><time>2026-04-20T09:04:57.356Z</time></trkpt><trkpt lat="44.7441514" lon="8.3857961"><ele>250.5</ele><time>2026-04-20T09:04:58.364Z</time></trkpt><trkpt lat="44.7440673" lon="8.3857944"><ele>249.66666666666669</ele><time>2026-04-20T09:04:59.374Z</time></trkpt><trkpt lat="44.7439949" lon="8.3858264"><ele>248.83333333333334</ele><time>2026-04-20T09:05:00.366Z</time></trkpt><trkpt lat="44.7439162" lon="8.3858715"><ele>248.0</ele><time>2026-04-20T09:05:01.367Z</time></trkpt><trkpt lat="44.7438404" lon="8.3859197"><ele>248.00000000000003</ele><time>2026-04-20T09:05:02.361Z</time></trkpt><trkpt lat="44.7437542" lon="8.3859297"><ele>248.0</ele><time>2026-04-20T09:05:03.357Z</time></trkpt><trkpt lat="44.7436812" lon="8.3859207"><ele>248.0</ele><time>2026-04-20T09:05:04.358Z</time></trkpt><trkpt lat="44.7435949" lon="8.3858999"><ele>248.0</ele><time>2026-04-20T09:05:05.36Z</time></trkpt><trkpt lat="44.7435229" lon="8.3858787"><ele>248.00000000000003</ele><time>2026-04-20T09:05:06.361Z</time></trkpt><trkpt lat="44.7434242" lon="8.3858345"><ele>248.0</ele><time>2026-04-20T09:05:08.367Z</time></trkpt><trkpt lat="44.7433509" lon="8.3858456"><ele>248.2</ele><time>2026-04-20T09:05:13.369Z</time></trkpt><trkpt lat="44.7433001" lon="8.3859129"><ele>248.4</ele><time>2026-04-20T09:05:14.359Z</time></trkpt><trkpt lat="44.7432345" lon="8.3860107"><ele>248.59999999999997</ele><time>2026-04-20T09:05:15.372Z</time></trkpt><trkpt lat="44.7431332" lon="8.3861385"><ele>248.79999999999998</ele><time>2026-04-20T09:05:16.359Z</time></trkpt><trkpt lat="44.7430403" lon="8.3862957"><ele>249.0</ele><time>2026-04-20T09:05:17.368Z</time></trkpt><trkpt lat="44.7429478" lon="8.3864626"><ele>249.0</ele><time>2026-04-20T09:05:18.375Z</time></trkpt><trkpt lat="44.7428609" lon="8.3866124"><ele>249.0</ele><time>2026-04-20T09:05:19.376Z</time></trkpt><trkpt lat="44.7427803" lon="8.386767"><ele>249.0</ele><time>2026-04-20T09:05:20.372Z</time></trkpt><trkpt lat="44.742698" lon="8.3869228"><ele>249.0</ele><time>2026-04-20T09:05:21.371Z</time></trkpt><trkpt lat="44.7426091" lon="8.3870781"><ele>249.75</ele><time>2026-04-20T09:05:22.375Z</time></trkpt><trkpt lat="44.7425377" lon="8.3872254"><ele>250.5</ele><time>2026-04-20T09:05:23.373Z</time></trkpt><trkpt lat="44.7424761" lon="8.3874014"><ele>251.25</ele><time>2026-04-20T09:05:24.363Z</time></trkpt><trkpt lat="44.7424424" lon="8.3876103"><ele>252.0</ele><time>2026-04-20T09:05:25.365Z</time></trkpt><trkpt lat="44.7424233" lon="8.3878351"><ele>253.33333333333331</ele><time>2026-04-20T09:05:26.36Z</time></trkpt><trkpt lat="44.742413" lon="8.3880804"><ele>254.66666666666666</ele><time>2026-04-20T09:05:27.358Z</time></trkpt><trkpt lat="44.7423888" lon="8.3883183"><ele>256.0</ele><time>2026-04-20T09:05:28.376Z</time></trkpt><trkpt lat="44.7423777" lon="8.3885671"><ele>256.0</ele><time>2026-04-20T09:05:29.361Z</time></trkpt><trkpt lat="44.7423474" lon="8.3888102"><ele>256.0</ele><time>2026-04-20T09:05:30.369Z</time></trkpt><trkpt lat="44.7423103" lon="8.3890886"><ele>256.0</ele><time>2026-04-20T09:05:31.36Z</time></trkpt><trkpt lat="44.7422937" lon="8.3893467"><ele>256.0</ele><time>2026-04-20T09:05:32.365Z</time></trkpt><trkpt lat="44.7422721" lon="8.3896014"><ele>256.0</ele><time>2026-04-20T09:05:33.359Z</time></trkpt><trkpt lat="44.7422531" lon="8.389825"><ele>256.0</ele><time>2026-04-20T09:05:34.357Z</time></trkpt><trkpt lat="44.7422328" lon="8.3900219"><ele>256.5</ele><time>2026-04-20T09:05:35.368Z</time></trkpt><trkpt lat="44.7422232" lon="8.3901972"><ele>257.0</ele><time>2026-04-20T09:05:36.369Z</time></trkpt><trkpt lat="44.7421989" lon="8.3903796"><ele>257.5</ele><time>2026-04-20T09:05:37.356Z</time></trkpt><trkpt lat="44.7421476" lon="8.3905416"><ele>258.0</ele><time>2026-04-20T09:05:38.352Z</time></trkpt><trkpt lat="44.7420455" lon="8.3906902"><ele>259.3333333333333</ele><time>2026-04-20T09:05:39.349Z</time></trkpt><trkpt lat="44.7419099" lon="8.3907848"><ele>260.66666666666663</ele><time>2026-04-20T09:05:40.353Z</time></trkpt><trkpt lat="44.7417537" lon="8.3908152"><ele>262.0</ele><time>2026-04-20T09:05:41.348Z</time></trkpt><trkpt lat="44.7415921" lon="8.3908155"><ele>264.0</ele><time>2026-04-20T09:05:42.347Z</time></trkpt><trkpt lat="44.7414081" lon="8.3907708"><ele>266.0</ele><time>2026-04-20T09:05:43.364Z</time></trkpt><trkpt lat="44.7412166" lon="8.3907175"><ele>268.0</ele><time>2026-04-20T09:05:44.373Z</time></trkpt><trkpt lat="44.7410226" lon="8.3906965"><ele>269.66666666666663</ele><time>2026-04-20T09:05:45.365Z</time></trkpt><trkpt lat="44.7408245" lon="8.3907032"><ele>271.3333333333333</ele><time>2026-04-20T09:05:46.364Z</time></trkpt><trkpt lat="44.7406375" lon="8.3907384"><ele>273.0</ele><time>2026-04-20T09:05:47.357Z</time></trkpt><trkpt lat="44.7404528" lon="8.3908113"><ele>273.0</ele><time>2026-04-20T09:05:48.36Z</time></trkpt><trkpt lat="44.7402767" lon="8.3908615"><ele>273.0</ele><time>2026-04-20T09:05:49.363Z</time></trkpt><trkpt lat="44.7401085" lon="8.3909395"><ele>273.0</ele><time>2026-04-20T09:05:50.358Z</time></trkpt><trkpt lat="44.739968" lon="8.3909643"><ele>274.0</ele><time>2026-04-20T09:05:51.363Z</time></trkpt><trkpt lat="44.73985" lon="8.3909295"><ele>275.0</ele><time>2026-04-20T09:05:52.371Z</time></trkpt><trkpt lat="44.7397132" lon="8.3908195"><ele>276.0</ele><time>2026-04-20T09:05:53.365Z</time></trkpt><trkpt lat="44.7395561" lon="8.3907404"><ele>277.0</ele><time>2026-04-20T09:05:54.365Z</time></trkpt><trkpt lat="44.7394148" lon="8.3906998"><ele>278.66666666666663</ele><time>2026-04-20T09:05:55.364Z</time></trkpt><trkpt lat="44.7392563" lon="8.3907533"><ele>280.3333333333333</ele><time>2026-04-20T09:05:56.361Z</time></trkpt><trkpt lat="44.7391114" lon="8.3908911"><ele>282.0</ele><time>2026-04-20T09:05:57.357Z</time></trkpt><trkpt lat="44.7389788" lon="8.3910805"><ele>282.0</ele><time>2026-04-20T09:05:58.369Z</time></trkpt><trkpt lat="44.738834" lon="8.3912322"><ele>282.0</ele><time>2026-04-20T09:05:59.353Z</time></trkpt><trkpt lat="44.7387072" lon="8.3913696"><ele>282.0</ele><time>2026-04-20T09:06:00.36Z</time></trkpt><trkpt lat="44.7385678" lon="8.3914573"><ele>282.25</ele><time>2026-04-20T09:06:01.36Z</time></trkpt><trkpt lat="44.7384302" lon="8.3914703"><ele>282.5</ele><time>2026-04-20T09:06:02.356Z</time></trkpt><trkpt lat="44.7382971" lon="8.3914471"><ele>282.75</ele><time>2026-04-20T09:06:03.352Z</time></trkpt><trkpt lat="44.7381534" lon="8.3913656"><ele>283.0</ele><time>2026-04-20T09:06:04.357Z</time></trkpt><trkpt lat="44.7379888" lon="8.3912808"><ele>285.66666666666663</ele><time>2026-04-20T09:06:05.356Z</time></trkpt><trkpt lat="44.7378332" lon="8.3911722"><ele>288.3333333333333</ele><time>2026-04-20T09:06:06.351Z</time></trkpt><trkpt lat="44.7376521" lon="8.3910602"><ele>291.0</ele><time>2026-04-20T09:06:07.357Z</time></trkpt><trkpt lat="44.7374646" lon="8.3909967"><ele>291.0</ele><time>2026-04-20T09:06:08.36Z</time></trkpt><trkpt lat="44.7372525" lon="8.3909354"><ele>291.0</ele><time>2026-04-20T09:06:09.361Z</time></trkpt><trkpt lat="44.7370565" lon="8.390886"><ele>291.0</ele><time>2026-04-20T09:06:10.367Z</time></trkpt><trkpt lat="44.7368528" lon="8.3908248"><ele>291.3333333333333</ele><time>2026-04-20T09:06:11.365Z</time></trkpt><trkpt lat="44.736683" lon="8.390727"><ele>291.66666666666663</ele><time>2026-04-20T09:06:12.355Z</time></trkpt><trkpt lat="44.7365347" lon="8.3906332"><ele>292.0</ele><time>2026-04-20T09:06:13.363Z</time></trkpt><trkpt lat="44.7363809" lon="8.3905237"><ele>296.0</ele><time>2026-04-20T09:06:14.362Z</time></trkpt><trkpt lat="44.7362631" lon="8.3904011"><ele>300.0</ele><time>2026-04-20T09:06:15.355Z</time></trkpt><trkpt lat="44.7360975" lon="8.3903603"><ele>304.0</ele><time>2026-04-20T09:06:16.358Z</time></trkpt><trkpt lat="44.7358886" lon="8.3903501"><ele>304.66666666666663</ele><time>2026-04-20T09:06:17.356Z</time></trkpt><trkpt lat="44.7356757" lon="8.3903331"><ele>305.3333333333333</ele><time>2026-04-20T09:06:18.367Z</time></trkpt><trkpt lat="44.7354577" lon="8.3903344"><ele>306.0</ele><time>2026-04-20T09:06:19.366Z</time></trkpt><trkpt lat="44.7352371" lon="8.3903257"><ele>306.6666666666667</ele><time>2026-04-20T09:06:20.363Z</time></trkpt><trkpt lat="44.7350221" lon="8.3903064"><ele>307.33333333333337</ele><time>2026-04-20T09:06:21.368Z</time></trkpt><trkpt lat="44.7348221" lon="8.3902928"><ele>308.0</ele><time>2026-04-20T09:06:22.366Z</time></trkpt><trkpt lat="44.7346685" lon="8.3903237"><ele>308.0</ele><time>2026-04-20T09:06:23.357Z</time></trkpt><trkpt lat="44.7344964" lon="8.3904013"><ele>308.0</ele><time>2026-04-20T09:06:24.359Z</time></trkpt><trkpt lat="44.7343056" lon="8.3904737"><ele>308.0</ele><time>2026-04-20T09:06:25.369Z</time></trkpt><trkpt lat="44.7340947" lon="8.3905411"><ele>307.0</ele><time>2026-04-20T09:06:26.358Z</time></trkpt><trkpt lat="44.7339157" lon="8.3905424"><ele>306.0</ele><time>2026-04-20T09:06:27.351Z</time></trkpt><trkpt lat="44.7337719" lon="8.390513"><ele>305.0</ele><time>2026-04-20T09:06:28.36Z</time></trkpt><trkpt lat="44.7335986" lon="8.3904759"><ele>306.75</ele><time>2026-04-20T09:06:29.359Z</time></trkpt><trkpt lat="44.7334479" lon="8.3904342"><ele>308.5</ele><time>2026-04-20T09:06:30.357Z</time></trkpt><trkpt lat="44.7333087" lon="8.3903859"><ele>310.25</ele><time>2026-04-20T09:06:31.352Z</time></trkpt><trkpt lat="44.7331582" lon="8.3904178"><ele>312.0</ele><time>2026-04-20T09:06:32.359Z</time></trkpt><trkpt lat="44.733025" lon="8.3905376"><ele>312.0</ele><time>2026-04-20T09:06:33.343Z</time></trkpt><trkpt lat="44.7328829" lon="8.3906592"><ele>312.0</ele><time>2026-04-20T09:06:34.369Z</time></trkpt><trkpt lat="44.732745" lon="8.3908419"><ele>312.0</ele><time>2026-04-20T09:06:35.355Z</time></trkpt><trkpt lat="44.732602" lon="8.391033"><ele>314.0</ele><time>2026-04-20T09:06:36.355Z</time></trkpt><trkpt lat="44.7324558" lon="8.3912611"><ele>316.0</ele><time>2026-04-20T09:06:37.357Z</time></trkpt><trkpt lat="44.7323069" lon="8.3914615"><ele>318.0</ele><time>2026-04-20T09:06:38.356Z</time></trkpt><trkpt lat="44.7321623" lon="8.3916721"><ele>318.0</ele><time>2026-04-20T09:06:39.366Z</time></trkpt><trkpt lat="44.7320198" lon="8.3918888"><ele>318.0</ele><time>2026-04-20T09:06:40.36Z</time></trkpt><trkpt lat="44.7319004" lon="8.3921066"><ele>318.0</ele><time>2026-04-20T09:06:41.359Z</time></trkpt><trkpt lat="44.7318077" lon="8.3923155"><ele>320.6</ele><time>2026-04-20T09:06:42.356Z</time></trkpt><trkpt lat="44.731742" lon="8.3924799"><ele>323.20000000000005</ele><time>2026-04-20T09:06:43.356Z</time></trkpt><trkpt lat="44.7316779" lon="8.392628"><ele>325.8</ele><time>2026-04-20T09:06:44.359Z</time></trkpt><trkpt lat="44.7316487" lon="8.392716"><ele>328.40000000000003</ele><time>2026-04-20T09:06:45.361Z</time></trkpt><trkpt lat="44.7316168" lon="8.3928642"><ele>331.0</ele><time>2026-04-20T09:06:47.368Z</time></trkpt><trkpt lat="44.7315954" lon="8.392948"><ele>330.8</ele><time>2026-04-20T09:06:48.356Z</time></trkpt><trkpt lat="44.7315742" lon="8.3930519"><ele>330.6</ele><time>2026-04-20T09:06:49.358Z</time></trkpt><trkpt lat="44.7315378" lon="8.3931775"><ele>330.4</ele><time>2026-04-20T09:06:50.357Z</time></trkpt><trkpt lat="44.7314936" lon="8.3933013"><ele>330.2</ele><time>2026-04-20T09:06:51.364Z</time></trkpt><trkpt lat="44.7314473" lon="8.3934371"><ele>330.0</ele><time>2026-04-20T09:06:52.364Z</time></trkpt><trkpt lat="44.7314008" lon="8.3935918"><ele>330.0</ele><time>2026-04-20T09:06:53.386Z</time></trkpt><trkpt lat="44.731356" lon="8.3937545"><ele>330.0</ele><time>2026-04-20T09:06:54.464Z</time></trkpt><trkpt lat="44.7313089" lon="8.3939252"><ele>330.0</ele><time>2026-04-20T09:06:55.454Z</time></trkpt><trkpt lat="44.731279" lon="8.3941042"><ele>330.0</ele><time>2026-04-20T09:06:56.455Z</time></trkpt><trkpt lat="44.7312742" lon="8.3942936"><ele>330.0</ele><time>2026-04-20T09:06:57.449Z</time></trkpt><trkpt lat="44.7312808" lon="8.3944873"><ele>330.0</ele><time>2026-04-20T09:06:58.447Z</time></trkpt><trkpt lat="44.7312907" lon="8.3946847"><ele>330.0</ele><time>2026-04-20T09:06:59.452Z</time></trkpt><trkpt lat="44.7313" lon="8.3948805"><ele>330.0</ele><time>2026-04-20T09:07:00.452Z</time></trkpt><trkpt lat="44.7313375" lon="8.3950559"><ele>331.75</ele><time>2026-04-20T09:07:01.451Z</time></trkpt><trkpt lat="44.731387" lon="8.3952043"><ele>333.5</ele><time>2026-04-20T09:07:02.462Z</time></trkpt><trkpt lat="44.7314471" lon="8.3954987"><ele>335.25</ele><time>2026-04-20T09:07:04.354Z</time></trkpt><trkpt lat="44.7314561" lon="8.3956391"><ele>337.0</ele><time>2026-04-20T09:07:05.357Z</time></trkpt><trkpt lat="44.7314396" lon="8.3957832"><ele>338.0</ele><time>2026-04-20T09:07:06.352Z</time></trkpt><trkpt lat="44.7314171" lon="8.3959318"><ele>339.0</ele><time>2026-04-20T09:07:07.341Z</time></trkpt><trkpt lat="44.7313625" lon="8.3960714"><ele>340.0</ele><time>2026-04-20T09:07:08.34Z</time></trkpt><trkpt lat="44.73129" lon="8.3961949"><ele>341.0</ele><time>2026-04-20T09:07:09.347Z</time></trkpt><trkpt lat="44.7312036" lon="8.3962922"><ele>342.0</ele><time>2026-04-20T09:07:10.341Z</time></trkpt><trkpt lat="44.7310904" lon="8.3963491"><ele>342.6666666666667</ele><time>2026-04-20T09:07:11.349Z</time></trkpt><trkpt lat="44.7309502" lon="8.3963855"><ele>343.33333333333337</ele><time>2026-04-20T09:07:12.36Z</time></trkpt><trkpt lat="44.7307857" lon="8.3964159"><ele>344.0</ele><time>2026-04-20T09:07:13.364Z</time></trkpt><trkpt lat="44.7306038" lon="8.3964733"><ele>344.0</ele><time>2026-04-20T09:07:14.354Z</time></trkpt><trkpt lat="44.7304441" lon="8.3965686"><ele>344.0</ele><time>2026-04-20T09:07:15.355Z</time></trkpt><trkpt lat="44.730303" lon="8.3966892"><ele>344.0</ele><time>2026-04-20T09:07:16.356Z</time></trkpt><trkpt lat="44.7301705" lon="8.3968496"><ele>344.33333333333337</ele><time>2026-04-20T09:07:17.354Z</time></trkpt><trkpt lat="44.730077" lon="8.3970495"><ele>344.6666666666667</ele><time>2026-04-20T09:07:18.361Z</time></trkpt><trkpt lat="44.7300037" lon="8.39727"><ele>345.0</ele><time>2026-04-20T09:07:19.351Z</time></trkpt><trkpt lat="44.7299566" lon="8.3975213"><ele>345.0</ele><time>2026-04-20T09:07:20.353Z</time></trkpt><trkpt lat="44.7299128" lon="8.3978008"><ele>345.0</ele><time>2026-04-20T09:07:21.358Z</time></trkpt><trkpt lat="44.7298674" lon="8.398096"><ele>345.0</ele><time>2026-04-20T09:07:22.37Z</time></trkpt><trkpt lat="44.7298028" lon="8.3984208"><ele>344.0</ele><time>2026-04-20T09:07:23.369Z</time></trkpt><trkpt lat="44.7297524" lon="8.3987363"><ele>343.0</ele><time>2026-04-20T09:07:24.369Z</time></trkpt><trkpt lat="44.7296821" lon="8.3990604"><ele>342.5</ele><time>2026-04-20T09:07:25.365Z</time></trkpt><trkpt lat="44.7296112" lon="8.3993759"><ele>342.0</ele><time>2026-04-20T09:07:26.363Z</time></trkpt><trkpt lat="44.7295547" lon="8.3996872"><ele>339.5</ele><time>2026-04-20T09:07:27.359Z</time></trkpt><trkpt lat="44.7294904" lon="8.4000002"><ele>337.0</ele><time>2026-04-20T09:07:28.359Z</time></trkpt><trkpt lat="44.7294415" lon="8.4003054"><ele>336.0</ele><time>2026-04-20T09:07:29.368Z</time></trkpt><trkpt lat="44.7293993" lon="8.4005865"><ele>335.0</ele><time>2026-04-20T09:07:30.378Z</time></trkpt><trkpt lat="44.7293487" lon="8.4008634"><ele>334.0</ele><time>2026-04-20T09:07:31.368Z</time></trkpt><trkpt lat="44.7293092" lon="8.4011434"><ele>339.66666666666663</ele><time>2026-04-20T09:07:32.361Z</time></trkpt><trkpt lat="44.729259" lon="8.4014314"><ele>345.3333333333333</ele><time>2026-04-20T09:07:33.362Z</time></trkpt><trkpt lat="44.7292167" lon="8.4016942"><ele>351.0</ele><time>2026-04-20T09:07:34.363Z</time></trkpt><trkpt lat="44.7291734" lon="8.4019564"><ele>349.6666666666667</ele><time>2026-04-20T09:07:35.364Z</time></trkpt><trkpt lat="44.7291235" lon="8.4022169"><ele>348.33333333333337</ele><time>2026-04-20T09:07:36.358Z</time></trkpt><trkpt lat="44.7290731" lon="8.4024665"><ele>347.0</ele><time>2026-04-20T09:07:37.357Z</time></trkpt><trkpt lat="44.7289823" lon="8.4027141"><ele>347.0</ele><time>2026-04-20T09:07:38.353Z</time></trkpt><trkpt lat="44.7288596" lon="8.4029454"><ele>347.0</ele><time>2026-04-20T09:07:39.351Z</time></trkpt><trkpt lat="44.7287275" lon="8.4031886"><ele>347.0</ele><time>2026-04-20T09:07:40.368Z</time></trkpt><trkpt lat="44.7285848" lon="8.4034019"><ele>346.33333333333337</ele><time>2026-04-20T09:07:41.358Z</time></trkpt><trkpt lat="44.7284452" lon="8.4036279"><ele>345.6666666666667</ele><time>2026-04-20T09:07:42.362Z</time></trkpt><trkpt lat="44.7282936" lon="8.403866"><ele>345.0</ele><time>2026-04-20T09:07:43.365Z</time></trkpt><trkpt lat="44.7281591" lon="8.4040834"><ele>345.0</ele><time>2026-04-20T09:07:44.363Z</time></trkpt><trkpt lat="44.7280282" lon="8.4043118"><ele>345.0</ele><time>2026-04-20T09:07:45.365Z</time></trkpt><trkpt lat="44.7278888" lon="8.4045292"><ele>345.0</ele><time>2026-04-20T09:07:46.367Z</time></trkpt><trkpt lat="44.7277553" lon="8.4047502"><ele>347.6666666666667</ele><time>2026-04-20T09:07:47.357Z</time></trkpt><trkpt lat="44.7276251" lon="8.4049511"><ele>350.33333333333337</ele><time>2026-04-20T09:07:48.375Z</time></trkpt><trkpt lat="44.727506" lon="8.4051594"><ele>353.0</ele><time>2026-04-20T09:07:49.37Z</time></trkpt><trkpt lat="44.727387" lon="8.4053705"><ele>351.0</ele><time>2026-04-20T09:07:50.372Z</time></trkpt><trkpt lat="44.7272917" lon="8.4055532"><ele>349.0</ele><time>2026-04-20T09:07:51.368Z</time></trkpt><trkpt lat="44.7271884" lon="8.4057423"><ele>347.0</ele><time>2026-04-20T09:07:52.37Z</time></trkpt><trkpt lat="44.7271061" lon="8.4059505"><ele>347.0</ele><time>2026-04-20T09:07:53.371Z</time></trkpt><trkpt lat="44.7270576" lon="8.4061572"><ele>347.0</ele><time>2026-04-20T09:07:54.371Z</time></trkpt><trkpt lat="44.7270499" lon="8.4063904"><ele>347.0</ele><time>2026-04-20T09:07:55.364Z</time></trkpt><trkpt lat="44.7270517" lon="8.4066314"><ele>347.0</ele><time>2026-04-20T09:07:56.364Z</time></trkpt><trkpt lat="44.7270798" lon="8.4068761"><ele>347.0</ele><time>2026-04-20T09:07:57.363Z</time></trkpt><trkpt lat="44.7271341" lon="8.4071019"><ele>347.0</ele><time>2026-04-20T09:07:58.369Z</time></trkpt><trkpt lat="44.7271867" lon="8.4073261"><ele>347.6666666666667</ele><time>2026-04-20T09:07:59.355Z</time></trkpt><trkpt lat="44.7271908" lon="8.4075476"><ele>348.3333333333333</ele><time>2026-04-20T09:08:00.357Z</time></trkpt><trkpt lat="44.7271516" lon="8.4077623"><ele>349.0</ele><time>2026-04-20T09:08:01.359Z</time></trkpt><trkpt lat="44.7270561" lon="8.4079913"><ele>349.66666666666663</ele><time>2026-04-20T09:08:02.349Z</time></trkpt><trkpt lat="44.7269543" lon="8.4082475"><ele>350.3333333333333</ele><time>2026-04-20T09:08:03.349Z</time></trkpt><trkpt lat="44.7268696" lon="8.4084832"><ele>351.0</ele><time>2026-04-20T09:08:04.343Z</time></trkpt><trkpt lat="44.7267694" lon="8.4087122"><ele>354.6666666666667</ele><time>2026-04-20T09:08:05.344Z</time></trkpt><trkpt lat="44.7266805" lon="8.4089224"><ele>358.33333333333337</ele><time>2026-04-20T09:08:06.358Z</time></trkpt><trkpt lat="44.7266041" lon="8.4091252"><ele>362.0</ele><time>2026-04-20T09:08:07.363Z</time></trkpt><trkpt lat="44.7265699" lon="8.4093345"><ele>362.0</ele><time>2026-04-20T09:08:08.356Z</time></trkpt><trkpt lat="44.726595" lon="8.4095631"><ele>362.0</ele><time>2026-04-20T09:08:09.36Z</time></trkpt><trkpt lat="44.7266531" lon="8.4097988"><ele>362.0</ele><time>2026-04-20T09:08:10.37Z</time></trkpt><trkpt lat="44.7267038" lon="8.4100078"><ele>363.25</ele><time>2026-04-20T09:08:11.356Z</time></trkpt><trkpt lat="44.7267486" lon="8.4102248"><ele>364.5</ele><time>2026-04-20T09:08:12.356Z</time></trkpt><trkpt lat="44.7267946" lon="8.4104293"><ele>365.75</ele><time>2026-04-20T09:08:13.359Z</time></trkpt><trkpt lat="44.7268229" lon="8.4106051"><ele>367.0</ele><time>2026-04-20T09:08:14.344Z</time></trkpt><trkpt lat="44.7268228" lon="8.4107823"><ele>368.3333333333333</ele><time>2026-04-20T09:08:15.35Z</time></trkpt><trkpt lat="44.7267709" lon="8.4109443"><ele>369.6666666666667</ele><time>2026-04-20T09:08:16.361Z</time></trkpt><trkpt lat="44.7266628" lon="8.4111216"><ele>371.0</ele><time>2026-04-20T09:08:17.354Z</time></trkpt><trkpt lat="44.7265306" lon="8.4112954"><ele>371.6666666666667</ele><time>2026-04-20T09:08:18.354Z</time></trkpt><trkpt lat="44.7263697" lon="8.4114345"><ele>372.3333333333333</ele><time>2026-04-20T09:08:19.36Z</time></trkpt><trkpt lat="44.7262128" lon="8.4115949"><ele>373.0</ele><time>2026-04-20T09:08:20.369Z</time></trkpt><trkpt lat="44.7260563" lon="8.4117249"><ele>373.0</ele><time>2026-04-20T09:08:21.363Z</time></trkpt><trkpt lat="44.7259046" lon="8.4118588"><ele>373.0</ele><time>2026-04-20T09:08:22.363Z</time></trkpt><trkpt lat="44.7257382" lon="8.411954"><ele>373.0</ele><time>2026-04-20T09:08:23.379Z</time></trkpt><trkpt lat="44.725575" lon="8.4120237"><ele>373.0</ele><time>2026-04-20T09:08:24.366Z</time></trkpt><trkpt lat="44.7254283" lon="8.4120529"><ele>373.0</ele><time>2026-04-20T09:08:25.363Z</time></trkpt><trkpt lat="44.7252865" lon="8.4120857"><ele>373.0</ele><time>2026-04-20T09:08:26.362Z</time></trkpt><trkpt lat="44.7251813" lon="8.4121714"><ele>373.0</ele><time>2026-04-20T09:08:27.356Z</time></trkpt><trkpt lat="44.7251132" lon="8.4123423"><ele>371.5</ele><time>2026-04-20T09:08:28.366Z</time></trkpt><trkpt lat="44.725052" lon="8.4125415"><ele>370.0</ele><time>2026-04-20T09:08:29.359Z</time></trkpt><trkpt lat="44.7249706" lon="8.4127093"><ele>368.5</ele><time>2026-04-20T09:08:30.361Z</time></trkpt><trkpt lat="44.7248849" lon="8.4128455"><ele>367.0</ele><time>2026-04-20T09:08:31.351Z</time></trkpt><trkpt lat="44.7247576" lon="8.4128986"><ele>367.0</ele><time>2026-04-20T09:08:32.349Z</time></trkpt><trkpt lat="44.7246448" lon="8.4129663"><ele>367.0</ele><time>2026-04-20T09:08:33.354Z</time></trkpt><trkpt lat="44.7244672" lon="8.4130751"><ele>367.0</ele><time>2026-04-20T09:08:34.354Z</time></trkpt><trkpt lat="44.7242735" lon="8.4132025"><ele>365.0</ele><time>2026-04-20T09:08:35.354Z</time></trkpt><trkpt lat="44.7240853" lon="8.4133192"><ele>363.0</ele><time>2026-04-20T09:08:36.355Z</time></trkpt><trkpt lat="44.7239117" lon="8.4134308"><ele>361.0</ele><time>2026-04-20T09:08:37.36Z</time></trkpt><trkpt lat="44.7237492" lon="8.4135386"><ele>361.0</ele><time>2026-04-20T09:08:38.363Z</time></trkpt><trkpt lat="44.7236032" lon="8.4136357"><ele>361.0</ele><time>2026-04-20T09:08:39.363Z</time></trkpt><trkpt lat="44.7234647" lon="8.413699"><ele>361.0</ele><time>2026-04-20T09:08:40.358Z</time></trkpt><trkpt lat="44.723354" lon="8.4137717"><ele>361.0</ele><time>2026-04-20T09:08:41.359Z</time></trkpt><trkpt lat="44.7232351" lon="8.4138714"><ele>359.3333333333333</ele><time>2026-04-20T09:08:42.351Z</time></trkpt><trkpt lat="44.723162" lon="8.4140201"><ele>357.6666666666667</ele><time>2026-04-20T09:08:43.361Z</time></trkpt><trkpt lat="44.7231025" lon="8.4142252"><ele>356.0</ele><time>2026-04-20T09:08:44.362Z</time></trkpt><trkpt lat="44.7230915" lon="8.4144768"><ele>354.0</ele><time>2026-04-20T09:08:45.353Z</time></trkpt><trkpt lat="44.7230531" lon="8.4147005"><ele>352.0</ele><time>2026-04-20T09:08:46.363Z</time></trkpt><trkpt lat="44.7230612" lon="8.4149352"><ele>350.0</ele><time>2026-04-20T09:08:47.353Z</time></trkpt><trkpt lat="44.7230418" lon="8.4151565"><ele>350.0</ele><time>2026-04-20T09:08:48.357Z</time></trkpt><trkpt lat="44.7230519" lon="8.4153655"><ele>350.0</ele><time>2026-04-20T09:08:49.347Z</time></trkpt><trkpt lat="44.723048" lon="8.4155702"><ele>350.0</ele><time>2026-04-20T09:08:50.356Z</time></trkpt><trkpt lat="44.7230525" lon="8.4157535"><ele>350.0</ele><time>2026-04-20T09:08:51.357Z</time></trkpt><trkpt lat="44.7230927" lon="8.4159217"><ele>349.75</ele><time>2026-04-20T09:08:52.36Z</time></trkpt><trkpt lat="44.7231803" lon="8.4160934"><ele>349.5</ele><time>2026-04-20T09:08:53.367Z</time></trkpt><trkpt lat="44.7233096" lon="8.4161756"><ele>349.25</ele><time>2026-04-20T09:08:54.349Z</time></trkpt><trkpt lat="44.7234592" lon="8.4162029"><ele>349.0</ele><time>2026-04-20T09:08:55.362Z</time></trkpt><trkpt lat="44.7236049" lon="8.4162727"><ele>347.75</ele><time>2026-04-20T09:08:56.355Z</time></trkpt><trkpt lat="44.7237695" lon="8.4163252"><ele>346.5</ele><time>2026-04-20T09:08:57.381Z</time></trkpt><trkpt lat="44.7238879" lon="8.4164037"><ele>345.25</ele><time>2026-04-20T09:08:58.368Z</time></trkpt><trkpt lat="44.7239785" lon="8.4165104"><ele>344.0</ele><time>2026-04-20T09:08:59.376Z</time></trkpt><trkpt lat="44.7240249" lon="8.4166668"><ele>344.0</ele><time>2026-04-20T09:09:00.373Z</time></trkpt><trkpt lat="44.7240258" lon="8.4168632"><ele>344.0</ele><time>2026-04-20T09:09:01.362Z</time></trkpt><trkpt lat="44.7240436" lon="8.4170532"><ele>344.0</ele><time>2026-04-20T09:09:02.35Z</time></trkpt><trkpt lat="44.7240926" lon="8.4172039"><ele>344.0</ele><time>2026-04-20T09:09:03.36Z</time></trkpt><trkpt lat="44.7241615" lon="8.417336"><ele>344.0</ele><time>2026-04-20T09:09:04.364Z</time></trkpt><trkpt lat="44.7242573" lon="8.417467"><ele>344.0</ele><time>2026-04-20T09:09:05.355Z</time></trkpt><trkpt lat="44.7243704" lon="8.4175446"><ele>344.0</ele><time>2026-04-20T09:09:06.354Z</time></trkpt><trkpt lat="44.7245145" lon="8.4175643"><ele>344.0</ele><time>2026-04-20T09:09:07.353Z</time></trkpt><trkpt lat="44.7246557" lon="8.4175907"><ele>343.25</ele><time>2026-04-20T09:09:08.356Z</time></trkpt><trkpt lat="44.7247984" lon="8.4176039"><ele>342.5</ele><time>2026-04-20T09:09:09.372Z</time></trkpt><trkpt lat="44.7249145" lon="8.4176658"><ele>341.75</ele><time>2026-04-20T09:09:10.368Z</time></trkpt><trkpt lat="44.7249991" lon="8.4178235"><ele>341.0</ele><time>2026-04-20T09:09:11.369Z</time></trkpt><trkpt lat="44.7250834" lon="8.4180236"><ele>341.0</ele><time>2026-04-20T09:09:12.369Z</time></trkpt><trkpt lat="44.7251842" lon="8.4181982"><ele>341.0</ele><time>2026-04-20T09:09:13.36Z</time></trkpt><trkpt lat="44.7252934" lon="8.4183397"><ele>341.0</ele><time>2026-04-20T09:09:14.365Z</time></trkpt><trkpt lat="44.7254134" lon="8.4184539"><ele>340.75</ele><time>2026-04-20T09:09:15.366Z</time></trkpt><trkpt lat="44.7255072" lon="8.4185625"><ele>340.5</ele><time>2026-04-20T09:09:16.359Z</time></trkpt><trkpt lat="44.725561" lon="8.4186814"><ele>340.25</ele><time>2026-04-20T09:09:17.371Z</time></trkpt><trkpt lat="44.7255881" lon="8.418819"><ele>340.0</ele><time>2026-04-20T09:09:18.36Z</time></trkpt><trkpt lat="44.7255673" lon="8.4190002"><ele>340.0</ele><time>2026-04-20T09:09:19.352Z</time></trkpt><trkpt lat="44.7255414" lon="8.4191988"><ele>340.0</ele><time>2026-04-20T09:09:20.358Z</time></trkpt><trkpt lat="44.725532" lon="8.419426"><ele>340.0</ele><time>2026-04-20T09:09:21.357Z</time></trkpt><trkpt lat="44.7255579" lon="8.4196537"><ele>338.66666666666663</ele><time>2026-04-20T09:09:22.36Z</time></trkpt><trkpt lat="44.7256465" lon="8.419896"><ele>337.3333333333333</ele><time>2026-04-20T09:09:23.372Z</time></trkpt><trkpt lat="44.7257255" lon="8.4201111"><ele>336.0</ele><time>2026-04-20T09:09:24.366Z</time></trkpt><trkpt lat="44.7257994" lon="8.4203433"><ele>333.0</ele><time>2026-04-20T09:09:25.356Z</time></trkpt><trkpt lat="44.7258872" lon="8.4205797"><ele>330.0</ele><time>2026-04-20T09:09:26.357Z</time></trkpt><trkpt lat="44.72597" lon="8.4207763"><ele>327.0</ele><time>2026-04-20T09:09:27.368Z</time></trkpt><trkpt lat="44.7260495" lon="8.4209808"><ele>325.0</ele><time>2026-04-20T09:09:28.354Z</time></trkpt><trkpt lat="44.7261048" lon="8.4211759"><ele>323.0</ele><time>2026-04-20T09:09:29.362Z</time></trkpt><trkpt lat="44.7261057" lon="8.4213897"><ele>321.0</ele><time>2026-04-20T09:09:30.364Z</time></trkpt><trkpt lat="44.7260355" lon="8.4216103"><ele>321.0</ele><time>2026-04-20T09:09:31.355Z</time></trkpt><trkpt lat="44.7259635" lon="8.4218221"><ele>321.0</ele><time>2026-04-20T09:09:32.359Z</time></trkpt><trkpt lat="44.725923" lon="8.4219926"><ele>321.0</ele><time>2026-04-20T09:09:33.362Z</time></trkpt><trkpt lat="44.7259103" lon="8.4221736"><ele>321.0</ele><time>2026-04-20T09:09:34.368Z</time></trkpt><trkpt lat="44.7259064" lon="8.4223452"><ele>319.0</ele><time>2026-04-20T09:09:35.359Z</time></trkpt><trkpt lat="44.7259688" lon="8.4224631"><ele>317.0</ele><time>2026-04-20T09:09:36.356Z</time></trkpt><trkpt lat="44.7260321" lon="8.4225851"><ele>315.0</ele><time>2026-04-20T09:09:37.344Z</time></trkpt><trkpt lat="44.7261607" lon="8.4226545"><ele>313.0</ele><time>2026-04-20T09:09:38.352Z</time></trkpt><trkpt lat="44.7263037" lon="8.4227131"><ele>314.66666666666663</ele><time>2026-04-20T09:09:39.35Z</time></trkpt><trkpt lat="44.7264579" lon="8.4227637"><ele>316.3333333333333</ele><time>2026-04-20T09:09:40.361Z</time></trkpt><trkpt lat="44.7265734" lon="8.4228713"><ele>318.0</ele><time>2026-04-20T09:09:41.358Z</time></trkpt><trkpt lat="44.7266805" lon="8.4230648"><ele>318.0</ele><time>2026-04-20T09:09:42.364Z</time></trkpt><trkpt lat="44.7267413" lon="8.4233012"><ele>318.0</ele><time>2026-04-20T09:09:43.359Z</time></trkpt><trkpt lat="44.7267453" lon="8.4235419"><ele>318.0</ele><time>2026-04-20T09:09:44.358Z</time></trkpt><trkpt lat="44.7267196" lon="8.4237591"><ele>316.0</ele><time>2026-04-20T09:09:45.351Z</time></trkpt><trkpt lat="44.7266584" lon="8.424005"><ele>314.0</ele><time>2026-04-20T09:09:46.349Z</time></trkpt><trkpt lat="44.7266093" lon="8.4242359"><ele>312.0</ele><time>2026-04-20T09:09:47.366Z</time></trkpt><trkpt lat="44.7265451" lon="8.4244221"><ele>312.0</ele><time>2026-04-20T09:09:48.349Z</time></trkpt><trkpt lat="44.7265296" lon="8.4245722"><ele>312.0</ele><time>2026-04-20T09:09:49.356Z</time></trkpt><trkpt lat="44.7265763" lon="8.4246774"><ele>312.0</ele><time>2026-04-20T09:09:50.379Z</time></trkpt><trkpt lat="44.7266463" lon="8.4247881"><ele>312.0</ele><time>2026-04-20T09:09:51.375Z</time></trkpt><trkpt lat="44.7267564" lon="8.4248457"><ele>312.0</ele><time>2026-04-20T09:09:52.375Z</time></trkpt><trkpt lat="44.7268793" lon="8.4248637"><ele>311.25</ele><time>2026-04-20T09:09:53.387Z</time></trkpt><trkpt lat="44.7270196" lon="8.424868"><ele>310.5</ele><time>2026-04-20T09:09:54.376Z</time></trkpt><trkpt lat="44.7271647" lon="8.4249096"><ele>309.75</ele><time>2026-04-20T09:09:55.381Z</time></trkpt><trkpt lat="44.727298" lon="8.4249573"><ele>309.0</ele><time>2026-04-20T09:09:56.37Z</time></trkpt><trkpt lat="44.7274425" lon="8.4250392"><ele>309.0</ele><time>2026-04-20T09:09:57.375Z</time></trkpt><trkpt lat="44.7276073" lon="8.4251127"><ele>309.0</ele><time>2026-04-20T09:09:58.373Z</time></trkpt><trkpt lat="44.7277413" lon="8.4251702"><ele>309.0</ele><time>2026-04-20T09:09:59.375Z</time></trkpt><trkpt lat="44.727866" lon="8.4252576"><ele>312.0</ele><time>2026-04-20T09:10:00.378Z</time></trkpt><trkpt lat="44.7279462" lon="8.4253519"><ele>315.0</ele><time>2026-04-20T09:10:01.374Z</time></trkpt><trkpt lat="44.7279915" lon="8.4254872"><ele>318.0</ele><time>2026-04-20T09:10:02.352Z</time></trkpt><trkpt lat="44.7279905" lon="8.4256692"><ele>321.0</ele><time>2026-04-20T09:10:03.351Z</time></trkpt><trkpt lat="44.727945" lon="8.4258679"><ele>321.0</ele><time>2026-04-20T09:10:04.352Z</time></trkpt><trkpt lat="44.7278278" lon="8.4259577"><ele>321.0</ele><time>2026-04-20T09:10:05.355Z</time></trkpt><trkpt lat="44.7276994" lon="8.4261063"><ele>321.0</ele><time>2026-04-20T09:10:06.375Z</time></trkpt><trkpt lat="44.7275326" lon="8.4262316"><ele>316.3333333333333</ele><time>2026-04-20T09:10:07.374Z</time></trkpt><trkpt lat="44.7273865" lon="8.4263491"><ele>311.66666666666663</ele><time>2026-04-20T09:10:08.367Z</time></trkpt><trkpt lat="44.7272475" lon="8.4264653"><ele>307.0</ele><time>2026-04-20T09:10:09.374Z</time></trkpt><trkpt lat="44.7271282" lon="8.426575"><ele>307.0</ele><time>2026-04-20T09:10:10.372Z</time></trkpt><trkpt lat="44.7269942" lon="8.4266806"><ele>307.0</ele><time>2026-04-20T09:10:11.375Z</time></trkpt><trkpt lat="44.7268808" lon="8.4267883"><ele>307.0</ele><time>2026-04-20T09:10:12.37Z</time></trkpt><trkpt lat="44.7267729" lon="8.4269028"><ele>307.0</ele><time>2026-04-20T09:10:13.377Z</time></trkpt><trkpt lat="44.7266855" lon="8.4270149"><ele>302.5</ele><time>2026-04-20T09:10:14.379Z</time></trkpt><trkpt lat="44.7266016" lon="8.4271345"><ele>298.0</ele><time>2026-04-20T09:10:15.383Z</time></trkpt><trkpt lat="44.7266074" lon="8.4272864"><ele>293.5</ele><time>2026-04-20T09:10:16.375Z</time></trkpt><trkpt lat="44.7266646" lon="8.4274498"><ele>289.0</ele><time>2026-04-20T09:10:17.372Z</time></trkpt><trkpt lat="44.7267482" lon="8.4276043"><ele>289.0</ele><time>2026-04-20T09:10:18.374Z</time></trkpt><trkpt lat="44.7268119" lon="8.4277444"><ele>289.0</ele><time>2026-04-20T09:10:19.367Z</time></trkpt><trkpt lat="44.7268904" lon="8.4278726"><ele>289.0</ele><time>2026-04-20T09:10:20.366Z</time></trkpt><trkpt lat="44.7269792" lon="8.4280241"><ele>289.0</ele><time>2026-04-20T09:10:21.363Z</time></trkpt><trkpt lat="44.7270644" lon="8.4281795"><ele>292.0</ele><time>2026-04-20T09:10:22.368Z</time></trkpt><trkpt lat="44.7271158" lon="8.42832"><ele>295.0</ele><time>2026-04-20T09:10:23.359Z</time></trkpt><trkpt lat="44.7271787" lon="8.4284722"><ele>298.0</ele><time>2026-04-20T09:10:24.363Z</time></trkpt><trkpt lat="44.7272096" lon="8.4286367"><ele>301.0</ele><time>2026-04-20T09:10:25.36Z</time></trkpt><trkpt lat="44.7271845" lon="8.4288161"><ele>301.0</ele><time>2026-04-20T09:10:26.356Z</time></trkpt><trkpt lat="44.7271318" lon="8.4289211"><ele>301.0</ele><time>2026-04-20T09:10:27.362Z</time></trkpt><trkpt lat="44.7270864" lon="8.4289871"><ele>301.0</ele><time>2026-04-20T09:10:28.354Z</time></trkpt><trkpt lat="44.7269876" lon="8.4291103"><ele>301.0</ele><time>2026-04-20T09:10:30.365Z</time></trkpt><trkpt lat="44.7269132" lon="8.4291881"><ele>301.0</ele><time>2026-04-20T09:10:32.377Z</time></trkpt><trkpt lat="44.7268391" lon="8.4292877"><ele>296.66666666666663</ele><time>2026-04-20T09:10:35.377Z</time></trkpt><trkpt lat="44.726804" lon="8.4293659"><ele>292.3333333333333</ele><time>2026-04-20T09:10:38.377Z</time></trkpt><trkpt lat="44.7267578" lon="8.4294436"><ele>288.0</ele><time>2026-04-20T09:12:00.389Z</time></trkpt><trkpt lat="44.7267419" lon="8.4295616"><ele>283.6666666666667</ele><time>2026-04-20T09:12:02.377Z</time></trkpt><trkpt lat="44.7267503" lon="8.4296893"><ele>279.33333333333337</ele><time>2026-04-20T09:12:03.366Z</time></trkpt><trkpt lat="44.7267873" lon="8.4298258"><ele>275.0</ele><time>2026-04-20T09:12:04.372Z</time></trkpt><trkpt lat="44.7268392" lon="8.4299679"><ele>276.2</ele><time>2026-04-20T09:12:05.372Z</time></trkpt><trkpt lat="44.7268959" lon="8.4300893"><ele>277.4</ele><time>2026-04-20T09:12:06.368Z</time></trkpt><trkpt lat="44.7269599" lon="8.4302085"><ele>278.6</ele><time>2026-04-20T09:12:07.371Z</time></trkpt><trkpt lat="44.7270405" lon="8.4303209"><ele>279.8</ele><time>2026-04-20T09:12:08.365Z</time></trkpt><trkpt lat="44.7271322" lon="8.4304421"><ele>281.0</ele><time>2026-04-20T09:12:09.373Z</time></trkpt><trkpt lat="44.7272267" lon="8.4305747"><ele>281.0</ele><time>2026-04-20T09:12:10.371Z</time></trkpt><trkpt lat="44.7273061" lon="8.4307284"><ele>281.0</ele><time>2026-04-20T09:12:11.376Z</time></trkpt><trkpt lat="44.7273705" lon="8.4309031"><ele>281.0</ele><time>2026-04-20T09:12:12.366Z</time></trkpt><trkpt lat="44.7273976" lon="8.4311174"><ele>281.0</ele><time>2026-04-20T09:12:13.368Z</time></trkpt><trkpt lat="44.7274112" lon="8.4313399"><ele>278.33333333333337</ele><time>2026-04-20T09:12:14.375Z</time></trkpt><trkpt lat="44.7274458" lon="8.4315763"><ele>275.6666666666667</ele><time>2026-04-20T09:12:15.378Z</time></trkpt><trkpt lat="44.7274951" lon="8.4317811"><ele>273.0</ele><time>2026-04-20T09:12:16.366Z</time></trkpt><trkpt lat="44.7275502" lon="8.4319954"><ele>274.3333333333333</ele><time>2026-04-20T09:12:17.378Z</time></trkpt><trkpt lat="44.727626" lon="8.4322126"><ele>275.66666666666663</ele><time>2026-04-20T09:12:18.37Z</time></trkpt><trkpt lat="44.7276868" lon="8.4324155"><ele>277.0</ele><time>2026-04-20T09:12:19.374Z</time></trkpt><trkpt lat="44.7277665" lon="8.4326294"><ele>277.0</ele><time>2026-04-20T09:12:20.372Z</time></trkpt><trkpt lat="44.7278396" lon="8.4328396"><ele>277.0</ele><time>2026-04-20T09:12:21.371Z</time></trkpt><trkpt lat="44.7279097" lon="8.4330345"><ele>277.0</ele><time>2026-04-20T09:12:22.382Z</time></trkpt><trkpt lat="44.7279673" lon="8.4332346"><ele>273.0</ele><time>2026-04-20T09:12:23.367Z</time></trkpt><trkpt lat="44.7280351" lon="8.4334375"><ele>269.0</ele><time>2026-04-20T09:12:24.366Z</time></trkpt><trkpt lat="44.7280896" lon="8.4336265"><ele>265.0</ele><time>2026-04-20T09:12:25.361Z</time></trkpt><trkpt lat="44.7280821" lon="8.4338461"><ele>265.0</ele><time>2026-04-20T09:12:26.362Z</time></trkpt><trkpt lat="44.7280628" lon="8.434086"><ele>265.0</ele><time>2026-04-20T09:12:27.356Z</time></trkpt><trkpt lat="44.7280089" lon="8.4342674"><ele>265.0</ele><time>2026-04-20T09:12:28.353Z</time></trkpt><trkpt lat="44.7279126" lon="8.43445"><ele>262.66666666666663</ele><time>2026-04-20T09:12:29.359Z</time></trkpt><trkpt lat="44.727806" lon="8.4346414"><ele>260.3333333333333</ele><time>2026-04-20T09:12:30.369Z</time></trkpt><trkpt lat="44.7276456" lon="8.4347962"><ele>258.0</ele><time>2026-04-20T09:12:31.359Z</time></trkpt><trkpt lat="44.7274642" lon="8.4349466"><ele>258.0</ele><time>2026-04-20T09:12:32.376Z</time></trkpt><trkpt lat="44.7272822" lon="8.4351041"><ele>258.0</ele><time>2026-04-20T09:12:33.363Z</time></trkpt><trkpt lat="44.7271129" lon="8.4352497"><ele>258.0</ele><time>2026-04-20T09:12:34.376Z</time></trkpt><trkpt lat="44.7269622" lon="8.4354215"><ele>256.3333333333333</ele><time>2026-04-20T09:12:35.372Z</time></trkpt><trkpt lat="44.7268324" lon="8.4355473"><ele>254.66666666666666</ele><time>2026-04-20T09:12:36.37Z</time></trkpt><trkpt lat="44.7267118" lon="8.4356904"><ele>253.0</ele><time>2026-04-20T09:12:37.366Z</time></trkpt><trkpt lat="44.7266156" lon="8.4358359"><ele>253.0</ele><time>2026-04-20T09:12:38.371Z</time></trkpt><trkpt lat="44.726509" lon="8.4360012"><ele>253.0</ele><time>2026-04-20T09:12:39.373Z</time></trkpt><trkpt lat="44.7264358" lon="8.4361513"><ele>253.0</ele><time>2026-04-20T09:12:40.368Z</time></trkpt><trkpt lat="44.7263655" lon="8.4362972"><ele>253.0</ele><time>2026-04-20T09:12:41.373Z</time></trkpt><trkpt lat="44.7262949" lon="8.436452"><ele>255.75</ele><time>2026-04-20T09:12:42.371Z</time></trkpt><trkpt lat="44.7262322" lon="8.4366076"><ele>258.5</ele><time>2026-04-20T09:12:43.378Z</time></trkpt><trkpt lat="44.7261813" lon="8.4367715"><ele>261.25</ele><time>2026-04-20T09:12:44.378Z</time></trkpt><trkpt lat="44.7261167" lon="8.4369175"><ele>264.0</ele><time>2026-04-20T09:12:45.381Z</time></trkpt><trkpt lat="44.7260667" lon="8.4370857"><ele>261.25</ele><time>2026-04-20T09:12:46.376Z</time></trkpt><trkpt lat="44.7260158" lon="8.4372531"><ele>258.5</ele><time>2026-04-20T09:12:47.377Z</time></trkpt><trkpt lat="44.7259475" lon="8.4374375"><ele>255.75</ele><time>2026-04-20T09:12:48.377Z</time></trkpt><trkpt lat="44.7258825" lon="8.4376118"><ele>253.0</ele><time>2026-04-20T09:12:49.367Z</time></trkpt><trkpt lat="44.7257771" lon="8.4377768"><ele>253.0</ele><time>2026-04-20T09:12:50.384Z</time></trkpt><trkpt lat="44.7257017" lon="8.4379357"><ele>253.0</ele><time>2026-04-20T09:12:51.373Z</time></trkpt><trkpt lat="44.7256263" lon="8.4380905"><ele>253.0</ele><time>2026-04-20T09:12:52.376Z</time></trkpt><trkpt lat="44.7255527" lon="8.4382525"><ele>253.0</ele><time>2026-04-20T09:12:53.452Z</time></trkpt><trkpt lat="44.7254784" lon="8.4384168"><ele>253.25</ele><time>2026-04-20T09:12:54.457Z</time></trkpt><trkpt lat="44.7254041" lon="8.438573"><ele>253.5</ele><time>2026-04-20T09:12:55.46Z</time></trkpt><trkpt lat="44.7253315" lon="8.4387273"><ele>253.75</ele><time>2026-04-20T09:12:56.457Z</time></trkpt><trkpt lat="44.7252345" lon="8.4388498"><ele>254.0</ele><time>2026-04-20T09:12:57.439Z</time></trkpt><trkpt lat="44.725141" lon="8.4389449"><ele>252.5</ele><time>2026-04-20T09:12:58.435Z</time></trkpt><trkpt lat="44.7250392" lon="8.4390348"><ele>251.0</ele><time>2026-04-20T09:12:59.432Z</time></trkpt><trkpt lat="44.724929" lon="8.4391192"><ele>249.5</ele><time>2026-04-20T09:13:00.442Z</time></trkpt><trkpt lat="44.7248073" lon="8.4392034"><ele>248.0</ele><time>2026-04-20T09:13:01.431Z</time></trkpt><trkpt lat="44.7246864" lon="8.4392785"><ele>248.0</ele><time>2026-04-20T09:13:02.46Z</time></trkpt><trkpt lat="44.7245678" lon="8.4393525"><ele>248.0</ele><time>2026-04-20T09:13:03.452Z</time></trkpt><trkpt lat="44.7244389" lon="8.4394322"><ele>248.0</ele><time>2026-04-20T09:13:04.457Z</time></trkpt><trkpt lat="44.7243126" lon="8.439517"><ele>248.0</ele><time>2026-04-20T09:13:05.458Z</time></trkpt><trkpt lat="44.724185" lon="8.4396003"><ele>247.75</ele><time>2026-04-20T09:13:06.459Z</time></trkpt><trkpt lat="44.724058" lon="8.4396829"><ele>247.5</ele><time>2026-04-20T09:13:07.455Z</time></trkpt><trkpt lat="44.72393" lon="8.4397667"><ele>247.25</ele><time>2026-04-20T09:13:08.458Z</time></trkpt><trkpt lat="44.7238036" lon="8.4398512"><ele>247.0</ele><time>2026-04-20T09:13:09.467Z</time></trkpt><trkpt lat="44.7236789" lon="8.4399338"><ele>246.5</ele><time>2026-04-20T09:13:10.462Z</time></trkpt><trkpt lat="44.7235531" lon="8.4400162"><ele>246.0</ele><time>2026-04-20T09:13:11.456Z</time></trkpt><trkpt lat="44.7234347" lon="8.4400927"><ele>245.5</ele><time>2026-04-20T09:13:12.453Z</time></trkpt><trkpt lat="44.7233214" lon="8.440165"><ele>245.0</ele><time>2026-04-20T09:13:13.465Z</time></trkpt><trkpt lat="44.7232123" lon="8.4402364"><ele>245.0</ele><time>2026-04-20T09:13:14.463Z</time></trkpt><trkpt lat="44.7231082" lon="8.4403064"><ele>245.0</ele><time>2026-04-20T09:13:15.462Z</time></trkpt><trkpt lat="44.7230042" lon="8.4403729"><ele>245.0</ele><time>2026-04-20T09:13:16.463Z</time></trkpt><trkpt lat="44.7228982" lon="8.4404388"><ele>245.0</ele><time>2026-04-20T09:13:17.458Z</time></trkpt><trkpt lat="44.7227921" lon="8.4405106"><ele>244.75</ele><time>2026-04-20T09:13:18.47Z</time></trkpt><trkpt lat="44.7226837" lon="8.4405937"><ele>244.5</ele><time>2026-04-20T09:13:19.454Z</time></trkpt><trkpt lat="44.7225713" lon="8.4406834"><ele>244.25</ele><time>2026-04-20T09:13:20.458Z</time></trkpt><trkpt lat="44.7224465" lon="8.4407781"><ele>244.0</ele><time>2026-04-20T09:13:21.46Z</time></trkpt><trkpt lat="44.722316" lon="8.4408725"><ele>244.0</ele><time>2026-04-20T09:13:22.461Z</time></trkpt><trkpt lat="44.7221738" lon="8.4409755"><ele>244.0</ele><time>2026-04-20T09:13:23.458Z</time></trkpt><trkpt lat="44.7220219" lon="8.4410868"><ele>244.0</ele><time>2026-04-20T09:13:24.463Z</time></trkpt><trkpt lat="44.7218719" lon="8.4411944"><ele>244.0</ele><time>2026-04-20T09:13:25.459Z</time></trkpt><trkpt lat="44.7217183" lon="8.4413031"><ele>244.0</ele><time>2026-04-20T09:13:26.46Z</time></trkpt><trkpt lat="44.7215685" lon="8.4414137"><ele>244.0</ele><time>2026-04-20T09:13:27.462Z</time></trkpt><trkpt lat="44.7214178" lon="8.4415285"><ele>244.0</ele><time>2026-04-20T09:13:28.459Z</time></trkpt><trkpt lat="44.7212683" lon="8.4416509"><ele>244.0</ele><time>2026-04-20T09:13:29.461Z</time></trkpt><trkpt lat="44.7211194" lon="8.44178"><ele>244.0</ele><time>2026-04-20T09:13:30.471Z</time></trkpt><trkpt lat="44.7209721" lon="8.4419215"><ele>243.33333333333331</ele><time>2026-04-20T09:13:31.471Z</time></trkpt><trkpt lat="44.7208253" lon="8.4420773"><ele>242.66666666666669</ele><time>2026-04-20T09:13:32.461Z</time></trkpt><trkpt lat="44.720678" lon="8.4422376"><ele>242.0</ele><time>2026-04-20T09:13:33.457Z</time></trkpt><trkpt lat="44.720536" lon="8.4423896"><ele>242.0</ele><time>2026-04-20T09:13:34.466Z</time></trkpt><trkpt lat="44.7204006" lon="8.4425347"><ele>242.0</ele><time>2026-04-20T09:13:35.447Z</time></trkpt><trkpt lat="44.7202685" lon="8.4426716"><ele>242.0</ele><time>2026-04-20T09:13:36.461Z</time></trkpt><trkpt lat="44.7201306" lon="8.4427842"><ele>241.66666666666669</ele><time>2026-04-20T09:13:37.456Z</time></trkpt><trkpt lat="44.7199883" lon="8.4428768"><ele>241.33333333333331</ele><time>2026-04-20T09:13:38.445Z</time></trkpt><trkpt lat="44.7198485" lon="8.4429566"><ele>241.0</ele><time>2026-04-20T09:13:39.455Z</time></trkpt><trkpt lat="44.7197072" lon="8.443043"><ele>241.0</ele><time>2026-04-20T09:13:40.444Z</time></trkpt><trkpt lat="44.7195795" lon="8.4431364"><ele>241.0</ele><time>2026-04-20T09:13:41.437Z</time></trkpt><trkpt lat="44.7194518" lon="8.4432496"><ele>241.0</ele><time>2026-04-20T09:13:42.434Z</time></trkpt><trkpt lat="44.7193381" lon="8.4433802"><ele>241.0</ele><time>2026-04-20T09:13:43.437Z</time></trkpt><trkpt lat="44.7192151" lon="8.4435253"><ele>240.0</ele><time>2026-04-20T09:13:44.356Z</time></trkpt><trkpt lat="44.7191057" lon="8.4435832"><ele>239.0</ele><time>2026-04-20T09:13:45.356Z</time></trkpt><trkpt lat="44.7189871" lon="8.4436195"><ele>238.0</ele><time>2026-04-20T09:13:46.341Z</time></trkpt><trkpt lat="44.7188614" lon="8.4436365"><ele>237.0</ele><time>2026-04-20T09:13:47.345Z</time></trkpt><trkpt lat="44.7187628" lon="8.4436644"><ele>237.0</ele><time>2026-04-20T09:13:48.35Z</time></trkpt><trkpt lat="44.7186644" lon="8.4437622"><ele>237.0</ele><time>2026-04-20T09:13:49.35Z</time></trkpt><trkpt lat="44.718567" lon="8.4438932"><ele>237.0</ele><time>2026-04-20T09:13:50.354Z</time></trkpt><trkpt lat="44.7184673" lon="8.4440694"><ele>237.0</ele><time>2026-04-20T09:13:51.339Z</time></trkpt><trkpt lat="44.7183683" lon="8.4442626"><ele>237.0</ele><time>2026-04-20T09:13:52.343Z</time></trkpt><trkpt lat="44.7183127" lon="8.4444994"><ele>237.0</ele><time>2026-04-20T09:13:53.353Z</time></trkpt><trkpt lat="44.7182388" lon="8.4447515"><ele>237.0</ele><time>2026-04-20T09:13:54.354Z</time></trkpt><trkpt lat="44.7181578" lon="8.4449668"><ele>237.0</ele><time>2026-04-20T09:13:55.364Z</time></trkpt><trkpt lat="44.7180695" lon="8.4451661"><ele>237.0</ele><time>2026-04-20T09:13:56.363Z</time></trkpt><trkpt lat="44.7179692" lon="8.4453667"><ele>237.0</ele><time>2026-04-20T09:13:57.347Z</time></trkpt><trkpt lat="44.7178779" lon="8.4455835"><ele>239.33333333333331</ele><time>2026-04-20T09:13:58.347Z</time></trkpt><trkpt lat="44.7178107" lon="8.4457996"><ele>241.66666666666666</ele><time>2026-04-20T09:13:59.357Z</time></trkpt><trkpt lat="44.7177346" lon="8.4460196"><ele>244.0</ele><time>2026-04-20T09:14:00.349Z</time></trkpt><trkpt lat="44.7176818" lon="8.4462565"><ele>240.0</ele><time>2026-04-20T09:14:01.343Z</time></trkpt><trkpt lat="44.7176656" lon="8.4464967"><ele>236.0</ele><time>2026-04-20T09:14:02.339Z</time></trkpt><trkpt lat="44.7176329" lon="8.4467585"><ele>232.0</ele><time>2026-04-20T09:14:03.352Z</time></trkpt><trkpt lat="44.7175788" lon="8.447003"><ele>232.0</ele><time>2026-04-20T09:14:04.351Z</time></trkpt><trkpt lat="44.7175291" lon="8.4472395"><ele>232.0</ele><time>2026-04-20T09:14:05.358Z</time></trkpt><trkpt lat="44.7174716" lon="8.4474747"><ele>232.0</ele><time>2026-04-20T09:14:06.349Z</time></trkpt><trkpt lat="44.7173792" lon="8.4476902"><ele>232.0</ele><time>2026-04-20T09:14:07.348Z</time></trkpt><trkpt lat="44.7172918" lon="8.4478999"><ele>232.0</ele><time>2026-04-20T09:14:08.354Z</time></trkpt><trkpt lat="44.7171788" lon="8.4480906"><ele>232.0</ele><time>2026-04-20T09:14:09.355Z</time></trkpt><trkpt lat="44.7170835" lon="8.4482747"><ele>231.66666666666666</ele><time>2026-04-20T09:14:10.359Z</time></trkpt><trkpt lat="44.7169854" lon="8.4484702"><ele>231.33333333333331</ele><time>2026-04-20T09:14:11.357Z</time></trkpt><trkpt lat="44.7168669" lon="8.4486426"><ele>231.0</ele><time>2026-04-20T09:14:12.358Z</time></trkpt><trkpt lat="44.7167489" lon="8.4488425"><ele>231.0</ele><time>2026-04-20T09:14:13.36Z</time></trkpt><trkpt lat="44.7166058" lon="8.4490428"><ele>231.0</ele><time>2026-04-20T09:14:14.364Z</time></trkpt><trkpt lat="44.7164766" lon="8.4492339"><ele>231.0</ele><time>2026-04-20T09:14:15.35Z</time></trkpt><trkpt lat="44.7163482" lon="8.4494066"><ele>231.0</ele><time>2026-04-20T09:14:16.36Z</time></trkpt><trkpt lat="44.7162282" lon="8.449588"><ele>231.0</ele><time>2026-04-20T09:14:17.36Z</time></trkpt><trkpt lat="44.7161073" lon="8.4497797"><ele>231.0</ele><time>2026-04-20T09:14:18.35Z</time></trkpt><trkpt lat="44.7159766" lon="8.4499772"><ele>231.66666666666669</ele><time>2026-04-20T09:14:19.358Z</time></trkpt><trkpt lat="44.7158421" lon="8.4501533"><ele>232.33333333333334</ele><time>2026-04-20T09:14:20.35Z</time></trkpt><trkpt lat="44.7157182" lon="8.4503487"><ele>233.0</ele><time>2026-04-20T09:14:21.372Z</time></trkpt><trkpt lat="44.7155852" lon="8.4505347"><ele>233.0</ele><time>2026-04-20T09:14:22.365Z</time></trkpt><trkpt lat="44.7154592" lon="8.4507151"><ele>233.0</ele><time>2026-04-20T09:14:23.353Z</time></trkpt><trkpt lat="44.7153573" lon="8.4509209"><ele>233.0</ele><time>2026-04-20T09:14:24.363Z</time></trkpt><trkpt lat="44.7152696" lon="8.451144"><ele>230.0</ele><time>2026-04-20T09:14:25.345Z</time></trkpt><trkpt lat="44.7152018" lon="8.4513706"><ele>227.0</ele><time>2026-04-20T09:14:26.354Z</time></trkpt><trkpt lat="44.7151318" lon="8.451603"><ele>224.0</ele><time>2026-04-20T09:14:27.359Z</time></trkpt><trkpt lat="44.7150637" lon="8.4518424"><ele>224.0</ele><time>2026-04-20T09:14:28.359Z</time></trkpt><trkpt lat="44.7149926" lon="8.4520746"><ele>224.0</ele><time>2026-04-20T09:14:29.358Z</time></trkpt><trkpt lat="44.7149092" lon="8.4523387"><ele>224.0</ele><time>2026-04-20T09:14:30.362Z</time></trkpt><trkpt lat="44.7148228" lon="8.452584"><ele>224.0</ele><time>2026-04-20T09:14:31.364Z</time></trkpt><trkpt lat="44.7147518" lon="8.4528335"><ele>224.0</ele><time>2026-04-20T09:14:32.36Z</time></trkpt><trkpt lat="44.7146662" lon="8.4530787"><ele>224.0</ele><time>2026-04-20T09:14:33.372Z</time></trkpt><trkpt lat="44.7145825" lon="8.4533202"><ele>224.0</ele><time>2026-04-20T09:14:34.355Z</time></trkpt><trkpt lat="44.7144832" lon="8.4535567"><ele>224.0</ele><time>2026-04-20T09:14:35.35Z</time></trkpt><trkpt lat="44.7143637" lon="8.4537801"><ele>224.0</ele><time>2026-04-20T09:14:36.356Z</time></trkpt><trkpt lat="44.7142298" lon="8.4539948"><ele>222.66666666666669</ele><time>2026-04-20T09:14:37.35Z</time></trkpt><trkpt lat="44.7140906" lon="8.4542104"><ele>221.33333333333331</ele><time>2026-04-20T09:14:38.355Z</time></trkpt><trkpt lat="44.713943" lon="8.4544059"><ele>220.0</ele><time>2026-04-20T09:14:39.354Z</time></trkpt><trkpt lat="44.7137839" lon="8.454588"><ele>220.0</ele><time>2026-04-20T09:14:40.359Z</time></trkpt><trkpt lat="44.7136293" lon="8.4547641"><ele>220.0</ele><time>2026-04-20T09:14:41.358Z</time></trkpt><trkpt lat="44.713487" lon="8.4549221"><ele>220.0</ele><time>2026-04-20T09:14:42.363Z</time></trkpt><trkpt lat="44.7133476" lon="8.4550644"><ele>220.0</ele><time>2026-04-20T09:14:43.359Z</time></trkpt><trkpt lat="44.7131746" lon="8.4551916"><ele>220.0</ele><time>2026-04-20T09:14:44.364Z</time></trkpt><trkpt lat="44.7130161" lon="8.4553052"><ele>220.0</ele><time>2026-04-20T09:14:45.356Z</time></trkpt><trkpt lat="44.7128535" lon="8.4554534"><ele>219.33333333333331</ele><time>2026-04-20T09:14:46.354Z</time></trkpt><trkpt lat="44.7127081" lon="8.4556213"><ele>218.66666666666669</ele><time>2026-04-20T09:14:47.349Z</time></trkpt><trkpt lat="44.7125746" lon="8.4558159"><ele>218.0</ele><time>2026-04-20T09:14:48.349Z</time></trkpt><trkpt lat="44.7124553" lon="8.4560201"><ele>218.0</ele><time>2026-04-20T09:14:49.35Z</time></trkpt><trkpt lat="44.7123361" lon="8.4562097"><ele>218.0</ele><time>2026-04-20T09:14:50.359Z</time></trkpt><trkpt lat="44.7122074" lon="8.4564033"><ele>218.0</ele><time>2026-04-20T09:14:51.36Z</time></trkpt><trkpt lat="44.7120812" lon="8.4566063"><ele>218.66666666666669</ele><time>2026-04-20T09:14:52.36Z</time></trkpt><trkpt lat="44.7119548" lon="8.4568102"><ele>219.33333333333331</ele><time>2026-04-20T09:14:53.355Z</time></trkpt><trkpt lat="44.7118241" lon="8.4570101"><ele>220.0</ele><time>2026-04-20T09:14:54.351Z</time></trkpt><trkpt lat="44.7116985" lon="8.4572128"><ele>220.0</ele><time>2026-04-20T09:14:55.363Z</time></trkpt><trkpt lat="44.7115566" lon="8.457411"><ele>220.0</ele><time>2026-04-20T09:14:56.359Z</time></trkpt><trkpt lat="44.7114138" lon="8.4576161"><ele>220.0</ele><time>2026-04-20T09:14:57.349Z</time></trkpt><trkpt lat="44.7112703" lon="8.4578445"><ele>219.33333333333331</ele><time>2026-04-20T09:14:58.359Z</time></trkpt><trkpt lat="44.7111279" lon="8.4580364"><ele>218.66666666666669</ele><time>2026-04-20T09:14:59.345Z</time></trkpt><trkpt lat="44.7109983" lon="8.4582498"><ele>218.0</ele><time>2026-04-20T09:15:00.357Z</time></trkpt><trkpt lat="44.71087" lon="8.4584803"><ele>218.0</ele><time>2026-04-20T09:15:01.358Z</time></trkpt><trkpt lat="44.7107252" lon="8.4587064"><ele>218.0</ele><time>2026-04-20T09:15:02.357Z</time></trkpt><trkpt lat="44.7105886" lon="8.4589322"><ele>218.0</ele><time>2026-04-20T09:15:03.361Z</time></trkpt><trkpt lat="44.7104483" lon="8.4591373"><ele>218.33333333333334</ele><time>2026-04-20T09:15:04.348Z</time></trkpt><trkpt lat="44.7103089" lon="8.4593476"><ele>218.66666666666669</ele><time>2026-04-20T09:15:05.35Z</time></trkpt><trkpt lat="44.7101713" lon="8.4595556"><ele>219.0</ele><time>2026-04-20T09:15:06.354Z</time></trkpt><trkpt lat="44.7100334" lon="8.4597649"><ele>219.0</ele><time>2026-04-20T09:15:07.35Z</time></trkpt><trkpt lat="44.7098902" lon="8.4599708"><ele>219.0</ele><time>2026-04-20T09:15:08.364Z</time></trkpt><trkpt lat="44.7097571" lon="8.4601734"><ele>219.0</ele><time>2026-04-20T09:15:09.35Z</time></trkpt><trkpt lat="44.7096253" lon="8.4603679"><ele>217.33333333333331</ele><time>2026-04-20T09:15:10.356Z</time></trkpt><trkpt lat="44.7094939" lon="8.4605723"><ele>215.66666666666666</ele><time>2026-04-20T09:15:11.351Z</time></trkpt><trkpt lat="44.7093669" lon="8.4607755"><ele>214.0</ele><time>2026-04-20T09:15:12.362Z</time></trkpt><trkpt lat="44.7092403" lon="8.4609835"><ele>214.0</ele><time>2026-04-20T09:15:13.354Z</time></trkpt><trkpt lat="44.709109" lon="8.4611916"><ele>214.0</ele><time>2026-04-20T09:15:14.354Z</time></trkpt><trkpt lat="44.7089772" lon="8.4614146"><ele>214.0</ele><time>2026-04-20T09:15:15.36Z</time></trkpt><trkpt lat="44.7088525" lon="8.4616511"><ele>215.0</ele><time>2026-04-20T09:15:16.362Z</time></trkpt><trkpt lat="44.7087562" lon="8.4619041"><ele>216.0</ele><time>2026-04-20T09:15:17.355Z</time></trkpt><trkpt lat="44.7086711" lon="8.4621508"><ele>217.0</ele><time>2026-04-20T09:15:18.353Z</time></trkpt><trkpt lat="44.7086011" lon="8.4624123"><ele>216.66666666666666</ele><time>2026-04-20T09:15:19.363Z</time></trkpt><trkpt lat="44.7085262" lon="8.4626804"><ele>216.33333333333331</ele><time>2026-04-20T09:15:20.359Z</time></trkpt><trkpt lat="44.7084642" lon="8.4629455"><ele>216.0</ele><time>2026-04-20T09:15:21.357Z</time></trkpt><trkpt lat="44.7084048" lon="8.4632148"><ele>216.0</ele><time>2026-04-20T09:15:22.358Z</time></trkpt><trkpt lat="44.7083287" lon="8.4634776"><ele>216.0</ele><time>2026-04-20T09:15:23.354Z</time></trkpt><trkpt lat="44.7082589" lon="8.463737"><ele>216.0</ele><time>2026-04-20T09:15:24.353Z</time></trkpt><trkpt lat="44.7081654" lon="8.4639895"><ele>217.66666666666669</ele><time>2026-04-20T09:15:25.355Z</time></trkpt><trkpt lat="44.7080576" lon="8.4642693"><ele>219.33333333333334</ele><time>2026-04-20T09:15:26.348Z</time></trkpt><trkpt lat="44.7079443" lon="8.4644881"><ele>221.0</ele><time>2026-04-20T09:15:27.357Z</time></trkpt><trkpt lat="44.7078107" lon="8.4647051"><ele>217.0</ele><time>2026-04-20T09:15:28.356Z</time></trkpt><trkpt lat="44.7076957" lon="8.4649288"><ele>213.0</ele><time>2026-04-20T09:15:29.359Z</time></trkpt><trkpt lat="44.7075882" lon="8.4651405"><ele>209.0</ele><time>2026-04-20T09:15:30.36Z</time></trkpt><trkpt lat="44.7074812" lon="8.4653691"><ele>209.66666666666669</ele><time>2026-04-20T09:15:31.361Z</time></trkpt><trkpt lat="44.7073752" lon="8.4656245"><ele>210.33333333333331</ele><time>2026-04-20T09:15:32.36Z</time></trkpt><trkpt lat="44.7072757" lon="8.4658433"><ele>211.0</ele><time>2026-04-20T09:15:33.363Z</time></trkpt><trkpt lat="44.7071594" lon="8.466058"><ele>212.66666666666666</ele><time>2026-04-20T09:15:34.355Z</time></trkpt><trkpt lat="44.7070374" lon="8.4662803"><ele>214.33333333333331</ele><time>2026-04-20T09:15:35.361Z</time></trkpt><trkpt lat="44.7069064" lon="8.4664909"><ele>216.0</ele><time>2026-04-20T09:15:36.365Z</time></trkpt><trkpt lat="44.7067669" lon="8.466699"><ele>216.33333333333331</ele><time>2026-04-20T09:15:37.368Z</time></trkpt><trkpt lat="44.7066089" lon="8.4668773"><ele>216.66666666666666</ele><time>2026-04-20T09:15:38.357Z</time></trkpt><trkpt lat="44.7064426" lon="8.4670651"><ele>217.0</ele><time>2026-04-20T09:15:39.363Z</time></trkpt><trkpt lat="44.7062747" lon="8.4672409"><ele>217.0</ele><time>2026-04-20T09:15:40.37Z</time></trkpt><trkpt lat="44.7061148" lon="8.4674085"><ele>217.0</ele><time>2026-04-20T09:15:41.363Z</time></trkpt><trkpt lat="44.7059518" lon="8.467563"><ele>217.0</ele><time>2026-04-20T09:15:42.369Z</time></trkpt><trkpt lat="44.7057999" lon="8.4677294"><ele>216.66666666666666</ele><time>2026-04-20T09:15:43.357Z</time></trkpt><trkpt lat="44.7056542" lon="8.4678846"><ele>216.33333333333331</ele><time>2026-04-20T09:15:44.369Z</time></trkpt><trkpt lat="44.7055177" lon="8.4680192"><ele>216.0</ele><time>2026-04-20T09:15:45.371Z</time></trkpt><trkpt lat="44.7053843" lon="8.4681601"><ele>216.0</ele><time>2026-04-20T09:15:46.366Z</time></trkpt><trkpt lat="44.7052592" lon="8.4683207"><ele>216.0</ele><time>2026-04-20T09:15:47.365Z</time></trkpt><trkpt lat="44.7051296" lon="8.4684749"><ele>216.0</ele><time>2026-04-20T09:15:48.354Z</time></trkpt><trkpt lat="44.7050023" lon="8.4686374"><ele>212.66666666666669</ele><time>2026-04-20T09:15:49.36Z</time></trkpt><trkpt lat="44.7048896" lon="8.4688259"><ele>209.33333333333334</ele><time>2026-04-20T09:15:50.357Z</time></trkpt><trkpt lat="44.7048012" lon="8.4690168"><ele>206.0</ele><time>2026-04-20T09:15:51.361Z</time></trkpt><trkpt lat="44.7047088" lon="8.4692503"><ele>206.0</ele><time>2026-04-20T09:15:52.371Z</time></trkpt><trkpt lat="44.7046158" lon="8.4694861"><ele>206.0</ele><time>2026-04-20T09:15:53.353Z</time></trkpt><trkpt lat="44.704521" lon="8.4697245"><ele>206.0</ele><time>2026-04-20T09:15:54.361Z</time></trkpt><trkpt lat="44.7044325" lon="8.4699789"><ele>204.33333333333334</ele><time>2026-04-20T09:15:55.357Z</time></trkpt><trkpt lat="44.7043465" lon="8.4702282"><ele>202.66666666666669</ele><time>2026-04-20T09:15:56.363Z</time></trkpt><trkpt lat="44.7042479" lon="8.470467"><ele>201.0</ele><time>2026-04-20T09:15:57.355Z</time></trkpt><trkpt lat="44.7041669" lon="8.4706897"><ele>200.33333333333331</ele><time>2026-04-20T09:15:58.368Z</time></trkpt><trkpt lat="44.7040691" lon="8.4709067"><ele>199.66666666666666</ele><time>2026-04-20T09:15:59.363Z</time></trkpt><trkpt lat="44.7039933" lon="8.4711271"><ele>199.0</ele><time>2026-04-20T09:16:00.363Z</time></trkpt><trkpt lat="44.7039193" lon="8.4713314"><ele>198.75</ele><time>2026-04-20T09:16:01.361Z</time></trkpt><trkpt lat="44.7038758" lon="8.4715207"><ele>198.5</ele><time>2026-04-20T09:16:02.354Z</time></trkpt><trkpt lat="44.7038134" lon="8.471692"><ele>198.25</ele><time>2026-04-20T09:16:03.361Z</time></trkpt><trkpt lat="44.7037551" lon="8.4718436"><ele>198.0</ele><time>2026-04-20T09:16:04.36Z</time></trkpt><trkpt lat="44.7037302" lon="8.4720106"><ele>198.2</ele><time>2026-04-20T09:16:05.355Z</time></trkpt><trkpt lat="44.7036775" lon="8.4721344"><ele>198.4</ele><time>2026-04-20T09:16:06.356Z</time></trkpt><trkpt lat="44.7036398" lon="8.4722473"><ele>198.6</ele><time>2026-04-20T09:16:07.365Z</time></trkpt><trkpt lat="44.7036137" lon="8.4723595"><ele>198.79999999999998</ele><time>2026-04-20T09:16:08.357Z</time></trkpt><trkpt lat="44.7035932" lon="8.472469"><ele>199.0</ele><time>2026-04-20T09:16:09.364Z</time></trkpt><trkpt lat="44.7035435" lon="8.4725968"><ele>199.0</ele><time>2026-04-20T09:16:11.368Z</time></trkpt><trkpt lat="44.7034974" lon="8.4726888"><ele>199.0</ele><time>2026-04-20T09:16:14.367Z</time></trkpt><trkpt lat="44.7034797" lon="8.4728476"><ele>199.0</ele><time>2026-04-20T09:16:25.374Z</time></trkpt><trkpt lat="44.7034433" lon="8.4729805"><ele>199.0</ele><time>2026-04-20T09:16:26.366Z</time></trkpt><trkpt lat="44.7034011" lon="8.4731124"><ele>199.0</ele><time>2026-04-20T09:16:27.375Z</time></trkpt><trkpt lat="44.7033515" lon="8.4732303"><ele>199.0</ele><time>2026-04-20T09:16:28.38Z</time></trkpt><trkpt lat="44.7032902" lon="8.4733655"><ele>199.0</ele><time>2026-04-20T09:16:29.373Z</time></trkpt><trkpt lat="44.7032032" lon="8.4734934"><ele>199.0</ele><time>2026-04-20T09:16:30.372Z</time></trkpt><trkpt lat="44.7031036" lon="8.473632"><ele>199.0</ele><time>2026-04-20T09:16:31.376Z</time></trkpt><trkpt lat="44.7029946" lon="8.473752"><ele>198.75</ele><time>2026-04-20T09:16:32.371Z</time></trkpt><trkpt lat="44.7028885" lon="8.4738661"><ele>198.5</ele><time>2026-04-20T09:16:33.455Z</time></trkpt><trkpt lat="44.7027802" lon="8.4739833"><ele>198.25</ele><time>2026-04-20T09:16:34.458Z</time></trkpt><trkpt lat="44.7026627" lon="8.4740981"><ele>198.0</ele><time>2026-04-20T09:16:35.454Z</time></trkpt><trkpt lat="44.7025348" lon="8.4742128"><ele>198.0</ele><time>2026-04-20T09:16:36.459Z</time></trkpt><trkpt lat="44.702397" lon="8.4743223"><ele>198.0</ele><time>2026-04-20T09:16:37.454Z</time></trkpt><trkpt lat="44.7022415" lon="8.4744196"><ele>198.0</ele><time>2026-04-20T09:16:38.457Z</time></trkpt><trkpt lat="44.7021045" lon="8.4745106"><ele>197.0</ele><time>2026-04-20T09:16:39.457Z</time></trkpt><trkpt lat="44.7019594" lon="8.4746105"><ele>196.0</ele><time>2026-04-20T09:16:40.464Z</time></trkpt><trkpt lat="44.7018121" lon="8.4747107"><ele>195.0</ele><time>2026-04-20T09:16:41.45Z</time></trkpt><trkpt lat="44.7016669" lon="8.47481"><ele>195.0</ele><time>2026-04-20T09:16:42.453Z</time></trkpt><trkpt lat="44.7015184" lon="8.4749016"><ele>195.0</ele><time>2026-04-20T09:16:43.462Z</time></trkpt><trkpt lat="44.7013724" lon="8.474993"><ele>195.0</ele><time>2026-04-20T09:16:44.453Z</time></trkpt><trkpt lat="44.7012114" lon="8.4750707"><ele>193.66666666666666</ele><time>2026-04-20T09:16:45.451Z</time></trkpt><trkpt lat="44.7010532" lon="8.4751501"><ele>192.33333333333331</ele><time>2026-04-20T09:16:46.449Z</time></trkpt><trkpt lat="44.7009012" lon="8.4752381"><ele>191.0</ele><time>2026-04-20T09:16:47.455Z</time></trkpt><trkpt lat="44.7007608" lon="8.4753486"><ele>193.0</ele><time>2026-04-20T09:16:48.435Z</time></trkpt><trkpt lat="44.7006371" lon="8.4754772"><ele>195.0</ele><time>2026-04-20T09:16:49.446Z</time></trkpt><trkpt lat="44.7005323" lon="8.4756101"><ele>197.0</ele><time>2026-04-20T09:16:50.423Z</time></trkpt><trkpt lat="44.7004398" lon="8.4757311"><ele>199.0</ele><time>2026-04-20T09:16:51.43Z</time></trkpt><trkpt lat="44.7003423" lon="8.4758534"><ele>196.66666666666666</ele><time>2026-04-20T09:16:52.33Z</time></trkpt><trkpt lat="44.7002118" lon="8.4759304"><ele>194.33333333333331</ele><time>2026-04-20T09:16:53.33Z</time></trkpt><trkpt lat="44.7000407" lon="8.4759898"><ele>192.0</ele><time>2026-04-20T09:16:54.346Z</time></trkpt><trkpt lat="44.6998988" lon="8.4760795"><ele>192.0</ele><time>2026-04-20T09:16:55.352Z</time></trkpt><trkpt lat="44.6997432" lon="8.4761652"><ele>192.0</ele><time>2026-04-20T09:16:56.358Z</time></trkpt><trkpt lat="44.6995941" lon="8.4762405"><ele>192.0</ele><time>2026-04-20T09:16:57.343Z</time></trkpt><trkpt lat="44.6994435" lon="8.4763032"><ele>192.75</ele><time>2026-04-20T09:16:58.361Z</time></trkpt><trkpt lat="44.6992919" lon="8.4763453"><ele>193.5</ele><time>2026-04-20T09:16:59.344Z</time></trkpt><trkpt lat="44.6991478" lon="8.4763683"><ele>194.25</ele><time>2026-04-20T09:17:00.346Z</time></trkpt><trkpt lat="44.6990072" lon="8.4763581"><ele>195.0</ele><time>2026-04-20T09:17:01.347Z</time></trkpt><trkpt lat="44.6988672" lon="8.4763096"><ele>193.33333333333334</ele><time>2026-04-20T09:17:02.345Z</time></trkpt><trkpt lat="44.698716" lon="8.4762321"><ele>191.66666666666669</ele><time>2026-04-20T09:17:03.344Z</time></trkpt><trkpt lat="44.6985481" lon="8.476108"><ele>190.0</ele><time>2026-04-20T09:17:04.349Z</time></trkpt><trkpt lat="44.6983865" lon="8.4759897"><ele>190.0</ele><time>2026-04-20T09:17:05.36Z</time></trkpt><trkpt lat="44.698227" lon="8.4758464"><ele>190.0</ele><time>2026-04-20T09:17:06.36Z</time></trkpt><trkpt lat="44.6980702" lon="8.4757259"><ele>190.0</ele><time>2026-04-20T09:17:07.348Z</time></trkpt><trkpt lat="44.6979243" lon="8.4756018"><ele>190.0</ele><time>2026-04-20T09:17:08.361Z</time></trkpt><trkpt lat="44.6977702" lon="8.4754824"><ele>190.0</ele><time>2026-04-20T09:17:09.359Z</time></trkpt><trkpt lat="44.6976078" lon="8.4753468"><ele>190.0</ele><time>2026-04-20T09:17:10.358Z</time></trkpt><trkpt lat="44.697437" lon="8.4752282"><ele>189.0</ele><time>2026-04-20T09:17:11.348Z</time></trkpt><trkpt lat="44.6972706" lon="8.4751193"><ele>188.0</ele><time>2026-04-20T09:17:12.356Z</time></trkpt><trkpt lat="44.6971174" lon="8.4749801"><ele>187.0</ele><time>2026-04-20T09:17:13.358Z</time></trkpt><trkpt lat="44.6969582" lon="8.4748448"><ele>186.0</ele><time>2026-04-20T09:17:14.358Z</time></trkpt><trkpt lat="44.6967907" lon="8.4747186"><ele>185.0</ele><time>2026-04-20T09:17:15.367Z</time></trkpt><trkpt lat="44.6966276" lon="8.4745979"><ele>184.0</ele><time>2026-04-20T09:17:16.362Z</time></trkpt><trkpt lat="44.6964705" lon="8.4744695"><ele>184.0</ele><time>2026-04-20T09:17:17.362Z</time></trkpt><trkpt lat="44.6963255" lon="8.4743482"><ele>184.0</ele><time>2026-04-20T09:17:18.362Z</time></trkpt><trkpt lat="44.6961857" lon="8.4742364"><ele>184.0</ele><time>2026-04-20T09:17:19.364Z</time></trkpt><trkpt lat="44.696035" lon="8.4741378"><ele>186.33333333333334</ele><time>2026-04-20T09:17:20.362Z</time></trkpt><trkpt lat="44.6958922" lon="8.4740404"><ele>188.66666666666666</ele><time>2026-04-20T09:17:21.36Z</time></trkpt><trkpt lat="44.6957383" lon="8.4739559"><ele>191.0</ele><time>2026-04-20T09:17:22.357Z</time></trkpt><trkpt lat="44.6955771" lon="8.4738879"><ele>191.0</ele><time>2026-04-20T09:17:23.356Z</time></trkpt><trkpt lat="44.6953993" lon="8.4738429"><ele>191.0</ele><time>2026-04-20T09:17:24.366Z</time></trkpt><trkpt lat="44.6952205" lon="8.4738448"><ele>191.0</ele><time>2026-04-20T09:17:25.351Z</time></trkpt><trkpt lat="44.6950302" lon="8.4738087"><ele>188.66666666666666</ele><time>2026-04-20T09:17:26.35Z</time></trkpt><trkpt lat="44.6948887" lon="8.4737351"><ele>186.33333333333334</ele><time>2026-04-20T09:17:27.358Z</time></trkpt><trkpt lat="44.6947117" lon="8.4737118"><ele>184.0</ele><time>2026-04-20T09:17:28.351Z</time></trkpt><trkpt lat="44.6945399" lon="8.4736617"><ele>184.25</ele><time>2026-04-20T09:17:29.353Z</time></trkpt><trkpt lat="44.6943926" lon="8.473644"><ele>184.5</ele><time>2026-04-20T09:17:30.358Z</time></trkpt><trkpt lat="44.6942487" lon="8.4736399"><ele>184.75</ele><time>2026-04-20T09:17:31.346Z</time></trkpt><trkpt lat="44.6941318" lon="8.4735462"><ele>185.0</ele><time>2026-04-20T09:17:32.35Z</time></trkpt><trkpt lat="44.6940292" lon="8.4734245"><ele>185.0</ele><time>2026-04-20T09:17:33.349Z</time></trkpt><trkpt lat="44.6939043" lon="8.4732767"><ele>185.0</ele><time>2026-04-20T09:17:34.352Z</time></trkpt><trkpt lat="44.6937939" lon="8.473129"><ele>185.0</ele><time>2026-04-20T09:17:35.361Z</time></trkpt><trkpt lat="44.6936611" lon="8.4729599"><ele>184.0</ele><time>2026-04-20T09:17:36.365Z</time></trkpt><trkpt lat="44.6935557" lon="8.4727389"><ele>183.0</ele><time>2026-04-20T09:17:37.363Z</time></trkpt><trkpt lat="44.6934212" lon="8.4725845"><ele>182.0</ele><time>2026-04-20T09:17:38.355Z</time></trkpt><trkpt lat="44.693257" lon="8.4725044"><ele>182.0</ele><time>2026-04-20T09:17:39.362Z</time></trkpt><trkpt lat="44.6930529" lon="8.4724562"><ele>182.0</ele><time>2026-04-20T09:17:40.362Z</time></trkpt><trkpt lat="44.6928525" lon="8.4724282"><ele>182.0</ele><time>2026-04-20T09:17:41.359Z</time></trkpt><trkpt lat="44.6926712" lon="8.4723499"><ele>182.66666666666666</ele><time>2026-04-20T09:17:42.365Z</time></trkpt><trkpt lat="44.6925004" lon="8.4722636"><ele>183.33333333333334</ele><time>2026-04-20T09:17:43.365Z</time></trkpt><trkpt lat="44.6922905" lon="8.4722023"><ele>184.0</ele><time>2026-04-20T09:17:44.369Z</time></trkpt><trkpt lat="44.6921098" lon="8.4721363"><ele>182.0</ele><time>2026-04-20T09:17:45.361Z</time></trkpt><trkpt lat="44.6919125" lon="8.4720736"><ele>180.0</ele><time>2026-04-20T09:17:46.369Z</time></trkpt><trkpt lat="44.6917246" lon="8.4720177"><ele>178.0</ele><time>2026-04-20T09:17:47.367Z</time></trkpt><trkpt lat="44.6915524" lon="8.4719342"><ele>178.0</ele><time>2026-04-20T09:17:48.37Z</time></trkpt><trkpt lat="44.6913637" lon="8.471879"><ele>178.0</ele><time>2026-04-20T09:17:49.364Z</time></trkpt><trkpt lat="44.691168" lon="8.4718556"><ele>178.0</ele><time>2026-04-20T09:17:50.357Z</time></trkpt><trkpt lat="44.6909821" lon="8.4718571"><ele>177.66666666666669</ele><time>2026-04-20T09:17:51.355Z</time></trkpt><trkpt lat="44.6907961" lon="8.4718701"><ele>177.33333333333334</ele><time>2026-04-20T09:17:52.349Z</time></trkpt><trkpt lat="44.6906048" lon="8.4719479"><ele>177.0</ele><time>2026-04-20T09:17:53.344Z</time></trkpt><trkpt lat="44.6904487" lon="8.4720437"><ele>178.33333333333334</ele><time>2026-04-20T09:17:54.347Z</time></trkpt><trkpt lat="44.6902802" lon="8.4721561"><ele>179.66666666666669</ele><time>2026-04-20T09:17:55.353Z</time></trkpt><trkpt lat="44.6901055" lon="8.4722747"><ele>181.0</ele><time>2026-04-20T09:17:56.353Z</time></trkpt><trkpt lat="44.689918" lon="8.472388"><ele>181.0</ele><time>2026-04-20T09:17:57.363Z</time></trkpt><trkpt lat="44.6897368" lon="8.4725164"><ele>181.0</ele><time>2026-04-20T09:17:58.365Z</time></trkpt><trkpt lat="44.6895573" lon="8.4726374"><ele>181.0</ele><time>2026-04-20T09:17:59.366Z</time></trkpt><trkpt lat="44.689365" lon="8.4727698"><ele>180.66666666666669</ele><time>2026-04-20T09:18:00.365Z</time></trkpt><trkpt lat="44.6891769" lon="8.4728928"><ele>180.33333333333334</ele><time>2026-04-20T09:18:01.369Z</time></trkpt><trkpt lat="44.688992" lon="8.4730247"><ele>180.0</ele><time>2026-04-20T09:18:02.36Z</time></trkpt><trkpt lat="44.6888141" lon="8.4731476"><ele>180.0</ele><time>2026-04-20T09:18:03.36Z</time></trkpt><trkpt lat="44.6886358" lon="8.4732719"><ele>180.0</ele><time>2026-04-20T09:18:04.368Z</time></trkpt><trkpt lat="44.6884765" lon="8.4733742"><ele>180.0</ele><time>2026-04-20T09:18:05.359Z</time></trkpt><trkpt lat="44.6883083" lon="8.4734368"><ele>178.0</ele><time>2026-04-20T09:18:06.356Z</time></trkpt><trkpt lat="44.6881387" lon="8.473483"><ele>176.0</ele><time>2026-04-20T09:18:07.349Z</time></trkpt><trkpt lat="44.6879433" lon="8.4735132"><ele>174.0</ele><time>2026-04-20T09:18:08.352Z</time></trkpt><trkpt lat="44.6877481" lon="8.4735387"><ele>173.66666666666666</ele><time>2026-04-20T09:18:09.343Z</time></trkpt><trkpt lat="44.6875401" lon="8.4735541"><ele>173.33333333333331</ele><time>2026-04-20T09:18:10.351Z</time></trkpt><trkpt lat="44.6873361" lon="8.4735652"><ele>173.0</ele><time>2026-04-20T09:18:11.358Z</time></trkpt><trkpt lat="44.6871372" lon="8.4735706"><ele>173.0</ele><time>2026-04-20T09:18:12.364Z</time></trkpt><trkpt lat="44.6869618" lon="8.4735876"><ele>173.0</ele><time>2026-04-20T09:18:13.356Z</time></trkpt><trkpt lat="44.6867778" lon="8.4736202"><ele>173.0</ele><time>2026-04-20T09:18:14.369Z</time></trkpt><trkpt lat="44.686602" lon="8.4736355"><ele>173.33333333333331</ele><time>2026-04-20T09:18:15.36Z</time></trkpt><trkpt lat="44.6864417" lon="8.4736046"><ele>173.66666666666666</ele><time>2026-04-20T09:18:16.357Z</time></trkpt><trkpt lat="44.6862879" lon="8.4735074"><ele>174.0</ele><time>2026-04-20T09:18:17.358Z</time></trkpt><trkpt lat="44.6861348" lon="8.4733834"><ele>176.0</ele><time>2026-04-20T09:18:18.355Z</time></trkpt><trkpt lat="44.6859763" lon="8.4732145"><ele>178.0</ele><time>2026-04-20T09:18:19.341Z</time></trkpt><trkpt lat="44.685783" lon="8.4730625"><ele>180.0</ele><time>2026-04-20T09:18:20.357Z</time></trkpt><trkpt lat="44.6855708" lon="8.4729393"><ele>177.66666666666666</ele><time>2026-04-20T09:18:21.352Z</time></trkpt><trkpt lat="44.6853583" lon="8.4728865"><ele>175.33333333333331</ele><time>2026-04-20T09:18:22.346Z</time></trkpt><trkpt lat="44.685174" lon="8.4728337"><ele>173.0</ele><time>2026-04-20T09:18:23.348Z</time></trkpt><trkpt lat="44.6850121" lon="8.4728037"><ele>173.0</ele><time>2026-04-20T09:18:24.359Z</time></trkpt><trkpt lat="44.6848492" lon="8.4727375"><ele>173.0</ele><time>2026-04-20T09:18:25.369Z</time></trkpt><trkpt lat="44.684693" lon="8.4727555"><ele>173.0</ele><time>2026-04-20T09:18:26.352Z</time></trkpt><trkpt lat="44.6845657" lon="8.4728225"><ele>173.33333333333331</ele><time>2026-04-20T09:18:27.358Z</time></trkpt><trkpt lat="44.6844116" lon="8.472895"><ele>173.66666666666666</ele><time>2026-04-20T09:18:28.365Z</time></trkpt><trkpt lat="44.6842526" lon="8.4729485"><ele>174.0</ele><time>2026-04-20T09:18:29.365Z</time></trkpt><trkpt lat="44.6840886" lon="8.4729973"><ele>174.0</ele><time>2026-04-20T09:18:30.355Z</time></trkpt><trkpt lat="44.6839459" lon="8.4730579"><ele>174.0</ele><time>2026-04-20T09:18:31.361Z</time></trkpt><trkpt lat="44.6838135" lon="8.4731266"><ele>174.0</ele><time>2026-04-20T09:18:32.359Z</time></trkpt><trkpt lat="44.6836885" lon="8.4731966"><ele>174.0</ele><time>2026-04-20T09:18:33.358Z</time></trkpt><trkpt lat="44.683567" lon="8.4732541"><ele>173.0</ele><time>2026-04-20T09:18:34.386Z</time></trkpt><trkpt lat="44.6834288" lon="8.4733123"><ele>172.0</ele><time>2026-04-20T09:18:35.454Z</time></trkpt><trkpt lat="44.6832922" lon="8.4733459"><ele>171.0</ele><time>2026-04-20T09:18:36.459Z</time></trkpt><trkpt lat="44.6831551" lon="8.4733706"><ele>170.0</ele><time>2026-04-20T09:18:37.46Z</time></trkpt><trkpt lat="44.6830263" lon="8.473368"><ele>170.0</ele><time>2026-04-20T09:18:38.46Z</time></trkpt><trkpt lat="44.6828863" lon="8.4733559"><ele>170.0</ele><time>2026-04-20T09:18:39.443Z</time></trkpt><trkpt lat="44.682749" lon="8.4733297"><ele>170.0</ele><time>2026-04-20T09:18:40.442Z</time></trkpt><trkpt lat="44.6826123" lon="8.4732984"><ele>170.0</ele><time>2026-04-20T09:18:41.437Z</time></trkpt><trkpt lat="44.6824857" lon="8.4732728"><ele>169.75</ele><time>2026-04-20T09:18:42.443Z</time></trkpt><trkpt lat="44.6823627" lon="8.4732486"><ele>169.5</ele><time>2026-04-20T09:18:43.467Z</time></trkpt><trkpt lat="44.6822429" lon="8.4732302"><ele>169.25</ele><time>2026-04-20T09:18:44.46Z</time></trkpt><trkpt lat="44.6821236" lon="8.4732072"><ele>169.0</ele><time>2026-04-20T09:18:45.469Z</time></trkpt><trkpt lat="44.6820064" lon="8.4731623"><ele>169.5</ele><time>2026-04-20T09:18:46.469Z</time></trkpt><trkpt lat="44.6818906" lon="8.473126"><ele>170.0</ele><time>2026-04-20T09:18:47.46Z</time></trkpt><trkpt lat="44.6817746" lon="8.4730953"><ele>170.5</ele><time>2026-04-20T09:18:48.458Z</time></trkpt><trkpt lat="44.6816584" lon="8.4730645"><ele>171.0</ele><time>2026-04-20T09:18:49.471Z</time></trkpt><trkpt lat="44.6815414" lon="8.4730387"><ele>171.0</ele><time>2026-04-20T09:18:50.461Z</time></trkpt><trkpt lat="44.681426" lon="8.4730139"><ele>171.0</ele><time>2026-04-20T09:18:51.468Z</time></trkpt><trkpt lat="44.6813145" lon="8.4729927"><ele>171.0</ele><time>2026-04-20T09:18:52.464Z</time></trkpt><trkpt lat="44.6812" lon="8.4729675"><ele>171.0</ele><time>2026-04-20T09:18:53.466Z</time></trkpt><trkpt lat="44.6810854" lon="8.4729404"><ele>170.4</ele><time>2026-04-20T09:18:54.465Z</time></trkpt><trkpt lat="44.6809683" lon="8.4729106"><ele>169.8</ele><time>2026-04-20T09:18:55.468Z</time></trkpt><trkpt lat="44.6808564" lon="8.4728894"><ele>169.20000000000002</ele><time>2026-04-20T09:18:56.456Z</time></trkpt><trkpt lat="44.6807535" lon="8.4728756"><ele>168.60000000000002</ele><time>2026-04-20T09:18:57.457Z</time></trkpt><trkpt lat="44.6806462" lon="8.4728562"><ele>168.0</ele><time>2026-04-20T09:18:58.457Z</time></trkpt><trkpt lat="44.6805547" lon="8.4728322"><ele>168.0</ele><time>2026-04-20T09:18:59.462Z</time></trkpt><trkpt lat="44.6804582" lon="8.4728078"><ele>168.0</ele><time>2026-04-20T09:19:00.474Z</time></trkpt><trkpt lat="44.6803489" lon="8.472792"><ele>168.0</ele><time>2026-04-20T09:19:01.464Z</time></trkpt><trkpt lat="44.6802459" lon="8.4727686"><ele>168.0</ele><time>2026-04-20T09:19:02.469Z</time></trkpt><trkpt lat="44.6801434" lon="8.4727389"><ele>168.0</ele><time>2026-04-20T09:19:03.465Z</time></trkpt><trkpt lat="44.6800402" lon="8.4727005"><ele>168.0</ele><time>2026-04-20T09:19:04.466Z</time></trkpt><trkpt lat="44.6799353" lon="8.4726557"><ele>168.0</ele><time>2026-04-20T09:19:05.458Z</time></trkpt><trkpt lat="44.6798309" lon="8.4726041"><ele>168.0</ele><time>2026-04-20T09:19:06.471Z</time></trkpt><trkpt lat="44.6797294" lon="8.4725542"><ele>168.0</ele><time>2026-04-20T09:19:07.462Z</time></trkpt><trkpt lat="44.6796046" lon="8.4725158"><ele>168.0</ele><time>2026-04-20T09:19:08.468Z</time></trkpt><trkpt lat="44.6794917" lon="8.4724759"><ele>168.0</ele><time>2026-04-20T09:19:09.453Z</time></trkpt><trkpt lat="44.6793899" lon="8.4724306"><ele>168.0</ele><time>2026-04-20T09:19:10.455Z</time></trkpt><trkpt lat="44.6792904" lon="8.4723842"><ele>168.0</ele><time>2026-04-20T09:19:11.462Z</time></trkpt><trkpt lat="44.6791843" lon="8.4723459"><ele>168.0</ele><time>2026-04-20T09:19:12.446Z</time></trkpt><trkpt lat="44.6790885" lon="8.4723029"><ele>168.0</ele><time>2026-04-20T09:19:13.445Z</time></trkpt><trkpt lat="44.6789919" lon="8.4722608"><ele>168.0</ele><time>2026-04-20T09:19:14.447Z</time></trkpt><trkpt lat="44.6788985" lon="8.4722251"><ele>168.0</ele><time>2026-04-20T09:19:15.451Z</time></trkpt><trkpt lat="44.6787973" lon="8.4721767"><ele>168.0</ele><time>2026-04-20T09:19:16.452Z</time></trkpt><trkpt lat="44.6786883" lon="8.4721226"><ele>168.0</ele><time>2026-04-20T09:19:17.458Z</time></trkpt><trkpt lat="44.6785863" lon="8.4720714"><ele>168.0</ele><time>2026-04-20T09:19:18.449Z</time></trkpt><trkpt lat="44.6784925" lon="8.4720267"><ele>168.0</ele><time>2026-04-20T09:19:19.451Z</time></trkpt><trkpt lat="44.6784003" lon="8.4719818"><ele>168.0</ele><time>2026-04-20T09:19:20.455Z</time></trkpt><trkpt lat="44.6783016" lon="8.4719332"><ele>168.0</ele><time>2026-04-20T09:19:21.452Z</time></trkpt><trkpt lat="44.6782066" lon="8.4718867"><ele>168.0</ele><time>2026-04-20T09:19:22.456Z</time></trkpt><trkpt lat="44.6781179" lon="8.4718418"><ele>168.0</ele><time>2026-04-20T09:19:23.448Z</time></trkpt><trkpt lat="44.6780304" lon="8.4717982"><ele>168.0</ele><time>2026-04-20T09:19:24.456Z</time></trkpt><trkpt lat="44.6779404" lon="8.4717513"><ele>168.0</ele><time>2026-04-20T09:19:25.448Z</time></trkpt><trkpt lat="44.6778477" lon="8.4717052"><ele>168.0</ele><time>2026-04-20T09:19:26.442Z</time></trkpt><trkpt lat="44.6777535" lon="8.4716605"><ele>168.0</ele><time>2026-04-20T09:19:27.446Z</time></trkpt><trkpt lat="44.677655" lon="8.4716115"><ele>168.2</ele><time>2026-04-20T09:19:28.434Z</time></trkpt><trkpt lat="44.6775608" lon="8.4715618"><ele>168.4</ele><time>2026-04-20T09:19:29.449Z</time></trkpt><trkpt lat="44.6774665" lon="8.4715111"><ele>168.6</ele><time>2026-04-20T09:19:30.449Z</time></trkpt><trkpt lat="44.6773593" lon="8.4714615"><ele>168.79999999999998</ele><time>2026-04-20T09:19:31.444Z</time></trkpt><trkpt lat="44.6772636" lon="8.4714143"><ele>169.0</ele><time>2026-04-20T09:19:32.441Z</time></trkpt><trkpt lat="44.6771729" lon="8.4713657"><ele>169.0</ele><time>2026-04-20T09:19:33.446Z</time></trkpt><trkpt lat="44.677085" lon="8.4713111"><ele>169.0</ele><time>2026-04-20T09:19:34.442Z</time></trkpt><trkpt lat="44.6770024" lon="8.471258"><ele>169.0</ele><time>2026-04-20T09:19:35.441Z</time></trkpt><trkpt lat="44.6769207" lon="8.4712078"><ele>169.0</ele><time>2026-04-20T09:19:36.436Z</time></trkpt><trkpt lat="44.676843" lon="8.4711606"><ele>169.0</ele><time>2026-04-20T09:19:37.447Z</time></trkpt><trkpt lat="44.6767805" lon="8.4711228"><ele>169.0</ele><time>2026-04-20T09:19:38.45Z</time></trkpt><trkpt lat="44.6766877" lon="8.4710457"><ele>168.66666666666669</ele><time>2026-04-20T09:19:40.452Z</time></trkpt><trkpt lat="44.6766277" lon="8.470983"><ele>168.33333333333334</ele><time>2026-04-20T09:19:42.472Z</time></trkpt><trkpt lat="44.6766928" lon="8.4708792"><ele>168.0</ele><time>2026-04-20T09:19:45.451Z</time></trkpt><trkpt lat="44.6767136" lon="8.4707787"><ele>167.66666666666666</ele><time>2026-04-20T09:19:47.447Z</time></trkpt><trkpt lat="44.6767413" lon="8.4706742"><ele>167.33333333333331</ele><time>2026-04-20T09:19:51.461Z</time></trkpt><trkpt lat="44.6767601" lon="8.47058"><ele>167.0</ele><time>2026-04-20T09:19:55.459Z</time></trkpt><trkpt lat="44.676775" lon="8.4704592"><ele>167.0</ele><time>2026-04-20T09:20:00.459Z</time></trkpt><trkpt lat="44.6767988" lon="8.4703198"><ele>167.0</ele><time>2026-04-20T09:20:03.442Z</time></trkpt><trkpt lat="44.6768109" lon="8.4702099"><ele>167.0</ele><time>2026-04-20T09:20:04.433Z</time></trkpt><trkpt lat="44.6768214" lon="8.4700892"><ele>167.0</ele><time>2026-04-20T09:20:05.42Z</time></trkpt><trkpt lat="44.6768332" lon="8.4699533"><ele>167.0</ele><time>2026-04-20T09:20:06.422Z</time></trkpt><trkpt lat="44.6768527" lon="8.4697883"><ele>167.0</ele><time>2026-04-20T09:20:07.419Z</time></trkpt><trkpt lat="44.6768692" lon="8.4696408"><ele>167.0</ele><time>2026-04-20T09:20:08.426Z</time></trkpt><trkpt lat="44.6768639" lon="8.4697415"><ele>167.0</ele><time>2026-04-20T09:20:09.431Z</time></trkpt><trkpt lat="44.6768837" lon="8.4695936"><ele>167.0</ele><time>2026-04-20T09:20:10.429Z</time></trkpt><trkpt lat="44.6769088" lon="8.4694494"><ele>167.0</ele><time>2026-04-20T09:20:11.42Z</time></trkpt><trkpt lat="44.6769267" lon="8.4692934"><ele>166.5</ele><time>2026-04-20T09:20:12.423Z</time></trkpt><trkpt lat="44.6769556" lon="8.4691217"><ele>166.0</ele><time>2026-04-20T09:20:13.431Z</time></trkpt><trkpt lat="44.6769827" lon="8.4689436"><ele>165.5</ele><time>2026-04-20T09:20:14.434Z</time></trkpt><trkpt lat="44.6770055" lon="8.4687706"><ele>165.0</ele><time>2026-04-20T09:20:15.437Z</time></trkpt><trkpt lat="44.6771022" lon="8.4682402"><ele>165.0</ele><time>2026-04-20T09:20:16.448Z</time></trkpt><trkpt lat="44.6771294" lon="8.4680758"><ele>165.0</ele><time>2026-04-20T09:20:17.448Z</time></trkpt><trkpt lat="44.6771502" lon="8.4679326"><ele>165.0</ele><time>2026-04-20T09:20:18.451Z</time></trkpt><trkpt lat="44.6771671" lon="8.4678066"><ele>165.0</ele><time>2026-04-20T09:20:19.459Z</time></trkpt><trkpt lat="44.6771817" lon="8.4676957"><ele>165.0</ele><time>2026-04-20T09:20:20.45Z</time></trkpt><trkpt lat="44.6771933" lon="8.4676067"><ele>165.0</ele><time>2026-04-20T09:20:21.453Z</time></trkpt><trkpt lat="44.6772109" lon="8.4674691"><ele>165.0</ele><time>2026-04-20T09:20:23.45Z</time></trkpt><trkpt lat="44.6772226" lon="8.4673311"><ele>165.0</ele><time>2026-04-20T09:20:25.443Z</time></trkpt><trkpt lat="44.6771965" lon="8.4672247"><ele>165.0</ele><time>2026-04-20T09:20:27.446Z</time></trkpt><trkpt lat="44.6771233" lon="8.4672245"><ele>165.0</ele><time>2026-04-20T09:20:30.442Z</time></trkpt><trkpt lat="44.677052" lon="8.4672175"><ele>165.0</ele><time>2026-04-20T09:20:31.444Z</time></trkpt><trkpt lat="44.6769423" lon="8.4671943"><ele>165.0</ele><time>2026-04-20T09:20:33.437Z</time></trkpt><trkpt lat="44.676829" lon="8.4671781"><ele>165.0</ele><time>2026-04-20T09:20:35.427Z</time></trkpt><trkpt lat="44.6767513" lon="8.4671632"><ele>165.0</ele><time>2026-04-20T09:20:37.419Z</time></trkpt><trkpt lat="44.6766816" lon="8.4671441"><ele>165.0</ele><time>2026-04-20T09:20:39.439Z</time></trkpt><trkpt lat="44.6766088" lon="8.4671219"><ele>165.0</ele><time>2026-04-20T09:20:41.438Z</time></trkpt><trkpt lat="44.6765447" lon="8.4670913"><ele>165.0</ele><time>2026-04-20T09:20:43.444Z</time></trkpt><trkpt lat="44.6764805" lon="8.4670762"><ele>165.0</ele><time>2026-04-20T09:20:45.435Z</time></trkpt><trkpt lat="44.6764151" lon="8.4670839"><ele>165.0</ele><time>2026-04-20T09:20:47.456Z</time></trkpt><trkpt lat="44.67635" lon="8.4670772"><ele>165.0</ele><time>2026-04-20T09:20:50.45Z</time></trkpt><trkpt lat="44.6762467" lon="8.4670532"><ele>165.0</ele><time>2026-04-20T09:20:53.443Z</time></trkpt><trkpt lat="44.6761479" lon="8.4670416"><ele>165.0</ele><time>2026-04-20T09:20:55.441Z</time></trkpt><trkpt lat="44.6760295" lon="8.4670274"><ele>165.0</ele><time>2026-04-20T09:20:57.446Z</time></trkpt><trkpt lat="44.6759442" lon="8.4670142"><ele>165.0</ele><time>2026-04-20T09:20:58.456Z</time></trkpt><trkpt lat="44.6758377" lon="8.4669964"><ele>165.0</ele><time>2026-04-20T09:21:00.464Z</time></trkpt><trkpt lat="44.6757271" lon="8.4669784"><ele>165.0</ele><time>2026-04-20T09:21:02.458Z</time></trkpt><trkpt lat="44.6756238" lon="8.4669586"><ele>165.0</ele><time>2026-04-20T09:21:04.455Z</time></trkpt><trkpt lat="44.675535" lon="8.4669369"><ele>165.0</ele><time>2026-04-20T09:21:06.453Z</time></trkpt><trkpt lat="44.6754308" lon="8.4668855"><ele>165.0</ele><time>2026-04-20T09:21:09.442Z</time></trkpt><trkpt lat="44.6752794" lon="8.4668358"><ele>165.0</ele><time>2026-04-20T09:21:11.451Z</time></trkpt><trkpt lat="44.6751821" lon="8.466816"><ele>165.0</ele><time>2026-04-20T09:21:13.463Z</time></trkpt><trkpt lat="44.6750532" lon="8.4667959"><ele>164.6</ele><time>2026-04-20T09:21:15.458Z</time></trkpt><trkpt lat="44.6749768" lon="8.4667794"><ele>164.2</ele><time>2026-04-20T09:21:16.455Z</time></trkpt><trkpt lat="44.6748213" lon="8.4667326"><ele>163.8</ele><time>2026-04-20T09:21:17.457Z</time></trkpt><trkpt lat="44.674759" lon="8.4667099"><ele>163.4</ele><time>2026-04-20T09:21:18.455Z</time></trkpt><trkpt lat="44.6746809" lon="8.4666947"><ele>163.0</ele><time>2026-04-20T09:21:19.446Z</time></trkpt><trkpt lat="44.6746085" lon="8.4666802"><ele>163.0</ele><time>2026-04-20T09:21:20.453Z</time></trkpt><trkpt lat="44.6745377" lon="8.4666661"><ele>163.0</ele><time>2026-04-20T09:21:21.449Z</time></trkpt><trkpt lat="44.674467" lon="8.4666494"><ele>163.0</ele><time>2026-04-20T09:21:22.451Z</time></trkpt><trkpt lat="44.6743934" lon="8.4666255"><ele>163.0</ele><time>2026-04-20T09:21:23.45Z</time></trkpt><trkpt lat="44.674323" lon="8.4666022"><ele>163.0</ele><time>2026-04-20T09:21:24.45Z</time></trkpt><trkpt lat="44.6742592" lon="8.4665787"><ele>163.0</ele><time>2026-04-20T09:21:25.454Z</time></trkpt><trkpt lat="44.6741821" lon="8.4665599"><ele>163.0</ele><time>2026-04-20T09:21:27.453Z</time></trkpt><trkpt lat="44.6741006" lon="8.4665433"><ele>162.60000000000002</ele><time>2026-04-20T09:21:30.458Z</time></trkpt><trkpt lat="44.6740119" lon="8.4665448"><ele>162.20000000000002</ele><time>2026-04-20T09:21:32.449Z</time></trkpt><trkpt lat="44.6739372" lon="8.4665318"><ele>161.8</ele><time>2026-04-20T09:21:34.44Z</time></trkpt><trkpt lat="44.6738679" lon="8.4665002"><ele>161.4</ele><time>2026-04-20T09:21:36.436Z</time></trkpt><trkpt lat="44.6737392" lon="8.4663695"><ele>161.0</ele><time>2026-04-20T09:21:38.446Z</time></trkpt><trkpt lat="44.6736454" lon="8.4663494"><ele>161.0</ele><time>2026-04-20T09:21:40.442Z</time></trkpt><trkpt lat="44.6735658" lon="8.466342"><ele>161.0</ele><time>2026-04-20T09:21:42.457Z</time></trkpt><trkpt lat="44.673467" lon="8.4662261"><ele>161.0</ele><time>2026-04-20T09:21:43.463Z</time></trkpt><trkpt lat="44.6733525" lon="8.4662282"><ele>161.0</ele><time>2026-04-20T09:21:45.464Z</time></trkpt><trkpt lat="44.673288" lon="8.4662195"><ele>161.0</ele><time>2026-04-20T09:21:46.456Z</time></trkpt><trkpt lat="44.673183" lon="8.4662154"><ele>161.0</ele><time>2026-04-20T09:21:48.445Z</time></trkpt><trkpt lat="44.6730657" lon="8.466273"><ele>161.0</ele><time>2026-04-20T09:21:50.45Z</time></trkpt><trkpt lat="44.6730086" lon="8.4663295"><ele>161.0</ele><time>2026-04-20T09:21:51.453Z</time></trkpt><trkpt lat="44.6729331" lon="8.466298"><ele>161.0</ele><time>2026-04-20T09:21:52.462Z</time></trkpt><trkpt lat="44.6728577" lon="8.466384"><ele>161.0</ele><time>2026-04-20T09:21:54.46Z</time></trkpt><trkpt lat="44.6728268" lon="8.4664781"><ele>161.0</ele><time>2026-04-20T09:21:56.447Z</time></trkpt><trkpt lat="44.6727705" lon="8.4666294"><ele>161.4</ele><time>2026-04-20T09:21:58.473Z</time></trkpt><trkpt lat="44.6727356" lon="8.466745"><ele>161.8</ele><time>2026-04-20T09:22:00.467Z</time></trkpt><trkpt lat="44.6726778" lon="8.466941"><ele>162.20000000000002</ele><time>2026-04-20T09:22:02.463Z</time></trkpt><trkpt lat="44.6726372" lon="8.4670493"><ele>162.60000000000002</ele><time>2026-04-20T09:22:03.463Z</time></trkpt><trkpt lat="44.6726024" lon="8.4671553"><ele>163.0</ele><time>2026-04-20T09:22:04.465Z</time></trkpt><trkpt lat="44.6725781" lon="8.4672585"><ele>163.0</ele><time>2026-04-20T09:22:05.463Z</time></trkpt><trkpt lat="44.6725513" lon="8.4673666"><ele>163.0</ele><time>2026-04-20T09:22:06.468Z</time></trkpt><trkpt lat="44.6725284" lon="8.4674683"><ele>163.0</ele><time>2026-04-20T09:22:07.464Z</time></trkpt><trkpt lat="44.6725032" lon="8.4675703"><ele>163.0</ele><time>2026-04-20T09:22:08.47Z</time></trkpt><trkpt lat="44.6724846" lon="8.4676822"><ele>163.0</ele><time>2026-04-20T09:22:09.465Z</time></trkpt><trkpt lat="44.6724667" lon="8.4677953"><ele>163.0</ele><time>2026-04-20T09:22:10.468Z</time></trkpt><trkpt lat="44.6724476" lon="8.467903"><ele>163.0</ele><time>2026-04-20T09:22:11.461Z</time></trkpt><trkpt lat="44.6724223" lon="8.467996"><ele>163.0</ele><time>2026-04-20T09:22:12.468Z</time></trkpt><trkpt lat="44.6724019" lon="8.4680928"><ele>163.0</ele><time>2026-04-20T09:22:13.461Z</time></trkpt><trkpt lat="44.672387" lon="8.4681826"><ele>163.0</ele><time>2026-04-20T09:22:14.468Z</time></trkpt><trkpt lat="44.6723638" lon="8.4683349"><ele>163.0</ele><time>2026-04-20T09:22:16.462Z</time></trkpt><trkpt lat="44.6723581" lon="8.4684426"><ele>163.0</ele><time>2026-04-20T09:22:18.457Z</time></trkpt><trkpt lat="44.6723483" lon="8.4685547"><ele>163.0</ele><time>2026-04-20T09:22:21.461Z</time></trkpt><trkpt lat="44.6723439" lon="8.4686456"><ele>163.0</ele><time>2026-04-20T09:22:24.465Z</time></trkpt><trkpt lat="44.6722819" lon="8.4686788"><ele>163.0</ele><time>2026-04-20T09:22:34.458Z</time></trkpt><trkpt lat="44.6722153" lon="8.4686737"><ele>163.0</ele><time>2026-04-20T09:22:37.46Z</time></trkpt><trkpt lat="44.6721331" lon="8.4686919"><ele>163.0</ele><time>2026-04-20T09:22:39.47Z</time></trkpt><trkpt lat="44.6720104" lon="8.468702"><ele>163.0</ele><time>2026-04-20T09:22:41.465Z</time></trkpt><trkpt lat="44.6719448" lon="8.4686989"><ele>163.33333333333334</ele><time>2026-04-20T09:22:42.456Z</time></trkpt><trkpt lat="44.6718504" lon="8.4687057"><ele>163.66666666666669</ele><time>2026-04-20T09:22:44.462Z</time></trkpt><trkpt lat="44.6717759" lon="8.4687245"><ele>164.0</ele><time>2026-04-20T09:22:46.473Z</time></trkpt><trkpt lat="44.6716644" lon="8.4687274"><ele>164.33333333333334</ele><time>2026-04-20T09:22:48.448Z</time></trkpt><trkpt lat="44.671587" lon="8.4687277"><ele>164.66666666666666</ele><time>2026-04-20T09:22:49.445Z</time></trkpt><trkpt lat="44.6714971" lon="8.4687218"><ele>165.0</ele><time>2026-04-20T09:22:50.457Z</time></trkpt><trkpt lat="44.6713168" lon="8.4687728"><ele>165.0</ele><time>2026-04-20T09:22:51.452Z</time></trkpt><trkpt lat="44.671219" lon="8.4687795"><ele>165.0</ele><time>2026-04-20T09:22:52.452Z</time></trkpt><trkpt lat="44.6711232" lon="8.4687796"><ele>165.0</ele><time>2026-04-20T09:22:53.467Z</time></trkpt><trkpt lat="44.6710294" lon="8.4687806"><ele>165.0</ele><time>2026-04-20T09:22:54.451Z</time></trkpt><trkpt lat="44.6709329" lon="8.4687831"><ele>165.0</ele><time>2026-04-20T09:22:55.464Z</time></trkpt><trkpt lat="44.6708394" lon="8.4687807"><ele>165.6</ele><time>2026-04-20T09:22:56.462Z</time></trkpt><trkpt lat="44.6707389" lon="8.4687826"><ele>166.2</ele><time>2026-04-20T09:22:57.453Z</time></trkpt><trkpt lat="44.6706453" lon="8.4687882"><ele>166.8</ele><time>2026-04-20T09:22:58.458Z</time></trkpt><trkpt lat="44.6705443" lon="8.4687936"><ele>167.4</ele><time>2026-04-20T09:22:59.458Z</time></trkpt><trkpt lat="44.670441" lon="8.4687957"><ele>168.0</ele><time>2026-04-20T09:23:00.456Z</time></trkpt><trkpt lat="44.6703365" lon="8.4687972"><ele>167.60000000000002</ele><time>2026-04-20T09:23:01.459Z</time></trkpt><trkpt lat="44.6702262" lon="8.4688005"><ele>167.20000000000002</ele><time>2026-04-20T09:23:02.452Z</time></trkpt><trkpt lat="44.6701177" lon="8.4688047"><ele>166.8</ele><time>2026-04-20T09:23:03.458Z</time></trkpt><trkpt lat="44.6700136" lon="8.4688092"><ele>166.4</ele><time>2026-04-20T09:23:04.461Z</time></trkpt><trkpt lat="44.6699013" lon="8.4688076"><ele>166.0</ele><time>2026-04-20T09:23:05.466Z</time></trkpt><trkpt lat="44.6697874" lon="8.4688088"><ele>166.0</ele><time>2026-04-20T09:23:06.472Z</time></trkpt><trkpt lat="44.6696729" lon="8.4688078"><ele>166.0</ele><time>2026-04-20T09:23:07.475Z</time></trkpt><trkpt lat="44.6695235" lon="8.468806"><ele>166.0</ele><time>2026-04-20T09:23:08.466Z</time></trkpt><trkpt lat="44.6693859" lon="8.468802"><ele>166.0</ele><time>2026-04-20T09:23:09.472Z</time></trkpt><trkpt lat="44.6692565" lon="8.4688006"><ele>165.5</ele><time>2026-04-20T09:23:10.476Z</time></trkpt><trkpt lat="44.6691382" lon="8.4687966"><ele>165.0</ele><time>2026-04-20T09:23:11.477Z</time></trkpt><trkpt lat="44.6690197" lon="8.4687934"><ele>164.5</ele><time>2026-04-20T09:23:12.473Z</time></trkpt><trkpt lat="44.6688981" lon="8.4687934"><ele>164.0</ele><time>2026-04-20T09:23:13.479Z</time></trkpt><trkpt lat="44.6687777" lon="8.4687938"><ele>164.0</ele><time>2026-04-20T09:23:14.48Z</time></trkpt><trkpt lat="44.6686408" lon="8.4687933"><ele>164.0</ele><time>2026-04-20T09:23:15.481Z</time></trkpt><trkpt lat="44.6685099" lon="8.4687883"><ele>164.0</ele><time>2026-04-20T09:23:16.469Z</time></trkpt><trkpt lat="44.6683869" lon="8.4687854"><ele>164.0</ele><time>2026-04-20T09:23:17.472Z</time></trkpt><trkpt lat="44.6682734" lon="8.4687868"><ele>163.79999999999998</ele><time>2026-04-20T09:23:18.487Z</time></trkpt><trkpt lat="44.6681656" lon="8.4687847"><ele>163.6</ele><time>2026-04-20T09:23:19.484Z</time></trkpt><trkpt lat="44.6680535" lon="8.4687736"><ele>163.4</ele><time>2026-04-20T09:23:20.484Z</time></trkpt><trkpt lat="44.66795" lon="8.4687701"><ele>163.2</ele><time>2026-04-20T09:23:21.49Z</time></trkpt><trkpt lat="44.6678567" lon="8.4687668"><ele>163.0</ele><time>2026-04-20T09:23:22.486Z</time></trkpt><trkpt lat="44.6677906" lon="8.4687628"><ele>160.83333333333334</ele><time>2026-04-20T09:23:23.482Z</time></trkpt><trkpt lat="44.6677243" lon="8.4687545"><ele>158.66666666666669</ele><time>2026-04-20T09:23:25.479Z</time></trkpt><trkpt lat="44.6676265" lon="8.4687301"><ele>156.5</ele><time>2026-04-20T09:23:29.485Z</time></trkpt><trkpt lat="44.6675631" lon="8.4687229"><ele>154.33333333333334</ele><time>2026-04-20T09:23:32.472Z</time></trkpt><trkpt lat="44.6674797" lon="8.468746"><ele>152.16666666666666</ele><time>2026-04-20T09:23:35.468Z</time></trkpt><trkpt lat="44.6673946" lon="8.4687473"><ele>150.0</ele><time>2026-04-20T09:23:36.466Z</time></trkpt><trkpt lat="44.6672737" lon="8.468743"><ele>150.0</ele><time>2026-04-20T09:23:37.459Z</time></trkpt><trkpt lat="44.6671836" lon="8.4687402"><ele>150.0</ele><time>2026-04-20T09:23:38.486Z</time></trkpt><trkpt lat="44.6670988" lon="8.4687385"><ele>150.0</ele><time>2026-04-20T09:23:39.476Z</time></trkpt><trkpt lat="44.6669875" lon="8.4687389"><ele>150.0</ele><time>2026-04-20T09:23:41.48Z</time></trkpt><trkpt lat="44.6669016" lon="8.4687186"><ele>150.0</ele><time>2026-04-20T09:23:42.475Z</time></trkpt><trkpt lat="44.6668309" lon="8.4687204"><ele>150.0</ele><time>2026-04-20T09:23:43.478Z</time></trkpt><trkpt lat="44.6667181" lon="8.4687332"><ele>148.4</ele><time>2026-04-20T09:23:45.48Z</time></trkpt><trkpt lat="44.6666349" lon="8.4687476"><ele>146.8</ele><time>2026-04-20T09:23:47.475Z</time></trkpt><trkpt lat="44.6665357" lon="8.4687256"><ele>145.2</ele><time>2026-04-20T09:23:49.479Z</time></trkpt><trkpt lat="44.6664159" lon="8.4686876"><ele>143.6</ele><time>2026-04-20T09:23:51.377Z</time></trkpt><trkpt lat="44.6663348" lon="8.4686938"><ele>142.0</ele><time>2026-04-20T09:23:52.368Z</time></trkpt><trkpt lat="44.6662332" lon="8.468691"><ele>142.0</ele><time>2026-04-20T09:23:53.386Z</time></trkpt><trkpt lat="44.6661301" lon="8.4686852"><ele>142.0</ele><time>2026-04-20T09:23:54.38Z</time></trkpt><trkpt lat="44.6660302" lon="8.4686745"><ele>142.0</ele><time>2026-04-20T09:23:55.387Z</time></trkpt><trkpt lat="44.6659559" lon="8.4686728"><ele>142.0</ele><time>2026-04-20T09:23:56.381Z</time></trkpt><trkpt lat="44.6658484" lon="8.4686787"><ele>142.0</ele><time>2026-04-20T09:23:58.392Z</time></trkpt><trkpt lat="44.6657736" lon="8.4686846"><ele>143.16666666666669</ele><time>2026-04-20T09:24:00.399Z</time></trkpt><trkpt lat="44.6656976" lon="8.4686894"><ele>144.33333333333334</ele><time>2026-04-20T09:24:02.39Z</time></trkpt><trkpt lat="44.6656104" lon="8.468701"><ele>145.5</ele><time>2026-04-20T09:24:04.381Z</time></trkpt><trkpt lat="44.665514" lon="8.4687013"><ele>146.66666666666666</ele><time>2026-04-20T09:24:06.385Z</time></trkpt><trkpt lat="44.6654223" lon="8.4686878"><ele>147.83333333333331</ele><time>2026-04-20T09:24:08.389Z</time></trkpt><trkpt lat="44.6653368" lon="8.4686748"><ele>149.0</ele><time>2026-04-20T09:24:10.393Z</time></trkpt><trkpt lat="44.6652469" lon="8.4686865"><ele>149.6</ele><time>2026-04-20T09:24:12.377Z</time></trkpt><trkpt lat="44.6651616" lon="8.4687799"><ele>150.2</ele><time>2026-04-20T09:24:14.369Z</time></trkpt><trkpt lat="44.6651426" lon="8.4689554"><ele>150.79999999999998</ele><time>2026-04-20T09:24:16.372Z</time></trkpt><trkpt lat="44.6651523" lon="8.4690849"><ele>151.4</ele><time>2026-04-20T09:24:17.375Z</time></trkpt><trkpt lat="44.6651716" lon="8.469204"><ele>152.0</ele><time>2026-04-20T09:24:18.369Z</time></trkpt><trkpt lat="44.6651711" lon="8.4693376"><ele>152.0</ele><time>2026-04-20T09:24:19.381Z</time></trkpt><trkpt lat="44.6651713" lon="8.4694817"><ele>152.0</ele><time>2026-04-20T09:24:20.372Z</time></trkpt><trkpt lat="44.6651645" lon="8.4696107"><ele>152.0</ele><time>2026-04-20T09:24:21.379Z</time></trkpt><trkpt lat="44.6651722" lon="8.4697195"><ele>152.0</ele><time>2026-04-20T09:24:22.375Z</time></trkpt><trkpt lat="44.6651817" lon="8.4698532"><ele>152.0</ele><time>2026-04-20T09:24:23.379Z</time></trkpt><trkpt lat="44.6651893" lon="8.4699524"><ele>152.0</ele><time>2026-04-20T09:24:24.375Z</time></trkpt><trkpt lat="44.6651965" lon="8.4700598"><ele>151.79999999999998</ele><time>2026-04-20T09:24:25.372Z</time></trkpt><trkpt lat="44.6651875" lon="8.4701889"><ele>151.6</ele><time>2026-04-20T09:24:26.371Z</time></trkpt><trkpt lat="44.6651808" lon="8.4703485"><ele>151.39999999999998</ele><time>2026-04-20T09:24:27.374Z</time></trkpt><trkpt lat="44.6651707" lon="8.4705177"><ele>151.2</ele><time>2026-04-20T09:24:28.379Z</time></trkpt><trkpt lat="44.6651689" lon="8.4706877"><ele>151.0</ele><time>2026-04-20T09:24:29.373Z</time></trkpt><trkpt lat="44.6651694" lon="8.4708622"><ele>150.75</ele><time>2026-04-20T09:24:30.375Z</time></trkpt><trkpt lat="44.6651724" lon="8.4710383"><ele>150.5</ele><time>2026-04-20T09:24:31.377Z</time></trkpt><trkpt lat="44.6651792" lon="8.4712166"><ele>150.25</ele><time>2026-04-20T09:24:32.367Z</time></trkpt><trkpt lat="44.6651742" lon="8.4714124"><ele>150.0</ele><time>2026-04-20T09:24:33.369Z</time></trkpt><trkpt lat="44.6651593" lon="8.471618"><ele>150.0</ele><time>2026-04-20T09:24:34.37Z</time></trkpt><trkpt lat="44.6651524" lon="8.4718393"><ele>150.0</ele><time>2026-04-20T09:24:35.367Z</time></trkpt><trkpt lat="44.6651212" lon="8.4720158"><ele>150.0</ele><time>2026-04-20T09:24:36.364Z</time></trkpt><trkpt lat="44.6650789" lon="8.4721503"><ele>150.0</ele><time>2026-04-20T09:24:37.369Z</time></trkpt><trkpt lat="44.6650348" lon="8.4722841"><ele>149.4</ele><time>2026-04-20T09:24:38.375Z</time></trkpt><trkpt lat="44.6650008" lon="8.4724365"><ele>148.8</ele><time>2026-04-20T09:24:39.369Z</time></trkpt><trkpt lat="44.6649602" lon="8.4725535"><ele>148.2</ele><time>2026-04-20T09:24:40.378Z</time></trkpt><trkpt lat="44.6649268" lon="8.4726692"><ele>147.6</ele><time>2026-04-20T09:24:41.376Z</time></trkpt><trkpt lat="44.6649013" lon="8.472795"><ele>147.0</ele><time>2026-04-20T09:24:42.376Z</time></trkpt><trkpt lat="44.6648734" lon="8.4729034"><ele>147.0</ele><time>2026-04-20T09:24:43.375Z</time></trkpt><trkpt lat="44.6648399" lon="8.4730192"><ele>147.0</ele><time>2026-04-20T09:24:44.375Z</time></trkpt><trkpt lat="44.664798" lon="8.4731309"><ele>147.0</ele><time>2026-04-20T09:24:45.379Z</time></trkpt><trkpt lat="44.6647643" lon="8.4732332"><ele>147.0</ele><time>2026-04-20T09:24:46.373Z</time></trkpt><trkpt lat="44.664736" lon="8.4733262"><ele>147.0</ele><time>2026-04-20T09:24:47.373Z</time></trkpt><trkpt lat="44.6647153" lon="8.4734133"><ele>147.0</ele><time>2026-04-20T09:24:48.372Z</time></trkpt><trkpt lat="44.6646604" lon="8.4735949"><ele>147.0</ele><time>2026-04-20T09:24:50.372Z</time></trkpt><trkpt lat="44.6646164" lon="8.4737166"><ele>147.0</ele><time>2026-04-20T09:24:51.372Z</time></trkpt><trkpt lat="44.664582" lon="8.4738443"><ele>147.0</ele><time>2026-04-20T09:24:52.364Z</time></trkpt><trkpt lat="44.6645483" lon="8.4739589"><ele>147.0</ele><time>2026-04-20T09:24:53.381Z</time></trkpt><trkpt lat="44.6645176" lon="8.4740742"><ele>147.0</ele><time>2026-04-20T09:24:54.371Z</time></trkpt><trkpt lat="44.6644925" lon="8.4741963"><ele>147.0</ele><time>2026-04-20T09:24:55.374Z</time></trkpt><trkpt lat="44.6644651" lon="8.4743046"><ele>147.0</ele><time>2026-04-20T09:24:56.373Z</time></trkpt><trkpt lat="44.6644453" lon="8.4743927"><ele>147.0</ele><time>2026-04-20T09:24:57.37Z</time></trkpt><trkpt lat="44.6644226" lon="8.4745145"><ele>147.0</ele><time>2026-04-20T09:24:59.375Z</time></trkpt><trkpt lat="44.6643866" lon="8.4746291"><ele>147.0</ele><time>2026-04-20T09:25:02.375Z</time></trkpt><trkpt lat="44.6643249" lon="8.4748367"><ele>147.5</ele><time>2026-04-20T09:25:04.374Z</time></trkpt><trkpt lat="44.6643006" lon="8.4750092"><ele>148.0</ele><time>2026-04-20T09:25:05.377Z</time></trkpt><trkpt lat="44.6642685" lon="8.4751754"><ele>148.5</ele><time>2026-04-20T09:25:06.38Z</time></trkpt><trkpt lat="44.6642332" lon="8.4753671"><ele>149.0</ele><time>2026-04-20T09:25:07.37Z</time></trkpt><trkpt lat="44.6641785" lon="8.4755388"><ele>149.0</ele><time>2026-04-20T09:25:08.373Z</time></trkpt><trkpt lat="44.6641324" lon="8.4757102"><ele>149.0</ele><time>2026-04-20T09:25:09.374Z</time></trkpt><trkpt lat="44.6640752" lon="8.4758737"><ele>149.0</ele><time>2026-04-20T09:25:10.377Z</time></trkpt><trkpt lat="44.6640224" lon="8.476034"><ele>149.0</ele><time>2026-04-20T09:25:11.384Z</time></trkpt><trkpt lat="44.6639718" lon="8.4761937"><ele>148.5</ele><time>2026-04-20T09:25:12.376Z</time></trkpt><trkpt lat="44.6639327" lon="8.4763556"><ele>148.0</ele><time>2026-04-20T09:25:13.378Z</time></trkpt><trkpt lat="44.6638824" lon="8.4765158"><ele>147.5</ele><time>2026-04-20T09:25:14.379Z</time></trkpt><trkpt lat="44.6638406" lon="8.4766759"><ele>147.0</ele><time>2026-04-20T09:25:15.38Z</time></trkpt><trkpt lat="44.6638019" lon="8.4768367"><ele>147.0</ele><time>2026-04-20T09:25:16.377Z</time></trkpt><trkpt lat="44.6637718" lon="8.4769919"><ele>147.0</ele><time>2026-04-20T09:25:17.373Z</time></trkpt><trkpt lat="44.6637487" lon="8.4771537"><ele>147.0</ele><time>2026-04-20T09:25:18.372Z</time></trkpt><trkpt lat="44.6637317" lon="8.4773234"><ele>147.0</ele><time>2026-04-20T09:25:19.381Z</time></trkpt><trkpt lat="44.6637251" lon="8.4774868"><ele>146.75</ele><time>2026-04-20T09:25:20.381Z</time></trkpt><trkpt lat="44.6637293" lon="8.4776584"><ele>146.5</ele><time>2026-04-20T09:25:21.367Z</time></trkpt><trkpt lat="44.6637388" lon="8.4778281"><ele>146.25</ele><time>2026-04-20T09:25:22.368Z</time></trkpt><trkpt lat="44.6637693" lon="8.478012"><ele>146.0</ele><time>2026-04-20T09:25:23.376Z</time></trkpt><trkpt lat="44.6638182" lon="8.4782007"><ele>147.33333333333331</ele><time>2026-04-20T09:25:24.366Z</time></trkpt><trkpt lat="44.6638845" lon="8.4783866"><ele>148.66666666666666</ele><time>2026-04-20T09:25:25.369Z</time></trkpt><trkpt lat="44.6639569" lon="8.4785903"><ele>150.0</ele><time>2026-04-20T09:25:26.358Z</time></trkpt><trkpt lat="44.664021" lon="8.478789"><ele>152.33333333333334</ele><time>2026-04-20T09:25:27.363Z</time></trkpt><trkpt lat="44.6640968" lon="8.4789992"><ele>154.66666666666669</ele><time>2026-04-20T09:25:28.37Z</time></trkpt><trkpt lat="44.6641725" lon="8.4791932"><ele>157.0</ele><time>2026-04-20T09:25:29.368Z</time></trkpt><trkpt lat="44.6642489" lon="8.4793945"><ele>157.0</ele><time>2026-04-20T09:25:30.369Z</time></trkpt><trkpt lat="44.6643288" lon="8.4795844"><ele>157.0</ele><time>2026-04-20T09:25:31.365Z</time></trkpt><trkpt lat="44.6643815" lon="8.4798032"><ele>157.0</ele><time>2026-04-20T09:25:32.388Z</time></trkpt><trkpt lat="44.6644501" lon="8.4799804"><ele>157.5</ele><time>2026-04-20T09:25:33.378Z</time></trkpt><trkpt lat="44.6645319" lon="8.4801468"><ele>158.0</ele><time>2026-04-20T09:25:34.385Z</time></trkpt><trkpt lat="44.6646175" lon="8.4802841"><ele>158.5</ele><time>2026-04-20T09:25:35.376Z</time></trkpt><trkpt lat="44.6647107" lon="8.4803783"><ele>159.0</ele><time>2026-04-20T09:25:36.382Z</time></trkpt><trkpt lat="44.6648348" lon="8.4804418"><ele>159.0</ele><time>2026-04-20T09:25:37.377Z</time></trkpt><trkpt lat="44.6649318" lon="8.4805072"><ele>159.0</ele><time>2026-04-20T09:25:38.383Z</time></trkpt><trkpt lat="44.6650331" lon="8.4806445"><ele>159.0</ele><time>2026-04-20T09:25:39.389Z</time></trkpt><trkpt lat="44.6651392" lon="8.4808504"><ele>159.0</ele><time>2026-04-20T09:25:40.379Z</time></trkpt><trkpt lat="44.6652755" lon="8.480989"><ele>159.33333333333334</ele><time>2026-04-20T09:25:41.385Z</time></trkpt><trkpt lat="44.6654052" lon="8.481111"><ele>159.66666666666669</ele><time>2026-04-20T09:25:42.378Z</time></trkpt><trkpt lat="44.6655347" lon="8.4812205"><ele>160.0</ele><time>2026-04-20T09:25:43.382Z</time></trkpt><trkpt lat="44.6656487" lon="8.4813819"><ele>160.0</ele><time>2026-04-20T09:25:44.399Z</time></trkpt><trkpt lat="44.6657506" lon="8.481554"><ele>160.0</ele><time>2026-04-20T09:25:45.46Z</time></trkpt><trkpt lat="44.6658385" lon="8.4817398"><ele>160.0</ele><time>2026-04-20T09:25:46.467Z</time></trkpt><trkpt lat="44.6659232" lon="8.4819493"><ele>161.0</ele><time>2026-04-20T09:25:47.48Z</time></trkpt><trkpt lat="44.6660189" lon="8.4821737"><ele>162.0</ele><time>2026-04-20T09:25:48.461Z</time></trkpt><trkpt lat="44.6661193" lon="8.4823903"><ele>163.0</ele><time>2026-04-20T09:25:49.472Z</time></trkpt><trkpt lat="44.6661981" lon="8.4826004"><ele>159.66666666666669</ele><time>2026-04-20T09:25:50.451Z</time></trkpt><trkpt lat="44.6662459" lon="8.4828218"><ele>156.33333333333334</ele><time>2026-04-20T09:25:51.454Z</time></trkpt><trkpt lat="44.6662715" lon="8.4830672"><ele>153.0</ele><time>2026-04-20T09:25:52.465Z</time></trkpt><trkpt lat="44.6662873" lon="8.4833273"><ele>153.0</ele><time>2026-04-20T09:25:53.476Z</time></trkpt><trkpt lat="44.6663058" lon="8.4835969"><ele>153.0</ele><time>2026-04-20T09:25:54.479Z</time></trkpt><trkpt lat="44.6663245" lon="8.4838599"><ele>153.0</ele><time>2026-04-20T09:25:55.457Z</time></trkpt><trkpt lat="44.6662903" lon="8.4841836"><ele>153.0</ele><time>2026-04-20T09:25:56.462Z</time></trkpt><trkpt lat="44.6663014" lon="8.4844437"><ele>153.0</ele><time>2026-04-20T09:25:57.451Z</time></trkpt><trkpt lat="44.6663102" lon="8.4847047"><ele>153.0</ele><time>2026-04-20T09:25:58.47Z</time></trkpt><trkpt lat="44.6663169" lon="8.4849643"><ele>153.66666666666666</ele><time>2026-04-20T09:25:59.494Z</time></trkpt><trkpt lat="44.6663267" lon="8.4852229"><ele>154.33333333333331</ele><time>2026-04-20T09:26:00.476Z</time></trkpt><trkpt lat="44.6663332" lon="8.4854799"><ele>155.0</ele><time>2026-04-20T09:26:01.475Z</time></trkpt><trkpt lat="44.6663451" lon="8.4857439"><ele>156.33333333333331</ele><time>2026-04-20T09:26:02.468Z</time></trkpt><trkpt lat="44.66637" lon="8.4860048"><ele>157.66666666666666</ele><time>2026-04-20T09:26:03.479Z</time></trkpt><trkpt lat="44.6664041" lon="8.4862595"><ele>159.0</ele><time>2026-04-20T09:26:04.488Z</time></trkpt><trkpt lat="44.6664523" lon="8.486521"><ele>159.33333333333334</ele><time>2026-04-20T09:26:05.475Z</time></trkpt><trkpt lat="44.6665041" lon="8.4867792"><ele>159.66666666666669</ele><time>2026-04-20T09:26:06.456Z</time></trkpt><trkpt lat="44.6665596" lon="8.4870421"><ele>160.0</ele><time>2026-04-20T09:26:07.454Z</time></trkpt><trkpt lat="44.6666159" lon="8.4872997"><ele>160.0</ele><time>2026-04-20T09:26:08.468Z</time></trkpt><trkpt lat="44.6666728" lon="8.4875528"><ele>160.0</ele><time>2026-04-20T09:26:09.471Z</time></trkpt><trkpt lat="44.6667243" lon="8.4878034"><ele>160.0</ele><time>2026-04-20T09:26:10.478Z</time></trkpt><trkpt lat="44.6667676" lon="8.4880526"><ele>160.0</ele><time>2026-04-20T09:26:11.471Z</time></trkpt><trkpt lat="44.6668048" lon="8.4882971"><ele>160.0</ele><time>2026-04-20T09:26:12.484Z</time></trkpt><trkpt lat="44.666823" lon="8.488534"><ele>160.0</ele><time>2026-04-20T09:26:13.474Z</time></trkpt><trkpt lat="44.6668214" lon="8.4887692"><ele>160.0</ele><time>2026-04-20T09:26:14.483Z</time></trkpt><trkpt lat="44.6667915" lon="8.4889867"><ele>160.0</ele><time>2026-04-20T09:26:15.467Z</time></trkpt><trkpt lat="44.6667469" lon="8.4892061"><ele>160.0</ele><time>2026-04-20T09:26:16.452Z</time></trkpt><trkpt lat="44.6666982" lon="8.4894653"><ele>160.66666666666669</ele><time>2026-04-20T09:26:17.462Z</time></trkpt><trkpt lat="44.6666366" lon="8.4897179"><ele>161.33333333333334</ele><time>2026-04-20T09:26:18.461Z</time></trkpt><trkpt lat="44.6665728" lon="8.4899644"><ele>162.0</ele><time>2026-04-20T09:26:19.481Z</time></trkpt><trkpt lat="44.6665145" lon="8.4902071"><ele>161.66666666666666</ele><time>2026-04-20T09:26:20.479Z</time></trkpt><trkpt lat="44.6664573" lon="8.490447"><ele>161.33333333333331</ele><time>2026-04-20T09:26:21.487Z</time></trkpt><trkpt lat="44.6663979" lon="8.490686"><ele>161.0</ele><time>2026-04-20T09:26:22.475Z</time></trkpt><trkpt lat="44.6663386" lon="8.4909104"><ele>161.0</ele><time>2026-04-20T09:26:23.473Z</time></trkpt><trkpt lat="44.6662661" lon="8.4911098"><ele>161.0</ele><time>2026-04-20T09:26:24.481Z</time></trkpt><trkpt lat="44.6661767" lon="8.4913036"><ele>161.0</ele><time>2026-04-20T09:26:25.474Z</time></trkpt><trkpt lat="44.6660651" lon="8.4914771"><ele>162.0</ele><time>2026-04-20T09:26:26.457Z</time></trkpt><trkpt lat="44.6659317" lon="8.4916343"><ele>163.0</ele><time>2026-04-20T09:26:27.454Z</time></trkpt><trkpt lat="44.6657919" lon="8.4917857"><ele>164.0</ele><time>2026-04-20T09:26:28.46Z</time></trkpt><trkpt lat="44.6656407" lon="8.4919385"><ele>164.0</ele><time>2026-04-20T09:26:29.479Z</time></trkpt><trkpt lat="44.6654896" lon="8.4920799"><ele>164.0</ele><time>2026-04-20T09:26:30.474Z</time></trkpt><trkpt lat="44.6653478" lon="8.492208"><ele>164.0</ele><time>2026-04-20T09:26:31.49Z</time></trkpt><trkpt lat="44.6652168" lon="8.4923333"><ele>164.25</ele><time>2026-04-20T09:26:32.485Z</time></trkpt><trkpt lat="44.6650924" lon="8.4924579"><ele>164.5</ele><time>2026-04-20T09:26:33.484Z</time></trkpt><trkpt lat="44.6649732" lon="8.4925724"><ele>164.75</ele><time>2026-04-20T09:26:34.486Z</time></trkpt><trkpt lat="44.6648551" lon="8.4926796"><ele>165.0</ele><time>2026-04-20T09:26:35.486Z</time></trkpt><trkpt lat="44.6647448" lon="8.4927831"><ele>165.0</ele><time>2026-04-20T09:26:36.481Z</time></trkpt><trkpt lat="44.6646307" lon="8.492893"><ele>165.0</ele><time>2026-04-20T09:26:37.488Z</time></trkpt><trkpt lat="44.6645138" lon="8.493005"><ele>165.0</ele><time>2026-04-20T09:26:38.483Z</time></trkpt><trkpt lat="44.6643938" lon="8.4931178"><ele>165.0</ele><time>2026-04-20T09:26:39.498Z</time></trkpt><trkpt lat="44.6642759" lon="8.4932265"><ele>165.0</ele><time>2026-04-20T09:26:40.485Z</time></trkpt><trkpt lat="44.6641574" lon="8.4933412"><ele>165.0</ele><time>2026-04-20T09:26:41.488Z</time></trkpt><trkpt lat="44.6640459" lon="8.4934527"><ele>165.0</ele><time>2026-04-20T09:26:42.482Z</time></trkpt><trkpt lat="44.6639411" lon="8.4935672"><ele>165.0</ele><time>2026-04-20T09:26:43.476Z</time></trkpt><trkpt lat="44.6638395" lon="8.493685"><ele>164.25</ele><time>2026-04-20T09:26:44.505Z</time></trkpt><trkpt lat="44.6637417" lon="8.493809"><ele>163.5</ele><time>2026-04-20T09:26:45.484Z</time></trkpt><trkpt lat="44.663652" lon="8.4939448"><ele>162.75</ele><time>2026-04-20T09:26:46.484Z</time></trkpt><trkpt lat="44.6635753" lon="8.494099"><ele>162.0</ele><time>2026-04-20T09:26:47.478Z</time></trkpt><trkpt lat="44.6635131" lon="8.4942602"><ele>163.0</ele><time>2026-04-20T09:26:48.487Z</time></trkpt><trkpt lat="44.6634595" lon="8.4944302"><ele>164.0</ele><time>2026-04-20T09:26:49.474Z</time></trkpt><trkpt lat="44.6634206" lon="8.4945977"><ele>165.0</ele><time>2026-04-20T09:26:50.467Z</time></trkpt><trkpt lat="44.6633935" lon="8.4947594"><ele>166.0</ele><time>2026-04-20T09:26:51.454Z</time></trkpt><trkpt lat="44.6633808" lon="8.4949177"><ele>166.0</ele><time>2026-04-20T09:26:52.457Z</time></trkpt><trkpt lat="44.6633899" lon="8.4950809"><ele>166.0</ele><time>2026-04-20T09:26:53.473Z</time></trkpt><trkpt lat="44.6634143" lon="8.4952328"><ele>166.0</ele><time>2026-04-20T09:26:54.487Z</time></trkpt><trkpt lat="44.6634657" lon="8.4956059"><ele>166.0</ele><time>2026-04-20T09:26:56.355Z</time></trkpt><trkpt lat="44.6634893" lon="8.4958347"><ele>166.0</ele><time>2026-04-20T09:26:57.353Z</time></trkpt><trkpt lat="44.6635067" lon="8.496045"><ele>166.0</ele><time>2026-04-20T09:26:58.36Z</time></trkpt><trkpt lat="44.6634985" lon="8.4962545"><ele>166.25</ele><time>2026-04-20T09:26:59.381Z</time></trkpt><trkpt lat="44.6634898" lon="8.4964641"><ele>166.5</ele><time>2026-04-20T09:27:00.38Z</time></trkpt><trkpt lat="44.663473" lon="8.4966654"><ele>166.75</ele><time>2026-04-20T09:27:01.391Z</time></trkpt><trkpt lat="44.6634526" lon="8.4968706"><ele>167.0</ele><time>2026-04-20T09:27:02.374Z</time></trkpt><trkpt lat="44.6634342" lon="8.4970698"><ele>166.5</ele><time>2026-04-20T09:27:03.376Z</time></trkpt><trkpt lat="44.6634143" lon="8.4972865"><ele>166.0</ele><time>2026-04-20T09:27:04.373Z</time></trkpt><trkpt lat="44.6633899" lon="8.4974791"><ele>165.5</ele><time>2026-04-20T09:27:05.376Z</time></trkpt><trkpt lat="44.6633608" lon="8.4976406"><ele>165.0</ele><time>2026-04-20T09:27:06.37Z</time></trkpt><trkpt lat="44.6633405" lon="8.4978243"><ele>164.5</ele><time>2026-04-20T09:27:07.369Z</time></trkpt><trkpt lat="44.6632829" lon="8.4979877"><ele>164.0</ele><time>2026-04-20T09:27:08.378Z</time></trkpt><trkpt lat="44.6632489" lon="8.4981477"><ele>163.5</ele><time>2026-04-20T09:27:09.369Z</time></trkpt><trkpt lat="44.6632087" lon="8.4983204"><ele>163.0</ele><time>2026-04-20T09:27:10.38Z</time></trkpt><trkpt lat="44.6631636" lon="8.4985058"><ele>163.0</ele><time>2026-04-20T09:27:11.369Z</time></trkpt><trkpt lat="44.663117" lon="8.4986708"><ele>163.0</ele><time>2026-04-20T09:27:12.371Z</time></trkpt><trkpt lat="44.6630772" lon="8.4988459"><ele>163.0</ele><time>2026-04-20T09:27:13.371Z</time></trkpt><trkpt lat="44.6630409" lon="8.4990263"><ele>163.0</ele><time>2026-04-20T09:27:14.376Z</time></trkpt><trkpt lat="44.6630086" lon="8.4991912"><ele>161.25</ele><time>2026-04-20T09:27:15.383Z</time></trkpt><trkpt lat="44.6629826" lon="8.4993609"><ele>159.5</ele><time>2026-04-20T09:27:16.383Z</time></trkpt><trkpt lat="44.6629566" lon="8.4995299"><ele>157.75</ele><time>2026-04-20T09:27:17.385Z</time></trkpt><trkpt lat="44.6629288" lon="8.4996989"><ele>156.0</ele><time>2026-04-20T09:27:18.378Z</time></trkpt><trkpt lat="44.662898" lon="8.4998718"><ele>155.5</ele><time>2026-04-20T09:27:19.385Z</time></trkpt><trkpt lat="44.6628712" lon="8.500048"><ele>155.0</ele><time>2026-04-20T09:27:20.385Z</time></trkpt><trkpt lat="44.6628354" lon="8.500229"><ele>154.5</ele><time>2026-04-20T09:27:21.381Z</time></trkpt><trkpt lat="44.6628043" lon="8.5004032"><ele>154.0</ele><time>2026-04-20T09:27:22.385Z</time></trkpt><trkpt lat="44.6627811" lon="8.5005605"><ele>156.2</ele><time>2026-04-20T09:27:23.381Z</time></trkpt><trkpt lat="44.6627534" lon="8.500714"><ele>158.4</ele><time>2026-04-20T09:27:24.375Z</time></trkpt><trkpt lat="44.6627217" lon="8.5008596"><ele>160.6</ele><time>2026-04-20T09:27:25.379Z</time></trkpt><trkpt lat="44.6626802" lon="8.5010002"><ele>162.8</ele><time>2026-04-20T09:27:26.37Z</time></trkpt><trkpt lat="44.6626441" lon="8.5011438"><ele>165.0</ele><time>2026-04-20T09:27:27.367Z</time></trkpt><trkpt lat="44.6626048" lon="8.5012854"><ele>165.0</ele><time>2026-04-20T09:27:28.367Z</time></trkpt><trkpt lat="44.6625791" lon="8.5014167"><ele>165.0</ele><time>2026-04-20T09:27:29.378Z</time></trkpt><trkpt lat="44.6625517" lon="8.5015371"><ele>165.0</ele><time>2026-04-20T09:27:30.379Z</time></trkpt><trkpt lat="44.6625304" lon="8.5016527"><ele>165.0</ele><time>2026-04-20T09:27:31.364Z</time></trkpt><trkpt lat="44.6625245" lon="8.5017618"><ele>165.0</ele><time>2026-04-20T09:27:32.367Z</time></trkpt><trkpt lat="44.6625135" lon="8.5018499"><ele>165.0</ele><time>2026-04-20T09:27:33.356Z</time></trkpt><trkpt lat="44.6624822" lon="8.5019338"><ele>165.0</ele><time>2026-04-20T09:27:34.364Z</time></trkpt><trkpt lat="44.6624043" lon="8.5020943"><ele>165.0</ele><time>2026-04-20T09:27:36.347Z</time></trkpt><trkpt lat="44.6623719" lon="8.5022103"><ele>165.0</ele><time>2026-04-20T09:27:37.348Z</time></trkpt><trkpt lat="44.6623532" lon="8.5023219"><ele>165.0</ele><time>2026-04-20T09:27:38.348Z</time></trkpt><trkpt lat="44.6623374" lon="8.502432"><ele>165.0</ele><time>2026-04-20T09:27:39.357Z</time></trkpt><trkpt lat="44.6623397" lon="8.5025637"><ele>165.0</ele><time>2026-04-20T09:27:40.355Z</time></trkpt><trkpt lat="44.6623652" lon="8.5027025"><ele>165.0</ele><time>2026-04-20T09:27:41.357Z</time></trkpt><trkpt lat="44.6624074" lon="8.5028313"><ele>165.0</ele><time>2026-04-20T09:27:42.359Z</time></trkpt><trkpt lat="44.6624553" lon="8.5029542"><ele>165.0</ele><time>2026-04-20T09:27:43.352Z</time></trkpt><trkpt lat="44.6624935" lon="8.5030795"><ele>165.0</ele><time>2026-04-20T09:27:44.357Z</time></trkpt><trkpt lat="44.6625217" lon="8.5032152"><ele>164.8</ele><time>2026-04-20T09:27:45.357Z</time></trkpt><trkpt lat="44.6625239" lon="8.5033657"><ele>164.6</ele><time>2026-04-20T09:27:46.364Z</time></trkpt><trkpt lat="44.6625121" lon="8.5035124"><ele>164.39999999999998</ele><time>2026-04-20T09:27:47.358Z</time></trkpt><trkpt lat="44.6624959" lon="8.5036746"><ele>164.2</ele><time>2026-04-20T09:27:48.358Z</time></trkpt><trkpt lat="44.662478" lon="8.5038328"><ele>164.0</ele><time>2026-04-20T09:27:49.36Z</time></trkpt><trkpt lat="44.6624511" lon="8.5039979"><ele>162.0</ele><time>2026-04-20T09:27:50.359Z</time></trkpt><trkpt lat="44.6624275" lon="8.5041646"><ele>160.0</ele><time>2026-04-20T09:27:51.352Z</time></trkpt><trkpt lat="44.6624095" lon="8.5043409"><ele>158.0</ele><time>2026-04-20T09:27:52.359Z</time></trkpt><trkpt lat="44.6623889" lon="8.5045268"><ele>156.0</ele><time>2026-04-20T09:27:53.356Z</time></trkpt><trkpt lat="44.6623614" lon="8.5046982"><ele>154.0</ele><time>2026-04-20T09:27:54.363Z</time></trkpt><trkpt lat="44.6623248" lon="8.5048846"><ele>152.0</ele><time>2026-04-20T09:27:55.364Z</time></trkpt><trkpt lat="44.6622898" lon="8.5050776"><ele>150.0</ele><time>2026-04-20T09:27:56.363Z</time></trkpt><trkpt lat="44.6622475" lon="8.5052877"><ele>148.0</ele><time>2026-04-20T09:27:57.365Z</time></trkpt><trkpt lat="44.6622082" lon="8.5054979"><ele>147.25</ele><time>2026-04-20T09:27:58.365Z</time></trkpt><trkpt lat="44.6621709" lon="8.5056874"><ele>146.5</ele><time>2026-04-20T09:27:59.361Z</time></trkpt><trkpt lat="44.6621295" lon="8.5058751"><ele>145.75</ele><time>2026-04-20T09:28:00.357Z</time></trkpt><trkpt lat="44.6621023" lon="8.5060583"><ele>145.0</ele><time>2026-04-20T09:28:01.369Z</time></trkpt><trkpt lat="44.6620938" lon="8.5062424"><ele>145.66666666666669</ele><time>2026-04-20T09:28:02.372Z</time></trkpt><trkpt lat="44.6621252" lon="8.5064527"><ele>146.33333333333334</ele><time>2026-04-20T09:28:03.373Z</time></trkpt><trkpt lat="44.6621382" lon="8.5066715"><ele>147.0</ele><time>2026-04-20T09:28:04.367Z</time></trkpt><trkpt lat="44.6621941" lon="8.5068982"><ele>147.0</ele><time>2026-04-20T09:28:05.365Z</time></trkpt><trkpt lat="44.6622698" lon="8.5070855"><ele>147.0</ele><time>2026-04-20T09:28:06.367Z</time></trkpt><trkpt lat="44.6623794" lon="8.5072491"><ele>147.0</ele><time>2026-04-20T09:28:07.359Z</time></trkpt><trkpt lat="44.6624871" lon="8.5073998"><ele>147.0</ele><time>2026-04-20T09:28:08.369Z</time></trkpt><trkpt lat="44.6626165" lon="8.5075323"><ele>147.0</ele><time>2026-04-20T09:28:09.363Z</time></trkpt><trkpt lat="44.6627639" lon="8.507623"><ele>147.0</ele><time>2026-04-20T09:28:10.364Z</time></trkpt><trkpt lat="44.6629169" lon="8.5076783"><ele>145.33333333333334</ele><time>2026-04-20T09:28:11.37Z</time></trkpt><trkpt lat="44.6630612" lon="8.5076664"><ele>143.66666666666669</ele><time>2026-04-20T09:28:12.367Z</time></trkpt><trkpt lat="44.663223" lon="8.5076388"><ele>142.0</ele><time>2026-04-20T09:28:13.372Z</time></trkpt><trkpt lat="44.6633972" lon="8.5075592"><ele>142.0</ele><time>2026-04-20T09:28:14.381Z</time></trkpt><trkpt lat="44.6635746" lon="8.5074769"><ele>142.0</ele><time>2026-04-20T09:28:15.378Z</time></trkpt><trkpt lat="44.6637358" lon="8.5073776"><ele>142.0</ele><time>2026-04-20T09:28:16.377Z</time></trkpt><trkpt lat="44.6638806" lon="8.5072683"><ele>142.33333333333334</ele><time>2026-04-20T09:28:17.376Z</time></trkpt><trkpt lat="44.6640392" lon="8.5071715"><ele>142.66666666666666</ele><time>2026-04-20T09:28:18.378Z</time></trkpt><trkpt lat="44.6642047" lon="8.5070693"><ele>143.0</ele><time>2026-04-20T09:28:19.378Z</time></trkpt><trkpt lat="44.6643733" lon="8.5069606"><ele>143.66666666666666</ele><time>2026-04-20T09:28:20.378Z</time></trkpt><trkpt lat="44.6645337" lon="8.5068534"><ele>144.33333333333334</ele><time>2026-04-20T09:28:21.378Z</time></trkpt><trkpt lat="44.6646837" lon="8.5067673"><ele>145.0</ele><time>2026-04-20T09:28:22.366Z</time></trkpt><trkpt lat="44.6648318" lon="8.5067343"><ele>145.0</ele><time>2026-04-20T09:28:23.375Z</time></trkpt><trkpt lat="44.6650034" lon="8.5067098"><ele>145.0</ele><time>2026-04-20T09:28:24.365Z</time></trkpt><trkpt lat="44.6651884" lon="8.5067254"><ele>145.0</ele><time>2026-04-20T09:28:25.371Z</time></trkpt><trkpt lat="44.6653718" lon="8.5067915"><ele>144.0</ele><time>2026-04-20T09:28:26.373Z</time></trkpt><trkpt lat="44.6655493" lon="8.506866"><ele>143.0</ele><time>2026-04-20T09:28:27.38Z</time></trkpt><trkpt lat="44.6657343" lon="8.5069687"><ele>142.0</ele><time>2026-04-20T09:28:28.374Z</time></trkpt><trkpt lat="44.6659109" lon="8.5071063"><ele>142.33333333333334</ele><time>2026-04-20T09:28:29.379Z</time></trkpt><trkpt lat="44.6660829" lon="8.5072548"><ele>142.66666666666666</ele><time>2026-04-20T09:28:30.384Z</time></trkpt><trkpt lat="44.6662468" lon="8.5073985"><ele>143.0</ele><time>2026-04-20T09:28:31.378Z</time></trkpt><trkpt lat="44.6664113" lon="8.5075376"><ele>143.0</ele><time>2026-04-20T09:28:32.378Z</time></trkpt><trkpt lat="44.6665575" lon="8.5076791"><ele>143.0</ele><time>2026-04-20T09:28:33.379Z</time></trkpt><trkpt lat="44.6666939" lon="8.5078515"><ele>143.0</ele><time>2026-04-20T09:28:34.373Z</time></trkpt><trkpt lat="44.6668101" lon="8.508055"><ele>145.0</ele><time>2026-04-20T09:28:35.373Z</time></trkpt><trkpt lat="44.6669256" lon="8.5082603"><ele>147.0</ele><time>2026-04-20T09:28:36.375Z</time></trkpt><trkpt lat="44.6670279" lon="8.5084782"><ele>149.0</ele><time>2026-04-20T09:28:37.377Z</time></trkpt><trkpt lat="44.6671194" lon="8.5087011"><ele>147.0</ele><time>2026-04-20T09:28:38.375Z</time></trkpt><trkpt lat="44.6671821" lon="8.5089537"><ele>145.0</ele><time>2026-04-20T09:28:39.37Z</time></trkpt><trkpt lat="44.6672264" lon="8.509219"><ele>143.0</ele><time>2026-04-20T09:28:40.372Z</time></trkpt><trkpt lat="44.6672481" lon="8.509494"><ele>143.33333333333331</ele><time>2026-04-20T09:28:41.379Z</time></trkpt><trkpt lat="44.6672663" lon="8.5097817"><ele>143.66666666666666</ele><time>2026-04-20T09:28:42.39Z</time></trkpt><trkpt lat="44.6672699" lon="8.5100652"><ele>144.0</ele><time>2026-04-20T09:28:43.382Z</time></trkpt><trkpt lat="44.667268" lon="8.5103354"><ele>143.33333333333334</ele><time>2026-04-20T09:28:44.382Z</time></trkpt><trkpt lat="44.667258" lon="8.5106237"><ele>142.66666666666669</ele><time>2026-04-20T09:28:45.386Z</time></trkpt><trkpt lat="44.6672548" lon="8.5109191"><ele>142.0</ele><time>2026-04-20T09:28:46.383Z</time></trkpt><trkpt lat="44.667253" lon="8.5112147"><ele>142.0</ele><time>2026-04-20T09:28:47.388Z</time></trkpt><trkpt lat="44.6672554" lon="8.5115094"><ele>142.0</ele><time>2026-04-20T09:28:48.385Z</time></trkpt><trkpt lat="44.6672431" lon="8.5118004"><ele>142.0</ele><time>2026-04-20T09:28:49.38Z</time></trkpt><trkpt lat="44.6672352" lon="8.5121016"><ele>142.0</ele><time>2026-04-20T09:28:50.39Z</time></trkpt><trkpt lat="44.6672233" lon="8.5123903"><ele>142.0</ele><time>2026-04-20T09:28:51.377Z</time></trkpt><trkpt lat="44.6672123" lon="8.5126807"><ele>142.0</ele><time>2026-04-20T09:28:52.383Z</time></trkpt><trkpt lat="44.6672137" lon="8.5129738"><ele>141.66666666666669</ele><time>2026-04-20T09:28:53.378Z</time></trkpt><trkpt lat="44.6672059" lon="8.5132634"><ele>141.33333333333334</ele><time>2026-04-20T09:28:54.384Z</time></trkpt><trkpt lat="44.6671986" lon="8.5135485"><ele>141.0</ele><time>2026-04-20T09:28:55.385Z</time></trkpt><trkpt lat="44.6671876" lon="8.513824"><ele>140.33333333333334</ele><time>2026-04-20T09:28:56.385Z</time></trkpt><trkpt lat="44.6671863" lon="8.514099"><ele>139.66666666666669</ele><time>2026-04-20T09:28:57.383Z</time></trkpt><trkpt lat="44.6671876" lon="8.5143807"><ele>139.0</ele><time>2026-04-20T09:28:58.388Z</time></trkpt><trkpt lat="44.6671851" lon="8.5146698"><ele>139.0</ele><time>2026-04-20T09:28:59.391Z</time></trkpt><trkpt lat="44.6671766" lon="8.5149389"><ele>139.0</ele><time>2026-04-20T09:29:00.391Z</time></trkpt><trkpt lat="44.6671799" lon="8.5152111"><ele>139.0</ele><time>2026-04-20T09:29:01.382Z</time></trkpt><trkpt lat="44.6671843" lon="8.5154902"><ele>138.66666666666669</ele><time>2026-04-20T09:29:02.379Z</time></trkpt><trkpt lat="44.6671722" lon="8.5157648"><ele>138.33333333333334</ele><time>2026-04-20T09:29:03.389Z</time></trkpt><trkpt lat="44.6671767" lon="8.5160454"><ele>138.0</ele><time>2026-04-20T09:29:04.379Z</time></trkpt><trkpt lat="44.6671771" lon="8.5163277"><ele>138.0</ele><time>2026-04-20T09:29:05.386Z</time></trkpt><trkpt lat="44.6671718" lon="8.5166112"><ele>138.0</ele><time>2026-04-20T09:29:06.379Z</time></trkpt><trkpt lat="44.6671707" lon="8.5169005"><ele>138.0</ele><time>2026-04-20T09:29:07.378Z</time></trkpt><trkpt lat="44.6671671" lon="8.5171762"><ele>137.66666666666666</ele><time>2026-04-20T09:29:08.379Z</time></trkpt><trkpt lat="44.6671602" lon="8.5174615"><ele>137.33333333333331</ele><time>2026-04-20T09:29:09.394Z</time></trkpt><trkpt lat="44.6671506" lon="8.5177356"><ele>137.0</ele><time>2026-04-20T09:29:10.388Z</time></trkpt><trkpt lat="44.6671473" lon="8.5180296"><ele>137.0</ele><time>2026-04-20T09:29:11.388Z</time></trkpt><trkpt lat="44.6671478" lon="8.5183241"><ele>137.0</ele><time>2026-04-20T09:29:12.379Z</time></trkpt><trkpt lat="44.6671501" lon="8.5186068"><ele>137.0</ele><time>2026-04-20T09:29:13.38Z</time></trkpt><trkpt lat="44.6671498" lon="8.5188888"><ele>136.33333333333331</ele><time>2026-04-20T09:29:14.389Z</time></trkpt><trkpt lat="44.6671473" lon="8.5191583"><ele>135.66666666666666</ele><time>2026-04-20T09:29:15.382Z</time></trkpt><trkpt lat="44.6671467" lon="8.519425"><ele>135.0</ele><time>2026-04-20T09:29:16.394Z</time></trkpt><trkpt lat="44.6671359" lon="8.5196947"><ele>135.0</ele><time>2026-04-20T09:29:17.389Z</time></trkpt><trkpt lat="44.6671359" lon="8.5199755"><ele>135.0</ele><time>2026-04-20T09:29:18.393Z</time></trkpt><trkpt lat="44.6671258" lon="8.520249"><ele>135.0</ele><time>2026-04-20T09:29:19.394Z</time></trkpt><trkpt lat="44.6671227" lon="8.5205281"><ele>135.33333333333334</ele><time>2026-04-20T09:29:20.388Z</time></trkpt><trkpt lat="44.6671182" lon="8.5208065"><ele>135.66666666666669</ele><time>2026-04-20T09:29:21.38Z</time></trkpt><trkpt lat="44.6671367" lon="8.5210852"><ele>136.0</ele><time>2026-04-20T09:29:22.385Z</time></trkpt><trkpt lat="44.6671226" lon="8.5213771"><ele>136.0</ele><time>2026-04-20T09:29:23.417Z</time></trkpt><trkpt lat="44.667125" lon="8.521663"><ele>136.0</ele><time>2026-04-20T09:29:24.491Z</time></trkpt><trkpt lat="44.6671216" lon="8.5219474"><ele>136.0</ele><time>2026-04-20T09:29:25.493Z</time></trkpt><trkpt lat="44.6671183" lon="8.5222308"><ele>136.0</ele><time>2026-04-20T09:29:26.488Z</time></trkpt><trkpt lat="44.6671194" lon="8.5225168"><ele>136.0</ele><time>2026-04-20T09:29:27.486Z</time></trkpt><trkpt lat="44.6671197" lon="8.5227989"><ele>136.0</ele><time>2026-04-20T09:29:28.485Z</time></trkpt><trkpt lat="44.667117" lon="8.5230712"><ele>137.0</ele><time>2026-04-20T09:29:29.495Z</time></trkpt><trkpt lat="44.6671126" lon="8.5233221"><ele>138.0</ele><time>2026-04-20T09:29:30.494Z</time></trkpt><trkpt lat="44.6671094" lon="8.5235578"><ele>139.0</ele><time>2026-04-20T09:29:31.485Z</time></trkpt><trkpt lat="44.6671058" lon="8.5237724"><ele>139.0</ele><time>2026-04-20T09:29:32.49Z</time></trkpt><trkpt lat="44.6670883" lon="8.5239663"><ele>139.0</ele><time>2026-04-20T09:29:33.472Z</time></trkpt><trkpt lat="44.6670477" lon="8.5241356"><ele>139.0</ele><time>2026-04-20T09:29:34.474Z</time></trkpt><trkpt lat="44.6669945" lon="8.5243005"><ele>139.0</ele><time>2026-04-20T09:29:35.482Z</time></trkpt><trkpt lat="44.6669386" lon="8.5244292"><ele>139.6</ele><time>2026-04-20T09:29:36.45Z</time></trkpt><trkpt lat="44.6668515" lon="8.5245122"><ele>140.2</ele><time>2026-04-20T09:29:37.459Z</time></trkpt><trkpt lat="44.6667542" lon="8.5245721"><ele>140.79999999999998</ele><time>2026-04-20T09:29:38.458Z</time></trkpt><trkpt lat="44.6666656" lon="8.5246656"><ele>141.4</ele><time>2026-04-20T09:29:39.463Z</time></trkpt><trkpt lat="44.6666075" lon="8.5247877"><ele>142.0</ele><time>2026-04-20T09:29:40.474Z</time></trkpt><trkpt lat="44.66646" lon="8.5249089"><ele>142.0</ele><time>2026-04-20T09:29:41.375Z</time></trkpt><trkpt lat="44.6663718" lon="8.5250428"><ele>142.0</ele><time>2026-04-20T09:29:42.367Z</time></trkpt><trkpt lat="44.6662514" lon="8.5251781"><ele>142.0</ele><time>2026-04-20T09:29:43.362Z</time></trkpt><trkpt lat="44.6660767" lon="8.5252793"><ele>142.33333333333334</ele><time>2026-04-20T09:29:44.38Z</time></trkpt><trkpt lat="44.6658821" lon="8.5253271"><ele>142.66666666666666</ele><time>2026-04-20T09:29:45.372Z</time></trkpt><trkpt lat="44.6656805" lon="8.5254012"><ele>143.0</ele><time>2026-04-20T09:29:46.371Z</time></trkpt><trkpt lat="44.6654803" lon="8.5254666"><ele>143.0</ele><time>2026-04-20T09:29:47.384Z</time></trkpt><trkpt lat="44.6652798" lon="8.5255152"><ele>143.0</ele><time>2026-04-20T09:29:48.384Z</time></trkpt><trkpt lat="44.6650659" lon="8.5255758"><ele>143.0</ele><time>2026-04-20T09:29:49.385Z</time></trkpt><trkpt lat="44.6648463" lon="8.5256506"><ele>143.0</ele><time>2026-04-20T09:29:50.388Z</time></trkpt><trkpt lat="44.664635" lon="8.5257277"><ele>143.0</ele><time>2026-04-20T09:29:51.382Z</time></trkpt><trkpt lat="44.6644342" lon="8.525806"><ele>143.0</ele><time>2026-04-20T09:29:52.388Z</time></trkpt><trkpt lat="44.664216" lon="8.5258959"><ele>144.5</ele><time>2026-04-20T09:29:53.38Z</time></trkpt><trkpt lat="44.6640008" lon="8.5259749"><ele>146.0</ele><time>2026-04-20T09:29:54.388Z</time></trkpt><trkpt lat="44.6637771" lon="8.5260479"><ele>146.5</ele><time>2026-04-20T09:29:55.38Z</time></trkpt><trkpt lat="44.6635655" lon="8.5261282"><ele>147.0</ele><time>2026-04-20T09:29:56.383Z</time></trkpt><trkpt lat="44.6633367" lon="8.5262038"><ele>149.5</ele><time>2026-04-20T09:29:57.381Z</time></trkpt><trkpt lat="44.663107" lon="8.5262742"><ele>152.0</ele><time>2026-04-20T09:29:58.383Z</time></trkpt><trkpt lat="44.6628956" lon="8.5263522"><ele>152.0</ele><time>2026-04-20T09:29:59.388Z</time></trkpt><trkpt lat="44.6626855" lon="8.5264236"><ele>152.0</ele><time>2026-04-20T09:30:00.379Z</time></trkpt><trkpt lat="44.6624828" lon="8.5264936"><ele>152.0</ele><time>2026-04-20T09:30:01.38Z</time></trkpt><trkpt lat="44.6622793" lon="8.5265685"><ele>152.0</ele><time>2026-04-20T09:30:02.376Z</time></trkpt><trkpt lat="44.6620628" lon="8.5266396"><ele>152.0</ele><time>2026-04-20T09:30:03.378Z</time></trkpt><trkpt lat="44.6618429" lon="8.526709"><ele>152.0</ele><time>2026-04-20T09:30:04.378Z</time></trkpt><trkpt lat="44.6616351" lon="8.5267763"><ele>152.33333333333331</ele><time>2026-04-20T09:30:05.38Z</time></trkpt><trkpt lat="44.6614397" lon="8.5268475"><ele>152.66666666666666</ele><time>2026-04-20T09:30:06.379Z</time></trkpt><trkpt lat="44.6612159" lon="8.5269219"><ele>153.0</ele><time>2026-04-20T09:30:07.375Z</time></trkpt><trkpt lat="44.6610126" lon="8.5269844"><ele>157.33333333333334</ele><time>2026-04-20T09:30:08.376Z</time></trkpt><trkpt lat="44.6608169" lon="8.5270741"><ele>161.66666666666669</ele><time>2026-04-20T09:30:09.393Z</time></trkpt><trkpt lat="44.6606165" lon="8.5271698"><ele>166.0</ele><time>2026-04-20T09:30:10.373Z</time></trkpt><trkpt lat="44.660393" lon="8.5272673"><ele>161.5</ele><time>2026-04-20T09:30:11.375Z</time></trkpt><trkpt lat="44.660183" lon="8.5273883"><ele>157.0</ele><time>2026-04-20T09:30:12.366Z</time></trkpt><trkpt lat="44.6599621" lon="8.5275125"><ele>157.0</ele><time>2026-04-20T09:30:13.377Z</time></trkpt><trkpt lat="44.6597563" lon="8.5276336"><ele>157.0</ele><time>2026-04-20T09:30:14.372Z</time></trkpt><trkpt lat="44.6595756" lon="8.5277926"><ele>157.0</ele><time>2026-04-20T09:30:15.365Z</time></trkpt><trkpt lat="44.659403" lon="8.5279994"><ele>156.5</ele><time>2026-04-20T09:30:16.371Z</time></trkpt><trkpt lat="44.6592185" lon="8.5282037"><ele>156.0</ele><time>2026-04-20T09:30:17.367Z</time></trkpt><trkpt lat="44.6590283" lon="8.5284035"><ele>156.0</ele><time>2026-04-20T09:30:18.367Z</time></trkpt><trkpt lat="44.6588671" lon="8.5286272"><ele>156.0</ele><time>2026-04-20T09:30:19.385Z</time></trkpt><trkpt lat="44.658726" lon="8.5288684"><ele>156.0</ele><time>2026-04-20T09:30:20.364Z</time></trkpt><trkpt lat="44.6586072" lon="8.5291297"><ele>156.33333333333334</ele><time>2026-04-20T09:30:21.373Z</time></trkpt><trkpt lat="44.6585078" lon="8.529397"><ele>156.66666666666669</ele><time>2026-04-20T09:30:22.368Z</time></trkpt><trkpt lat="44.6584045" lon="8.5296893"><ele>157.0</ele><time>2026-04-20T09:30:23.372Z</time></trkpt><trkpt lat="44.6583012" lon="8.529982"><ele>157.0</ele><time>2026-04-20T09:30:24.373Z</time></trkpt><trkpt lat="44.6582167" lon="8.5302759"><ele>157.0</ele><time>2026-04-20T09:30:25.382Z</time></trkpt><trkpt lat="44.6581155" lon="8.5305641"><ele>160.5</ele><time>2026-04-20T09:30:26.383Z</time></trkpt><trkpt lat="44.6580187" lon="8.5308547"><ele>164.0</ele><time>2026-04-20T09:30:27.374Z</time></trkpt><trkpt lat="44.6579195" lon="8.5311627"><ele>165.0</ele><time>2026-04-20T09:30:28.386Z</time></trkpt><trkpt lat="44.6578192" lon="8.531435"><ele>166.0</ele><time>2026-04-20T09:30:29.386Z</time></trkpt><trkpt lat="44.6577056" lon="8.5316909"><ele>167.0</ele><time>2026-04-20T09:30:30.389Z</time></trkpt><trkpt lat="44.6576236" lon="8.5319724"><ele>165.66666666666666</ele><time>2026-04-20T09:30:31.381Z</time></trkpt><trkpt lat="44.6575516" lon="8.5322426"><ele>164.33333333333334</ele><time>2026-04-20T09:30:32.386Z</time></trkpt><trkpt lat="44.657492" lon="8.5325178"><ele>163.0</ele><time>2026-04-20T09:30:33.371Z</time></trkpt><trkpt lat="44.657427" lon="8.5328"><ele>167.0</ele><time>2026-04-20T09:30:34.38Z</time></trkpt><trkpt lat="44.6573726" lon="8.5330706"><ele>171.0</ele><time>2026-04-20T09:30:35.377Z</time></trkpt><trkpt lat="44.6572989" lon="8.5333415"><ele>175.0</ele><time>2026-04-20T09:30:36.371Z</time></trkpt><trkpt lat="44.657185" lon="8.5335865"><ele>179.0</ele><time>2026-04-20T09:30:37.364Z</time></trkpt><trkpt lat="44.6570527" lon="8.5338514"><ele>183.0</ele><time>2026-04-20T09:30:38.356Z</time></trkpt><trkpt lat="44.6569102" lon="8.5340789"><ele>187.0</ele><time>2026-04-20T09:30:39.372Z</time></trkpt><trkpt lat="44.6567716" lon="8.5343155"><ele>183.0</ele><time>2026-04-20T09:30:40.363Z</time></trkpt><trkpt lat="44.65662" lon="8.5345265"><ele>179.0</ele><time>2026-04-20T09:30:41.367Z</time></trkpt><trkpt lat="44.6564344" lon="8.5346749"><ele>175.0</ele><time>2026-04-20T09:30:42.375Z</time></trkpt><trkpt lat="44.6562505" lon="8.5348241"><ele>169.0</ele><time>2026-04-20T09:30:43.375Z</time></trkpt><trkpt lat="44.6560573" lon="8.5349806"><ele>163.0</ele><time>2026-04-20T09:30:44.377Z</time></trkpt><trkpt lat="44.655882" lon="8.5351608"><ele>157.0</ele><time>2026-04-20T09:30:45.378Z</time></trkpt><trkpt lat="44.6556933" lon="8.5353315"><ele>158.33333333333334</ele><time>2026-04-20T09:30:46.374Z</time></trkpt><trkpt lat="44.6555048" lon="8.5354833"><ele>159.66666666666666</ele><time>2026-04-20T09:30:47.379Z</time></trkpt><trkpt lat="44.6553161" lon="8.5356392"><ele>161.0</ele><time>2026-04-20T09:30:48.384Z</time></trkpt><trkpt lat="44.655141" lon="8.5358064"><ele>161.0</ele><time>2026-04-20T09:30:49.378Z</time></trkpt><trkpt lat="44.654965" lon="8.5360032"><ele>161.0</ele><time>2026-04-20T09:30:50.386Z</time></trkpt><trkpt lat="44.6547985" lon="8.5362039"><ele>161.0</ele><time>2026-04-20T09:30:51.382Z</time></trkpt><trkpt lat="44.6546366" lon="8.5364195"><ele>160.33333333333331</ele><time>2026-04-20T09:30:52.377Z</time></trkpt><trkpt lat="44.6545004" lon="8.5366509"><ele>159.66666666666666</ele><time>2026-04-20T09:30:53.381Z</time></trkpt><trkpt lat="44.6543656" lon="8.5368885"><ele>159.0</ele><time>2026-04-20T09:30:54.38Z</time></trkpt><trkpt lat="44.6542474" lon="8.5371384"><ele>161.0</ele><time>2026-04-20T09:30:55.382Z</time></trkpt><trkpt lat="44.6541391" lon="8.5373831"><ele>163.0</ele><time>2026-04-20T09:30:56.373Z</time></trkpt><trkpt lat="44.6540293" lon="8.5376254"><ele>165.0</ele><time>2026-04-20T09:30:57.37Z</time></trkpt><trkpt lat="44.653934" lon="8.5378866"><ele>167.66666666666666</ele><time>2026-04-20T09:30:58.387Z</time></trkpt><trkpt lat="44.6538531" lon="8.5381515"><ele>170.33333333333331</ele><time>2026-04-20T09:30:59.385Z</time></trkpt><trkpt lat="44.6537985" lon="8.5384222"><ele>173.0</ele><time>2026-04-20T09:31:00.379Z</time></trkpt><trkpt lat="44.6537511" lon="8.5386984"><ele>175.0</ele><time>2026-04-20T09:31:01.375Z</time></trkpt><trkpt lat="44.6537163" lon="8.5389891"><ele>177.0</ele><time>2026-04-20T09:31:02.372Z</time></trkpt><trkpt lat="44.6536795" lon="8.539256"><ele>179.0</ele><time>2026-04-20T09:31:03.372Z</time></trkpt><trkpt lat="44.653641" lon="8.5395214"><ele>174.0</ele><time>2026-04-20T09:31:04.374Z</time></trkpt><trkpt lat="44.6536084" lon="8.5398182"><ele>169.0</ele><time>2026-04-20T09:31:05.362Z</time></trkpt><trkpt lat="44.6535567" lon="8.5400914"><ele>164.0</ele><time>2026-04-20T09:31:06.371Z</time></trkpt><trkpt lat="44.6535176" lon="8.540376"><ele>164.33333333333331</ele><time>2026-04-20T09:31:07.374Z</time></trkpt><trkpt lat="44.6534745" lon="8.5406269"><ele>164.66666666666666</ele><time>2026-04-20T09:31:08.373Z</time></trkpt><trkpt lat="44.6534372" lon="8.5409015"><ele>165.0</ele><time>2026-04-20T09:31:09.382Z</time></trkpt><trkpt lat="44.6534031" lon="8.5411668"><ele>165.33333333333334</ele><time>2026-04-20T09:31:10.385Z</time></trkpt><trkpt lat="44.65338" lon="8.5414153"><ele>165.66666666666669</ele><time>2026-04-20T09:31:11.376Z</time></trkpt><trkpt lat="44.6533425" lon="8.5416514"><ele>166.0</ele><time>2026-04-20T09:31:12.38Z</time></trkpt><trkpt lat="44.6532941" lon="8.5418763"><ele>166.66666666666669</ele><time>2026-04-20T09:31:13.377Z</time></trkpt><trkpt lat="44.6532249" lon="8.5421035"><ele>167.33333333333334</ele><time>2026-04-20T09:31:14.372Z</time></trkpt><trkpt lat="44.6531291" lon="8.5423328"><ele>168.0</ele><time>2026-04-20T09:31:15.369Z</time></trkpt><trkpt lat="44.6530215" lon="8.5425362"><ele>168.0</ele><time>2026-04-20T09:31:16.372Z</time></trkpt><trkpt lat="44.6529085" lon="8.5427213"><ele>168.0</ele><time>2026-04-20T09:31:17.372Z</time></trkpt><trkpt lat="44.6527893" lon="8.5428772"><ele>168.0</ele><time>2026-04-20T09:31:18.38Z</time></trkpt><trkpt lat="44.6526607" lon="8.5430292"><ele>168.25</ele><time>2026-04-20T09:31:19.373Z</time></trkpt><trkpt lat="44.6525635" lon="8.5432027"><ele>168.5</ele><time>2026-04-20T09:31:20.381Z</time></trkpt><trkpt lat="44.6524649" lon="8.5433531"><ele>168.75</ele><time>2026-04-20T09:31:21.372Z</time></trkpt><trkpt lat="44.6523483" lon="8.5434707"><ele>169.0</ele><time>2026-04-20T09:31:22.368Z</time></trkpt><trkpt lat="44.6522117" lon="8.543568"><ele>169.0</ele><time>2026-04-20T09:31:23.367Z</time></trkpt><trkpt lat="44.6520704" lon="8.5436429"><ele>169.0</ele><time>2026-04-20T09:31:24.367Z</time></trkpt><trkpt lat="44.6519632" lon="8.543748"><ele>169.0</ele><time>2026-04-20T09:31:25.371Z</time></trkpt><trkpt lat="44.6518612" lon="8.5439048"><ele>169.0</ele><time>2026-04-20T09:31:26.369Z</time></trkpt><trkpt lat="44.6517692" lon="8.5440872"><ele>168.33333333333334</ele><time>2026-04-20T09:31:27.363Z</time></trkpt><trkpt lat="44.6516775" lon="8.5443135"><ele>167.66666666666666</ele><time>2026-04-20T09:31:28.373Z</time></trkpt><trkpt lat="44.6516071" lon="8.5445141"><ele>167.0</ele><time>2026-04-20T09:31:29.376Z</time></trkpt><trkpt lat="44.6515198" lon="8.5446805"><ele>171.0</ele><time>2026-04-20T09:31:30.381Z</time></trkpt><trkpt lat="44.6514291" lon="8.5448583"><ele>175.0</ele><time>2026-04-20T09:31:31.364Z</time></trkpt><trkpt lat="44.6513441" lon="8.5450221"><ele>179.0</ele><time>2026-04-20T09:31:32.374Z</time></trkpt><trkpt lat="44.6512293" lon="8.5451974"><ele>174.66666666666666</ele><time>2026-04-20T09:31:33.374Z</time></trkpt><trkpt lat="44.6511156" lon="8.5453793"><ele>170.33333333333334</ele><time>2026-04-20T09:31:34.372Z</time></trkpt><trkpt lat="44.6509975" lon="8.5455458"><ele>166.0</ele><time>2026-04-20T09:31:35.371Z</time></trkpt><trkpt lat="44.6508856" lon="8.5457257"><ele>166.0</ele><time>2026-04-20T09:31:36.368Z</time></trkpt><trkpt lat="44.6507867" lon="8.5459002"><ele>166.0</ele><time>2026-04-20T09:31:37.37Z</time></trkpt><trkpt lat="44.6507014" lon="8.5460882"><ele>166.0</ele><time>2026-04-20T09:31:38.372Z</time></trkpt><trkpt lat="44.6506343" lon="8.5463069"><ele>167.66666666666669</ele><time>2026-04-20T09:31:39.374Z</time></trkpt><trkpt lat="44.6505654" lon="8.5465337"><ele>169.33333333333334</ele><time>2026-04-20T09:31:40.376Z</time></trkpt><trkpt lat="44.6505168" lon="8.5467615"><ele>171.0</ele><time>2026-04-20T09:31:41.374Z</time></trkpt><trkpt lat="44.6504383" lon="8.5469774"><ele>171.33333333333334</ele><time>2026-04-20T09:31:42.375Z</time></trkpt><trkpt lat="44.6503359" lon="8.5471696"><ele>171.66666666666669</ele><time>2026-04-20T09:31:43.368Z</time></trkpt><trkpt lat="44.6502452" lon="8.5473593"><ele>172.0</ele><time>2026-04-20T09:31:44.372Z</time></trkpt><trkpt lat="44.6501303" lon="8.5475375"><ele>172.66666666666669</ele><time>2026-04-20T09:31:45.366Z</time></trkpt><trkpt lat="44.649983" lon="8.5476689"><ele>173.33333333333334</ele><time>2026-04-20T09:31:46.366Z</time></trkpt><trkpt lat="44.6498356" lon="8.5477851"><ele>174.0</ele><time>2026-04-20T09:31:47.371Z</time></trkpt><trkpt lat="44.6496976" lon="8.5478793"><ele>174.0</ele><time>2026-04-20T09:31:48.378Z</time></trkpt><trkpt lat="44.6495569" lon="8.5480013"><ele>174.0</ele><time>2026-04-20T09:31:49.377Z</time></trkpt><trkpt lat="44.6494268" lon="8.5481248"><ele>174.0</ele><time>2026-04-20T09:31:50.374Z</time></trkpt><trkpt lat="44.6492934" lon="8.5482356"><ele>173.25</ele><time>2026-04-20T09:31:51.378Z</time></trkpt><trkpt lat="44.649168" lon="8.548331"><ele>172.5</ele><time>2026-04-20T09:31:52.373Z</time></trkpt><trkpt lat="44.6490525" lon="8.5484128"><ele>171.75</ele><time>2026-04-20T09:31:53.385Z</time></trkpt><trkpt lat="44.648946" lon="8.5484967"><ele>171.0</ele><time>2026-04-20T09:31:54.394Z</time></trkpt><trkpt lat="44.6488469" lon="8.5485844"><ele>171.0</ele><time>2026-04-20T09:31:55.463Z</time></trkpt><trkpt lat="44.6487492" lon="8.5486839"><ele>171.0</ele><time>2026-04-20T09:31:56.466Z</time></trkpt><trkpt lat="44.6486605" lon="8.5487996"><ele>171.0</ele><time>2026-04-20T09:31:57.463Z</time></trkpt><trkpt lat="44.6485786" lon="8.5489198"><ele>171.0</ele><time>2026-04-20T09:31:58.473Z</time></trkpt><trkpt lat="44.6485055" lon="8.5490425"><ele>171.25</ele><time>2026-04-20T09:31:59.462Z</time></trkpt><trkpt lat="44.6484458" lon="8.5491749"><ele>171.5</ele><time>2026-04-20T09:32:00.457Z</time></trkpt><trkpt lat="44.6483959" lon="8.549321"><ele>171.75</ele><time>2026-04-20T09:32:01.459Z</time></trkpt><trkpt lat="44.6483446" lon="8.549485"><ele>172.0</ele><time>2026-04-20T09:32:02.449Z</time></trkpt><trkpt lat="44.6482994" lon="8.5496525"><ele>172.5</ele><time>2026-04-20T09:32:03.454Z</time></trkpt><trkpt lat="44.6482543" lon="8.5498175"><ele>173.0</ele><time>2026-04-20T09:32:04.467Z</time></trkpt><trkpt lat="44.6482048" lon="8.5499826"><ele>173.5</ele><time>2026-04-20T09:32:05.471Z</time></trkpt><trkpt lat="44.6481582" lon="8.5501551"><ele>174.0</ele><time>2026-04-20T09:32:06.464Z</time></trkpt><trkpt lat="44.6480963" lon="8.5503137"><ele>173.75</ele><time>2026-04-20T09:32:07.459Z</time></trkpt><trkpt lat="44.6480114" lon="8.5504579"><ele>173.5</ele><time>2026-04-20T09:32:08.462Z</time></trkpt><trkpt lat="44.6479096" lon="8.5505902"><ele>173.25</ele><time>2026-04-20T09:32:09.444Z</time></trkpt><trkpt lat="44.6477924" lon="8.5507014"><ele>173.0</ele><time>2026-04-20T09:32:10.44Z</time></trkpt><trkpt lat="44.6476622" lon="8.5508163"><ele>173.0</ele><time>2026-04-20T09:32:11.459Z</time></trkpt><trkpt lat="44.6475305" lon="8.5509277"><ele>173.0</ele><time>2026-04-20T09:32:12.454Z</time></trkpt><trkpt lat="44.6473988" lon="8.5510468"><ele>173.0</ele><time>2026-04-20T09:32:13.473Z</time></trkpt><trkpt lat="44.6472802" lon="8.5511758"><ele>172.75</ele><time>2026-04-20T09:32:14.467Z</time></trkpt><trkpt lat="44.6471799" lon="8.5513012"><ele>172.5</ele><time>2026-04-20T09:32:15.462Z</time></trkpt><trkpt lat="44.6470799" lon="8.5514388"><ele>172.25</ele><time>2026-04-20T09:32:16.471Z</time></trkpt><trkpt lat="44.6469798" lon="8.5515881"><ele>172.0</ele><time>2026-04-20T09:32:17.467Z</time></trkpt><trkpt lat="44.6468841" lon="8.5517368"><ele>171.75</ele><time>2026-04-20T09:32:18.475Z</time></trkpt><trkpt lat="44.6467889" lon="8.5518861"><ele>171.5</ele><time>2026-04-20T09:32:19.464Z</time></trkpt><trkpt lat="44.6467016" lon="8.5520324"><ele>171.25</ele><time>2026-04-20T09:32:20.455Z</time></trkpt><trkpt lat="44.6466186" lon="8.5521636"><ele>171.0</ele><time>2026-04-20T09:32:21.468Z</time></trkpt><trkpt lat="44.6465372" lon="8.5522881"><ele>171.0</ele><time>2026-04-20T09:32:22.476Z</time></trkpt><trkpt lat="44.6464653" lon="8.5524024"><ele>171.0</ele><time>2026-04-20T09:32:23.473Z</time></trkpt><trkpt lat="44.6464088" lon="8.5524914"><ele>171.0</ele><time>2026-04-20T09:32:24.468Z</time></trkpt><trkpt lat="44.6463663" lon="8.5525605"><ele>171.0</ele><time>2026-04-20T09:32:25.481Z</time></trkpt><trkpt lat="44.6463045" lon="8.5526566"><ele>171.0</ele><time>2026-04-20T09:32:27.47Z</time></trkpt><trkpt lat="44.6462618" lon="8.552723"><ele>171.0</ele><time>2026-04-20T09:32:30.475Z</time></trkpt><trkpt lat="44.6461977" lon="8.5528354"><ele>172.0</ele><time>2026-04-20T09:32:34.465Z</time></trkpt><trkpt lat="44.6461529" lon="8.5528992"><ele>173.0</ele><time>2026-04-20T09:32:35.46Z</time></trkpt><trkpt lat="44.6460806" lon="8.5530202"><ele>174.0</ele><time>2026-04-20T09:32:36.455Z</time></trkpt><trkpt lat="44.6460185" lon="8.5531349"><ele>175.0</ele><time>2026-04-20T09:32:37.456Z</time></trkpt><trkpt lat="44.6459615" lon="8.5532445"><ele>176.0</ele><time>2026-04-20T09:32:38.46Z</time></trkpt><trkpt lat="44.6459185" lon="8.5533299"><ele>176.0</ele><time>2026-04-20T09:32:39.46Z</time></trkpt><trkpt lat="44.6458794" lon="8.553415"><ele>176.0</ele><time>2026-04-20T09:32:40.476Z</time></trkpt><trkpt lat="44.6458375" lon="8.5535195"><ele>176.0</ele><time>2026-04-20T09:32:41.464Z</time></trkpt><trkpt lat="44.6457947" lon="8.5536438"><ele>176.0</ele><time>2026-04-20T09:32:42.473Z</time></trkpt><trkpt lat="44.6457603" lon="8.553783"><ele>176.0</ele><time>2026-04-20T09:32:43.448Z</time></trkpt><trkpt lat="44.6457441" lon="8.5539573"><ele>178.33333333333331</ele><time>2026-04-20T09:32:44.447Z</time></trkpt><trkpt lat="44.6457057" lon="8.5541854"><ele>180.66666666666666</ele><time>2026-04-20T09:32:45.349Z</time></trkpt><trkpt lat="44.6456746" lon="8.5544234"><ele>183.0</ele><time>2026-04-20T09:32:46.349Z</time></trkpt><trkpt lat="44.6456086" lon="8.5546312"><ele>186.66666666666669</ele><time>2026-04-20T09:32:47.371Z</time></trkpt><trkpt lat="44.6455548" lon="8.5548256"><ele>190.33333333333334</ele><time>2026-04-20T09:32:48.361Z</time></trkpt><trkpt lat="44.6455035" lon="8.5550287"><ele>194.0</ele><time>2026-04-20T09:32:49.366Z</time></trkpt><trkpt lat="44.6454323" lon="8.5552311"><ele>193.66666666666669</ele><time>2026-04-20T09:32:50.379Z</time></trkpt><trkpt lat="44.6453689" lon="8.5554643"><ele>193.33333333333331</ele><time>2026-04-20T09:32:51.372Z</time></trkpt><trkpt lat="44.6452761" lon="8.5556666"><ele>193.0</ele><time>2026-04-20T09:32:52.371Z</time></trkpt><trkpt lat="44.6451592" lon="8.5557912"><ele>193.0</ele><time>2026-04-20T09:32:53.366Z</time></trkpt><trkpt lat="44.645038" lon="8.5559207"><ele>193.0</ele><time>2026-04-20T09:32:54.359Z</time></trkpt><trkpt lat="44.6449291" lon="8.5560106"><ele>193.0</ele><time>2026-04-20T09:32:55.365Z</time></trkpt><trkpt lat="44.6448322" lon="8.5560878"><ele>193.0</ele><time>2026-04-20T09:32:56.37Z</time></trkpt><trkpt lat="44.6447151" lon="8.5561437"><ele>193.0</ele><time>2026-04-20T09:32:57.369Z</time></trkpt><trkpt lat="44.6446183" lon="8.5562126"><ele>193.0</ele><time>2026-04-20T09:32:58.383Z</time></trkpt><trkpt lat="44.6445414" lon="8.5562534"><ele>193.0</ele><time>2026-04-20T09:32:59.375Z</time></trkpt><trkpt lat="44.6444399" lon="8.5563045"><ele>193.0</ele><time>2026-04-20T09:33:00.38Z</time></trkpt><trkpt lat="44.6443394" lon="8.5563615"><ele>193.0</ele><time>2026-04-20T09:33:01.378Z</time></trkpt><trkpt lat="44.6442588" lon="8.5564223"><ele>193.0</ele><time>2026-04-20T09:33:02.372Z</time></trkpt><trkpt lat="44.6441784" lon="8.5564924"><ele>193.0</ele><time>2026-04-20T09:33:03.376Z</time></trkpt><trkpt lat="44.6441052" lon="8.5565667"><ele>193.0</ele><time>2026-04-20T09:33:04.373Z</time></trkpt><trkpt lat="44.644031" lon="8.5566472"><ele>193.0</ele><time>2026-04-20T09:33:05.376Z</time></trkpt><trkpt lat="44.6439602" lon="8.5567498"><ele>193.0</ele><time>2026-04-20T09:33:06.371Z</time></trkpt><trkpt lat="44.6438881" lon="8.5568602"><ele>193.0</ele><time>2026-04-20T09:33:07.375Z</time></trkpt><trkpt lat="44.6438188" lon="8.5569773"><ele>193.0</ele><time>2026-04-20T09:33:08.376Z</time></trkpt><trkpt lat="44.6437624" lon="8.5570968"><ele>193.0</ele><time>2026-04-20T09:33:09.368Z</time></trkpt><trkpt lat="44.6437232" lon="8.5572098"><ele>193.0</ele><time>2026-04-20T09:33:10.38Z</time></trkpt><trkpt lat="44.6436952" lon="8.5573163"><ele>193.0</ele><time>2026-04-20T09:33:11.372Z</time></trkpt><trkpt lat="44.6436802" lon="8.5574396"><ele>195.0</ele><time>2026-04-20T09:33:12.37Z</time></trkpt><trkpt lat="44.6436826" lon="8.5575728"><ele>197.0</ele><time>2026-04-20T09:33:13.372Z</time></trkpt><trkpt lat="44.6436761" lon="8.5577186"><ele>199.0</ele><time>2026-04-20T09:33:14.371Z</time></trkpt><trkpt lat="44.6436936" lon="8.5578696"><ele>201.0</ele><time>2026-04-20T09:33:15.36Z</time></trkpt><trkpt lat="44.6437258" lon="8.558"><ele>203.0</ele><time>2026-04-20T09:33:16.376Z</time></trkpt><trkpt lat="44.6437734" lon="8.5581217"><ele>203.0</ele><time>2026-04-20T09:33:17.366Z</time></trkpt><trkpt lat="44.6438303" lon="8.5582448"><ele>203.0</ele><time>2026-04-20T09:33:18.367Z</time></trkpt><trkpt lat="44.6439029" lon="8.5583438"><ele>203.0</ele><time>2026-04-20T09:33:19.369Z</time></trkpt><trkpt lat="44.643973" lon="8.5584234"><ele>203.0</ele><time>2026-04-20T09:33:20.369Z</time></trkpt><trkpt lat="44.6440523" lon="8.5584858"><ele>203.0</ele><time>2026-04-20T09:33:21.374Z</time></trkpt><trkpt lat="44.6441392" lon="8.5585432"><ele>203.0</ele><time>2026-04-20T09:33:22.372Z</time></trkpt><trkpt lat="44.6442379" lon="8.5585934"><ele>203.0</ele><time>2026-04-20T09:33:23.371Z</time></trkpt><trkpt lat="44.6443374" lon="8.5586405"><ele>203.0</ele><time>2026-04-20T09:33:24.375Z</time></trkpt><trkpt lat="44.6444302" lon="8.5586959"><ele>203.0</ele><time>2026-04-20T09:33:25.378Z</time></trkpt><trkpt lat="44.6445248" lon="8.5587732"><ele>203.0</ele><time>2026-04-20T09:33:26.368Z</time></trkpt><trkpt lat="44.6446087" lon="8.5588766"><ele>204.25</ele><time>2026-04-20T09:33:27.38Z</time></trkpt><trkpt lat="44.6446746" lon="8.5589967"><ele>205.5</ele><time>2026-04-20T09:33:28.372Z</time></trkpt><trkpt lat="44.6447219" lon="8.5591464"><ele>206.75</ele><time>2026-04-20T09:33:29.37Z</time></trkpt><trkpt lat="44.6447671" lon="8.559341"><ele>208.0</ele><time>2026-04-20T09:33:30.371Z</time></trkpt><trkpt lat="44.6448048" lon="8.5595661"><ele>209.0</ele><time>2026-04-20T09:33:31.376Z</time></trkpt><trkpt lat="44.6448325" lon="8.559855"><ele>210.0</ele><time>2026-04-20T09:33:32.375Z</time></trkpt><trkpt lat="44.6448595" lon="8.5602266"><ele>209.33333333333331</ele><time>2026-04-20T09:33:33.366Z</time></trkpt><trkpt lat="44.6449076" lon="8.5605311"><ele>208.66666666666666</ele><time>2026-04-20T09:33:34.367Z</time></trkpt><trkpt lat="44.6449309" lon="8.5607947"><ele>208.0</ele><time>2026-04-20T09:33:35.366Z</time></trkpt><trkpt lat="44.6449521" lon="8.561029"><ele>209.66666666666666</ele><time>2026-04-20T09:33:36.367Z</time></trkpt><trkpt lat="44.6449492" lon="8.5612635"><ele>211.33333333333331</ele><time>2026-04-20T09:33:37.367Z</time></trkpt><trkpt lat="44.6449039" lon="8.5614755"><ele>213.0</ele><time>2026-04-20T09:33:38.361Z</time></trkpt><trkpt lat="44.6447994" lon="8.5616514"><ele>213.0</ele><time>2026-04-20T09:33:39.367Z</time></trkpt><trkpt lat="44.6446694" lon="8.5618221"><ele>213.0</ele><time>2026-04-20T09:33:40.355Z</time></trkpt><trkpt lat="44.6444986" lon="8.5619262"><ele>213.0</ele><time>2026-04-20T09:33:41.365Z</time></trkpt><trkpt lat="44.6443476" lon="8.5620182"><ele>214.33333333333331</ele><time>2026-04-20T09:33:42.363Z</time></trkpt><trkpt lat="44.6441876" lon="8.562061"><ele>215.66666666666666</ele><time>2026-04-20T09:33:43.348Z</time></trkpt><trkpt lat="44.644027" lon="8.5621187"><ele>217.0</ele><time>2026-04-20T09:33:44.348Z</time></trkpt><trkpt lat="44.6438768" lon="8.5622165"><ele>217.0</ele><time>2026-04-20T09:33:45.357Z</time></trkpt><trkpt lat="44.6437324" lon="8.5623125"><ele>217.0</ele><time>2026-04-20T09:33:46.356Z</time></trkpt><trkpt lat="44.6436775" lon="8.5625141"><ele>217.0</ele><time>2026-04-20T09:33:47.356Z</time></trkpt><trkpt lat="44.6437351" lon="8.5627565"><ele>219.0</ele><time>2026-04-20T09:33:48.361Z</time></trkpt><trkpt lat="44.6438437" lon="8.5629779"><ele>221.0</ele><time>2026-04-20T09:33:49.358Z</time></trkpt><trkpt lat="44.6439642" lon="8.5632085"><ele>223.0</ele><time>2026-04-20T09:33:50.358Z</time></trkpt><trkpt lat="44.6440819" lon="8.5633887"><ele>223.0</ele><time>2026-04-20T09:33:51.358Z</time></trkpt><trkpt lat="44.6442099" lon="8.5635234"><ele>223.0</ele><time>2026-04-20T09:33:52.364Z</time></trkpt><trkpt lat="44.6443238" lon="8.5636779"><ele>223.0</ele><time>2026-04-20T09:33:53.364Z</time></trkpt><trkpt lat="44.6444067" lon="8.5638515"><ele>225.66666666666666</ele><time>2026-04-20T09:33:54.367Z</time></trkpt><trkpt lat="44.6444887" lon="8.5640456"><ele>228.33333333333331</ele><time>2026-04-20T09:33:55.364Z</time></trkpt><trkpt lat="44.6445281" lon="8.5642681"><ele>231.0</ele><time>2026-04-20T09:33:56.358Z</time></trkpt><trkpt lat="44.6445146" lon="8.5645054"><ele>230.0</ele><time>2026-04-20T09:33:57.368Z</time></trkpt><trkpt lat="44.6444804" lon="8.5647423"><ele>229.0</ele><time>2026-04-20T09:33:58.358Z</time></trkpt><trkpt lat="44.6444299" lon="8.5650129"><ele>228.0</ele><time>2026-04-20T09:33:59.364Z</time></trkpt><trkpt lat="44.6443535" lon="8.5653347"><ele>229.0</ele><time>2026-04-20T09:34:00.364Z</time></trkpt><trkpt lat="44.644276" lon="8.5656813"><ele>230.0</ele><time>2026-04-20T09:34:01.36Z</time></trkpt><trkpt lat="44.6441999" lon="8.5660484"><ele>235.5</ele><time>2026-04-20T09:34:02.367Z</time></trkpt><trkpt lat="44.6441181" lon="8.5664234"><ele>241.0</ele><time>2026-04-20T09:34:03.362Z</time></trkpt><trkpt lat="44.6440357" lon="8.5667623"><ele>244.5</ele><time>2026-04-20T09:34:04.348Z</time></trkpt><trkpt lat="44.6439473" lon="8.56708"><ele>248.0</ele><time>2026-04-20T09:34:05.352Z</time></trkpt><trkpt lat="44.6438637" lon="8.5673599"><ele>248.0</ele><time>2026-04-20T09:34:06.349Z</time></trkpt><trkpt lat="44.6437788" lon="8.5676238"><ele>248.0</ele><time>2026-04-20T09:34:07.361Z</time></trkpt><trkpt lat="44.6436823" lon="8.5678602"><ele>248.0</ele><time>2026-04-20T09:34:08.363Z</time></trkpt><trkpt lat="44.6435655" lon="8.5680748"><ele>244.66666666666669</ele><time>2026-04-20T09:34:09.352Z</time></trkpt><trkpt lat="44.6434491" lon="8.5682444"><ele>241.33333333333331</ele><time>2026-04-20T09:34:10.367Z</time></trkpt><trkpt lat="44.6433412" lon="8.5684099"><ele>238.0</ele><time>2026-04-20T09:34:11.362Z</time></trkpt><trkpt lat="44.6432674" lon="8.5685905"><ele>241.33333333333331</ele><time>2026-04-20T09:34:12.363Z</time></trkpt><trkpt lat="44.6431939" lon="8.5687585"><ele>244.66666666666669</ele><time>2026-04-20T09:34:13.365Z</time></trkpt><trkpt lat="44.6431848" lon="8.568968"><ele>248.0</ele><time>2026-04-20T09:34:14.365Z</time></trkpt><trkpt lat="44.6432347" lon="8.5691919"><ele>248.0</ele><time>2026-04-20T09:34:15.361Z</time></trkpt><trkpt lat="44.6432799" lon="8.5694339"><ele>248.0</ele><time>2026-04-20T09:34:16.354Z</time></trkpt><trkpt lat="44.6433215" lon="8.5697076"><ele>248.0</ele><time>2026-04-20T09:34:17.364Z</time></trkpt><trkpt lat="44.6433387" lon="8.5699553"><ele>249.0</ele><time>2026-04-20T09:34:18.36Z</time></trkpt><trkpt lat="44.6433516" lon="8.5702086"><ele>250.0</ele><time>2026-04-20T09:34:19.358Z</time></trkpt><trkpt lat="44.6433135" lon="8.5704568"><ele>251.0</ele><time>2026-04-20T09:34:20.368Z</time></trkpt><trkpt lat="44.643271" lon="8.5707295"><ele>254.0</ele><time>2026-04-20T09:34:21.365Z</time></trkpt><trkpt lat="44.6432037" lon="8.5709622"><ele>257.0</ele><time>2026-04-20T09:34:22.354Z</time></trkpt><trkpt lat="44.643123" lon="8.5711534"><ele>260.0</ele><time>2026-04-20T09:34:23.356Z</time></trkpt><trkpt lat="44.6430084" lon="8.5713702"><ele>259.0</ele><time>2026-04-20T09:34:24.356Z</time></trkpt><trkpt lat="44.642888" lon="8.5715698"><ele>258.0</ele><time>2026-04-20T09:34:25.358Z</time></trkpt><trkpt lat="44.6427176" lon="8.5717299"><ele>257.0</ele><time>2026-04-20T09:34:26.357Z</time></trkpt><trkpt lat="44.6425541" lon="8.57189"><ele>263.0</ele><time>2026-04-20T09:34:27.358Z</time></trkpt><trkpt lat="44.6424127" lon="8.5720245"><ele>269.0</ele><time>2026-04-20T09:34:28.358Z</time></trkpt><trkpt lat="44.6422606" lon="8.5721745"><ele>275.0</ele><time>2026-04-20T09:34:29.354Z</time></trkpt><trkpt lat="44.6420812" lon="8.572288"><ele>275.0</ele><time>2026-04-20T09:34:30.358Z</time></trkpt><trkpt lat="44.6419655" lon="8.5724796"><ele>275.0</ele><time>2026-04-20T09:34:31.353Z</time></trkpt><trkpt lat="44.6419197" lon="8.572667"><ele>275.0</ele><time>2026-04-20T09:34:32.348Z</time></trkpt><trkpt lat="44.6419602" lon="8.5729459"><ele>275.6666666666667</ele><time>2026-04-20T09:34:33.354Z</time></trkpt><trkpt lat="44.6420569" lon="8.5731896"><ele>276.3333333333333</ele><time>2026-04-20T09:34:34.36Z</time></trkpt><trkpt lat="44.6421693" lon="8.5733977"><ele>277.0</ele><time>2026-04-20T09:34:35.354Z</time></trkpt><trkpt lat="44.642302" lon="8.5735698"><ele>278.0</ele><time>2026-04-20T09:34:36.354Z</time></trkpt><trkpt lat="44.6424544" lon="8.5736993"><ele>279.0</ele><time>2026-04-20T09:34:37.365Z</time></trkpt><trkpt lat="44.6426442" lon="8.57379"><ele>280.0</ele><time>2026-04-20T09:34:38.353Z</time></trkpt><trkpt lat="44.6428663" lon="8.5738878"><ele>280.0</ele><time>2026-04-20T09:34:39.356Z</time></trkpt><trkpt lat="44.643063" lon="8.5740258"><ele>280.0</ele><time>2026-04-20T09:34:40.356Z</time></trkpt><trkpt lat="44.6432242" lon="8.5741709"><ele>280.0</ele><time>2026-04-20T09:34:41.353Z</time></trkpt><trkpt lat="44.643362" lon="8.5743334"><ele>278.66666666666663</ele><time>2026-04-20T09:34:42.362Z</time></trkpt><trkpt lat="44.6434488" lon="8.5745411"><ele>277.3333333333333</ele><time>2026-04-20T09:34:43.364Z</time></trkpt><trkpt lat="44.6435388" lon="8.574737"><ele>276.0</ele><time>2026-04-20T09:34:44.367Z</time></trkpt><trkpt lat="44.6435622" lon="8.5749639"><ele>276.0</ele><time>2026-04-20T09:34:45.361Z</time></trkpt><trkpt lat="44.643528" lon="8.5752251"><ele>276.0</ele><time>2026-04-20T09:34:46.368Z</time></trkpt><trkpt lat="44.6434914" lon="8.5754908"><ele>276.0</ele><time>2026-04-20T09:34:47.357Z</time></trkpt><trkpt lat="44.6434468" lon="8.5757666"><ele>282.5</ele><time>2026-04-20T09:34:48.355Z</time></trkpt><trkpt lat="44.6433911" lon="8.576063"><ele>289.0</ele><time>2026-04-20T09:34:49.379Z</time></trkpt><trkpt lat="44.6433223" lon="8.5763825"><ele>291.0</ele><time>2026-04-20T09:34:50.371Z</time></trkpt><trkpt lat="44.6432783" lon="8.5766945"><ele>293.0</ele><time>2026-04-20T09:34:51.371Z</time></trkpt><trkpt lat="44.6432613" lon="8.5769918"><ele>295.0</ele><time>2026-04-20T09:34:52.375Z</time></trkpt><trkpt lat="44.643202" lon="8.5772498"><ele>298.0</ele><time>2026-04-20T09:34:53.393Z</time></trkpt><trkpt lat="44.6431531" lon="8.5775238"><ele>301.0</ele><time>2026-04-20T09:34:54.382Z</time></trkpt><trkpt lat="44.6430722" lon="8.5777781"><ele>304.0</ele><time>2026-04-20T09:34:55.375Z</time></trkpt><trkpt lat="44.6429536" lon="8.5780337"><ele>306.0</ele><time>2026-04-20T09:34:56.368Z</time></trkpt><trkpt lat="44.6428171" lon="8.5782478"><ele>308.0</ele><time>2026-04-20T09:34:57.374Z</time></trkpt><trkpt lat="44.64268" lon="8.5784325"><ele>310.0</ele><time>2026-04-20T09:34:58.385Z</time></trkpt><trkpt lat="44.6425387" lon="8.5786783"><ele>309.3333333333333</ele><time>2026-04-20T09:34:59.374Z</time></trkpt><trkpt lat="44.6424757" lon="8.5789492"><ele>308.6666666666667</ele><time>2026-04-20T09:35:00.376Z</time></trkpt><trkpt lat="44.6424198" lon="8.5792006"><ele>308.0</ele><time>2026-04-20T09:35:01.379Z</time></trkpt><trkpt lat="44.6423573" lon="8.579438"><ele>310.6666666666667</ele><time>2026-04-20T09:35:02.375Z</time></trkpt><trkpt lat="44.6422545" lon="8.5796151"><ele>313.3333333333333</ele><time>2026-04-20T09:35:03.365Z</time></trkpt><trkpt lat="44.6421062" lon="8.5797158"><ele>316.0</ele><time>2026-04-20T09:35:04.369Z</time></trkpt><trkpt lat="44.6419251" lon="8.5797727"><ele>316.0</ele><time>2026-04-20T09:35:05.367Z</time></trkpt><trkpt lat="44.6417666" lon="8.5798252"><ele>316.0</ele><time>2026-04-20T09:35:06.373Z</time></trkpt><trkpt lat="44.6416126" lon="8.5798732"><ele>316.0</ele><time>2026-04-20T09:35:07.363Z</time></trkpt><trkpt lat="44.641442" lon="8.5799605"><ele>316.0</ele><time>2026-04-20T09:35:08.37Z</time></trkpt><trkpt lat="44.6412953" lon="8.5801212"><ele>316.0</ele><time>2026-04-20T09:35:09.37Z</time></trkpt><trkpt lat="44.6411579" lon="8.5802828"><ele>316.0</ele><time>2026-04-20T09:35:10.364Z</time></trkpt><trkpt lat="44.64105" lon="8.5805081"><ele>315.0</ele><time>2026-04-20T09:35:11.363Z</time></trkpt><trkpt lat="44.6410281" lon="8.5807941"><ele>314.0</ele><time>2026-04-20T09:35:12.372Z</time></trkpt><trkpt lat="44.6410021" lon="8.5810441"><ele>313.0</ele><time>2026-04-20T09:35:13.379Z</time></trkpt><trkpt lat="44.6409089" lon="8.5812224"><ele>319.66666666666663</ele><time>2026-04-20T09:35:14.37Z</time></trkpt><trkpt lat="44.6407588" lon="8.5813033"><ele>326.3333333333333</ele><time>2026-04-20T09:35:15.37Z</time></trkpt><trkpt lat="44.6405755" lon="8.5813804"><ele>333.0</ele><time>2026-04-20T09:35:16.361Z</time></trkpt><trkpt lat="44.6403374" lon="8.5814505"><ele>330.0</ele><time>2026-04-20T09:35:17.367Z</time></trkpt><trkpt lat="44.6401041" lon="8.5815616"><ele>327.0</ele><time>2026-04-20T09:35:18.371Z</time></trkpt><trkpt lat="44.6398812" lon="8.5817106"><ele>327.0</ele><time>2026-04-20T09:35:19.366Z</time></trkpt><trkpt lat="44.6396719" lon="8.5818782"><ele>327.0</ele><time>2026-04-20T09:35:20.379Z</time></trkpt><trkpt lat="44.6394927" lon="8.5819849"><ele>327.0</ele><time>2026-04-20T09:35:21.373Z</time></trkpt><trkpt lat="44.639314" lon="8.5820734"><ele>333.3333333333333</ele><time>2026-04-20T09:35:22.37Z</time></trkpt><trkpt lat="44.6391551" lon="8.5821439"><ele>339.66666666666663</ele><time>2026-04-20T09:35:23.381Z</time></trkpt><trkpt lat="44.6390132" lon="8.5822317"><ele>346.0</ele><time>2026-04-20T09:35:24.383Z</time></trkpt><trkpt lat="44.6388677" lon="8.5823054"><ele>346.0</ele><time>2026-04-20T09:35:25.385Z</time></trkpt><trkpt lat="44.6387062" lon="8.5823227"><ele>346.0</ele><time>2026-04-20T09:35:26.367Z</time></trkpt><trkpt lat="44.6385487" lon="8.5823035"><ele>346.0</ele><time>2026-04-20T09:35:27.373Z</time></trkpt><trkpt lat="44.6384102" lon="8.582282"><ele>345.66666666666663</ele><time>2026-04-20T09:35:28.386Z</time></trkpt><trkpt lat="44.6382657" lon="8.5823041"><ele>345.3333333333333</ele><time>2026-04-20T09:35:29.375Z</time></trkpt><trkpt lat="44.6380936" lon="8.5823764"><ele>345.0</ele><time>2026-04-20T09:35:30.379Z</time></trkpt><trkpt lat="44.6379102" lon="8.5825061"><ele>346.5</ele><time>2026-04-20T09:35:31.379Z</time></trkpt><trkpt lat="44.6376684" lon="8.5825949"><ele>348.0</ele><time>2026-04-20T09:35:32.367Z</time></trkpt><trkpt lat="44.6374608" lon="8.5826249"><ele>348.0</ele><time>2026-04-20T09:35:33.363Z</time></trkpt><trkpt lat="44.6372806" lon="8.5826193"><ele>348.0</ele><time>2026-04-20T09:35:34.362Z</time></trkpt><trkpt lat="44.6371527" lon="8.5825806"><ele>348.0</ele><time>2026-04-20T09:35:35.38Z</time></trkpt><trkpt lat="44.6370557" lon="8.5825666"><ele>348.0</ele><time>2026-04-20T09:35:36.366Z</time></trkpt><trkpt lat="44.6369353" lon="8.5826267"><ele>346.6666666666667</ele><time>2026-04-20T09:35:37.376Z</time></trkpt><trkpt lat="44.63681" lon="8.5827632"><ele>345.33333333333337</ele><time>2026-04-20T09:35:38.372Z</time></trkpt><trkpt lat="44.6366881" lon="8.5829451"><ele>344.0</ele><time>2026-04-20T09:35:39.376Z</time></trkpt><trkpt lat="44.6365515" lon="8.5830813"><ele>345.25</ele><time>2026-04-20T09:35:40.371Z</time></trkpt><trkpt lat="44.636438" lon="8.5832192"><ele>346.5</ele><time>2026-04-20T09:35:41.376Z</time></trkpt><trkpt lat="44.636321" lon="8.5833469"><ele>347.75</ele><time>2026-04-20T09:35:42.376Z</time></trkpt><trkpt lat="44.6361938" lon="8.5834384"><ele>349.0</ele><time>2026-04-20T09:35:43.372Z</time></trkpt><trkpt lat="44.6360401" lon="8.5835158"><ele>349.0</ele><time>2026-04-20T09:35:44.372Z</time></trkpt><trkpt lat="44.6358951" lon="8.5835812"><ele>349.0</ele><time>2026-04-20T09:35:45.376Z</time></trkpt><trkpt lat="44.6357557" lon="8.5836708"><ele>349.0</ele><time>2026-04-20T09:35:46.382Z</time></trkpt><trkpt lat="44.6356292" lon="8.5837631"><ele>349.0</ele><time>2026-04-20T09:35:47.376Z</time></trkpt><trkpt lat="44.6355227" lon="8.5839105"><ele>354.25</ele><time>2026-04-20T09:35:48.371Z</time></trkpt><trkpt lat="44.6354455" lon="8.5840735"><ele>359.5</ele><time>2026-04-20T09:35:49.368Z</time></trkpt><trkpt lat="44.6354138" lon="8.5842267"><ele>364.75</ele><time>2026-04-20T09:35:50.375Z</time></trkpt><trkpt lat="44.6353633" lon="8.5844474"><ele>370.0</ele><time>2026-04-20T09:35:51.37Z</time></trkpt><trkpt lat="44.635335" lon="8.5846568"><ele>369.0</ele><time>2026-04-20T09:35:52.38Z</time></trkpt><trkpt lat="44.6352759" lon="8.5848327"><ele>368.0</ele><time>2026-04-20T09:35:53.373Z</time></trkpt><trkpt lat="44.6352171" lon="8.5849524"><ele>367.0</ele><time>2026-04-20T09:35:54.377Z</time></trkpt><trkpt lat="44.6351399" lon="8.5850714"><ele>366.0</ele><time>2026-04-20T09:35:55.379Z</time></trkpt><trkpt lat="44.635052" lon="8.5851718"><ele>366.0</ele><time>2026-04-20T09:35:56.375Z</time></trkpt><trkpt lat="44.6349386" lon="8.5852582"><ele>366.0</ele><time>2026-04-20T09:35:57.375Z</time></trkpt><trkpt lat="44.6348296" lon="8.5853242"><ele>366.0</ele><time>2026-04-20T09:35:58.374Z</time></trkpt><trkpt lat="44.634717" lon="8.5853589"><ele>366.0</ele><time>2026-04-20T09:35:59.383Z</time></trkpt><trkpt lat="44.6346081" lon="8.5853658"><ele>367.20000000000005</ele><time>2026-04-20T09:36:00.385Z</time></trkpt><trkpt lat="44.6345079" lon="8.5853877"><ele>368.40000000000003</ele><time>2026-04-20T09:36:01.384Z</time></trkpt><trkpt lat="44.6344102" lon="8.5854275"><ele>369.6</ele><time>2026-04-20T09:36:02.377Z</time></trkpt><trkpt lat="44.6343173" lon="8.5854658"><ele>370.8</ele><time>2026-04-20T09:36:03.379Z</time></trkpt><trkpt lat="44.6342341" lon="8.5855114"><ele>372.0</ele><time>2026-04-20T09:36:04.376Z</time></trkpt><trkpt lat="44.634169" lon="8.5855772"><ele>372.0</ele><time>2026-04-20T09:36:05.367Z</time></trkpt><trkpt lat="44.6341161" lon="8.5856455"><ele>372.0</ele><time>2026-04-20T09:36:06.371Z</time></trkpt><trkpt lat="44.6340687" lon="8.5858223"><ele>372.0</ele><time>2026-04-20T09:36:08.374Z</time></trkpt><trkpt lat="44.6340508" lon="8.5859383"><ele>372.0</ele><time>2026-04-20T09:36:09.375Z</time></trkpt><trkpt lat="44.6340061" lon="8.5860374"><ele>372.0</ele><time>2026-04-20T09:36:10.377Z</time></trkpt><trkpt lat="44.6339269" lon="8.5861101"><ele>371.40000000000003</ele><time>2026-04-20T09:36:11.367Z</time></trkpt><trkpt lat="44.6338319" lon="8.5861786"><ele>370.8</ele><time>2026-04-20T09:36:12.374Z</time></trkpt><trkpt lat="44.6337365" lon="8.586259"><ele>370.2</ele><time>2026-04-20T09:36:13.376Z</time></trkpt><trkpt lat="44.6336504" lon="8.5863206"><ele>369.6</ele><time>2026-04-20T09:36:14.382Z</time></trkpt><trkpt lat="44.6335774" lon="8.5863787"><ele>369.0</ele><time>2026-04-20T09:36:15.385Z</time></trkpt><trkpt lat="44.6334983" lon="8.5864247"><ele>369.0</ele><time>2026-04-20T09:36:16.382Z</time></trkpt><trkpt lat="44.6334329" lon="8.5864756"><ele>369.0</ele><time>2026-04-20T09:36:17.369Z</time></trkpt><trkpt lat="44.6333888" lon="8.5865455"><ele>369.0</ele><time>2026-04-20T09:36:18.365Z</time></trkpt><trkpt lat="44.6333609" lon="8.5866575"><ele>369.0</ele><time>2026-04-20T09:36:19.375Z</time></trkpt><trkpt lat="44.6333479" lon="8.5868033"><ele>369.0</ele><time>2026-04-20T09:36:20.368Z</time></trkpt><trkpt lat="44.6332976" lon="8.5869597"><ele>366.5</ele><time>2026-04-20T09:36:21.367Z</time></trkpt><trkpt lat="44.6332296" lon="8.5871218"><ele>364.0</ele><time>2026-04-20T09:36:22.361Z</time></trkpt><trkpt lat="44.6331337" lon="8.5872697"><ele>361.5</ele><time>2026-04-20T09:36:23.38Z</time></trkpt><trkpt lat="44.6330201" lon="8.5874212"><ele>359.0</ele><time>2026-04-20T09:36:24.362Z</time></trkpt><trkpt lat="44.6329108" lon="8.5875713"><ele>359.0</ele><time>2026-04-20T09:36:25.365Z</time></trkpt><trkpt lat="44.6328172" lon="8.5877173"><ele>359.0</ele><time>2026-04-20T09:36:26.375Z</time></trkpt><trkpt lat="44.6327205" lon="8.5878702"><ele>359.0</ele><time>2026-04-20T09:36:27.374Z</time></trkpt><trkpt lat="44.6326477" lon="8.5880361"><ele>359.0</ele><time>2026-04-20T09:36:28.38Z</time></trkpt><trkpt lat="44.6325878" lon="8.5882106"><ele>360.75</ele><time>2026-04-20T09:36:29.379Z</time></trkpt><trkpt lat="44.6325385" lon="8.5883696"><ele>362.5</ele><time>2026-04-20T09:36:30.386Z</time></trkpt><trkpt lat="44.632487" lon="8.5885037"><ele>364.25</ele><time>2026-04-20T09:36:31.379Z</time></trkpt><trkpt lat="44.6324798" lon="8.5886714"><ele>366.0</ele><time>2026-04-20T09:36:32.369Z</time></trkpt><trkpt lat="44.6324944" lon="8.5888862"><ele>366.0</ele><time>2026-04-20T09:36:33.374Z</time></trkpt><trkpt lat="44.632531" lon="8.5891362"><ele>366.0</ele><time>2026-04-20T09:36:34.374Z</time></trkpt><trkpt lat="44.632577" lon="8.5893607"><ele>366.0</ele><time>2026-04-20T09:36:35.37Z</time></trkpt><trkpt lat="44.6326498" lon="8.5895335"><ele>365.25</ele><time>2026-04-20T09:36:36.375Z</time></trkpt><trkpt lat="44.6327205" lon="8.5896812"><ele>364.5</ele><time>2026-04-20T09:36:37.368Z</time></trkpt><trkpt lat="44.6327899" lon="8.5898207"><ele>363.75</ele><time>2026-04-20T09:36:38.367Z</time></trkpt><trkpt lat="44.6328186" lon="8.5900467"><ele>363.0</ele><time>2026-04-20T09:36:39.369Z</time></trkpt><trkpt lat="44.63283" lon="8.5902385"><ele>356.6666666666667</ele><time>2026-04-20T09:36:40.364Z</time></trkpt><trkpt lat="44.6328307" lon="8.5904554"><ele>350.33333333333337</ele><time>2026-04-20T09:36:41.36Z</time></trkpt><trkpt lat="44.6328195" lon="8.590691"><ele>344.0</ele><time>2026-04-20T09:36:42.372Z</time></trkpt><trkpt lat="44.6327998" lon="8.5908929"><ele>344.0</ele><time>2026-04-20T09:36:43.377Z</time></trkpt><trkpt lat="44.6327826" lon="8.591093"><ele>344.0</ele><time>2026-04-20T09:36:44.388Z</time></trkpt><trkpt lat="44.6327625" lon="8.591273"><ele>344.0</ele><time>2026-04-20T09:36:45.391Z</time></trkpt><trkpt lat="44.6327366" lon="8.5914525"><ele>344.0</ele><time>2026-04-20T09:36:46.474Z</time></trkpt><trkpt lat="44.6326924" lon="8.5916198"><ele>341.5</ele><time>2026-04-20T09:36:47.471Z</time></trkpt><trkpt lat="44.6326413" lon="8.5917729"><ele>339.0</ele><time>2026-04-20T09:36:48.472Z</time></trkpt><trkpt lat="44.6325845" lon="8.5919213"><ele>336.5</ele><time>2026-04-20T09:36:49.456Z</time></trkpt><trkpt lat="44.6325393" lon="8.5920659"><ele>334.0</ele><time>2026-04-20T09:36:50.454Z</time></trkpt><trkpt lat="44.6325187" lon="8.5922076"><ele>333.5</ele><time>2026-04-20T09:36:51.449Z</time></trkpt><trkpt lat="44.6325288" lon="8.5923626"><ele>333.0</ele><time>2026-04-20T09:36:52.457Z</time></trkpt><trkpt lat="44.632556" lon="8.5925596"><ele>332.5</ele><time>2026-04-20T09:36:53.467Z</time></trkpt><trkpt lat="44.6325939" lon="8.5927592"><ele>332.0</ele><time>2026-04-20T09:36:54.478Z</time></trkpt><trkpt lat="44.6326106" lon="8.5932056"><ele>331.75</ele><time>2026-04-20T09:36:56.352Z</time></trkpt><trkpt lat="44.6325665" lon="8.5934084"><ele>331.5</ele><time>2026-04-20T09:36:57.343Z</time></trkpt><trkpt lat="44.6325352" lon="8.593572"><ele>331.25</ele><time>2026-04-20T09:36:58.353Z</time></trkpt><trkpt lat="44.6324738" lon="8.5937471"><ele>331.0</ele><time>2026-04-20T09:36:59.367Z</time></trkpt><trkpt lat="44.6324073" lon="8.5939152"><ele>331.0</ele><time>2026-04-20T09:37:00.367Z</time></trkpt><trkpt lat="44.6323344" lon="8.5940949"><ele>331.0</ele><time>2026-04-20T09:37:01.379Z</time></trkpt><trkpt lat="44.632262" lon="8.5943073"><ele>331.0</ele><time>2026-04-20T09:37:02.37Z</time></trkpt><trkpt lat="44.6322188" lon="8.5945436"><ele>328.66666666666663</ele><time>2026-04-20T09:37:03.369Z</time></trkpt><trkpt lat="44.6321784" lon="8.5947695"><ele>326.3333333333333</ele><time>2026-04-20T09:37:04.366Z</time></trkpt><trkpt lat="44.6321323" lon="8.5949969"><ele>324.0</ele><time>2026-04-20T09:37:05.362Z</time></trkpt><trkpt lat="44.6320626" lon="8.5951978"><ele>318.0</ele><time>2026-04-20T09:37:06.364Z</time></trkpt><trkpt lat="44.6319932" lon="8.5954048"><ele>312.0</ele><time>2026-04-20T09:37:07.367Z</time></trkpt><trkpt lat="44.6318971" lon="8.5955865"><ele>306.0</ele><time>2026-04-20T09:37:08.369Z</time></trkpt><trkpt lat="44.6317866" lon="8.595774"><ele>306.0</ele><time>2026-04-20T09:37:09.375Z</time></trkpt><trkpt lat="44.6316741" lon="8.5959677"><ele>306.0</ele><time>2026-04-20T09:37:10.376Z</time></trkpt><trkpt lat="44.6315532" lon="8.5961637"><ele>306.0</ele><time>2026-04-20T09:37:11.383Z</time></trkpt><trkpt lat="44.6314297" lon="8.5963447"><ele>303.6666666666667</ele><time>2026-04-20T09:37:12.376Z</time></trkpt><trkpt lat="44.6313011" lon="8.5965299"><ele>301.33333333333337</ele><time>2026-04-20T09:37:13.374Z</time></trkpt><trkpt lat="44.631177" lon="8.5967125"><ele>299.0</ele><time>2026-04-20T09:37:14.387Z</time></trkpt><trkpt lat="44.631079" lon="8.596877"><ele>299.33333333333337</ele><time>2026-04-20T09:37:15.374Z</time></trkpt><trkpt lat="44.6310058" lon="8.5970678"><ele>299.6666666666667</ele><time>2026-04-20T09:37:16.38Z</time></trkpt><trkpt lat="44.6309257" lon="8.5972636"><ele>300.0</ele><time>2026-04-20T09:37:17.375Z</time></trkpt><trkpt lat="44.6308679" lon="8.5974684"><ele>300.0</ele><time>2026-04-20T09:37:18.372Z</time></trkpt><trkpt lat="44.6308249" lon="8.5976738"><ele>300.0</ele><time>2026-04-20T09:37:19.374Z</time></trkpt><trkpt lat="44.6307804" lon="8.5978534"><ele>300.0</ele><time>2026-04-20T09:37:20.365Z</time></trkpt><trkpt lat="44.6306984" lon="8.5979941"><ele>300.0</ele><time>2026-04-20T09:37:21.365Z</time></trkpt><trkpt lat="44.6305663" lon="8.5981679"><ele>296.6666666666667</ele><time>2026-04-20T09:37:22.361Z</time></trkpt><trkpt lat="44.6304339" lon="8.5983606"><ele>293.33333333333337</ele><time>2026-04-20T09:37:23.364Z</time></trkpt><trkpt lat="44.6303303" lon="8.5985182"><ele>290.0</ele><time>2026-04-20T09:37:24.372Z</time></trkpt><trkpt lat="44.6302279" lon="8.5986999"><ele>290.0</ele><time>2026-04-20T09:37:25.373Z</time></trkpt><trkpt lat="44.6301615" lon="8.5988976"><ele>290.0</ele><time>2026-04-20T09:37:26.358Z</time></trkpt><trkpt lat="44.6301326" lon="8.5991095"><ele>290.0</ele><time>2026-04-20T09:37:27.367Z</time></trkpt><trkpt lat="44.6300775" lon="8.5993365"><ele>287.33333333333337</ele><time>2026-04-20T09:37:28.367Z</time></trkpt><trkpt lat="44.6299916" lon="8.5995485"><ele>284.6666666666667</ele><time>2026-04-20T09:37:29.373Z</time></trkpt><trkpt lat="44.6298727" lon="8.5997189"><ele>282.0</ele><time>2026-04-20T09:37:30.379Z</time></trkpt><trkpt lat="44.6297546" lon="8.5998952"><ele>282.0</ele><time>2026-04-20T09:37:31.375Z</time></trkpt><trkpt lat="44.6296238" lon="8.6000558"><ele>282.0</ele><time>2026-04-20T09:37:32.376Z</time></trkpt><trkpt lat="44.6294929" lon="8.6002292"><ele>282.0</ele><time>2026-04-20T09:37:33.377Z</time></trkpt><trkpt lat="44.6293437" lon="8.6003877"><ele>281.0</ele><time>2026-04-20T09:37:34.377Z</time></trkpt><trkpt lat="44.629187" lon="8.6005403"><ele>280.0</ele><time>2026-04-20T09:37:35.384Z</time></trkpt><trkpt lat="44.6290541" lon="8.6006977"><ele>279.0</ele><time>2026-04-20T09:37:36.382Z</time></trkpt><trkpt lat="44.6289323" lon="8.600853"><ele>279.0</ele><time>2026-04-20T09:37:37.379Z</time></trkpt><trkpt lat="44.6288132" lon="8.6009917"><ele>279.0</ele><time>2026-04-20T09:37:38.379Z</time></trkpt><trkpt lat="44.6287062" lon="8.6011406"><ele>279.0</ele><time>2026-04-20T09:37:39.377Z</time></trkpt><trkpt lat="44.6286242" lon="8.6013323"><ele>278.3333333333333</ele><time>2026-04-20T09:37:40.37Z</time></trkpt><trkpt lat="44.6285677" lon="8.6015316"><ele>277.66666666666663</ele><time>2026-04-20T09:37:41.37Z</time></trkpt><trkpt lat="44.6285415" lon="8.6017484"><ele>277.0</ele><time>2026-04-20T09:37:42.376Z</time></trkpt><trkpt lat="44.628571" lon="8.601985"><ele>277.3333333333333</ele><time>2026-04-20T09:37:43.361Z</time></trkpt><trkpt lat="44.6286051" lon="8.602225"><ele>277.6666666666667</ele><time>2026-04-20T09:37:44.376Z</time></trkpt><trkpt lat="44.6286594" lon="8.6024806"><ele>278.0</ele><time>2026-04-20T09:37:45.358Z</time></trkpt><trkpt lat="44.6287149" lon="8.6027416"><ele>275.33333333333337</ele><time>2026-04-20T09:37:46.354Z</time></trkpt><trkpt lat="44.628767" lon="8.6030014"><ele>272.6666666666667</ele><time>2026-04-20T09:37:47.359Z</time></trkpt><trkpt lat="44.6287858" lon="8.6032279"><ele>270.0</ele><time>2026-04-20T09:37:48.362Z</time></trkpt><trkpt lat="44.6288168" lon="8.6034636"><ele>271.0</ele><time>2026-04-20T09:37:49.374Z</time></trkpt><trkpt lat="44.6288675" lon="8.6036903"><ele>272.0</ele><time>2026-04-20T09:37:50.366Z</time></trkpt><trkpt lat="44.6289113" lon="8.6039116"><ele>273.0</ele><time>2026-04-20T09:37:51.372Z</time></trkpt><trkpt lat="44.6289165" lon="8.6041"><ele>273.0</ele><time>2026-04-20T09:37:52.364Z</time></trkpt><trkpt lat="44.6288777" lon="8.6042912"><ele>273.0</ele><time>2026-04-20T09:37:53.356Z</time></trkpt><trkpt lat="44.6288271" lon="8.6044817"><ele>273.0</ele><time>2026-04-20T09:37:54.352Z</time></trkpt><trkpt lat="44.6287748" lon="8.6046232"><ele>273.0</ele><time>2026-04-20T09:37:55.356Z</time></trkpt><trkpt lat="44.6287149" lon="8.6047715"><ele>272.5</ele><time>2026-04-20T09:37:56.351Z</time></trkpt><trkpt lat="44.6286626" lon="8.6049458"><ele>272.0</ele><time>2026-04-20T09:37:57.359Z</time></trkpt><trkpt lat="44.6286448" lon="8.6051411"><ele>271.5</ele><time>2026-04-20T09:37:58.36Z</time></trkpt><trkpt lat="44.6286582" lon="8.6053352"><ele>271.0</ele><time>2026-04-20T09:37:59.363Z</time></trkpt><trkpt lat="44.6286947" lon="8.6055303"><ele>267.66666666666663</ele><time>2026-04-20T09:38:00.378Z</time></trkpt><trkpt lat="44.6287337" lon="8.6057555"><ele>264.3333333333333</ele><time>2026-04-20T09:38:01.372Z</time></trkpt><trkpt lat="44.6287799" lon="8.605959"><ele>261.0</ele><time>2026-04-20T09:38:02.375Z</time></trkpt><trkpt lat="44.6288305" lon="8.6061776"><ele>259.25</ele><time>2026-04-20T09:38:03.376Z</time></trkpt><trkpt lat="44.6288537" lon="8.6063674"><ele>257.5</ele><time>2026-04-20T09:38:04.368Z</time></trkpt><trkpt lat="44.6288813" lon="8.6065874"><ele>255.75</ele><time>2026-04-20T09:38:05.369Z</time></trkpt><trkpt lat="44.6289523" lon="8.6067557"><ele>254.0</ele><time>2026-04-20T09:38:06.362Z</time></trkpt><trkpt lat="44.629032" lon="8.6069011"><ele>251.66666666666669</ele><time>2026-04-20T09:38:07.365Z</time></trkpt><trkpt lat="44.6291465" lon="8.6070565"><ele>249.33333333333331</ele><time>2026-04-20T09:38:08.358Z</time></trkpt><trkpt lat="44.6292625" lon="8.6071891"><ele>247.0</ele><time>2026-04-20T09:38:09.367Z</time></trkpt><trkpt lat="44.6293946" lon="8.6073467"><ele>247.0</ele><time>2026-04-20T09:38:10.356Z</time></trkpt><trkpt lat="44.629469" lon="8.6074677"><ele>247.0</ele><time>2026-04-20T09:38:11.367Z</time></trkpt><trkpt lat="44.6295629" lon="8.6076073"><ele>247.0</ele><time>2026-04-20T09:38:12.368Z</time></trkpt><trkpt lat="44.6295901" lon="8.6077787"><ele>247.0</ele><time>2026-04-20T09:38:13.361Z</time></trkpt><trkpt lat="44.6295863" lon="8.6079982"><ele>247.33333333333331</ele><time>2026-04-20T09:38:14.368Z</time></trkpt><trkpt lat="44.6295576" lon="8.6082478"><ele>247.66666666666669</ele><time>2026-04-20T09:38:15.371Z</time></trkpt><trkpt lat="44.6295428" lon="8.6084864"><ele>248.0</ele><time>2026-04-20T09:38:16.368Z</time></trkpt><trkpt lat="44.6294953" lon="8.6087187"><ele>244.0</ele><time>2026-04-20T09:38:17.369Z</time></trkpt><trkpt lat="44.6294469" lon="8.6089418"><ele>240.0</ele><time>2026-04-20T09:38:18.362Z</time></trkpt><trkpt lat="44.6294115" lon="8.6091768"><ele>236.0</ele><time>2026-04-20T09:38:19.367Z</time></trkpt><trkpt lat="44.6293643" lon="8.60938"><ele>236.66666666666669</ele><time>2026-04-20T09:38:20.363Z</time></trkpt><trkpt lat="44.6292527" lon="8.6095481"><ele>237.33333333333331</ele><time>2026-04-20T09:38:21.358Z</time></trkpt><trkpt lat="44.6291302" lon="8.6096908"><ele>238.0</ele><time>2026-04-20T09:38:22.364Z</time></trkpt><trkpt lat="44.6289862" lon="8.6098075"><ele>238.0</ele><time>2026-04-20T09:38:23.369Z</time></trkpt><trkpt lat="44.6288697" lon="8.6099133"><ele>238.0</ele><time>2026-04-20T09:38:24.359Z</time></trkpt><trkpt lat="44.628756" lon="8.6100203"><ele>238.0</ele><time>2026-04-20T09:38:25.36Z</time></trkpt><trkpt lat="44.6286348" lon="8.610111"><ele>238.0</ele><time>2026-04-20T09:38:26.366Z</time></trkpt><trkpt lat="44.6285832" lon="8.6102512"><ele>235.2</ele><time>2026-04-20T09:38:27.361Z</time></trkpt><trkpt lat="44.628528" lon="8.610403"><ele>232.4</ele><time>2026-04-20T09:38:28.354Z</time></trkpt><trkpt lat="44.6284603" lon="8.6105082"><ele>229.59999999999997</ele><time>2026-04-20T09:38:29.361Z</time></trkpt><trkpt lat="44.6283768" lon="8.6104869"><ele>226.79999999999998</ele><time>2026-04-20T09:38:30.366Z</time></trkpt><trkpt lat="44.6283062" lon="8.6104301"><ele>224.0</ele><time>2026-04-20T09:38:31.355Z</time></trkpt><trkpt lat="44.6282269" lon="8.6103413"><ele>224.6</ele><time>2026-04-20T09:38:32.36Z</time></trkpt><trkpt lat="44.6281683" lon="8.6102291"><ele>225.2</ele><time>2026-04-20T09:38:33.36Z</time></trkpt><trkpt lat="44.6281319" lon="8.6101012"><ele>225.79999999999998</ele><time>2026-04-20T09:38:34.362Z</time></trkpt><trkpt lat="44.6281256" lon="8.6099578"><ele>226.39999999999998</ele><time>2026-04-20T09:38:35.36Z</time></trkpt><trkpt lat="44.6281095" lon="8.6098407"><ele>227.0</ele><time>2026-04-20T09:38:36.363Z</time></trkpt><trkpt lat="44.6280702" lon="8.6097559"><ele>227.0</ele><time>2026-04-20T09:38:37.35Z</time></trkpt><trkpt lat="44.6280193" lon="8.6096974"><ele>227.0</ele><time>2026-04-20T09:38:38.364Z</time></trkpt><trkpt lat="44.6279535" lon="8.6096962"><ele>227.0</ele><time>2026-04-20T09:38:39.355Z</time></trkpt><trkpt lat="44.6278514" lon="8.6097796"><ele>227.0</ele><time>2026-04-20T09:38:40.361Z</time></trkpt><trkpt lat="44.6277239" lon="8.6099021"><ele>227.0</ele><time>2026-04-20T09:38:41.357Z</time></trkpt><trkpt lat="44.6275793" lon="8.6100116"><ele>225.0</ele><time>2026-04-20T09:38:42.353Z</time></trkpt><trkpt lat="44.6274457" lon="8.6100728"><ele>223.0</ele><time>2026-04-20T09:38:43.361Z</time></trkpt><trkpt lat="44.6272916" lon="8.610115"><ele>221.0</ele><time>2026-04-20T09:38:44.368Z</time></trkpt><trkpt lat="44.6271469" lon="8.6101552"><ele>219.0</ele><time>2026-04-20T09:38:45.359Z</time></trkpt><trkpt lat="44.627022" lon="8.6102122"><ele>218.6</ele><time>2026-04-20T09:38:46.36Z</time></trkpt><trkpt lat="44.6269384" lon="8.6102878"><ele>218.2</ele><time>2026-04-20T09:38:47.36Z</time></trkpt><trkpt lat="44.6268842" lon="8.6103941"><ele>217.79999999999998</ele><time>2026-04-20T09:38:48.363Z</time></trkpt><trkpt lat="44.6268821" lon="8.6104965"><ele>217.39999999999998</ele><time>2026-04-20T09:38:49.353Z</time></trkpt><trkpt lat="44.6269224" lon="8.6106348"><ele>217.0</ele><time>2026-04-20T09:38:50.361Z</time></trkpt><trkpt lat="44.6270195" lon="8.6107635"><ele>217.0</ele><time>2026-04-20T09:38:51.357Z</time></trkpt><trkpt lat="44.627137" lon="8.6109111"><ele>217.0</ele><time>2026-04-20T09:38:52.352Z</time></trkpt><trkpt lat="44.6272257" lon="8.6110931"><ele>217.0</ele><time>2026-04-20T09:38:53.356Z</time></trkpt><trkpt lat="44.6273051" lon="8.6113275"><ele>213.66666666666666</ele><time>2026-04-20T09:38:54.366Z</time></trkpt><trkpt lat="44.6274133" lon="8.6115183"><ele>210.33333333333331</ele><time>2026-04-20T09:38:55.35Z</time></trkpt><trkpt lat="44.6275169" lon="8.6117096"><ele>207.0</ele><time>2026-04-20T09:38:56.351Z</time></trkpt><trkpt lat="44.627621" lon="8.6119215"><ele>203.0</ele><time>2026-04-20T09:38:57.347Z</time></trkpt><trkpt lat="44.6276933" lon="8.6121285"><ele>199.0</ele><time>2026-04-20T09:38:58.353Z</time></trkpt><trkpt lat="44.6277507" lon="8.6123296"><ele>195.0</ele><time>2026-04-20T09:38:59.352Z</time></trkpt><trkpt lat="44.6278013" lon="8.6125447"><ele>196.75</ele><time>2026-04-20T09:39:00.388Z</time></trkpt><trkpt lat="44.627833" lon="8.6127258"><ele>198.5</ele><time>2026-04-20T09:39:01.369Z</time></trkpt><trkpt lat="44.6278882" lon="8.6128992"><ele>200.25</ele><time>2026-04-20T09:39:02.438Z</time></trkpt><trkpt lat="44.6279597" lon="8.6130301"><ele>202.0</ele><time>2026-04-20T09:39:03.455Z</time></trkpt><trkpt lat="44.6280446" lon="8.6131476"><ele>202.0</ele><time>2026-04-20T09:39:04.458Z</time></trkpt><trkpt lat="44.6281188" lon="8.613264"><ele>202.0</ele><time>2026-04-20T09:39:05.447Z</time></trkpt><trkpt lat="44.6281957" lon="8.6133443"><ele>202.0</ele><time>2026-04-20T09:39:06.441Z</time></trkpt><trkpt lat="44.6282678" lon="8.6134123"><ele>202.0</ele><time>2026-04-20T09:39:07.449Z</time></trkpt><trkpt lat="44.6283857" lon="8.6135311"><ele>202.0</ele><time>2026-04-20T09:39:08.444Z</time></trkpt><trkpt lat="44.6284687" lon="8.6136181"><ele>199.5</ele><time>2026-04-20T09:39:09.456Z</time></trkpt><trkpt lat="44.6285381" lon="8.6136797"><ele>197.0</ele><time>2026-04-20T09:39:10.455Z</time></trkpt><trkpt lat="44.6286498" lon="8.6137741"><ele>194.5</ele><time>2026-04-20T09:39:11.461Z</time></trkpt><trkpt lat="44.6287758" lon="8.6138684"><ele>192.0</ele><time>2026-04-20T09:39:12.465Z</time></trkpt><trkpt lat="44.6294477" lon="8.6142359"><ele>190.66666666666666</ele><time>2026-04-20T09:39:13.459Z</time></trkpt><trkpt lat="44.6295766" lon="8.614286"><ele>189.33333333333331</ele><time>2026-04-20T09:39:14.462Z</time></trkpt><trkpt lat="44.6297823" lon="8.6143819"><ele>188.0</ele><time>2026-04-20T09:39:15.468Z</time></trkpt><trkpt lat="44.629982" lon="8.6144739"><ele>187.66666666666666</ele><time>2026-04-20T09:39:16.467Z</time></trkpt><trkpt lat="44.630169" lon="8.6145541"><ele>187.33333333333334</ele><time>2026-04-20T09:39:17.479Z</time></trkpt><trkpt lat="44.6303522" lon="8.6146329"><ele>187.0</ele><time>2026-04-20T09:39:18.474Z</time></trkpt><trkpt lat="44.6305341" lon="8.614719"><ele>188.0</ele><time>2026-04-20T09:39:19.475Z</time></trkpt><trkpt lat="44.6307086" lon="8.6148142"><ele>189.0</ele><time>2026-04-20T09:39:20.478Z</time></trkpt><trkpt lat="44.6308838" lon="8.6149123"><ele>190.0</ele><time>2026-04-20T09:39:21.476Z</time></trkpt><trkpt lat="44.6310556" lon="8.615011"><ele>194.66666666666669</ele><time>2026-04-20T09:39:22.468Z</time></trkpt><trkpt lat="44.6312173" lon="8.6151147"><ele>199.33333333333334</ele><time>2026-04-20T09:39:23.473Z</time></trkpt><trkpt lat="44.63137" lon="8.6152137"><ele>204.0</ele><time>2026-04-20T09:39:24.465Z</time></trkpt><trkpt lat="44.6315262" lon="8.6153157"><ele>200.33333333333331</ele><time>2026-04-20T09:39:25.461Z</time></trkpt><trkpt lat="44.6317059" lon="8.6153835"><ele>196.66666666666666</ele><time>2026-04-20T09:39:26.372Z</time></trkpt><trkpt lat="44.6318761" lon="8.6154559"><ele>193.0</ele><time>2026-04-20T09:39:27.38Z</time></trkpt><trkpt lat="44.6320507" lon="8.6155428"><ele>193.0</ele><time>2026-04-20T09:39:28.381Z</time></trkpt><trkpt lat="44.6322308" lon="8.6156249"><ele>193.0</ele><time>2026-04-20T09:39:29.389Z</time></trkpt><trkpt lat="44.6324079" lon="8.6156982"><ele>193.0</ele><time>2026-04-20T09:39:30.389Z</time></trkpt><trkpt lat="44.632577" lon="8.615773"><ele>193.0</ele><time>2026-04-20T09:39:31.39Z</time></trkpt><trkpt lat="44.632744" lon="8.6158723"><ele>193.0</ele><time>2026-04-20T09:39:32.381Z</time></trkpt><trkpt lat="44.632904" lon="8.6159896"><ele>193.0</ele><time>2026-04-20T09:39:33.386Z</time></trkpt><trkpt lat="44.6330613" lon="8.6160743"><ele>190.33333333333331</ele><time>2026-04-20T09:39:34.47Z</time></trkpt><trkpt lat="44.6332087" lon="8.6161707"><ele>187.66666666666666</ele><time>2026-04-20T09:39:35.465Z</time></trkpt><trkpt lat="44.6333325" lon="8.6162859"><ele>185.0</ele><time>2026-04-20T09:39:36.462Z</time></trkpt><trkpt lat="44.6334633" lon="8.6164386"><ele>185.0</ele><time>2026-04-20T09:39:37.463Z</time></trkpt><trkpt lat="44.6335718" lon="8.6166217"><ele>185.0</ele><time>2026-04-20T09:39:38.452Z</time></trkpt><trkpt lat="44.6336687" lon="8.61684"><ele>185.0</ele><time>2026-04-20T09:39:39.448Z</time></trkpt><trkpt lat="44.6337441" lon="8.6170781"><ele>189.33333333333331</ele><time>2026-04-20T09:39:40.44Z</time></trkpt><trkpt lat="44.6337906" lon="8.6173127"><ele>193.66666666666666</ele><time>2026-04-20T09:39:41.444Z</time></trkpt><trkpt lat="44.6338162" lon="8.6175592"><ele>198.0</ele><time>2026-04-20T09:39:42.452Z</time></trkpt><trkpt lat="44.633823" lon="8.6178122"><ele>196.33333333333331</ele><time>2026-04-20T09:39:43.45Z</time></trkpt><trkpt lat="44.6338262" lon="8.6180795"><ele>194.66666666666666</ele><time>2026-04-20T09:39:44.449Z</time></trkpt><trkpt lat="44.6338745" lon="8.6183611"><ele>193.0</ele><time>2026-04-20T09:39:45.45Z</time></trkpt><trkpt lat="44.6339079" lon="8.6186171"><ele>193.0</ele><time>2026-04-20T09:39:46.438Z</time></trkpt><trkpt lat="44.6339491" lon="8.6188711"><ele>193.0</ele><time>2026-04-20T09:39:47.446Z</time></trkpt><trkpt lat="44.6340026" lon="8.6191285"><ele>193.0</ele><time>2026-04-20T09:39:48.455Z</time></trkpt><trkpt lat="44.6340692" lon="8.6193906"><ele>192.0</ele><time>2026-04-20T09:39:49.464Z</time></trkpt><trkpt lat="44.6341479" lon="8.619652"><ele>191.0</ele><time>2026-04-20T09:39:50.453Z</time></trkpt><trkpt lat="44.6342342" lon="8.6199145"><ele>190.0</ele><time>2026-04-20T09:39:51.451Z</time></trkpt><trkpt lat="44.6343148" lon="8.6201752"><ele>188.33333333333334</ele><time>2026-04-20T09:39:52.452Z</time></trkpt><trkpt lat="44.6343801" lon="8.6204276"><ele>186.66666666666666</ele><time>2026-04-20T09:39:53.449Z</time></trkpt><trkpt lat="44.6344206" lon="8.6206745"><ele>185.0</ele><time>2026-04-20T09:39:54.458Z</time></trkpt><trkpt lat="44.6344311" lon="8.6209204"><ele>185.0</ele><time>2026-04-20T09:39:55.446Z</time></trkpt><trkpt lat="44.6344176" lon="8.6211512"><ele>185.0</ele><time>2026-04-20T09:39:56.439Z</time></trkpt><trkpt lat="44.6344028" lon="8.6213403"><ele>185.0</ele><time>2026-04-20T09:39:57.436Z</time></trkpt><trkpt lat="44.6343834" lon="8.6214593"><ele>185.0</ele><time>2026-04-20T09:39:58.432Z</time></trkpt><trkpt lat="44.6343601" lon="8.6215515"><ele>185.0</ele><time>2026-04-20T09:40:00.441Z</time></trkpt><trkpt lat="44.6343729" lon="8.6216544"><ele>185.0</ele><time>2026-04-20T09:40:05.468Z</time></trkpt><trkpt lat="44.6343829" lon="8.6217426"><ele>185.0</ele><time>2026-04-20T09:40:12.445Z</time></trkpt><trkpt lat="44.6344426" lon="8.6218273"><ele>185.0</ele><time>2026-04-20T09:42:47.369Z</time></trkpt><trkpt lat="44.6344697" lon="8.6219176"><ele>185.0</ele><time>2026-04-20T09:42:48.372Z</time></trkpt><trkpt lat="44.6345158" lon="8.6220632"><ele>185.0</ele><time>2026-04-20T09:42:49.36Z</time></trkpt><trkpt lat="44.6345608" lon="8.622216"><ele>188.25</ele><time>2026-04-20T09:42:50.372Z</time></trkpt><trkpt lat="44.6346032" lon="8.6223961"><ele>191.5</ele><time>2026-04-20T09:42:51.361Z</time></trkpt><trkpt lat="44.6346434" lon="8.6225807"><ele>194.75</ele><time>2026-04-20T09:42:52.368Z</time></trkpt><trkpt lat="44.6346761" lon="8.6227656"><ele>198.0</ele><time>2026-04-20T09:42:53.362Z</time></trkpt><trkpt lat="44.6347086" lon="8.6229697"><ele>198.0</ele><time>2026-04-20T09:42:54.368Z</time></trkpt><trkpt lat="44.6347268" lon="8.6231812"><ele>198.0</ele><time>2026-04-20T09:42:55.373Z</time></trkpt><trkpt lat="44.6347751" lon="8.623396"><ele>198.0</ele><time>2026-04-20T09:42:56.379Z</time></trkpt><trkpt lat="44.634808" lon="8.6236112"><ele>195.33333333333334</ele><time>2026-04-20T09:42:57.374Z</time></trkpt><trkpt lat="44.6348441" lon="8.623835"><ele>192.66666666666669</ele><time>2026-04-20T09:42:58.373Z</time></trkpt><trkpt lat="44.6348769" lon="8.6240623"><ele>190.0</ele><time>2026-04-20T09:42:59.389Z</time></trkpt><trkpt lat="44.6349257" lon="8.624295"><ele>189.0</ele><time>2026-04-20T09:43:00.374Z</time></trkpt><trkpt lat="44.6349891" lon="8.6245126"><ele>188.0</ele><time>2026-04-20T09:43:01.381Z</time></trkpt><trkpt lat="44.6350596" lon="8.6247265"><ele>187.0</ele><time>2026-04-20T09:43:02.379Z</time></trkpt><trkpt lat="44.6351281" lon="8.6249447"><ele>187.0</ele><time>2026-04-20T09:43:03.375Z</time></trkpt><trkpt lat="44.6352181" lon="8.6251529"><ele>187.0</ele><time>2026-04-20T09:43:04.372Z</time></trkpt><trkpt lat="44.6352993" lon="8.6253362"><ele>187.0</ele><time>2026-04-20T09:43:05.371Z</time></trkpt><trkpt lat="44.6353586" lon="8.6255135"><ele>188.0</ele><time>2026-04-20T09:43:06.392Z</time></trkpt><trkpt lat="44.6354153" lon="8.625695"><ele>189.0</ele><time>2026-04-20T09:43:07.393Z</time></trkpt><trkpt lat="44.6354785" lon="8.6258868"><ele>190.0</ele><time>2026-04-20T09:43:08.384Z</time></trkpt><trkpt lat="44.6355293" lon="8.6260805"><ele>191.0</ele><time>2026-04-20T09:43:09.394Z</time></trkpt><trkpt lat="44.6355737" lon="8.6262804"><ele>191.0</ele><time>2026-04-20T09:43:10.388Z</time></trkpt><trkpt lat="44.6356178" lon="8.626473"><ele>191.0</ele><time>2026-04-20T09:43:11.386Z</time></trkpt><trkpt lat="44.6356609" lon="8.626658"><ele>191.0</ele><time>2026-04-20T09:43:12.381Z</time></trkpt><trkpt lat="44.6357092" lon="8.6268238"><ele>191.0</ele><time>2026-04-20T09:43:13.391Z</time></trkpt><trkpt lat="44.6357593" lon="8.6269881"><ele>190.75</ele><time>2026-04-20T09:43:14.421Z</time></trkpt><trkpt lat="44.6357989" lon="8.627165"><ele>190.5</ele><time>2026-04-20T09:43:15.485Z</time></trkpt><trkpt lat="44.6358397" lon="8.6273349"><ele>190.25</ele><time>2026-04-20T09:43:16.492Z</time></trkpt><trkpt lat="44.6358906" lon="8.6275125"><ele>190.0</ele><time>2026-04-20T09:43:17.478Z</time></trkpt><trkpt lat="44.6359322" lon="8.6276827"><ele>189.75</ele><time>2026-04-20T09:43:18.476Z</time></trkpt><trkpt lat="44.6359747" lon="8.6278536"><ele>189.5</ele><time>2026-04-20T09:43:19.479Z</time></trkpt><trkpt lat="44.6360153" lon="8.6280123"><ele>189.25</ele><time>2026-04-20T09:43:20.478Z</time></trkpt><trkpt lat="44.6360521" lon="8.6281624"><ele>189.0</ele><time>2026-04-20T09:43:21.487Z</time></trkpt><trkpt lat="44.6360914" lon="8.6283117"><ele>189.0</ele><time>2026-04-20T09:43:22.48Z</time></trkpt><trkpt lat="44.6361312" lon="8.6284618"><ele>189.0</ele><time>2026-04-20T09:43:23.476Z</time></trkpt><trkpt lat="44.6361722" lon="8.6286141"><ele>189.0</ele><time>2026-04-20T09:43:24.485Z</time></trkpt><trkpt lat="44.6362134" lon="8.6287642"><ele>189.0</ele><time>2026-04-20T09:43:25.486Z</time></trkpt><trkpt lat="44.6362413" lon="8.6289064"><ele>189.0</ele><time>2026-04-20T09:43:26.482Z</time></trkpt><trkpt lat="44.6362844" lon="8.6290643"><ele>188.5</ele><time>2026-04-20T09:43:27.483Z</time></trkpt><trkpt lat="44.6363294" lon="8.6292215"><ele>188.0</ele><time>2026-04-20T09:43:28.484Z</time></trkpt><trkpt lat="44.6363741" lon="8.6293689"><ele>187.5</ele><time>2026-04-20T09:43:29.485Z</time></trkpt><trkpt lat="44.6364149" lon="8.6295104"><ele>187.0</ele><time>2026-04-20T09:43:30.483Z</time></trkpt><trkpt lat="44.63645" lon="8.6296523"><ele>186.33333333333334</ele><time>2026-04-20T09:43:31.492Z</time></trkpt><trkpt lat="44.6365115" lon="8.6299566"><ele>185.66666666666666</ele><time>2026-04-20T09:43:33.393Z</time></trkpt><trkpt lat="44.6365531" lon="8.6301216"><ele>185.0</ele><time>2026-04-20T09:43:34.479Z</time></trkpt><trkpt lat="44.6366016" lon="8.6302839"><ele>184.0</ele><time>2026-04-20T09:43:35.479Z</time></trkpt><trkpt lat="44.636646" lon="8.6304316"><ele>183.0</ele><time>2026-04-20T09:43:36.486Z</time></trkpt><trkpt lat="44.6366796" lon="8.6305525"><ele>182.0</ele><time>2026-04-20T09:43:37.483Z</time></trkpt><trkpt lat="44.6367067" lon="8.630655"><ele>181.0</ele><time>2026-04-20T09:43:38.476Z</time></trkpt><trkpt lat="44.6367309" lon="8.6308913"><ele>181.0</ele><time>2026-04-20T09:43:39.488Z</time></trkpt><trkpt lat="44.6367595" lon="8.6309978"><ele>181.0</ele><time>2026-04-20T09:43:40.487Z</time></trkpt><trkpt lat="44.6368384" lon="8.6311603"><ele>181.0</ele><time>2026-04-20T09:43:41.488Z</time></trkpt><trkpt lat="44.6368836" lon="8.6313287"><ele>181.0</ele><time>2026-04-20T09:43:42.49Z</time></trkpt><trkpt lat="44.6369166" lon="8.6314963"><ele>179.75</ele><time>2026-04-20T09:43:43.489Z</time></trkpt><trkpt lat="44.6369428" lon="8.6316714"><ele>178.5</ele><time>2026-04-20T09:43:44.471Z</time></trkpt><trkpt lat="44.6369443" lon="8.6318716"><ele>177.25</ele><time>2026-04-20T09:43:45.472Z</time></trkpt><trkpt lat="44.6369465" lon="8.6320421"><ele>176.0</ele><time>2026-04-20T09:43:46.471Z</time></trkpt><trkpt lat="44.6369438" lon="8.6322097"><ele>175.75</ele><time>2026-04-20T09:43:47.472Z</time></trkpt><trkpt lat="44.6369482" lon="8.6323805"><ele>175.5</ele><time>2026-04-20T09:43:48.496Z</time></trkpt><trkpt lat="44.636945" lon="8.6325507"><ele>175.25</ele><time>2026-04-20T09:43:49.493Z</time></trkpt><trkpt lat="44.6369443" lon="8.6327191"><ele>175.0</ele><time>2026-04-20T09:43:50.501Z</time></trkpt><trkpt lat="44.6369424" lon="8.6328924"><ele>175.0</ele><time>2026-04-20T09:43:51.494Z</time></trkpt><trkpt lat="44.6369342" lon="8.63306"><ele>175.0</ele><time>2026-04-20T09:43:52.483Z</time></trkpt><trkpt lat="44.6369271" lon="8.6332202"><ele>175.0</ele><time>2026-04-20T09:43:53.494Z</time></trkpt><trkpt lat="44.6369203" lon="8.6333849"><ele>175.0</ele><time>2026-04-20T09:43:54.48Z</time></trkpt><trkpt lat="44.6369148" lon="8.6335618"><ele>175.25</ele><time>2026-04-20T09:43:55.483Z</time></trkpt><trkpt lat="44.6369118" lon="8.6337447"><ele>175.5</ele><time>2026-04-20T09:43:56.49Z</time></trkpt><trkpt lat="44.6369087" lon="8.6339339"><ele>175.75</ele><time>2026-04-20T09:43:57.483Z</time></trkpt><trkpt lat="44.6369053" lon="8.6341237"><ele>176.0</ele><time>2026-04-20T09:43:58.492Z</time></trkpt><trkpt lat="44.6369054" lon="8.6343133"><ele>175.5</ele><time>2026-04-20T09:43:59.486Z</time></trkpt><trkpt lat="44.6369147" lon="8.6345065"><ele>175.0</ele><time>2026-04-20T09:44:00.489Z</time></trkpt><trkpt lat="44.6369508" lon="8.6346981"><ele>174.5</ele><time>2026-04-20T09:44:01.479Z</time></trkpt><trkpt lat="44.6370026" lon="8.6348823"><ele>174.0</ele><time>2026-04-20T09:44:02.469Z</time></trkpt><trkpt lat="44.6370758" lon="8.635048"><ele>173.75</ele><time>2026-04-20T09:44:03.456Z</time></trkpt><trkpt lat="44.6371586" lon="8.6351985"><ele>173.5</ele><time>2026-04-20T09:44:04.447Z</time></trkpt><trkpt lat="44.6372503" lon="8.6353505"><ele>173.25</ele><time>2026-04-20T09:44:05.461Z</time></trkpt><trkpt lat="44.637344" lon="8.6354999"><ele>173.0</ele><time>2026-04-20T09:44:06.452Z</time></trkpt><trkpt lat="44.6374387" lon="8.6356604"><ele>172.33333333333331</ele><time>2026-04-20T09:44:07.469Z</time></trkpt><trkpt lat="44.6375364" lon="8.6358249"><ele>171.66666666666666</ele><time>2026-04-20T09:44:08.478Z</time></trkpt><trkpt lat="44.6376328" lon="8.6359844"><ele>171.0</ele><time>2026-04-20T09:44:09.469Z</time></trkpt><trkpt lat="44.6377295" lon="8.6361427"><ele>172.75</ele><time>2026-04-20T09:44:10.476Z</time></trkpt><trkpt lat="44.6378239" lon="8.6362997"><ele>174.5</ele><time>2026-04-20T09:44:11.47Z</time></trkpt><trkpt lat="44.6379122" lon="8.6364568"><ele>176.25</ele><time>2026-04-20T09:44:12.483Z</time></trkpt><trkpt lat="44.6379938" lon="8.6366047"><ele>178.0</ele><time>2026-04-20T09:44:13.482Z</time></trkpt><trkpt lat="44.6380724" lon="8.6367393"><ele>178.0</ele><time>2026-04-20T09:44:14.477Z</time></trkpt><trkpt lat="44.6381488" lon="8.6368604"><ele>178.0</ele><time>2026-04-20T09:44:15.479Z</time></trkpt><trkpt lat="44.6382148" lon="8.6369678"><ele>178.0</ele><time>2026-04-20T09:44:16.472Z</time></trkpt><trkpt lat="44.6382708" lon="8.6370627"><ele>178.0</ele><time>2026-04-20T09:44:17.465Z</time></trkpt><trkpt lat="44.6383133" lon="8.6371534"><ele>178.0</ele><time>2026-04-20T09:44:18.465Z</time></trkpt><trkpt lat="44.6383431" lon="8.6372509"><ele>177.4</ele><time>2026-04-20T09:44:19.463Z</time></trkpt><trkpt lat="44.6383681" lon="8.6373323"><ele>176.8</ele><time>2026-04-20T09:44:20.448Z</time></trkpt><trkpt lat="44.6384669" lon="8.6374257"><ele>176.2</ele><time>2026-04-20T09:44:22.448Z</time></trkpt><trkpt lat="44.6385112" lon="8.6374914"><ele>175.6</ele><time>2026-04-20T09:44:23.349Z</time></trkpt><trkpt lat="44.6385944" lon="8.6375783"><ele>175.0</ele><time>2026-04-20T09:44:24.364Z</time></trkpt><trkpt lat="44.6386688" lon="8.6376991"><ele>175.25</ele><time>2026-04-20T09:44:25.368Z</time></trkpt><trkpt lat="44.6387409" lon="8.6378213"><ele>175.5</ele><time>2026-04-20T09:44:26.375Z</time></trkpt><trkpt lat="44.6388047" lon="8.6379683"><ele>175.75</ele><time>2026-04-20T09:44:27.365Z</time></trkpt><trkpt lat="44.6388532" lon="8.6381291"><ele>176.0</ele><time>2026-04-20T09:44:28.375Z</time></trkpt><trkpt lat="44.6389089" lon="8.6382897"><ele>176.0</ele><time>2026-04-20T09:44:29.38Z</time></trkpt><trkpt lat="44.6389675" lon="8.6384355"><ele>176.0</ele><time>2026-04-20T09:44:30.373Z</time></trkpt><trkpt lat="44.6390243" lon="8.638582"><ele>176.0</ele><time>2026-04-20T09:44:31.378Z</time></trkpt><trkpt lat="44.639057" lon="8.6387239"><ele>176.0</ele><time>2026-04-20T09:44:32.381Z</time></trkpt><trkpt lat="44.639093" lon="8.6388623"><ele>176.0</ele><time>2026-04-20T09:44:33.376Z</time></trkpt><trkpt lat="44.6391169" lon="8.6389951"><ele>178.0</ele><time>2026-04-20T09:44:34.372Z</time></trkpt><trkpt lat="44.639149" lon="8.6391306"><ele>180.0</ele><time>2026-04-20T09:44:35.364Z</time></trkpt><trkpt lat="44.6391858" lon="8.6392423"><ele>182.0</ele><time>2026-04-20T09:44:36.355Z</time></trkpt><trkpt lat="44.6392567" lon="8.6393678"><ele>184.0</ele><time>2026-04-20T09:44:37.363Z</time></trkpt><trkpt lat="44.6393568" lon="8.6394804"><ele>186.0</ele><time>2026-04-20T09:44:38.362Z</time></trkpt><trkpt lat="44.6394614" lon="8.639609"><ele>186.0</ele><time>2026-04-20T09:44:39.362Z</time></trkpt><trkpt lat="44.6395542" lon="8.6397481"><ele>186.0</ele><time>2026-04-20T09:44:40.366Z</time></trkpt><trkpt lat="44.6396357" lon="8.6398948"><ele>186.0</ele><time>2026-04-20T09:44:41.354Z</time></trkpt><trkpt lat="44.6397172" lon="8.6400305"><ele>186.0</ele><time>2026-04-20T09:44:42.351Z</time></trkpt><trkpt lat="44.6397876" lon="8.6401455"><ele>186.0</ele><time>2026-04-20T09:44:43.349Z</time></trkpt><trkpt lat="44.6398403" lon="8.6402511"><ele>186.0</ele><time>2026-04-20T09:44:44.345Z</time></trkpt><trkpt lat="44.6398502" lon="8.64036"><ele>186.0</ele><time>2026-04-20T09:44:45.344Z</time></trkpt><trkpt lat="44.6398516" lon="8.6404527"><ele>186.0</ele><time>2026-04-20T09:44:46.347Z</time></trkpt><trkpt lat="44.639821" lon="8.6405611"><ele>186.0</ele><time>2026-04-20T09:44:47.35Z</time></trkpt><trkpt lat="44.6397863" lon="8.6407047"><ele>186.0</ele><time>2026-04-20T09:44:48.354Z</time></trkpt><trkpt lat="44.6397459" lon="8.6408501"><ele>187.20000000000002</ele><time>2026-04-20T09:44:49.347Z</time></trkpt><trkpt lat="44.6397067" lon="8.6409898"><ele>188.4</ele><time>2026-04-20T09:44:50.351Z</time></trkpt><trkpt lat="44.6396606" lon="8.6411127"><ele>189.6</ele><time>2026-04-20T09:44:51.347Z</time></trkpt><trkpt lat="44.6395998" lon="8.6412302"><ele>190.8</ele><time>2026-04-20T09:44:52.35Z</time></trkpt><trkpt lat="44.6395362" lon="8.6413606"><ele>192.0</ele><time>2026-04-20T09:44:53.356Z</time></trkpt><trkpt lat="44.6394685" lon="8.6414995"><ele>192.0</ele><time>2026-04-20T09:44:54.347Z</time></trkpt><trkpt lat="44.6393978" lon="8.6416328"><ele>192.0</ele><time>2026-04-20T09:44:55.356Z</time></trkpt><trkpt lat="44.6393345" lon="8.6417708"><ele>192.0</ele><time>2026-04-20T09:44:56.36Z</time></trkpt><trkpt lat="44.6392783" lon="8.6418924"><ele>192.0</ele><time>2026-04-20T09:44:57.361Z</time></trkpt><trkpt lat="44.6392334" lon="8.6420219"><ele>192.0</ele><time>2026-04-20T09:44:58.355Z</time></trkpt><trkpt lat="44.6392012" lon="8.6421213"><ele>192.0</ele><time>2026-04-20T09:44:59.364Z</time></trkpt><trkpt lat="44.6391339" lon="8.6422431"><ele>192.0</ele><time>2026-04-20T09:45:01.355Z</time></trkpt><trkpt lat="44.6390872" lon="8.642351"><ele>192.0</ele><time>2026-04-20T09:45:03.356Z</time></trkpt><trkpt lat="44.639025" lon="8.6424531"><ele>192.0</ele><time>2026-04-20T09:45:05.35Z</time></trkpt><trkpt lat="44.6389785" lon="8.6425865"><ele>192.0</ele><time>2026-04-20T09:45:07.363Z</time></trkpt><trkpt lat="44.6389385" lon="8.6426906"><ele>191.66666666666666</ele><time>2026-04-20T09:45:09.366Z</time></trkpt><trkpt lat="44.6389213" lon="8.6428441"><ele>191.33333333333334</ele><time>2026-04-20T09:45:11.368Z</time></trkpt><trkpt lat="44.6389402" lon="8.642944"><ele>191.0</ele><time>2026-04-20T09:45:12.37Z</time></trkpt><trkpt lat="44.6389779" lon="8.6430509"><ele>190.66666666666669</ele><time>2026-04-20T09:45:13.367Z</time></trkpt><trkpt lat="44.639017" lon="8.6431466"><ele>190.33333333333334</ele><time>2026-04-20T09:45:14.369Z</time></trkpt><trkpt lat="44.6390503" lon="8.6432236"><ele>190.0</ele><time>2026-04-20T09:45:15.365Z</time></trkpt><trkpt lat="44.6390826" lon="8.6433382"><ele>190.0</ele><time>2026-04-20T09:45:17.362Z</time></trkpt><trkpt lat="44.639108" lon="8.6434538"><ele>190.0</ele><time>2026-04-20T09:45:20.358Z</time></trkpt><trkpt lat="44.6391497" lon="8.6435214"><ele>190.0</ele><time>2026-04-20T09:45:21.352Z</time></trkpt><trkpt lat="44.6392079" lon="8.6435826"><ele>190.0</ele><time>2026-04-20T09:45:22.348Z</time></trkpt><trkpt lat="44.6392827" lon="8.643678"><ele>190.0</ele><time>2026-04-20T09:45:23.356Z</time></trkpt><trkpt lat="44.6393447" lon="8.6437864"><ele>190.0</ele><time>2026-04-20T09:45:24.36Z</time></trkpt><trkpt lat="44.6394103" lon="8.6439126"><ele>189.6</ele><time>2026-04-20T09:45:25.36Z</time></trkpt><trkpt lat="44.6394838" lon="8.6440158"><ele>189.2</ele><time>2026-04-20T09:45:26.366Z</time></trkpt><trkpt lat="44.6395663" lon="8.6441217"><ele>188.8</ele><time>2026-04-20T09:45:27.36Z</time></trkpt><trkpt lat="44.639642" lon="8.6442358"><ele>188.4</ele><time>2026-04-20T09:45:28.363Z</time></trkpt><trkpt lat="44.6397085" lon="8.6443554"><ele>188.0</ele><time>2026-04-20T09:45:29.362Z</time></trkpt><trkpt lat="44.6397783" lon="8.6444854"><ele>188.0</ele><time>2026-04-20T09:45:30.365Z</time></trkpt><trkpt lat="44.639857" lon="8.6446035"><ele>188.0</ele><time>2026-04-20T09:45:31.357Z</time></trkpt><trkpt lat="44.6399355" lon="8.6447231"><ele>188.0</ele><time>2026-04-20T09:45:32.355Z</time></trkpt><trkpt lat="44.6400154" lon="8.6448428"><ele>188.0</ele><time>2026-04-20T09:45:33.359Z</time></trkpt><trkpt lat="44.6400961" lon="8.6449567"><ele>188.0</ele><time>2026-04-20T09:45:34.357Z</time></trkpt><trkpt lat="44.6401954" lon="8.6450482"><ele>188.0</ele><time>2026-04-20T09:45:35.359Z</time></trkpt><trkpt lat="44.6402879" lon="8.6451565"><ele>188.0</ele><time>2026-04-20T09:45:36.358Z</time></trkpt><trkpt lat="44.6403777" lon="8.6452603"><ele>188.0</ele><time>2026-04-20T09:45:37.364Z</time></trkpt><trkpt lat="44.640477" lon="8.6453552"><ele>185.75</ele><time>2026-04-20T09:45:38.371Z</time></trkpt><trkpt lat="44.6405822" lon="8.6454507"><ele>183.5</ele><time>2026-04-20T09:45:39.362Z</time></trkpt><trkpt lat="44.6406905" lon="8.6455557"><ele>181.25</ele><time>2026-04-20T09:45:40.371Z</time></trkpt><trkpt lat="44.6407902" lon="8.645672"><ele>179.0</ele><time>2026-04-20T09:45:41.366Z</time></trkpt><trkpt lat="44.6408841" lon="8.6457796"><ele>179.0</ele><time>2026-04-20T09:45:42.366Z</time></trkpt><trkpt lat="44.6409821" lon="8.6458859"><ele>179.0</ele><time>2026-04-20T09:45:43.373Z</time></trkpt><trkpt lat="44.6410769" lon="8.6459903"><ele>179.0</ele><time>2026-04-20T09:45:44.376Z</time></trkpt><trkpt lat="44.6411664" lon="8.6460796"><ele>179.0</ele><time>2026-04-20T09:45:45.36Z</time></trkpt><trkpt lat="44.6412604" lon="8.6461778"><ele>178.75</ele><time>2026-04-20T09:45:46.363Z</time></trkpt><trkpt lat="44.6413518" lon="8.6462829"><ele>178.5</ele><time>2026-04-20T09:45:47.371Z</time></trkpt><trkpt lat="44.6414496" lon="8.6463838"><ele>178.25</ele><time>2026-04-20T09:45:48.354Z</time></trkpt><trkpt lat="44.6415508" lon="8.6464859"><ele>178.0</ele><time>2026-04-20T09:45:49.358Z</time></trkpt><trkpt lat="44.6416444" lon="8.6465857"><ele>178.0</ele><time>2026-04-20T09:45:50.354Z</time></trkpt><trkpt lat="44.6417336" lon="8.6466868"><ele>178.0</ele><time>2026-04-20T09:45:51.352Z</time></trkpt><trkpt lat="44.6418317" lon="8.6467879"><ele>178.0</ele><time>2026-04-20T09:45:52.347Z</time></trkpt><trkpt lat="44.6419185" lon="8.6468949"><ele>178.0</ele><time>2026-04-20T09:45:53.358Z</time></trkpt><trkpt lat="44.6420144" lon="8.6470029"><ele>177.2</ele><time>2026-04-20T09:45:54.352Z</time></trkpt><trkpt lat="44.6421027" lon="8.6470955"><ele>176.4</ele><time>2026-04-20T09:45:55.35Z</time></trkpt><trkpt lat="44.6421829" lon="8.647184"><ele>175.6</ele><time>2026-04-20T09:45:56.356Z</time></trkpt><trkpt lat="44.6422635" lon="8.6472657"><ele>174.79999999999998</ele><time>2026-04-20T09:45:57.358Z</time></trkpt><trkpt lat="44.6423343" lon="8.6473345"><ele>174.0</ele><time>2026-04-20T09:45:58.353Z</time></trkpt><trkpt lat="44.6424046" lon="8.6474053"><ele>174.0</ele><time>2026-04-20T09:45:59.362Z</time></trkpt><trkpt lat="44.6424623" lon="8.6474721"><ele>174.0</ele><time>2026-04-20T09:46:00.359Z</time></trkpt><trkpt lat="44.6425207" lon="8.6475244"><ele>174.0</ele><time>2026-04-20T09:46:01.368Z</time></trkpt><trkpt lat="44.6425833" lon="8.6476327"><ele>174.0</ele><time>2026-04-20T09:46:03.364Z</time></trkpt><trkpt lat="44.6425857" lon="8.6477963"><ele>174.0</ele><time>2026-04-20T09:46:05.371Z</time></trkpt><trkpt lat="44.6425782" lon="8.6479326"><ele>174.0</ele><time>2026-04-20T09:46:07.369Z</time></trkpt><trkpt lat="44.6425824" lon="8.6480313"><ele>174.0</ele><time>2026-04-20T09:46:09.369Z</time></trkpt><trkpt lat="44.6425627" lon="8.6481554"><ele>174.0</ele><time>2026-04-20T09:46:12.376Z</time></trkpt><trkpt lat="44.64253" lon="8.6482657"><ele>174.0</ele><time>2026-04-20T09:46:15.382Z</time></trkpt><trkpt lat="44.6424919" lon="8.6483708"><ele>174.0</ele><time>2026-04-20T09:46:17.388Z</time></trkpt><trkpt lat="44.6424532" lon="8.6484566"><ele>174.0</ele><time>2026-04-20T09:46:20.397Z</time></trkpt><trkpt lat="44.6424272" lon="8.6485392"><ele>174.0</ele><time>2026-04-20T09:46:23.395Z</time></trkpt><trkpt lat="44.6424908" lon="8.6486065"><ele>174.0</ele><time>2026-04-20T09:46:26.383Z</time></trkpt><trkpt lat="44.6425624" lon="8.6486554"><ele>174.0</ele><time>2026-04-20T09:46:29.393Z</time></trkpt><trkpt lat="44.6426036" lon="8.6487648"><ele>174.0</ele><time>2026-04-20T09:46:31.396Z</time></trkpt><trkpt lat="44.6426105" lon="8.6488632"><ele>174.0</ele><time>2026-04-20T09:46:32.385Z</time></trkpt><trkpt lat="44.6426082" lon="8.6489692"><ele>174.0</ele><time>2026-04-20T09:46:33.385Z</time></trkpt><trkpt lat="44.6426069" lon="8.6490719"><ele>173.0</ele><time>2026-04-20T09:46:34.389Z</time></trkpt><trkpt lat="44.6426057" lon="8.6491783"><ele>172.0</ele><time>2026-04-20T09:46:35.386Z</time></trkpt><trkpt lat="44.6426148" lon="8.6492846"><ele>171.0</ele><time>2026-04-20T09:46:36.394Z</time></trkpt><trkpt lat="44.6426206" lon="8.6493908"><ele>170.0</ele><time>2026-04-20T09:46:37.394Z</time></trkpt><trkpt lat="44.6426319" lon="8.6494949"><ele>169.0</ele><time>2026-04-20T09:46:38.394Z</time></trkpt><trkpt lat="44.6426279" lon="8.6495876"><ele>168.0</ele><time>2026-04-20T09:46:39.391Z</time></trkpt><trkpt lat="44.6426376" lon="8.6496977"><ele>167.0</ele><time>2026-04-20T09:46:40.392Z</time></trkpt><trkpt lat="44.6426427" lon="8.6498107"><ele>167.0</ele><time>2026-04-20T09:46:41.396Z</time></trkpt><trkpt lat="44.6426493" lon="8.6499316"><ele>167.0</ele><time>2026-04-20T09:46:42.396Z</time></trkpt><trkpt lat="44.6426524" lon="8.6500666"><ele>167.0</ele><time>2026-04-20T09:46:43.402Z</time></trkpt><trkpt lat="44.6426653" lon="8.6501915"><ele>167.0</ele><time>2026-04-20T09:46:44.394Z</time></trkpt><trkpt lat="44.6426726" lon="8.6502995"><ele>167.0</ele><time>2026-04-20T09:46:45.392Z</time></trkpt><trkpt lat="44.6426827" lon="8.6504772"><ele>167.5</ele><time>2026-04-20T09:46:47.381Z</time></trkpt><trkpt lat="44.6426827" lon="8.650578"><ele>168.0</ele><time>2026-04-20T09:46:48.384Z</time></trkpt><trkpt lat="44.6426931" lon="8.6506824"><ele>168.5</ele><time>2026-04-20T09:46:49.383Z</time></trkpt><trkpt lat="44.6427044" lon="8.6508023"><ele>169.0</ele><time>2026-04-20T09:46:50.385Z</time></trkpt><trkpt lat="44.6427203" lon="8.6509151"><ele>169.5</ele><time>2026-04-20T09:46:51.386Z</time></trkpt><trkpt lat="44.6427299" lon="8.6510074"><ele>170.0</ele><time>2026-04-20T09:46:52.394Z</time></trkpt><trkpt lat="44.6427442" lon="8.651102"><ele>170.6</ele><time>2026-04-20T09:46:53.384Z</time></trkpt><trkpt lat="44.6427946" lon="8.6512796"><ele>171.2</ele><time>2026-04-20T09:46:55.375Z</time></trkpt><trkpt lat="44.6428381" lon="8.6513762"><ele>171.8</ele><time>2026-04-20T09:46:56.381Z</time></trkpt><trkpt lat="44.6428899" lon="8.6514583"><ele>172.4</ele><time>2026-04-20T09:46:57.379Z</time></trkpt><trkpt lat="44.6429333" lon="8.6515357"><ele>173.0</ele><time>2026-04-20T09:46:58.391Z</time></trkpt><trkpt lat="44.6430114" lon="8.6516496"><ele>173.0</ele><time>2026-04-20T09:47:00.389Z</time></trkpt><trkpt lat="44.6430799" lon="8.6517282"><ele>173.0</ele><time>2026-04-20T09:47:02.371Z</time></trkpt><trkpt lat="44.6431421" lon="8.6518005"><ele>173.0</ele><time>2026-04-20T09:47:04.364Z</time></trkpt><trkpt lat="44.6432223" lon="8.6518845"><ele>173.0</ele><time>2026-04-20T09:47:06.376Z</time></trkpt><trkpt lat="44.6432708" lon="8.651951"><ele>173.0</ele><time>2026-04-20T09:47:07.378Z</time></trkpt><trkpt lat="44.6433257" lon="8.6519977"><ele>173.0</ele><time>2026-04-20T09:47:08.371Z</time></trkpt><trkpt lat="44.6434333" lon="8.652065"><ele>173.28571428571428</ele><time>2026-04-20T09:47:10.382Z</time></trkpt><trkpt lat="44.6434983" lon="8.6520977"><ele>173.57142857142858</ele><time>2026-04-20T09:47:11.385Z</time></trkpt><trkpt lat="44.6435628" lon="8.6521151"><ele>173.85714285714286</ele><time>2026-04-20T09:47:12.374Z</time></trkpt><trkpt lat="44.6436298" lon="8.6521407"><ele>174.14285714285714</ele><time>2026-04-20T09:47:13.382Z</time></trkpt><trkpt lat="44.643698" lon="8.65217"><ele>174.42857142857144</ele><time>2026-04-20T09:47:14.383Z</time></trkpt><trkpt lat="44.6437728" lon="8.6521857"><ele>174.71428571428572</ele><time>2026-04-20T09:47:15.388Z</time></trkpt><trkpt lat="44.643849" lon="8.6522079"><ele>175.0</ele><time>2026-04-20T09:47:16.39Z</time></trkpt><trkpt lat="44.6439191" lon="8.6522214"><ele>175.0</ele><time>2026-04-20T09:47:17.386Z</time></trkpt><trkpt lat="44.6439827" lon="8.6522284"><ele>175.0</ele><time>2026-04-20T09:47:18.38Z</time></trkpt><trkpt lat="44.6440743" lon="8.6522362"><ele>175.0</ele><time>2026-04-20T09:47:20.39Z</time></trkpt><trkpt lat="44.6441501" lon="8.6522194"><ele>175.0</ele><time>2026-04-20T09:47:25.386Z</time></trkpt><trkpt lat="44.6442294" lon="8.6522223"><ele>175.0</ele><time>2026-04-20T09:47:28.376Z</time></trkpt><trkpt lat="44.6443506" lon="8.6522363"><ele>175.0</ele><time>2026-04-20T09:47:30.372Z</time></trkpt><trkpt lat="44.6444419" lon="8.6522834"><ele>175.0</ele><time>2026-04-20T09:47:31.369Z</time></trkpt><trkpt lat="44.6445258" lon="8.6523477"><ele>175.0</ele><time>2026-04-20T09:47:32.369Z</time></trkpt><trkpt lat="44.6446161" lon="8.6524441"><ele>175.0</ele><time>2026-04-20T09:47:33.376Z</time></trkpt><trkpt lat="44.644691" lon="8.6525894"><ele>175.0</ele><time>2026-04-20T09:47:34.376Z</time></trkpt><trkpt lat="44.6447609" lon="8.6527646"><ele>176.33333333333334</ele><time>2026-04-20T09:47:35.379Z</time></trkpt><trkpt lat="44.6448458" lon="8.6529707"><ele>177.66666666666666</ele><time>2026-04-20T09:47:36.378Z</time></trkpt><trkpt lat="44.6449471" lon="8.6531655"><ele>179.0</ele><time>2026-04-20T09:47:37.381Z</time></trkpt><trkpt lat="44.645016" lon="8.6533344"><ele>179.0</ele><time>2026-04-20T09:47:38.372Z</time></trkpt><trkpt lat="44.6450591" lon="8.6534825"><ele>179.0</ele><time>2026-04-20T09:47:39.37Z</time></trkpt><trkpt lat="44.6450944" lon="8.6535994"><ele>179.0</ele><time>2026-04-20T09:47:40.373Z</time></trkpt><trkpt lat="44.6450782" lon="8.6537112"><ele>179.0</ele><time>2026-04-20T09:47:41.374Z</time></trkpt><trkpt lat="44.6450135" lon="8.653789"><ele>179.0</ele><time>2026-04-20T09:47:42.365Z</time></trkpt><trkpt lat="44.6449295" lon="8.6538331"><ele>181.5</ele><time>2026-04-20T09:47:43.356Z</time></trkpt><trkpt lat="44.6448292" lon="8.6538503"><ele>184.0</ele><time>2026-04-20T09:47:44.358Z</time></trkpt><trkpt lat="44.6447007" lon="8.6538339"><ele>186.5</ele><time>2026-04-20T09:47:45.36Z</time></trkpt><trkpt lat="44.644543" lon="8.6538355"><ele>189.0</ele><time>2026-04-20T09:47:46.366Z</time></trkpt><trkpt lat="44.6443582" lon="8.6538318"><ele>191.5</ele><time>2026-04-20T09:47:47.366Z</time></trkpt><trkpt lat="44.6442123" lon="8.6538107"><ele>194.0</ele><time>2026-04-20T09:47:48.366Z</time></trkpt><trkpt lat="44.6440596" lon="8.6538113"><ele>196.5</ele><time>2026-04-20T09:47:49.371Z</time></trkpt><trkpt lat="44.6439212" lon="8.653851"><ele>199.0</ele><time>2026-04-20T09:47:50.373Z</time></trkpt><trkpt lat="44.6437696" lon="8.6539016"><ele>198.66666666666666</ele><time>2026-04-20T09:47:51.37Z</time></trkpt><trkpt lat="44.6436168" lon="8.6539754"><ele>198.33333333333331</ele><time>2026-04-20T09:47:52.365Z</time></trkpt><trkpt lat="44.6434885" lon="8.6540956"><ele>198.0</ele><time>2026-04-20T09:47:53.367Z</time></trkpt><trkpt lat="44.643373" lon="8.6542588"><ele>198.0</ele><time>2026-04-20T09:47:54.349Z</time></trkpt><trkpt lat="44.6432541" lon="8.6544391"><ele>198.0</ele><time>2026-04-20T09:47:55.364Z</time></trkpt><trkpt lat="44.643194" lon="8.6546372"><ele>198.0</ele><time>2026-04-20T09:47:56.35Z</time></trkpt><trkpt lat="44.6431114" lon="8.6548414"><ele>204.66666666666669</ele><time>2026-04-20T09:47:57.349Z</time></trkpt><trkpt lat="44.6430672" lon="8.6550687"><ele>211.33333333333334</ele><time>2026-04-20T09:47:58.355Z</time></trkpt><trkpt lat="44.6430011" lon="8.6553246"><ele>218.0</ele><time>2026-04-20T09:47:59.358Z</time></trkpt><trkpt lat="44.6429415" lon="8.6556047"><ele>219.0</ele><time>2026-04-20T09:48:00.352Z</time></trkpt><trkpt lat="44.642824" lon="8.6558226"><ele>220.0</ele><time>2026-04-20T09:48:01.357Z</time></trkpt><trkpt lat="44.642712" lon="8.6560485"><ele>221.0</ele><time>2026-04-20T09:48:02.355Z</time></trkpt><trkpt lat="44.6425602" lon="8.6562298"><ele>221.0</ele><time>2026-04-20T09:48:03.356Z</time></trkpt><trkpt lat="44.6424327" lon="8.6564142"><ele>221.0</ele><time>2026-04-20T09:48:04.352Z</time></trkpt><trkpt lat="44.6423199" lon="8.6565871"><ele>221.0</ele><time>2026-04-20T09:48:05.362Z</time></trkpt><trkpt lat="44.6421996" lon="8.6567419"><ele>221.0</ele><time>2026-04-20T09:48:06.36Z</time></trkpt><trkpt lat="44.642056" lon="8.6568883"><ele>221.0</ele><time>2026-04-20T09:48:07.357Z</time></trkpt><trkpt lat="44.641867" lon="8.6570146"><ele>221.0</ele><time>2026-04-20T09:48:08.359Z</time></trkpt><trkpt lat="44.6416917" lon="8.6571936"><ele>223.66666666666669</ele><time>2026-04-20T09:48:09.352Z</time></trkpt><trkpt lat="44.6415162" lon="8.6573741"><ele>226.33333333333331</ele><time>2026-04-20T09:48:10.35Z</time></trkpt><trkpt lat="44.6413712" lon="8.6575798"><ele>229.0</ele><time>2026-04-20T09:48:11.359Z</time></trkpt><trkpt lat="44.6412095" lon="8.6577649"><ele>232.33333333333331</ele><time>2026-04-20T09:48:12.36Z</time></trkpt><trkpt lat="44.6410456" lon="8.6578929"><ele>235.66666666666669</ele><time>2026-04-20T09:48:13.364Z</time></trkpt><trkpt lat="44.6409223" lon="8.6580716"><ele>239.0</ele><time>2026-04-20T09:48:14.371Z</time></trkpt><trkpt lat="44.6407787" lon="8.6581848"><ele>239.0</ele><time>2026-04-20T09:48:15.378Z</time></trkpt><trkpt lat="44.640652" lon="8.658265"><ele>239.0</ele><time>2026-04-20T09:48:16.376Z</time></trkpt><trkpt lat="44.6405287" lon="8.658358"><ele>239.0</ele><time>2026-04-20T09:48:17.379Z</time></trkpt><trkpt lat="44.6404104" lon="8.6584708"><ele>239.0</ele><time>2026-04-20T09:48:18.375Z</time></trkpt><trkpt lat="44.6402921" lon="8.6585473"><ele>240.33333333333334</ele><time>2026-04-20T09:48:19.373Z</time></trkpt><trkpt lat="44.6401767" lon="8.6586394"><ele>241.66666666666669</ele><time>2026-04-20T09:48:20.378Z</time></trkpt><trkpt lat="44.6400517" lon="8.6588025"><ele>243.0</ele><time>2026-04-20T09:48:21.374Z</time></trkpt><trkpt lat="44.6399101" lon="8.6589224"><ele>243.0</ele><time>2026-04-20T09:48:22.374Z</time></trkpt><trkpt lat="44.6397876" lon="8.6590764"><ele>243.0</ele><time>2026-04-20T09:48:23.37Z</time></trkpt><trkpt lat="44.6396461" lon="8.6591796"><ele>243.0</ele><time>2026-04-20T09:48:24.38Z</time></trkpt><trkpt lat="44.6395261" lon="8.6593146"><ele>243.5</ele><time>2026-04-20T09:48:25.391Z</time></trkpt><trkpt lat="44.6394084" lon="8.6594389"><ele>244.0</ele><time>2026-04-20T09:48:26.397Z</time></trkpt><trkpt lat="44.6393098" lon="8.6595563"><ele>244.5</ele><time>2026-04-20T09:48:27.39Z</time></trkpt><trkpt lat="44.6392149" lon="8.65964"><ele>245.0</ele><time>2026-04-20T09:48:28.397Z</time></trkpt><trkpt lat="44.6391335" lon="8.6597192"><ele>245.0</ele><time>2026-04-20T09:48:29.483Z</time></trkpt><trkpt lat="44.6390456" lon="8.6598035"><ele>245.0</ele><time>2026-04-20T09:48:30.478Z</time></trkpt><trkpt lat="44.6389598" lon="8.6599056"><ele>245.0</ele><time>2026-04-20T09:48:31.467Z</time></trkpt><trkpt lat="44.6388886" lon="8.6600359"><ele>245.0</ele><time>2026-04-20T09:48:32.458Z</time></trkpt><trkpt lat="44.6388411" lon="8.6601986"><ele>245.5</ele><time>2026-04-20T09:48:33.448Z</time></trkpt><trkpt lat="44.6388089" lon="8.6603744"><ele>246.0</ele><time>2026-04-20T09:48:34.455Z</time></trkpt><trkpt lat="44.6387583" lon="8.6605676"><ele>246.5</ele><time>2026-04-20T09:48:35.361Z</time></trkpt><trkpt lat="44.6387231" lon="8.6607797"><ele>247.0</ele><time>2026-04-20T09:48:36.354Z</time></trkpt><trkpt lat="44.6386947" lon="8.66097"><ele>248.33333333333331</ele><time>2026-04-20T09:48:37.367Z</time></trkpt><trkpt lat="44.6386538" lon="8.6611752"><ele>249.66666666666669</ele><time>2026-04-20T09:48:38.364Z</time></trkpt><trkpt lat="44.638597" lon="8.6613832"><ele>251.0</ele><time>2026-04-20T09:48:39.369Z</time></trkpt><trkpt lat="44.6385422" lon="8.6615963"><ele>251.33333333333334</ele><time>2026-04-20T09:48:40.377Z</time></trkpt><trkpt lat="44.6385029" lon="8.6618178"><ele>251.66666666666669</ele><time>2026-04-20T09:48:41.379Z</time></trkpt><trkpt lat="44.6384471" lon="8.6620382"><ele>252.0</ele><time>2026-04-20T09:48:42.377Z</time></trkpt><trkpt lat="44.6383974" lon="8.6622695"><ele>252.75</ele><time>2026-04-20T09:48:43.372Z</time></trkpt><trkpt lat="44.6383712" lon="8.6624907"><ele>253.5</ele><time>2026-04-20T09:48:44.379Z</time></trkpt><trkpt lat="44.6383338" lon="8.6626734"><ele>254.25</ele><time>2026-04-20T09:48:45.372Z</time></trkpt><trkpt lat="44.638259" lon="8.6628037"><ele>255.0</ele><time>2026-04-20T09:48:46.366Z</time></trkpt><trkpt lat="44.6381484" lon="8.6629174"><ele>255.75</ele><time>2026-04-20T09:48:47.363Z</time></trkpt><trkpt lat="44.6380094" lon="8.6629951"><ele>256.5</ele><time>2026-04-20T09:48:48.368Z</time></trkpt><trkpt lat="44.6378957" lon="8.6630561"><ele>257.25</ele><time>2026-04-20T09:48:49.36Z</time></trkpt><trkpt lat="44.6378195" lon="8.6632164"><ele>258.0</ele><time>2026-04-20T09:48:50.36Z</time></trkpt><trkpt lat="44.6377618" lon="8.6633859"><ele>258.0</ele><time>2026-04-20T09:48:51.358Z</time></trkpt><trkpt lat="44.6377535" lon="8.663562"><ele>258.0</ele><time>2026-04-20T09:48:52.352Z</time></trkpt><trkpt lat="44.6377783" lon="8.6638019"><ele>258.0</ele><time>2026-04-20T09:48:53.355Z</time></trkpt><trkpt lat="44.6377971" lon="8.6640441"><ele>262.6666666666667</ele><time>2026-04-20T09:48:54.354Z</time></trkpt><trkpt lat="44.6378244" lon="8.6642824"><ele>267.33333333333337</ele><time>2026-04-20T09:48:55.366Z</time></trkpt><trkpt lat="44.6378498" lon="8.6645593"><ele>272.0</ele><time>2026-04-20T09:48:56.355Z</time></trkpt><trkpt lat="44.6378454" lon="8.6647768"><ele>272.25</ele><time>2026-04-20T09:48:57.36Z</time></trkpt><trkpt lat="44.6378091" lon="8.6649403"><ele>272.5</ele><time>2026-04-20T09:48:58.357Z</time></trkpt><trkpt lat="44.6377497" lon="8.6650832"><ele>272.75</ele><time>2026-04-20T09:48:59.359Z</time></trkpt><trkpt lat="44.6376592" lon="8.6651784"><ele>273.0</ele><time>2026-04-20T09:49:00.353Z</time></trkpt><trkpt lat="44.6375682" lon="8.6652693"><ele>274.4</ele><time>2026-04-20T09:49:01.358Z</time></trkpt><trkpt lat="44.637538" lon="8.6653831"><ele>275.8</ele><time>2026-04-20T09:49:02.35Z</time></trkpt><trkpt lat="44.6375209" lon="8.6655094"><ele>277.2</ele><time>2026-04-20T09:49:04.345Z</time></trkpt><trkpt lat="44.6376686" lon="8.6655066"><ele>278.6</ele><time>2026-04-20T09:49:06.346Z</time></trkpt><trkpt lat="44.6377787" lon="8.6654454"><ele>280.0</ele><time>2026-04-20T09:49:07.343Z</time></trkpt><trkpt lat="44.6378736" lon="8.6653293"><ele>279.2</ele><time>2026-04-20T09:49:08.339Z</time></trkpt><trkpt lat="44.6379719" lon="8.6652416"><ele>278.4</ele><time>2026-04-20T09:49:09.348Z</time></trkpt><trkpt lat="44.6380721" lon="8.6651441"><ele>277.6</ele><time>2026-04-20T09:49:10.354Z</time></trkpt><trkpt lat="44.6381641" lon="8.6650671"><ele>276.8</ele><time>2026-04-20T09:49:11.352Z</time></trkpt><trkpt lat="44.63825" lon="8.6649978"><ele>276.0</ele><time>2026-04-20T09:49:12.351Z</time></trkpt><trkpt lat="44.6383212" lon="8.6649537"><ele>276.0</ele><time>2026-04-20T09:49:13.361Z</time></trkpt><trkpt lat="44.6384092" lon="8.6650086"><ele>276.0</ele><time>2026-04-20T09:49:15.36Z</time></trkpt><trkpt lat="44.6383938" lon="8.6651014"><ele>276.0</ele><time>2026-04-20T09:49:16.356Z</time></trkpt><trkpt lat="44.6383134" lon="8.665242"><ele>276.0</ele><time>2026-04-20T09:49:17.365Z</time></trkpt><trkpt lat="44.6382108" lon="8.6654331"><ele>278.6666666666667</ele><time>2026-04-20T09:49:18.351Z</time></trkpt><trkpt lat="44.638113" lon="8.665643"><ele>281.33333333333337</ele><time>2026-04-20T09:49:19.365Z</time></trkpt><trkpt lat="44.6380317" lon="8.665822"><ele>284.0</ele><time>2026-04-20T09:49:20.35Z</time></trkpt><trkpt lat="44.6379609" lon="8.6659652"><ele>284.0</ele><time>2026-04-20T09:49:21.352Z</time></trkpt><trkpt lat="44.6379165" lon="8.666089"><ele>284.0</ele><time>2026-04-20T09:49:22.353Z</time></trkpt><trkpt lat="44.6378778" lon="8.6662068"><ele>284.0</ele><time>2026-04-20T09:49:23.354Z</time></trkpt><trkpt lat="44.6378513" lon="8.6663383"><ele>284.0</ele><time>2026-04-20T09:49:24.352Z</time></trkpt><trkpt lat="44.6378519" lon="8.6664467"><ele>284.0</ele><time>2026-04-20T09:49:25.355Z</time></trkpt><trkpt lat="44.6378901" lon="8.6665635"><ele>285.59999999999997</ele><time>2026-04-20T09:49:26.352Z</time></trkpt><trkpt lat="44.6379673" lon="8.6666337"><ele>287.2</ele><time>2026-04-20T09:49:27.357Z</time></trkpt><trkpt lat="44.638059" lon="8.6666907"><ele>288.79999999999995</ele><time>2026-04-20T09:49:28.356Z</time></trkpt><trkpt lat="44.6381667" lon="8.6667577"><ele>290.4</ele><time>2026-04-20T09:49:29.355Z</time></trkpt><trkpt lat="44.6382813" lon="8.6668212"><ele>292.0</ele><time>2026-04-20T09:49:30.355Z</time></trkpt><trkpt lat="44.6383728" lon="8.6668916"><ele>291.75</ele><time>2026-04-20T09:49:31.365Z</time></trkpt><trkpt lat="44.6384635" lon="8.6669635"><ele>291.5</ele><time>2026-04-20T09:49:32.345Z</time></trkpt><trkpt lat="44.638545" lon="8.6670821"><ele>291.25</ele><time>2026-04-20T09:49:33.352Z</time></trkpt><trkpt lat="44.6386273" lon="8.6672159"><ele>291.0</ele><time>2026-04-20T09:49:34.353Z</time></trkpt><trkpt lat="44.638696" lon="8.6673461"><ele>293.8</ele><time>2026-04-20T09:49:35.353Z</time></trkpt><trkpt lat="44.6387611" lon="8.6674564"><ele>296.6</ele><time>2026-04-20T09:49:36.347Z</time></trkpt><trkpt lat="44.6388137" lon="8.6675585"><ele>299.4</ele><time>2026-04-20T09:49:37.346Z</time></trkpt><trkpt lat="44.6388463" lon="8.6676758"><ele>302.2</ele><time>2026-04-20T09:49:38.354Z</time></trkpt><trkpt lat="44.6388778" lon="8.6678249"><ele>305.0</ele><time>2026-04-20T09:49:39.355Z</time></trkpt><trkpt lat="44.6388858" lon="8.6679903"><ele>306.0</ele><time>2026-04-20T09:49:40.36Z</time></trkpt><trkpt lat="44.6388906" lon="8.6681562"><ele>307.0</ele><time>2026-04-20T09:49:41.356Z</time></trkpt><trkpt lat="44.6389072" lon="8.668321"><ele>308.0</ele><time>2026-04-20T09:49:42.357Z</time></trkpt><trkpt lat="44.6389311" lon="8.6684611"><ele>309.0</ele><time>2026-04-20T09:49:43.36Z</time></trkpt><trkpt lat="44.6389705" lon="8.6685728"><ele>310.0</ele><time>2026-04-20T09:49:44.352Z</time></trkpt><trkpt lat="44.6389823" lon="8.6686662"><ele>310.8</ele><time>2026-04-20T09:49:45.364Z</time></trkpt><trkpt lat="44.6389861" lon="8.6688125"><ele>311.6</ele><time>2026-04-20T09:49:47.357Z</time></trkpt><trkpt lat="44.6389388" lon="8.6689859"><ele>312.4</ele><time>2026-04-20T09:49:49.359Z</time></trkpt><trkpt lat="44.6389092" lon="8.6690915"><ele>313.2</ele><time>2026-04-20T09:49:50.358Z</time></trkpt><trkpt lat="44.6388898" lon="8.6692103"><ele>314.0</ele><time>2026-04-20T09:49:51.352Z</time></trkpt><trkpt lat="44.638862" lon="8.6693334"><ele>314.0</ele><time>2026-04-20T09:49:52.349Z</time></trkpt><trkpt lat="44.6388415" lon="8.6694359"><ele>314.0</ele><time>2026-04-20T09:49:53.348Z</time></trkpt><trkpt lat="44.6388159" lon="8.6695427"><ele>314.0</ele><time>2026-04-20T09:49:54.348Z</time></trkpt><trkpt lat="44.6387817" lon="8.6696694"><ele>314.0</ele><time>2026-04-20T09:49:55.355Z</time></trkpt><trkpt lat="44.6387498" lon="8.6698046"><ele>314.0</ele><time>2026-04-20T09:49:56.352Z</time></trkpt><trkpt lat="44.6387307" lon="8.6699463"><ele>313.4</ele><time>2026-04-20T09:49:57.362Z</time></trkpt><trkpt lat="44.6387124" lon="8.6700736"><ele>312.79999999999995</ele><time>2026-04-20T09:49:58.358Z</time></trkpt><trkpt lat="44.6386832" lon="8.6701935"><ele>312.20000000000005</ele><time>2026-04-20T09:49:59.364Z</time></trkpt><trkpt lat="44.6386253" lon="8.6702937"><ele>311.6</ele><time>2026-04-20T09:50:00.369Z</time></trkpt><trkpt lat="44.6385505" lon="8.6703748"><ele>311.0</ele><time>2026-04-20T09:50:01.361Z</time></trkpt><trkpt lat="44.6384645" lon="8.6704296"><ele>307.6</ele><time>2026-04-20T09:50:02.356Z</time></trkpt><trkpt lat="44.638364" lon="8.6704805"><ele>304.20000000000005</ele><time>2026-04-20T09:50:03.362Z</time></trkpt><trkpt lat="44.6382701" lon="8.6705298"><ele>300.79999999999995</ele><time>2026-04-20T09:50:04.363Z</time></trkpt><trkpt lat="44.6381627" lon="8.6705516"><ele>297.4</ele><time>2026-04-20T09:50:05.36Z</time></trkpt><trkpt lat="44.6380565" lon="8.6705514"><ele>294.0</ele><time>2026-04-20T09:50:06.363Z</time></trkpt><trkpt lat="44.6379504" lon="8.6705306"><ele>294.0</ele><time>2026-04-20T09:50:07.371Z</time></trkpt><trkpt lat="44.6378484" lon="8.6705091"><ele>294.0</ele><time>2026-04-20T09:50:08.375Z</time></trkpt><trkpt lat="44.6377547" lon="8.670472"><ele>294.0</ele><time>2026-04-20T09:50:09.368Z</time></trkpt><trkpt lat="44.6376674" lon="8.6704069"><ele>294.0</ele><time>2026-04-20T09:50:10.366Z</time></trkpt><trkpt lat="44.6375906" lon="8.6703373"><ele>294.0</ele><time>2026-04-20T09:50:11.352Z</time></trkpt><trkpt lat="44.6375476" lon="8.6702706"><ele>293.75</ele><time>2026-04-20T09:50:12.362Z</time></trkpt><trkpt lat="44.6374538" lon="8.6702085"><ele>293.5</ele><time>2026-04-20T09:50:14.35Z</time></trkpt><trkpt lat="44.6373074" lon="8.6702862"><ele>293.25</ele><time>2026-04-20T09:50:16.342Z</time></trkpt><trkpt lat="44.6372034" lon="8.6703566"><ele>293.0</ele><time>2026-04-20T09:50:17.343Z</time></trkpt><trkpt lat="44.6371128" lon="8.6704196"><ele>292.6</ele><time>2026-04-20T09:50:18.35Z</time></trkpt><trkpt lat="44.6370306" lon="8.6704642"><ele>292.20000000000005</ele><time>2026-04-20T09:50:19.365Z</time></trkpt><trkpt lat="44.636926" lon="8.6705333"><ele>291.8</ele><time>2026-04-20T09:50:20.36Z</time></trkpt><trkpt lat="44.6368271" lon="8.6706143"><ele>291.40000000000003</ele><time>2026-04-20T09:50:21.357Z</time></trkpt><trkpt lat="44.636735" lon="8.6707062"><ele>291.0</ele><time>2026-04-20T09:50:22.367Z</time></trkpt><trkpt lat="44.6366532" lon="8.6707898"><ele>292.2</ele><time>2026-04-20T09:50:23.36Z</time></trkpt><trkpt lat="44.6365716" lon="8.6708609"><ele>293.40000000000003</ele><time>2026-04-20T09:50:24.358Z</time></trkpt><trkpt lat="44.6364825" lon="8.6709216"><ele>294.6</ele><time>2026-04-20T09:50:25.361Z</time></trkpt><trkpt lat="44.6363903" lon="8.6709739"><ele>295.8</ele><time>2026-04-20T09:50:26.353Z</time></trkpt><trkpt lat="44.6362907" lon="8.6710301"><ele>297.0</ele><time>2026-04-20T09:50:27.345Z</time></trkpt><trkpt lat="44.6361906" lon="8.6710894"><ele>296.8</ele><time>2026-04-20T09:50:28.354Z</time></trkpt><trkpt lat="44.6360986" lon="8.6711571"><ele>296.6</ele><time>2026-04-20T09:50:29.352Z</time></trkpt><trkpt lat="44.6360187" lon="8.6712261"><ele>296.40000000000003</ele><time>2026-04-20T09:50:30.36Z</time></trkpt><trkpt lat="44.6359453" lon="8.6713099"><ele>296.2</ele><time>2026-04-20T09:50:31.352Z</time></trkpt><trkpt lat="44.6358838" lon="8.6714048"><ele>296.0</ele><time>2026-04-20T09:50:32.347Z</time></trkpt><trkpt lat="44.6358321" lon="8.6715198"><ele>296.0</ele><time>2026-04-20T09:50:33.357Z</time></trkpt><trkpt lat="44.6357951" lon="8.6716572"><ele>296.0</ele><time>2026-04-20T09:50:34.369Z</time></trkpt><trkpt lat="44.635748" lon="8.6717798"><ele>296.0</ele><time>2026-04-20T09:50:35.36Z</time></trkpt><trkpt lat="44.6357014" lon="8.6719041"><ele>296.0</ele><time>2026-04-20T09:50:36.359Z</time></trkpt><trkpt lat="44.6356498" lon="8.6720296"><ele>296.0</ele><time>2026-04-20T09:50:37.356Z</time></trkpt><trkpt lat="44.6355845" lon="8.6721537"><ele>295.75</ele><time>2026-04-20T09:50:38.358Z</time></trkpt><trkpt lat="44.6355048" lon="8.672264"><ele>295.5</ele><time>2026-04-20T09:50:39.359Z</time></trkpt><trkpt lat="44.6354256" lon="8.6723764"><ele>295.25</ele><time>2026-04-20T09:50:40.357Z</time></trkpt><trkpt lat="44.6353246" lon="8.6724427"><ele>295.0</ele><time>2026-04-20T09:50:41.355Z</time></trkpt><trkpt lat="44.6352224" lon="8.6725158"><ele>294.8</ele><time>2026-04-20T09:50:42.351Z</time></trkpt><trkpt lat="44.6351266" lon="8.6725947"><ele>294.6</ele><time>2026-04-20T09:50:43.368Z</time></trkpt><trkpt lat="44.6350269" lon="8.6726755"><ele>294.4</ele><time>2026-04-20T09:50:44.364Z</time></trkpt><trkpt lat="44.6349283" lon="8.6727476"><ele>294.2</ele><time>2026-04-20T09:50:45.362Z</time></trkpt><trkpt lat="44.6348314" lon="8.6727963"><ele>294.0</ele><time>2026-04-20T09:50:46.366Z</time></trkpt><trkpt lat="44.6347336" lon="8.6728331"><ele>293.2</ele><time>2026-04-20T09:50:47.359Z</time></trkpt><trkpt lat="44.6346327" lon="8.6728611"><ele>292.4</ele><time>2026-04-20T09:50:48.37Z</time></trkpt><trkpt lat="44.6345372" lon="8.6729027"><ele>291.6</ele><time>2026-04-20T09:50:49.366Z</time></trkpt><trkpt lat="44.6344492" lon="8.6729642"><ele>290.8</ele><time>2026-04-20T09:50:50.364Z</time></trkpt><trkpt lat="44.6343569" lon="8.6730611"><ele>290.0</ele><time>2026-04-20T09:50:51.36Z</time></trkpt><trkpt lat="44.6342895" lon="8.6732006"><ele>289.75</ele><time>2026-04-20T09:50:52.361Z</time></trkpt><trkpt lat="44.6342378" lon="8.6733473"><ele>289.5</ele><time>2026-04-20T09:50:53.351Z</time></trkpt><trkpt lat="44.6341917" lon="8.6734982"><ele>289.25</ele><time>2026-04-20T09:50:54.352Z</time></trkpt><trkpt lat="44.6341495" lon="8.6736661"><ele>289.0</ele><time>2026-04-20T09:50:55.36Z</time></trkpt><trkpt lat="44.6340907" lon="8.6738264"><ele>289.0</ele><time>2026-04-20T09:50:56.37Z</time></trkpt><trkpt lat="44.6340389" lon="8.6739795"><ele>289.0</ele><time>2026-04-20T09:50:57.368Z</time></trkpt><trkpt lat="44.6339689" lon="8.6741266"><ele>289.0</ele><time>2026-04-20T09:50:58.375Z</time></trkpt><trkpt lat="44.6338974" lon="8.674267"><ele>289.0</ele><time>2026-04-20T09:50:59.381Z</time></trkpt><trkpt lat="44.6338156" lon="8.6744035"><ele>289.0</ele><time>2026-04-20T09:51:00.365Z</time></trkpt><trkpt lat="44.6337164" lon="8.6745044"><ele>289.0</ele><time>2026-04-20T09:51:01.359Z</time></trkpt><trkpt lat="44.6336043" lon="8.6746031"><ele>289.0</ele><time>2026-04-20T09:51:02.367Z</time></trkpt><trkpt lat="44.6334889" lon="8.6746986"><ele>289.0</ele><time>2026-04-20T09:51:03.368Z</time></trkpt><trkpt lat="44.6333865" lon="8.6747906"><ele>289.0</ele><time>2026-04-20T09:51:04.37Z</time></trkpt><trkpt lat="44.633288" lon="8.674871"><ele>289.0</ele><time>2026-04-20T09:51:05.36Z</time></trkpt><trkpt lat="44.6332035" lon="8.6749408"><ele>289.0</ele><time>2026-04-20T09:51:06.38Z</time></trkpt><trkpt lat="44.633125" lon="8.6750055"><ele>289.0</ele><time>2026-04-20T09:51:07.364Z</time></trkpt><trkpt lat="44.6330437" lon="8.6750525"><ele>289.0</ele><time>2026-04-20T09:51:09.368Z</time></trkpt><trkpt lat="44.6329824" lon="8.6751274"><ele>289.0</ele><time>2026-04-20T09:51:14.383Z</time></trkpt><trkpt lat="44.6330029" lon="8.6752776"><ele>289.0</ele><time>2026-04-20T09:51:16.375Z</time></trkpt><trkpt lat="44.6330084" lon="8.6754213"><ele>289.0</ele><time>2026-04-20T09:51:17.374Z</time></trkpt><trkpt lat="44.633015" lon="8.6755805"><ele>289.0</ele><time>2026-04-20T09:51:18.372Z</time></trkpt><trkpt lat="44.6330246" lon="8.6757667"><ele>289.0</ele><time>2026-04-20T09:51:19.377Z</time></trkpt><trkpt lat="44.6330613" lon="8.6759692"><ele>289.0</ele><time>2026-04-20T09:51:20.379Z</time></trkpt><trkpt lat="44.6331173" lon="8.676194"><ele>289.0</ele><time>2026-04-20T09:51:21.377Z</time></trkpt><trkpt lat="44.6331728" lon="8.6763993"><ele>287.0</ele><time>2026-04-20T09:51:22.459Z</time></trkpt><trkpt lat="44.6332283" lon="8.6765968"><ele>285.0</ele><time>2026-04-20T09:51:23.48Z</time></trkpt><trkpt lat="44.6332811" lon="8.6767952"><ele>283.0</ele><time>2026-04-20T09:51:24.47Z</time></trkpt><trkpt lat="44.6333259" lon="8.6769878"><ele>281.0</ele><time>2026-04-20T09:51:25.475Z</time></trkpt><trkpt lat="44.6333747" lon="8.6771758"><ele>277.33333333333337</ele><time>2026-04-20T09:51:26.484Z</time></trkpt><trkpt lat="44.6335176" lon="8.6775136"><ele>273.6666666666667</ele><time>2026-04-20T09:51:28.366Z</time></trkpt><trkpt lat="44.6336057" lon="8.6776733"><ele>270.0</ele><time>2026-04-20T09:51:29.369Z</time></trkpt><trkpt lat="44.6336825" lon="8.6778192"><ele>269.0</ele><time>2026-04-20T09:51:30.365Z</time></trkpt><trkpt lat="44.6337689" lon="8.6779898"><ele>268.0</ele><time>2026-04-20T09:51:31.367Z</time></trkpt><trkpt lat="44.6338719" lon="8.6781378"><ele>267.0</ele><time>2026-04-20T09:51:32.375Z</time></trkpt><trkpt lat="44.6339644" lon="8.6782674"><ele>266.0</ele><time>2026-04-20T09:51:33.361Z</time></trkpt><trkpt lat="44.6340339" lon="8.6783774"><ele>266.0</ele><time>2026-04-20T09:51:34.36Z</time></trkpt><trkpt lat="44.634099" lon="8.6784766"><ele>266.0</ele><time>2026-04-20T09:51:35.367Z</time></trkpt><trkpt lat="44.6341859" lon="8.6785435"><ele>266.0</ele><time>2026-04-20T09:51:36.359Z</time></trkpt><trkpt lat="44.6342739" lon="8.6785776"><ele>266.0</ele><time>2026-04-20T09:51:37.37Z</time></trkpt><trkpt lat="44.6343602" lon="8.6785345"><ele>266.0</ele><time>2026-04-20T09:51:38.368Z</time></trkpt><trkpt lat="44.6344532" lon="8.6784481"><ele>266.0</ele><time>2026-04-20T09:51:39.37Z</time></trkpt><trkpt lat="44.6345599" lon="8.678356"><ele>266.0</ele><time>2026-04-20T09:51:40.374Z</time></trkpt><trkpt lat="44.634654" lon="8.6782681"><ele>266.0</ele><time>2026-04-20T09:51:41.368Z</time></trkpt><trkpt lat="44.6347442" lon="8.6782041"><ele>266.0</ele><time>2026-04-20T09:51:42.38Z</time></trkpt><trkpt lat="44.6348346" lon="8.6782008"><ele>266.0</ele><time>2026-04-20T09:51:43.374Z</time></trkpt><trkpt lat="44.6349244" lon="8.678278"><ele>266.0</ele><time>2026-04-20T09:51:44.371Z</time></trkpt><trkpt lat="44.6349855" lon="8.6783982"><ele>266.0</ele><time>2026-04-20T09:51:45.379Z</time></trkpt><trkpt lat="44.6349956" lon="8.6785645"><ele>266.0</ele><time>2026-04-20T09:51:46.371Z</time></trkpt><trkpt lat="44.6349757" lon="8.6787859"><ele>266.0</ele><time>2026-04-20T09:51:47.365Z</time></trkpt><trkpt lat="44.6349493" lon="8.6790194"><ele>263.33333333333337</ele><time>2026-04-20T09:51:48.362Z</time></trkpt><trkpt lat="44.6349245" lon="8.6792603"><ele>260.6666666666667</ele><time>2026-04-20T09:51:49.369Z</time></trkpt><trkpt lat="44.6349085" lon="8.6794658"><ele>258.0</ele><time>2026-04-20T09:51:50.366Z</time></trkpt><trkpt lat="44.6348918" lon="8.6796556"><ele>257.8</ele><time>2026-04-20T09:51:51.367Z</time></trkpt><trkpt lat="44.6348757" lon="8.6797857"><ele>257.6</ele><time>2026-04-20T09:51:52.365Z</time></trkpt><trkpt lat="44.6348113" lon="8.6798746"><ele>257.4</ele><time>2026-04-20T09:51:53.356Z</time></trkpt><trkpt lat="44.6347196" lon="8.6798991"><ele>257.2</ele><time>2026-04-20T09:51:54.367Z</time></trkpt><trkpt lat="44.6346" lon="8.6798757"><ele>257.0</ele><time>2026-04-20T09:51:55.363Z</time></trkpt><trkpt lat="44.634504" lon="8.6797899"><ele>254.5</ele><time>2026-04-20T09:51:56.354Z</time></trkpt><trkpt lat="44.634419" lon="8.6797096"><ele>252.0</ele><time>2026-04-20T09:51:57.36Z</time></trkpt><trkpt lat="44.6343051" lon="8.6796722"><ele>249.5</ele><time>2026-04-20T09:51:58.36Z</time></trkpt><trkpt lat="44.6341766" lon="8.6796818"><ele>247.0</ele><time>2026-04-20T09:51:59.365Z</time></trkpt><trkpt lat="44.6340725" lon="8.6797467"><ele>247.0</ele><time>2026-04-20T09:52:00.367Z</time></trkpt><trkpt lat="44.6339584" lon="8.6798683"><ele>247.0</ele><time>2026-04-20T09:52:01.379Z</time></trkpt><trkpt lat="44.6338482" lon="8.6800569"><ele>247.0</ele><time>2026-04-20T09:52:02.371Z</time></trkpt><trkpt lat="44.6337401" lon="8.6802734"><ele>245.33333333333331</ele><time>2026-04-20T09:52:03.366Z</time></trkpt><trkpt lat="44.6336259" lon="8.6805264"><ele>243.66666666666669</ele><time>2026-04-20T09:52:04.368Z</time></trkpt><trkpt lat="44.6335326" lon="8.6807747"><ele>242.0</ele><time>2026-04-20T09:52:05.371Z</time></trkpt><trkpt lat="44.6334575" lon="8.6810033"><ele>242.0</ele><time>2026-04-20T09:52:06.369Z</time></trkpt><trkpt lat="44.6333977" lon="8.681195"><ele>242.0</ele><time>2026-04-20T09:52:07.368Z</time></trkpt><trkpt lat="44.6333283" lon="8.6813475"><ele>242.0</ele><time>2026-04-20T09:52:08.367Z</time></trkpt><trkpt lat="44.6332593" lon="8.6815065"><ele>242.0</ele><time>2026-04-20T09:52:09.372Z</time></trkpt><trkpt lat="44.6332104" lon="8.6816417"><ele>242.0</ele><time>2026-04-20T09:52:10.366Z</time></trkpt><trkpt lat="44.6331758" lon="8.6817689"><ele>242.0</ele><time>2026-04-20T09:52:11.373Z</time></trkpt><trkpt lat="44.6332381" lon="8.6819157"><ele>242.0</ele><time>2026-04-20T09:52:12.358Z</time></trkpt><trkpt lat="44.6333212" lon="8.6820556"><ele>242.0</ele><time>2026-04-20T09:52:13.355Z</time></trkpt><trkpt lat="44.633425" lon="8.6821914"><ele>241.33333333333334</ele><time>2026-04-20T09:52:14.37Z</time></trkpt><trkpt lat="44.6335384" lon="8.6823465"><ele>240.66666666666669</ele><time>2026-04-20T09:52:15.36Z</time></trkpt><trkpt lat="44.6336678" lon="8.6825413"><ele>240.0</ele><time>2026-04-20T09:52:16.36Z</time></trkpt><trkpt lat="44.6337861" lon="8.6827294"><ele>240.0</ele><time>2026-04-20T09:52:17.363Z</time></trkpt><trkpt lat="44.6338884" lon="8.6829016"><ele>240.0</ele><time>2026-04-20T09:52:18.354Z</time></trkpt><trkpt lat="44.6339876" lon="8.6830892"><ele>240.0</ele><time>2026-04-20T09:52:19.36Z</time></trkpt><trkpt lat="44.634064" lon="8.6833232"><ele>240.0</ele><time>2026-04-20T09:52:20.375Z</time></trkpt><trkpt lat="44.6341462" lon="8.6835473"><ele>240.0</ele><time>2026-04-20T09:52:21.371Z</time></trkpt><trkpt lat="44.6341948" lon="8.6837542"><ele>240.0</ele><time>2026-04-20T09:52:22.356Z</time></trkpt><trkpt lat="44.6342262" lon="8.6839994"><ele>241.0</ele><time>2026-04-20T09:52:23.363Z</time></trkpt><trkpt lat="44.63424" lon="8.6842301"><ele>242.0</ele><time>2026-04-20T09:52:24.359Z</time></trkpt><trkpt lat="44.634236" lon="8.6844945"><ele>243.0</ele><time>2026-04-20T09:52:25.369Z</time></trkpt><trkpt lat="44.6342305" lon="8.6847355"><ele>244.0</ele><time>2026-04-20T09:52:26.366Z</time></trkpt><trkpt lat="44.6342507" lon="8.6850069"><ele>245.0</ele><time>2026-04-20T09:52:27.361Z</time></trkpt><trkpt lat="44.6342601" lon="8.6852685"><ele>246.0</ele><time>2026-04-20T09:52:28.363Z</time></trkpt><trkpt lat="44.6342801" lon="8.6855288"><ele>246.66666666666669</ele><time>2026-04-20T09:52:29.374Z</time></trkpt><trkpt lat="44.6343107" lon="8.6857554"><ele>247.33333333333334</ele><time>2026-04-20T09:52:30.364Z</time></trkpt><trkpt lat="44.6343548" lon="8.6859996"><ele>248.0</ele><time>2026-04-20T09:52:31.368Z</time></trkpt><trkpt lat="44.634399" lon="8.6861843"><ele>248.33333333333334</ele><time>2026-04-20T09:52:32.365Z</time></trkpt><trkpt lat="44.6344297" lon="8.6863844"><ele>248.66666666666669</ele><time>2026-04-20T09:52:33.368Z</time></trkpt><trkpt lat="44.6344562" lon="8.6866031"><ele>249.0</ele><time>2026-04-20T09:52:34.367Z</time></trkpt><trkpt lat="44.6344959" lon="8.6868372"><ele>247.33333333333331</ele><time>2026-04-20T09:52:35.37Z</time></trkpt><trkpt lat="44.6345111" lon="8.6870719"><ele>245.66666666666666</ele><time>2026-04-20T09:52:36.379Z</time></trkpt><trkpt lat="44.6345327" lon="8.6872769"><ele>244.0</ele><time>2026-04-20T09:52:37.369Z</time></trkpt><trkpt lat="44.6345346" lon="8.6874865"><ele>244.0</ele><time>2026-04-20T09:52:38.38Z</time></trkpt><trkpt lat="44.6345341" lon="8.6877025"><ele>244.0</ele><time>2026-04-20T09:52:39.374Z</time></trkpt><trkpt lat="44.634537" lon="8.687894"><ele>244.0</ele><time>2026-04-20T09:52:40.375Z</time></trkpt><trkpt lat="44.6345261" lon="8.6880786"><ele>244.0</ele><time>2026-04-20T09:52:41.382Z</time></trkpt><trkpt lat="44.6345302" lon="8.6882644"><ele>243.75</ele><time>2026-04-20T09:52:42.38Z</time></trkpt><trkpt lat="44.6345328" lon="8.6884433"><ele>243.5</ele><time>2026-04-20T09:52:43.376Z</time></trkpt><trkpt lat="44.6345348" lon="8.6886061"><ele>243.25</ele><time>2026-04-20T09:52:44.378Z</time></trkpt><trkpt lat="44.6345406" lon="8.6887742"><ele>243.0</ele><time>2026-04-20T09:52:45.375Z</time></trkpt><trkpt lat="44.634563" lon="8.6889312"><ele>243.0</ele><time>2026-04-20T09:52:46.381Z</time></trkpt><trkpt lat="44.6345756" lon="8.6890987"><ele>243.0</ele><time>2026-04-20T09:52:47.378Z</time></trkpt><trkpt lat="44.6345921" lon="8.6892666"><ele>243.0</ele><time>2026-04-20T09:52:48.371Z</time></trkpt><trkpt lat="44.6346198" lon="8.6894373"><ele>243.0</ele><time>2026-04-20T09:52:49.371Z</time></trkpt><trkpt lat="44.6346499" lon="8.689603"><ele>242.0</ele><time>2026-04-20T09:52:50.365Z</time></trkpt><trkpt lat="44.6346821" lon="8.6897641"><ele>241.0</ele><time>2026-04-20T09:52:51.371Z</time></trkpt><trkpt lat="44.6347212" lon="8.6899294"><ele>240.0</ele><time>2026-04-20T09:52:52.374Z</time></trkpt><trkpt lat="44.6347518" lon="8.6901031"><ele>239.0</ele><time>2026-04-20T09:52:53.371Z</time></trkpt><trkpt lat="44.6347809" lon="8.690261"><ele>237.0</ele><time>2026-04-20T09:52:54.375Z</time></trkpt><trkpt lat="44.6348121" lon="8.6904188"><ele>235.0</ele><time>2026-04-20T09:52:55.386Z</time></trkpt><trkpt lat="44.6348515" lon="8.6905678"><ele>233.0</ele><time>2026-04-20T09:52:56.379Z</time></trkpt><trkpt lat="44.6348971" lon="8.6907282"><ele>231.0</ele><time>2026-04-20T09:52:57.383Z</time></trkpt><trkpt lat="44.6349501" lon="8.6908808"><ele>231.0</ele><time>2026-04-20T09:52:58.375Z</time></trkpt><trkpt lat="44.6350141" lon="8.6910288"><ele>231.0</ele><time>2026-04-20T09:52:59.379Z</time></trkpt><trkpt lat="44.6350769" lon="8.6911721"><ele>231.0</ele><time>2026-04-20T09:53:00.376Z</time></trkpt><trkpt lat="44.6351411" lon="8.6913192"><ele>231.0</ele><time>2026-04-20T09:53:01.38Z</time></trkpt><trkpt lat="44.6352039" lon="8.6914631"><ele>229.4</ele><time>2026-04-20T09:53:02.374Z</time></trkpt><trkpt lat="44.6352574" lon="8.691597"><ele>227.8</ele><time>2026-04-20T09:53:03.376Z</time></trkpt><trkpt lat="44.6353164" lon="8.6917409"><ele>226.20000000000002</ele><time>2026-04-20T09:53:04.368Z</time></trkpt><trkpt lat="44.6353767" lon="8.6918787"><ele>224.60000000000002</ele><time>2026-04-20T09:53:05.371Z</time></trkpt><trkpt lat="44.635427" lon="8.6919808"><ele>223.0</ele><time>2026-04-20T09:53:06.362Z</time></trkpt><trkpt lat="44.6354957" lon="8.6920532"><ele>223.0</ele><time>2026-04-20T09:53:07.371Z</time></trkpt><trkpt lat="44.6355815" lon="8.6920602"><ele>223.0</ele><time>2026-04-20T09:53:08.371Z</time></trkpt><trkpt lat="44.6356788" lon="8.69201"><ele>223.0</ele><time>2026-04-20T09:53:09.371Z</time></trkpt><trkpt lat="44.6357662" lon="8.6918985"><ele>223.0</ele><time>2026-04-20T09:53:10.366Z</time></trkpt><trkpt lat="44.6358332" lon="8.6917553"><ele>223.0</ele><time>2026-04-20T09:53:11.371Z</time></trkpt><trkpt lat="44.6359009" lon="8.6915984"><ele>223.0</ele><time>2026-04-20T09:53:12.374Z</time></trkpt><trkpt lat="44.6359649" lon="8.691443"><ele>223.0</ele><time>2026-04-20T09:53:13.368Z</time></trkpt><trkpt lat="44.6360267" lon="8.6913119"><ele>223.0</ele><time>2026-04-20T09:53:14.367Z</time></trkpt><trkpt lat="44.6360912" lon="8.691223"><ele>223.0</ele><time>2026-04-20T09:53:15.369Z</time></trkpt><trkpt lat="44.6361631" lon="8.6911997"><ele>223.0</ele><time>2026-04-20T09:53:16.362Z</time></trkpt><trkpt lat="44.6362252" lon="8.6912269"><ele>221.5</ele><time>2026-04-20T09:53:17.368Z</time></trkpt><trkpt lat="44.6362823" lon="8.6913359"><ele>220.0</ele><time>2026-04-20T09:53:18.362Z</time></trkpt><trkpt lat="44.636335" lon="8.6915069"><ele>218.5</ele><time>2026-04-20T09:53:19.358Z</time></trkpt><trkpt lat="44.6363886" lon="8.6916818"><ele>217.0</ele><time>2026-04-20T09:53:20.37Z</time></trkpt><trkpt lat="44.6364467" lon="8.6918611"><ele>216.33333333333331</ele><time>2026-04-20T09:53:21.361Z</time></trkpt><trkpt lat="44.6365019" lon="8.6920554"><ele>215.66666666666669</ele><time>2026-04-20T09:53:22.368Z</time></trkpt><trkpt lat="44.6365682" lon="8.6922555"><ele>215.0</ele><time>2026-04-20T09:53:23.365Z</time></trkpt><trkpt lat="44.6366459" lon="8.6924536"><ele>215.0</ele><time>2026-04-20T09:53:24.367Z</time></trkpt><trkpt lat="44.6366984" lon="8.692613"><ele>215.0</ele><time>2026-04-20T09:53:25.367Z</time></trkpt><trkpt lat="44.6367443" lon="8.6927544"><ele>215.0</ele><time>2026-04-20T09:53:26.367Z</time></trkpt><trkpt lat="44.6367707" lon="8.6928871"><ele>215.0</ele><time>2026-04-20T09:53:27.387Z</time></trkpt><trkpt lat="44.6367773" lon="8.6930188"><ele>215.0</ele><time>2026-04-20T09:53:28.369Z</time></trkpt><trkpt lat="44.6367711" lon="8.6931683"><ele>214.2</ele><time>2026-04-20T09:53:29.389Z</time></trkpt><trkpt lat="44.6367157" lon="8.6932996"><ele>213.4</ele><time>2026-04-20T09:53:30.384Z</time></trkpt><trkpt lat="44.6366341" lon="8.6933892"><ele>212.60000000000002</ele><time>2026-04-20T09:53:31.376Z</time></trkpt><trkpt lat="44.6365302" lon="8.6934357"><ele>211.8</ele><time>2026-04-20T09:53:32.368Z</time></trkpt><trkpt lat="44.636412" lon="8.6934287"><ele>211.0</ele><time>2026-04-20T09:53:33.371Z</time></trkpt><trkpt lat="44.6362836" lon="8.6934159"><ele>211.0</ele><time>2026-04-20T09:53:34.379Z</time></trkpt><trkpt lat="44.636164" lon="8.6934055"><ele>211.0</ele><time>2026-04-20T09:53:35.379Z</time></trkpt><trkpt lat="44.6360502" lon="8.6933912"><ele>211.0</ele><time>2026-04-20T09:53:36.376Z</time></trkpt><trkpt lat="44.6359342" lon="8.6933851"><ele>211.0</ele><time>2026-04-20T09:53:37.468Z</time></trkpt><trkpt lat="44.6358183" lon="8.6933817"><ele>211.0</ele><time>2026-04-20T09:53:38.467Z</time></trkpt><trkpt lat="44.6357064" lon="8.6933779"><ele>211.0</ele><time>2026-04-20T09:53:39.472Z</time></trkpt><trkpt lat="44.6355973" lon="8.6933727"><ele>211.0</ele><time>2026-04-20T09:53:40.466Z</time></trkpt><trkpt lat="44.6354909" lon="8.6933644"><ele>211.0</ele><time>2026-04-20T09:53:41.467Z</time></trkpt><trkpt lat="44.6353861" lon="8.6933724"><ele>211.0</ele><time>2026-04-20T09:53:42.471Z</time></trkpt><trkpt lat="44.6352859" lon="8.6934078"><ele>211.0</ele><time>2026-04-20T09:53:43.468Z</time></trkpt><trkpt lat="44.6351953" lon="8.6934714"><ele>211.0</ele><time>2026-04-20T09:53:44.467Z</time></trkpt><trkpt lat="44.6351309" lon="8.6935536"><ele>211.0</ele><time>2026-04-20T09:53:45.438Z</time></trkpt><trkpt lat="44.63508" lon="8.693653"><ele>211.0</ele><time>2026-04-20T09:53:46.447Z</time></trkpt><trkpt lat="44.6350131" lon="8.6937484"><ele>211.0</ele><time>2026-04-20T09:53:47.351Z</time></trkpt><trkpt lat="44.6349453" lon="8.6938493"><ele>211.8</ele><time>2026-04-20T09:53:48.347Z</time></trkpt><trkpt lat="44.6348832" lon="8.6939295"><ele>212.60000000000002</ele><time>2026-04-20T09:53:49.37Z</time></trkpt><trkpt lat="44.6347885" lon="8.6940017"><ele>213.4</ele><time>2026-04-20T09:53:50.358Z</time></trkpt><trkpt lat="44.6347001" lon="8.6940755"><ele>214.2</ele><time>2026-04-20T09:53:51.356Z</time></trkpt><trkpt lat="44.6345985" lon="8.6941373"><ele>215.0</ele><time>2026-04-20T09:53:52.356Z</time></trkpt><trkpt lat="44.6344898" lon="8.6942084"><ele>215.0</ele><time>2026-04-20T09:53:53.344Z</time></trkpt><trkpt lat="44.6343933" lon="8.6943261"><ele>215.0</ele><time>2026-04-20T09:53:54.353Z</time></trkpt><trkpt lat="44.6343107" lon="8.6944474"><ele>215.0</ele><time>2026-04-20T09:53:55.355Z</time></trkpt><trkpt lat="44.6342284" lon="8.6945756"><ele>215.0</ele><time>2026-04-20T09:53:56.366Z</time></trkpt><trkpt lat="44.6341527" lon="8.6947118"><ele>215.75</ele><time>2026-04-20T09:53:57.376Z</time></trkpt><trkpt lat="44.6340798" lon="8.694854"><ele>216.5</ele><time>2026-04-20T09:53:58.387Z</time></trkpt><trkpt lat="44.6340093" lon="8.6949819"><ele>217.25</ele><time>2026-04-20T09:53:59.383Z</time></trkpt><trkpt lat="44.6339244" lon="8.6950923"><ele>218.0</ele><time>2026-04-20T09:54:00.381Z</time></trkpt><trkpt lat="44.6338267" lon="8.6951863"><ele>217.75</ele><time>2026-04-20T09:54:01.364Z</time></trkpt><trkpt lat="44.6337058" lon="8.6952631"><ele>217.5</ele><time>2026-04-20T09:54:02.38Z</time></trkpt><trkpt lat="44.6335945" lon="8.6953376"><ele>217.25</ele><time>2026-04-20T09:54:03.373Z</time></trkpt><trkpt lat="44.6334914" lon="8.695407"><ele>217.0</ele><time>2026-04-20T09:54:04.376Z</time></trkpt><trkpt lat="44.6333875" lon="8.6954634"><ele>217.75</ele><time>2026-04-20T09:54:05.378Z</time></trkpt><trkpt lat="44.633281" lon="8.6955266"><ele>218.5</ele><time>2026-04-20T09:54:06.374Z</time></trkpt><trkpt lat="44.6331661" lon="8.6955986"><ele>219.25</ele><time>2026-04-20T09:54:07.372Z</time></trkpt><trkpt lat="44.6330309" lon="8.6957059"><ele>220.0</ele><time>2026-04-20T09:54:08.362Z</time></trkpt><trkpt lat="44.6328916" lon="8.6958454"><ele>220.0</ele><time>2026-04-20T09:54:09.357Z</time></trkpt><trkpt lat="44.6327819" lon="8.6959988"><ele>220.0</ele><time>2026-04-20T09:54:10.371Z</time></trkpt><trkpt lat="44.6326702" lon="8.6961752"><ele>220.0</ele><time>2026-04-20T09:54:11.369Z</time></trkpt><trkpt lat="44.632548" lon="8.6963639"><ele>220.0</ele><time>2026-04-20T09:54:12.373Z</time></trkpt><trkpt lat="44.6324243" lon="8.6965548"><ele>220.0</ele><time>2026-04-20T09:54:13.373Z</time></trkpt><trkpt lat="44.6322902" lon="8.6967428"><ele>220.0</ele><time>2026-04-20T09:54:14.374Z</time></trkpt><trkpt lat="44.6321701" lon="8.6969285"><ele>220.0</ele><time>2026-04-20T09:54:15.376Z</time></trkpt><trkpt lat="44.6320493" lon="8.6971186"><ele>220.0</ele><time>2026-04-20T09:54:16.368Z</time></trkpt><trkpt lat="44.6319353" lon="8.6972873"><ele>220.0</ele><time>2026-04-20T09:54:17.367Z</time></trkpt><trkpt lat="44.6318316" lon="8.6974726"><ele>220.0</ele><time>2026-04-20T09:54:18.37Z</time></trkpt><trkpt lat="44.6317286" lon="8.6976202"><ele>220.0</ele><time>2026-04-20T09:54:19.379Z</time></trkpt><trkpt lat="44.6316282" lon="8.6977768"><ele>220.0</ele><time>2026-04-20T09:54:20.384Z</time></trkpt><trkpt lat="44.6315149" lon="8.697938"><ele>219.0</ele><time>2026-04-20T09:54:21.373Z</time></trkpt><trkpt lat="44.6314389" lon="8.698107"><ele>218.0</ele><time>2026-04-20T09:54:22.385Z</time></trkpt><trkpt lat="44.6313902" lon="8.6983119"><ele>217.0</ele><time>2026-04-20T09:54:23.374Z</time></trkpt><trkpt lat="44.6313577" lon="8.6985305"><ele>217.0</ele><time>2026-04-20T09:54:24.374Z</time></trkpt><trkpt lat="44.6313363" lon="8.6987603"><ele>217.0</ele><time>2026-04-20T09:54:25.373Z</time></trkpt><trkpt lat="44.6313212" lon="8.6989749"><ele>217.0</ele><time>2026-04-20T09:54:26.375Z</time></trkpt><trkpt lat="44.6313012" lon="8.6991636"><ele>217.0</ele><time>2026-04-20T09:54:27.378Z</time></trkpt><trkpt lat="44.6312647" lon="8.6993766"><ele>217.0</ele><time>2026-04-20T09:54:28.372Z</time></trkpt><trkpt lat="44.6312294" lon="8.699575"><ele>217.0</ele><time>2026-04-20T09:54:29.377Z</time></trkpt><trkpt lat="44.6312346" lon="8.6997953"><ele>215.66666666666666</ele><time>2026-04-20T09:54:30.372Z</time></trkpt><trkpt lat="44.6312612" lon="8.7000013"><ele>214.33333333333331</ele><time>2026-04-20T09:54:31.373Z</time></trkpt><trkpt lat="44.6312806" lon="8.700223"><ele>213.0</ele><time>2026-04-20T09:54:32.373Z</time></trkpt><trkpt lat="44.6313421" lon="8.7004445"><ele>210.0</ele><time>2026-04-20T09:54:33.373Z</time></trkpt><trkpt lat="44.6313827" lon="8.7006611"><ele>207.0</ele><time>2026-04-20T09:54:34.375Z</time></trkpt><trkpt lat="44.6314451" lon="8.7008811"><ele>204.0</ele><time>2026-04-20T09:54:35.376Z</time></trkpt><trkpt lat="44.631511" lon="8.7011066"><ele>201.33333333333331</ele><time>2026-04-20T09:54:36.377Z</time></trkpt><trkpt lat="44.6315943" lon="8.7013082"><ele>198.66666666666666</ele><time>2026-04-20T09:54:37.37Z</time></trkpt><trkpt lat="44.6316673" lon="8.7015269"><ele>196.0</ele><time>2026-04-20T09:54:38.376Z</time></trkpt><trkpt lat="44.6317579" lon="8.7017356"><ele>197.0</ele><time>2026-04-20T09:54:39.376Z</time></trkpt><trkpt lat="44.6318403" lon="8.7019602"><ele>198.0</ele><time>2026-04-20T09:54:40.382Z</time></trkpt><trkpt lat="44.6319273" lon="8.7021411"><ele>199.0</ele><time>2026-04-20T09:54:41.371Z</time></trkpt><trkpt lat="44.6319826" lon="8.7023054"><ele>199.0</ele><time>2026-04-20T09:54:42.368Z</time></trkpt><trkpt lat="44.6320274" lon="8.7024977"><ele>199.0</ele><time>2026-04-20T09:54:43.366Z</time></trkpt><trkpt lat="44.632042" lon="8.7027287"><ele>199.0</ele><time>2026-04-20T09:54:44.368Z</time></trkpt><trkpt lat="44.6320435" lon="8.7029569"><ele>200.0</ele><time>2026-04-20T09:54:45.375Z</time></trkpt><trkpt lat="44.6320318" lon="8.7032086"><ele>201.0</ele><time>2026-04-20T09:54:46.386Z</time></trkpt><trkpt lat="44.6320443" lon="8.7034525"><ele>202.0</ele><time>2026-04-20T09:54:47.382Z</time></trkpt><trkpt lat="44.6320932" lon="8.7037286"><ele>202.0</ele><time>2026-04-20T09:54:48.376Z</time></trkpt><trkpt lat="44.6321512" lon="8.7039675"><ele>202.0</ele><time>2026-04-20T09:54:49.383Z</time></trkpt><trkpt lat="44.632214" lon="8.7042303"><ele>202.0</ele><time>2026-04-20T09:54:50.368Z</time></trkpt><trkpt lat="44.632267" lon="8.7045026"><ele>202.33333333333331</ele><time>2026-04-20T09:54:51.379Z</time></trkpt><trkpt lat="44.6323134" lon="8.7047444"><ele>202.66666666666669</ele><time>2026-04-20T09:54:52.384Z</time></trkpt><trkpt lat="44.6323704" lon="8.7049561"><ele>203.0</ele><time>2026-04-20T09:54:53.373Z</time></trkpt><trkpt lat="44.6324153" lon="8.7051726"><ele>205.5</ele><time>2026-04-20T09:54:54.377Z</time></trkpt><trkpt lat="44.632448" lon="8.7053886"><ele>208.0</ele><time>2026-04-20T09:54:55.374Z</time></trkpt><trkpt lat="44.6324177" lon="8.7055523"><ele>210.5</ele><time>2026-04-20T09:54:56.37Z</time></trkpt><trkpt lat="44.632359" lon="8.7057476"><ele>213.0</ele><time>2026-04-20T09:54:57.377Z</time></trkpt><trkpt lat="44.6322791" lon="8.7058794"><ele>213.0</ele><time>2026-04-20T09:54:58.366Z</time></trkpt><trkpt lat="44.63211" lon="8.7059907"><ele>213.0</ele><time>2026-04-20T09:54:59.362Z</time></trkpt><trkpt lat="44.6319031" lon="8.7061065"><ele>213.0</ele><time>2026-04-20T09:55:00.352Z</time></trkpt><trkpt lat="44.631748" lon="8.7062615"><ele>219.66666666666669</ele><time>2026-04-20T09:55:01.351Z</time></trkpt><trkpt lat="44.631598" lon="8.7063859"><ele>226.33333333333334</ele><time>2026-04-20T09:55:02.364Z</time></trkpt><trkpt lat="44.6314354" lon="8.7064883"><ele>233.0</ele><time>2026-04-20T09:55:03.356Z</time></trkpt><trkpt lat="44.6312918" lon="8.7065427"><ele>233.0</ele><time>2026-04-20T09:55:04.36Z</time></trkpt><trkpt lat="44.6311577" lon="8.7066223"><ele>233.0</ele><time>2026-04-20T09:55:05.352Z</time></trkpt><trkpt lat="44.6310227" lon="8.7066752"><ele>233.0</ele><time>2026-04-20T09:55:06.357Z</time></trkpt><trkpt lat="44.6309296" lon="8.7067366"><ele>233.0</ele><time>2026-04-20T09:55:07.366Z</time></trkpt><trkpt lat="44.6308436" lon="8.7068272"><ele>232.5</ele><time>2026-04-20T09:55:08.359Z</time></trkpt><trkpt lat="44.6308028" lon="8.7069645"><ele>232.0</ele><time>2026-04-20T09:55:09.36Z</time></trkpt><trkpt lat="44.6308043" lon="8.7071385"><ele>231.5</ele><time>2026-04-20T09:55:10.351Z</time></trkpt><trkpt lat="44.6308549" lon="8.707328"><ele>231.0</ele><time>2026-04-20T09:55:11.36Z</time></trkpt><trkpt lat="44.6309343" lon="8.7074836"><ele>231.0</ele><time>2026-04-20T09:55:12.362Z</time></trkpt><trkpt lat="44.6310251" lon="8.7076641"><ele>231.0</ele><time>2026-04-20T09:55:13.361Z</time></trkpt><trkpt lat="44.6311286" lon="8.7078668"><ele>231.0</ele><time>2026-04-20T09:55:14.368Z</time></trkpt><trkpt lat="44.6312408" lon="8.708103"><ele>235.66666666666669</ele><time>2026-04-20T09:55:15.371Z</time></trkpt><trkpt lat="44.6313413" lon="8.7083181"><ele>240.33333333333334</ele><time>2026-04-20T09:55:16.365Z</time></trkpt><trkpt lat="44.6314427" lon="8.708535"><ele>245.0</ele><time>2026-04-20T09:55:17.368Z</time></trkpt><trkpt lat="44.6315515" lon="8.7087595"><ele>245.0</ele><time>2026-04-20T09:55:18.368Z</time></trkpt><trkpt lat="44.6316586" lon="8.7089894"><ele>245.0</ele><time>2026-04-20T09:55:19.364Z</time></trkpt><trkpt lat="44.6317539" lon="8.7092066"><ele>245.0</ele><time>2026-04-20T09:55:20.369Z</time></trkpt><trkpt lat="44.631792" lon="8.7094295"><ele>246.33333333333334</ele><time>2026-04-20T09:55:21.355Z</time></trkpt><trkpt lat="44.6318341" lon="8.7096875"><ele>247.66666666666669</ele><time>2026-04-20T09:55:22.361Z</time></trkpt><trkpt lat="44.6318572" lon="8.7099497"><ele>249.0</ele><time>2026-04-20T09:55:23.353Z</time></trkpt><trkpt lat="44.6318733" lon="8.7102104"><ele>250.0</ele><time>2026-04-20T09:55:24.359Z</time></trkpt><trkpt lat="44.6318836" lon="8.7104578"><ele>251.0</ele><time>2026-04-20T09:55:25.365Z</time></trkpt><trkpt lat="44.6319019" lon="8.7106923"><ele>252.0</ele><time>2026-04-20T09:55:26.378Z</time></trkpt><trkpt lat="44.6318952" lon="8.7109202"><ele>252.25</ele><time>2026-04-20T09:55:27.386Z</time></trkpt><trkpt lat="44.6318984" lon="8.7111613"><ele>252.5</ele><time>2026-04-20T09:55:28.371Z</time></trkpt><trkpt lat="44.6319359" lon="8.7113117"><ele>252.75</ele><time>2026-04-20T09:55:29.371Z</time></trkpt><trkpt lat="44.6320129" lon="8.7114299"><ele>253.0</ele><time>2026-04-20T09:55:30.355Z</time></trkpt><trkpt lat="44.6320495" lon="8.711551"><ele>256.8</ele><time>2026-04-20T09:55:31.376Z</time></trkpt><trkpt lat="44.6321256" lon="8.7115451"><ele>260.6</ele><time>2026-04-20T09:55:33.37Z</time></trkpt><trkpt lat="44.6321837" lon="8.7114544"><ele>264.4</ele><time>2026-04-20T09:55:34.371Z</time></trkpt><trkpt lat="44.6322214" lon="8.7113216"><ele>268.2</ele><time>2026-04-20T09:55:35.365Z</time></trkpt><trkpt lat="44.63224" lon="8.7111327"><ele>272.0</ele><time>2026-04-20T09:55:36.36Z</time></trkpt><trkpt lat="44.6322355" lon="8.7108751"><ele>273.33333333333337</ele><time>2026-04-20T09:55:37.364Z</time></trkpt><trkpt lat="44.6322195" lon="8.7105849"><ele>274.6666666666667</ele><time>2026-04-20T09:55:38.362Z</time></trkpt><trkpt lat="44.6322244" lon="8.710292"><ele>276.0</ele><time>2026-04-20T09:55:39.367Z</time></trkpt><trkpt lat="44.632256" lon="8.7100264"><ele>276.6666666666667</ele><time>2026-04-20T09:55:40.372Z</time></trkpt><trkpt lat="44.6322678" lon="8.7097881"><ele>277.33333333333337</ele><time>2026-04-20T09:55:41.364Z</time></trkpt><trkpt lat="44.6322672" lon="8.7095687"><ele>278.0</ele><time>2026-04-20T09:55:42.363Z</time></trkpt><trkpt lat="44.6322853" lon="8.709366"><ele>276.75</ele><time>2026-04-20T09:55:43.375Z</time></trkpt><trkpt lat="44.6323072" lon="8.7091774"><ele>275.5</ele><time>2026-04-20T09:55:44.389Z</time></trkpt><trkpt lat="44.6323575" lon="8.709013"><ele>274.25</ele><time>2026-04-20T09:55:45.373Z</time></trkpt><trkpt lat="44.6324424" lon="8.708879"><ele>273.0</ele><time>2026-04-20T09:55:46.376Z</time></trkpt><trkpt lat="44.6325062" lon="8.7087604"><ele>273.0</ele><time>2026-04-20T09:55:47.372Z</time></trkpt><trkpt lat="44.6326259" lon="8.7087264"><ele>273.0</ele><time>2026-04-20T09:55:48.37Z</time></trkpt><trkpt lat="44.63273" lon="8.7087242"><ele>273.0</ele><time>2026-04-20T09:55:49.353Z</time></trkpt><trkpt lat="44.632812" lon="8.7087632"><ele>273.0</ele><time>2026-04-20T09:55:50.37Z</time></trkpt><trkpt lat="44.6328832" lon="8.7088488"><ele>273.0</ele><time>2026-04-20T09:55:51.372Z</time></trkpt><trkpt lat="44.6329361" lon="8.7089983"><ele>275.6</ele><time>2026-04-20T09:55:52.361Z</time></trkpt><trkpt lat="44.632983" lon="8.709139"><ele>278.20000000000005</ele><time>2026-04-20T09:55:53.37Z</time></trkpt><trkpt lat="44.6330214" lon="8.7092709"><ele>280.8</ele><time>2026-04-20T09:55:54.376Z</time></trkpt><trkpt lat="44.6330638" lon="8.7093861"><ele>283.40000000000003</ele><time>2026-04-20T09:55:55.374Z</time></trkpt><trkpt lat="44.6331132" lon="8.7094644"><ele>286.0</ele><time>2026-04-20T09:55:56.364Z</time></trkpt><trkpt lat="44.6332215" lon="8.7095581"><ele>287.5</ele><time>2026-04-20T09:55:58.347Z</time></trkpt><trkpt lat="44.6332935" lon="8.7095725"><ele>289.0</ele><time>2026-04-20T09:55:59.35Z</time></trkpt><trkpt lat="44.6333669" lon="8.7095838"><ele>290.5</ele><time>2026-04-20T09:56:00.349Z</time></trkpt><trkpt lat="44.633437" lon="8.7095746"><ele>292.0</ele><time>2026-04-20T09:56:01.353Z</time></trkpt><trkpt lat="44.6335114" lon="8.709541"><ele>293.5</ele><time>2026-04-20T09:56:02.351Z</time></trkpt><trkpt lat="44.6335816" lon="8.7095006"><ele>295.0</ele><time>2026-04-20T09:56:03.366Z</time></trkpt><trkpt lat="44.6336523" lon="8.7094476"><ele>294.6</ele><time>2026-04-20T09:56:04.364Z</time></trkpt><trkpt lat="44.6337174" lon="8.7093678"><ele>294.2</ele><time>2026-04-20T09:56:05.371Z</time></trkpt><trkpt lat="44.6337691" lon="8.7092996"><ele>293.8</ele><time>2026-04-20T09:56:06.372Z</time></trkpt><trkpt lat="44.6338207" lon="8.709235"><ele>293.4</ele><time>2026-04-20T09:56:07.363Z</time></trkpt><trkpt lat="44.6339193" lon="8.7091658"><ele>293.0</ele><time>2026-04-20T09:56:09.375Z</time></trkpt><trkpt lat="44.6340227" lon="8.7091001"><ele>292.99999999999994</ele><time>2026-04-20T09:56:11.379Z</time></trkpt><trkpt lat="44.6340816" lon="8.7090668"><ele>293.0</ele><time>2026-04-20T09:56:12.384Z</time></trkpt><trkpt lat="44.634179" lon="8.7090469"><ele>293.0</ele><time>2026-04-20T09:56:14.395Z</time></trkpt><trkpt lat="44.6341908" lon="8.7089536"><ele>293.0</ele><time>2026-04-20T09:56:18.385Z</time></trkpt><trkpt lat="44.6341193" lon="8.7089435"><ele>293.0</ele><time>2026-04-20T09:56:21.395Z</time></trkpt><trkpt lat="44.6340613" lon="8.7089794"><ele>292.99999999999994</ele><time>2026-04-20T09:56:22.4Z</time></trkpt><trkpt lat="44.6339966" lon="8.7090122"><ele>293.0</ele><time>2026-04-20T09:56:23.384Z</time></trkpt><trkpt lat="44.6339084" lon="8.7090499"><ele>293.0</ele><time>2026-04-20T09:56:24.377Z</time></trkpt><trkpt lat="44.6338297" lon="8.709086"><ele>293.0</ele><time>2026-04-20T09:56:25.374Z</time></trkpt><trkpt lat="44.6337443" lon="8.709156"><ele>293.0</ele><time>2026-04-20T09:56:26.373Z</time></trkpt><trkpt lat="44.6336756" lon="8.7092277"><ele>293.0</ele><time>2026-04-20T09:56:27.366Z</time></trkpt><trkpt lat="44.6336107" lon="8.7092979"><ele>293.0</ele><time>2026-04-20T09:56:28.368Z</time></trkpt><trkpt lat="44.6335372" lon="8.7093632"><ele>293.0</ele><time>2026-04-20T09:56:29.365Z</time></trkpt><trkpt lat="44.6334742" lon="8.7094192"><ele>293.5</ele><time>2026-04-20T09:56:30.37Z</time></trkpt><trkpt lat="44.6334165" lon="8.7094617"><ele>294.0</ele><time>2026-04-20T09:56:31.369Z</time></trkpt><trkpt lat="44.6333561" lon="8.709507"><ele>294.5</ele><time>2026-04-20T09:56:32.364Z</time></trkpt><trkpt lat="44.6332965" lon="8.70955"><ele>295.0</ele><time>2026-04-20T09:56:33.372Z</time></trkpt><trkpt lat="44.6332292" lon="8.7096247"><ele>295.5</ele><time>2026-04-20T09:56:35.375Z</time></trkpt><trkpt lat="44.6331711" lon="8.7096886"><ele>296.0</ele><time>2026-04-20T09:56:38.365Z</time></trkpt><trkpt lat="44.6331082" lon="8.7098332"><ele>296.0</ele><time>2026-04-20T09:56:40.355Z</time></trkpt><trkpt lat="44.6330549" lon="8.7099662"><ele>296.0</ele><time>2026-04-20T09:56:42.357Z</time></trkpt><trkpt lat="44.6331026" lon="8.710116"><ele>296.0</ele><time>2026-04-20T09:56:44.361Z</time></trkpt><trkpt lat="44.6331289" lon="8.7102202"><ele>296.0</ele><time>2026-04-20T09:56:45.363Z</time></trkpt><trkpt lat="44.6331574" lon="8.7103251"><ele>296.0</ele><time>2026-04-20T09:56:46.356Z</time></trkpt><trkpt lat="44.6331877" lon="8.7104282"><ele>296.6666666666667</ele><time>2026-04-20T09:56:47.374Z</time></trkpt><trkpt lat="44.6332157" lon="8.7105302"><ele>297.33333333333337</ele><time>2026-04-20T09:56:48.363Z</time></trkpt><trkpt lat="44.6332459" lon="8.7106212"><ele>298.0</ele><time>2026-04-20T09:56:49.365Z</time></trkpt><trkpt lat="44.6332993" lon="8.7107386"><ele>298.6666666666667</ele><time>2026-04-20T09:56:51.36Z</time></trkpt><trkpt lat="44.6333376" lon="8.7108555"><ele>299.3333333333333</ele><time>2026-04-20T09:56:53.368Z</time></trkpt><trkpt lat="44.6333729" lon="8.7109513"><ele>300.0</ele><time>2026-04-20T09:56:55.38Z</time></trkpt><trkpt lat="44.6334469" lon="8.7110407"><ele>300.0</ele><time>2026-04-20T09:56:58.355Z</time></trkpt><trkpt lat="44.6335131" lon="8.7110569"><ele>300.0</ele><time>2026-04-20T09:56:59.359Z</time></trkpt><trkpt lat="44.6335774" lon="8.7111135"><ele>300.0</ele><time>2026-04-20T09:57:00.367Z</time></trkpt><trkpt lat="44.633643" lon="8.7111439"><ele>300.0</ele><time>2026-04-20T09:57:01.355Z</time></trkpt><trkpt lat="44.6337066" lon="8.7111934"><ele>300.0</ele><time>2026-04-20T09:57:02.362Z</time></trkpt><trkpt lat="44.6337938" lon="8.7112903"><ele>300.0</ele><time>2026-04-20T09:57:04.364Z</time></trkpt><trkpt lat="44.6338385" lon="8.7113775"><ele>300.2</ele><time>2026-04-20T09:57:08.37Z</time></trkpt><trkpt lat="44.6338773" lon="8.7114874"><ele>300.4</ele><time>2026-04-20T09:57:10.381Z</time></trkpt><trkpt lat="44.6338704" lon="8.7116265"><ele>300.6</ele><time>2026-04-20T09:57:12.361Z</time></trkpt><trkpt lat="44.6338857" lon="8.7118345"><ele>300.8</ele><time>2026-04-20T09:57:14.37Z</time></trkpt><trkpt lat="44.633916" lon="8.7119637"><ele>301.0</ele><time>2026-04-20T09:57:15.373Z</time></trkpt><trkpt lat="44.6339534" lon="8.7120816"><ele>300.6</ele><time>2026-04-20T09:57:16.381Z</time></trkpt><trkpt lat="44.6340047" lon="8.712199"><ele>300.20000000000005</ele><time>2026-04-20T09:57:17.381Z</time></trkpt><trkpt lat="44.6340536" lon="8.7123097"><ele>299.79999999999995</ele><time>2026-04-20T09:57:18.372Z</time></trkpt><trkpt lat="44.6341115" lon="8.7124124"><ele>299.4</ele><time>2026-04-20T09:57:19.365Z</time></trkpt><trkpt lat="44.6341729" lon="8.7125075"><ele>299.0</ele><time>2026-04-20T09:57:20.375Z</time></trkpt><trkpt lat="44.6342379" lon="8.7126009"><ele>299.0</ele><time>2026-04-20T09:57:21.365Z</time></trkpt><trkpt lat="44.6342988" lon="8.7127113"><ele>299.0</ele><time>2026-04-20T09:57:22.376Z</time></trkpt><trkpt lat="44.6343538" lon="8.7128201"><ele>299.0</ele><time>2026-04-20T09:57:23.363Z</time></trkpt><trkpt lat="44.6344073" lon="8.7129304"><ele>299.0</ele><time>2026-04-20T09:57:24.369Z</time></trkpt><trkpt lat="44.6344596" lon="8.7130372"><ele>299.0</ele><time>2026-04-20T09:57:25.376Z</time></trkpt><trkpt lat="44.6345207" lon="8.7131364"><ele>297.5</ele><time>2026-04-20T09:57:26.369Z</time></trkpt><trkpt lat="44.6345838" lon="8.7132352"><ele>296.0</ele><time>2026-04-20T09:57:27.375Z</time></trkpt><trkpt lat="44.6346394" lon="8.7133372"><ele>294.5</ele><time>2026-04-20T09:57:28.371Z</time></trkpt><trkpt lat="44.6346945" lon="8.7134259"><ele>293.0</ele><time>2026-04-20T09:57:29.369Z</time></trkpt><trkpt lat="44.6347478" lon="8.7135039"><ele>291.5</ele><time>2026-04-20T09:57:30.374Z</time></trkpt><trkpt lat="44.6348059" lon="8.7135471"><ele>290.0</ele><time>2026-04-20T09:57:31.375Z</time></trkpt><trkpt lat="44.6348829" lon="8.7135888"><ele>290.0</ele><time>2026-04-20T09:57:32.377Z</time></trkpt><trkpt lat="44.634965" lon="8.7136027"><ele>290.0</ele><time>2026-04-20T09:57:33.365Z</time></trkpt><trkpt lat="44.6350362" lon="8.7136083"><ele>290.0</ele><time>2026-04-20T09:57:34.37Z</time></trkpt><trkpt lat="44.6351369" lon="8.7136177"><ele>290.0</ele><time>2026-04-20T09:57:36.368Z</time></trkpt><trkpt lat="44.6351997" lon="8.7136335"><ele>290.0</ele><time>2026-04-20T09:57:37.364Z</time></trkpt><trkpt lat="44.6352671" lon="8.713642"><ele>290.0</ele><time>2026-04-20T09:57:38.372Z</time></trkpt><trkpt lat="44.6353299" lon="8.7136644"><ele>290.0</ele><time>2026-04-20T09:57:39.375Z</time></trkpt><trkpt lat="44.6353988" lon="8.7136948"><ele>290.0</ele><time>2026-04-20T09:57:40.357Z</time></trkpt><trkpt lat="44.6354777" lon="8.7137741"><ele>290.0</ele><time>2026-04-20T09:57:41.367Z</time></trkpt><trkpt lat="44.6355404" lon="8.7138608"><ele>290.0</ele><time>2026-04-20T09:57:42.372Z</time></trkpt><trkpt lat="44.6355947" lon="8.7139745"><ele>290.0</ele><time>2026-04-20T09:57:43.369Z</time></trkpt><trkpt lat="44.6356581" lon="8.7140759"><ele>290.0</ele><time>2026-04-20T09:57:44.384Z</time></trkpt><trkpt lat="44.6357252" lon="8.714187"><ele>290.0</ele><time>2026-04-20T09:57:45.371Z</time></trkpt><trkpt lat="44.6357925" lon="8.7143036"><ele>290.0</ele><time>2026-04-20T09:57:46.372Z</time></trkpt><trkpt lat="44.6358664" lon="8.7144356"><ele>290.0</ele><time>2026-04-20T09:57:47.364Z</time></trkpt><trkpt lat="44.6359506" lon="8.7145643"><ele>289.0</ele><time>2026-04-20T09:57:48.371Z</time></trkpt><trkpt lat="44.6360233" lon="8.7147163"><ele>288.0</ele><time>2026-04-20T09:57:49.382Z</time></trkpt><trkpt lat="44.6361046" lon="8.7148493"><ele>287.0</ele><time>2026-04-20T09:57:50.376Z</time></trkpt><trkpt lat="44.6361826" lon="8.7149823"><ele>286.0</ele><time>2026-04-20T09:57:51.463Z</time></trkpt><trkpt lat="44.6362574" lon="8.7151118"><ele>288.25</ele><time>2026-04-20T09:57:52.471Z</time></trkpt><trkpt lat="44.636332" lon="8.7152451"><ele>290.5</ele><time>2026-04-20T09:57:53.459Z</time></trkpt><trkpt lat="44.6363966" lon="8.7153906"><ele>292.75</ele><time>2026-04-20T09:57:54.47Z</time></trkpt><trkpt lat="44.6364439" lon="8.7155501"><ele>295.0</ele><time>2026-04-20T09:57:55.47Z</time></trkpt><trkpt lat="44.6364735" lon="8.7157205"><ele>295.0</ele><time>2026-04-20T09:57:56.46Z</time></trkpt><trkpt lat="44.6364794" lon="8.715903"><ele>295.0</ele><time>2026-04-20T09:57:57.456Z</time></trkpt><trkpt lat="44.6364484" lon="8.7160728"><ele>295.0</ele><time>2026-04-20T09:57:58.43Z</time></trkpt><trkpt lat="44.6363854" lon="8.7162208"><ele>295.0</ele><time>2026-04-20T09:57:59.433Z</time></trkpt><trkpt lat="44.6363059" lon="8.7163467"><ele>296.0</ele><time>2026-04-20T09:58:00.439Z</time></trkpt><trkpt lat="44.6361988" lon="8.7164902"><ele>297.0</ele><time>2026-04-20T09:58:01.44Z</time></trkpt><trkpt lat="44.6360998" lon="8.7166432"><ele>298.0</ele><time>2026-04-20T09:58:02.448Z</time></trkpt><trkpt lat="44.6359899" lon="8.7167577"><ele>299.0</ele><time>2026-04-20T09:58:03.457Z</time></trkpt><trkpt lat="44.6358781" lon="8.7168822"><ele>298.5</ele><time>2026-04-20T09:58:04.448Z</time></trkpt><trkpt lat="44.6357756" lon="8.7170258"><ele>298.0</ele><time>2026-04-20T09:58:05.45Z</time></trkpt><trkpt lat="44.6356874" lon="8.7171869"><ele>297.5</ele><time>2026-04-20T09:58:06.448Z</time></trkpt><trkpt lat="44.6356156" lon="8.7173515"><ele>297.0</ele><time>2026-04-20T09:58:07.433Z</time></trkpt><trkpt lat="44.6355516" lon="8.7175"><ele>297.0</ele><time>2026-04-20T09:58:08.445Z</time></trkpt><trkpt lat="44.6354826" lon="8.7176385"><ele>297.0</ele><time>2026-04-20T09:58:09.451Z</time></trkpt><trkpt lat="44.6354274" lon="8.7177685"><ele>297.0</ele><time>2026-04-20T09:58:10.453Z</time></trkpt><trkpt lat="44.635387" lon="8.7178965"><ele>297.0</ele><time>2026-04-20T09:58:11.468Z</time></trkpt><trkpt lat="44.635377" lon="8.7180369"><ele>297.0</ele><time>2026-04-20T09:58:12.455Z</time></trkpt><trkpt lat="44.6353947" lon="8.7181687"><ele>298.0</ele><time>2026-04-20T09:58:13.451Z</time></trkpt><trkpt lat="44.6354312" lon="8.7183095"><ele>299.0</ele><time>2026-04-20T09:58:14.447Z</time></trkpt><trkpt lat="44.6354539" lon="8.7185108"><ele>300.0</ele><time>2026-04-20T09:58:15.347Z</time></trkpt><trkpt lat="44.6355184" lon="8.7187071"><ele>301.0</ele><time>2026-04-20T09:58:16.348Z</time></trkpt><trkpt lat="44.6355608" lon="8.7189111"><ele>299.0</ele><time>2026-04-20T09:58:17.358Z</time></trkpt><trkpt lat="44.6356006" lon="8.7191129"><ele>297.0</ele><time>2026-04-20T09:58:18.363Z</time></trkpt><trkpt lat="44.6356372" lon="8.7193075"><ele>295.0</ele><time>2026-04-20T09:58:19.371Z</time></trkpt><trkpt lat="44.6356719" lon="8.7194914"><ele>293.0</ele><time>2026-04-20T09:58:20.369Z</time></trkpt><trkpt lat="44.6357279" lon="8.7197016"><ele>289.6666666666667</ele><time>2026-04-20T09:58:21.369Z</time></trkpt><trkpt lat="44.6357758" lon="8.7199074"><ele>286.3333333333333</ele><time>2026-04-20T09:58:22.376Z</time></trkpt><trkpt lat="44.6358332" lon="8.7201094"><ele>283.0</ele><time>2026-04-20T09:58:23.371Z</time></trkpt><trkpt lat="44.6359078" lon="8.7203245"><ele>282.0</ele><time>2026-04-20T09:58:24.367Z</time></trkpt><trkpt lat="44.636" lon="8.720543"><ele>281.0</ele><time>2026-04-20T09:58:25.364Z</time></trkpt><trkpt lat="44.6361062" lon="8.7207385"><ele>280.0</ele><time>2026-04-20T09:58:26.358Z</time></trkpt><trkpt lat="44.6362029" lon="8.7209067"><ele>280.0</ele><time>2026-04-20T09:58:27.364Z</time></trkpt><trkpt lat="44.6363121" lon="8.7210632"><ele>280.0</ele><time>2026-04-20T09:58:28.382Z</time></trkpt><trkpt lat="44.6364036" lon="8.7212625"><ele>280.0</ele><time>2026-04-20T09:58:29.373Z</time></trkpt><trkpt lat="44.6364964" lon="8.7214931"><ele>278.0</ele><time>2026-04-20T09:58:30.374Z</time></trkpt><trkpt lat="44.6365664" lon="8.7217453"><ele>276.0</ele><time>2026-04-20T09:58:31.372Z</time></trkpt><trkpt lat="44.6365964" lon="8.722012"><ele>274.0</ele><time>2026-04-20T09:58:32.365Z</time></trkpt><trkpt lat="44.6365736" lon="8.7222732"><ele>273.66666666666663</ele><time>2026-04-20T09:58:33.367Z</time></trkpt><trkpt lat="44.6365523" lon="8.7225388"><ele>273.3333333333333</ele><time>2026-04-20T09:58:34.366Z</time></trkpt><trkpt lat="44.6364944" lon="8.7228222"><ele>273.0</ele><time>2026-04-20T09:58:35.364Z</time></trkpt><trkpt lat="44.6364236" lon="8.7230821"><ele>276.0</ele><time>2026-04-20T09:58:36.366Z</time></trkpt><trkpt lat="44.6363314" lon="8.7233274"><ele>279.0</ele><time>2026-04-20T09:58:37.362Z</time></trkpt><trkpt lat="44.6362194" lon="8.723563"><ele>282.0</ele><time>2026-04-20T09:58:38.366Z</time></trkpt><trkpt lat="44.63611" lon="8.7237836"><ele>283.75</ele><time>2026-04-20T09:58:39.355Z</time></trkpt><trkpt lat="44.6360279" lon="8.7239699"><ele>285.5</ele><time>2026-04-20T09:58:40.347Z</time></trkpt><trkpt lat="44.6359189" lon="8.7241068"><ele>287.25</ele><time>2026-04-20T09:58:41.356Z</time></trkpt><trkpt lat="44.6358087" lon="8.7242312"><ele>289.0</ele><time>2026-04-20T09:58:42.36Z</time></trkpt><trkpt lat="44.6357257" lon="8.7243736"><ele>288.75</ele><time>2026-04-20T09:58:43.358Z</time></trkpt><trkpt lat="44.6356749" lon="8.7245454"><ele>288.5</ele><time>2026-04-20T09:58:44.362Z</time></trkpt><trkpt lat="44.6356726" lon="8.7247249"><ele>288.25</ele><time>2026-04-20T09:58:45.356Z</time></trkpt><trkpt lat="44.635726" lon="8.7248643"><ele>288.0</ele><time>2026-04-20T09:58:46.35Z</time></trkpt><trkpt lat="44.635796" lon="8.7250139"><ele>288.0</ele><time>2026-04-20T09:58:47.35Z</time></trkpt><trkpt lat="44.6358919" lon="8.7251624"><ele>288.0</ele><time>2026-04-20T09:58:48.364Z</time></trkpt><trkpt lat="44.6359933" lon="8.7253444"><ele>288.0</ele><time>2026-04-20T09:58:49.351Z</time></trkpt><trkpt lat="44.6360808" lon="8.7255121"><ele>289.0</ele><time>2026-04-20T09:58:50.367Z</time></trkpt><trkpt lat="44.636149" lon="8.7257007"><ele>290.0</ele><time>2026-04-20T09:58:51.367Z</time></trkpt><trkpt lat="44.6362259" lon="8.7259116"><ele>291.0</ele><time>2026-04-20T09:58:52.364Z</time></trkpt><trkpt lat="44.636314" lon="8.7261383"><ele>289.0</ele><time>2026-04-20T09:58:53.369Z</time></trkpt><trkpt lat="44.6363907" lon="8.7263588"><ele>287.0</ele><time>2026-04-20T09:58:54.358Z</time></trkpt><trkpt lat="44.6364228" lon="8.7265763"><ele>285.0</ele><time>2026-04-20T09:58:55.361Z</time></trkpt><trkpt lat="44.6364367" lon="8.7268097"><ele>285.0</ele><time>2026-04-20T09:58:56.371Z</time></trkpt><trkpt lat="44.636413" lon="8.7270293"><ele>285.0</ele><time>2026-04-20T09:58:57.372Z</time></trkpt><trkpt lat="44.6364022" lon="8.7272487"><ele>285.0</ele><time>2026-04-20T09:58:58.372Z</time></trkpt><trkpt lat="44.6363619" lon="8.7274851"><ele>285.0</ele><time>2026-04-20T09:58:59.368Z</time></trkpt><trkpt lat="44.6363022" lon="8.7276847"><ele>285.0</ele><time>2026-04-20T09:59:00.366Z</time></trkpt><trkpt lat="44.6362304" lon="8.7278875"><ele>285.0</ele><time>2026-04-20T09:59:01.367Z</time></trkpt><trkpt lat="44.6361751" lon="8.7280797"><ele>286.3333333333333</ele><time>2026-04-20T09:59:02.361Z</time></trkpt><trkpt lat="44.636095" lon="8.7282612"><ele>287.66666666666663</ele><time>2026-04-20T09:59:03.364Z</time></trkpt><trkpt lat="44.6360012" lon="8.7284418"><ele>289.0</ele><time>2026-04-20T09:59:04.362Z</time></trkpt><trkpt lat="44.6358737" lon="8.7285807"><ele>293.0</ele><time>2026-04-20T09:59:05.365Z</time></trkpt><trkpt lat="44.6357359" lon="8.7287163"><ele>297.0</ele><time>2026-04-20T09:59:06.362Z</time></trkpt><trkpt lat="44.6356155" lon="8.7288426"><ele>301.0</ele><time>2026-04-20T09:59:07.364Z</time></trkpt><trkpt lat="44.6354924" lon="8.7289564"><ele>301.0</ele><time>2026-04-20T09:59:08.36Z</time></trkpt><trkpt lat="44.6353954" lon="8.7290931"><ele>301.0</ele><time>2026-04-20T09:59:09.359Z</time></trkpt><trkpt lat="44.6353394" lon="8.7292482"><ele>301.0</ele><time>2026-04-20T09:59:10.342Z</time></trkpt><trkpt lat="44.6353022" lon="8.7294077"><ele>301.0</ele><time>2026-04-20T09:59:11.347Z</time></trkpt><trkpt lat="44.6352977" lon="8.729578"><ele>301.5</ele><time>2026-04-20T09:59:12.356Z</time></trkpt><trkpt lat="44.6352897" lon="8.7297248"><ele>302.0</ele><time>2026-04-20T09:59:13.349Z</time></trkpt><trkpt lat="44.635237" lon="8.7298742"><ele>302.5</ele><time>2026-04-20T09:59:14.36Z</time></trkpt><trkpt lat="44.6351716" lon="8.7300429"><ele>303.0</ele><time>2026-04-20T09:59:15.358Z</time></trkpt><trkpt lat="44.6350954" lon="8.7301883"><ele>306.5</ele><time>2026-04-20T09:59:16.368Z</time></trkpt><trkpt lat="44.6349992" lon="8.7303097"><ele>310.0</ele><time>2026-04-20T09:59:17.353Z</time></trkpt><trkpt lat="44.6348768" lon="8.7303803"><ele>313.5</ele><time>2026-04-20T09:59:18.351Z</time></trkpt><trkpt lat="44.6347361" lon="8.7304347"><ele>317.0</ele><time>2026-04-20T09:59:19.351Z</time></trkpt><trkpt lat="44.6345944" lon="8.7304882"><ele>316.25</ele><time>2026-04-20T09:59:20.351Z</time></trkpt><trkpt lat="44.634447" lon="8.7305257"><ele>315.5</ele><time>2026-04-20T09:59:21.352Z</time></trkpt><trkpt lat="44.6343567" lon="8.7305727"><ele>314.75</ele><time>2026-04-20T09:59:22.351Z</time></trkpt><trkpt lat="44.6342567" lon="8.7306377"><ele>314.0</ele><time>2026-04-20T09:59:23.348Z</time></trkpt><trkpt lat="44.6341661" lon="8.73072"><ele>314.0</ele><time>2026-04-20T09:59:24.342Z</time></trkpt><trkpt lat="44.6340903" lon="8.7308295"><ele>314.0</ele><time>2026-04-20T09:59:25.347Z</time></trkpt><trkpt lat="44.6340764" lon="8.7309438"><ele>314.0</ele><time>2026-04-20T09:59:26.35Z</time></trkpt><trkpt lat="44.6340646" lon="8.7310386"><ele>314.0</ele><time>2026-04-20T09:59:27.349Z</time></trkpt><trkpt lat="44.6341046" lon="8.7311368"><ele>314.0</ele><time>2026-04-20T09:59:29.353Z</time></trkpt><trkpt lat="44.6341794" lon="8.7312032"><ele>314.0</ele><time>2026-04-20T09:59:32.355Z</time></trkpt><trkpt lat="44.6342847" lon="8.7312512"><ele>314.4</ele><time>2026-04-20T09:59:34.347Z</time></trkpt><trkpt lat="44.634349" lon="8.7312825"><ele>314.79999999999995</ele><time>2026-04-20T09:59:35.348Z</time></trkpt><trkpt lat="44.6344271" lon="8.7313091"><ele>315.20000000000005</ele><time>2026-04-20T09:59:36.348Z</time></trkpt><trkpt lat="44.6345117" lon="8.731334"><ele>315.6</ele><time>2026-04-20T09:59:37.348Z</time></trkpt><trkpt lat="44.634611" lon="8.7313867"><ele>316.0</ele><time>2026-04-20T09:59:38.353Z</time></trkpt><trkpt lat="44.6347131" lon="8.7314574"><ele>316.0</ele><time>2026-04-20T09:59:39.354Z</time></trkpt><trkpt lat="44.6348256" lon="8.7315067"><ele>316.0</ele><time>2026-04-20T09:59:40.355Z</time></trkpt><trkpt lat="44.6349433" lon="8.7315457"><ele>316.0</ele><time>2026-04-20T09:59:41.346Z</time></trkpt><trkpt lat="44.6350552" lon="8.7315937"><ele>316.0</ele><time>2026-04-20T09:59:42.343Z</time></trkpt><trkpt lat="44.635156" lon="8.7316696"><ele>316.0</ele><time>2026-04-20T09:59:43.348Z</time></trkpt><trkpt lat="44.6352407" lon="8.7317886"><ele>316.0</ele><time>2026-04-20T09:59:44.36Z</time></trkpt><trkpt lat="44.6353007" lon="8.7319506"><ele>316.0</ele><time>2026-04-20T09:59:45.356Z</time></trkpt><trkpt lat="44.6353351" lon="8.7321597"><ele>316.0</ele><time>2026-04-20T09:59:46.37Z</time></trkpt><trkpt lat="44.6353554" lon="8.7323967"><ele>316.0</ele><time>2026-04-20T09:59:47.361Z</time></trkpt><trkpt lat="44.6353866" lon="8.7326316"><ele>316.0</ele><time>2026-04-20T09:59:48.368Z</time></trkpt><trkpt lat="44.6354259" lon="8.7328471"><ele>316.0</ele><time>2026-04-20T09:59:49.366Z</time></trkpt><trkpt lat="44.635454" lon="8.7330721"><ele>313.66666666666663</ele><time>2026-04-20T09:59:50.366Z</time></trkpt><trkpt lat="44.6354819" lon="8.7332808"><ele>311.3333333333333</ele><time>2026-04-20T09:59:51.363Z</time></trkpt><trkpt lat="44.6355138" lon="8.7335105"><ele>309.0</ele><time>2026-04-20T09:59:52.364Z</time></trkpt><trkpt lat="44.635556" lon="8.7337458"><ele>308.6666666666667</ele><time>2026-04-20T09:59:53.362Z</time></trkpt><trkpt lat="44.6356062" lon="8.7339615"><ele>308.33333333333337</ele><time>2026-04-20T09:59:54.365Z</time></trkpt><trkpt lat="44.6356594" lon="8.7341714"><ele>308.0</ele><time>2026-04-20T09:59:55.357Z</time></trkpt><trkpt lat="44.63572" lon="8.7343891"><ele>307.33333333333337</ele><time>2026-04-20T09:59:56.348Z</time></trkpt><trkpt lat="44.6357882" lon="8.7346088"><ele>306.6666666666667</ele><time>2026-04-20T09:59:57.34Z</time></trkpt><trkpt lat="44.6358467" lon="8.7348258"><ele>306.0</ele><time>2026-04-20T09:59:58.343Z</time></trkpt><trkpt lat="44.635918" lon="8.7350602"><ele>305.6666666666667</ele><time>2026-04-20T09:59:59.351Z</time></trkpt><trkpt lat="44.6359613" lon="8.7352671"><ele>305.33333333333337</ele><time>2026-04-20T10:00:00.339Z</time></trkpt><trkpt lat="44.6359909" lon="8.7354877"><ele>305.0</ele><time>2026-04-20T10:00:01.35Z</time></trkpt><trkpt lat="44.635998" lon="8.7357122"><ele>305.0</ele><time>2026-04-20T10:00:02.35Z</time></trkpt><trkpt lat="44.6360053" lon="8.7359392"><ele>305.0</ele><time>2026-04-20T10:00:03.352Z</time></trkpt><trkpt lat="44.6360208" lon="8.7361533"><ele>305.0</ele><time>2026-04-20T10:00:04.346Z</time></trkpt><trkpt lat="44.6360574" lon="8.7363882"><ele>305.33333333333337</ele><time>2026-04-20T10:00:05.339Z</time></trkpt><trkpt lat="44.6361083" lon="8.7366268"><ele>305.6666666666667</ele><time>2026-04-20T10:00:06.339Z</time></trkpt><trkpt lat="44.6361684" lon="8.7368736"><ele>306.0</ele><time>2026-04-20T10:00:07.342Z</time></trkpt><trkpt lat="44.6362428" lon="8.737139"><ele>307.3333333333333</ele><time>2026-04-20T10:00:08.343Z</time></trkpt><trkpt lat="44.6363038" lon="8.7373922"><ele>308.66666666666663</ele><time>2026-04-20T10:00:09.348Z</time></trkpt><trkpt lat="44.6363682" lon="8.7376425"><ele>310.0</ele><time>2026-04-20T10:00:10.351Z</time></trkpt><trkpt lat="44.6364219" lon="8.7378886"><ele>310.0</ele><time>2026-04-20T10:00:11.353Z</time></trkpt><trkpt lat="44.63642" lon="8.7381175"><ele>310.0</ele><time>2026-04-20T10:00:12.351Z</time></trkpt><trkpt lat="44.636384" lon="8.7383407"><ele>310.0</ele><time>2026-04-20T10:00:13.352Z</time></trkpt><trkpt lat="44.6363326" lon="8.7385695"><ele>311.0</ele><time>2026-04-20T10:00:14.358Z</time></trkpt><trkpt lat="44.6362604" lon="8.7388143"><ele>312.0</ele><time>2026-04-20T10:00:15.344Z</time></trkpt><trkpt lat="44.6361664" lon="8.7390408"><ele>313.0</ele><time>2026-04-20T10:00:16.358Z</time></trkpt><trkpt lat="44.6360569" lon="8.7392767"><ele>312.0</ele><time>2026-04-20T10:00:17.356Z</time></trkpt><trkpt lat="44.6359705" lon="8.7395085"><ele>311.0</ele><time>2026-04-20T10:00:18.379Z</time></trkpt><trkpt lat="44.6359161" lon="8.739758"><ele>310.0</ele><time>2026-04-20T10:00:19.352Z</time></trkpt><trkpt lat="44.6358639" lon="8.7400158"><ele>310.3333333333333</ele><time>2026-04-20T10:00:20.359Z</time></trkpt><trkpt lat="44.6358419" lon="8.7402803"><ele>310.6666666666667</ele><time>2026-04-20T10:00:21.362Z</time></trkpt><trkpt lat="44.6358134" lon="8.7405466"><ele>311.0</ele><time>2026-04-20T10:00:22.374Z</time></trkpt><trkpt lat="44.6357705" lon="8.740794"><ele>311.0</ele><time>2026-04-20T10:00:23.453Z</time></trkpt><trkpt lat="44.6357312" lon="8.7410297"><ele>311.0</ele><time>2026-04-20T10:00:24.454Z</time></trkpt><trkpt lat="44.6356979" lon="8.7412538"><ele>311.0</ele><time>2026-04-20T10:00:25.461Z</time></trkpt><trkpt lat="44.6356694" lon="8.7414761"><ele>311.33333333333337</ele><time>2026-04-20T10:00:26.458Z</time></trkpt><trkpt lat="44.6356477" lon="8.741709"><ele>311.6666666666667</ele><time>2026-04-20T10:00:27.46Z</time></trkpt><trkpt lat="44.6356509" lon="8.7419482"><ele>312.0</ele><time>2026-04-20T10:00:28.452Z</time></trkpt><trkpt lat="44.6356728" lon="8.7421811"><ele>312.0</ele><time>2026-04-20T10:00:29.439Z</time></trkpt><trkpt lat="44.6356986" lon="8.7424013"><ele>312.0</ele><time>2026-04-20T10:00:30.452Z</time></trkpt><trkpt lat="44.635727" lon="8.7426125"><ele>312.0</ele><time>2026-04-20T10:00:31.447Z</time></trkpt><trkpt lat="44.6357563" lon="8.7428149"><ele>312.0</ele><time>2026-04-20T10:00:32.436Z</time></trkpt><trkpt lat="44.6357829" lon="8.7430083"><ele>312.0</ele><time>2026-04-20T10:00:33.455Z</time></trkpt><trkpt lat="44.6358255" lon="8.7432047"><ele>312.0</ele><time>2026-04-20T10:00:34.457Z</time></trkpt><trkpt lat="44.6358994" lon="8.7434051"><ele>312.0</ele><time>2026-04-20T10:00:35.448Z</time></trkpt><trkpt lat="44.6359925" lon="8.7436044"><ele>312.0</ele><time>2026-04-20T10:00:36.438Z</time></trkpt><trkpt lat="44.6360976" lon="8.7438002"><ele>312.0</ele><time>2026-04-20T10:00:37.435Z</time></trkpt><trkpt lat="44.6361962" lon="8.7440052"><ele>312.0</ele><time>2026-04-20T10:00:38.44Z</time></trkpt><trkpt lat="44.6363366" lon="8.7444822"><ele>312.3333333333333</ele><time>2026-04-20T10:00:40.341Z</time></trkpt><trkpt lat="44.6363906" lon="8.7447023"><ele>312.66666666666663</ele><time>2026-04-20T10:00:41.352Z</time></trkpt><trkpt lat="44.6364401" lon="8.7449472"><ele>313.0</ele><time>2026-04-20T10:00:42.353Z</time></trkpt><trkpt lat="44.6365022" lon="8.7451698"><ele>313.3333333333333</ele><time>2026-04-20T10:00:43.347Z</time></trkpt><trkpt lat="44.6365387" lon="8.745393"><ele>313.6666666666667</ele><time>2026-04-20T10:00:44.355Z</time></trkpt><trkpt lat="44.6365758" lon="8.7455907"><ele>314.0</ele><time>2026-04-20T10:00:45.348Z</time></trkpt><trkpt lat="44.6366159" lon="8.7457915"><ele>314.0</ele><time>2026-04-20T10:00:46.356Z</time></trkpt><trkpt lat="44.6366559" lon="8.7459968"><ele>314.0</ele><time>2026-04-20T10:00:47.349Z</time></trkpt><trkpt lat="44.6366994" lon="8.7461975"><ele>314.0</ele><time>2026-04-20T10:00:48.347Z</time></trkpt><trkpt lat="44.6367277" lon="8.7464026"><ele>314.0</ele><time>2026-04-20T10:00:49.349Z</time></trkpt><trkpt lat="44.6367743" lon="8.7466046"><ele>314.6666666666667</ele><time>2026-04-20T10:00:50.352Z</time></trkpt><trkpt lat="44.6368309" lon="8.7467851"><ele>315.3333333333333</ele><time>2026-04-20T10:00:51.352Z</time></trkpt><trkpt lat="44.6368825" lon="8.7470001"><ele>316.0</ele><time>2026-04-20T10:00:52.351Z</time></trkpt><trkpt lat="44.6369482" lon="8.7472028"><ele>317.3333333333333</ele><time>2026-04-20T10:00:53.356Z</time></trkpt><trkpt lat="44.6370071" lon="8.7474309"><ele>318.6666666666667</ele><time>2026-04-20T10:00:54.354Z</time></trkpt><trkpt lat="44.6370634" lon="8.7476455"><ele>320.0</ele><time>2026-04-20T10:00:55.353Z</time></trkpt><trkpt lat="44.6371051" lon="8.7478456"><ele>320.0</ele><time>2026-04-20T10:00:56.352Z</time></trkpt><trkpt lat="44.6371512" lon="8.7480495"><ele>320.0</ele><time>2026-04-20T10:00:57.358Z</time></trkpt><trkpt lat="44.6371948" lon="8.7482453"><ele>320.0</ele><time>2026-04-20T10:00:58.363Z</time></trkpt><trkpt lat="44.6372542" lon="8.7484443"><ele>320.75</ele><time>2026-04-20T10:00:59.363Z</time></trkpt><trkpt lat="44.6372936" lon="8.7486298"><ele>321.5</ele><time>2026-04-20T10:01:00.353Z</time></trkpt><trkpt lat="44.6373257" lon="8.7488397"><ele>322.25</ele><time>2026-04-20T10:01:01.359Z</time></trkpt><trkpt lat="44.6373659" lon="8.7490518"><ele>323.0</ele><time>2026-04-20T10:01:02.351Z</time></trkpt><trkpt lat="44.6374322" lon="8.7492888"><ele>323.6666666666667</ele><time>2026-04-20T10:01:03.356Z</time></trkpt><trkpt lat="44.6374744" lon="8.749498"><ele>324.3333333333333</ele><time>2026-04-20T10:01:04.357Z</time></trkpt><trkpt lat="44.637517" lon="8.7497358"><ele>325.0</ele><time>2026-04-20T10:01:05.348Z</time></trkpt><trkpt lat="44.6375624" lon="8.749954"><ele>325.0</ele><time>2026-04-20T10:01:06.349Z</time></trkpt><trkpt lat="44.6375966" lon="8.7501735"><ele>325.0</ele><time>2026-04-20T10:01:07.357Z</time></trkpt><trkpt lat="44.6376346" lon="8.7503935"><ele>325.0</ele><time>2026-04-20T10:01:08.349Z</time></trkpt><trkpt lat="44.6376868" lon="8.7506115"><ele>326.0</ele><time>2026-04-20T10:01:09.369Z</time></trkpt><trkpt lat="44.6377222" lon="8.7508203"><ele>327.0</ele><time>2026-04-20T10:01:10.351Z</time></trkpt><trkpt lat="44.6377778" lon="8.7510244"><ele>328.0</ele><time>2026-04-20T10:01:11.347Z</time></trkpt><trkpt lat="44.637814" lon="8.7512457"><ele>329.66666666666663</ele><time>2026-04-20T10:01:12.355Z</time></trkpt><trkpt lat="44.6378156" lon="8.7514893"><ele>331.3333333333333</ele><time>2026-04-20T10:01:13.343Z</time></trkpt><trkpt lat="44.6377943" lon="8.7517036"><ele>333.0</ele><time>2026-04-20T10:01:14.347Z</time></trkpt><trkpt lat="44.6377618" lon="8.7519061"><ele>334.75</ele><time>2026-04-20T10:01:15.34Z</time></trkpt><trkpt lat="44.6377201" lon="8.752109"><ele>336.5</ele><time>2026-04-20T10:01:16.344Z</time></trkpt><trkpt lat="44.6376601" lon="8.752291"><ele>338.25</ele><time>2026-04-20T10:01:17.348Z</time></trkpt><trkpt lat="44.6376087" lon="8.7524589"><ele>340.0</ele><time>2026-04-20T10:01:18.351Z</time></trkpt><trkpt lat="44.6375799" lon="8.7526415"><ele>340.25</ele><time>2026-04-20T10:01:19.327Z</time></trkpt><trkpt lat="44.6375841" lon="8.7528195"><ele>340.5</ele><time>2026-04-20T10:01:20.341Z</time></trkpt><trkpt lat="44.6376379" lon="8.7529938"><ele>340.75</ele><time>2026-04-20T10:01:21.335Z</time></trkpt><trkpt lat="44.6377024" lon="8.7531679"><ele>341.0</ele><time>2026-04-20T10:01:22.336Z</time></trkpt><trkpt lat="44.6377499" lon="8.7533513"><ele>343.33333333333337</ele><time>2026-04-20T10:01:23.353Z</time></trkpt><trkpt lat="44.6377997" lon="8.7535634"><ele>345.6666666666667</ele><time>2026-04-20T10:01:24.345Z</time></trkpt><trkpt lat="44.6378382" lon="8.7537935"><ele>348.0</ele><time>2026-04-20T10:01:25.342Z</time></trkpt><trkpt lat="44.6378725" lon="8.75401"><ele>348.0</ele><time>2026-04-20T10:01:26.346Z</time></trkpt><trkpt lat="44.6378358" lon="8.754186"><ele>348.0</ele><time>2026-04-20T10:01:27.342Z</time></trkpt><trkpt lat="44.637773" lon="8.7543126"><ele>348.0</ele><time>2026-04-20T10:01:28.344Z</time></trkpt><trkpt lat="44.6376786" lon="8.7544101"><ele>348.0</ele><time>2026-04-20T10:01:29.349Z</time></trkpt><trkpt lat="44.6375606" lon="8.7544687"><ele>349.4</ele><time>2026-04-20T10:01:30.356Z</time></trkpt><trkpt lat="44.6374513" lon="8.7545162"><ele>350.79999999999995</ele><time>2026-04-20T10:01:31.348Z</time></trkpt><trkpt lat="44.6373595" lon="8.754569"><ele>352.2</ele><time>2026-04-20T10:01:32.339Z</time></trkpt><trkpt lat="44.6373264" lon="8.7546963"><ele>353.6</ele><time>2026-04-20T10:01:33.333Z</time></trkpt><trkpt lat="44.6373016" lon="8.7548224"><ele>355.0</ele><time>2026-04-20T10:01:34.349Z</time></trkpt><trkpt lat="44.6373009" lon="8.754928"><ele>355.0</ele><time>2026-04-20T10:01:35.342Z</time></trkpt><trkpt lat="44.6373461" lon="8.7550652"><ele>355.0</ele><time>2026-04-20T10:01:36.346Z</time></trkpt><trkpt lat="44.6374034" lon="8.7552263"><ele>355.0</ele><time>2026-04-20T10:01:37.347Z</time></trkpt><trkpt lat="44.6374569" lon="8.7554021"><ele>355.0</ele><time>2026-04-20T10:01:38.357Z</time></trkpt><trkpt lat="44.6374938" lon="8.7555843"><ele>356.5</ele><time>2026-04-20T10:01:39.343Z</time></trkpt><trkpt lat="44.6375219" lon="8.7557515"><ele>358.0</ele><time>2026-04-20T10:01:40.348Z</time></trkpt><trkpt lat="44.6375295" lon="8.7559027"><ele>359.5</ele><time>2026-04-20T10:01:41.359Z</time></trkpt><trkpt lat="44.6375052" lon="8.7560574"><ele>361.0</ele><time>2026-04-20T10:01:42.343Z</time></trkpt><trkpt lat="44.6374544" lon="8.7562037"><ele>361.20000000000005</ele><time>2026-04-20T10:01:43.341Z</time></trkpt><trkpt lat="44.6373919" lon="8.7563156"><ele>361.40000000000003</ele><time>2026-04-20T10:01:44.341Z</time></trkpt><trkpt lat="44.63735" lon="8.756417"><ele>361.6</ele><time>2026-04-20T10:01:45.332Z</time></trkpt><trkpt lat="44.637355" lon="8.75657"><ele>361.8</ele><time>2026-04-20T10:01:47.333Z</time></trkpt><trkpt lat="44.6372969" lon="8.7566972"><ele>362.0</ele><time>2026-04-20T10:01:49.323Z</time></trkpt><trkpt lat="44.6372138" lon="8.7567882"><ele>360.75</ele><time>2026-04-20T10:01:50.339Z</time></trkpt><trkpt lat="44.6371068" lon="8.756888"><ele>359.5</ele><time>2026-04-20T10:01:51.337Z</time></trkpt><trkpt lat="44.6369837" lon="8.7569887"><ele>358.25</ele><time>2026-04-20T10:01:52.341Z</time></trkpt><trkpt lat="44.6368649" lon="8.7570783"><ele>357.0</ele><time>2026-04-20T10:01:53.341Z</time></trkpt><trkpt lat="44.6367436" lon="8.7571512"><ele>357.0</ele><time>2026-04-20T10:01:54.346Z</time></trkpt><trkpt lat="44.6366147" lon="8.7572263"><ele>357.0</ele><time>2026-04-20T10:01:55.345Z</time></trkpt><trkpt lat="44.6364759" lon="8.7572923"><ele>357.0</ele><time>2026-04-20T10:01:56.344Z</time></trkpt><trkpt lat="44.636332" lon="8.7573368"><ele>357.0</ele><time>2026-04-20T10:01:57.358Z</time></trkpt><trkpt lat="44.6361902" lon="8.7573859"><ele>356.5</ele><time>2026-04-20T10:01:58.361Z</time></trkpt><trkpt lat="44.636051" lon="8.7574295"><ele>356.0</ele><time>2026-04-20T10:01:59.351Z</time></trkpt><trkpt lat="44.6359057" lon="8.7573967"><ele>355.5</ele><time>2026-04-20T10:02:00.348Z</time></trkpt><trkpt lat="44.6357617" lon="8.7573408"><ele>355.0</ele><time>2026-04-20T10:02:01.344Z</time></trkpt><trkpt lat="44.6356209" lon="8.7572746"><ele>355.0</ele><time>2026-04-20T10:02:02.353Z</time></trkpt><trkpt lat="44.6354972" lon="8.7572169"><ele>355.0</ele><time>2026-04-20T10:02:03.345Z</time></trkpt><trkpt lat="44.6353864" lon="8.757193"><ele>355.0</ele><time>2026-04-20T10:02:04.342Z</time></trkpt><trkpt lat="44.6352907" lon="8.757174"><ele>355.0</ele><time>2026-04-20T10:02:05.327Z</time></trkpt><trkpt lat="44.6351799" lon="8.7571926"><ele>356.3333333333333</ele><time>2026-04-20T10:02:06.339Z</time></trkpt><trkpt lat="44.635026" lon="8.7572967"><ele>357.6666666666667</ele><time>2026-04-20T10:02:07.328Z</time></trkpt><trkpt lat="44.634876" lon="8.7573863"><ele>359.0</ele><time>2026-04-20T10:02:08.339Z</time></trkpt><trkpt lat="44.6347228" lon="8.7574377"><ele>359.0</ele><time>2026-04-20T10:02:09.329Z</time></trkpt><trkpt lat="44.6345529" lon="8.7574672"><ele>359.0</ele><time>2026-04-20T10:02:10.33Z</time></trkpt><trkpt lat="44.6344131" lon="8.7575263"><ele>359.0</ele><time>2026-04-20T10:02:11.334Z</time></trkpt><trkpt lat="44.6342826" lon="8.7576366"><ele>359.25</ele><time>2026-04-20T10:02:12.341Z</time></trkpt><trkpt lat="44.6341701" lon="8.7577648"><ele>359.5</ele><time>2026-04-20T10:02:13.335Z</time></trkpt><trkpt lat="44.6340667" lon="8.7578732"><ele>359.75</ele><time>2026-04-20T10:02:14.337Z</time></trkpt><trkpt lat="44.6339637" lon="8.757989"><ele>360.0</ele><time>2026-04-20T10:02:15.325Z</time></trkpt><trkpt lat="44.6338709" lon="8.7580834"><ele>360.0</ele><time>2026-04-20T10:02:16.342Z</time></trkpt><trkpt lat="44.633762" lon="8.7581643"><ele>360.0</ele><time>2026-04-20T10:02:17.339Z</time></trkpt><trkpt lat="44.6336475" lon="8.7582031"><ele>360.0</ele><time>2026-04-20T10:02:18.334Z</time></trkpt><trkpt lat="44.6335325" lon="8.7582112"><ele>360.0</ele><time>2026-04-20T10:02:19.335Z</time></trkpt><trkpt lat="44.6333994" lon="8.7582717"><ele>362.0</ele><time>2026-04-20T10:02:20.331Z</time></trkpt><trkpt lat="44.6332736" lon="8.7583671"><ele>364.0</ele><time>2026-04-20T10:02:21.33Z</time></trkpt><trkpt lat="44.6331704" lon="8.758514"><ele>366.0</ele><time>2026-04-20T10:02:22.331Z</time></trkpt><trkpt lat="44.6331044" lon="8.7586644"><ele>368.0</ele><time>2026-04-20T10:02:23.325Z</time></trkpt><trkpt lat="44.6330781" lon="8.75881"><ele>368.0</ele><time>2026-04-20T10:02:24.336Z</time></trkpt><trkpt lat="44.6330988" lon="8.7589513"><ele>368.0</ele><time>2026-04-20T10:02:25.315Z</time></trkpt><trkpt lat="44.6331668" lon="8.7590948"><ele>368.0</ele><time>2026-04-20T10:02:26.328Z</time></trkpt><trkpt lat="44.6332826" lon="8.7592172"><ele>368.0</ele><time>2026-04-20T10:02:27.329Z</time></trkpt><trkpt lat="44.6334264" lon="8.759296"><ele>368.0</ele><time>2026-04-20T10:02:28.325Z</time></trkpt><trkpt lat="44.633552" lon="8.7593192"><ele>368.0</ele><time>2026-04-20T10:02:29.322Z</time></trkpt><trkpt lat="44.6336813" lon="8.7593503"><ele>368.0</ele><time>2026-04-20T10:02:30.313Z</time></trkpt><trkpt lat="44.6337926" lon="8.7594243"><ele>368.0</ele><time>2026-04-20T10:02:31.322Z</time></trkpt><trkpt lat="44.633884" lon="8.7595077"><ele>366.5</ele><time>2026-04-20T10:02:32.319Z</time></trkpt><trkpt lat="44.6339752" lon="8.7596253"><ele>365.0</ele><time>2026-04-20T10:02:33.326Z</time></trkpt><trkpt lat="44.6340469" lon="8.7597975"><ele>363.5</ele><time>2026-04-20T10:02:34.333Z</time></trkpt><trkpt lat="44.634127" lon="8.7599599"><ele>362.0</ele><time>2026-04-20T10:02:35.341Z</time></trkpt><trkpt lat="44.6341952" lon="8.7601338"><ele>363.33333333333337</ele><time>2026-04-20T10:02:36.348Z</time></trkpt><trkpt lat="44.6342316" lon="8.7603443"><ele>364.6666666666667</ele><time>2026-04-20T10:02:37.334Z</time></trkpt><trkpt lat="44.6342709" lon="8.7605621"><ele>366.0</ele><time>2026-04-20T10:02:38.345Z</time></trkpt><trkpt lat="44.6342873" lon="8.7607575"><ele>366.0</ele><time>2026-04-20T10:02:39.34Z</time></trkpt><trkpt lat="44.6343299" lon="8.7609476"><ele>366.0</ele><time>2026-04-20T10:02:40.35Z</time></trkpt><trkpt lat="44.6343726" lon="8.7611269"><ele>366.0</ele><time>2026-04-20T10:02:41.331Z</time></trkpt><trkpt lat="44.6343884" lon="8.7612993"><ele>366.0</ele><time>2026-04-20T10:02:42.33Z</time></trkpt><trkpt lat="44.6343808" lon="8.7614598"><ele>364.75</ele><time>2026-04-20T10:02:43.355Z</time></trkpt><trkpt lat="44.6343439" lon="8.7616057"><ele>363.5</ele><time>2026-04-20T10:02:44.332Z</time></trkpt><trkpt lat="44.6342522" lon="8.7616984"><ele>362.25</ele><time>2026-04-20T10:02:45.353Z</time></trkpt><trkpt lat="44.634131" lon="8.7617587"><ele>361.0</ele><time>2026-04-20T10:02:46.343Z</time></trkpt><trkpt lat="44.6340372" lon="8.7618362"><ele>360.4</ele><time>2026-04-20T10:02:47.339Z</time></trkpt><trkpt lat="44.6339707" lon="8.7619553"><ele>359.8</ele><time>2026-04-20T10:02:48.335Z</time></trkpt><trkpt lat="44.6339464" lon="8.7621157"><ele>359.2</ele><time>2026-04-20T10:02:49.344Z</time></trkpt><trkpt lat="44.6339178" lon="8.7622555"><ele>358.59999999999997</ele><time>2026-04-20T10:02:50.337Z</time></trkpt><trkpt lat="44.6339118" lon="8.7623835"><ele>358.0</ele><time>2026-04-20T10:02:51.339Z</time></trkpt><trkpt lat="44.6339452" lon="8.7624894"><ele>358.0</ele><time>2026-04-20T10:02:52.331Z</time></trkpt><trkpt lat="44.6340091" lon="8.7625807"><ele>358.0</ele><time>2026-04-20T10:02:53.336Z</time></trkpt><trkpt lat="44.6341214" lon="8.7626568"><ele>358.0</ele><time>2026-04-20T10:02:54.345Z</time></trkpt><trkpt lat="44.6342469" lon="8.7627375"><ele>358.0</ele><time>2026-04-20T10:02:55.332Z</time></trkpt><trkpt lat="44.6343788" lon="8.762816"><ele>359.5</ele><time>2026-04-20T10:02:56.337Z</time></trkpt><trkpt lat="44.6345118" lon="8.7628876"><ele>361.0</ele><time>2026-04-20T10:02:57.343Z</time></trkpt><trkpt lat="44.6346387" lon="8.7629773"><ele>362.5</ele><time>2026-04-20T10:02:58.346Z</time></trkpt><trkpt lat="44.6347544" lon="8.7630765"><ele>364.0</ele><time>2026-04-20T10:02:59.335Z</time></trkpt><trkpt lat="44.6348436" lon="8.7631481"><ele>364.0</ele><time>2026-04-20T10:03:00.341Z</time></trkpt><trkpt lat="44.6349312" lon="8.7632473"><ele>364.0</ele><time>2026-04-20T10:03:01.342Z</time></trkpt><trkpt lat="44.6349908" lon="8.7633276"><ele>364.0</ele><time>2026-04-20T10:03:02.342Z</time></trkpt><trkpt lat="44.635029" lon="8.7634106"><ele>364.0</ele><time>2026-04-20T10:03:03.339Z</time></trkpt><trkpt lat="44.6350527" lon="8.76351"><ele>364.0</ele><time>2026-04-20T10:03:04.345Z</time></trkpt><trkpt lat="44.6350831" lon="8.7636056"><ele>364.0</ele><time>2026-04-20T10:03:05.333Z</time></trkpt><trkpt lat="44.6351214" lon="8.7637111"><ele>363.5</ele><time>2026-04-20T10:03:06.341Z</time></trkpt><trkpt lat="44.6351732" lon="8.7638123"><ele>363.0</ele><time>2026-04-20T10:03:07.346Z</time></trkpt><trkpt lat="44.6352346" lon="8.7639017"><ele>362.5</ele><time>2026-04-20T10:03:08.363Z</time></trkpt><trkpt lat="44.6353123" lon="8.7639747"><ele>362.0</ele><time>2026-04-20T10:03:09.357Z</time></trkpt><trkpt lat="44.6353803" lon="8.7640288"><ele>361.5</ele><time>2026-04-20T10:03:10.349Z</time></trkpt><trkpt lat="44.6354372" lon="8.7640746"><ele>361.0</ele><time>2026-04-20T10:03:11.361Z</time></trkpt><trkpt lat="44.6355147" lon="8.7641567"><ele>361.0</ele><time>2026-04-20T10:03:13.358Z</time></trkpt><trkpt lat="44.635609" lon="8.7642371"><ele>361.0</ele><time>2026-04-20T10:03:15.35Z</time></trkpt><trkpt lat="44.6356763" lon="8.7642761"><ele>361.0</ele><time>2026-04-20T10:03:16.362Z</time></trkpt><trkpt lat="44.6357515" lon="8.7643288"><ele>361.0</ele><time>2026-04-20T10:03:17.358Z</time></trkpt><trkpt lat="44.6358129" lon="8.7643817"><ele>361.0</ele><time>2026-04-20T10:03:18.364Z</time></trkpt><trkpt lat="44.6358772" lon="8.7644478"><ele>361.0</ele><time>2026-04-20T10:03:19.364Z</time></trkpt><trkpt lat="44.6359281" lon="8.7645297"><ele>361.66666666666663</ele><time>2026-04-20T10:03:20.354Z</time></trkpt><trkpt lat="44.6359783" lon="8.7646345"><ele>362.3333333333333</ele><time>2026-04-20T10:03:21.366Z</time></trkpt><trkpt lat="44.6360058" lon="8.7647449"><ele>363.0</ele><time>2026-04-20T10:03:22.359Z</time></trkpt><trkpt lat="44.6359979" lon="8.7648535"><ele>363.6666666666667</ele><time>2026-04-20T10:03:23.361Z</time></trkpt><trkpt lat="44.6359711" lon="8.7649559"><ele>364.33333333333337</ele><time>2026-04-20T10:03:24.366Z</time></trkpt><trkpt lat="44.6359113" lon="8.7650612"><ele>365.0</ele><time>2026-04-20T10:03:25.353Z</time></trkpt><trkpt lat="44.6358312" lon="8.7651863"><ele>363.6666666666667</ele><time>2026-04-20T10:03:26.347Z</time></trkpt><trkpt lat="44.6357441" lon="8.7653328"><ele>362.3333333333333</ele><time>2026-04-20T10:03:27.348Z</time></trkpt><trkpt lat="44.6356383" lon="8.7654969"><ele>361.0</ele><time>2026-04-20T10:03:28.37Z</time></trkpt><trkpt lat="44.6355117" lon="8.7656417"><ele>361.0</ele><time>2026-04-20T10:03:29.365Z</time></trkpt><trkpt lat="44.6354038" lon="8.7657659"><ele>361.0</ele><time>2026-04-20T10:03:30.368Z</time></trkpt><trkpt lat="44.6353026" lon="8.7658853"><ele>361.0</ele><time>2026-04-20T10:03:31.368Z</time></trkpt><trkpt lat="44.635193" lon="8.7659866"><ele>361.0</ele><time>2026-04-20T10:03:32.358Z</time></trkpt><trkpt lat="44.6350921" lon="8.7660828"><ele>362.8</ele><time>2026-04-20T10:03:33.369Z</time></trkpt><trkpt lat="44.6350317" lon="8.7661551"><ele>364.6</ele><time>2026-04-20T10:03:34.36Z</time></trkpt><trkpt lat="44.6349771" lon="8.7662585"><ele>366.4</ele><time>2026-04-20T10:03:35.339Z</time></trkpt><trkpt lat="44.6349396" lon="8.7663944"><ele>368.2</ele><time>2026-04-20T10:03:36.351Z</time></trkpt><trkpt lat="44.6349541" lon="8.7665546"><ele>370.0</ele><time>2026-04-20T10:03:37.341Z</time></trkpt><trkpt lat="44.6350177" lon="8.766708"><ele>370.0</ele><time>2026-04-20T10:03:38.35Z</time></trkpt><trkpt lat="44.6351163" lon="8.766849"><ele>370.0</ele><time>2026-04-20T10:03:39.336Z</time></trkpt><trkpt lat="44.6351951" lon="8.7669828"><ele>370.0</ele><time>2026-04-20T10:03:40.344Z</time></trkpt><trkpt lat="44.6352853" lon="8.7671364"><ele>370.0</ele><time>2026-04-20T10:03:41.35Z</time></trkpt><trkpt lat="44.6353545" lon="8.7672887"><ele>368.6</ele><time>2026-04-20T10:03:42.349Z</time></trkpt><trkpt lat="44.6354201" lon="8.7674612"><ele>367.2</ele><time>2026-04-20T10:03:43.353Z</time></trkpt><trkpt lat="44.6354457" lon="8.7676049"><ele>365.79999999999995</ele><time>2026-04-20T10:03:44.358Z</time></trkpt><trkpt lat="44.6354335" lon="8.7677312"><ele>364.4</ele><time>2026-04-20T10:03:45.36Z</time></trkpt><trkpt lat="44.6353762" lon="8.7678368"><ele>363.0</ele><time>2026-04-20T10:03:46.336Z</time></trkpt><trkpt lat="44.6352774" lon="8.7678757"><ele>363.0</ele><time>2026-04-20T10:03:47.356Z</time></trkpt><trkpt lat="44.6351651" lon="8.7679514"><ele>363.0</ele><time>2026-04-20T10:03:48.366Z</time></trkpt><trkpt lat="44.6350471" lon="8.767995"><ele>363.0</ele><time>2026-04-20T10:03:49.359Z</time></trkpt><trkpt lat="44.6349348" lon="8.7680393"><ele>363.0</ele><time>2026-04-20T10:03:50.355Z</time></trkpt><trkpt lat="44.6348399" lon="8.7681163"><ele>363.0</ele><time>2026-04-20T10:03:51.349Z</time></trkpt><trkpt lat="44.6347708" lon="8.7682329"><ele>363.0</ele><time>2026-04-20T10:03:52.348Z</time></trkpt><trkpt lat="44.6347276" lon="8.7683793"><ele>363.0</ele><time>2026-04-20T10:03:53.33Z</time></trkpt><trkpt lat="44.6347212" lon="8.7685251"><ele>363.0</ele><time>2026-04-20T10:03:54.326Z</time></trkpt><trkpt lat="44.6347559" lon="8.7686638"><ele>363.0</ele><time>2026-04-20T10:03:55.342Z</time></trkpt><trkpt lat="44.6348365" lon="8.7687576"><ele>362.0</ele><time>2026-04-20T10:03:56.33Z</time></trkpt><trkpt lat="44.634951" lon="8.7688304"><ele>361.0</ele><time>2026-04-20T10:03:57.345Z</time></trkpt><trkpt lat="44.6351007" lon="8.7688904"><ele>360.0</ele><time>2026-04-20T10:03:58.337Z</time></trkpt><trkpt lat="44.6352456" lon="8.7689381"><ele>359.0</ele><time>2026-04-20T10:03:59.333Z</time></trkpt><trkpt lat="44.635399" lon="8.7689431"><ele>359.0</ele><time>2026-04-20T10:04:00.338Z</time></trkpt><trkpt lat="44.6355297" lon="8.7689069"><ele>359.0</ele><time>2026-04-20T10:04:01.33Z</time></trkpt><trkpt lat="44.6356328" lon="8.7689015"><ele>359.0</ele><time>2026-04-20T10:04:02.343Z</time></trkpt><trkpt lat="44.6357162" lon="8.7689366"><ele>359.0</ele><time>2026-04-20T10:04:03.36Z</time></trkpt><trkpt lat="44.6357499" lon="8.7690476"><ele>359.0</ele><time>2026-04-20T10:04:04.36Z</time></trkpt><trkpt lat="44.635748" lon="8.769203"><ele>360.33333333333337</ele><time>2026-04-20T10:04:05.345Z</time></trkpt><trkpt lat="44.6357135" lon="8.7694071"><ele>361.6666666666667</ele><time>2026-04-20T10:04:06.336Z</time></trkpt><trkpt lat="44.6356666" lon="8.7696591"><ele>363.0</ele><time>2026-04-20T10:04:07.336Z</time></trkpt><trkpt lat="44.6356108" lon="8.769895"><ele>363.0</ele><time>2026-04-20T10:04:08.345Z</time></trkpt><trkpt lat="44.6355594" lon="8.7701463"><ele>363.0</ele><time>2026-04-20T10:04:09.338Z</time></trkpt><trkpt lat="44.6355797" lon="8.7703543"><ele>363.0</ele><time>2026-04-20T10:04:10.339Z</time></trkpt><trkpt lat="44.6356205" lon="8.7705395"><ele>366.0</ele><time>2026-04-20T10:04:11.347Z</time></trkpt><trkpt lat="44.6357114" lon="8.7707501"><ele>369.0</ele><time>2026-04-20T10:04:12.345Z</time></trkpt><trkpt lat="44.6357828" lon="8.7709498"><ele>372.0</ele><time>2026-04-20T10:04:13.332Z</time></trkpt><trkpt lat="44.635855" lon="8.7711054"><ele>373.5</ele><time>2026-04-20T10:04:14.337Z</time></trkpt><trkpt lat="44.6358518" lon="8.7712728"><ele>375.0</ele><time>2026-04-20T10:04:15.345Z</time></trkpt><trkpt lat="44.6358527" lon="8.7714664"><ele>376.5</ele><time>2026-04-20T10:04:16.342Z</time></trkpt><trkpt lat="44.6358275" lon="8.7716893"><ele>378.0</ele><time>2026-04-20T10:04:17.346Z</time></trkpt><trkpt lat="44.6358116" lon="8.7719109"><ele>378.75</ele><time>2026-04-20T10:04:18.341Z</time></trkpt><trkpt lat="44.6358093" lon="8.7721235"><ele>379.5</ele><time>2026-04-20T10:04:19.347Z</time></trkpt><trkpt lat="44.6358225" lon="8.7723015"><ele>380.25</ele><time>2026-04-20T10:04:20.345Z</time></trkpt><trkpt lat="44.635824" lon="8.77246"><ele>381.0</ele><time>2026-04-20T10:04:21.337Z</time></trkpt><trkpt lat="44.6358356" lon="8.7725938"><ele>378.5</ele><time>2026-04-20T10:04:22.34Z</time></trkpt><trkpt lat="44.6358072" lon="8.7727024"><ele>376.0</ele><time>2026-04-20T10:04:23.338Z</time></trkpt><trkpt lat="44.6356906" lon="8.7728519"><ele>373.5</ele><time>2026-04-20T10:04:24.333Z</time></trkpt><trkpt lat="44.6355901" lon="8.7730561"><ele>371.0</ele><time>2026-04-20T10:04:25.341Z</time></trkpt><trkpt lat="44.6354691" lon="8.7732064"><ele>371.0</ele><time>2026-04-20T10:04:26.353Z</time></trkpt><trkpt lat="44.6353378" lon="8.7733482"><ele>371.0</ele><time>2026-04-20T10:04:27.352Z</time></trkpt><trkpt lat="44.6351961" lon="8.7734418"><ele>371.0</ele><time>2026-04-20T10:04:28.357Z</time></trkpt><trkpt lat="44.6350541" lon="8.77352"><ele>373.6</ele><time>2026-04-20T10:04:29.352Z</time></trkpt><trkpt lat="44.6349261" lon="8.7735915"><ele>376.20000000000005</ele><time>2026-04-20T10:04:30.346Z</time></trkpt><trkpt lat="44.6348204" lon="8.7736615"><ele>378.79999999999995</ele><time>2026-04-20T10:04:31.35Z</time></trkpt><trkpt lat="44.6347468" lon="8.7737322"><ele>381.4</ele><time>2026-04-20T10:04:32.345Z</time></trkpt><trkpt lat="44.6346971" lon="8.7738185"><ele>384.0</ele><time>2026-04-20T10:04:33.349Z</time></trkpt><trkpt lat="44.6346926" lon="8.7739383"><ele>384.0</ele><time>2026-04-20T10:04:34.34Z</time></trkpt><trkpt lat="44.6347266" lon="8.7740477"><ele>384.0</ele><time>2026-04-20T10:04:35.343Z</time></trkpt><trkpt lat="44.6348163" lon="8.7741395"><ele>384.0</ele><time>2026-04-20T10:04:36.331Z</time></trkpt><trkpt lat="44.6349196" lon="8.7741987"><ele>384.0</ele><time>2026-04-20T10:04:37.335Z</time></trkpt><trkpt lat="44.6350166" lon="8.7742684"><ele>384.0</ele><time>2026-04-20T10:04:38.345Z</time></trkpt><trkpt lat="44.6350958" lon="8.7743396"><ele>383.4</ele><time>2026-04-20T10:04:39.345Z</time></trkpt><trkpt lat="44.6351461" lon="8.7744244"><ele>382.79999999999995</ele><time>2026-04-20T10:04:40.355Z</time></trkpt><trkpt lat="44.6350988" lon="8.774542"><ele>382.20000000000005</ele><time>2026-04-20T10:04:41.354Z</time></trkpt><trkpt lat="44.6350088" lon="8.7746592"><ele>381.6</ele><time>2026-04-20T10:04:42.331Z</time></trkpt><trkpt lat="44.6348939" lon="8.7747857"><ele>381.0</ele><time>2026-04-20T10:04:43.356Z</time></trkpt><trkpt lat="44.6347879" lon="8.7749189"><ele>381.0</ele><time>2026-04-20T10:04:44.346Z</time></trkpt><trkpt lat="44.6346825" lon="8.7750455"><ele>381.0</ele><time>2026-04-20T10:04:45.344Z</time></trkpt><trkpt lat="44.634565" lon="8.7751379"><ele>381.0</ele><time>2026-04-20T10:04:46.353Z</time></trkpt><trkpt lat="44.6344306" lon="8.7751937"><ele>381.0</ele><time>2026-04-20T10:04:47.341Z</time></trkpt><trkpt lat="44.6343136" lon="8.7752403"><ele>384.4</ele><time>2026-04-20T10:04:48.342Z</time></trkpt><trkpt lat="44.6341991" lon="8.7752767"><ele>387.8</ele><time>2026-04-20T10:04:49.339Z</time></trkpt><trkpt lat="44.6341259" lon="8.7753602"><ele>391.2</ele><time>2026-04-20T10:04:50.345Z</time></trkpt><trkpt lat="44.6340923" lon="8.7754755"><ele>394.59999999999997</ele><time>2026-04-20T10:04:51.345Z</time></trkpt><trkpt lat="44.6340856" lon="8.7756243"><ele>398.0</ele><time>2026-04-20T10:04:52.336Z</time></trkpt><trkpt lat="44.6340597" lon="8.7758347"><ele>396.5</ele><time>2026-04-20T10:04:53.345Z</time></trkpt><trkpt lat="44.6340669" lon="8.7760379"><ele>395.0</ele><time>2026-04-20T10:04:54.352Z</time></trkpt><trkpt lat="44.6341119" lon="8.7762161"><ele>393.5</ele><time>2026-04-20T10:04:55.363Z</time></trkpt><trkpt lat="44.6341523" lon="8.7763726"><ele>392.0</ele><time>2026-04-20T10:04:56.354Z</time></trkpt><trkpt lat="44.6341596" lon="8.7765127"><ele>392.0</ele><time>2026-04-20T10:04:57.35Z</time></trkpt><trkpt lat="44.6341273" lon="8.776615"><ele>392.0</ele><time>2026-04-20T10:04:58.357Z</time></trkpt><trkpt lat="44.6340498" lon="8.7767056"><ele>392.0</ele><time>2026-04-20T10:04:59.346Z</time></trkpt><trkpt lat="44.6339435" lon="8.7767784"><ele>392.0</ele><time>2026-04-20T10:05:00.348Z</time></trkpt><trkpt lat="44.6338165" lon="8.776823"><ele>392.0</ele><time>2026-04-20T10:05:01.337Z</time></trkpt><trkpt lat="44.6336835" lon="8.7768453"><ele>395.6</ele><time>2026-04-20T10:05:02.349Z</time></trkpt><trkpt lat="44.6335494" lon="8.7768648"><ele>399.20000000000005</ele><time>2026-04-20T10:05:03.351Z</time></trkpt><trkpt lat="44.6334363" lon="8.7769126"><ele>402.8</ele><time>2026-04-20T10:05:04.352Z</time></trkpt><trkpt lat="44.6333611" lon="8.7769943"><ele>406.4</ele><time>2026-04-20T10:05:05.342Z</time></trkpt><trkpt lat="44.6333133" lon="8.7770887"><ele>410.0</ele><time>2026-04-20T10:05:06.355Z</time></trkpt><trkpt lat="44.6333184" lon="8.7772134"><ele>410.0</ele><time>2026-04-20T10:05:07.336Z</time></trkpt><trkpt lat="44.6333306" lon="8.7773536"><ele>410.0</ele><time>2026-04-20T10:05:08.355Z</time></trkpt><trkpt lat="44.6333126" lon="8.7775119"><ele>410.0</ele><time>2026-04-20T10:05:09.357Z</time></trkpt><trkpt lat="44.6332631" lon="8.7776762"><ele>410.0</ele><time>2026-04-20T10:05:10.354Z</time></trkpt><trkpt lat="44.6331879" lon="8.7778174"><ele>411.25</ele><time>2026-04-20T10:05:11.344Z</time></trkpt><trkpt lat="44.6330942" lon="8.7779096"><ele>412.5</ele><time>2026-04-20T10:05:12.353Z</time></trkpt><trkpt lat="44.6330045" lon="8.7779867"><ele>413.75</ele><time>2026-04-20T10:05:13.337Z</time></trkpt><trkpt lat="44.6328794" lon="8.7781608"><ele>415.0</ele><time>2026-04-20T10:05:15.338Z</time></trkpt><trkpt lat="44.63473" lon="8.7793398"><ele>407.0</ele><time>2026-04-20T10:05:36.343Z</time></trkpt><trkpt lat="44.6371129" lon="8.781319"><ele>419.0</ele><time>2026-04-20T10:05:59.365Z</time></trkpt><trkpt lat="44.6386294" lon="8.7844669"><ele>387.0</ele><time>2026-04-20T10:06:40.355Z</time></trkpt><trkpt lat="44.6409159" lon="8.7868288"><ele>377.0</ele><time>2026-04-20T10:07:05.354Z</time></trkpt><trkpt lat="44.6431871" lon="8.7890215"><ele>358.0</ele><time>2026-04-20T10:07:26.341Z</time></trkpt><trkpt lat="44.6458414" lon="8.7897723"><ele>343.0</ele><time>2026-04-20T10:08:01.345Z</time></trkpt><trkpt lat="44.647124" lon="8.7921391"><ele>326.0</ele><time>2026-04-20T10:08:20.359Z</time></trkpt><trkpt lat="44.6483777" lon="8.7955006"><ele>310.0</ele><time>2026-04-20T10:08:41.359Z</time></trkpt><trkpt lat="44.6490508" lon="8.7993277"><ele>302.0</ele><time>2026-04-20T10:09:01.341Z</time></trkpt><trkpt lat="44.6509999" lon="8.8021451"><ele>297.0</ele><time>2026-04-20T10:09:21.343Z</time></trkpt><trkpt lat="44.6528942" lon="8.8049088"><ele>301.0</ele><time>2026-04-20T10:10:26.336Z</time></trkpt><trkpt lat="44.6519908" lon="8.808515"><ele>346.0</ele><time>2026-04-20T10:11:12.325Z</time></trkpt><trkpt lat="44.6503852" lon="8.8103148"><ele>353.0</ele><time>2026-04-20T10:11:29.327Z</time></trkpt><trkpt lat="44.6496901" lon="8.8140089"><ele>361.0</ele><time>2026-04-20T10:12:05.34Z</time></trkpt><trkpt lat="44.651526" lon="8.8168142"><ele>354.0</ele><time>2026-04-20T10:12:41.347Z</time></trkpt><trkpt lat="44.6541977" lon="8.8159183"><ele>327.0</ele><time>2026-04-20T10:13:06.424Z</time></trkpt><trkpt lat="44.6536365" lon="8.8197805"><ele>305.0</ele><time>2026-04-20T10:13:34.345Z</time></trkpt><trkpt lat="44.6552379" lon="8.8231044"><ele>291.0</ele><time>2026-04-20T10:13:52.365Z</time></trkpt><trkpt lat="44.6572288" lon="8.8270393"><ele>277.0</ele><time>2026-04-20T10:14:17.351Z</time></trkpt><trkpt lat="44.6559886" lon="8.8304305"><ele>281.0</ele><time>2026-04-20T10:15:17.365Z</time></trkpt><trkpt lat="44.6539247" lon="8.8304911"><ele>271.0</ele><time>2026-04-20T10:15:34.46Z</time></trkpt><trkpt lat="44.6511184" lon="8.8311609"><ele>272.0</ele><time>2026-04-20T10:15:55.444Z</time></trkpt><trkpt lat="44.647703" lon="8.8314977"><ele>288.0</ele><time>2026-04-20T10:16:20.347Z</time></trkpt><trkpt lat="44.6443941" lon="8.8329012"><ele>293.0</ele><time>2026-04-20T10:16:38.333Z</time></trkpt><trkpt lat="44.6410603" lon="8.8344657"><ele>312.0</ele><time>2026-04-20T10:16:55.352Z</time></trkpt><trkpt lat="44.6381532" lon="8.8369346"><ele>335.0</ele><time>2026-04-20T10:18:14.352Z</time></trkpt><trkpt lat="44.6360996" lon="8.840804"><ele>315.0</ele><time>2026-04-20T10:18:34.352Z</time></trkpt><trkpt lat="44.6330752" lon="8.8430189"><ele>310.0</ele><time>2026-04-20T10:18:55.421Z</time></trkpt><trkpt lat="44.6304611" lon="8.8420486"><ele>326.0</ele><time>2026-04-20T10:19:18.338Z</time></trkpt><trkpt lat="44.6277438" lon="8.8428244"><ele>327.0</ele><time>2026-04-20T10:19:35.359Z</time></trkpt><trkpt lat="44.6253349" lon="8.8446566"><ele>321.0</ele><time>2026-04-20T10:19:51.363Z</time></trkpt><trkpt lat="44.6219835" lon="8.8458415"><ele>333.0</ele><time>2026-04-20T10:20:17.349Z</time></trkpt><trkpt lat="44.6192916" lon="8.8446733"><ele>343.0</ele><time>2026-04-20T10:20:40.373Z</time></trkpt><trkpt lat="44.6164709" lon="8.8447884"><ele>381.0</ele><time>2026-04-20T10:21:01.363Z</time></trkpt><trkpt lat="44.6144313" lon="8.8473365"><ele>407.0</ele><time>2026-04-20T10:21:48.356Z</time></trkpt><trkpt lat="44.6115745" lon="8.8501473"><ele>427.0</ele><time>2026-04-20T10:22:15.343Z</time></trkpt><trkpt lat="44.6095796" lon="8.8540315"><ele>466.0</ele><time>2026-04-20T10:22:37.344Z</time></trkpt><trkpt lat="44.6067349" lon="8.8566473"><ele>510.0</ele><time>2026-04-20T10:22:56.353Z</time></trkpt><trkpt lat="44.6047788" lon="8.8594349"><ele>518.0</ele><time>2026-04-20T10:23:15.344Z</time></trkpt><trkpt lat="44.6043226" lon="8.8632147"><ele>534.0</ele><time>2026-04-20T10:23:42.352Z</time></trkpt><trkpt lat="44.6026644" lon="8.866238"><ele>541.0</ele><time>2026-04-20T10:24:00.373Z</time></trkpt><trkpt lat="44.5995048" lon="8.8681282"><ele>563.0</ele><time>2026-04-20T10:24:23.366Z</time></trkpt><trkpt lat="44.5982342" lon="8.8715925"><ele>574.0</ele><time>2026-04-20T10:24:45.375Z</time></trkpt><trkpt lat="44.5978868" lon="8.8753501"><ele>570.0</ele><time>2026-04-20T10:25:05.357Z</time></trkpt><trkpt lat="44.5989445" lon="8.8788734"><ele>574.0</ele><time>2026-04-20T10:26:40.363Z</time></trkpt><trkpt lat="44.6007861" lon="8.8817702"><ele>565.0</ele><time>2026-04-20T10:27:01.374Z</time></trkpt><trkpt lat="44.5995779" lon="8.8852309"><ele>574.0</ele><time>2026-04-20T10:27:21.369Z</time></trkpt><trkpt lat="44.5974573" lon="8.8889214"><ele>532.0</ele><time>2026-04-20T10:27:47.373Z</time></trkpt><trkpt lat="44.5969501" lon="8.892765"><ele>516.0</ele><time>2026-04-20T10:28:07.35Z</time></trkpt><trkpt lat="44.5990717" lon="8.8951578"><ele>491.0</ele><time>2026-04-20T10:28:26.349Z</time></trkpt><trkpt lat="44.5994503" lon="8.8989308"><ele>432.0</ele><time>2026-04-20T10:28:48.362Z</time></trkpt><trkpt lat="44.5982951" lon="8.9026288"><ele>422.0</ele><time>2026-04-20T10:29:57.421Z</time></trkpt><trkpt lat="44.5987779" lon="8.9084031"><ele>410.0</ele><time>2026-04-20T10:30:39.344Z</time></trkpt><trkpt lat="44.5975497" lon="8.9119509"><ele>407.0</ele><time>2026-04-20T10:31:00.336Z</time></trkpt><trkpt lat="44.5953319" lon="8.9143763"><ele>416.0</ele><time>2026-04-20T10:31:22.318Z</time></trkpt><trkpt lat="44.593745" lon="8.9176777"><ele>388.0</ele><time>2026-04-20T10:31:43.33Z</time></trkpt><trkpt lat="44.5925768" lon="8.9221565"><ele>394.0</ele><time>2026-04-20T10:32:08.336Z</time></trkpt><trkpt lat="44.5913095" lon="8.9255326"><ele>383.0</ele><time>2026-04-20T10:32:28.336Z</time></trkpt><trkpt lat="44.5903639" lon="8.9292322"><ele>361.0</ele><time>2026-04-20T10:32:49.339Z</time></trkpt><trkpt lat="44.5903133" lon="8.9330504"><ele>354.0</ele><time>2026-04-20T10:33:11.337Z</time></trkpt><trkpt lat="44.5894763" lon="8.9367271"><ele>354.0</ele><time>2026-04-20T10:33:34.33Z</time></trkpt><trkpt lat="44.5876049" lon="8.9378128"><ele>355.0</ele><time>2026-04-20T10:34:00.336Z</time></trkpt><trkpt lat="44.5848519" lon="8.938421"><ele>358.0</ele><time>2026-04-20T10:34:24.364Z</time></trkpt><trkpt lat="44.5821572" lon="8.938942"><ele>353.0</ele><time>2026-04-20T10:34:44.357Z</time></trkpt><trkpt lat="44.5788897" lon="8.9402263"><ele>360.0</ele><time>2026-04-20T10:35:04.36Z</time></trkpt><trkpt lat="44.5765495" lon="8.9422477"><ele>366.0</ele><time>2026-04-20T10:35:26.363Z</time></trkpt><trkpt lat="44.5740731" lon="8.9438705"><ele>362.0</ele><time>2026-04-20T10:35:55.344Z</time></trkpt><trkpt lat="44.5720705" lon="8.9448787"><ele>369.0</ele><time>2026-04-20T10:36:23.353Z</time></trkpt><trkpt lat="44.5701733" lon="8.9461656"><ele>362.0</ele><time>2026-04-20T10:36:46.347Z</time></trkpt><trkpt lat="44.5683826" lon="8.9477792"><ele>370.0</ele><time>2026-04-20T10:37:08.342Z</time></trkpt><trkpt lat="44.5674299" lon="8.951358"><ele>362.0</ele><time>2026-04-20T10:37:44.359Z</time></trkpt><trkpt lat="44.5672781" lon="8.9552637"><ele>385.0</ele><time>2026-04-20T10:38:13.347Z</time></trkpt><trkpt lat="44.5675237" lon="8.9591092"><ele>377.0</ele><time>2026-04-20T10:38:37.336Z</time></trkpt><trkpt lat="44.566456" lon="8.9626649"><ele>373.0</ele><time>2026-04-20T10:39:14.373Z</time></trkpt><trkpt lat="44.5655476" lon="8.9653021"><ele>387.0</ele><time>2026-04-20T10:39:32.339Z</time></trkpt><trkpt lat="44.5627759" lon="8.9659741"><ele>376.0</ele><time>2026-04-20T10:39:51.334Z</time></trkpt><trkpt lat="44.5606368" lon="8.9697928"><ele>377.0</ele><time>2026-04-20T10:40:18.341Z</time></trkpt><trkpt lat="44.5596228" lon="8.972424"><ele>377.0</ele><time>2026-04-20T10:40:37.353Z</time></trkpt><trkpt lat="44.558287" lon="8.9758624"><ele>377.0</ele><time>2026-04-20T10:41:00.44Z</time></trkpt><trkpt lat="44.5563492" lon="8.978548"><ele>375.0</ele><time>2026-04-20T10:41:23.434Z</time></trkpt><trkpt lat="44.5549335" lon="8.9787161"><ele>396.0</ele><time>2026-04-20T10:41:37.424Z</time></trkpt><trkpt lat="44.55233" lon="8.977472"><ele>388.0</ele><time>2026-04-20T10:41:54.319Z</time></trkpt><trkpt lat="44.5489196" lon="8.9767722"><ele>385.0</ele><time>2026-04-20T10:42:19.341Z</time></trkpt><trkpt lat="44.5463636" lon="8.977994"><ele>392.0</ele><time>2026-04-20T10:42:42.333Z</time></trkpt><trkpt lat="44.5437943" lon="8.9793749"><ele>388.0</ele><time>2026-04-20T10:42:58.323Z</time></trkpt><trkpt lat="44.5432347" lon="8.9841782"><ele>412.0</ele><time>2026-04-20T10:43:18.337Z</time></trkpt><trkpt lat="44.5412306" lon="8.9880208"><ele>396.0</ele><time>2026-04-20T10:43:50.342Z</time></trkpt><trkpt lat="44.5393524" lon="8.9907786"><ele>393.0</ele><time>2026-04-20T10:44:17.361Z</time></trkpt><trkpt lat="44.536646" lon="8.9912236"><ele>396.0</ele><time>2026-04-20T10:44:35.359Z</time></trkpt><trkpt lat="44.533232" lon="8.9914098"><ele>397.0</ele><time>2026-04-20T10:44:57.452Z</time></trkpt><trkpt lat="44.5318233" lon="8.9958625"><ele>397.0</ele><time>2026-04-20T10:45:23.356Z</time></trkpt><trkpt lat="44.5316169" lon="9.0007513"><ele>406.0</ele><time>2026-04-20T10:45:40.355Z</time></trkpt><trkpt lat="44.5314842" lon="9.0064417"><ele>422.0</ele><time>2026-04-20T10:46:00.387Z</time></trkpt><trkpt lat="44.5325806" lon="9.0109811"><ele>415.0</ele><time>2026-04-20T10:46:22.365Z</time></trkpt><trkpt lat="44.5302173" lon="9.0129541"><ele>413.0</ele><time>2026-04-20T10:46:54.351Z</time></trkpt><trkpt lat="44.5275019" lon="9.0129184"><ele>417.0</ele><time>2026-04-20T10:47:17.37Z</time></trkpt><trkpt lat="44.5248717" lon="9.0142776"><ele>425.0</ele><time>2026-04-20T10:47:43.369Z</time></trkpt><trkpt lat="44.5224968" lon="9.0162797"><ele>430.0</ele><time>2026-04-20T10:47:59.444Z</time></trkpt><trkpt lat="44.5198098" lon="9.0193896"><ele>438.0</ele><time>2026-04-20T10:48:18.444Z</time></trkpt><trkpt lat="44.5170032" lon="9.0222835"><ele>427.0</ele><time>2026-04-20T10:48:40.462Z</time></trkpt><trkpt lat="44.5154813" lon="9.0254068"><ele>433.0</ele><time>2026-04-20T10:49:12.444Z</time></trkpt><trkpt lat="44.5149516" lon="9.0291543"><ele>460.0</ele><time>2026-04-20T10:49:27.466Z</time></trkpt><trkpt lat="44.5129545" lon="9.0331317"><ele>445.0</ele><time>2026-04-20T10:49:46.433Z</time></trkpt><trkpt lat="44.5138906" lon="9.0368344"><ele>454.0</ele><time>2026-04-20T10:50:05.342Z</time></trkpt><trkpt lat="44.5133502" lon="9.0405953"><ele>442.0</ele><time>2026-04-20T10:50:37.349Z</time></trkpt><trkpt lat="44.5140502" lon="9.0443093"><ele>437.0</ele><time>2026-04-20T10:51:00.35Z</time></trkpt><trkpt lat="44.5145921" lon="9.0471468"><ele>446.0</ele><time>2026-04-20T10:51:19.364Z</time></trkpt><trkpt lat="44.5170422" lon="9.0489185"><ele>454.0</ele><time>2026-04-20T10:51:46.361Z</time></trkpt><trkpt lat="44.5181204" lon="9.0524744"><ele>453.0</ele><time>2026-04-20T10:52:08.381Z</time></trkpt><trkpt lat="44.5172265" lon="9.0570703"><ele>455.0</ele><time>2026-04-20T10:52:44.363Z</time></trkpt><trkpt lat="44.515796" lon="9.0602844"><ele>463.0</ele><time>2026-04-20T10:53:06.336Z</time></trkpt><trkpt lat="44.5150069" lon="9.0640589"><ele>491.0</ele><time>2026-04-20T10:53:23.354Z</time></trkpt><trkpt lat="44.5121401" lon="9.0666908"><ele>483.0</ele><time>2026-04-20T10:53:50.355Z</time></trkpt><trkpt lat="44.5124306" lon="9.0714956"><ele>505.0</ele><time>2026-04-20T10:54:11.354Z</time></trkpt><trkpt lat="44.5120998" lon="9.0763433"><ele>488.0</ele><time>2026-04-20T10:54:33.369Z</time></trkpt><trkpt lat="44.510474" lon="9.080503"><ele>490.0</ele><time>2026-04-20T10:54:57.363Z</time></trkpt><trkpt lat="44.5095294" lon="9.0840679"><ele>515.0</ele><time>2026-04-20T10:55:19.363Z</time></trkpt><trkpt lat="44.5113406" lon="9.0870113"><ele>534.0</ele><time>2026-04-20T10:55:50.348Z</time></trkpt><trkpt lat="44.5105167" lon="9.0907772"><ele>510.0</ele><time>2026-04-20T10:56:24.351Z</time></trkpt><trkpt lat="44.5090993" lon="9.0940525"><ele>516.0</ele><time>2026-04-20T10:56:48.368Z</time></trkpt><trkpt lat="44.5070005" lon="9.0966125"><ele>523.0</ele><time>2026-04-20T10:57:11.34Z</time></trkpt><trkpt lat="44.5045265" lon="9.1000107"><ele>527.0</ele><time>2026-04-20T10:57:39.356Z</time></trkpt><trkpt lat="44.5033556" lon="9.103554"><ele>559.0</ele><time>2026-04-20T10:58:02.348Z</time></trkpt><trkpt lat="44.5005063" lon="9.1062769"><ele>561.0</ele><time>2026-04-20T10:58:29.348Z</time></trkpt><trkpt lat="44.4991371" lon="9.1095978"><ele>553.0</ele><time>2026-04-20T10:58:53.348Z</time></trkpt><trkpt lat="44.4985612" lon="9.1133992"><ele>573.0</ele><time>2026-04-20T10:59:18.345Z</time></trkpt><trkpt lat="44.4982736" lon="9.1162903"><ele>576.0</ele><time>2026-04-20T10:59:33.337Z</time></trkpt><trkpt lat="44.4970479" lon="9.1206952"><ele>620.0</ele><time>2026-04-20T11:00:09.327Z</time></trkpt><trkpt lat="44.498193" lon="9.1232033"><ele>596.0</ele><time>2026-04-20T11:00:25.342Z</time></trkpt><trkpt lat="44.4955987" lon="9.1246644"><ele>614.0</ele><time>2026-04-20T11:01:12.349Z</time></trkpt><trkpt lat="44.4952815" lon="9.1285479"><ele>601.0</ele><time>2026-04-20T11:01:41.346Z</time></trkpt><trkpt lat="44.492966" lon="9.1305559"><ele>634.0</ele><time>2026-04-20T11:02:01.37Z</time></trkpt><trkpt lat="44.4894858" lon="9.1309294"><ele>651.0</ele><time>2026-04-20T11:02:20.448Z</time></trkpt><trkpt lat="44.4861525" lon="9.1294164"><ele>628.0</ele><time>2026-04-20T11:02:38.441Z</time></trkpt><trkpt lat="44.4840024" lon="9.1257138"><ele>710.0</ele><time>2026-04-20T11:02:55.445Z</time></trkpt><trkpt lat="44.481211" lon="9.1227577"><ele>741.0</ele><time>2026-04-20T11:03:15.326Z</time></trkpt><trkpt lat="44.4780506" lon="9.1210994"><ele>727.0</ele><time>2026-04-20T11:03:47.319Z</time></trkpt><trkpt lat="44.4772261" lon="9.1206281"><ele>633.0</ele><time>2026-04-20T11:03:56.323Z</time></trkpt><trkpt lat="44.4700872" lon="9.116582"><ele>638.0</ele><time>2026-04-20T11:04:16.418Z</time></trkpt><trkpt lat="44.4668901" lon="9.1182016"><ele>605.0</ele><time>2026-04-20T11:24:23.329Z</time></trkpt><trkpt lat="44.4649052" lon="9.1175966"><ele>597.0</ele><time>2026-04-20T11:24:41.349Z</time></trkpt><trkpt lat="44.4621814" lon="9.1175727"><ele>575.0</ele><time>2026-04-20T11:25:13.348Z</time></trkpt><trkpt lat="44.4648221" lon="9.1185797"><ele>577.0</ele><time>2026-04-20T11:26:18.348Z</time></trkpt><trkpt lat="44.4668601" lon="9.1193188"><ele>537.0</ele><time>2026-04-20T11:26:43.339Z</time></trkpt><trkpt lat="44.4684841" lon="9.1211586"><ele>557.0</ele><time>2026-04-20T11:27:10.345Z</time></trkpt><trkpt lat="44.4697176" lon="9.1234989"><ele>504.0</ele><time>2026-04-20T11:27:32.346Z</time></trkpt><trkpt lat="44.4679187" lon="9.1249901"><ele>495.0</ele><time>2026-04-20T11:27:52.356Z</time></trkpt><trkpt lat="44.466218" lon="9.1265884"><ele>515.0</ele><time>2026-04-20T11:28:11.342Z</time></trkpt><trkpt lat="44.467856" lon="9.1296033"><ele>475.0</ele><time>2026-04-20T11:29:02.341Z</time></trkpt><trkpt lat="44.4696619" lon="9.1310352"><ele>515.0</ele><time>2026-04-20T11:29:25.36Z</time></trkpt><trkpt lat="44.467856" lon="9.1296033"><ele>475.0</ele><time>2026-04-20T11:29:02.341Z</time></trkpt><trkpt lat="44.4696619" lon="9.1310352"><ele>445.0</ele><time>2026-04-20T11:29:25.36Z</time></trkpt><trkpt lat="44.4687179" lon="9.1335729"><ele>464.0</ele><time>2026-04-20T11:29:58.339Z</time></trkpt><trkpt lat="44.4683078" lon="9.136343"><ele>448.0</ele><time>2026-04-20T11:30:26.338Z</time></trkpt><trkpt lat="44.4697901" lon="9.1394953"><ele>394.0</ele><time>2026-04-20T11:30:46.345Z</time></trkpt><trkpt lat="44.4671441" lon="9.1387198"><ele>392.0</ele><time>2026-04-20T11:31:23.356Z</time></trkpt><trkpt lat="44.4652339" lon="9.1360145"><ele>379.0</ele><time>2026-04-20T11:31:44.355Z</time></trkpt><trkpt lat="44.4626634" lon="9.1345681"><ele>355.0</ele><time>2026-04-20T11:32:16.355Z</time></trkpt><trkpt lat="44.4607878" lon="9.1317714"><ele>333.0</ele><time>2026-04-20T11:32:42.362Z</time></trkpt><trkpt lat="44.4589495" lon="9.1303913"><ele>334.0</ele><time>2026-04-20T11:33:01.349Z</time></trkpt><trkpt lat="44.4568335" lon="9.1301985"><ele>315.0</ele><time>2026-04-20T11:33:34.363Z</time></trkpt><trkpt lat="44.4550687" lon="9.1287569"><ele>311.0</ele><time>2026-04-20T11:33:48.371Z</time></trkpt><trkpt lat="44.4523328" lon="9.1282812"><ele>296.0</ele><time>2026-04-20T11:34:13.356Z</time></trkpt><trkpt lat="44.4498816" lon="9.1299487"><ele>275.0</ele><time>2026-04-20T11:34:42.36Z</time></trkpt><trkpt lat="44.4480306" lon="9.1312229"><ele>243.0</ele><time>2026-04-20T11:34:59.38Z</time></trkpt><trkpt lat="44.4456485" lon="9.1330406"><ele>252.0</ele><time>2026-04-20T11:35:25.346Z</time></trkpt><trkpt lat="44.4445187" lon="9.1355039"><ele>244.0</ele><time>2026-04-20T11:35:43.36Z</time></trkpt><trkpt lat="44.4432754" lon="9.1377773"><ele>234.0</ele><time>2026-04-20T11:36:04.359Z</time></trkpt><trkpt lat="44.4415652" lon="9.1394267"><ele>243.0</ele><time>2026-04-20T11:36:24.372Z</time></trkpt><trkpt lat="44.4401092" lon="9.1426998"><ele>247.0</ele><time>2026-04-20T11:36:48.363Z</time></trkpt><trkpt lat="44.4404325" lon="9.1466027"><ele>226.0</ele><time>2026-04-20T11:37:14.373Z</time></trkpt><trkpt lat="44.4395162" lon="9.1501994"><ele>207.0</ele><time>2026-04-20T11:37:35.356Z</time></trkpt><trkpt lat="44.4399986" lon="9.1539253"><ele>202.0</ele><time>2026-04-20T11:37:58.375Z</time></trkpt><trkpt lat="44.4383453" lon="9.1555878"><ele>193.0</ele><time>2026-04-20T11:38:14.36Z</time></trkpt><trkpt lat="44.4375341" lon="9.1592381"><ele>181.0</ele><time>2026-04-20T11:38:51.348Z</time></trkpt><trkpt lat="44.436956" lon="9.1629419"><ele>176.0</ele><time>2026-04-20T11:39:14.355Z</time></trkpt><trkpt lat="44.4351351" lon="9.1659889"><ele>186.0</ele><time>2026-04-20T11:39:33.355Z</time></trkpt><trkpt lat="44.434244" lon="9.1707074"><ele>172.0</ele><time>2026-04-20T11:39:53.353Z</time></trkpt><trkpt lat="44.432755" lon="9.175143"><ele>157.0</ele><time>2026-04-20T11:40:23.361Z</time></trkpt><trkpt lat="44.4322754" lon="9.1788873"><ele>160.0</ele><time>2026-04-20T11:40:46.355Z</time></trkpt><trkpt lat="44.4305394" lon="9.1818017"><ele>157.0</ele><time>2026-04-20T11:41:09.372Z</time></trkpt><trkpt lat="44.4290709" lon="9.1837568"><ele>146.0</ele><time>2026-04-20T11:41:29.388Z</time></trkpt><trkpt lat="44.4293194" lon="9.1866425"><ele>144.0</ele><time>2026-04-20T11:41:50.364Z</time></trkpt><trkpt lat="44.4293044" lon="9.1895971"><ele>141.0</ele><time>2026-04-20T11:42:09.449Z</time></trkpt><trkpt lat="44.4265872" lon="9.1906569"><ele>146.0</ele><time>2026-04-20T11:42:36.438Z</time></trkpt><trkpt lat="44.4248993" lon="9.1935989"><ele>148.0</ele><time>2026-04-20T11:43:06.383Z</time></trkpt><trkpt lat="44.4250973" lon="9.1974938"><ele>129.0</ele><time>2026-04-20T11:43:26.359Z</time></trkpt><trkpt lat="44.4236036" lon="9.2007395"><ele>125.0</ele><time>2026-04-20T11:43:52.384Z</time></trkpt><trkpt lat="44.424256" lon="9.2043969"><ele>120.0</ele><time>2026-04-20T11:44:12.381Z</time></trkpt><trkpt lat="44.4218738" lon="9.2064054"><ele>126.0</ele><time>2026-04-20T11:44:33.382Z</time></trkpt><trkpt lat="44.4200261" lon="9.2092165"><ele>122.0</ele><time>2026-04-20T11:44:56.496Z</time></trkpt><trkpt lat="44.4185058" lon="9.212405"><ele>118.0</ele><time>2026-04-20T11:45:17.456Z</time></trkpt><trkpt lat="44.4175532" lon="9.2160439"><ele>99.0</ele><time>2026-04-20T11:45:36.448Z</time></trkpt><trkpt lat="44.4156217" lon="9.2186901"><ele>108.0</ele><time>2026-04-20T11:46:01.35Z</time></trkpt><trkpt lat="44.4128739" lon="9.2190521"><ele>107.0</ele><time>2026-04-20T11:46:22.352Z</time></trkpt><trkpt lat="44.4118545" lon="9.222716"><ele>103.0</ele><time>2026-04-20T11:46:42.34Z</time></trkpt><trkpt lat="44.4114872" lon="9.2264788"><ele>105.0</ele><time>2026-04-20T11:47:05.35Z</time></trkpt><trkpt lat="44.4114578" lon="9.2303265"><ele>93.0</ele><time>2026-04-20T11:47:27.35Z</time></trkpt><trkpt lat="44.4108176" lon="9.2340443"><ele>85.0</ele><time>2026-04-20T11:47:48.341Z</time></trkpt><trkpt lat="44.4094813" lon="9.2374502"><ele>98.0</ele><time>2026-04-20T11:48:10.345Z</time></trkpt><trkpt lat="44.4073848" lon="9.2398576"><ele>85.0</ele><time>2026-04-20T11:48:30.347Z</time></trkpt><trkpt lat="44.4054729" lon="9.2425262"><ele>83.0</ele><time>2026-04-20T11:48:52.358Z</time></trkpt><trkpt lat="44.4041568" lon="9.2459917"><ele>79.0</ele><time>2026-04-20T11:49:15.348Z</time></trkpt><trkpt lat="44.4028662" lon="9.249352"><ele>77.0</ele><time>2026-04-20T11:49:42.337Z</time></trkpt><trkpt lat="44.4016664" lon="9.252764"><ele>73.0</ele><time>2026-04-20T11:50:04.361Z</time></trkpt><trkpt lat="44.4009843" lon="9.2565341"><ele>69.0</ele><time>2026-04-20T11:50:26.36Z</time></trkpt><trkpt lat="44.399305" lon="9.2595885"><ele>71.0</ele><time>2026-04-20T11:50:51.359Z</time></trkpt><trkpt lat="44.3972185" lon="9.2592869"><ele>70.0</ele><time>2026-04-20T11:51:10.37Z</time></trkpt><trkpt lat="44.3952005" lon="9.2602684"><ele>76.0</ele><time>2026-04-20T11:51:31.348Z</time></trkpt><trkpt lat="44.3950305" lon="9.2641669"><ele>71.0</ele><time>2026-04-20T11:51:50.349Z</time></trkpt><trkpt lat="44.3944672" lon="9.2689437"><ele>72.0</ele><time>2026-04-20T11:52:11.35Z</time></trkpt><trkpt lat="44.3922351" lon="9.2724828"><ele>64.0</ele><time>2026-04-20T11:52:35.354Z</time></trkpt><trkpt lat="44.3907484" lon="9.2757402"><ele>51.0</ele><time>2026-04-20T11:52:52.36Z</time></trkpt><trkpt lat="44.3887062" lon="9.2794968"><ele>53.0</ele><time>2026-04-20T11:53:13.365Z</time></trkpt><trkpt lat="44.3856588" lon="9.2815875"><ele>52.0</ele><time>2026-04-20T11:53:38.368Z</time></trkpt><trkpt lat="44.3835506" lon="9.2842655"><ele>54.0</ele><time>2026-04-20T11:53:59.367Z</time></trkpt><trkpt lat="44.3813005" lon="9.2866719"><ele>50.0</ele><time>2026-04-20T11:54:19.466Z</time></trkpt><trkpt lat="44.3789903" lon="9.2887796"><ele>58.0</ele><time>2026-04-20T11:54:40.456Z</time></trkpt><trkpt lat="44.377491" lon="9.2919486"><ele>43.0</ele><time>2026-04-20T11:54:57.467Z</time></trkpt><trkpt lat="44.375394" lon="9.2958924"><ele>48.0</ele><time>2026-04-20T11:55:18.471Z</time></trkpt><trkpt lat="44.3740166" lon="9.3004014"><ele>43.0</ele><time>2026-04-20T11:55:40.472Z</time></trkpt><trkpt lat="44.3720127" lon="9.3044231"><ele>39.0</ele><time>2026-04-20T11:56:03.465Z</time></trkpt><trkpt lat="44.3711961" lon="9.3091139"><ele>44.0</ele><time>2026-04-20T11:56:30.48Z</time></trkpt><trkpt lat="44.3716439" lon="9.3129558"><ele>44.0</ele><time>2026-04-20T11:56:50.461Z</time></trkpt><trkpt lat="44.3699532" lon="9.3160454"><ele>37.0</ele><time>2026-04-20T11:57:09.452Z</time></trkpt><trkpt lat="44.3675849" lon="9.3179189"><ele>43.0</ele><time>2026-04-20T11:57:27.466Z</time></trkpt><trkpt lat="44.3649891" lon="9.3209647"><ele>35.0</ele><time>2026-04-20T11:57:49.446Z</time></trkpt><trkpt lat="44.3654621" lon="9.3248658"><ele>41.0</ele><time>2026-04-20T11:58:08.344Z</time></trkpt><trkpt lat="44.3665383" lon="9.3284896"><ele>34.0</ele><time>2026-04-20T11:58:31.379Z</time></trkpt><trkpt lat="44.3660947" lon="9.3323216"><ele>32.0</ele><time>2026-04-20T11:58:54.37Z</time></trkpt><trkpt lat="44.3639002" lon="9.3346948"><ele>39.0</ele><time>2026-04-20T11:59:14.37Z</time></trkpt><trkpt lat="44.3614619" lon="9.3363729"><ele>38.0</ele><time>2026-04-20T11:59:32.363Z</time></trkpt><trkpt lat="44.3625323" lon="9.339891"><ele>42.0</ele><time>2026-04-20T11:59:52.359Z</time></trkpt><trkpt lat="44.3615139" lon="9.3434835"><ele>34.0</ele><time>2026-04-20T12:00:15.351Z</time></trkpt><trkpt lat="44.3587607" lon="9.3436311"><ele>35.0</ele><time>2026-04-20T12:00:32.357Z</time></trkpt><trkpt lat="44.3559698" lon="9.3431781"><ele>27.0</ele><time>2026-04-20T12:00:52.47Z</time></trkpt><trkpt lat="44.3532144" lon="9.3433817"><ele>25.0</ele><time>2026-04-20T12:01:12.475Z</time></trkpt><trkpt lat="44.3505262" lon="9.3429093"><ele>27.0</ele><time>2026-04-20T12:01:36.371Z</time></trkpt><trkpt lat="44.3498826" lon="9.346571"><ele>17.0</ele><time>2026-04-20T12:02:01.381Z</time></trkpt><trkpt lat="44.3480637" lon="9.3494913"><ele>20.0</ele><time>2026-04-20T12:03:22.39Z</time></trkpt><trkpt lat="44.3461875" lon="9.3483175"><ele>34.0</ele><time>2026-04-20T12:07:00.366Z</time></trkpt><trkpt lat="44.3443392" lon="9.3495977"><ele>32.0</ele><time>2026-04-20T12:07:35.364Z</time></trkpt><trkpt lat="44.3422704" lon="9.3497966"><ele>19.0</ele><time>2026-04-20T12:08:04.361Z</time></trkpt><trkpt lat="44.3401989" lon="9.3494497"><ele>24.0</ele><time>2026-04-20T12:08:54.38Z</time></trkpt><trkpt lat="44.3382085" lon="9.3486468"><ele>12.0</ele><time>2026-04-20T12:09:21.381Z</time></trkpt><trkpt lat="44.336206" lon="9.347754"><ele>13.0</ele><time>2026-04-20T12:09:45.477Z</time></trkpt><trkpt lat="44.3345345" lon="9.3461379"><ele>7.0</ele><time>2026-04-20T12:10:09.477Z</time></trkpt><trkpt lat="44.3331625" lon="9.348232"><ele>9.0</ele><time>2026-04-20T12:10:53.37Z</time></trkpt><trkpt lat="44.3329033" lon="9.3510461"><ele>9.0</ele><time>2026-04-20T12:11:40.361Z</time></trkpt><trkpt lat="44.331619" lon="9.3517538"><ele>12.0</ele><time>2026-04-20T12:12:02.36Z</time></trkpt><trkpt lat="44.3295528" lon="9.3519934"><ele>9.0</ele><time>2026-04-20T12:12:40.371Z</time></trkpt><trkpt lat="44.3275595" lon="9.3511754"><ele>6.0</ele><time>2026-04-20T12:13:05.455Z</time></trkpt><trkpt lat="44.3256058" lon="9.3504067"><ele>8.0</ele><time>2026-04-20T12:13:28.462Z</time></trkpt><trkpt lat="44.3235485" lon="9.3496591"><ele>11.0</ele><time>2026-04-20T12:13:52.455Z</time></trkpt><trkpt lat="44.321538" lon="9.348908"><ele>8.0</ele><time>2026-04-20T12:14:13.458Z</time></trkpt><trkpt lat="44.3197504" lon="9.3475322"><ele>14.0</ele><time>2026-04-20T12:17:28.328Z</time></trkpt><trkpt lat="44.3177606" lon="9.3465381"><ele>4.0</ele><time>2026-04-20T12:17:49.348Z</time></trkpt><trkpt lat="44.315954" lon="9.3452305"><ele>5.0</ele><time>2026-04-20T12:18:16.331Z</time></trkpt><trkpt lat="44.31387" lon="9.3456373"><ele>6.0</ele><time>2026-04-20T12:18:47.328Z</time></trkpt><trkpt lat="44.3118279" lon="9.3460758"><ele>6.0</ele><time>2026-04-20T12:19:05.325Z</time></trkpt><trkpt lat="44.3093697" lon="9.3444599"><ele>6.0</ele><time>2026-04-20T12:19:39.331Z</time></trkpt><trkpt lat="44.3074951" lon="9.3433146"><ele>5.0</ele><time>2026-04-20T12:20:19.332Z</time></trkpt><trkpt lat="44.3062487" lon="9.3456139"><ele>4.0</ele><time>2026-04-20T12:20:43.332Z</time></trkpt><trkpt lat="44.3052452" lon="9.3482021"><ele>0.0</ele><time>2026-04-20T12:21:13.336Z</time></trkpt><trkpt lat="44.3036523" lon="9.3512649"><ele>2.0</ele><time>2026-04-20T12:21:34.339Z</time></trkpt><trkpt lat="44.3025927" lon="9.3537448"><ele>4.0</ele><time>2026-04-20T12:21:53.437Z</time></trkpt><trkpt lat="44.3015184" lon="9.3562274"><ele>1.0</ele><time>2026-04-20T12:22:11.428Z</time></trkpt><trkpt lat="44.300105" lon="9.3595221"><ele>1.0</ele><time>2026-04-20T12:22:34.428Z</time></trkpt><trkpt lat="44.298648" lon="9.3627328"><ele>4.0</ele><time>2026-04-20T12:23:09.439Z</time></trkpt><trkpt lat="44.2975071" lon="9.3652023"><ele>5.0</ele><time>2026-04-20T12:23:31.342Z</time></trkpt><trkpt lat="44.295964" lon="9.3684599"><ele>4.0</ele><time>2026-04-20T12:24:07.332Z</time></trkpt><trkpt lat="44.2943283" lon="9.3716662"><ele>15.0</ele><time>2026-04-20T12:24:27.336Z</time></trkpt><trkpt lat="44.2925948" lon="9.3748847"><ele>4.0</ele><time>2026-04-20T12:24:46.319Z</time></trkpt><trkpt lat="44.2902195" lon="9.3783198"><ele>22.0</ele><time>2026-04-20T12:25:09.327Z</time></trkpt><trkpt lat="44.2877182" lon="9.3814942"><ele>16.0</ele><time>2026-04-20T12:25:32.315Z</time></trkpt><trkpt lat="44.2857618" lon="9.3824455"><ele>18.0</ele><time>2026-04-20T12:25:50.319Z</time></trkpt><trkpt lat="44.2842583" lon="9.3856536"><ele>22.0</ele><time>2026-04-20T12:26:11.245Z</time></trkpt><trkpt lat="44.2824163" lon="9.3884776"><ele>1.0</ele><time>2026-04-20T12:26:31.311Z</time></trkpt><trkpt lat="44.2805741" lon="9.3913382"><ele>3.0</ele><time>2026-04-20T12:26:58.436Z</time></trkpt><trkpt lat="44.278783" lon="9.3927205"><ele>5.0</ele><time>2026-04-20T12:27:17.435Z</time></trkpt><trkpt lat="44.2763147" lon="9.3945404"><ele>6.0</ele><time>2026-04-20T12:27:40.435Z</time></trkpt><trkpt lat="44.2744758" lon="9.3959217"><ele>8.0</ele><time>2026-04-20T12:28:00.434Z</time></trkpt><trkpt lat="44.2727252" lon="9.3974165"><ele>11.0</ele><time>2026-04-20T12:28:26.423Z</time></trkpt><trkpt lat="44.2721009" lon="9.3991843"><ele>6.0</ele><time>2026-04-20T12:28:47.427Z</time></trkpt><trkpt lat="44.2716759" lon="9.401973"><ele>5.0</ele><time>2026-04-20T12:29:08.427Z</time></trkpt><trkpt lat="44.2729859" lon="9.4041903"><ele>9.0</ele><time>2026-04-20T12:29:46.429Z</time></trkpt><trkpt lat="44.2720963" lon="9.4068497"><ele>4.0</ele><time>2026-04-20T12:30:07.432Z</time></trkpt><trkpt lat="44.270677" lon="9.4088931"><ele>12.0</ele><time>2026-04-20T12:30:36.407Z</time></trkpt><trkpt lat="44.2703672" lon="9.4107833"><ele>10.0</ele><time>2026-04-20T12:31:29.414Z</time></trkpt><trkpt lat="44.2695503" lon="9.413404"><ele>8.0</ele><time>2026-04-20T12:31:50.429Z</time></trkpt><trkpt lat="44.2689199" lon="9.4161131"><ele>12.0</ele><time>2026-04-20T12:32:11.42Z</time></trkpt><trkpt lat="44.2695217" lon="9.4188758"><ele>12.0</ele><time>2026-04-20T12:32:38.42Z</time></trkpt><trkpt lat="44.268598" lon="9.42152"><ele>13.0</ele><time>2026-04-20T12:32:57.417Z</time></trkpt><trkpt lat="44.2674631" lon="9.4241039"><ele>20.0</ele><time>2026-04-20T12:33:12.419Z</time></trkpt><trkpt lat="44.2655583" lon="9.4282199"><ele>40.0</ele><time>2026-04-20T12:33:35.424Z</time></trkpt><trkpt lat="44.2655956" lon="9.4329163"><ele>71.0</ele><time>2026-04-20T12:34:11.331Z</time></trkpt><trkpt lat="44.2650341" lon="9.4366815"><ele>100.0</ele><time>2026-04-20T12:34:30.323Z</time></trkpt><trkpt lat="44.2650049" lon="9.4404788"><ele>122.0</ele><time>2026-04-20T12:34:53.324Z</time></trkpt><trkpt lat="44.2622114" lon="9.4433916"><ele>199.0</ele><time>2026-04-20T12:35:19.329Z</time></trkpt><trkpt lat="44.2617471" lon="9.4480598"><ele>232.0</ele><time>2026-04-20T12:36:39.333Z</time></trkpt><trkpt lat="44.2606035" lon="9.4516292"><ele>238.0</ele><time>2026-04-20T12:36:57.309Z</time></trkpt><trkpt lat="44.2598025" lon="9.4554042"><ele>262.0</ele><time>2026-04-20T12:37:19.324Z</time></trkpt><trkpt lat="44.2595864" lon="9.4592399"><ele>278.0</ele><time>2026-04-20T12:37:46.325Z</time></trkpt><trkpt lat="44.2586373" lon="9.4617463"><ele>303.0</ele><time>2026-04-20T12:38:05.322Z</time></trkpt><trkpt lat="44.2560637" lon="9.4629022"><ele>325.0</ele><time>2026-04-20T12:38:43.322Z</time></trkpt><trkpt lat="44.2563667" lon="9.4667036"><ele>325.0</ele><time>2026-04-20T12:39:06.329Z</time></trkpt><trkpt lat="44.2570118" lon="9.4704569"><ele>294.0</ele><time>2026-04-20T12:39:33.332Z</time></trkpt><trkpt lat="44.2564756" lon="9.474175"><ele>292.0</ele><time>2026-04-20T12:40:10.319Z</time></trkpt><trkpt lat="44.2550368" lon="9.4785961"><ele>291.0</ele><time>2026-04-20T12:40:40.344Z</time></trkpt><trkpt lat="44.2558786" lon="9.4822545"><ele>307.0</ele><time>2026-04-20T12:41:04.315Z</time></trkpt><trkpt lat="44.2573136" lon="9.4865917"><ele>313.0</ele><time>2026-04-20T12:41:28.323Z</time></trkpt><trkpt lat="44.2576455" lon="9.4905057"><ele>332.0</ele><time>2026-04-20T12:41:49.327Z</time></trkpt><trkpt lat="44.2575089" lon="9.4953069"><ele>355.0</ele><time>2026-04-20T12:42:13.318Z</time></trkpt><trkpt lat="44.2576161" lon="9.5001273"><ele>383.0</ele><time>2026-04-20T12:42:34.322Z</time></trkpt><trkpt lat="44.2586154" lon="9.5036215"><ele>399.0</ele><time>2026-04-20T12:43:04.33Z</time></trkpt><trkpt lat="44.2591127" lon="9.5063882"><ele>380.0</ele><time>2026-04-20T12:44:53.332Z</time></trkpt><trkpt lat="44.2579928" lon="9.5099515"><ele>396.0</ele><time>2026-04-20T12:45:18.423Z</time></trkpt><trkpt lat="44.257202" lon="9.5136977"><ele>420.0</ele><time>2026-04-20T12:45:41.336Z</time></trkpt><trkpt lat="44.2578835" lon="9.5175164"><ele>462.0</ele><time>2026-04-20T12:46:02.329Z</time></trkpt><trkpt lat="44.2570858" lon="9.5220951"><ele>501.0</ele><time>2026-04-20T12:46:22.32Z</time></trkpt><trkpt lat="44.2558491" lon="9.5266095"><ele>527.0</ele><time>2026-04-20T12:46:44.312Z</time></trkpt><trkpt lat="44.2531645" lon="9.5294895"><ele>574.0</ele><time>2026-04-20T12:47:08.302Z</time></trkpt><trkpt lat="44.2538022" lon="9.5332591"><ele>556.0</ele><time>2026-04-20T12:47:51.317Z</time></trkpt><trkpt lat="44.2534426" lon="9.5369829"><ele>569.0</ele><time>2026-04-20T12:48:12.332Z</time></trkpt><trkpt lat="44.2541449" lon="9.5406629"><ele>567.0</ele><time>2026-04-20T12:48:33.315Z</time></trkpt><trkpt lat="44.2542402" lon="9.5444924"><ele>563.0</ele><time>2026-04-20T12:48:54.325Z</time></trkpt><trkpt lat="44.2545627" lon="9.5492304"><ele>589.0</ele><time>2026-04-20T12:49:22.327Z</time></trkpt><trkpt lat="44.2541531" lon="9.5531112"><ele>605.0</ele><time>2026-04-20T12:49:46.316Z</time></trkpt><trkpt lat="44.2532239" lon="9.5577744"><ele>582.0</ele><time>2026-04-20T12:50:07.317Z</time></trkpt><trkpt lat="44.2521185" lon="9.5622177"><ele>593.0</ele><time>2026-04-20T12:50:38.319Z</time></trkpt><trkpt lat="44.2520518" lon="9.5660845"><ele>592.0</ele><time>2026-04-20T12:50:59.322Z</time></trkpt><trkpt lat="44.2496413" lon="9.5679167"><ele>629.0</ele><time>2026-04-20T12:52:44.33Z</time></trkpt><trkpt lat="44.2490925" lon="9.5706734"><ele>595.0</ele><time>2026-04-20T12:53:00.328Z</time></trkpt><trkpt lat="44.2486223" lon="9.5744532"><ele>628.0</ele><time>2026-04-20T12:53:27.314Z</time></trkpt><trkpt lat="44.2466422" lon="9.5771678"><ele>578.0</ele><time>2026-04-20T12:53:47.311Z</time></trkpt><trkpt lat="44.2443724" lon="9.5793432"><ele>579.0</ele><time>2026-04-20T12:54:08.316Z</time></trkpt><trkpt lat="44.2454287" lon="9.5828772"><ele>592.0</ele><time>2026-04-20T12:54:27.327Z</time></trkpt><trkpt lat="44.2473662" lon="9.5857115"><ele>547.0</ele><time>2026-04-20T12:54:49.336Z</time></trkpt><trkpt lat="44.2472814" lon="9.5895763"><ele>573.0</ele><time>2026-04-20T12:55:14.338Z</time></trkpt><trkpt lat="44.2473242" lon="9.5933864"><ele>541.0</ele><time>2026-04-20T12:55:38.417Z</time></trkpt><trkpt lat="44.247668" lon="9.5962329"><ele>542.0</ele><time>2026-04-20T12:55:54.332Z</time></trkpt><trkpt lat="44.2490588" lon="9.5995869"><ele>542.0</ele><time>2026-04-20T12:56:23.334Z</time></trkpt><trkpt lat="44.2508694" lon="9.6023993"><ele>526.0</ele><time>2026-04-20T12:56:43.329Z</time></trkpt><trkpt lat="44.2499203" lon="9.6050455"><ele>526.0</ele><time>2026-04-20T12:57:02.336Z</time></trkpt><trkpt lat="44.2497948" lon="9.6088572"><ele>509.0</ele><time>2026-04-20T12:57:21.335Z</time></trkpt><trkpt lat="44.2483066" lon="9.6120923"><ele>501.0</ele><time>2026-04-20T12:57:40.331Z</time></trkpt><trkpt lat="44.2476315" lon="9.6149017"><ele>487.0</ele><time>2026-04-20T12:58:03.342Z</time></trkpt><trkpt lat="44.2466732" lon="9.6185814"><ele>463.0</ele><time>2026-04-20T12:58:28.356Z</time></trkpt><trkpt lat="44.2472267" lon="9.6223253"><ele>467.0</ele><time>2026-04-20T12:58:49.343Z</time></trkpt><trkpt lat="44.2464692" lon="9.6259479"><ele>413.0</ele><time>2026-04-20T12:59:20.334Z</time></trkpt><trkpt lat="44.2460971" lon="9.6297863"><ele>397.0</ele><time>2026-04-20T12:59:46.327Z</time></trkpt><trkpt lat="44.2447066" lon="9.6318446"><ele>380.0</ele><time>2026-04-20T13:00:08.324Z</time></trkpt><trkpt lat="44.2449099" lon="9.6356474"><ele>347.0</ele><time>2026-04-20T13:00:43.328Z</time></trkpt><trkpt lat="44.2455832" lon="9.6384617"><ele>324.0</ele><time>2026-04-20T13:01:10.33Z</time></trkpt><trkpt lat="44.2468476" lon="9.6428957"><ele>314.0</ele><time>2026-04-20T13:01:38.33Z</time></trkpt><trkpt lat="44.2467268" lon="9.6467509"><ele>298.0</ele><time>2026-04-20T13:02:11.328Z</time></trkpt><trkpt lat="44.2457123" lon="9.6503203"><ele>268.0</ele><time>2026-04-20T13:02:34.329Z</time></trkpt><trkpt lat="44.2440025" lon="9.6533422"><ele>245.0</ele><time>2026-04-20T13:02:59.422Z</time></trkpt><trkpt lat="44.2431598" lon="9.6559746"><ele>227.0</ele><time>2026-04-20T13:03:18.334Z</time></trkpt><trkpt lat="44.2423622" lon="9.6596335"><ele>172.0</ele><time>2026-04-20T13:03:44.325Z</time></trkpt><trkpt lat="44.2400495" lon="9.6574343"><ele>221.0</ele><time>2026-04-20T13:04:34.315Z</time></trkpt><trkpt lat="44.23776" lon="9.6595994"><ele>241.0</ele><time>2026-04-20T13:05:25.32Z</time></trkpt><trkpt lat="44.2349715" lon="9.6598785"><ele>284.0</ele><time>2026-04-20T13:05:51.322Z</time></trkpt><trkpt lat="44.2331159" lon="9.6638542"><ele>276.0</ele><time>2026-04-20T13:06:15.326Z</time></trkpt><trkpt lat="44.2305635" lon="9.6651907"><ele>245.0</ele><time>2026-04-20T13:06:40.314Z</time></trkpt><trkpt lat="44.2288213" lon="9.6668409"><ele>246.0</ele><time>2026-04-20T13:06:58.302Z</time></trkpt><trkpt lat="44.2296569" lon="9.6705246"><ele>230.0</ele><time>2026-04-20T13:07:36.312Z</time></trkpt><trkpt lat="44.23109" lon="9.6738103"><ele>204.0</ele><time>2026-04-20T13:08:01.316Z</time></trkpt><trkpt lat="44.2316772" lon="9.6775135"><ele>196.0</ele><time>2026-04-20T13:08:23.309Z</time></trkpt><trkpt lat="44.2320993" lon="9.6812501"><ele>181.0</ele><time>2026-04-20T13:08:46.321Z</time></trkpt><trkpt lat="44.2310196" lon="9.6848553"><ele>159.0</ele><time>2026-04-20T13:09:07.328Z</time></trkpt><trkpt lat="44.2280222" lon="9.6873566"><ele>154.0</ele><time>2026-04-20T13:09:31.31Z</time></trkpt><trkpt lat="44.226771" lon="9.6907824"><ele>162.0</ele><time>2026-04-20T13:09:54.312Z</time></trkpt><trkpt lat="44.2249611" lon="9.6937298"><ele>140.0</ele><time>2026-04-20T13:10:13.299Z</time></trkpt><trkpt lat="44.2238734" lon="9.6981886"><ele>134.0</ele><time>2026-04-20T13:10:45.303Z</time></trkpt><trkpt lat="44.2221529" lon="9.7022973"><ele>128.0</ele><time>2026-04-20T13:11:04.31Z</time></trkpt><trkpt lat="44.2203079" lon="9.7063528"><ele>131.0</ele><time>2026-04-20T13:11:24.315Z</time></trkpt><trkpt lat="44.2196342" lon="9.7100881"><ele>113.0</ele><time>2026-04-20T13:11:44.317Z</time></trkpt><trkpt lat="44.2189797" lon="9.7147619"><ele>107.0</ele><time>2026-04-20T13:12:05.421Z</time></trkpt><trkpt lat="44.2217652" lon="9.7176642"><ele>102.0</ele><time>2026-04-20T13:12:36.419Z</time></trkpt><trkpt lat="44.2227306" lon="9.7201483"><ele>102.0</ele><time>2026-04-20T13:13:04.419Z</time></trkpt><trkpt lat="44.22463" lon="9.7212493"><ele>114.0</ele><time>2026-04-20T13:13:51.396Z</time></trkpt><trkpt lat="44.2263515" lon="9.7197297"><ele>122.0</ele><time>2026-04-20T13:14:12.325Z</time></trkpt><trkpt lat="44.2278427" lon="9.7175657"><ele>120.0</ele><time>2026-04-20T13:22:32.327Z</time></trkpt><trkpt lat="44.2302912" lon="9.7158898"><ele>101.0</ele><time>2026-04-20T13:22:52.328Z</time></trkpt><trkpt lat="44.231273" lon="9.7195425"><ele>100.0</ele><time>2026-04-20T13:24:04.42Z</time></trkpt><trkpt lat="44.2304768" lon="9.7233947"><ele>102.0</ele><time>2026-04-20T13:24:22.425Z</time></trkpt><trkpt lat="44.2278355" lon="9.728028"><ele>100.0</ele><time>2026-04-20T13:24:41.424Z</time></trkpt><trkpt lat="44.2252852" lon="9.7324646"><ele>88.0</ele><time>2026-04-20T13:24:58.443Z</time></trkpt><trkpt lat="44.2238632" lon="9.7377405"><ele>90.0</ele><time>2026-04-20T13:25:15.418Z</time></trkpt><trkpt lat="44.2250142" lon="9.744455"><ele>116.0</ele><time>2026-04-20T13:25:35.417Z</time></trkpt><trkpt lat="44.2239442" lon="9.7508784"><ele>89.0</ele><time>2026-04-20T13:25:54.409Z</time></trkpt><trkpt lat="44.2211732" lon="9.7552102"><ele>228.0</ele><time>2026-04-20T13:26:11.418Z</time></trkpt><trkpt lat="44.2177963" lon="9.7598111"><ele>92.0</ele><time>2026-04-20T13:26:30.298Z</time></trkpt><trkpt lat="44.2145315" lon="9.7650051"><ele>278.0</ele><time>2026-04-20T13:26:47.392Z</time></trkpt><trkpt lat="44.2107399" lon="9.7707598"><ele>87.0</ele><time>2026-04-20T13:27:11.286Z</time></trkpt><trkpt lat="44.2058805" lon="9.7824389"><ele>63.0</ele><time>2026-04-20T13:27:50.302Z</time></trkpt><trkpt lat="44.2055562" lon="9.7892499"><ele>57.0</ele><time>2026-04-20T13:28:10.346Z</time></trkpt><trkpt lat="44.2053131" lon="9.7958747"><ele>53.0</ele><time>2026-04-20T13:28:29.341Z</time></trkpt><trkpt lat="44.2033196" lon="9.8018745"><ele>54.0</ele><time>2026-04-20T13:28:48.35Z</time></trkpt><trkpt lat="44.2005147" lon="9.8075029"><ele>52.0</ele><time>2026-04-20T13:29:07.334Z</time></trkpt><trkpt lat="44.1981779" lon="9.8132435"><ele>55.0</ele><time>2026-04-20T13:29:26.348Z</time></trkpt><trkpt lat="44.1984491" lon="9.8199612"><ele>50.0</ele><time>2026-04-20T13:29:45.339Z</time></trkpt><trkpt lat="44.1988978" lon="9.826832"><ele>48.0</ele><time>2026-04-20T13:30:04.344Z</time></trkpt><trkpt lat="44.1993335" lon="9.8334346"><ele>44.0</ele><time>2026-04-20T13:30:22.324Z</time></trkpt><trkpt lat="44.199678" lon="9.8403163"><ele>49.0</ele><time>2026-04-20T13:30:41.336Z</time></trkpt><trkpt lat="44.1990563" lon="9.8470363"><ele>47.0</ele><time>2026-04-20T13:31:00.337Z</time></trkpt><trkpt lat="44.1982354" lon="9.8536188"><ele>44.0</ele><time>2026-04-20T13:31:19.339Z</time></trkpt><trkpt lat="44.194627" lon="9.8580704"><ele>39.0</ele><time>2026-04-20T13:31:39.33Z</time></trkpt><trkpt lat="44.1899516" lon="9.8601756"><ele>34.0</ele><time>2026-04-20T13:31:58.343Z</time></trkpt><trkpt lat="44.1853067" lon="9.8622029"><ele>33.0</ele><time>2026-04-20T13:32:16.431Z</time></trkpt><trkpt lat="44.180663" lon="9.8647676"><ele>29.0</ele><time>2026-04-20T13:32:34.428Z</time></trkpt><trkpt lat="44.1763807" lon="9.8678068"><ele>26.0</ele><time>2026-04-20T13:32:52.433Z</time></trkpt><trkpt lat="44.1721343" lon="9.8708563"><ele>24.0</ele><time>2026-04-20T13:33:10.439Z</time></trkpt><trkpt lat="44.1681571" lon="9.8744657"><ele>23.0</ele><time>2026-04-20T13:33:28.439Z</time></trkpt><trkpt lat="44.1647007" lon="9.8790441"><ele>21.0</ele><time>2026-04-20T13:33:46.433Z</time></trkpt><trkpt lat="44.1618997" lon="9.8843791"><ele>21.0</ele><time>2026-04-20T13:34:04.428Z</time></trkpt><trkpt lat="44.159545" lon="9.8903715"><ele>22.0</ele><time>2026-04-20T13:34:23.429Z</time></trkpt><trkpt lat="44.157324" lon="9.8962002"><ele>24.0</ele><time>2026-04-20T13:34:41.435Z</time></trkpt><trkpt lat="44.1543722" lon="9.901406"><ele>17.0</ele><time>2026-04-20T13:34:59.437Z</time></trkpt><trkpt lat="44.1502642" lon="9.9052008"><ele>12.0</ele><time>2026-04-20T13:35:18.446Z</time></trkpt><trkpt lat="44.146034" lon="9.9085299"><ele>14.0</ele><time>2026-04-20T13:35:36.434Z</time></trkpt><trkpt lat="44.1417074" lon="9.9119173"><ele>15.0</ele><time>2026-04-20T13:35:54.439Z</time></trkpt><trkpt lat="44.1377729" lon="9.9162079"><ele>9.0</ele><time>2026-04-20T13:36:12.435Z</time></trkpt><trkpt lat="44.1341369" lon="9.92084"><ele>11.0</ele><time>2026-04-20T13:36:30.437Z</time></trkpt><trkpt lat="44.1306571" lon="9.9253576"><ele>11.0</ele><time>2026-04-20T13:36:48.431Z</time></trkpt><trkpt lat="44.1271108" lon="9.9298308"><ele>10.0</ele><time>2026-04-20T13:37:05.439Z</time></trkpt><trkpt lat="44.123406" lon="9.9344493"><ele>11.0</ele><time>2026-04-20T13:37:23.436Z</time></trkpt><trkpt lat="44.1191468" lon="9.9378015"><ele>6.0</ele><time>2026-04-20T13:37:41.438Z</time></trkpt><trkpt lat="44.1146922" lon="9.940404"><ele>12.0</ele><time>2026-04-20T13:37:59.437Z</time></trkpt><trkpt lat="44.1101946" lon="9.9430405"><ele>7.0</ele><time>2026-04-20T13:38:17.445Z</time></trkpt><trkpt lat="44.1058934" lon="9.9458343"><ele>9.0</ele><time>2026-04-20T13:38:34.435Z</time></trkpt><trkpt lat="44.1023032" lon="9.9501474"><ele>5.0</ele><time>2026-04-20T13:38:51.435Z</time></trkpt><trkpt lat="44.0995049" lon="9.9558109"><ele>5.0</ele><time>2026-04-20T13:39:09.427Z</time></trkpt><trkpt lat="44.0967799" lon="9.961318"><ele>5.0</ele><time>2026-04-20T13:39:26.432Z</time></trkpt><trkpt lat="44.093616" lon="9.9664687"><ele>4.0</ele><time>2026-04-20T13:39:43.426Z</time></trkpt><trkpt lat="44.0898174" lon="9.9707197"><ele>3.0</ele><time>2026-04-20T13:40:00.437Z</time></trkpt><trkpt lat="44.0856015" lon="9.9741903"><ele>2.0</ele><time>2026-04-20T13:40:20.439Z</time></trkpt><trkpt lat="44.0813696" lon="9.9774606"><ele>4.0</ele><time>2026-04-20T13:40:37.344Z</time></trkpt><trkpt lat="44.0772616" lon="9.9813033"><ele>2.0</ele><time>2026-04-20T13:40:55.436Z</time></trkpt><trkpt lat="44.0739533" lon="9.9863052"><ele>2.0</ele><time>2026-04-20T13:41:12.434Z</time></trkpt><trkpt lat="44.0709068" lon="9.9913641"><ele>1.0</ele><time>2026-04-20T13:41:29.434Z</time></trkpt><trkpt lat="44.0677899" lon="9.9964917"><ele>-1.0</ele><time>2026-04-20T13:41:46.432Z</time></trkpt><trkpt lat="44.0647221" lon="10.0015166"><ele>4.0</ele><time>2026-04-20T13:42:03.444Z</time></trkpt><trkpt lat="44.0615695" lon="10.0067226"><ele>0.0</ele><time>2026-04-20T13:42:21.437Z</time></trkpt><trkpt lat="44.0589557" lon="10.0122717"><ele>0.0</ele><time>2026-04-20T13:42:38.437Z</time></trkpt><trkpt lat="44.0570884" lon="10.018424"><ele>3.0</ele><time>2026-04-20T13:42:55.444Z</time></trkpt><trkpt lat="44.0552723" lon="10.0247289"><ele>3.0</ele><time>2026-04-20T13:43:13.452Z</time></trkpt><trkpt lat="44.053503" lon="10.0308298"><ele>2.0</ele><time>2026-04-20T13:43:30.444Z</time></trkpt><trkpt lat="44.0511868" lon="10.0369209"><ele>4.0</ele><time>2026-04-20T13:43:48.434Z</time></trkpt><trkpt lat="44.0483386" lon="10.0422637"><ele>5.0</ele><time>2026-04-20T13:44:05.446Z</time></trkpt><trkpt lat="44.0454703" lon="10.0477313"><ele>6.0</ele><time>2026-04-20T13:44:22.447Z</time></trkpt><trkpt lat="44.0426849" lon="10.053214"><ele>4.0</ele><time>2026-04-20T13:44:39.443Z</time></trkpt><trkpt lat="44.0398336" lon="10.0596035"><ele>4.0</ele><time>2026-04-20T13:44:58.44Z</time></trkpt><trkpt lat="44.037248" lon="10.0654297"><ele>3.0</ele><time>2026-04-20T13:45:16.439Z</time></trkpt><trkpt lat="44.0347732" lon="10.071233"><ele>2.0</ele><time>2026-04-20T13:45:34.446Z</time></trkpt><trkpt lat="44.0334455" lon="10.0778406"><ele>3.0</ele><time>2026-04-20T13:45:52.433Z</time></trkpt><trkpt lat="44.0322505" lon="10.0842192"><ele>4.0</ele><time>2026-04-20T13:46:10.436Z</time></trkpt><trkpt lat="44.0295272" lon="10.0898012"><ele>3.0</ele><time>2026-04-20T13:46:27.434Z</time></trkpt><trkpt lat="44.026198" lon="10.094853"><ele>2.0</ele><time>2026-04-20T13:46:45.426Z</time></trkpt><trkpt lat="44.0231091" lon="10.0999251"><ele>4.0</ele><time>2026-04-20T13:47:03.431Z</time></trkpt><trkpt lat="44.0212145" lon="10.1060455"><ele>5.0</ele><time>2026-04-20T13:47:21.433Z</time></trkpt><trkpt lat="44.0196702" lon="10.1125467"><ele>7.0</ele><time>2026-04-20T13:47:39.437Z</time></trkpt><trkpt lat="44.0171816" lon="10.1181618"><ele>3.0</ele><time>2026-04-20T13:47:57.441Z</time></trkpt><trkpt lat="44.0143433" lon="10.1238116"><ele>3.0</ele><time>2026-04-20T13:48:16.438Z</time></trkpt><trkpt lat="44.0118346" lon="10.128697"><ele>2.0</ele><time>2026-04-20T13:48:32.432Z</time></trkpt><trkpt lat="44.0084392" lon="10.1336223"><ele>3.0</ele><time>2026-04-20T13:48:50.434Z</time></trkpt><trkpt lat="44.0051293" lon="10.1384183"><ele>3.0</ele><time>2026-04-20T13:49:09.428Z</time></trkpt><trkpt lat="44.0017844" lon="10.1432662"><ele>3.0</ele><time>2026-04-20T13:49:28.441Z</time></trkpt><trkpt lat="43.9976366" lon="10.1468252"><ele>5.0</ele><time>2026-04-20T13:49:45.338Z</time></trkpt><trkpt lat="43.9932133" lon="10.1497818"><ele>2.0</ele><time>2026-04-20T13:50:03.34Z</time></trkpt><trkpt lat="43.9895155" lon="10.1540264"><ele>1.0</ele><time>2026-04-20T13:50:20.329Z</time></trkpt><trkpt lat="43.9861103" lon="10.1588951"><ele>2.0</ele><time>2026-04-20T13:50:37.319Z</time></trkpt><trkpt lat="43.9828118" lon="10.1637048"><ele>2.0</ele><time>2026-04-20T13:50:54.338Z</time></trkpt><trkpt lat="43.9795158" lon="10.16845"><ele>1.0</ele><time>2026-04-20T13:51:11.335Z</time></trkpt><trkpt lat="43.9762083" lon="10.1732357"><ele>4.0</ele><time>2026-04-20T13:51:28.336Z</time></trkpt><trkpt lat="43.9731616" lon="10.1782369"><ele>8.0</ele><time>2026-04-20T13:51:45.439Z</time></trkpt><trkpt lat="43.9701706" lon="10.1835005"><ele>4.0</ele><time>2026-04-20T13:52:02.431Z</time></trkpt><trkpt lat="43.9667075" lon="10.1880539"><ele>4.0</ele><time>2026-04-20T13:52:19.435Z</time></trkpt><trkpt lat="43.9629619" lon="10.1922104"><ele>3.0</ele><time>2026-04-20T13:52:36.437Z</time></trkpt><trkpt lat="43.9592292" lon="10.1964064"><ele>4.0</ele><time>2026-04-20T13:52:53.435Z</time></trkpt><trkpt lat="43.9555461" lon="10.2005429"><ele>2.0</ele><time>2026-04-20T13:53:10.433Z</time></trkpt><trkpt lat="43.9516865" lon="10.2049082"><ele>4.0</ele><time>2026-04-20T13:53:28.442Z</time></trkpt><trkpt lat="43.9479512" lon="10.2090204"><ele>1.0</ele><time>2026-04-20T13:53:45.438Z</time></trkpt><trkpt lat="43.9440424" lon="10.2127052"><ele>2.0</ele><time>2026-04-20T13:54:02.339Z</time></trkpt><trkpt lat="43.9396871" lon="10.2157755"><ele>1.0</ele><time>2026-04-20T13:54:19.433Z</time></trkpt><trkpt lat="43.9354602" lon="10.2187068"><ele>2.0</ele><time>2026-04-20T13:54:36.429Z</time></trkpt><trkpt lat="43.9312421" lon="10.2216698"><ele>1.0</ele><time>2026-04-20T13:54:53.433Z</time></trkpt><trkpt lat="43.9268327" lon="10.2247855"><ele>0.0</ele><time>2026-04-20T13:55:11.435Z</time></trkpt><trkpt lat="43.9227764" lon="10.2282124"><ele>1.0</ele><time>2026-04-20T13:55:28.452Z</time></trkpt><trkpt lat="43.9186927" lon="10.2322302"><ele>1.0</ele><time>2026-04-20T13:55:46.446Z</time></trkpt><trkpt lat="43.9146604" lon="10.2361159"><ele>1.0</ele><time>2026-04-20T13:56:03.437Z</time></trkpt><trkpt lat="43.9106052" lon="10.2400569"><ele>1.0</ele><time>2026-04-20T13:56:21.445Z</time></trkpt><trkpt lat="43.9066582" lon="10.2441929"><ele>3.0</ele><time>2026-04-20T13:56:39.449Z</time></trkpt><trkpt lat="43.9028488" lon="10.2485136"><ele>3.0</ele><time>2026-04-20T13:56:57.445Z</time></trkpt><trkpt lat="43.8990335" lon="10.2528258"><ele>-1.0</ele><time>2026-04-20T13:57:15.457Z</time></trkpt><trkpt lat="43.8957517" lon="10.2565623"><ele>-1.0</ele><time>2026-04-20T13:57:32.445Z</time></trkpt><trkpt lat="43.8916421" lon="10.2599997"><ele>0.0</ele><time>2026-04-20T13:57:49.456Z</time></trkpt><trkpt lat="43.8873799" lon="10.2629271"><ele>0.0</ele><time>2026-04-20T13:58:13.458Z</time></trkpt><trkpt lat="43.8889194" lon="10.2648197"><ele>-1.0</ele><time>2026-04-20T13:59:12.462Z</time></trkpt><trkpt lat="43.8905135" lon="10.2690644"><ele>-2.0</ele><time>2026-04-20T13:59:28.458Z</time></trkpt><trkpt lat="43.892468" lon="10.275058"><ele>0.0</ele><time>2026-04-20T13:59:49.458Z</time></trkpt><trkpt lat="43.8920894" lon="10.2806599"><ele>-1.0</ele><time>2026-04-20T14:00:05.437Z</time></trkpt><trkpt lat="43.8900173" lon="10.2866965"><ele>1.0</ele><time>2026-04-20T14:00:22.448Z</time></trkpt><trkpt lat="43.8879115" lon="10.2929676"><ele>1.0</ele><time>2026-04-20T14:00:40.455Z</time></trkpt><trkpt lat="43.88588" lon="10.2991001"><ele>28.0</ele><time>2026-04-20T14:00:58.456Z</time></trkpt><trkpt lat="43.884388" lon="10.3055523"><ele>5.0</ele><time>2026-04-20T14:01:16.444Z</time></trkpt><trkpt lat="43.8839185" lon="10.3120638"><ele>39.0</ele><time>2026-04-20T14:01:35.452Z</time></trkpt><trkpt lat="43.8839387" lon="10.318706"><ele>46.0</ele><time>2026-04-20T14:01:54.457Z</time></trkpt><trkpt lat="43.8825528" lon="10.3252517"><ele>54.0</ele><time>2026-04-20T14:02:12.459Z</time></trkpt><trkpt lat="43.8807579" lon="10.3314493"><ele>58.0</ele><time>2026-04-20T14:02:31.448Z</time></trkpt><trkpt lat="43.8799696" lon="10.3370944"><ele>37.0</ele><time>2026-04-20T14:02:47.46Z</time></trkpt><trkpt lat="43.8777818" lon="10.3430781"><ele>78.0</ele><time>2026-04-20T14:03:06.457Z</time></trkpt><trkpt lat="43.8739562" lon="10.3473579"><ele>118.0</ele><time>2026-04-20T14:03:25.463Z</time></trkpt><trkpt lat="43.8708655" lon="10.3525517"><ele>81.0</ele><time>2026-04-20T14:03:44.411Z</time></trkpt><trkpt lat="43.8707153" lon="10.3591473"><ele>91.0</ele><time>2026-04-20T14:04:02.453Z</time></trkpt><trkpt lat="43.868348" lon="10.3649377"><ele>124.0</ele><time>2026-04-20T14:04:21.453Z</time></trkpt><trkpt lat="43.8635526" lon="10.3666841"><ele>150.0</ele><time>2026-04-20T14:04:39.466Z</time></trkpt><trkpt lat="43.8588631" lon="10.3684764"><ele>158.0</ele><time>2026-04-20T14:04:57.433Z</time></trkpt><trkpt lat="43.8549105" lon="10.3723681"><ele>172.0</ele><time>2026-04-20T14:05:15.443Z</time></trkpt><trkpt lat="43.8524841" lon="10.3782421"><ele>169.0</ele><time>2026-04-20T14:05:34.293Z</time></trkpt><trkpt lat="43.8521634" lon="10.3849566"><ele>125.0</ele><time>2026-04-20T14:05:58.3Z</time></trkpt><trkpt lat="43.8531635" lon="10.3908516"><ele>87.0</ele><time>2026-04-20T14:06:07.41Z</time></trkpt><trkpt lat="43.8536649" lon="10.3974262"><ele>70.0</ele><time>2026-04-20T14:06:25.423Z</time></trkpt><trkpt lat="43.8535728" lon="10.4042863"><ele>47.0</ele><time>2026-04-20T14:06:44.435Z</time></trkpt><trkpt lat="43.8533932" lon="10.4109708"><ele>28.0</ele><time>2026-04-20T14:07:02.441Z</time></trkpt><trkpt lat="43.853213" lon="10.4177895"><ele>18.0</ele><time>2026-04-20T14:07:21.443Z</time></trkpt><trkpt lat="43.8530311" lon="10.4246768"><ele>16.0</ele><time>2026-04-20T14:07:40.449Z</time></trkpt><trkpt lat="43.8527584" lon="10.4315036"><ele>16.0</ele><time>2026-04-20T14:07:59.441Z</time></trkpt><trkpt lat="43.8515014" lon="10.4378065"><ele>13.0</ele><time>2026-04-20T14:08:17.443Z</time></trkpt><trkpt lat="43.8490124" lon="10.4435407"><ele>16.0</ele><time>2026-04-20T14:08:35.466Z</time></trkpt><trkpt lat="43.8461826" lon="10.4489995"><ele>12.0</ele><time>2026-04-20T14:08:53.457Z</time></trkpt><trkpt lat="43.8433145" lon="10.4545814"><ele>13.0</ele><time>2026-04-20T14:09:11.455Z</time></trkpt><trkpt lat="43.8404456" lon="10.4600101"><ele>14.0</ele><time>2026-04-20T14:09:30.46Z</time></trkpt><trkpt lat="43.8380846" lon="10.4645636"><ele>14.0</ele><time>2026-04-20T14:09:48.447Z</time></trkpt><trkpt lat="43.8376566" lon="10.4692969"><ele>11.0</ele><time>2026-04-20T14:10:41.34Z</time></trkpt><trkpt lat="43.8364497" lon="10.4717775"><ele>14.0</ele><time>2026-04-20T14:11:53.354Z</time></trkpt><trkpt lat="43.8339092" lon="10.4749698"><ele>11.0</ele><time>2026-04-20T14:12:19.362Z</time></trkpt><trkpt lat="43.835866" lon="10.4762126"><ele>12.0</ele><time>2026-04-20T14:12:36.337Z</time></trkpt><trkpt lat="43.8386161" lon="10.4763612"><ele>14.0</ele><time>2026-04-20T14:12:59.457Z</time></trkpt><trkpt lat="43.8402003" lon="10.4794134"><ele>15.0</ele><time>2026-04-20T14:13:33.439Z</time></trkpt><trkpt lat="43.8400405" lon="10.4831636"><ele>15.0</ele><time>2026-04-20T14:13:53.432Z</time></trkpt><trkpt lat="43.839923" lon="10.4869882"><ele>16.0</ele><time>2026-04-20T14:14:12.427Z</time></trkpt><trkpt lat="43.8407396" lon="10.4925404"><ele>17.0</ele><time>2026-04-20T14:15:08.343Z</time></trkpt><trkpt lat="43.8398172" lon="10.4950448"><ele>17.0</ele><time>2026-04-20T14:15:46.352Z</time></trkpt><trkpt lat="43.8411918" lon="10.4947979"><ele>17.0</ele><time>2026-04-20T14:16:08.334Z</time></trkpt></trkseg></trk></gpx>